<?xml version='1.0' encoding='UTF-8'?><gpx version="1.1" creator="JPX - https://github.com/jenetics/jpx" xmlns="http://www.topografix.com/GPX/1/1"><trk><trkseg><trkpt lat="43.65770978759787" lon="12.734110098494204"><ele>171.0</ele><time>2026-04-29T10:32:53Z</time></trkpt><trkpt lat="43.65757478607685" lon="12.734129752839465"><ele>171.0</ele><time>2026-04-29T10:32:55.001Z</time></trkpt><trkpt lat="43.65748000912888" lon="12.73411257194816"><ele>171.0</ele><time>2026-04-29T10:32:56.001Z</time></trkpt><trkpt lat="43.657382726837774" lon="12.734076211013543"><ele>171.0</ele><time>2026-04-29T10:32:57.001Z</time></trkpt><trkpt lat="43.65727680458311" lon="12.734037597320256"><ele>171.0</ele><time>2026-04-29T10:32:58.001Z</time></trkpt><trkpt lat="43.657165963779086" lon="12.733980946656839"><ele>171.0</ele><time>2026-04-29T10:32:59.001Z</time></trkpt><trkpt lat="43.6570489654513" lon="12.733924845665658"><ele>171.0</ele><time>2026-04-29T10:33:00.001Z</time></trkpt><trkpt lat="43.65692856460297" lon="12.73386360962176"><ele>171.0</ele><time>2026-04-29T10:33:01.001Z</time></trkpt><trkpt lat="43.65680464207817" lon="12.733798947252186"><ele>171.0</ele><time>2026-04-29T10:33:02.001Z</time></trkpt><trkpt lat="43.656677997595885" lon="12.733735100889"><ele>168.8</ele><time>2026-04-29T10:33:03.001Z</time></trkpt><trkpt lat="43.65657460071441" lon="12.733653046763957"><ele>166.60000000000002</ele><time>2026-04-29T10:33:04.001Z</time></trkpt><trkpt lat="43.656474686979735" lon="12.733596053800714"><ele>164.4</ele><time>2026-04-29T10:33:05.001Z</time></trkpt><trkpt lat="43.656384466530696" lon="12.73354458992083"><ele>162.2</ele><time>2026-04-29T10:33:06.001Z</time></trkpt><trkpt lat="43.65629408091162" lon="12.733493031955419"><ele>160.0</ele><time>2026-04-29T10:33:07.001Z</time></trkpt><trkpt lat="43.65620581238417" lon="12.733442681580316"><ele>164.6</ele><time>2026-04-29T10:33:07.997Z</time></trkpt><trkpt lat="43.65611685947059" lon="12.733411539869117"><ele>169.2</ele><time>2026-04-29T10:33:08.997Z</time></trkpt><trkpt lat="43.65603054755961" lon="12.733366967054462"><ele>173.8</ele><time>2026-04-29T10:33:09.997Z</time></trkpt><trkpt lat="43.65594503739085" lon="12.733327807948905"><ele>178.4</ele><time>2026-04-29T10:33:10.997Z</time></trkpt><trkpt lat="43.655866234487966" lon="12.733263628316593"><ele>183.0</ele><time>2026-04-29T10:33:11.997Z</time></trkpt><trkpt lat="43.65578208241093" lon="12.73322647308089"><ele>183.0</ele><time>2026-04-29T10:33:12.997Z</time></trkpt><trkpt lat="43.65570700251618" lon="12.733195449048905"><ele>183.0</ele><time>2026-04-29T10:33:13.997Z</time></trkpt><trkpt lat="43.6556406324725" lon="12.733168024003767"><ele>183.0</ele><time>2026-04-29T10:33:14.997Z</time></trkpt><trkpt lat="43.65554086166709" lon="12.733144005109152"><ele>183.0</ele><time>2026-04-29T10:33:16.998Z</time></trkpt><trkpt lat="43.655474044200645" lon="12.733096637671066"><ele>183.0</ele><time>2026-04-29T10:33:18.998Z</time></trkpt><trkpt lat="43.65540683460925" lon="12.73306029661161"><ele>183.0</ele><time>2026-04-29T10:33:22.998Z</time></trkpt><trkpt lat="43.65533184889325" lon="12.733003076207016"><ele>182.8</ele><time>2026-04-29T10:34:21Z</time></trkpt><trkpt lat="43.655224972857454" lon="12.732890414915879"><ele>182.60000000000002</ele><time>2026-04-29T10:34:23Z</time></trkpt><trkpt lat="43.65516364614957" lon="12.732811435260224"><ele>182.39999999999998</ele><time>2026-04-29T10:34:24Z</time></trkpt><trkpt lat="43.655103738107826" lon="12.732722713236281"><ele>182.2</ele><time>2026-04-29T10:34:25Z</time></trkpt><trkpt lat="43.65503563870331" lon="12.732621961036086"><ele>182.0</ele><time>2026-04-29T10:34:26Z</time></trkpt><trkpt lat="43.654954907413206" lon="12.732507353994652"><ele>182.0</ele><time>2026-04-29T10:34:27Z</time></trkpt><trkpt lat="43.65486188020341" lon="12.732392409958711"><ele>182.0</ele><time>2026-04-29T10:34:28Z</time></trkpt><trkpt lat="43.654762375026024" lon="12.732270404980255"><ele>182.0</ele><time>2026-04-29T10:34:29Z</time></trkpt><trkpt lat="43.654641175732685" lon="12.732170119445037"><ele>182.0</ele><time>2026-04-29T10:34:30Z</time></trkpt><trkpt lat="43.65451658729892" lon="12.732077771857302"><ele>185.0</ele><time>2026-04-29T10:34:31Z</time></trkpt><trkpt lat="43.6544125185002" lon="12.731934308802327"><ele>188.0</ele><time>2026-04-29T10:34:32Z</time></trkpt><trkpt lat="43.654292890606186" lon="12.731795455308689"><ele>191.0</ele><time>2026-04-29T10:34:33Z</time></trkpt><trkpt lat="43.654165109296464" lon="12.731663753338337"><ele>198.66666666666666</ele><time>2026-04-29T10:34:34Z</time></trkpt><trkpt lat="43.65402509019313" lon="12.731549561852741"><ele>206.33333333333331</ele><time>2026-04-29T10:34:35Z</time></trkpt><trkpt lat="43.653872837140284" lon="12.731452537265815"><ele>214.0</ele><time>2026-04-29T10:34:36.001Z</time></trkpt><trkpt lat="43.65372326846997" lon="12.731365068162384"><ele>237.75</ele><time>2026-04-29T10:34:37.001Z</time></trkpt><trkpt lat="43.6535920042565" lon="12.731278836254946"><ele>261.5</ele><time>2026-04-29T10:34:38.001Z</time></trkpt><trkpt lat="43.65348107982449" lon="12.731181041434771"><ele>285.25</ele><time>2026-04-29T10:34:39.001Z</time></trkpt><trkpt lat="43.65340472218432" lon="12.73108630589382"><ele>309.0</ele><time>2026-04-29T10:34:40.001Z</time></trkpt><trkpt lat="43.65335336518693" lon="12.730996371853955"><ele>309.0</ele><time>2026-04-29T10:34:41.001Z</time></trkpt><trkpt lat="43.65334134172925" lon="12.730886728409569"><ele>309.0</ele><time>2026-04-29T10:34:42.001Z</time></trkpt><trkpt lat="43.6533032057773" lon="12.730770849733851"><ele>309.0</ele><time>2026-04-29T10:34:43.001Z</time></trkpt><trkpt lat="43.65328546174135" lon="12.730627318620833"><ele>309.0</ele><time>2026-04-29T10:34:44.001Z</time></trkpt><trkpt lat="43.653243830504685" lon="12.730494132594583"><ele>309.0</ele><time>2026-04-29T10:34:45.001Z</time></trkpt><trkpt lat="43.65317833227625" lon="12.730371153195856"><ele>309.0</ele><time>2026-04-29T10:34:46.001Z</time></trkpt><trkpt lat="43.6530818369034" lon="12.730292615780385"><ele>309.0</ele><time>2026-04-29T10:34:47.001Z</time></trkpt><trkpt lat="43.652974096135715" lon="12.730227421695574"><ele>309.0</ele><time>2026-04-29T10:34:48.001Z</time></trkpt><trkpt lat="43.652849022675305" lon="12.730156854678727"><ele>309.0</ele><time>2026-04-29T10:34:49.001Z</time></trkpt><trkpt lat="43.652724106161486" lon="12.730088189768523"><ele>324.3333333333333</ele><time>2026-04-29T10:34:50.001Z</time></trkpt><trkpt lat="43.652569553486735" lon="12.730002896574272"><ele>339.66666666666663</ele><time>2026-04-29T10:34:51.001Z</time></trkpt><trkpt lat="43.6524154496856" lon="12.72991772450298"><ele>355.0</ele><time>2026-04-29T10:34:52.001Z</time></trkpt><trkpt lat="43.652257978302465" lon="12.729830691119849"><ele>355.0</ele><time>2026-04-29T10:34:53.001Z</time></trkpt><trkpt lat="43.65209408876405" lon="12.729740070322562"><ele>355.0</ele><time>2026-04-29T10:34:54.001Z</time></trkpt><trkpt lat="43.651925854735346" lon="12.729648195579452"><ele>355.0</ele><time>2026-04-29T10:34:55.001Z</time></trkpt><trkpt lat="43.65175712591442" lon="12.729584237955134"><ele>386.0</ele><time>2026-04-29T10:34:56.001Z</time></trkpt><trkpt lat="43.65160249027837" lon="12.729505105131588"><ele>417.0</ele><time>2026-04-29T10:34:57.001Z</time></trkpt><trkpt lat="43.65146445389634" lon="12.729443913184895"><ele>448.0</ele><time>2026-04-29T10:34:58.001Z</time></trkpt><trkpt lat="43.65133231896634" lon="12.72938753329661"><ele>479.0</ele><time>2026-04-29T10:34:59.001Z</time></trkpt><trkpt lat="43.65118578860061" lon="12.729412043322329"><ele>473.0</ele><time>2026-04-29T10:35:00.001Z</time></trkpt><trkpt lat="43.65104704483813" lon="12.729503019186087"><ele>467.0</ele><time>2026-04-29T10:35:01.001Z</time></trkpt><trkpt lat="43.65090176708277" lon="12.72951477594701"><ele>461.0</ele><time>2026-04-29T10:35:02.001Z</time></trkpt><trkpt lat="43.650767435492604" lon="12.72950625488346"><ele>455.0</ele><time>2026-04-29T10:35:03.001Z</time></trkpt><trkpt lat="43.650635058088625" lon="12.729454339141377"><ele>460.0</ele><time>2026-04-29T10:35:04.001Z</time></trkpt><trkpt lat="43.650534960365746" lon="12.729344785847857"><ele>465.0</ele><time>2026-04-29T10:35:05.001Z</time></trkpt><trkpt lat="43.65043108370709" lon="12.729205545155777"><ele>470.0</ele><time>2026-04-29T10:35:06.001Z</time></trkpt><trkpt lat="43.65030505563463" lon="12.729064336594663"><ele>475.0</ele><time>2026-04-29T10:35:07.001Z</time></trkpt><trkpt lat="43.650185490773396" lon="12.72889265683494"><ele>475.0</ele><time>2026-04-29T10:35:08.001Z</time></trkpt><trkpt lat="43.65003336118115" lon="12.72874438046456"><ele>475.0</ele><time>2026-04-29T10:35:09.001Z</time></trkpt><trkpt lat="43.64989964280192" lon="12.72856966506463"><ele>475.0</ele><time>2026-04-29T10:35:10.001Z</time></trkpt><trkpt lat="43.64975386829821" lon="12.728407490472815"><ele>477.6666666666667</ele><time>2026-04-29T10:35:11.001Z</time></trkpt><trkpt lat="43.649608666049595" lon="12.728239768321618"><ele>480.33333333333337</ele><time>2026-04-29T10:35:12.001Z</time></trkpt><trkpt lat="43.64946511477775" lon="12.72807637326133"><ele>483.0</ele><time>2026-04-29T10:35:13.001Z</time></trkpt><trkpt lat="43.64930817063598" lon="12.727910932833831"><ele>483.0</ele><time>2026-04-29T10:35:13.999Z</time></trkpt><trkpt lat="43.64914727064016" lon="12.727796367988697"><ele>483.0</ele><time>2026-04-29T10:35:14.999Z</time></trkpt><trkpt lat="43.64896198909463" lon="12.72773899411334"><ele>483.0</ele><time>2026-04-29T10:35:15.999Z</time></trkpt><trkpt lat="43.64876600493421" lon="12.72769742385757"><ele>478.66666666666663</ele><time>2026-04-29T10:35:16.999Z</time></trkpt><trkpt lat="43.648581205751995" lon="12.72763951417607"><ele>474.3333333333333</ele><time>2026-04-29T10:35:17.999Z</time></trkpt><trkpt lat="43.64840228784223" lon="12.727591265869428"><ele>470.0</ele><time>2026-04-29T10:35:18.999Z</time></trkpt><trkpt lat="43.648239424762835" lon="12.727550154713445"><ele>470.0</ele><time>2026-04-29T10:35:19.999Z</time></trkpt><trkpt lat="43.648103508755874" lon="12.727445793622033"><ele>470.0</ele><time>2026-04-29T10:35:20.999Z</time></trkpt><trkpt lat="43.64796516166919" lon="12.72734663729073"><ele>470.0</ele><time>2026-04-29T10:35:21.999Z</time></trkpt><trkpt lat="43.64779921800925" lon="12.727229352150655"><ele>462.66666666666663</ele><time>2026-04-29T10:35:22.999Z</time></trkpt><trkpt lat="43.64764503198713" lon="12.727104852868607"><ele>455.33333333333337</ele><time>2026-04-29T10:35:23.999Z</time></trkpt><trkpt lat="43.647501535724864" lon="12.726950868453722"><ele>448.0</ele><time>2026-04-29T10:35:25Z</time></trkpt><trkpt lat="43.64735482509236" lon="12.726801538138917"><ele>445.0</ele><time>2026-04-29T10:35:26Z</time></trkpt><trkpt lat="43.64722151216968" lon="12.726661892342578"><ele>442.0</ele><time>2026-04-29T10:35:27Z</time></trkpt><trkpt lat="43.64709679667999" lon="12.726543944777378"><ele>439.0</ele><time>2026-04-29T10:35:28Z</time></trkpt><trkpt lat="43.64698409339846" lon="12.726380969817145"><ele>448.6666666666667</ele><time>2026-04-29T10:35:29Z</time></trkpt><trkpt lat="43.64688749227304" lon="12.726206140472025"><ele>458.33333333333337</ele><time>2026-04-29T10:35:30Z</time></trkpt><trkpt lat="43.64681589101969" lon="12.726004796996701"><ele>468.0</ele><time>2026-04-29T10:35:31Z</time></trkpt><trkpt lat="43.64676082588331" lon="12.725785524439123"><ele>468.0</ele><time>2026-04-29T10:35:32Z</time></trkpt><trkpt lat="43.64670691107139" lon="12.725550688269534"><ele>468.0</ele><time>2026-04-29T10:35:33Z</time></trkpt><trkpt lat="43.64665146987024" lon="12.725312802712242"><ele>468.0</ele><time>2026-04-29T10:35:34Z</time></trkpt><trkpt lat="43.64658124752142" lon="12.7250735957778"><ele>464.66666666666663</ele><time>2026-04-29T10:35:35Z</time></trkpt><trkpt lat="43.646503444368626" lon="12.724826831249628"><ele>461.3333333333333</ele><time>2026-04-29T10:35:36Z</time></trkpt><trkpt lat="43.646436636291156" lon="12.724571967011947"><ele>458.0</ele><time>2026-04-29T10:35:37Z</time></trkpt><trkpt lat="43.64638805198044" lon="12.724291308716394"><ele>457.3333333333333</ele><time>2026-04-29T10:35:38Z</time></trkpt><trkpt lat="43.646348753419645" lon="12.724004252940885"><ele>456.66666666666663</ele><time>2026-04-29T10:35:39Z</time></trkpt><trkpt lat="43.646316110639944" lon="12.72371368989948"><ele>456.0</ele><time>2026-04-29T10:35:40Z</time></trkpt><trkpt lat="43.64627363121121" lon="12.723454050909158"><ele>456.0</ele><time>2026-04-29T10:35:41Z</time></trkpt><trkpt lat="43.64623139263935" lon="12.723233116924186"><ele>456.0</ele><time>2026-04-29T10:35:42Z</time></trkpt><trkpt lat="43.64616090854917" lon="12.723007179692834"><ele>456.0</ele><time>2026-04-29T10:35:43Z</time></trkpt><trkpt lat="43.64605764154129" lon="12.722794958202071"><ele>451.33333333333337</ele><time>2026-04-29T10:35:44Z</time></trkpt><trkpt lat="43.64595099917856" lon="12.722574673105733"><ele>446.6666666666667</ele><time>2026-04-29T10:35:45Z</time></trkpt><trkpt lat="43.64583440824549" lon="12.722348965037657"><ele>442.0</ele><time>2026-04-29T10:35:46Z</time></trkpt><trkpt lat="43.645705217622314" lon="12.72212656827907"><ele>442.0</ele><time>2026-04-29T10:35:47Z</time></trkpt><trkpt lat="43.645557513490594" lon="12.72192357405368"><ele>442.0</ele><time>2026-04-29T10:35:48Z</time></trkpt><trkpt lat="43.64538859141043" lon="12.72174754073354"><ele>442.0</ele><time>2026-04-29T10:35:49Z</time></trkpt><trkpt lat="43.645211207351956" lon="12.721576153361536"><ele>441.6666666666667</ele><time>2026-04-29T10:35:50Z</time></trkpt><trkpt lat="43.64503246558374" lon="12.721395016823106"><ele>441.33333333333337</ele><time>2026-04-29T10:35:51Z</time></trkpt><trkpt lat="43.64486572041539" lon="12.721194719259358"><ele>441.0</ele><time>2026-04-29T10:35:52Z</time></trkpt><trkpt lat="43.64470428198822" lon="12.721007595931853"><ele>442.33333333333337</ele><time>2026-04-29T10:35:53Z</time></trkpt><trkpt lat="43.64455357998074" lon="12.720813022317323"><ele>443.6666666666667</ele><time>2026-04-29T10:35:54Z</time></trkpt><trkpt lat="43.644458870741296" lon="12.720574099511824"><ele>445.0</ele><time>2026-04-29T10:35:55Z</time></trkpt><trkpt lat="43.64437092781019" lon="12.720326277097277"><ele>444.33333333333337</ele><time>2026-04-29T10:35:56Z</time></trkpt><trkpt lat="43.64428705902342" lon="12.720072122565124"><ele>443.66666666666663</ele><time>2026-04-29T10:35:57.001Z</time></trkpt><trkpt lat="43.64419507184003" lon="12.719828778287916"><ele>443.0</ele><time>2026-04-29T10:35:58.001Z</time></trkpt><trkpt lat="43.644107891984056" lon="12.719577013859364"><ele>454.0</ele><time>2026-04-29T10:35:59.001Z</time></trkpt><trkpt lat="43.64401228713984" lon="12.719333168757231"><ele>465.0</ele><time>2026-04-29T10:36:00.001Z</time></trkpt><trkpt lat="43.64389524406334" lon="12.719102360929508"><ele>476.0</ele><time>2026-04-29T10:36:01.001Z</time></trkpt><trkpt lat="43.643763862220574" lon="12.71888202686464"><ele>476.0</ele><time>2026-04-29T10:36:02.001Z</time></trkpt><trkpt lat="43.64362104912873" lon="12.718668102505156"><ele>476.0</ele><time>2026-04-29T10:36:03.001Z</time></trkpt><trkpt lat="43.64346382842247" lon="12.718465207330102"><ele>476.0</ele><time>2026-04-29T10:36:04.001Z</time></trkpt><trkpt lat="43.64329312449916" lon="12.718281569159153"><ele>476.0</ele><time>2026-04-29T10:36:05.001Z</time></trkpt><trkpt lat="43.6431101172006" lon="12.718113395782236"><ele>476.0</ele><time>2026-04-29T10:36:06.001Z</time></trkpt><trkpt lat="43.64290985121084" lon="12.717975616844438"><ele>476.0</ele><time>2026-04-29T10:36:07.001Z</time></trkpt><trkpt lat="43.64272723149413" lon="12.717801309097194"><ele>476.0</ele><time>2026-04-29T10:36:08.001Z</time></trkpt><trkpt lat="43.64254496554486" lon="12.717614895230763"><ele>476.0</ele><time>2026-04-29T10:36:09.001Z</time></trkpt><trkpt lat="43.64235830839626" lon="12.717430965319071"><ele>476.0</ele><time>2026-04-29T10:36:10.001Z</time></trkpt><trkpt lat="43.64216137465732" lon="12.717260109484778"><ele>476.0</ele><time>2026-04-29T10:36:11.001Z</time></trkpt><trkpt lat="43.641982123203874" lon="12.717059809163132"><ele>349.5</ele><time>2026-04-29T10:36:12.001Z</time></trkpt><trkpt lat="43.64182546549487" lon="12.716826741590296"><ele>223.0</ele><time>2026-04-29T10:36:13.001Z</time></trkpt><trkpt lat="43.641655489302536" lon="12.71662106906584"><ele>223.0</ele><time>2026-04-29T10:36:14.001Z</time></trkpt><trkpt lat="43.641499883681476" lon="12.71641293400514"><ele>223.0</ele><time>2026-04-29T10:36:15.001Z</time></trkpt><trkpt lat="43.64133090171825" lon="12.71623848984723"><ele>223.0</ele><time>2026-04-29T10:36:16.001Z</time></trkpt><trkpt lat="43.64114419571864" lon="12.716103424499257"><ele>211.66666666666666</ele><time>2026-04-29T10:36:17.001Z</time></trkpt><trkpt lat="43.64096654725622" lon="12.715949520719137"><ele>200.33333333333331</ele><time>2026-04-29T10:36:18.001Z</time></trkpt><trkpt lat="43.64080141577264" lon="12.715775601952314"><ele>189.0</ele><time>2026-04-29T10:36:19.001Z</time></trkpt><trkpt lat="43.64066860730443" lon="12.71555575484358"><ele>189.0</ele><time>2026-04-29T10:36:20.001Z</time></trkpt><trkpt lat="43.640507596221084" lon="12.715379186212603"><ele>189.0</ele><time>2026-04-29T10:36:21.001Z</time></trkpt><trkpt lat="43.640337952445506" lon="12.715222842341651"><ele>189.0</ele><time>2026-04-29T10:36:22.001Z</time></trkpt><trkpt lat="43.64016124146274" lon="12.715087125854437"><ele>189.33333333333334</ele><time>2026-04-29T10:36:23.001Z</time></trkpt><trkpt lat="43.64000382848164" lon="12.71494206959591"><ele>189.66666666666669</ele><time>2026-04-29T10:36:24.001Z</time></trkpt><trkpt lat="43.63984922420769" lon="12.714817354864238"><ele>190.0</ele><time>2026-04-29T10:36:25.001Z</time></trkpt><trkpt lat="43.63971651809893" lon="12.71466545529339"><ele>190.0</ele><time>2026-04-29T10:36:26.001Z</time></trkpt><trkpt lat="43.63958370781107" lon="12.714514432498934"><ele>190.0</ele><time>2026-04-29T10:36:27.001Z</time></trkpt><trkpt lat="43.63944632983044" lon="12.714374658528538"><ele>190.0</ele><time>2026-04-29T10:36:28.001Z</time></trkpt><trkpt lat="43.639307802124144" lon="12.714244970042092"><ele>191.0</ele><time>2026-04-29T10:36:29.001Z</time></trkpt><trkpt lat="43.63917079841149" lon="12.714112531775163"><ele>192.0</ele><time>2026-04-29T10:36:30.001Z</time></trkpt><trkpt lat="43.639032941468294" lon="12.713976650648474"><ele>193.0</ele><time>2026-04-29T10:36:31.001Z</time></trkpt><trkpt lat="43.638896617015696" lon="12.713845529788987"><ele>193.0</ele><time>2026-04-29T10:36:32.001Z</time></trkpt><trkpt lat="43.63876695255834" lon="12.71371926259581"><ele>193.0</ele><time>2026-04-29T10:36:33.001Z</time></trkpt><trkpt lat="43.638642906160115" lon="12.71360252433265"><ele>193.0</ele><time>2026-04-29T10:36:34.001Z</time></trkpt><trkpt lat="43.63851780318347" lon="12.713504020859608"><ele>193.0</ele><time>2026-04-29T10:36:35.001Z</time></trkpt><trkpt lat="43.638397123031815" lon="12.71341930819309"><ele>193.0</ele><time>2026-04-29T10:36:36.001Z</time></trkpt><trkpt lat="43.63826522902967" lon="12.713349122880619"><ele>193.0</ele><time>2026-04-29T10:36:37.001Z</time></trkpt><trkpt lat="43.638125567370324" lon="12.713285386635562"><ele>193.0</ele><time>2026-04-29T10:36:38.001Z</time></trkpt><trkpt lat="43.63797812574097" lon="12.713223591645537"><ele>193.0</ele><time>2026-04-29T10:36:39.002Z</time></trkpt><trkpt lat="43.63782644857957" lon="12.71315879347129"><ele>193.0</ele><time>2026-04-29T10:36:40.002Z</time></trkpt><trkpt lat="43.637669182950226" lon="12.713085351764416"><ele>193.0</ele><time>2026-04-29T10:36:41.002Z</time></trkpt><trkpt lat="43.63751199651109" lon="12.71300502623997"><ele>190.66666666666666</ele><time>2026-04-29T10:36:42.002Z</time></trkpt><trkpt lat="43.63735148304776" lon="12.71291833128776"><ele>188.33333333333331</ele><time>2026-04-29T10:36:43.002Z</time></trkpt><trkpt lat="43.63718959682484" lon="12.712829995302124"><ele>186.0</ele><time>2026-04-29T10:36:44.002Z</time></trkpt><trkpt lat="43.63703644918084" lon="12.712731794322012"><ele>186.33333333333334</ele><time>2026-04-29T10:36:45.002Z</time></trkpt><trkpt lat="43.636889941595285" lon="12.712602972372341"><ele>186.66666666666669</ele><time>2026-04-29T10:36:46.002Z</time></trkpt><trkpt lat="43.63675495669596" lon="12.712442532758837"><ele>187.0</ele><time>2026-04-29T10:36:47.002Z</time></trkpt><trkpt lat="43.63663548586693" lon="12.712255474493952"><ele>187.0</ele><time>2026-04-29T10:36:48.002Z</time></trkpt><trkpt lat="43.63653800514344" lon="12.71204339087071"><ele>187.0</ele><time>2026-04-29T10:36:49.002Z</time></trkpt><trkpt lat="43.63647499547751" lon="12.711809114590853"><ele>187.0</ele><time>2026-04-29T10:36:50.002Z</time></trkpt><trkpt lat="43.63643628446285" lon="12.711565151261308"><ele>193.33333333333334</ele><time>2026-04-29T10:36:51.002Z</time></trkpt><trkpt lat="43.6363994931391" lon="12.711317856013741"><ele>199.66666666666669</ele><time>2026-04-29T10:36:52.002Z</time></trkpt><trkpt lat="43.63635844852955" lon="12.711064634497921"><ele>206.0</ele><time>2026-04-29T10:36:53.002Z</time></trkpt><trkpt lat="43.636316386439574" lon="12.710810868810153"><ele>209.0</ele><time>2026-04-29T10:36:54.002Z</time></trkpt><trkpt lat="43.63627405334538" lon="12.710548462926518"><ele>212.0</ele><time>2026-04-29T10:36:55.002Z</time></trkpt><trkpt lat="43.636235388285336" lon="12.710293671796716"><ele>215.0</ele><time>2026-04-29T10:36:56.002Z</time></trkpt><trkpt lat="43.636212456782644" lon="12.710046142492095"><ele>215.0</ele><time>2026-04-29T10:36:57.002Z</time></trkpt><trkpt lat="43.63622965329854" lon="12.7097953636081"><ele>215.0</ele><time>2026-04-29T10:36:58.002Z</time></trkpt><trkpt lat="43.6362783637778" lon="12.70954321806889"><ele>215.0</ele><time>2026-04-29T10:36:59.002Z</time></trkpt><trkpt lat="43.63634800564164" lon="12.709291492005912"><ele>211.66666666666669</ele><time>2026-04-29T10:37:00.002Z</time></trkpt><trkpt lat="43.63642860754481" lon="12.709038795613901"><ele>208.33333333333331</ele><time>2026-04-29T10:37:01.002Z</time></trkpt><trkpt lat="43.636519195688024" lon="12.708784264233307"><ele>205.0</ele><time>2026-04-29T10:37:02.002Z</time></trkpt><trkpt lat="43.63661820955202" lon="12.708527059102064"><ele>200.0</ele><time>2026-04-29T10:37:03.002Z</time></trkpt><trkpt lat="43.636729957426205" lon="12.708271466247682"><ele>195.0</ele><time>2026-04-29T10:37:04.002Z</time></trkpt><trkpt lat="43.63684683345275" lon="12.70801710060736"><ele>190.0</ele><time>2026-04-29T10:37:05.002Z</time></trkpt><trkpt lat="43.636963921864904" lon="12.7077596230942"><ele>195.0</ele><time>2026-04-29T10:37:06.002Z</time></trkpt><trkpt lat="43.63708433581415" lon="12.707494772176133"><ele>200.0</ele><time>2026-04-29T10:37:07.002Z</time></trkpt><trkpt lat="43.63721215846878" lon="12.70723266361458"><ele>200.0</ele><time>2026-04-29T10:37:08.002Z</time></trkpt><trkpt lat="43.63734488086315" lon="12.706969041069966"><ele>200.0</ele><time>2026-04-29T10:37:09.002Z</time></trkpt><trkpt lat="43.63747830633253" lon="12.706700630107948"><ele>193.5</ele><time>2026-04-29T10:37:10.002Z</time></trkpt><trkpt lat="43.637606668528115" lon="12.706425404006962"><ele>187.0</ele><time>2026-04-29T10:37:11.002Z</time></trkpt><trkpt lat="43.637730411470436" lon="12.706144658276772"><ele>201.0</ele><time>2026-04-29T10:37:12.002Z</time></trkpt><trkpt lat="43.63785442149113" lon="12.705861871700284"><ele>215.0</ele><time>2026-04-29T10:37:13.002Z</time></trkpt><trkpt lat="43.63797309453819" lon="12.7055741534862"><ele>215.0</ele><time>2026-04-29T10:37:14.002Z</time></trkpt><trkpt lat="43.638088360630675" lon="12.70528020390648"><ele>215.0</ele><time>2026-04-29T10:37:15.002Z</time></trkpt><trkpt lat="43.63819504067585" lon="12.704981120646394"><ele>204.5</ele><time>2026-04-29T10:37:16.002Z</time></trkpt><trkpt lat="43.63829110413824" lon="12.704681671014901"><ele>194.0</ele><time>2026-04-29T10:37:17.002Z</time></trkpt><trkpt lat="43.63837917544426" lon="12.70438158774339"><ele>191.66666666666669</ele><time>2026-04-29T10:37:18.002Z</time></trkpt><trkpt lat="43.63846774570803" lon="12.704096928354115"><ele>189.33333333333334</ele><time>2026-04-29T10:37:19.002Z</time></trkpt><trkpt lat="43.63855858367146" lon="12.703840757201405"><ele>187.0</ele><time>2026-04-29T10:37:20Z</time></trkpt><trkpt lat="43.638650355482966" lon="12.703623892066904"><ele>193.0</ele><time>2026-04-29T10:37:21Z</time></trkpt><trkpt lat="43.63871844242989" lon="12.703425201230239"><ele>199.0</ele><time>2026-04-29T10:37:22Z</time></trkpt><trkpt lat="43.63876895001917" lon="12.703220157852687"><ele>205.0</ele><time>2026-04-29T10:37:23Z</time></trkpt><trkpt lat="43.63876075997308" lon="12.702972139195749"><ele>199.66666666666666</ele><time>2026-04-29T10:37:24Z</time></trkpt><trkpt lat="43.63867961107338" lon="12.702736429213282"><ele>194.33333333333331</ele><time>2026-04-29T10:37:25Z</time></trkpt><trkpt lat="43.638589965495385" lon="12.70250773534352"><ele>189.0</ele><time>2026-04-29T10:37:26Z</time></trkpt><trkpt lat="43.63848559835918" lon="12.702275718783925"><ele>185.33333333333334</ele><time>2026-04-29T10:37:27Z</time></trkpt><trkpt lat="43.63837682635398" lon="12.702045758375458"><ele>181.66666666666669</ele><time>2026-04-29T10:37:28Z</time></trkpt><trkpt lat="43.638263935804034" lon="12.701817273518927"><ele>178.0</ele><time>2026-04-29T10:37:29Z</time></trkpt><trkpt lat="43.638146170126554" lon="12.701596647884093"><ele>177.33333333333334</ele><time>2026-04-29T10:37:30Z</time></trkpt><trkpt lat="43.638023934537024" lon="12.701377620157121"><ele>176.66666666666666</ele><time>2026-04-29T10:37:31Z</time></trkpt><trkpt lat="43.637900584283045" lon="12.701154623951284"><ele>176.0</ele><time>2026-04-29T10:37:32Z</time></trkpt><trkpt lat="43.63777817138577" lon="12.700926174414898"><ele>176.0</ele><time>2026-04-29T10:37:33Z</time></trkpt><trkpt lat="43.63765729659765" lon="12.700694655856477"><ele>176.0</ele><time>2026-04-29T10:37:34Z</time></trkpt><trkpt lat="43.63753313725439" lon="12.700461735657614"><ele>176.0</ele><time>2026-04-29T10:37:35Z</time></trkpt><trkpt lat="43.63741009381625" lon="12.700230327989674"><ele>177.33333333333331</ele><time>2026-04-29T10:37:36Z</time></trkpt><trkpt lat="43.637288754850154" lon="12.700001625397851"><ele>178.66666666666666</ele><time>2026-04-29T10:37:37Z</time></trkpt><trkpt lat="43.63716940363382" lon="12.69977497093835"><ele>180.0</ele><time>2026-04-29T10:37:38Z</time></trkpt><trkpt lat="43.63705325859277" lon="12.699556206090321"><ele>181.66666666666666</ele><time>2026-04-29T10:37:39Z</time></trkpt><trkpt lat="43.63692713410518" lon="12.699347816103058"><ele>183.33333333333331</ele><time>2026-04-29T10:37:40Z</time></trkpt><trkpt lat="43.63679058879991" lon="12.699151016809733"><ele>185.0</ele><time>2026-04-29T10:37:41Z</time></trkpt><trkpt lat="43.63665341323892" lon="12.698958635701276"><ele>185.0</ele><time>2026-04-29T10:37:42Z</time></trkpt><trkpt lat="43.63652064589056" lon="12.698771501261323"><ele>185.0</ele><time>2026-04-29T10:37:43Z</time></trkpt><trkpt lat="43.63639451822366" lon="12.698582318697222"><ele>185.0</ele><time>2026-04-29T10:37:44Z</time></trkpt><trkpt lat="43.63627978143612" lon="12.69838547097996"><ele>185.33333333333331</ele><time>2026-04-29T10:37:45Z</time></trkpt><trkpt lat="43.636191825916626" lon="12.698169424177365"><ele>185.66666666666666</ele><time>2026-04-29T10:37:46Z</time></trkpt><trkpt lat="43.636102307081536" lon="12.697960280571063"><ele>186.0</ele><time>2026-04-29T10:37:47Z</time></trkpt><trkpt lat="43.63601123243199" lon="12.697754263522063"><ele>185.0</ele><time>2026-04-29T10:37:48Z</time></trkpt><trkpt lat="43.6359743766076" lon="12.697497666684537"><ele>184.0</ele><time>2026-04-29T10:37:49.001Z</time></trkpt><trkpt lat="43.635962830085305" lon="12.69722924368396"><ele>183.0</ele><time>2026-04-29T10:37:50.001Z</time></trkpt><trkpt lat="43.63596311901014" lon="12.696954202628786"><ele>183.0</ele><time>2026-04-29T10:37:51.001Z</time></trkpt><trkpt lat="43.635972422795575" lon="12.696669895199104"><ele>183.0</ele><time>2026-04-29T10:37:52.001Z</time></trkpt><trkpt lat="43.635995373594774" lon="12.696382414217261"><ele>183.0</ele><time>2026-04-29T10:37:53.001Z</time></trkpt><trkpt lat="43.63603631826129" lon="12.696091314384734"><ele>183.0</ele><time>2026-04-29T10:37:54.001Z</time></trkpt><trkpt lat="43.63608618915831" lon="12.69580017410197"><ele>183.0</ele><time>2026-04-29T10:37:55.001Z</time></trkpt><trkpt lat="43.63613787367222" lon="12.695506336715523"><ele>183.0</ele><time>2026-04-29T10:37:56.001Z</time></trkpt><trkpt lat="43.63618899750846" lon="12.695203331373477"><ele>184.0</ele><time>2026-04-29T10:37:57.001Z</time></trkpt><trkpt lat="43.63623703452586" lon="12.694896782752672"><ele>185.0</ele><time>2026-04-29T10:37:58.001Z</time></trkpt><trkpt lat="43.63628432200087" lon="12.694589707892275"><ele>184.66666666666666</ele><time>2026-04-29T10:37:59.001Z</time></trkpt><trkpt lat="43.636322139057285" lon="12.694284075938597"><ele>184.33333333333334</ele><time>2026-04-29T10:38:00.001Z</time></trkpt><trkpt lat="43.63634863948143" lon="12.693976770712734"><ele>184.0</ele><time>2026-04-29T10:38:01.001Z</time></trkpt><trkpt lat="43.636373452810076" lon="12.693682045837615"><ele>184.33333333333334</ele><time>2026-04-29T10:38:02.001Z</time></trkpt><trkpt lat="43.636396652511415" lon="12.693398350699097"><ele>184.66666666666666</ele><time>2026-04-29T10:38:03.001Z</time></trkpt><trkpt lat="43.636410940180745" lon="12.693126855959923"><ele>185.0</ele><time>2026-04-29T10:38:04.001Z</time></trkpt><trkpt lat="43.63640732942125" lon="12.692852353081456"><ele>185.66666666666666</ele><time>2026-04-29T10:38:05.001Z</time></trkpt><trkpt lat="43.63638703337241" lon="12.692571459210328"><ele>186.33333333333334</ele><time>2026-04-29T10:38:06.001Z</time></trkpt><trkpt lat="43.63635405508479" lon="12.69228517274794"><ele>187.0</ele><time>2026-04-29T10:38:07.001Z</time></trkpt><trkpt lat="43.63630872683555" lon="12.6919955158112"><ele>187.0</ele><time>2026-04-29T10:38:08.001Z</time></trkpt><trkpt lat="43.63625365255859" lon="12.691700746546273"><ele>187.0</ele><time>2026-04-29T10:38:09.001Z</time></trkpt><trkpt lat="43.636191199303006" lon="12.69140417043818"><ele>187.0</ele><time>2026-04-29T10:38:10.001Z</time></trkpt><trkpt lat="43.63612932826245" lon="12.691100083519261"><ele>186.66666666666669</ele><time>2026-04-29T10:38:11.001Z</time></trkpt><trkpt lat="43.6360741801699" lon="12.690793177432663"><ele>186.33333333333334</ele><time>2026-04-29T10:38:12.001Z</time></trkpt><trkpt lat="43.63603112296755" lon="12.690502546137623"><ele>186.0</ele><time>2026-04-29T10:38:13.001Z</time></trkpt><trkpt lat="43.635993831380716" lon="12.690242793376767"><ele>186.0</ele><time>2026-04-29T10:38:14.001Z</time></trkpt><trkpt lat="43.63594834490557" lon="12.690005664116335"><ele>186.0</ele><time>2026-04-29T10:38:15.001Z</time></trkpt><trkpt lat="43.63587272405011" lon="12.689788700831212"><ele>186.0</ele><time>2026-04-29T10:38:16.001Z</time></trkpt><trkpt lat="43.63576938476205" lon="12.689571554606415"><ele>187.33333333333334</ele><time>2026-04-29T10:38:17.001Z</time></trkpt><trkpt lat="43.63565644070223" lon="12.689353062633828"><ele>188.66666666666669</ele><time>2026-04-29T10:38:18.001Z</time></trkpt><trkpt lat="43.63553720635364" lon="12.689131672690067"><ele>190.0</ele><time>2026-04-29T10:38:19.001Z</time></trkpt><trkpt lat="43.63541592477372" lon="12.68890320657384"><ele>189.33333333333334</ele><time>2026-04-29T10:38:20.001Z</time></trkpt><trkpt lat="43.63528965610967" lon="12.688672410339807"><ele>188.66666666666666</ele><time>2026-04-29T10:38:21.001Z</time></trkpt><trkpt lat="43.63516105706747" lon="12.688437337206961"><ele>188.0</ele><time>2026-04-29T10:38:22.001Z</time></trkpt><trkpt lat="43.6350304228083" lon="12.688195418269162"><ele>188.0</ele><time>2026-04-29T10:38:23.001Z</time></trkpt><trkpt lat="43.63489736165871" lon="12.687948212833174"><ele>188.0</ele><time>2026-04-29T10:38:24.001Z</time></trkpt><trkpt lat="43.63475863366269" lon="12.68770020975122"><ele>190.0</ele><time>2026-04-29T10:38:25.001Z</time></trkpt><trkpt lat="43.634615288108535" lon="12.687448789728117"><ele>192.0</ele><time>2026-04-29T10:38:26.001Z</time></trkpt><trkpt lat="43.634478232221625" lon="12.687184149023865"><ele>189.5</ele><time>2026-04-29T10:38:27.001Z</time></trkpt><trkpt lat="43.63434544209105" lon="12.68691358764454"><ele>187.0</ele><time>2026-04-29T10:38:28.001Z</time></trkpt><trkpt lat="43.634205186652835" lon="12.686646659988119"><ele>187.0</ele><time>2026-04-29T10:38:29.002Z</time></trkpt><trkpt lat="43.63405535034163" lon="12.6863886022913"><ele>187.0</ele><time>2026-04-29T10:38:30.002Z</time></trkpt><trkpt lat="43.63391080285197" lon="12.686125566181252"><ele>187.5</ele><time>2026-04-29T10:38:31.002Z</time></trkpt><trkpt lat="43.63374231139269" lon="12.685898204123687"><ele>188.0</ele><time>2026-04-29T10:38:32.002Z</time></trkpt><trkpt lat="43.633597913523474" lon="12.685642289708907"><ele>188.0</ele><time>2026-04-29T10:38:33.002Z</time></trkpt><trkpt lat="43.63348334604168" lon="12.685392336331965"><ele>188.0</ele><time>2026-04-29T10:38:34.002Z</time></trkpt><trkpt lat="43.63337637673863" lon="12.685172112114769"><ele>188.0</ele><time>2026-04-29T10:38:35.002Z</time></trkpt><trkpt lat="43.63324972478183" lon="12.684998876551079"><ele>188.33333333333331</ele><time>2026-04-29T10:38:36.002Z</time></trkpt><trkpt lat="43.63309869489669" lon="12.684853685395828"><ele>188.66666666666666</ele><time>2026-04-29T10:38:37.002Z</time></trkpt><trkpt lat="43.6329258531669" lon="12.684754080860886"><ele>189.0</ele><time>2026-04-29T10:38:38.002Z</time></trkpt><trkpt lat="43.63275854172092" lon="12.684644953112196"><ele>189.0</ele><time>2026-04-29T10:38:39.002Z</time></trkpt><trkpt lat="43.63260359926434" lon="12.68454429456757"><ele>189.0</ele><time>2026-04-29T10:38:40.002Z</time></trkpt><trkpt lat="43.63243773419805" lon="12.684464347783582"><ele>189.0</ele><time>2026-04-29T10:38:41.002Z</time></trkpt><trkpt lat="43.63225582221757" lon="12.684403362037816"><ele>190.66666666666669</ele><time>2026-04-29T10:38:42.002Z</time></trkpt><trkpt lat="43.63206624278668" lon="12.684346487383111"><ele>192.33333333333334</ele><time>2026-04-29T10:38:43.002Z</time></trkpt><trkpt lat="43.631870865834586" lon="12.684282682542149"><ele>194.0</ele><time>2026-04-29T10:38:44.002Z</time></trkpt><trkpt lat="43.63167418325819" lon="12.684212948544618"><ele>194.0</ele><time>2026-04-29T10:38:45.002Z</time></trkpt><trkpt lat="43.63147340892605" lon="12.684134972553947"><ele>194.0</ele><time>2026-04-29T10:38:46.002Z</time></trkpt><trkpt lat="43.63126856772982" lon="12.684059045621437"><ele>194.0</ele><time>2026-04-29T10:38:47.002Z</time></trkpt><trkpt lat="43.63105939214746" lon="12.683985581069386"><ele>193.33333333333334</ele><time>2026-04-29T10:38:48.002Z</time></trkpt><trkpt lat="43.630855097025716" lon="12.683905311021727"><ele>192.66666666666669</ele><time>2026-04-29T10:38:49.002Z</time></trkpt><trkpt lat="43.63066543728204" lon="12.68380647926279"><ele>192.0</ele><time>2026-04-29T10:38:50.002Z</time></trkpt><trkpt lat="43.63047979669707" lon="12.683692623913846"><ele>193.33333333333331</ele><time>2026-04-29T10:38:51.002Z</time></trkpt><trkpt lat="43.630294745308085" lon="12.683566462599572"><ele>194.66666666666666</ele><time>2026-04-29T10:38:52.002Z</time></trkpt><trkpt lat="43.63010893740317" lon="12.683436212758375"><ele>196.0</ele><time>2026-04-29T10:38:53.002Z</time></trkpt><trkpt lat="43.62991903614198" lon="12.683301777432435"><ele>196.0</ele><time>2026-04-29T10:38:54.002Z</time></trkpt><trkpt lat="43.62972490601939" lon="12.683166021608375"><ele>196.0</ele><time>2026-04-29T10:38:55.002Z</time></trkpt><trkpt lat="43.62952739577156" lon="12.683026937686087"><ele>196.0</ele><time>2026-04-29T10:38:56.002Z</time></trkpt><trkpt lat="43.62933345064825" lon="12.682880061975688"><ele>195.0</ele><time>2026-04-29T10:38:57.002Z</time></trkpt><trkpt lat="43.62915644839897" lon="12.682742959115865"><ele>194.0</ele><time>2026-04-29T10:38:58.002Z</time></trkpt><trkpt lat="43.62899616643125" lon="12.68261945925088"><ele>193.0</ele><time>2026-04-29T10:38:59.002Z</time></trkpt><trkpt lat="43.628844041692915" lon="12.682506150083109"><ele>193.0</ele><time>2026-04-29T10:39:00.002Z</time></trkpt><trkpt lat="43.62870577478694" lon="12.682404723763065"><ele>193.0</ele><time>2026-04-29T10:39:01.002Z</time></trkpt><trkpt lat="43.6285782446079" lon="12.68231348533282"><ele>193.0</ele><time>2026-04-29T10:39:02.002Z</time></trkpt><trkpt lat="43.62845764161237" lon="12.682228818932066"><ele>193.0</ele><time>2026-04-29T10:39:03.002Z</time></trkpt><trkpt lat="43.628342675941475" lon="12.682145656901898"><ele>193.25</ele><time>2026-04-29T10:39:04.002Z</time></trkpt><trkpt lat="43.62823196838059" lon="12.682062439291826"><ele>193.5</ele><time>2026-04-29T10:39:05.002Z</time></trkpt><trkpt lat="43.62812270405718" lon="12.68198131076352"><ele>193.75</ele><time>2026-04-29T10:39:06.002Z</time></trkpt><trkpt lat="43.62801214033406" lon="12.681900987655023"><ele>194.0</ele><time>2026-04-29T10:39:07.002Z</time></trkpt><trkpt lat="43.627899934243594" lon="12.681818614625106"><ele>194.25</ele><time>2026-04-29T10:39:08.002Z</time></trkpt><trkpt lat="43.62778546794816" lon="12.681734090771275"><ele>194.5</ele><time>2026-04-29T10:39:09.002Z</time></trkpt><trkpt lat="43.62766975879271" lon="12.681649346553455"><ele>194.75</ele><time>2026-04-29T10:39:10.002Z</time></trkpt><trkpt lat="43.62755253073384" lon="12.68156225103492"><ele>195.0</ele><time>2026-04-29T10:39:11.002Z</time></trkpt><trkpt lat="43.62743150454039" lon="12.681471462872583"><ele>195.0</ele><time>2026-04-29T10:39:12.003Z</time></trkpt><trkpt lat="43.62730852962507" lon="12.681383090381885"><ele>195.0</ele><time>2026-04-29T10:39:13.003Z</time></trkpt><trkpt lat="43.62718034440428" lon="12.681290569160407"><ele>195.0</ele><time>2026-04-29T10:39:14.003Z</time></trkpt><trkpt lat="43.62704658914611" lon="12.681191369540066"><ele>195.0</ele><time>2026-04-29T10:39:15.003Z</time></trkpt><trkpt lat="43.6269045609247" lon="12.681083526707313"><ele>195.0</ele><time>2026-04-29T10:39:16.003Z</time></trkpt><trkpt lat="43.62675693975802" lon="12.680972830592035"><ele>195.0</ele><time>2026-04-29T10:39:17.003Z</time></trkpt><trkpt lat="43.626603499073816" lon="12.680857524899228"><ele>195.0</ele><time>2026-04-29T10:39:18.003Z</time></trkpt><trkpt lat="43.626443883162096" lon="12.680738232260243"><ele>195.0</ele><time>2026-04-29T10:39:19.003Z</time></trkpt><trkpt lat="43.62627690681243" lon="12.680617317876578"><ele>195.0</ele><time>2026-04-29T10:39:20.003Z</time></trkpt><trkpt lat="43.62610941407592" lon="12.680494569498832"><ele>195.0</ele><time>2026-04-29T10:39:21.003Z</time></trkpt><trkpt lat="43.625937738095736" lon="12.680363397870694"><ele>195.66666666666669</ele><time>2026-04-29T10:39:22.003Z</time></trkpt><trkpt lat="43.625763225077705" lon="12.680222483707501"><ele>196.33333333333334</ele><time>2026-04-29T10:39:23.003Z</time></trkpt><trkpt lat="43.62558977820862" lon="12.680071917578518"><ele>197.0</ele><time>2026-04-29T10:39:24.003Z</time></trkpt><trkpt lat="43.62541236390117" lon="12.6799075233531"><ele>196.33333333333334</ele><time>2026-04-29T10:39:25.003Z</time></trkpt><trkpt lat="43.62523863558288" lon="12.679731883327095"><ele>195.66666666666669</ele><time>2026-04-29T10:39:26.001Z</time></trkpt><trkpt lat="43.62506395320996" lon="12.679546991167616"><ele>195.0</ele><time>2026-04-29T10:39:27.001Z</time></trkpt><trkpt lat="43.62489178170301" lon="12.679354784717654"><ele>195.0</ele><time>2026-04-29T10:39:28.001Z</time></trkpt><trkpt lat="43.62472420500914" lon="12.679151783032928"><ele>195.0</ele><time>2026-04-29T10:39:29.001Z</time></trkpt><trkpt lat="43.62456445219934" lon="12.67894043108512"><ele>195.0</ele><time>2026-04-29T10:39:30.001Z</time></trkpt><trkpt lat="43.62440899391069" lon="12.678726593957073"><ele>194.66666666666669</ele><time>2026-04-29T10:39:31.001Z</time></trkpt><trkpt lat="43.62425609940653" lon="12.67851689735517"><ele>194.33333333333334</ele><time>2026-04-29T10:39:32.001Z</time></trkpt><trkpt lat="43.6241091901792" lon="12.67832063660856"><ele>194.0</ele><time>2026-04-29T10:39:33.001Z</time></trkpt><trkpt lat="43.62397169716271" lon="12.67813215753657"><ele>194.0</ele><time>2026-04-29T10:39:34.001Z</time></trkpt><trkpt lat="43.62383893696534" lon="12.677948734403216"><ele>194.0</ele><time>2026-04-29T10:39:35.001Z</time></trkpt><trkpt lat="43.6237083602458" lon="12.677771078873944"><ele>194.0</ele><time>2026-04-29T10:39:36.001Z</time></trkpt><trkpt lat="43.62358367367259" lon="12.677604396246572"><ele>193.75</ele><time>2026-04-29T10:39:37.001Z</time></trkpt><trkpt lat="43.62346861117328" lon="12.67745261164201"><ele>193.5</ele><time>2026-04-29T10:39:38.001Z</time></trkpt><trkpt lat="43.62336106170503" lon="12.677307794267357"><ele>193.25</ele><time>2026-04-29T10:39:39.001Z</time></trkpt><trkpt lat="43.623268752526485" lon="12.677177143712134"><ele>193.0</ele><time>2026-04-29T10:39:40.001Z</time></trkpt><trkpt lat="43.62319722059209" lon="12.677030227765675"><ele>193.4</ele><time>2026-04-29T10:39:41.001Z</time></trkpt><trkpt lat="43.62316875887432" lon="12.67689959053261"><ele>193.8</ele><time>2026-04-29T10:39:42.001Z</time></trkpt><trkpt lat="43.62313484319475" lon="12.67678702091243"><ele>194.2</ele><time>2026-04-29T10:39:43.001Z</time></trkpt><trkpt lat="43.62306889851674" lon="12.676735516636734"><ele>194.6</ele><time>2026-04-29T10:39:44.001Z</time></trkpt><trkpt lat="43.6229709014351" lon="12.676684793753658"><ele>195.0</ele><time>2026-04-29T10:39:45.001Z</time></trkpt><trkpt lat="43.62285923433761" lon="12.67658932481876"><ele>195.0</ele><time>2026-04-29T10:39:46.001Z</time></trkpt><trkpt lat="43.62274605265122" lon="12.676453414316239"><ele>195.0</ele><time>2026-04-29T10:39:47.001Z</time></trkpt><trkpt lat="43.62263084067261" lon="12.676298304756338"><ele>195.0</ele><time>2026-04-29T10:39:48.001Z</time></trkpt><trkpt lat="43.622509068015944" lon="12.676133724239321"><ele>195.66666666666669</ele><time>2026-04-29T10:39:49.001Z</time></trkpt><trkpt lat="43.62238323762953" lon="12.675966332410725"><ele>196.33333333333334</ele><time>2026-04-29T10:39:50.001Z</time></trkpt><trkpt lat="43.62225409382684" lon="12.675788977837124"><ele>197.0</ele><time>2026-04-29T10:39:51.001Z</time></trkpt><trkpt lat="43.62211910199107" lon="12.675604108780448"><ele>197.33333333333334</ele><time>2026-04-29T10:39:52.001Z</time></trkpt><trkpt lat="43.62198068291484" lon="12.675411962501041"><ele>197.66666666666669</ele><time>2026-04-29T10:39:53.001Z</time></trkpt><trkpt lat="43.62183878701808" lon="12.675214252206361"><ele>198.0</ele><time>2026-04-29T10:39:54.001Z</time></trkpt><trkpt lat="43.62169602715132" lon="12.675011830123625"><ele>198.0</ele><time>2026-04-29T10:39:55.001Z</time></trkpt><trkpt lat="43.62155313489198" lon="12.674806552900474"><ele>198.0</ele><time>2026-04-29T10:39:56.001Z</time></trkpt><trkpt lat="43.621408465008194" lon="12.674596389068476"><ele>198.0</ele><time>2026-04-29T10:39:57.001Z</time></trkpt><trkpt lat="43.62126339856304" lon="12.674389485497473"><ele>197.66666666666669</ele><time>2026-04-29T10:39:58.001Z</time></trkpt><trkpt lat="43.621119527573775" lon="12.674204275890663"><ele>197.33333333333334</ele><time>2026-04-29T10:39:59.001Z</time></trkpt><trkpt lat="43.620965513345254" lon="12.67406319110028"><ele>197.0</ele><time>2026-04-29T10:40:00.001Z</time></trkpt><trkpt lat="43.62080304597548" lon="12.673951547644874"><ele>197.0</ele><time>2026-04-29T10:40:01.001Z</time></trkpt><trkpt lat="43.62064636006886" lon="12.673866043360192"><ele>197.0</ele><time>2026-04-29T10:40:02.001Z</time></trkpt><trkpt lat="43.62049950890519" lon="12.673796180380538"><ele>197.0</ele><time>2026-04-29T10:40:03.001Z</time></trkpt><trkpt lat="43.62036738011188" lon="12.673730182591571"><ele>196.25</ele><time>2026-04-29T10:40:04.001Z</time></trkpt><trkpt lat="43.62024788793375" lon="12.673670698920008"><ele>195.5</ele><time>2026-04-29T10:40:05.001Z</time></trkpt><trkpt lat="43.6201333302619" lon="12.673616188579633"><ele>194.75</ele><time>2026-04-29T10:40:06.001Z</time></trkpt><trkpt lat="43.62001190524372" lon="12.67355945691045"><ele>194.0</ele><time>2026-04-29T10:40:07.001Z</time></trkpt><trkpt lat="43.61988799274385" lon="12.673502763247727"><ele>196.0</ele><time>2026-04-29T10:40:08.001Z</time></trkpt><trkpt lat="43.61976350217495" lon="12.673442724206437"><ele>198.0</ele><time>2026-04-29T10:40:09.002Z</time></trkpt><trkpt lat="43.619636061216305" lon="12.673376438383306"><ele>200.0</ele><time>2026-04-29T10:40:10.002Z</time></trkpt><trkpt lat="43.61950515269493" lon="12.673312444951376"><ele>202.0</ele><time>2026-04-29T10:40:11.002Z</time></trkpt><trkpt lat="43.619368717075155" lon="12.673258153652975"><ele>202.0</ele><time>2026-04-29T10:40:12.002Z</time></trkpt><trkpt lat="43.61923515429759" lon="12.673207881756598"><ele>202.0</ele><time>2026-04-29T10:40:13.002Z</time></trkpt><trkpt lat="43.61911798389347" lon="12.673154326500823"><ele>202.0</ele><time>2026-04-29T10:40:14.002Z</time></trkpt><trkpt lat="43.619014987736605" lon="12.673110206975117"><ele>202.0</ele><time>2026-04-29T10:40:15.002Z</time></trkpt><trkpt lat="43.618916119746864" lon="12.673045033396285"><ele>202.0</ele><time>2026-04-29T10:40:16.002Z</time></trkpt><trkpt lat="43.61880796880414" lon="12.672992901044605"><ele>202.0</ele><time>2026-04-29T10:40:17.002Z</time></trkpt><trkpt lat="43.61869179042825" lon="12.67296547950612"><ele>202.0</ele><time>2026-04-29T10:40:18.002Z</time></trkpt><trkpt lat="43.61858465515001" lon="12.672901146143563"><ele>202.0</ele><time>2026-04-29T10:40:19.002Z</time></trkpt><trkpt lat="43.61846071485532" lon="12.672859980581126"><ele>201.5</ele><time>2026-04-29T10:40:20.002Z</time></trkpt><trkpt lat="43.618326867864276" lon="12.672831523339186"><ele>201.0</ele><time>2026-04-29T10:40:21.002Z</time></trkpt><trkpt lat="43.61818806443009" lon="12.672807832010882"><ele>200.5</ele><time>2026-04-29T10:40:22.002Z</time></trkpt><trkpt lat="43.61803958144744" lon="12.672798004129243"><ele>200.0</ele><time>2026-04-29T10:40:23.002Z</time></trkpt><trkpt lat="43.61788336981931" lon="12.672797643255622"><ele>200.0</ele><time>2026-04-29T10:40:24.002Z</time></trkpt><trkpt lat="43.61771954418847" lon="12.672795236051906"><ele>200.0</ele><time>2026-04-29T10:40:25.002Z</time></trkpt><trkpt lat="43.61755116790632" lon="12.672793241444714"><ele>200.0</ele><time>2026-04-29T10:40:26.002Z</time></trkpt><trkpt lat="43.617375138464645" lon="12.672790993927622"><ele>200.0</ele><time>2026-04-29T10:40:27.002Z</time></trkpt><trkpt lat="43.61719694194723" lon="12.672789280276358"><ele>200.0</ele><time>2026-04-29T10:40:28.002Z</time></trkpt><trkpt lat="43.61701402666242" lon="12.672786535827397"><ele>200.0</ele><time>2026-04-29T10:40:29.002Z</time></trkpt><trkpt lat="43.61683748009796" lon="12.672782405050945"><ele>200.0</ele><time>2026-04-29T10:40:30.002Z</time></trkpt><trkpt lat="43.61665787610655" lon="12.672778142091994"><ele>200.0</ele><time>2026-04-29T10:40:31.002Z</time></trkpt><trkpt lat="43.61647604907866" lon="12.672777282065914"><ele>200.0</ele><time>2026-04-29T10:40:32.002Z</time></trkpt><trkpt lat="43.616296967478654" lon="12.672764218692539"><ele>199.33333333333334</ele><time>2026-04-29T10:40:33.002Z</time></trkpt><trkpt lat="43.616125722156724" lon="12.67273704367736"><ele>198.66666666666669</ele><time>2026-04-29T10:40:34.002Z</time></trkpt><trkpt lat="43.61596508234528" lon="12.67266639068026"><ele>198.0</ele><time>2026-04-29T10:40:35.002Z</time></trkpt><trkpt lat="43.61579334465501" lon="12.672643078351863"><ele>198.0</ele><time>2026-04-29T10:40:36.002Z</time></trkpt><trkpt lat="43.61562406000514" lon="12.672615926344323"><ele>198.0</ele><time>2026-04-29T10:40:37.002Z</time></trkpt><trkpt lat="43.6154479708214" lon="12.672608030946408"><ele>198.0</ele><time>2026-04-29T10:40:38.002Z</time></trkpt><trkpt lat="43.61526877409569" lon="12.672597436624931"><ele>199.33333333333331</ele><time>2026-04-29T10:40:39.002Z</time></trkpt><trkpt lat="43.615093347414074" lon="12.672582858308605"><ele>200.66666666666666</ele><time>2026-04-29T10:40:40.002Z</time></trkpt><trkpt lat="43.614919855457174" lon="12.672560695769453"><ele>202.0</ele><time>2026-04-29T10:40:41.002Z</time></trkpt><trkpt lat="43.614746371778246" lon="12.67252494791265"><ele>202.0</ele><time>2026-04-29T10:40:42.002Z</time></trkpt><trkpt lat="43.61457704672102" lon="12.672475013913484"><ele>202.0</ele><time>2026-04-29T10:40:43.002Z</time></trkpt><trkpt lat="43.614407902745384" lon="12.672407551965065"><ele>202.0</ele><time>2026-04-29T10:40:44.002Z</time></trkpt><trkpt lat="43.614234089005635" lon="12.672329448030833"><ele>203.66666666666666</ele><time>2026-04-29T10:40:45.002Z</time></trkpt><trkpt lat="43.61405924557055" lon="12.67226236738205"><ele>205.33333333333331</ele><time>2026-04-29T10:40:46.002Z</time></trkpt><trkpt lat="43.61388405791593" lon="12.672202893682408"><ele>207.0</ele><time>2026-04-29T10:40:47.002Z</time></trkpt><trkpt lat="43.61370396444081" lon="12.672136650755089"><ele>207.33333333333331</ele><time>2026-04-29T10:40:48.002Z</time></trkpt><trkpt lat="43.613525724669834" lon="12.672080537371091"><ele>207.66666666666666</ele><time>2026-04-29T10:40:49.002Z</time></trkpt><trkpt lat="43.6133429325464" lon="12.672059959198522"><ele>208.0</ele><time>2026-04-29T10:40:50.002Z</time></trkpt><trkpt lat="43.61315811338299" lon="12.672076290194237"><ele>208.0</ele><time>2026-04-29T10:40:51.002Z</time></trkpt><trkpt lat="43.61297620024532" lon="12.672127353505"><ele>208.0</ele><time>2026-04-29T10:40:52.002Z</time></trkpt><trkpt lat="43.612800606235396" lon="12.672215386407643"><ele>208.0</ele><time>2026-04-29T10:40:53.002Z</time></trkpt><trkpt lat="43.61262252696698" lon="12.67230057390807"><ele>208.33333333333331</ele><time>2026-04-29T10:40:54.002Z</time></trkpt><trkpt lat="43.612443326463946" lon="12.672382002971824"><ele>208.66666666666669</ele><time>2026-04-29T10:40:55.003Z</time></trkpt><trkpt lat="43.61226070285594" lon="12.672464067543572"><ele>209.0</ele><time>2026-04-29T10:40:56.003Z</time></trkpt><trkpt lat="43.61207449597906" lon="12.672552577727"><ele>208.66666666666669</ele><time>2026-04-29T10:40:57.003Z</time></trkpt><trkpt lat="43.61188765720642" lon="12.672635882708166"><ele>208.33333333333331</ele><time>2026-04-29T10:40:58.003Z</time></trkpt><trkpt lat="43.611701198338025" lon="12.67272459804402"><ele>208.0</ele><time>2026-04-29T10:40:59.003Z</time></trkpt><trkpt lat="43.61151218344756" lon="12.67281322645216"><ele>208.0</ele><time>2026-04-29T10:41:00.003Z</time></trkpt><trkpt lat="43.611322928984855" lon="12.67290127592841"><ele>208.0</ele><time>2026-04-29T10:41:01.003Z</time></trkpt><trkpt lat="43.61113127721259" lon="12.672990518600384"><ele>208.0</ele><time>2026-04-29T10:41:02.003Z</time></trkpt><trkpt lat="43.61093825658935" lon="12.673081535709281"><ele>208.33333333333331</ele><time>2026-04-29T10:41:03.003Z</time></trkpt><trkpt lat="43.61074354454311" lon="12.67317198542509"><ele>208.66666666666669</ele><time>2026-04-29T10:41:04.003Z</time></trkpt><trkpt lat="43.61054683284567" lon="12.67326331744501"><ele>209.0</ele><time>2026-04-29T10:41:05.003Z</time></trkpt><trkpt lat="43.61034963132361" lon="12.673352338883852"><ele>209.66666666666669</ele><time>2026-04-29T10:41:06.003Z</time></trkpt><trkpt lat="43.6101539654944" lon="12.67343940615714"><ele>210.33333333333331</ele><time>2026-04-29T10:41:07.003Z</time></trkpt><trkpt lat="43.609956736707865" lon="12.673524486790225"><ele>211.0</ele><time>2026-04-29T10:41:08.003Z</time></trkpt><trkpt lat="43.609756262759085" lon="12.673614259170495"><ele>209.33333333333331</ele><time>2026-04-29T10:41:09.003Z</time></trkpt><trkpt lat="43.609556917534" lon="12.673703690900423"><ele>207.66666666666669</ele><time>2026-04-29T10:41:10.003Z</time></trkpt><trkpt lat="43.60935670193477" lon="12.673793898970592"><ele>206.0</ele><time>2026-04-29T10:41:11.003Z</time></trkpt><trkpt lat="43.60915484087189" lon="12.673881539632116"><ele>206.0</ele><time>2026-04-29T10:41:12.003Z</time></trkpt><trkpt lat="43.60895428005203" lon="12.673967057210797"><ele>206.0</ele><time>2026-04-29T10:41:13.003Z</time></trkpt><trkpt lat="43.60875244701689" lon="12.674052937641193"><ele>206.0</ele><time>2026-04-29T10:41:14.003Z</time></trkpt><trkpt lat="43.608550896506216" lon="12.674136474144214"><ele>207.33333333333334</ele><time>2026-04-29T10:41:15.003Z</time></trkpt><trkpt lat="43.60834917983491" lon="12.67421807558959"><ele>208.66666666666669</ele><time>2026-04-29T10:41:16.003Z</time></trkpt><trkpt lat="43.608145206003066" lon="12.674297717418897"><ele>210.0</ele><time>2026-04-29T10:41:17.003Z</time></trkpt><trkpt lat="43.60794121227689" lon="12.674374751228493"><ele>209.33333333333331</ele><time>2026-04-29T10:41:18.003Z</time></trkpt><trkpt lat="43.60773477188535" lon="12.674445816884365"><ele>208.66666666666666</ele><time>2026-04-29T10:41:19.003Z</time></trkpt><trkpt lat="43.60753091419593" lon="12.674512426110013"><ele>208.0</ele><time>2026-04-29T10:41:20.003Z</time></trkpt><trkpt lat="43.60732578616924" lon="12.674575892816536"><ele>208.0</ele><time>2026-04-29T10:41:21.003Z</time></trkpt><trkpt lat="43.60712056322226" lon="12.674633298847935"><ele>208.0</ele><time>2026-04-29T10:41:22.003Z</time></trkpt><trkpt lat="43.60691708158546" lon="12.674691306844402"><ele>208.0</ele><time>2026-04-29T10:41:23.003Z</time></trkpt><trkpt lat="43.606720031740544" lon="12.67475533423377"><ele>208.0</ele><time>2026-04-29T10:41:24.003Z</time></trkpt><trkpt lat="43.606525562108985" lon="12.674823112562153"><ele>208.0</ele><time>2026-04-29T10:41:25.003Z</time></trkpt><trkpt lat="43.60633314167722" lon="12.674889848595322"><ele>208.0</ele><time>2026-04-29T10:41:26.003Z</time></trkpt><trkpt lat="43.60615122983361" lon="12.674952998412758"><ele>208.66666666666666</ele><time>2026-04-29T10:41:27.003Z</time></trkpt><trkpt lat="43.60598178638633" lon="12.67501165250683"><ele>209.33333333333331</ele><time>2026-04-29T10:41:28.003Z</time></trkpt><trkpt lat="43.60582441372158" lon="12.67506369043805"><ele>210.0</ele><time>2026-04-29T10:41:29.003Z</time></trkpt><trkpt lat="43.60567330623796" lon="12.675114398468674"><ele>210.0</ele><time>2026-04-29T10:41:30.003Z</time></trkpt><trkpt lat="43.60553283809246" lon="12.675159192511208"><ele>210.0</ele><time>2026-04-29T10:41:31.003Z</time></trkpt><trkpt lat="43.605398942871545" lon="12.675207139542033"><ele>210.0</ele><time>2026-04-29T10:41:32.002Z</time></trkpt><trkpt lat="43.605269702798985" lon="12.67525170437535"><ele>210.0</ele><time>2026-04-29T10:41:33.002Z</time></trkpt><trkpt lat="43.605149588445045" lon="12.67529517314132"><ele>210.5</ele><time>2026-04-29T10:41:34.002Z</time></trkpt><trkpt lat="43.605032484188804" lon="12.675329325830107"><ele>211.0</ele><time>2026-04-29T10:41:35.002Z</time></trkpt><trkpt lat="43.60493194461235" lon="12.675324336603001"><ele>211.5</ele><time>2026-04-29T10:41:36.001Z</time></trkpt><trkpt lat="43.60486717788313" lon="12.675347432721082"><ele>212.0</ele><time>2026-04-29T10:41:37.002Z</time></trkpt><trkpt lat="43.60477404122109" lon="12.675081649666797"><ele>212.0</ele><time>2026-04-29T10:41:39.001Z</time></trkpt><trkpt lat="43.60471805069957" lon="12.675017017225183"><ele>212.0</ele><time>2026-04-29T10:41:40.001Z</time></trkpt><trkpt lat="43.60463134411578" lon="12.67500112072089"><ele>212.0</ele><time>2026-04-29T10:41:41.001Z</time></trkpt><trkpt lat="43.60453111763473" lon="12.67501139113535"><ele>212.0</ele><time>2026-04-29T10:41:42.001Z</time></trkpt><trkpt lat="43.604413697346246" lon="12.675026022351398"><ele>212.0</ele><time>2026-04-29T10:41:43.001Z</time></trkpt><trkpt lat="43.60428212825607" lon="12.675040298911753"><ele>213.0</ele><time>2026-04-29T10:41:44.001Z</time></trkpt><trkpt lat="43.604138067058976" lon="12.675056825340484"><ele>214.0</ele><time>2026-04-29T10:41:45.001Z</time></trkpt><trkpt lat="43.60398624088833" lon="12.675073676665539"><ele>215.0</ele><time>2026-04-29T10:41:46.001Z</time></trkpt><trkpt lat="43.60382256510137" lon="12.675094643004774"><ele>216.0</ele><time>2026-04-29T10:41:47.001Z</time></trkpt><trkpt lat="43.60364944901095" lon="12.67511229965968"><ele>217.0</ele><time>2026-04-29T10:41:48.001Z</time></trkpt><trkpt lat="43.60347228741801" lon="12.675127029883226"><ele>218.0</ele><time>2026-04-29T10:41:49.001Z</time></trkpt><trkpt lat="43.60328918135327" lon="12.675130653738266"><ele>218.0</ele><time>2026-04-29T10:41:50.001Z</time></trkpt><trkpt lat="43.60310151750911" lon="12.675109730253311"><ele>218.0</ele><time>2026-04-29T10:41:51.001Z</time></trkpt><trkpt lat="43.60290854697229" lon="12.675057013850381"><ele>218.0</ele><time>2026-04-29T10:41:52.001Z</time></trkpt><trkpt lat="43.60271236873276" lon="12.67499370816903"><ele>217.33333333333334</ele><time>2026-04-29T10:41:53.001Z</time></trkpt><trkpt lat="43.60250934546724" lon="12.67494067022564"><ele>216.66666666666669</ele><time>2026-04-29T10:41:54.001Z</time></trkpt><trkpt lat="43.602299339245484" lon="12.674920609016942"><ele>216.0</ele><time>2026-04-29T10:41:55.001Z</time></trkpt><trkpt lat="43.602088624457004" lon="12.674941122713694"><ele>218.0</ele><time>2026-04-29T10:41:56.001Z</time></trkpt><trkpt lat="43.60187647036978" lon="12.675011977094139"><ele>220.0</ele><time>2026-04-29T10:41:57.001Z</time></trkpt><trkpt lat="43.6016675063184" lon="12.675098415178812"><ele>222.0</ele><time>2026-04-29T10:41:58.001Z</time></trkpt><trkpt lat="43.601456674432335" lon="12.675190709344436"><ele>219.33333333333331</ele><time>2026-04-29T10:41:59.001Z</time></trkpt><trkpt lat="43.60124965893309" lon="12.675289580600257"><ele>216.66666666666666</ele><time>2026-04-29T10:42:00.001Z</time></trkpt><trkpt lat="43.601040742783134" lon="12.675387174814405"><ele>214.0</ele><time>2026-04-29T10:42:01.001Z</time></trkpt><trkpt lat="43.600828609165774" lon="12.675467615571995"><ele>214.0</ele><time>2026-04-29T10:42:02.001Z</time></trkpt><trkpt lat="43.600612990956336" lon="12.675523860621409"><ele>214.0</ele><time>2026-04-29T10:42:03.001Z</time></trkpt><trkpt lat="43.60039320019745" lon="12.675553845739778"><ele>214.0</ele><time>2026-04-29T10:42:04.002Z</time></trkpt><trkpt lat="43.60017232777512" lon="12.675564020666672"><ele>214.33333333333331</ele><time>2026-04-29T10:42:05.002Z</time></trkpt><trkpt lat="43.59994598506628" lon="12.675557253204726"><ele>214.66666666666669</ele><time>2026-04-29T10:42:06.002Z</time></trkpt><trkpt lat="43.599731389040755" lon="12.67553999968345"><ele>215.0</ele><time>2026-04-29T10:42:07.002Z</time></trkpt><trkpt lat="43.59951560072552" lon="12.675525578236458"><ele>215.0</ele><time>2026-04-29T10:42:08.002Z</time></trkpt><trkpt lat="43.59929387199588" lon="12.675508944254346"><ele>215.0</ele><time>2026-04-29T10:42:09.002Z</time></trkpt><trkpt lat="43.59907137239177" lon="12.675491031621583"><ele>215.0</ele><time>2026-04-29T10:42:10.002Z</time></trkpt><trkpt lat="43.598848665030445" lon="12.675472256609316"><ele>215.66666666666669</ele><time>2026-04-29T10:42:11.002Z</time></trkpt><trkpt lat="43.598624509804424" lon="12.675448740999865"><ele>216.33333333333331</ele><time>2026-04-29T10:42:12.002Z</time></trkpt><trkpt lat="43.5984038215921" lon="12.675428335759474"><ele>217.0</ele><time>2026-04-29T10:42:13.002Z</time></trkpt><trkpt lat="43.59817761638306" lon="12.675419113282471"><ele>217.0</ele><time>2026-04-29T10:42:14.002Z</time></trkpt><trkpt lat="43.597952341852675" lon="12.675430143765338"><ele>217.0</ele><time>2026-04-29T10:42:15.002Z</time></trkpt><trkpt lat="43.59772438017579" lon="12.67545268611399"><ele>218.0</ele><time>2026-04-29T10:42:16.002Z</time></trkpt><trkpt lat="43.597496212154425" lon="12.675474770009462"><ele>219.0</ele><time>2026-04-29T10:42:17.002Z</time></trkpt><trkpt lat="43.59726623422447" lon="12.675487212542253"><ele>219.0</ele><time>2026-04-29T10:42:18.002Z</time></trkpt><trkpt lat="43.59703609796025" lon="12.675493874998624"><ele>219.0</ele><time>2026-04-29T10:42:19.002Z</time></trkpt><trkpt lat="43.596803727925646" lon="12.67549523342302"><ele>220.0</ele><time>2026-04-29T10:42:20.002Z</time></trkpt><trkpt lat="43.59657307470527" lon="12.675496559607135"><ele>221.0</ele><time>2026-04-29T10:42:21.002Z</time></trkpt><trkpt lat="43.596341303401836" lon="12.675491279643884"><ele>222.33333333333334</ele><time>2026-04-29T10:42:22.002Z</time></trkpt><trkpt lat="43.59611491820421" lon="12.675484177116543"><ele>223.66666666666669</ele><time>2026-04-29T10:42:23.002Z</time></trkpt><trkpt lat="43.59589281157408" lon="12.675455770406593"><ele>225.0</ele><time>2026-04-29T10:42:24.002Z</time></trkpt><trkpt lat="43.595677554758055" lon="12.6753930621189"><ele>225.0</ele><time>2026-04-29T10:42:25.002Z</time></trkpt><trkpt lat="43.59546247606413" lon="12.675317099563562"><ele>225.0</ele><time>2026-04-29T10:42:26.002Z</time></trkpt><trkpt lat="43.59524343310957" lon="12.675256841512493"><ele>225.0</ele><time>2026-04-29T10:42:27.002Z</time></trkpt><trkpt lat="43.595025605749015" lon="12.67520327449289"><ele>227.0</ele><time>2026-04-29T10:42:28.002Z</time></trkpt><trkpt lat="43.594806819502814" lon="12.675150549186371"><ele>229.0</ele><time>2026-04-29T10:42:29.002Z</time></trkpt><trkpt lat="43.59459289640722" lon="12.67509721394045"><ele>231.0</ele><time>2026-04-29T10:42:30.002Z</time></trkpt><trkpt lat="43.59437734054795" lon="12.67505536431667"><ele>231.66666666666669</ele><time>2026-04-29T10:42:31.002Z</time></trkpt><trkpt lat="43.594160221584666" lon="12.67501976105628"><ele>232.33333333333334</ele><time>2026-04-29T10:42:32.002Z</time></trkpt><trkpt lat="43.59393889130308" lon="12.674995654771221"><ele>233.0</ele><time>2026-04-29T10:42:33.002Z</time></trkpt><trkpt lat="43.593715258383654" lon="12.674977650892712"><ele>232.0</ele><time>2026-04-29T10:42:34.002Z</time></trkpt><trkpt lat="43.59349096886832" lon="12.674962856449689"><ele>231.0</ele><time>2026-04-29T10:42:35.002Z</time></trkpt><trkpt lat="43.59326501062404" lon="12.674946007704337"><ele>231.0</ele><time>2026-04-29T10:42:36.002Z</time></trkpt><trkpt lat="43.593038964682925" lon="12.674929995338903"><ele>231.0</ele><time>2026-04-29T10:42:37.002Z</time></trkpt><trkpt lat="43.59281071759291" lon="12.67491350624462"><ele>230.5</ele><time>2026-04-29T10:42:38.002Z</time></trkpt><trkpt lat="43.59258457349822" lon="12.67489726075504"><ele>230.0</ele><time>2026-04-29T10:42:39.002Z</time></trkpt><trkpt lat="43.5923589505875" lon="12.67488084530002"><ele>230.0</ele><time>2026-04-29T10:42:40.002Z</time></trkpt><trkpt lat="43.59213462443855" lon="12.674857522612113"><ele>230.0</ele><time>2026-04-29T10:42:41.002Z</time></trkpt><trkpt lat="43.591905329919584" lon="12.674827790121876"><ele>231.5</ele><time>2026-04-29T10:42:42.002Z</time></trkpt><trkpt lat="43.59167988792094" lon="12.67478912944319"><ele>233.0</ele><time>2026-04-29T10:42:43.002Z</time></trkpt><trkpt lat="43.59145028703104" lon="12.6747443251035"><ele>233.0</ele><time>2026-04-29T10:42:44.002Z</time></trkpt><trkpt lat="43.59121888019043" lon="12.674699659778565"><ele>233.0</ele><time>2026-04-29T10:42:45.002Z</time></trkpt><trkpt lat="43.590983589129166" lon="12.674657761796134"><ele>231.0</ele><time>2026-04-29T10:42:46.002Z</time></trkpt><trkpt lat="43.5907482200134" lon="12.674615109464927"><ele>229.0</ele><time>2026-04-29T10:42:47.002Z</time></trkpt><trkpt lat="43.59051111480977" lon="12.674567032363386"><ele>228.0</ele><time>2026-04-29T10:42:48.002Z</time></trkpt><trkpt lat="43.590275809833166" lon="12.674511709623106"><ele>227.0</ele><time>2026-04-29T10:42:49.002Z</time></trkpt><trkpt lat="43.59003944794597" lon="12.674452919991609"><ele>236.0</ele><time>2026-04-29T10:42:50.002Z</time></trkpt><trkpt lat="43.589804965288444" lon="12.674388626647682"><ele>245.0</ele><time>2026-04-29T10:42:51.002Z</time></trkpt><trkpt lat="43.58956984685483" lon="12.67431957052595"><ele>242.0</ele><time>2026-04-29T10:42:52.002Z</time></trkpt><trkpt lat="43.589333471251294" lon="12.674245589315376"><ele>239.0</ele><time>2026-04-29T10:42:53.002Z</time></trkpt><trkpt lat="43.58909952591604" lon="12.674167868400643"><ele>239.0</ele><time>2026-04-29T10:42:54.002Z</time></trkpt><trkpt lat="43.58886332573351" lon="12.674082786129958"><ele>239.0</ele><time>2026-04-29T10:42:55.002Z</time></trkpt><trkpt lat="43.58862566124329" lon="12.6739994326635"><ele>236.0</ele><time>2026-04-29T10:42:56.002Z</time></trkpt><trkpt lat="43.588391299603884" lon="12.67392187973431"><ele>233.0</ele><time>2026-04-29T10:42:57.003Z</time></trkpt><trkpt lat="43.58815688432706" lon="12.673852761665616"><ele>233.0</ele><time>2026-04-29T10:42:58.003Z</time></trkpt><trkpt lat="43.58792521439611" lon="12.673779738728406"><ele>233.0</ele><time>2026-04-29T10:42:59.003Z</time></trkpt><trkpt lat="43.58769579135919" lon="12.673705539488225"><ele>230.5</ele><time>2026-04-29T10:43:00.003Z</time></trkpt><trkpt lat="43.587466541760826" lon="12.67362731552614"><ele>228.0</ele><time>2026-04-29T10:43:01.003Z</time></trkpt><trkpt lat="43.58723509314809" lon="12.673555793177746"><ele>231.0</ele><time>2026-04-29T10:43:02.003Z</time></trkpt><trkpt lat="43.58700419447035" lon="12.67348653569899"><ele>234.0</ele><time>2026-04-29T10:43:03.003Z</time></trkpt><trkpt lat="43.5867771752573" lon="12.673417697858959"><ele>234.0</ele><time>2026-04-29T10:43:04.003Z</time></trkpt><trkpt lat="43.58655319417298" lon="12.67334796773795"><ele>234.0</ele><time>2026-04-29T10:43:05.003Z</time></trkpt><trkpt lat="43.58632388049455" lon="12.673281665187929"><ele>230.5</ele><time>2026-04-29T10:43:06.003Z</time></trkpt><trkpt lat="43.586093254684435" lon="12.673218920887235"><ele>227.0</ele><time>2026-04-29T10:43:07.003Z</time></trkpt><trkpt lat="43.58586539230299" lon="12.673160877506444"><ele>227.0</ele><time>2026-04-29T10:43:08.003Z</time></trkpt><trkpt lat="43.58564373632187" lon="12.673097661368274"><ele>227.0</ele><time>2026-04-29T10:43:09.003Z</time></trkpt><trkpt lat="43.58544458787145" lon="12.673045071639319"><ele>227.0</ele><time>2026-04-29T10:43:10.003Z</time></trkpt><trkpt lat="43.585273372180964" lon="12.672962702669398"><ele>227.0</ele><time>2026-04-29T10:43:11.003Z</time></trkpt><trkpt lat="43.58511188668316" lon="12.672903013250503"><ele>227.0</ele><time>2026-04-29T10:43:12.003Z</time></trkpt><trkpt lat="43.584968296046654" lon="12.672845190177803"><ele>227.0</ele><time>2026-04-29T10:43:13.003Z</time></trkpt><trkpt lat="43.584848445029806" lon="12.672786666112591"><ele>227.0</ele><time>2026-04-29T10:43:14.003Z</time></trkpt><trkpt lat="43.5847510891298" lon="12.672728610522407"><ele>228.5</ele><time>2026-04-29T10:43:15.003Z</time></trkpt><trkpt lat="43.58465882792071" lon="12.672663544326571"><ele>230.0</ele><time>2026-04-29T10:43:16.003Z</time></trkpt><trkpt lat="43.58454297103283" lon="12.67259018716403"><ele>231.5</ele><time>2026-04-29T10:43:17.003Z</time></trkpt><trkpt lat="43.58442471560358" lon="12.672483673415007"><ele>233.0</ele><time>2026-04-29T10:43:18.003Z</time></trkpt><trkpt lat="43.58428969131657" lon="12.67237930503996"><ele>233.33333333333334</ele><time>2026-04-29T10:43:19.003Z</time></trkpt><trkpt lat="43.584174886517324" lon="12.672231579834866"><ele>233.66666666666669</ele><time>2026-04-29T10:43:20.003Z</time></trkpt><trkpt lat="43.584053152126415" lon="12.67207681299073"><ele>234.0</ele><time>2026-04-29T10:43:21.003Z</time></trkpt><trkpt lat="43.583922663831764" lon="12.671925041340634"><ele>234.0</ele><time>2026-04-29T10:43:22.003Z</time></trkpt><trkpt lat="43.5837810889552" lon="12.671791633465917"><ele>234.0</ele><time>2026-04-29T10:43:23.003Z</time></trkpt><trkpt lat="43.58361442769417" lon="12.67168931802561"><ele>234.0</ele><time>2026-04-29T10:43:24.003Z</time></trkpt><trkpt lat="43.58345294407143" lon="12.67156157791382"><ele>234.66666666666669</ele><time>2026-04-29T10:43:25.003Z</time></trkpt><trkpt lat="43.58328754000828" lon="12.671434888351472"><ele>235.33333333333334</ele><time>2026-04-29T10:43:26.003Z</time></trkpt><trkpt lat="43.583116940252786" lon="12.671306708115841"><ele>236.0</ele><time>2026-04-29T10:43:27.003Z</time></trkpt><trkpt lat="43.58294282275996" lon="12.671189951186221"><ele>235.66666666666669</ele><time>2026-04-29T10:43:28.003Z</time></trkpt><trkpt lat="43.58275956326802" lon="12.671079988800551"><ele>235.33333333333331</ele><time>2026-04-29T10:43:29.003Z</time></trkpt><trkpt lat="43.582566159374025" lon="12.670976678169643"><ele>235.0</ele><time>2026-04-29T10:43:30.003Z</time></trkpt><trkpt lat="43.582373198489535" lon="12.670860849530117"><ele>235.0</ele><time>2026-04-29T10:43:31.003Z</time></trkpt><trkpt lat="43.582182330327434" lon="12.670719981918483"><ele>235.0</ele><time>2026-04-29T10:43:32.003Z</time></trkpt><trkpt lat="43.58199279640868" lon="12.670563177704446"><ele>235.0</ele><time>2026-04-29T10:43:33.003Z</time></trkpt><trkpt lat="43.5818061162883" lon="12.670384614354248"><ele>236.0</ele><time>2026-04-29T10:43:34.003Z</time></trkpt><trkpt lat="43.58162036956158" lon="12.670224204290825"><ele>237.0</ele><time>2026-04-29T10:43:35.003Z</time></trkpt><trkpt lat="43.58142295560867" lon="12.670142519833297"><ele>238.0</ele><time>2026-04-29T10:43:36.003Z</time></trkpt><trkpt lat="43.581266051253714" lon="12.670049347816498"><ele>237.5</ele><time>2026-04-29T10:43:37.003Z</time></trkpt><trkpt lat="43.58114880989986" lon="12.669966252693227"><ele>237.0</ele><time>2026-04-29T10:43:38.002Z</time></trkpt><trkpt lat="43.58103986240569" lon="12.669900267969636"><ele>236.5</ele><time>2026-04-29T10:43:39.002Z</time></trkpt><trkpt lat="43.58091542679093" lon="12.669840630950329"><ele>236.0</ele><time>2026-04-29T10:43:40.002Z</time></trkpt><trkpt lat="43.58076798224746" lon="12.669780609467987"><ele>236.0</ele><time>2026-04-29T10:43:41.002Z</time></trkpt><trkpt lat="43.580609009767656" lon="12.669698692184276"><ele>236.0</ele><time>2026-04-29T10:43:42.002Z</time></trkpt><trkpt lat="43.58044148552608" lon="12.669618070578629"><ele>236.0</ele><time>2026-04-29T10:43:43.002Z</time></trkpt><trkpt lat="43.580266452085446" lon="12.669527370537464"><ele>236.66666666666669</ele><time>2026-04-29T10:43:44.002Z</time></trkpt><trkpt lat="43.580086594421765" lon="12.669426501631904"><ele>237.33333333333331</ele><time>2026-04-29T10:43:45.002Z</time></trkpt><trkpt lat="43.57990181940158" lon="12.66931988179376"><ele>238.0</ele><time>2026-04-29T10:43:46.002Z</time></trkpt><trkpt lat="43.579706862635" lon="12.669212356709934"><ele>238.33333333333331</ele><time>2026-04-29T10:43:47.002Z</time></trkpt><trkpt lat="43.57950181552882" lon="12.669101874550549"><ele>238.66666666666669</ele><time>2026-04-29T10:43:48.002Z</time></trkpt><trkpt lat="43.57929743896664" lon="12.668992760895316"><ele>239.0</ele><time>2026-04-29T10:43:49.002Z</time></trkpt><trkpt lat="43.57909065122918" lon="12.668876898067003"><ele>239.0</ele><time>2026-04-29T10:43:50.002Z</time></trkpt><trkpt lat="43.57888361900282" lon="12.66875438450978"><ele>239.0</ele><time>2026-04-29T10:43:51.002Z</time></trkpt><trkpt lat="43.578682274508104" lon="12.66862295095493"><ele>239.0</ele><time>2026-04-29T10:43:52.002Z</time></trkpt><trkpt lat="43.578491713220096" lon="12.668479762528094"><ele>239.0</ele><time>2026-04-29T10:43:53.002Z</time></trkpt><trkpt lat="43.5783214614907" lon="12.668343757312563"><ele>239.0</ele><time>2026-04-29T10:43:54.002Z</time></trkpt><trkpt lat="43.57817416577958" lon="12.668197106762326"><ele>239.0</ele><time>2026-04-29T10:43:55.002Z</time></trkpt><trkpt lat="43.57805246952747" lon="12.66801879157537"><ele>239.0</ele><time>2026-04-29T10:43:56.002Z</time></trkpt><trkpt lat="43.577959961345016" lon="12.667825959663512"><ele>239.0</ele><time>2026-04-29T10:43:57.002Z</time></trkpt><trkpt lat="43.57784641220467" lon="12.667683411697382"><ele>239.0</ele><time>2026-04-29T10:43:58.002Z</time></trkpt><trkpt lat="43.57769817139755" lon="12.667573954802007"><ele>238.66666666666669</ele><time>2026-04-29T10:43:59.002Z</time></trkpt><trkpt lat="43.57753530227513" lon="12.667480599409215"><ele>238.33333333333331</ele><time>2026-04-29T10:44:00.002Z</time></trkpt><trkpt lat="43.57736111766011" lon="12.667381863854597"><ele>238.0</ele><time>2026-04-29T10:44:01.002Z</time></trkpt><trkpt lat="43.577181563619625" lon="12.667271607850477"><ele>238.33333333333331</ele><time>2026-04-29T10:44:02.002Z</time></trkpt><trkpt lat="43.57699330821584" lon="12.667155404598702"><ele>238.66666666666669</ele><time>2026-04-29T10:44:03.002Z</time></trkpt><trkpt lat="43.576797659379814" lon="12.66703079803988"><ele>239.0</ele><time>2026-04-29T10:44:04.002Z</time></trkpt><trkpt lat="43.57659721115855" lon="12.666906995468937"><ele>239.0</ele><time>2026-04-29T10:44:05.002Z</time></trkpt><trkpt lat="43.576390195594854" lon="12.666781946679958"><ele>239.0</ele><time>2026-04-29T10:44:06.002Z</time></trkpt><trkpt lat="43.576175596370966" lon="12.66665579566116"><ele>239.0</ele><time>2026-04-29T10:44:07.002Z</time></trkpt><trkpt lat="43.57595976236703" lon="12.666527287781802"><ele>239.0</ele><time>2026-04-29T10:44:08.002Z</time></trkpt><trkpt lat="43.575740034828115" lon="12.666396653855571"><ele>239.0</ele><time>2026-04-29T10:44:09.002Z</time></trkpt><trkpt lat="43.57551909874945" lon="12.666261274853737"><ele>239.0</ele><time>2026-04-29T10:44:10.002Z</time></trkpt><trkpt lat="43.575296594749425" lon="12.66612517058606"><ele>240.0</ele><time>2026-04-29T10:44:11.002Z</time></trkpt><trkpt lat="43.57507310361223" lon="12.66598685552625"><ele>241.0</ele><time>2026-04-29T10:44:12.002Z</time></trkpt><trkpt lat="43.57487082217773" lon="12.665847374152056"><ele>241.0</ele><time>2026-04-29T10:44:13.002Z</time></trkpt><trkpt lat="43.5746830901444" lon="12.665680849971624"><ele>241.0</ele><time>2026-04-29T10:44:14.002Z</time></trkpt><trkpt lat="43.57450654461858" lon="12.665480748367434"><ele>239.66666666666666</ele><time>2026-04-29T10:44:15.002Z</time></trkpt><trkpt lat="43.574368394099864" lon="12.665260516072468"><ele>238.33333333333331</ele><time>2026-04-29T10:44:16.002Z</time></trkpt><trkpt lat="43.57427472856491" lon="12.665015730893193"><ele>237.0</ele><time>2026-04-29T10:44:17.002Z</time></trkpt><trkpt lat="43.574221577479584" lon="12.664757851961873"><ele>237.0</ele><time>2026-04-29T10:44:18.002Z</time></trkpt><trkpt lat="43.57417899964819" lon="12.66449778142649"><ele>237.0</ele><time>2026-04-29T10:44:19.002Z</time></trkpt><trkpt lat="43.5741183584314" lon="12.664274164492236"><ele>237.0</ele><time>2026-04-29T10:44:20.002Z</time></trkpt><trkpt lat="43.57402856033741" lon="12.664091844326098"><ele>236.66666666666669</ele><time>2026-04-29T10:44:21.002Z</time></trkpt><trkpt lat="43.57390575235221" lon="12.663924551051903"><ele>236.33333333333334</ele><time>2026-04-29T10:44:22.002Z</time></trkpt><trkpt lat="43.5737550520499" lon="12.663794454461062"><ele>236.0</ele><time>2026-04-29T10:44:23.002Z</time></trkpt><trkpt lat="43.573579996373844" lon="12.663713780493177"><ele>236.66666666666669</ele><time>2026-04-29T10:44:24.002Z</time></trkpt><trkpt lat="43.573383760460544" lon="12.663652870757014"><ele>237.33333333333331</ele><time>2026-04-29T10:44:25.002Z</time></trkpt><trkpt lat="43.57317598422898" lon="12.663587980750206"><ele>238.0</ele><time>2026-04-29T10:44:26.002Z</time></trkpt><trkpt lat="43.572974469553046" lon="12.66349568482937"><ele>239.66666666666666</ele><time>2026-04-29T10:44:27.002Z</time></trkpt><trkpt lat="43.5727721249734" lon="12.663421435736709"><ele>241.33333333333331</ele><time>2026-04-29T10:44:28.002Z</time></trkpt><trkpt lat="43.57256854598497" lon="12.663364556043772"><ele>243.0</ele><time>2026-04-29T10:44:29.002Z</time></trkpt><trkpt lat="43.57238980501673" lon="12.663271062170866"><ele>243.0</ele><time>2026-04-29T10:44:30.002Z</time></trkpt><trkpt lat="43.57224158458578" lon="12.6631292691397"><ele>243.0</ele><time>2026-04-29T10:44:31.002Z</time></trkpt><trkpt lat="43.57209106781866" lon="12.662992555684985"><ele>243.0</ele><time>2026-04-29T10:44:32.002Z</time></trkpt><trkpt lat="43.57193235501504" lon="12.6628390310263"><ele>245.0</ele><time>2026-04-29T10:44:33.002Z</time></trkpt><trkpt lat="43.571764298069574" lon="12.662699070008326"><ele>247.0</ele><time>2026-04-29T10:44:34.002Z</time></trkpt><trkpt lat="43.571610283434474" lon="12.662537523095258"><ele>249.0</ele><time>2026-04-29T10:44:35.002Z</time></trkpt><trkpt lat="43.5714510160681" lon="12.662394084662552"><ele>249.0</ele><time>2026-04-29T10:44:36.002Z</time></trkpt><trkpt lat="43.571288136086544" lon="12.662274705199305"><ele>249.0</ele><time>2026-04-29T10:44:37.002Z</time></trkpt><trkpt lat="43.571108147502976" lon="12.662164840527307"><ele>249.0</ele><time>2026-04-29T10:44:38.002Z</time></trkpt><trkpt lat="43.57092856151033" lon="12.662073806913797"><ele>248.66666666666669</ele><time>2026-04-29T10:44:39.002Z</time></trkpt><trkpt lat="43.57074050341957" lon="12.661977529130814"><ele>248.33333333333334</ele><time>2026-04-29T10:44:40.002Z</time></trkpt><trkpt lat="43.5705541345158" lon="12.661875697684449"><ele>248.0</ele><time>2026-04-29T10:44:41.002Z</time></trkpt><trkpt lat="43.570362888796375" lon="12.661776472905103"><ele>248.33333333333334</ele><time>2026-04-29T10:44:42.002Z</time></trkpt><trkpt lat="43.57017107888689" lon="12.66168022619792"><ele>248.66666666666669</ele><time>2026-04-29T10:44:43.002Z</time></trkpt><trkpt lat="43.56997633597778" lon="12.661583561693478"><ele>249.0</ele><time>2026-04-29T10:44:44.002Z</time></trkpt><trkpt lat="43.5697825058044" lon="12.661483327737246"><ele>249.0</ele><time>2026-04-29T10:44:45.002Z</time></trkpt><trkpt lat="43.56958786813322" lon="12.661378790062665"><ele>249.0</ele><time>2026-04-29T10:44:46.002Z</time></trkpt><trkpt lat="43.56939087338744" lon="12.661271396945764"><ele>249.0</ele><time>2026-04-29T10:44:47.002Z</time></trkpt><trkpt lat="43.56919361193566" lon="12.661162538982465"><ele>250.33333333333331</ele><time>2026-04-29T10:44:48.002Z</time></trkpt><trkpt lat="43.56899688130559" lon="12.661055436450456"><ele>251.66666666666666</ele><time>2026-04-29T10:44:49.002Z</time></trkpt><trkpt lat="43.56879748315776" lon="12.660941827213525"><ele>253.0</ele><time>2026-04-29T10:44:50.002Z</time></trkpt><trkpt lat="43.56860193799144" lon="12.660820507047418"><ele>253.0</ele><time>2026-04-29T10:44:51.002Z</time></trkpt><trkpt lat="43.56841202354798" lon="12.66068234194548"><ele>253.0</ele><time>2026-04-29T10:44:52.002Z</time></trkpt><trkpt lat="43.568224511838615" lon="12.660538069610821"><ele>253.0</ele><time>2026-04-29T10:44:53.002Z</time></trkpt><trkpt lat="43.56805454696398" lon="12.660412423677595"><ele>253.0</ele><time>2026-04-29T10:44:54.002Z</time></trkpt><trkpt lat="43.56790829056113" lon="12.660294070606286"><ele>253.0</ele><time>2026-04-29T10:44:55.002Z</time></trkpt><trkpt lat="43.567779637577885" lon="12.660167468376931"><ele>253.0</ele><time>2026-04-29T10:44:56.002Z</time></trkpt><trkpt lat="43.56768859794711" lon="12.659998107635621"><ele>253.0</ele><time>2026-04-29T10:44:57.002Z</time></trkpt><trkpt lat="43.56760681182841" lon="12.659814881625083"><ele>253.0</ele><time>2026-04-29T10:44:58.002Z</time></trkpt><trkpt lat="43.56755159902026" lon="12.65960648651039"><ele>253.0</ele><time>2026-04-29T10:44:59.002Z</time></trkpt><trkpt lat="43.567521329540476" lon="12.659414016478406"><ele>253.0</ele><time>2026-04-29T10:45:00.002Z</time></trkpt><trkpt lat="43.56749125195787" lon="12.65923012913226"><ele>253.0</ele><time>2026-04-29T10:45:01.002Z</time></trkpt><trkpt lat="43.56748328038949" lon="12.659064360277675"><ele>253.0</ele><time>2026-04-29T10:45:02.002Z</time></trkpt><trkpt lat="43.56744467066726" lon="12.65892322158247"><ele>253.0</ele><time>2026-04-29T10:45:03.002Z</time></trkpt><trkpt lat="43.567362245839156" lon="12.658812250415586"><ele>253.0</ele><time>2026-04-29T10:45:04.002Z</time></trkpt><trkpt lat="43.56724479472637" lon="12.658725221779578"><ele>253.0</ele><time>2026-04-29T10:45:05.003Z</time></trkpt><trkpt lat="43.56710864049953" lon="12.658646341550652"><ele>253.0</ele><time>2026-04-29T10:45:06.003Z</time></trkpt><trkpt lat="43.5669583978739" lon="12.658561111747515"><ele>253.0</ele><time>2026-04-29T10:45:07.003Z</time></trkpt><trkpt lat="43.56680548879145" lon="12.65849904100196"><ele>253.66666666666666</ele><time>2026-04-29T10:45:08.003Z</time></trkpt><trkpt lat="43.56665617018809" lon="12.658498910416142"><ele>254.33333333333331</ele><time>2026-04-29T10:45:09.003Z</time></trkpt><trkpt lat="43.56650755921574" lon="12.658567541356346"><ele>255.0</ele><time>2026-04-29T10:45:10.003Z</time></trkpt><trkpt lat="43.566361117835356" lon="12.658673590846805"><ele>255.0</ele><time>2026-04-29T10:45:11.003Z</time></trkpt><trkpt lat="43.56620796430683" lon="12.658779960091206"><ele>255.0</ele><time>2026-04-29T10:45:12.003Z</time></trkpt><trkpt lat="43.566046289625284" lon="12.658874202250475"><ele>255.0</ele><time>2026-04-29T10:45:13.003Z</time></trkpt><trkpt lat="43.56588288406757" lon="12.658942244005729"><ele>255.0</ele><time>2026-04-29T10:45:14.003Z</time></trkpt><trkpt lat="43.56572254031509" lon="12.658963388422556"><ele>255.0</ele><time>2026-04-29T10:45:15.003Z</time></trkpt><trkpt lat="43.565560406021646" lon="12.658925047942759"><ele>255.0</ele><time>2026-04-29T10:45:16.003Z</time></trkpt><trkpt lat="43.56541050381418" lon="12.658866380220955"><ele>254.8</ele><time>2026-04-29T10:45:17.003Z</time></trkpt><trkpt lat="43.56528736914224" lon="12.658813925387477"><ele>254.6</ele><time>2026-04-29T10:45:18.003Z</time></trkpt><trkpt lat="43.56519336216538" lon="12.65876243205734"><ele>254.39999999999998</ele><time>2026-04-29T10:45:19.003Z</time></trkpt><trkpt lat="43.56511423131669" lon="12.658715996271471"><ele>254.2</ele><time>2026-04-29T10:45:20.003Z</time></trkpt><trkpt lat="43.56504535891506" lon="12.658663900959473"><ele>254.0</ele><time>2026-04-29T10:45:21.003Z</time></trkpt><trkpt lat="43.56499029628838" lon="12.658585143043556"><ele>254.0</ele><time>2026-04-29T10:45:22.003Z</time></trkpt><trkpt lat="43.56494695655217" lon="12.65846482836835"><ele>253.99999999999997</ele><time>2026-04-29T10:45:23.003Z</time></trkpt><trkpt lat="43.56490672163286" lon="12.658335256814336"><ele>253.99999999999997</ele><time>2026-04-29T10:45:24.003Z</time></trkpt><trkpt lat="43.564827705869135" lon="12.658242844638853"><ele>254.0</ele><time>2026-04-29T10:45:25.003Z</time></trkpt><trkpt lat="43.56472092384508" lon="12.658212782007816"><ele>254.0</ele><time>2026-04-29T10:45:26.003Z</time></trkpt><trkpt lat="43.56460154697165" lon="12.658224407562825"><ele>253.25</ele><time>2026-04-29T10:45:27.003Z</time></trkpt><trkpt lat="43.56447148579596" lon="12.65820871380788"><ele>252.5</ele><time>2026-04-29T10:45:28.003Z</time></trkpt><trkpt lat="43.56433901852604" lon="12.65812806472382"><ele>251.75</ele><time>2026-04-29T10:45:29.003Z</time></trkpt><trkpt lat="43.56422133237165" lon="12.658024589440354"><ele>251.0</ele><time>2026-04-29T10:45:30.003Z</time></trkpt><trkpt lat="43.56413503375001" lon="12.657891376958027"><ele>251.25</ele><time>2026-04-29T10:45:31.003Z</time></trkpt><trkpt lat="43.564075696945075" lon="12.65772339788927"><ele>251.5</ele><time>2026-04-29T10:45:32.003Z</time></trkpt><trkpt lat="43.564024062560286" lon="12.65753990469412"><ele>251.75</ele><time>2026-04-29T10:45:33.003Z</time></trkpt><trkpt lat="43.563964733954734" lon="12.65736234623463"><ele>252.0</ele><time>2026-04-29T10:45:34.003Z</time></trkpt><trkpt lat="43.56390281697653" lon="12.657189589880526"><ele>252.0</ele><time>2026-04-29T10:45:35.003Z</time></trkpt><trkpt lat="43.56382938752269" lon="12.657036452630319"><ele>252.0</ele><time>2026-04-29T10:45:36.002Z</time></trkpt><trkpt lat="43.56373635353301" lon="12.656909053436147"><ele>252.0</ele><time>2026-04-29T10:45:37.002Z</time></trkpt><trkpt lat="43.563617974747395" lon="12.65683184807665"><ele>252.0</ele><time>2026-04-29T10:45:38.002Z</time></trkpt><trkpt lat="43.563491470452405" lon="12.65681143277579"><ele>250.8</ele><time>2026-04-29T10:45:39.002Z</time></trkpt><trkpt lat="43.563370603972814" lon="12.656828411079141"><ele>249.6</ele><time>2026-04-29T10:45:40.002Z</time></trkpt><trkpt lat="43.56326820701468" lon="12.656859725334344"><ele>248.40000000000003</ele><time>2026-04-29T10:45:41.002Z</time></trkpt><trkpt lat="43.56318747885264" lon="12.65683278291737"><ele>247.20000000000002</ele><time>2026-04-29T10:45:42.002Z</time></trkpt><trkpt lat="43.56311104762258" lon="12.656767299722118"><ele>246.0</ele><time>2026-04-29T10:45:43.002Z</time></trkpt><trkpt lat="43.56301877857264" lon="12.65671295902843"><ele>246.0</ele><time>2026-04-29T10:45:44.001Z</time></trkpt><trkpt lat="43.56290001032156" lon="12.656673835640351"><ele>246.0</ele><time>2026-04-29T10:45:45.001Z</time></trkpt><trkpt lat="43.56277170715719" lon="12.656656732744068"><ele>246.0</ele><time>2026-04-29T10:45:46.001Z</time></trkpt><trkpt lat="43.562629161396856" lon="12.656655890900495"><ele>246.0</ele><time>2026-04-29T10:45:47.001Z</time></trkpt><trkpt lat="43.5624800822908" lon="12.656625608213334"><ele>244.66666666666669</ele><time>2026-04-29T10:45:48.001Z</time></trkpt><trkpt lat="43.56232924226033" lon="12.656538642532933"><ele>243.33333333333334</ele><time>2026-04-29T10:45:49.001Z</time></trkpt><trkpt lat="43.56218244885496" lon="12.65641307432542"><ele>242.0</ele><time>2026-04-29T10:45:50.001Z</time></trkpt><trkpt lat="43.56203834061864" lon="12.656274678328137"><ele>242.33333333333334</ele><time>2026-04-29T10:45:51.001Z</time></trkpt><trkpt lat="43.56188298148854" lon="12.65614141807011"><ele>242.66666666666669</ele><time>2026-04-29T10:45:52.001Z</time></trkpt><trkpt lat="43.561729411283956" lon="12.656000596809434"><ele>243.0</ele><time>2026-04-29T10:45:53.001Z</time></trkpt><trkpt lat="43.56158887807697" lon="12.655839902778432"><ele>243.0</ele><time>2026-04-29T10:45:54.001Z</time></trkpt><trkpt lat="43.5614574636004" lon="12.655654481433558"><ele>243.0</ele><time>2026-04-29T10:45:55.001Z</time></trkpt><trkpt lat="43.56133120634304" lon="12.65545389505014"><ele>243.0</ele><time>2026-04-29T10:45:56.001Z</time></trkpt><trkpt lat="43.56120641562998" lon="12.655244129731402"><ele>241.0</ele><time>2026-04-29T10:45:57.001Z</time></trkpt><trkpt lat="43.56108819847254" lon="12.655038861359577"><ele>239.0</ele><time>2026-04-29T10:45:58.001Z</time></trkpt><trkpt lat="43.560975106362605" lon="12.65485039295227"><ele>237.0</ele><time>2026-04-29T10:45:59Z</time></trkpt><trkpt lat="43.5608609780434" lon="12.65467723698233"><ele>237.0</ele><time>2026-04-29T10:46:00Z</time></trkpt><trkpt lat="43.56073830560166" lon="12.654522084846574"><ele>237.0</ele><time>2026-04-29T10:46:01Z</time></trkpt><trkpt lat="43.560603469268514" lon="12.654395772944884"><ele>237.0</ele><time>2026-04-29T10:46:02Z</time></trkpt><trkpt lat="43.560458572341375" lon="12.65429384049305"><ele>239.0</ele><time>2026-04-29T10:46:03Z</time></trkpt><trkpt lat="43.56030488304473" lon="12.654222732839177"><ele>241.0</ele><time>2026-04-29T10:46:04Z</time></trkpt><trkpt lat="43.560139131727645" lon="12.65420527731306"><ele>243.0</ele><time>2026-04-29T10:46:05Z</time></trkpt><trkpt lat="43.559964494479004" lon="12.654220568157772"><ele>243.0</ele><time>2026-04-29T10:46:06Z</time></trkpt><trkpt lat="43.5597825823663" lon="12.654247263298442"><ele>243.0</ele><time>2026-04-29T10:46:07Z</time></trkpt><trkpt lat="43.55959690833466" lon="12.654231229515462"><ele>243.0</ele><time>2026-04-29T10:46:08Z</time></trkpt><trkpt lat="43.55940681635617" lon="12.654216350093897"><ele>242.0</ele><time>2026-04-29T10:46:09Z</time></trkpt><trkpt lat="43.559211916311796" lon="12.654199889726787"><ele>241.0</ele><time>2026-04-29T10:46:10Z</time></trkpt><trkpt lat="43.55902108145856" lon="12.65415583923476"><ele>240.0</ele><time>2026-04-29T10:46:11Z</time></trkpt><trkpt lat="43.558842563324994" lon="12.65411061611462"><ele>239.33333333333331</ele><time>2026-04-29T10:46:12Z</time></trkpt><trkpt lat="43.558676103242604" lon="12.654065031625324"><ele>238.66666666666666</ele><time>2026-04-29T10:46:13.001Z</time></trkpt><trkpt lat="43.558520965564746" lon="12.654026897026283"><ele>238.0</ele><time>2026-04-29T10:46:14.001Z</time></trkpt><trkpt lat="43.558379113279244" lon="12.65399923267214"><ele>238.0</ele><time>2026-04-29T10:46:15.001Z</time></trkpt><trkpt lat="43.55824699008776" lon="12.653975972712226"><ele>238.0</ele><time>2026-04-29T10:46:16.001Z</time></trkpt><trkpt lat="43.55812388139087" lon="12.653955102174278"><ele>238.0</ele><time>2026-04-29T10:46:17.001Z</time></trkpt><trkpt lat="43.55800929170767" lon="12.653930487520507"><ele>238.0</ele><time>2026-04-29T10:46:18.001Z</time></trkpt><trkpt lat="43.5578965798578" lon="12.653899582136168"><ele>238.4</ele><time>2026-04-29T10:46:19.001Z</time></trkpt><trkpt lat="43.557786934111675" lon="12.653861219517609"><ele>238.8</ele><time>2026-04-29T10:46:20.001Z</time></trkpt><trkpt lat="43.5576783417258" lon="12.653813410811145"><ele>239.2</ele><time>2026-04-29T10:46:21.001Z</time></trkpt><trkpt lat="43.557571918366364" lon="12.653761687072944"><ele>239.6</ele><time>2026-04-29T10:46:22.001Z</time></trkpt><trkpt lat="43.557471604019455" lon="12.653709350253116"><ele>240.0</ele><time>2026-04-29T10:46:23.001Z</time></trkpt><trkpt lat="43.55738391623849" lon="12.65365570767943"><ele>240.83333333333334</ele><time>2026-04-29T10:46:24.001Z</time></trkpt><trkpt lat="43.55730669238324" lon="12.653601398949617"><ele>241.66666666666669</ele><time>2026-04-29T10:46:25.001Z</time></trkpt><trkpt lat="43.55723663369361" lon="12.653554869445578"><ele>242.5</ele><time>2026-04-29T10:46:26.001Z</time></trkpt><trkpt lat="43.55717400254973" lon="12.653511533240533"><ele>243.33333333333334</ele><time>2026-04-29T10:46:27.001Z</time></trkpt><trkpt lat="43.55711545053364" lon="12.653471043046288"><ele>244.16666666666669</ele><time>2026-04-29T10:46:28.001Z</time></trkpt><trkpt lat="43.55700509271213" lon="12.653393251019677"><ele>245.0</ele><time>2026-04-29T10:46:30.001Z</time></trkpt><trkpt lat="43.556945087119914" lon="12.653350099680985"><ele>245.0</ele><time>2026-04-29T10:46:31.001Z</time></trkpt><trkpt lat="43.55687611643171" lon="12.653305071154756"><ele>245.0</ele><time>2026-04-29T10:46:32.001Z</time></trkpt><trkpt lat="43.556792448157196" lon="12.653248564347638"><ele>245.0</ele><time>2026-04-29T10:46:33.001Z</time></trkpt><trkpt lat="43.556694698221875" lon="12.653181669649587"><ele>245.0</ele><time>2026-04-29T10:46:34.001Z</time></trkpt><trkpt lat="43.55658713463864" lon="12.653102031690537"><ele>245.0</ele><time>2026-04-29T10:46:35.001Z</time></trkpt><trkpt lat="43.556479241521885" lon="12.652997322143742"><ele>245.0</ele><time>2026-04-29T10:46:36.001Z</time></trkpt><trkpt lat="43.55637357795526" lon="12.65287422665637"><ele>245.0</ele><time>2026-04-29T10:46:37.001Z</time></trkpt><trkpt lat="43.55627315220776" lon="12.65273906788496"><ele>245.0</ele><time>2026-04-29T10:46:38.001Z</time></trkpt><trkpt lat="43.556178563902" lon="12.652597975461122"><ele>245.0</ele><time>2026-04-29T10:46:39.001Z</time></trkpt><trkpt lat="43.55608098915192" lon="12.652443825655338"><ele>244.66666666666669</ele><time>2026-04-29T10:46:40.001Z</time></trkpt><trkpt lat="43.555934471516224" lon="12.652376653178356"><ele>244.33333333333331</ele><time>2026-04-29T10:46:41.001Z</time></trkpt><trkpt lat="43.555784910520195" lon="12.65232760567762"><ele>244.0</ele><time>2026-04-29T10:46:42.001Z</time></trkpt><trkpt lat="43.555635174937315" lon="12.652291467606652"><ele>244.0</ele><time>2026-04-29T10:46:43.001Z</time></trkpt><trkpt lat="43.55548425141862" lon="12.652278939603864"><ele>244.0</ele><time>2026-04-29T10:46:44.001Z</time></trkpt><trkpt lat="43.555342473469196" lon="12.652279559282297"><ele>244.0</ele><time>2026-04-29T10:46:45.001Z</time></trkpt><trkpt lat="43.55521798023371" lon="12.652290869690226"><ele>244.0</ele><time>2026-04-29T10:46:46.001Z</time></trkpt><trkpt lat="43.555114136483105" lon="12.652302214361514"><ele>244.2</ele><time>2026-04-29T10:46:47.001Z</time></trkpt><trkpt lat="43.55501860256849" lon="12.652312651213224"><ele>244.39999999999998</ele><time>2026-04-29T10:46:48.001Z</time></trkpt><trkpt lat="43.55492296677875" lon="12.652338383725207"><ele>244.6</ele><time>2026-04-29T10:46:49.001Z</time></trkpt><trkpt lat="43.55481853207303" lon="12.652330538928563"><ele>244.8</ele><time>2026-04-29T10:46:50.001Z</time></trkpt><trkpt lat="43.55471110932781" lon="12.652333452194547"><ele>245.0</ele><time>2026-04-29T10:46:51.001Z</time></trkpt><trkpt lat="43.554606340936616" lon="12.65234815007496"><ele>245.2</ele><time>2026-04-29T10:46:52.001Z</time></trkpt><trkpt lat="43.554501427887274" lon="12.652363214409919"><ele>245.4</ele><time>2026-04-29T10:46:53.001Z</time></trkpt><trkpt lat="43.554407256619456" lon="12.652371727983402"><ele>245.60000000000002</ele><time>2026-04-29T10:46:54.001Z</time></trkpt><trkpt lat="43.55431225336968" lon="12.652376538359102"><ele>245.8</ele><time>2026-04-29T10:46:55.001Z</time></trkpt><trkpt lat="43.55421792958536" lon="12.652380103782798"><ele>246.0</ele><time>2026-04-29T10:46:56.001Z</time></trkpt><trkpt lat="43.55412201921912" lon="12.652381097797178"><ele>246.0</ele><time>2026-04-29T10:46:57.001Z</time></trkpt><trkpt lat="43.55402589901812" lon="12.652381055883406"><ele>246.00000000000003</ele><time>2026-04-29T10:46:58.001Z</time></trkpt><trkpt lat="43.5539295449783" lon="12.6523823811228"><ele>246.00000000000003</ele><time>2026-04-29T10:46:59.001Z</time></trkpt><trkpt lat="43.5538316303937" lon="12.652384744452872"><ele>246.0</ele><time>2026-04-29T10:47:00.001Z</time></trkpt><trkpt lat="43.55373249393652" lon="12.652386438244614"><ele>246.0</ele><time>2026-04-29T10:47:01.001Z</time></trkpt><trkpt lat="43.55363129368236" lon="12.652383821367447"><ele>245.8</ele><time>2026-04-29T10:47:02.001Z</time></trkpt><trkpt lat="43.55352828469917" lon="12.652374795862233"><ele>245.60000000000002</ele><time>2026-04-29T10:47:03.001Z</time></trkpt><trkpt lat="43.55342092875421" lon="12.65236475025074"><ele>245.4</ele><time>2026-04-29T10:47:04.001Z</time></trkpt><trkpt lat="43.5533119363758" lon="12.652346976738526"><ele>245.2</ele><time>2026-04-29T10:47:05.001Z</time></trkpt><trkpt lat="43.553201923155115" lon="12.652318473549279"><ele>245.0</ele><time>2026-04-29T10:47:06.001Z</time></trkpt><trkpt lat="43.55309122400844" lon="12.652284261437652"><ele>245.0</ele><time>2026-04-29T10:47:07.001Z</time></trkpt><trkpt lat="43.55298081443816" lon="12.652240248847228"><ele>245.0</ele><time>2026-04-29T10:47:08.001Z</time></trkpt><trkpt lat="43.55287586767083" lon="12.652177563774"><ele>245.0</ele><time>2026-04-29T10:47:09.001Z</time></trkpt><trkpt lat="43.55277338211866" lon="12.652111862991111"><ele>245.0</ele><time>2026-04-29T10:47:10.001Z</time></trkpt><trkpt lat="43.552665494324884" lon="12.652062662198569"><ele>245.0</ele><time>2026-04-29T10:47:11.001Z</time></trkpt><trkpt lat="43.55255295602335" lon="12.652026202595898"><ele>245.0</ele><time>2026-04-29T10:47:12.001Z</time></trkpt><trkpt lat="43.55244181909143" lon="12.651974706131176"><ele>245.0</ele><time>2026-04-29T10:47:13.001Z</time></trkpt><trkpt lat="43.552328356528506" lon="12.651912631830326"><ele>245.0</ele><time>2026-04-29T10:47:14.001Z</time></trkpt><trkpt lat="43.55221204343786" lon="12.651849914807352"><ele>245.25</ele><time>2026-04-29T10:47:15.001Z</time></trkpt><trkpt lat="43.55209168225157" lon="12.651785463520241"><ele>245.5</ele><time>2026-04-29T10:47:16.001Z</time></trkpt><trkpt lat="43.55196844372403" lon="12.651721507543495"><ele>245.75</ele><time>2026-04-29T10:47:17.001Z</time></trkpt><trkpt lat="43.55184416175879" lon="12.651655508320903"><ele>246.0</ele><time>2026-04-29T10:47:18.001Z</time></trkpt><trkpt lat="43.55171735150829" lon="12.65158696102897"><ele>246.0</ele><time>2026-04-29T10:47:19.001Z</time></trkpt><trkpt lat="43.55159034136321" lon="12.65151605586434"><ele>246.0</ele><time>2026-04-29T10:47:20.001Z</time></trkpt><trkpt lat="43.55146011166483" lon="12.651444783295807"><ele>246.0</ele><time>2026-04-29T10:47:21.001Z</time></trkpt><trkpt lat="43.551325648653204" lon="12.651376970812192"><ele>246.0</ele><time>2026-04-29T10:47:22.002Z</time></trkpt><trkpt lat="43.55118840418548" lon="12.651307526256145"><ele>245.0</ele><time>2026-04-29T10:47:23.002Z</time></trkpt><trkpt lat="43.55105041928896" lon="12.651237914091181"><ele>244.0</ele><time>2026-04-29T10:47:24.002Z</time></trkpt><trkpt lat="43.55091517602115" lon="12.651164504880253"><ele>243.0</ele><time>2026-04-29T10:47:25.002Z</time></trkpt><trkpt lat="43.55078084994985" lon="12.651090259659295"><ele>242.0</ele><time>2026-04-29T10:47:26.002Z</time></trkpt><trkpt lat="43.55064400074225" lon="12.65101797824456"><ele>242.0</ele><time>2026-04-29T10:47:27.002Z</time></trkpt><trkpt lat="43.550506132517654" lon="12.650948274577171"><ele>242.0</ele><time>2026-04-29T10:47:28.002Z</time></trkpt><trkpt lat="43.55037640542173" lon="12.650879398633215"><ele>242.0</ele><time>2026-04-29T10:47:29.002Z</time></trkpt><trkpt lat="43.55025761794692" lon="12.65081679102188"><ele>242.0</ele><time>2026-04-29T10:47:30.002Z</time></trkpt><trkpt lat="43.55014734462285" lon="12.650762085944386"><ele>242.39999999999998</ele><time>2026-04-29T10:47:31.002Z</time></trkpt><trkpt lat="43.55004918907648" lon="12.650709677569768"><ele>242.79999999999998</ele><time>2026-04-29T10:47:32.002Z</time></trkpt><trkpt lat="43.54997330469276" lon="12.650667904096"><ele>243.2</ele><time>2026-04-29T10:47:33.002Z</time></trkpt><trkpt lat="43.54987401008805" lon="12.6505985619803"><ele>243.6</ele><time>2026-04-29T10:47:35.002Z</time></trkpt><trkpt lat="43.549814403488" lon="12.650525080300794"><ele>244.0</ele><time>2026-04-29T10:47:37.002Z</time></trkpt><trkpt lat="43.549725064343626" lon="12.650444634818253"><ele>244.0</ele><time>2026-04-29T10:47:39.002Z</time></trkpt><trkpt lat="43.54965349799676" lon="12.650456422990729"><ele>243.99999999999997</ele><time>2026-04-29T10:47:40.002Z</time></trkpt><trkpt lat="43.54957847706343" lon="12.650504610333295"><ele>243.99999999999997</ele><time>2026-04-29T10:47:41.002Z</time></trkpt><trkpt lat="43.549492594289475" lon="12.650557417364213"><ele>244.0</ele><time>2026-04-29T10:47:42.002Z</time></trkpt><trkpt lat="43.54939703222997" lon="12.650605184886539"><ele>244.0</ele><time>2026-04-29T10:47:43.002Z</time></trkpt><trkpt lat="43.5492898473471" lon="12.65064992065716"><ele>245.16666666666666</ele><time>2026-04-29T10:47:44.002Z</time></trkpt><trkpt lat="43.54918869510379" lon="12.650680613151756"><ele>246.33333333333331</ele><time>2026-04-29T10:47:45.002Z</time></trkpt><trkpt lat="43.549120195015746" lon="12.650691664906995"><ele>247.5</ele><time>2026-04-29T10:47:46.002Z</time></trkpt><trkpt lat="43.54904416338499" lon="12.650696773492466"><ele>248.66666666666669</ele><time>2026-04-29T10:47:48.002Z</time></trkpt><trkpt lat="43.54897720291065" lon="12.65072829712014"><ele>249.83333333333334</ele><time>2026-04-29T10:47:51Z</time></trkpt><trkpt lat="43.54890508923018" lon="12.650747274708337"><ele>251.0</ele><time>2026-04-29T10:47:59Z</time></trkpt><trkpt lat="43.54879980822685" lon="12.650762971662619"><ele>251.00000000000003</ele><time>2026-04-29T10:48:01Z</time></trkpt><trkpt lat="43.54872025779133" lon="12.650802565855013"><ele>251.0</ele><time>2026-04-29T10:48:02Z</time></trkpt><trkpt lat="43.548628028982" lon="12.650842094284846"><ele>251.0</ele><time>2026-04-29T10:48:03Z</time></trkpt><trkpt lat="43.548539173041" lon="12.650862446051839"><ele>251.0</ele><time>2026-04-29T10:48:04Z</time></trkpt><trkpt lat="43.54845793859736" lon="12.650879236602737"><ele>251.00000000000003</ele><time>2026-04-29T10:48:05Z</time></trkpt><trkpt lat="43.54837938484554" lon="12.650902192901023"><ele>251.0</ele><time>2026-04-29T10:48:06Z</time></trkpt><trkpt lat="43.548311676579125" lon="12.65091269115141"><ele>253.75</ele><time>2026-04-29T10:48:07Z</time></trkpt><trkpt lat="43.54817426573616" lon="12.650957592400498"><ele>256.5</ele><time>2026-04-29T10:48:09Z</time></trkpt><trkpt lat="43.54807792606265" lon="12.650990609955164"><ele>259.25</ele><time>2026-04-29T10:48:10Z</time></trkpt><trkpt lat="43.547971991529764" lon="12.651028788569606"><ele>262.0</ele><time>2026-04-29T10:48:11Z</time></trkpt><trkpt lat="43.547859534839155" lon="12.651065346912533"><ele>263.0</ele><time>2026-04-29T10:48:12Z</time></trkpt><trkpt lat="43.54773808111336" lon="12.651095030937629"><ele>264.0</ele><time>2026-04-29T10:48:13Z</time></trkpt><trkpt lat="43.54760654773136" lon="12.651117062748297"><ele>265.0</ele><time>2026-04-29T10:48:14Z</time></trkpt><trkpt lat="43.54746742461855" lon="12.651105395278439"><ele>266.0</ele><time>2026-04-29T10:48:15Z</time></trkpt><trkpt lat="43.54732670091136" lon="12.651072876211366"><ele>266.0</ele><time>2026-04-29T10:48:16Z</time></trkpt><trkpt lat="43.547184085930425" lon="12.651025601826483"><ele>266.0</ele><time>2026-04-29T10:48:17Z</time></trkpt><trkpt lat="43.54704105456297" lon="12.650953224505187"><ele>266.0</ele><time>2026-04-29T10:48:18Z</time></trkpt><trkpt lat="43.54690996162365" lon="12.650877820715513"><ele>266.0</ele><time>2026-04-29T10:48:19Z</time></trkpt><trkpt lat="43.546784249699876" lon="12.650806295350053"><ele>265.0</ele><time>2026-04-29T10:48:20Z</time></trkpt><trkpt lat="43.54666813926066" lon="12.650744153598822"><ele>264.0</ele><time>2026-04-29T10:48:21Z</time></trkpt><trkpt lat="43.54656467000308" lon="12.650686607239923"><ele>263.0</ele><time>2026-04-29T10:48:22Z</time></trkpt><trkpt lat="43.54647538739825" lon="12.65063620502828"><ele>262.0</ele><time>2026-04-29T10:48:23Z</time></trkpt><trkpt lat="43.546398081989935" lon="12.650590976016648"><ele>261.0</ele><time>2026-04-29T10:48:24Z</time></trkpt><trkpt lat="43.546329183153645" lon="12.650552366381042"><ele>261.0</ele><time>2026-04-29T10:48:25Z</time></trkpt><trkpt lat="43.54622381378601" lon="12.650494935443419"><ele>261.0</ele><time>2026-04-29T10:48:27Z</time></trkpt><trkpt lat="43.546144554875625" lon="12.650454526894007"><ele>261.0</ele><time>2026-04-29T10:48:29Z</time></trkpt><trkpt lat="43.546080777875446" lon="12.65040928683932"><ele>261.0</ele><time>2026-04-29T10:48:32Z</time></trkpt><trkpt lat="43.546009138797785" lon="12.65033281503192"><ele>261.0</ele><time>2026-04-29T10:49:03.001Z</time></trkpt><trkpt lat="43.54594808889409" lon="12.650300505072742"><ele>261.0</ele><time>2026-04-29T10:49:04.001Z</time></trkpt><trkpt lat="43.54586733234931" lon="12.650260280672795"><ele>260.2</ele><time>2026-04-29T10:49:05.001Z</time></trkpt><trkpt lat="43.545780811520935" lon="12.650215040376942"><ele>259.40000000000003</ele><time>2026-04-29T10:49:06.001Z</time></trkpt><trkpt lat="43.545681879001414" lon="12.650161971638992"><ele>258.6</ele><time>2026-04-29T10:49:07.001Z</time></trkpt><trkpt lat="43.545575496138724" lon="12.650105346309074"><ele>257.8</ele><time>2026-04-29T10:49:08.001Z</time></trkpt><trkpt lat="43.545460556739286" lon="12.650044602258319"><ele>257.0</ele><time>2026-04-29T10:49:09.001Z</time></trkpt><trkpt lat="43.545339141113736" lon="12.649974596095603"><ele>257.0</ele><time>2026-04-29T10:49:10.001Z</time></trkpt><trkpt lat="43.54521470682838" lon="12.649905339654378"><ele>257.0</ele><time>2026-04-29T10:49:11.001Z</time></trkpt><trkpt lat="43.54509003447988" lon="12.649832258849987"><ele>257.0</ele><time>2026-04-29T10:49:12.001Z</time></trkpt><trkpt lat="43.5449739954097" lon="12.649741155144907"><ele>257.0</ele><time>2026-04-29T10:49:13.001Z</time></trkpt><trkpt lat="43.54487679796266" lon="12.649628295522257"><ele>257.0</ele><time>2026-04-29T10:49:14.001Z</time></trkpt><trkpt lat="43.544784665631944" lon="12.649509294530736"><ele>257.0</ele><time>2026-04-29T10:49:15.001Z</time></trkpt><trkpt lat="43.54468004970981" lon="12.649417096447989"><ele>257.0</ele><time>2026-04-29T10:49:16.001Z</time></trkpt><trkpt lat="43.54455781856986" lon="12.64935856996176"><ele>257.0</ele><time>2026-04-29T10:49:17.001Z</time></trkpt><trkpt lat="43.54442660074702" lon="12.649329373775899"><ele>260.0</ele><time>2026-04-29T10:49:18.001Z</time></trkpt><trkpt lat="43.544291081882356" lon="12.649311687437391"><ele>263.0</ele><time>2026-04-29T10:49:19.001Z</time></trkpt><trkpt lat="43.54415610311477" lon="12.649291396784593"><ele>266.0</ele><time>2026-04-29T10:49:20.001Z</time></trkpt><trkpt lat="43.544022732145955" lon="12.64926267128616"><ele>269.0</ele><time>2026-04-29T10:49:21.001Z</time></trkpt><trkpt lat="43.54389812316809" lon="12.649224702909176"><ele>269.0</ele><time>2026-04-29T10:49:22.001Z</time></trkpt><trkpt lat="43.54377508369356" lon="12.649184091002924"><ele>269.0</ele><time>2026-04-29T10:49:23.001Z</time></trkpt><trkpt lat="43.543656859079704" lon="12.649140625719177"><ele>269.0</ele><time>2026-04-29T10:49:24.001Z</time></trkpt><trkpt lat="43.54354399461874" lon="12.6490909708671"><ele>269.0</ele><time>2026-04-29T10:49:25.001Z</time></trkpt><trkpt lat="43.54344004909515" lon="12.64904674891898"><ele>269.0</ele><time>2026-04-29T10:49:26.001Z</time></trkpt><trkpt lat="43.54334982914823" lon="12.648980983176354"><ele>269.0</ele><time>2026-04-29T10:49:27.001Z</time></trkpt><trkpt lat="43.54329902209192" lon="12.648886293635865"><ele>269.0</ele><time>2026-04-29T10:49:28.001Z</time></trkpt><trkpt lat="43.54328269096675" lon="12.648760201101027"><ele>269.0</ele><time>2026-04-29T10:49:29.001Z</time></trkpt><trkpt lat="43.543315643221234" lon="12.64862312249686"><ele>269.0</ele><time>2026-04-29T10:49:30.001Z</time></trkpt><trkpt lat="43.5433602390825" lon="12.648493739278067"><ele>270.0</ele><time>2026-04-29T10:49:31.001Z</time></trkpt><trkpt lat="43.543407377503314" lon="12.648353779093204"><ele>271.0</ele><time>2026-04-29T10:49:32.001Z</time></trkpt><trkpt lat="43.543456819253116" lon="12.64819728320185"><ele>272.0</ele><time>2026-04-29T10:49:33.001Z</time></trkpt><trkpt lat="43.54350597969855" lon="12.64803822704411"><ele>273.0</ele><time>2026-04-29T10:49:34.001Z</time></trkpt><trkpt lat="43.54355823600868" lon="12.647872770454876"><ele>274.25</ele><time>2026-04-29T10:49:35.001Z</time></trkpt><trkpt lat="43.54361330246749" lon="12.647694916455064"><ele>275.5</ele><time>2026-04-29T10:49:36.001Z</time></trkpt><trkpt lat="43.54366704910221" lon="12.647509345801357"><ele>276.75</ele><time>2026-04-29T10:49:37.001Z</time></trkpt><trkpt lat="43.54372264990214" lon="12.647351920837448"><ele>278.0</ele><time>2026-04-29T10:49:38.001Z</time></trkpt><trkpt lat="43.54379725600738" lon="12.647234969545543"><ele>278.75</ele><time>2026-04-29T10:49:39.001Z</time></trkpt><trkpt lat="43.54390639945886" lon="12.64717066927572"><ele>279.5</ele><time>2026-04-29T10:49:40.001Z</time></trkpt><trkpt lat="43.54403175434682" lon="12.647129218442046"><ele>280.25</ele><time>2026-04-29T10:49:41.001Z</time></trkpt><trkpt lat="43.5441640633468" lon="12.647073118174315"><ele>281.0</ele><time>2026-04-29T10:49:42.001Z</time></trkpt><trkpt lat="43.54430482784292" lon="12.64701405441019"><ele>281.0</ele><time>2026-04-29T10:49:43.001Z</time></trkpt><trkpt lat="43.54444684988216" lon="12.646962470203164"><ele>281.0</ele><time>2026-04-29T10:49:44.001Z</time></trkpt><trkpt lat="43.544580518905335" lon="12.646911842130036"><ele>281.0</ele><time>2026-04-29T10:49:45.001Z</time></trkpt><trkpt lat="43.544723002065105" lon="12.646850334157554"><ele>281.0</ele><time>2026-04-29T10:49:46.001Z</time></trkpt><trkpt lat="43.54486861692409" lon="12.646779400082936"><ele>284.0</ele><time>2026-04-29T10:49:47.002Z</time></trkpt><trkpt lat="43.54501351861845" lon="12.646696809478978"><ele>287.0</ele><time>2026-04-29T10:49:48.002Z</time></trkpt><trkpt lat="43.54516127918403" lon="12.646637219398034"><ele>290.0</ele><time>2026-04-29T10:49:49.002Z</time></trkpt><trkpt lat="43.54530672341008" lon="12.646574149444556"><ele>288.0</ele><time>2026-04-29T10:49:50.002Z</time></trkpt><trkpt lat="43.54544904257677" lon="12.646513704378929"><ele>286.0</ele><time>2026-04-29T10:49:51.002Z</time></trkpt><trkpt lat="43.54558380486692" lon="12.646438675100876"><ele>284.0</ele><time>2026-04-29T10:49:52.002Z</time></trkpt><trkpt lat="43.54571299194816" lon="12.646389355549783"><ele>282.0</ele><time>2026-04-29T10:49:53.002Z</time></trkpt><trkpt lat="43.54582629771834" lon="12.646344334037066"><ele>282.0</ele><time>2026-04-29T10:49:54.002Z</time></trkpt><trkpt lat="43.54592044320914" lon="12.646302254860744"><ele>282.0</ele><time>2026-04-29T10:49:55.002Z</time></trkpt><trkpt lat="43.54600461115524" lon="12.646260438105248"><ele>282.0</ele><time>2026-04-29T10:49:56Z</time></trkpt><trkpt lat="43.546055770571634" lon="12.646139346106061"><ele>282.0</ele><time>2026-04-29T10:49:57Z</time></trkpt><trkpt lat="43.546044941428846" lon="12.645983797005991"><ele>282.0</ele><time>2026-04-29T10:49:58Z</time></trkpt><trkpt lat="43.546046926198144" lon="12.645830270123016"><ele>281.5</ele><time>2026-04-29T10:49:59Z</time></trkpt><trkpt lat="43.546033950540405" lon="12.645665028415745"><ele>281.0</ele><time>2026-04-29T10:50:00Z</time></trkpt><trkpt lat="43.54600837989398" lon="12.645493521905523"><ele>280.5</ele><time>2026-04-29T10:50:01Z</time></trkpt><trkpt lat="43.54597263973767" lon="12.645312953633605"><ele>280.0</ele><time>2026-04-29T10:50:02Z</time></trkpt><trkpt lat="43.545914863330616" lon="12.645136527240725"><ele>280.0</ele><time>2026-04-29T10:50:03Z</time></trkpt><trkpt lat="43.545856599754956" lon="12.644955966283481"><ele>280.0</ele><time>2026-04-29T10:50:04Z</time></trkpt><trkpt lat="43.545788528676994" lon="12.644781797190799"><ele>280.0</ele><time>2026-04-29T10:50:05Z</time></trkpt><trkpt lat="43.545710294723925" lon="12.644616018736803"><ele>280.0</ele><time>2026-04-29T10:50:06Z</time></trkpt><trkpt lat="43.545626330873354" lon="12.64445280502796"><ele>277.3333333333333</ele><time>2026-04-29T10:50:07Z</time></trkpt><trkpt lat="43.54552595110119" lon="12.644294648461841"><ele>274.6666666666667</ele><time>2026-04-29T10:50:08Z</time></trkpt><trkpt lat="43.545428191637505" lon="12.64413690110556"><ele>272.0</ele><time>2026-04-29T10:50:09Z</time></trkpt><trkpt lat="43.545328879164394" lon="12.643972677866682"><ele>274.33333333333337</ele><time>2026-04-29T10:50:10Z</time></trkpt><trkpt lat="43.545228828533965" lon="12.643809808003743"><ele>276.6666666666667</ele><time>2026-04-29T10:50:11Z</time></trkpt><trkpt lat="43.54512761765383" lon="12.643639993142251"><ele>279.0</ele><time>2026-04-29T10:50:12Z</time></trkpt><trkpt lat="43.54502439260044" lon="12.64346798040164"><ele>279.0</ele><time>2026-04-29T10:50:13Z</time></trkpt><trkpt lat="43.54491837156672" lon="12.643294584099383"><ele>279.0</ele><time>2026-04-29T10:50:14Z</time></trkpt><trkpt lat="43.544811144202335" lon="12.643118479459094"><ele>279.0</ele><time>2026-04-29T10:50:15Z</time></trkpt><trkpt lat="43.544702728473794" lon="12.642943356286278"><ele>277.3333333333333</ele><time>2026-04-29T10:50:16Z</time></trkpt><trkpt lat="43.544594193199956" lon="12.642764233582511"><ele>275.66666666666663</ele><time>2026-04-29T10:50:17Z</time></trkpt><trkpt lat="43.54448301159594" lon="12.642583715395052"><ele>274.0</ele><time>2026-04-29T10:50:18Z</time></trkpt><trkpt lat="43.544369259397705" lon="12.642399749291105"><ele>276.66666666666663</ele><time>2026-04-29T10:50:19Z</time></trkpt><trkpt lat="43.54425470309431" lon="12.642212297104509"><ele>279.3333333333333</ele><time>2026-04-29T10:50:20Z</time></trkpt><trkpt lat="43.54413774129806" lon="12.642025033941051"><ele>282.0</ele><time>2026-04-29T10:50:21Z</time></trkpt><trkpt lat="43.544015129017744" lon="12.641842929002395"><ele>282.0</ele><time>2026-04-29T10:50:22Z</time></trkpt><trkpt lat="43.54389372942231" lon="12.641653993740055"><ele>282.0</ele><time>2026-04-29T10:50:23Z</time></trkpt><trkpt lat="43.54377127333026" lon="12.64146145292098"><ele>282.0</ele><time>2026-04-29T10:50:24Z</time></trkpt><trkpt lat="43.54364676762097" lon="12.641269246120714"><ele>283.0</ele><time>2026-04-29T10:50:25Z</time></trkpt><trkpt lat="43.54352079129592" lon="12.641077758601858"><ele>284.0</ele><time>2026-04-29T10:50:26Z</time></trkpt><trkpt lat="43.543388220097114" lon="12.64089066633568"><ele>285.0</ele><time>2026-04-29T10:50:27Z</time></trkpt><trkpt lat="43.54324490612196" lon="12.640712844458776"><ele>285.0</ele><time>2026-04-29T10:50:28Z</time></trkpt><trkpt lat="43.54309132060707" lon="12.640539631181904"><ele>285.0</ele><time>2026-04-29T10:50:29Z</time></trkpt><trkpt lat="43.54292941690621" lon="12.640379079494233"><ele>285.0</ele><time>2026-04-29T10:50:30Z</time></trkpt><trkpt lat="43.542752839687" lon="12.64023110186046"><ele>282.6666666666667</ele><time>2026-04-29T10:50:31Z</time></trkpt><trkpt lat="43.54257210933762" lon="12.640094571841981"><ele>280.33333333333337</ele><time>2026-04-29T10:50:32Z</time></trkpt><trkpt lat="43.54237934530632" lon="12.639961058185945"><ele>278.0</ele><time>2026-04-29T10:50:33Z</time></trkpt><trkpt lat="43.54218473733652" lon="12.639824343752178"><ele>278.0</ele><time>2026-04-29T10:50:34Z</time></trkpt><trkpt lat="43.54199535285253" lon="12.639692312034384"><ele>278.0</ele><time>2026-04-29T10:50:35Z</time></trkpt><trkpt lat="43.54180452389162" lon="12.639564894945574"><ele>278.0</ele><time>2026-04-29T10:50:36Z</time></trkpt><trkpt lat="43.54161038603924" lon="12.639433286313395"><ele>278.0</ele><time>2026-04-29T10:50:37Z</time></trkpt><trkpt lat="43.54141831071341" lon="12.639304303527119"><ele>278.0</ele><time>2026-04-29T10:50:38Z</time></trkpt><trkpt lat="43.541224671667834" lon="12.639173728140303"><ele>278.0</ele><time>2026-04-29T10:50:39Z</time></trkpt><trkpt lat="43.5410316139232" lon="12.639046892472694"><ele>281.0</ele><time>2026-04-29T10:50:40Z</time></trkpt><trkpt lat="43.54083879478109" lon="12.638922771301297"><ele>284.0</ele><time>2026-04-29T10:50:41Z</time></trkpt><trkpt lat="43.540649499106586" lon="12.638794197796477"><ele>287.0</ele><time>2026-04-29T10:50:42Z</time></trkpt><trkpt lat="43.5404650455501" lon="12.638670316942203"><ele>285.6666666666667</ele><time>2026-04-29T10:50:43Z</time></trkpt><trkpt lat="43.54028352419627" lon="12.63855083628968"><ele>284.3333333333333</ele><time>2026-04-29T10:50:44Z</time></trkpt><trkpt lat="43.5400986576845" lon="12.6384366564347"><ele>283.0</ele><time>2026-04-29T10:50:45Z</time></trkpt><trkpt lat="43.539919190879715" lon="12.638340180717616"><ele>283.0</ele><time>2026-04-29T10:50:46Z</time></trkpt><trkpt lat="43.539707959832946" lon="12.638226713795977"><ele>283.0</ele><time>2026-04-29T10:50:47Z</time></trkpt><trkpt lat="43.539510062520826" lon="12.63818907687388"><ele>283.0</ele><time>2026-04-29T10:50:48Z</time></trkpt><trkpt lat="43.539311258594296" lon="12.638188287962445"><ele>288.0</ele><time>2026-04-29T10:50:49Z</time></trkpt><trkpt lat="43.53912719407765" lon="12.638137986342905"><ele>293.0</ele><time>2026-04-29T10:50:50Z</time></trkpt><trkpt lat="43.53897316454267" lon="12.638036610876679"><ele>298.0</ele><time>2026-04-29T10:50:51.001Z</time></trkpt><trkpt lat="43.5388428143951" lon="12.637895578756178"><ele>290.66666666666663</ele><time>2026-04-29T10:50:52.001Z</time></trkpt><trkpt lat="43.53873292082164" lon="12.637720862287027"><ele>283.3333333333333</ele><time>2026-04-29T10:50:53.001Z</time></trkpt><trkpt lat="43.53865975252584" lon="12.637505400393783"><ele>276.0</ele><time>2026-04-29T10:50:54.001Z</time></trkpt><trkpt lat="43.53861747259077" lon="12.637258428818047"><ele>277.6666666666667</ele><time>2026-04-29T10:50:55.001Z</time></trkpt><trkpt lat="43.53861628176908" lon="12.637012339194436"><ele>279.33333333333337</ele><time>2026-04-29T10:50:56.001Z</time></trkpt><trkpt lat="43.538651633094695" lon="12.636771479920489"><ele>281.0</ele><time>2026-04-29T10:50:57.001Z</time></trkpt><trkpt lat="43.53873047770657" lon="12.636580560249632"><ele>281.0</ele><time>2026-04-29T10:50:58.001Z</time></trkpt><trkpt lat="43.538839332632556" lon="12.636371808942295"><ele>281.0</ele><time>2026-04-29T10:50:59.001Z</time></trkpt><trkpt lat="43.53895911629002" lon="12.636158492616515"><ele>281.0</ele><time>2026-04-29T10:51:00.001Z</time></trkpt><trkpt lat="43.53907738449022" lon="12.635944514261272"><ele>286.6666666666667</ele><time>2026-04-29T10:51:01.001Z</time></trkpt><trkpt lat="43.539185798547834" lon="12.63570908757254"><ele>292.3333333333333</ele><time>2026-04-29T10:51:02.001Z</time></trkpt><trkpt lat="43.539297939570645" lon="12.635471965036023"><ele>298.0</ele><time>2026-04-29T10:51:03.001Z</time></trkpt><trkpt lat="43.53940130140688" lon="12.635213094817836"><ele>298.3333333333333</ele><time>2026-04-29T10:51:04.001Z</time></trkpt><trkpt lat="43.53949298766649" lon="12.634942816421844"><ele>298.6666666666667</ele><time>2026-04-29T10:51:05.001Z</time></trkpt><trkpt lat="43.53958599722765" lon="12.634671162759886"><ele>299.0</ele><time>2026-04-29T10:51:06.001Z</time></trkpt><trkpt lat="43.539688225187525" lon="12.634403052694314"><ele>299.0</ele><time>2026-04-29T10:51:07.001Z</time></trkpt><trkpt lat="43.53981850169984" lon="12.63415657178323"><ele>299.0</ele><time>2026-04-29T10:51:08.001Z</time></trkpt><trkpt lat="43.539952332942775" lon="12.633919762674731"><ele>299.0</ele><time>2026-04-29T10:51:09.001Z</time></trkpt><trkpt lat="43.540063164801914" lon="12.633684808938323"><ele>304.6666666666667</ele><time>2026-04-29T10:51:10.001Z</time></trkpt><trkpt lat="43.540180626799625" lon="12.633446385571826"><ele>310.3333333333333</ele><time>2026-04-29T10:51:11.001Z</time></trkpt><trkpt lat="43.54027195916159" lon="12.633182446426028"><ele>316.0</ele><time>2026-04-29T10:51:12.001Z</time></trkpt><trkpt lat="43.54033602979331" lon="12.632893719378615"><ele>306.66666666666663</ele><time>2026-04-29T10:51:13.001Z</time></trkpt><trkpt lat="43.540401844015676" lon="12.632597273761915"><ele>297.3333333333333</ele><time>2026-04-29T10:51:14.001Z</time></trkpt><trkpt lat="43.54048737166966" lon="12.632329430068609"><ele>288.0</ele><time>2026-04-29T10:51:15.001Z</time></trkpt><trkpt lat="43.54056065376889" lon="12.632087523366787"><ele>292.6666666666667</ele><time>2026-04-29T10:51:16.001Z</time></trkpt><trkpt lat="43.54066853954476" lon="12.631887333774444"><ele>297.33333333333337</ele><time>2026-04-29T10:51:17.001Z</time></trkpt><trkpt lat="43.5407981740021" lon="12.63168543256264"><ele>302.0</ele><time>2026-04-29T10:51:18.001Z</time></trkpt><trkpt lat="43.54092972420983" lon="12.631472972754894"><ele>302.0</ele><time>2026-04-29T10:51:19.001Z</time></trkpt><trkpt lat="43.541072906816304" lon="12.63127117691107"><ele>302.0</ele><time>2026-04-29T10:51:20.001Z</time></trkpt><trkpt lat="43.54121025629891" lon="12.631059558976357"><ele>302.0</ele><time>2026-04-29T10:51:21.001Z</time></trkpt><trkpt lat="43.54133195736213" lon="12.630829706969928"><ele>304.6666666666667</ele><time>2026-04-29T10:51:22.001Z</time></trkpt><trkpt lat="43.54145194889374" lon="12.630586097928774"><ele>307.3333333333333</ele><time>2026-04-29T10:51:23.001Z</time></trkpt><trkpt lat="43.54156166398966" lon="12.630330856798064"><ele>310.0</ele><time>2026-04-29T10:51:24.001Z</time></trkpt><trkpt lat="43.54166442222353" lon="12.6300656493679"><ele>310.0</ele><time>2026-04-29T10:51:25.001Z</time></trkpt><trkpt lat="43.54177067413424" lon="12.629793320667927"><ele>310.0</ele><time>2026-04-29T10:51:26.001Z</time></trkpt><trkpt lat="43.54188199680081" lon="12.629517043707922"><ele>320.5</ele><time>2026-04-29T10:51:27.001Z</time></trkpt><trkpt lat="43.541994205824984" lon="12.629232866134217"><ele>331.0</ele><time>2026-04-29T10:51:28.001Z</time></trkpt><trkpt lat="43.54209809106835" lon="12.628958809062448"><ele>323.3333333333333</ele><time>2026-04-29T10:51:29.001Z</time></trkpt><trkpt lat="43.542214952858515" lon="12.628719415291872"><ele>315.6666666666667</ele><time>2026-04-29T10:51:30.001Z</time></trkpt><trkpt lat="43.54233005902797" lon="12.628508340468771"><ele>308.0</ele><time>2026-04-29T10:51:31.001Z</time></trkpt><trkpt lat="43.54247004741034" lon="12.628335636528604"><ele>308.0</ele><time>2026-04-29T10:51:32.001Z</time></trkpt><trkpt lat="43.54264347181593" lon="12.628195970282823"><ele>308.0</ele><time>2026-04-29T10:51:33.001Z</time></trkpt><trkpt lat="43.54283491569639" lon="12.628074860618346"><ele>308.0</ele><time>2026-04-29T10:51:34.001Z</time></trkpt><trkpt lat="43.54302557330765" lon="12.627936243141805"><ele>312.0</ele><time>2026-04-29T10:51:35.001Z</time></trkpt><trkpt lat="43.54322649816227" lon="12.627852456022573"><ele>316.0</ele><time>2026-04-29T10:51:36.001Z</time></trkpt><trkpt lat="43.54341443612233" lon="12.62778814978006"><ele>320.0</ele><time>2026-04-29T10:51:37.001Z</time></trkpt><trkpt lat="43.543597235319915" lon="12.627792544970236"><ele>307.6666666666667</ele><time>2026-04-29T10:51:38.001Z</time></trkpt><trkpt lat="43.54379296976651" lon="12.627832702076493"><ele>295.3333333333333</ele><time>2026-04-29T10:51:39.001Z</time></trkpt><trkpt lat="43.5439795158473" lon="12.627857658061119"><ele>283.0</ele><time>2026-04-29T10:51:40.001Z</time></trkpt><trkpt lat="43.54413957024411" lon="12.62788136320144"><ele>283.0</ele><time>2026-04-29T10:51:41.001Z</time></trkpt><trkpt lat="43.54429701284876" lon="12.627842630405349"><ele>283.0</ele><time>2026-04-29T10:51:42.001Z</time></trkpt><trkpt lat="43.54444153775729" lon="12.627704652713062"><ele>283.0</ele><time>2026-04-29T10:51:43.001Z</time></trkpt><trkpt lat="43.54457844142604" lon="12.627524313589511"><ele>285.66666666666663</ele><time>2026-04-29T10:51:44.001Z</time></trkpt><trkpt lat="43.544720094670005" lon="12.627327132949437"><ele>288.3333333333333</ele><time>2026-04-29T10:51:45.001Z</time></trkpt><trkpt lat="43.54486617386888" lon="12.62712317397163"><ele>291.0</ele><time>2026-04-29T10:51:46.001Z</time></trkpt><trkpt lat="43.545024694811616" lon="12.626941020526782"><ele>290.6666666666667</ele><time>2026-04-29T10:51:47.001Z</time></trkpt><trkpt lat="43.545200100400834" lon="12.626774382138917"><ele>290.33333333333337</ele><time>2026-04-29T10:51:48.001Z</time></trkpt><trkpt lat="43.54538895112523" lon="12.626621258685823"><ele>290.0</ele><time>2026-04-29T10:51:49.001Z</time></trkpt><trkpt lat="43.54557793462546" lon="12.626451564616929"><ele>290.0</ele><time>2026-04-29T10:51:50.001Z</time></trkpt><trkpt lat="43.54577698804785" lon="12.62629676298098"><ele>290.0</ele><time>2026-04-29T10:51:51.001Z</time></trkpt><trkpt lat="43.545985384257406" lon="12.626160898851115"><ele>292.5</ele><time>2026-04-29T10:51:52.001Z</time></trkpt><trkpt lat="43.54619798794157" lon="12.626016117494231"><ele>295.0</ele><time>2026-04-29T10:51:53.001Z</time></trkpt><trkpt lat="43.546415607184024" lon="12.62588168856534"><ele>295.0</ele><time>2026-04-29T10:51:54.001Z</time></trkpt><trkpt lat="43.54664469831487" lon="12.625768467856618"><ele>295.0</ele><time>2026-04-29T10:51:55.001Z</time></trkpt><trkpt lat="43.54687848386537" lon="12.6256789037345"><ele>291.5</ele><time>2026-04-29T10:51:56.001Z</time></trkpt><trkpt lat="43.54711869915441" lon="12.625587394292873"><ele>288.0</ele><time>2026-04-29T10:51:57.001Z</time></trkpt><trkpt lat="43.54736408250051" lon="12.625531320265301"><ele>288.0</ele><time>2026-04-29T10:51:58.001Z</time></trkpt><trkpt lat="43.547609311328046" lon="12.625479721403035"><ele>288.0</ele><time>2026-04-29T10:51:59.001Z</time></trkpt><trkpt lat="43.547854596816336" lon="12.62542049890277"><ele>287.5</ele><time>2026-04-29T10:52:00.001Z</time></trkpt><trkpt lat="43.548088470578236" lon="12.625362661742573"><ele>287.0</ele><time>2026-04-29T10:52:01.002Z</time></trkpt><trkpt lat="43.54830089858766" lon="12.6253121137717"><ele>291.0</ele><time>2026-04-29T10:52:02Z</time></trkpt><trkpt lat="43.54849360104579" lon="12.625269528181168"><ele>295.0</ele><time>2026-04-29T10:52:03Z</time></trkpt><trkpt lat="43.54866776706119" lon="12.625232503919436"><ele>299.0</ele><time>2026-04-29T10:52:04Z</time></trkpt><trkpt lat="43.54882145337082" lon="12.625193834393237"><ele>299.0</ele><time>2026-04-29T10:52:05Z</time></trkpt><trkpt lat="43.548958279180916" lon="12.625152321404045"><ele>299.0</ele><time>2026-04-29T10:52:06Z</time></trkpt><trkpt lat="43.54908502839981" lon="12.625097730657046"><ele>299.0</ele><time>2026-04-29T10:52:07Z</time></trkpt><trkpt lat="43.549211665528716" lon="12.625032519568085"><ele>299.0</ele><time>2026-04-29T10:52:08Z</time></trkpt><trkpt lat="43.549330198980925" lon="12.624950879334282"><ele>299.0</ele><time>2026-04-29T10:52:09Z</time></trkpt><trkpt lat="43.549435394539195" lon="12.624841727744185"><ele>299.0</ele><time>2026-04-29T10:52:10Z</time></trkpt><trkpt lat="43.54952141810808" lon="12.624695668111784"><ele>299.0</ele><time>2026-04-29T10:52:11Z</time></trkpt><trkpt lat="43.549591815760195" lon="12.624519828032078"><ele>299.0</ele><time>2026-04-29T10:52:12Z</time></trkpt><trkpt lat="43.5496422731039" lon="12.624327175985357"><ele>298.33333333333337</ele><time>2026-04-29T10:52:13Z</time></trkpt><trkpt lat="43.549669257912115" lon="12.624126018796586"><ele>297.6666666666667</ele><time>2026-04-29T10:52:14Z</time></trkpt><trkpt lat="43.549664623026075" lon="12.623916266426948"><ele>297.0</ele><time>2026-04-29T10:52:15Z</time></trkpt><trkpt lat="43.54963005403536" lon="12.62370898153339"><ele>297.0</ele><time>2026-04-29T10:52:16Z</time></trkpt><trkpt lat="43.549551704534636" lon="12.623510735535211"><ele>297.0</ele><time>2026-04-29T10:52:17Z</time></trkpt><trkpt lat="43.54946214571832" lon="12.6233079594354"><ele>297.0</ele><time>2026-04-29T10:52:18Z</time></trkpt><trkpt lat="43.549369439531254" lon="12.623089859558311"><ele>300.0</ele><time>2026-04-29T10:52:19Z</time></trkpt><trkpt lat="43.54927393457573" lon="12.62285999097154"><ele>303.0</ele><time>2026-04-29T10:52:20Z</time></trkpt><trkpt lat="43.54917307277081" lon="12.62261884895591"><ele>306.0</ele><time>2026-04-29T10:52:21Z</time></trkpt><trkpt lat="43.54907644759934" lon="12.62236885576908"><ele>306.0</ele><time>2026-04-29T10:52:22Z</time></trkpt><trkpt lat="43.54897360807442" lon="12.622116573999062"><ele>306.0</ele><time>2026-04-29T10:52:23Z</time></trkpt><trkpt lat="43.54885072114654" lon="12.621877237203273"><ele>306.0</ele><time>2026-04-29T10:52:24Z</time></trkpt><trkpt lat="43.54869609052251" lon="12.621673052751975"><ele>308.0</ele><time>2026-04-29T10:52:25Z</time></trkpt><trkpt lat="43.54851700822984" lon="12.621504188709253"><ele>310.0</ele><time>2026-04-29T10:52:26Z</time></trkpt><trkpt lat="43.54832374603592" lon="12.621357960959335"><ele>312.0</ele><time>2026-04-29T10:52:27Z</time></trkpt><trkpt lat="43.54813723285839" lon="12.621208316220137"><ele>306.6666666666667</ele><time>2026-04-29T10:52:28Z</time></trkpt><trkpt lat="43.54797936952377" lon="12.621049258491915"><ele>301.33333333333337</ele><time>2026-04-29T10:52:29Z</time></trkpt><trkpt lat="43.54786182482028" lon="12.620874721874701"><ele>296.0</ele><time>2026-04-29T10:52:30Z</time></trkpt><trkpt lat="43.54780710237418" lon="12.620677275344928"><ele>304.6666666666667</ele><time>2026-04-29T10:52:31Z</time></trkpt><trkpt lat="43.54779094660231" lon="12.620449245875587"><ele>313.3333333333333</ele><time>2026-04-29T10:52:32Z</time></trkpt><trkpt lat="43.54778905457796" lon="12.620182233629963"><ele>322.0</ele><time>2026-04-29T10:52:33Z</time></trkpt><trkpt lat="43.54776437029353" lon="12.61989121101385"><ele>322.0</ele><time>2026-04-29T10:52:34Z</time></trkpt><trkpt lat="43.54773581486755" lon="12.619600990769108"><ele>322.0</ele><time>2026-04-29T10:52:35Z</time></trkpt><trkpt lat="43.54775033557294" lon="12.619306082250688"><ele>322.0</ele><time>2026-04-29T10:52:36Z</time></trkpt><trkpt lat="43.54778600081795" lon="12.619002680090757"><ele>320.66666666666663</ele><time>2026-04-29T10:52:37Z</time></trkpt><trkpt lat="43.547835520081804" lon="12.618706723508861"><ele>319.3333333333333</ele><time>2026-04-29T10:52:38Z</time></trkpt><trkpt lat="43.5478981765657" lon="12.61844202560712"><ele>318.0</ele><time>2026-04-29T10:52:39Z</time></trkpt><trkpt lat="43.5479833011486" lon="12.618213301012169"><ele>312.3333333333333</ele><time>2026-04-29T10:52:40Z</time></trkpt><trkpt lat="43.5481018200722" lon="12.618037265548795"><ele>306.66666666666663</ele><time>2026-04-29T10:52:41Z</time></trkpt><trkpt lat="43.54825548290556" lon="12.617915682372328"><ele>301.0</ele><time>2026-04-29T10:52:42Z</time></trkpt><trkpt lat="43.548420330055144" lon="12.617820057220937"><ele>300.66666666666663</ele><time>2026-04-29T10:52:43Z</time></trkpt><trkpt lat="43.548588197855636" lon="12.617716204726523"><ele>300.3333333333333</ele><time>2026-04-29T10:52:44Z</time></trkpt><trkpt lat="43.548755237169416" lon="12.617601513102343"><ele>300.0</ele><time>2026-04-29T10:52:45Z</time></trkpt><trkpt lat="43.54891143604754" lon="12.617486184704847"><ele>300.0</ele><time>2026-04-29T10:52:46Z</time></trkpt><trkpt lat="43.54904277209006" lon="12.617357906793634"><ele>300.0</ele><time>2026-04-29T10:52:47Z</time></trkpt><trkpt lat="43.549149683394134" lon="12.61718890449738"><ele>300.0</ele><time>2026-04-29T10:52:48Z</time></trkpt><trkpt lat="43.54924257115844" lon="12.616977342742812"><ele>301.3333333333333</ele><time>2026-04-29T10:52:49Z</time></trkpt><trkpt lat="43.54933310362594" lon="12.616746293321178"><ele>302.66666666666663</ele><time>2026-04-29T10:52:50Z</time></trkpt><trkpt lat="43.549435835022095" lon="12.61650524116802"><ele>304.0</ele><time>2026-04-29T10:52:51Z</time></trkpt><trkpt lat="43.54954010113245" lon="12.616257221626654"><ele>303.3333333333333</ele><time>2026-04-29T10:52:52Z</time></trkpt><trkpt lat="43.549649771284535" lon="12.61601006770093"><ele>302.6666666666667</ele><time>2026-04-29T10:52:53Z</time></trkpt><trkpt lat="43.549764945533276" lon="12.615769035394482"><ele>302.0</ele><time>2026-04-29T10:52:54Z</time></trkpt><trkpt lat="43.5498714338996" lon="12.615541281457062"><ele>303.0</ele><time>2026-04-29T10:52:55Z</time></trkpt><trkpt lat="43.54994918245121" lon="12.615319223766038"><ele>304.0</ele><time>2026-04-29T10:52:56Z</time></trkpt><trkpt lat="43.54999546824031" lon="12.615084660764522"><ele>305.0</ele><time>2026-04-29T10:52:57Z</time></trkpt><trkpt lat="43.55000222337045" lon="12.614827234823181"><ele>305.0</ele><time>2026-04-29T10:52:58Z</time></trkpt><trkpt lat="43.54997727877126" lon="12.614561122940954"><ele>305.0</ele><time>2026-04-29T10:52:59Z</time></trkpt><trkpt lat="43.54992991650941" lon="12.6142959172816"><ele>305.0</ele><time>2026-04-29T10:53:00Z</time></trkpt><trkpt lat="43.54987901829714" lon="12.614026464417456"><ele>307.6666666666667</ele><time>2026-04-29T10:53:01Z</time></trkpt><trkpt lat="43.54983199833727" lon="12.613751878042008"><ele>310.3333333333333</ele><time>2026-04-29T10:53:02Z</time></trkpt><trkpt lat="43.54978887336765" lon="12.613470834335574"><ele>313.0</ele><time>2026-04-29T10:53:03.001Z</time></trkpt><trkpt lat="43.549746329615125" lon="12.613187984028949"><ele>316.0</ele><time>2026-04-29T10:53:04.001Z</time></trkpt><trkpt lat="43.54970703088484" lon="12.612905158171698"><ele>319.0</ele><time>2026-04-29T10:53:05.001Z</time></trkpt><trkpt lat="43.54966778595614" lon="12.61263824396031"><ele>322.0</ele><time>2026-04-29T10:53:06.001Z</time></trkpt><trkpt lat="43.54961832789155" lon="12.612398856963834"><ele>319.3333333333333</ele><time>2026-04-29T10:53:07.001Z</time></trkpt><trkpt lat="43.54954201663026" lon="12.61216669895902"><ele>316.6666666666667</ele><time>2026-04-29T10:53:08.001Z</time></trkpt><trkpt lat="43.54944578628771" lon="12.61192859626022"><ele>314.0</ele><time>2026-04-29T10:53:09.001Z</time></trkpt><trkpt lat="43.5493234890984" lon="12.611686131120873"><ele>314.0</ele><time>2026-04-29T10:53:10.001Z</time></trkpt><trkpt lat="43.54919192184772" lon="12.611442514827031"><ele>314.0</ele><time>2026-04-29T10:53:11.001Z</time></trkpt><trkpt lat="43.54906895389519" lon="12.611181204915328"><ele>314.0</ele><time>2026-04-29T10:53:12.001Z</time></trkpt><trkpt lat="43.54894911458035" lon="12.610912767723962"><ele>320.0</ele><time>2026-04-29T10:53:13.001Z</time></trkpt><trkpt lat="43.54883177787345" lon="12.61064048414298"><ele>326.0</ele><time>2026-04-29T10:53:14.001Z</time></trkpt><trkpt lat="43.5487113666057" lon="12.610379284520846"><ele>322.33333333333337</ele><time>2026-04-29T10:53:15.001Z</time></trkpt><trkpt lat="43.548593072334775" lon="12.610146002029335"><ele>318.6666666666667</ele><time>2026-04-29T10:53:16.001Z</time></trkpt><trkpt lat="43.54849678137258" lon="12.6099242208071"><ele>315.0</ele><time>2026-04-29T10:53:17.001Z</time></trkpt><trkpt lat="43.54841321913681" lon="12.609697943188456"><ele>317.0</ele><time>2026-04-29T10:53:18.001Z</time></trkpt><trkpt lat="43.54834849040334" lon="12.609456507405842"><ele>319.0</ele><time>2026-04-29T10:53:19.001Z</time></trkpt><trkpt lat="43.54829997176697" lon="12.60920103123822"><ele>321.0</ele><time>2026-04-29T10:53:20.001Z</time></trkpt><trkpt lat="43.54826960755596" lon="12.608938945369205"><ele>321.0</ele><time>2026-04-29T10:53:21.001Z</time></trkpt><trkpt lat="43.54825332187141" lon="12.608667469001123"><ele>321.0</ele><time>2026-04-29T10:53:22.001Z</time></trkpt><trkpt lat="43.548252098844834" lon="12.608404088847145"><ele>321.0</ele><time>2026-04-29T10:53:23.001Z</time></trkpt><trkpt lat="43.548295497351674" lon="12.60813708063345"><ele>321.3333333333333</ele><time>2026-04-29T10:53:24.001Z</time></trkpt><trkpt lat="43.54835588867143" lon="12.607876206516135"><ele>321.66666666666663</ele><time>2026-04-29T10:53:25.001Z</time></trkpt><trkpt lat="43.548430288226086" lon="12.60765421591285"><ele>322.0</ele><time>2026-04-29T10:53:26.001Z</time></trkpt><trkpt lat="43.54847808764928" lon="12.607351287915284"><ele>322.0</ele><time>2026-04-29T10:53:27.001Z</time></trkpt><trkpt lat="43.548537919890094" lon="12.607099739463159"><ele>322.0</ele><time>2026-04-29T10:53:28.001Z</time></trkpt><trkpt lat="43.548582083966345" lon="12.606882318538537"><ele>322.0</ele><time>2026-04-29T10:53:29.001Z</time></trkpt><trkpt lat="43.54860995258792" lon="12.606688589776024"><ele>321.25</ele><time>2026-04-29T10:53:30.001Z</time></trkpt><trkpt lat="43.54860154644848" lon="12.606517907829677"><ele>320.5</ele><time>2026-04-29T10:53:31.001Z</time></trkpt><trkpt lat="43.54854439201846" lon="12.606386439907105"><ele>319.75</ele><time>2026-04-29T10:53:32.001Z</time></trkpt><trkpt lat="43.54842613511697" lon="12.60630666175434"><ele>319.0</ele><time>2026-04-29T10:53:33.001Z</time></trkpt><trkpt lat="43.54830233545104" lon="12.606187911886167"><ele>322.0</ele><time>2026-04-29T10:53:34.001Z</time></trkpt><trkpt lat="43.54817289093631" lon="12.606057270796319"><ele>325.0</ele><time>2026-04-29T10:53:35.001Z</time></trkpt><trkpt lat="43.548039692041904" lon="12.605921845549396"><ele>328.0</ele><time>2026-04-29T10:53:36.001Z</time></trkpt><trkpt lat="43.54789865162969" lon="12.605782589757842"><ele>324.3333333333333</ele><time>2026-04-29T10:53:37.001Z</time></trkpt><trkpt lat="43.547749643237665" lon="12.60563415095825"><ele>320.6666666666667</ele><time>2026-04-29T10:53:38.001Z</time></trkpt><trkpt lat="43.54759319455827" lon="12.605493586709041"><ele>317.0</ele><time>2026-04-29T10:53:39.001Z</time></trkpt><trkpt lat="43.547421247259074" lon="12.605373928956286"><ele>318.0</ele><time>2026-04-29T10:53:40.001Z</time></trkpt><trkpt lat="43.54723121924412" lon="12.605282174207773"><ele>319.0</ele><time>2026-04-29T10:53:41.001Z</time></trkpt><trkpt lat="43.54703802586844" lon="12.60521387136393"><ele>320.0</ele><time>2026-04-29T10:53:42.001Z</time></trkpt><trkpt lat="43.54686110231816" lon="12.605162279928452"><ele>320.0</ele><time>2026-04-29T10:53:43.001Z</time></trkpt><trkpt lat="43.546696894586525" lon="12.605145211373756"><ele>320.0</ele><time>2026-04-29T10:53:44.001Z</time></trkpt><trkpt lat="43.546526813219145" lon="12.605157402324814"><ele>320.0</ele><time>2026-04-29T10:53:45.001Z</time></trkpt><trkpt lat="43.54635456127882" lon="12.605181341450153"><ele>320.6666666666667</ele><time>2026-04-29T10:53:46.001Z</time></trkpt><trkpt lat="43.546176916118526" lon="12.60520401017562"><ele>321.3333333333333</ele><time>2026-04-29T10:53:47.001Z</time></trkpt><trkpt lat="43.546008062520805" lon="12.605224952740386"><ele>322.0</ele><time>2026-04-29T10:53:48.001Z</time></trkpt><trkpt lat="43.54585260173695" lon="12.605234090801826"><ele>322.0</ele><time>2026-04-29T10:53:49.001Z</time></trkpt><trkpt lat="43.54570260146361" lon="12.605215224958007"><ele>322.0</ele><time>2026-04-29T10:53:50.001Z</time></trkpt><trkpt lat="43.54556421305301" lon="12.605163738706976"><ele>322.0</ele><time>2026-04-29T10:53:51.001Z</time></trkpt><trkpt lat="43.54542527139173" lon="12.605129230559136"><ele>322.0</ele><time>2026-04-29T10:53:52.001Z</time></trkpt><trkpt lat="43.54528632528353" lon="12.605068258570713"><ele>322.25</ele><time>2026-04-29T10:53:53.001Z</time></trkpt><trkpt lat="43.545153522869754" lon="12.605003827677349"><ele>322.5</ele><time>2026-04-29T10:53:54.001Z</time></trkpt><trkpt lat="43.54500537316036" lon="12.604992234633503"><ele>322.75</ele><time>2026-04-29T10:53:55.001Z</time></trkpt><trkpt lat="43.54485454965473" lon="12.604953185249764"><ele>323.0</ele><time>2026-04-29T10:53:56.001Z</time></trkpt><trkpt lat="43.544690185355165" lon="12.604903789939764"><ele>323.0</ele><time>2026-04-29T10:53:57.001Z</time></trkpt><trkpt lat="43.54453991419587" lon="12.604818395897432"><ele>323.0</ele><time>2026-04-29T10:53:58.001Z</time></trkpt><trkpt lat="43.54438878888645" lon="12.604743241296012"><ele>323.0</ele><time>2026-04-29T10:53:59.001Z</time></trkpt><trkpt lat="43.544224930509486" lon="12.60466488601278"><ele>323.0</ele><time>2026-04-29T10:54:00.001Z</time></trkpt><trkpt lat="43.54406723417598" lon="12.604588007015817"><ele>323.0</ele><time>2026-04-29T10:54:01.001Z</time></trkpt><trkpt lat="43.54390250742649" lon="12.604508830897696"><ele>323.0</ele><time>2026-04-29T10:54:02.001Z</time></trkpt><trkpt lat="43.543742102347764" lon="12.604415239337122"><ele>324.6666666666667</ele><time>2026-04-29T10:54:03.001Z</time></trkpt><trkpt lat="43.54357953930664" lon="12.604305346502853"><ele>326.3333333333333</ele><time>2026-04-29T10:54:04.001Z</time></trkpt><trkpt lat="43.543430169741306" lon="12.604195977613134"><ele>328.0</ele><time>2026-04-29T10:54:05.001Z</time></trkpt><trkpt lat="43.54329584426616" lon="12.604086250891017"><ele>328.0</ele><time>2026-04-29T10:54:06.001Z</time></trkpt><trkpt lat="43.54317099334047" lon="12.603950365780257"><ele>328.0</ele><time>2026-04-29T10:54:07.001Z</time></trkpt><trkpt lat="43.54303983320098" lon="12.603803942473371"><ele>328.0</ele><time>2026-04-29T10:54:08Z</time></trkpt><trkpt lat="43.54289877036036" lon="12.603662199507085"><ele>328.66666666666663</ele><time>2026-04-29T10:54:09Z</time></trkpt><trkpt lat="43.54275445679789" lon="12.603519123996158"><ele>329.3333333333333</ele><time>2026-04-29T10:54:10Z</time></trkpt><trkpt lat="43.54260842472934" lon="12.603371508679398"><ele>330.0</ele><time>2026-04-29T10:54:11Z</time></trkpt><trkpt lat="43.54245888484144" lon="12.603222129749575"><ele>330.0</ele><time>2026-04-29T10:54:12Z</time></trkpt><trkpt lat="43.54230746156056" lon="12.603072443818437"><ele>330.0</ele><time>2026-04-29T10:54:13Z</time></trkpt><trkpt lat="43.54215488010559" lon="12.60291516480519"><ele>330.0</ele><time>2026-04-29T10:54:14Z</time></trkpt><trkpt lat="43.542000078856454" lon="12.6027571529683"><ele>332.6666666666667</ele><time>2026-04-29T10:54:15Z</time></trkpt><trkpt lat="43.541844260120534" lon="12.602601575891466"><ele>335.33333333333337</ele><time>2026-04-29T10:54:16Z</time></trkpt><trkpt lat="43.54168482393282" lon="12.602447215734493"><ele>338.0</ele><time>2026-04-29T10:54:17Z</time></trkpt><trkpt lat="43.541527597261165" lon="12.60228505449643"><ele>338.0</ele><time>2026-04-29T10:54:18Z</time></trkpt><trkpt lat="43.541369814801385" lon="12.602121675189052"><ele>338.0</ele><time>2026-04-29T10:54:19Z</time></trkpt><trkpt lat="43.541209143307924" lon="12.601959499666565"><ele>338.0</ele><time>2026-04-29T10:54:20Z</time></trkpt><trkpt lat="43.541040228736385" lon="12.601808669268376"><ele>340.33333333333337</ele><time>2026-04-29T10:54:21Z</time></trkpt><trkpt lat="43.540863810515326" lon="12.60168100710405"><ele>342.6666666666667</ele><time>2026-04-29T10:54:22Z</time></trkpt><trkpt lat="43.540668126073065" lon="12.601627729554819"><ele>345.0</ele><time>2026-04-29T10:54:23Z</time></trkpt><trkpt lat="43.54047591505456" lon="12.601629490358722"><ele>338.0</ele><time>2026-04-29T10:54:24Z</time></trkpt><trkpt lat="43.54030248556227" lon="12.6016469255239"><ele>331.0</ele><time>2026-04-29T10:54:25Z</time></trkpt><trkpt lat="43.5401296292257" lon="12.601606620907843"><ele>324.0</ele><time>2026-04-29T10:54:26Z</time></trkpt><trkpt lat="43.53994145248167" lon="12.601513651482907"><ele>324.0</ele><time>2026-04-29T10:54:27Z</time></trkpt><trkpt lat="43.53978769956018" lon="12.60138049800001"><ele>324.0</ele><time>2026-04-29T10:54:28Z</time></trkpt><trkpt lat="43.539622128790924" lon="12.601236783624868"><ele>324.0</ele><time>2026-04-29T10:54:29Z</time></trkpt><trkpt lat="43.539449377533906" lon="12.601092797341606"><ele>325.6666666666667</ele><time>2026-04-29T10:54:30Z</time></trkpt><trkpt lat="43.539272598499686" lon="12.600942092015375"><ele>327.33333333333337</ele><time>2026-04-29T10:54:31Z</time></trkpt><trkpt lat="43.53909276657142" lon="12.600788387550155"><ele>329.0</ele><time>2026-04-29T10:54:32Z</time></trkpt><trkpt lat="43.53890909033433" lon="12.600630577995199"><ele>329.0</ele><time>2026-04-29T10:54:33Z</time></trkpt><trkpt lat="43.53872531068497" lon="12.600466822296482"><ele>329.0</ele><time>2026-04-29T10:54:34Z</time></trkpt><trkpt lat="43.5385409660702" lon="12.600297853363177"><ele>329.0</ele><time>2026-04-29T10:54:35Z</time></trkpt><trkpt lat="43.53837384564738" lon="12.600106081386159"><ele>331.6666666666667</ele><time>2026-04-29T10:54:36Z</time></trkpt><trkpt lat="43.538232900337846" lon="12.599872538083908"><ele>334.3333333333333</ele><time>2026-04-29T10:54:37Z</time></trkpt><trkpt lat="43.538101171511194" lon="12.599628774605897"><ele>337.0</ele><time>2026-04-29T10:54:38Z</time></trkpt><trkpt lat="43.537968976103976" lon="12.599387274956555"><ele>334.0</ele><time>2026-04-29T10:54:39Z</time></trkpt><trkpt lat="43.53783675258853" lon="12.599147341689504"><ele>331.0</ele><time>2026-04-29T10:54:40Z</time></trkpt><trkpt lat="43.537703267129324" lon="12.598905336320541"><ele>328.0</ele><time>2026-04-29T10:54:41Z</time></trkpt><trkpt lat="43.53756165726899" lon="12.598674179585279"><ele>328.66666666666663</ele><time>2026-04-29T10:54:42Z</time></trkpt><trkpt lat="43.5374009022597" lon="12.598466257551918"><ele>329.3333333333333</ele><time>2026-04-29T10:54:43Z</time></trkpt><trkpt lat="43.53722021711134" lon="12.598284005454147"><ele>330.0</ele><time>2026-04-29T10:54:44Z</time></trkpt><trkpt lat="43.537032239094735" lon="12.598119149618077"><ele>330.0</ele><time>2026-04-29T10:54:45Z</time></trkpt><trkpt lat="43.536840138931204" lon="12.597955562091858"><ele>330.0</ele><time>2026-04-29T10:54:46Z</time></trkpt><trkpt lat="43.53665332891103" lon="12.597773614716758"><ele>330.6666666666667</ele><time>2026-04-29T10:54:47Z</time></trkpt><trkpt lat="43.53648678077551" lon="12.597570238407837"><ele>331.33333333333337</ele><time>2026-04-29T10:54:48Z</time></trkpt><trkpt lat="43.53633104441776" lon="12.597352920234515"><ele>332.0</ele><time>2026-04-29T10:54:49Z</time></trkpt><trkpt lat="43.53617673004825" lon="12.597136468801855"><ele>335.6666666666667</ele><time>2026-04-29T10:54:50Z</time></trkpt><trkpt lat="43.536018930815885" lon="12.596923672689494"><ele>339.3333333333333</ele><time>2026-04-29T10:54:51Z</time></trkpt><trkpt lat="43.53585780876606" lon="12.596718233071714"><ele>343.0</ele><time>2026-04-29T10:54:52Z</time></trkpt><trkpt lat="43.53568996549942" lon="12.596530521709179"><ele>343.0</ele><time>2026-04-29T10:54:53Z</time></trkpt><trkpt lat="43.535502155729795" lon="12.596379587945899"><ele>343.0</ele><time>2026-04-29T10:54:54Z</time></trkpt><trkpt lat="43.53530260017789" lon="12.596256977807753"><ele>343.0</ele><time>2026-04-29T10:54:55Z</time></trkpt><trkpt lat="43.5350963762752" lon="12.59614221575521"><ele>342.0</ele><time>2026-04-29T10:54:56Z</time></trkpt><trkpt lat="43.53488885472803" lon="12.596030461725002"><ele>341.0</ele><time>2026-04-29T10:54:57Z</time></trkpt><trkpt lat="43.53468154030195" lon="12.59592353173948"><ele>340.0</ele><time>2026-04-29T10:54:58Z</time></trkpt><trkpt lat="43.53447625947095" lon="12.595812034470265"><ele>340.0</ele><time>2026-04-29T10:54:59Z</time></trkpt><trkpt lat="43.53427073609827" lon="12.595694416948454"><ele>340.0</ele><time>2026-04-29T10:55:00Z</time></trkpt><trkpt lat="43.53406760820259" lon="12.595577999462465"><ele>340.0</ele><time>2026-04-29T10:55:01Z</time></trkpt><trkpt lat="43.533869753225346" lon="12.595467699552607"><ele>339.3333333333333</ele><time>2026-04-29T10:55:02Z</time></trkpt><trkpt lat="43.533679142469026" lon="12.595377968249883"><ele>338.6666666666667</ele><time>2026-04-29T10:55:03Z</time></trkpt><trkpt lat="43.53349008560649" lon="12.595332044165476"><ele>338.0</ele><time>2026-04-29T10:55:04.001Z</time></trkpt><trkpt lat="43.533295785990894" lon="12.595344768957908"><ele>338.0</ele><time>2026-04-29T10:55:05.001Z</time></trkpt><trkpt lat="43.533109124697866" lon="12.59541292965803"><ele>338.0</ele><time>2026-04-29T10:55:06.001Z</time></trkpt><trkpt lat="43.53292680037651" lon="12.595520482889222"><ele>338.0</ele><time>2026-04-29T10:55:07.001Z</time></trkpt><trkpt lat="43.53274059234995" lon="12.595633958277977"><ele>340.6666666666667</ele><time>2026-04-29T10:55:08.001Z</time></trkpt><trkpt lat="43.532551500373785" lon="12.595743369414063"><ele>343.3333333333333</ele><time>2026-04-29T10:55:09.001Z</time></trkpt><trkpt lat="43.532364553994775" lon="12.595846189103924"><ele>346.0</ele><time>2026-04-29T10:55:10.001Z</time></trkpt><trkpt lat="43.53218260251017" lon="12.595931441898657"><ele>348.0</ele><time>2026-04-29T10:55:11.001Z</time></trkpt><trkpt lat="43.53199362952233" lon="12.595985552533868"><ele>350.0</ele><time>2026-04-29T10:55:12.001Z</time></trkpt><trkpt lat="43.53179350064651" lon="12.596019398324103"><ele>352.0</ele><time>2026-04-29T10:55:13.001Z</time></trkpt><trkpt lat="43.53159307302915" lon="12.596028020701992"><ele>352.0</ele><time>2026-04-29T10:55:14.001Z</time></trkpt><trkpt lat="43.53138996913344" lon="12.596037826540902"><ele>352.0</ele><time>2026-04-29T10:55:15.001Z</time></trkpt><trkpt lat="43.531181891513704" lon="12.59604242712773"><ele>352.0</ele><time>2026-04-29T10:55:16.001Z</time></trkpt><trkpt lat="43.53096986340331" lon="12.596053945234416"><ele>353.3333333333333</ele><time>2026-04-29T10:55:17.001Z</time></trkpt><trkpt lat="43.53075922645656" lon="12.596051179532973"><ele>354.6666666666667</ele><time>2026-04-29T10:55:18.001Z</time></trkpt><trkpt lat="43.53055153979182" lon="12.596020999895032"><ele>356.0</ele><time>2026-04-29T10:55:19.001Z</time></trkpt><trkpt lat="43.530347133133276" lon="12.595949184824605"><ele>352.0</ele><time>2026-04-29T10:55:20.001Z</time></trkpt><trkpt lat="43.53015157146724" lon="12.595837217049718"><ele>348.0</ele><time>2026-04-29T10:55:21.001Z</time></trkpt><trkpt lat="43.52996582513017" lon="12.595695727755722"><ele>344.0</ele><time>2026-04-29T10:55:22.001Z</time></trkpt><trkpt lat="43.52978597398714" lon="12.59554238243247"><ele>344.0</ele><time>2026-04-29T10:55:23.001Z</time></trkpt><trkpt lat="43.52961851737823" lon="12.595362164409375"><ele>344.0</ele><time>2026-04-29T10:55:24.001Z</time></trkpt><trkpt lat="43.52948207053248" lon="12.595141054916844"><ele>344.0</ele><time>2026-04-29T10:55:25.001Z</time></trkpt><trkpt lat="43.52936298805805" lon="12.594904083802898"><ele>345.6666666666667</ele><time>2026-04-29T10:55:26.001Z</time></trkpt><trkpt lat="43.52924471461566" lon="12.594664064440906"><ele>347.3333333333333</ele><time>2026-04-29T10:55:27.001Z</time></trkpt><trkpt lat="43.52912975114238" lon="12.59441786929672"><ele>349.0</ele><time>2026-04-29T10:55:28.001Z</time></trkpt><trkpt lat="43.52902285353325" lon="12.594161827994153"><ele>352.66666666666663</ele><time>2026-04-29T10:55:29.001Z</time></trkpt><trkpt lat="43.528943664977795" lon="12.593905396658398"><ele>356.3333333333333</ele><time>2026-04-29T10:55:30.001Z</time></trkpt><trkpt lat="43.52889111054997" lon="12.59364438551986"><ele>360.0</ele><time>2026-04-29T10:55:31.001Z</time></trkpt><trkpt lat="43.528879645348496" lon="12.59337465782962"><ele>363.3333333333333</ele><time>2026-04-29T10:55:32.001Z</time></trkpt><trkpt lat="43.52889976097263" lon="12.593105866899753"><ele>366.66666666666663</ele><time>2026-04-29T10:55:33.001Z</time></trkpt><trkpt lat="43.52894981302221" lon="12.592841550270549"><ele>370.0</ele><time>2026-04-29T10:55:34.001Z</time></trkpt><trkpt lat="43.529024484650265" lon="12.592583762674993"><ele>371.0</ele><time>2026-04-29T10:55:35.001Z</time></trkpt><trkpt lat="43.52911177875488" lon="12.59234328988539"><ele>372.0</ele><time>2026-04-29T10:55:36.001Z</time></trkpt><trkpt lat="43.52917973489132" lon="12.592121724556556"><ele>373.0</ele><time>2026-04-29T10:55:37.001Z</time></trkpt><trkpt lat="43.52923800166535" lon="12.591903206258097"><ele>369.0</ele><time>2026-04-29T10:55:38.001Z</time></trkpt><trkpt lat="43.52924962249821" lon="12.591669065304751"><ele>365.0</ele><time>2026-04-29T10:55:39.001Z</time></trkpt><trkpt lat="43.52920227486073" lon="12.591457416854517"><ele>361.0</ele><time>2026-04-29T10:55:40.001Z</time></trkpt><trkpt lat="43.52910330225197" lon="12.591272557467743"><ele>364.0</ele><time>2026-04-29T10:55:41.001Z</time></trkpt><trkpt lat="43.52895988140287" lon="12.591137503433995"><ele>367.0</ele><time>2026-04-29T10:55:42.001Z</time></trkpt><trkpt lat="43.52878980712287" lon="12.591072663303448"><ele>370.0</ele><time>2026-04-29T10:55:43.001Z</time></trkpt><trkpt lat="43.528604996761246" lon="12.591059134818057"><ele>363.66666666666663</ele><time>2026-04-29T10:55:44.001Z</time></trkpt><trkpt lat="43.52841809891286" lon="12.591049004947717"><ele>357.3333333333333</ele><time>2026-04-29T10:55:45.001Z</time></trkpt><trkpt lat="43.52822129753498" lon="12.591033098966156"><ele>351.0</ele><time>2026-04-29T10:55:46.001Z</time></trkpt><trkpt lat="43.52802222391578" lon="12.591016204799525"><ele>350.3333333333333</ele><time>2026-04-29T10:55:47.001Z</time></trkpt><trkpt lat="43.52782383348685" lon="12.59098114975874"><ele>349.66666666666663</ele><time>2026-04-29T10:55:48.001Z</time></trkpt><trkpt lat="43.52764197797122" lon="12.590909512863474"><ele>349.0</ele><time>2026-04-29T10:55:49.001Z</time></trkpt><trkpt lat="43.52747616372098" lon="12.590796606623787"><ele>349.0</ele><time>2026-04-29T10:55:50.001Z</time></trkpt><trkpt lat="43.52732875888038" lon="12.590660756406567"><ele>349.0</ele><time>2026-04-29T10:55:51.001Z</time></trkpt><trkpt lat="43.52721266138277" lon="12.590506208000603"><ele>349.0</ele><time>2026-04-29T10:55:52.001Z</time></trkpt><trkpt lat="43.52713892558134" lon="12.59037371360675"><ele>349.4</ele><time>2026-04-29T10:55:53.001Z</time></trkpt><trkpt lat="43.527094780683896" lon="12.59028053737097"><ele>349.79999999999995</ele><time>2026-04-29T10:55:54.001Z</time></trkpt><trkpt lat="43.527061588760574" lon="12.590202158943233"><ele>350.20000000000005</ele><time>2026-04-29T10:55:56.001Z</time></trkpt><trkpt lat="43.52701302516024" lon="12.59012074615653"><ele>350.6</ele><time>2026-04-29T10:57:18.001Z</time></trkpt><trkpt lat="43.52698305882541" lon="12.589933985723867"><ele>351.0</ele><time>2026-04-29T10:57:20.001Z</time></trkpt><trkpt lat="43.526956303093534" lon="12.58981467341122"><ele>351.0</ele><time>2026-04-29T10:57:21.001Z</time></trkpt><trkpt lat="43.5269285766174" lon="12.589681344847865"><ele>351.0</ele><time>2026-04-29T10:57:22.001Z</time></trkpt><trkpt lat="43.52689914372492" lon="12.589538444031978"><ele>351.0</ele><time>2026-04-29T10:57:23.001Z</time></trkpt><trkpt lat="43.52687040006919" lon="12.589390674755428"><ele>351.0</ele><time>2026-04-29T10:57:24.001Z</time></trkpt><trkpt lat="43.526839652307565" lon="12.589234688658523"><ele>351.0</ele><time>2026-04-29T10:57:25.001Z</time></trkpt><trkpt lat="43.52680808357635" lon="12.58907703285955"><ele>352.75</ele><time>2026-04-29T10:57:26.001Z</time></trkpt><trkpt lat="43.52677684391484" lon="12.588919787112946"><ele>354.5</ele><time>2026-04-29T10:57:27.001Z</time></trkpt><trkpt lat="43.52674614974329" lon="12.588762549572705"><ele>356.25</ele><time>2026-04-29T10:57:28.001Z</time></trkpt><trkpt lat="43.526709956555074" lon="12.588585638054791"><ele>358.0</ele><time>2026-04-29T10:57:29.001Z</time></trkpt><trkpt lat="43.52666293909458" lon="12.588374218700077"><ele>361.3333333333333</ele><time>2026-04-29T10:57:30.001Z</time></trkpt><trkpt lat="43.52658092815721" lon="12.588159977643713"><ele>364.6666666666667</ele><time>2026-04-29T10:57:31.001Z</time></trkpt><trkpt lat="43.52649728948063" lon="12.587931226408864"><ele>368.0</ele><time>2026-04-29T10:57:32.001Z</time></trkpt><trkpt lat="43.526389315937365" lon="12.587707260591738"><ele>365.6666666666667</ele><time>2026-04-29T10:57:33.001Z</time></trkpt><trkpt lat="43.52628792002744" lon="12.587459068427544"><ele>363.3333333333333</ele><time>2026-04-29T10:57:34.001Z</time></trkpt><trkpt lat="43.52619033545847" lon="12.587248876319782"><ele>361.0</ele><time>2026-04-29T10:57:35.001Z</time></trkpt><trkpt lat="43.52610443587133" lon="12.58708088351451"><ele>359.75</ele><time>2026-04-29T10:57:36.001Z</time></trkpt><trkpt lat="43.52607135515686" lon="12.586899734709219"><ele>358.5</ele><time>2026-04-29T10:57:37.001Z</time></trkpt><trkpt lat="43.52607892101356" lon="12.586717232086439"><ele>357.25</ele><time>2026-04-29T10:57:38.001Z</time></trkpt><trkpt lat="43.52617209797889" lon="12.586588724081397"><ele>356.0</ele><time>2026-04-29T10:57:39.001Z</time></trkpt><trkpt lat="43.52630096557438" lon="12.58648644142634"><ele>358.6666666666667</ele><time>2026-04-29T10:57:40.001Z</time></trkpt><trkpt lat="43.52645149487343" lon="12.586341001531155"><ele>361.3333333333333</ele><time>2026-04-29T10:57:41.001Z</time></trkpt><trkpt lat="43.52661959870623" lon="12.586204373357873"><ele>364.0</ele><time>2026-04-29T10:57:42.001Z</time></trkpt><trkpt lat="43.52674790999143" lon="12.586051328572513"><ele>364.0</ele><time>2026-04-29T10:57:43.001Z</time></trkpt><trkpt lat="43.5268133338698" lon="12.585862774643196"><ele>364.0</ele><time>2026-04-29T10:57:44.001Z</time></trkpt><trkpt lat="43.526833386896655" lon="12.585637410284125"><ele>364.0</ele><time>2026-04-29T10:57:45.001Z</time></trkpt><trkpt lat="43.52679799356177" lon="12.585405980943278"><ele>364.0</ele><time>2026-04-29T10:57:46.001Z</time></trkpt><trkpt lat="43.52669678713926" lon="12.585185857370925"><ele>364.0</ele><time>2026-04-29T10:57:47.001Z</time></trkpt><trkpt lat="43.52657016723869" lon="12.584974962358677"><ele>364.0</ele><time>2026-04-29T10:57:48.001Z</time></trkpt><trkpt lat="43.526487319219164" lon="12.584774148261173"><ele>364.0</ele><time>2026-04-29T10:57:49.001Z</time></trkpt><trkpt lat="43.526408034248256" lon="12.584625009318167"><ele>364.0</ele><time>2026-04-29T10:57:50.001Z</time></trkpt><trkpt lat="43.526402103702445" lon="12.584468911706663"><ele>364.0</ele><time>2026-04-29T10:57:51.001Z</time></trkpt><trkpt lat="43.52645147367382" lon="12.584328951129024"><ele>364.0</ele><time>2026-04-29T10:57:52.001Z</time></trkpt><trkpt lat="43.52655793600244" lon="12.584258913019223"><ele>362.75</ele><time>2026-04-29T10:57:53.001Z</time></trkpt><trkpt lat="43.52667760904282" lon="12.584312543065561"><ele>361.5</ele><time>2026-04-29T10:57:54.001Z</time></trkpt><trkpt lat="43.526813512041905" lon="12.584284856477845"><ele>360.25</ele><time>2026-04-29T10:57:55.001Z</time></trkpt><trkpt lat="43.5269684465416" lon="12.584286400445638"><ele>359.0</ele><time>2026-04-29T10:57:56.001Z</time></trkpt><trkpt lat="43.52712754225549" lon="12.584211263249653"><ele>364.0</ele><time>2026-04-29T10:57:57.001Z</time></trkpt><trkpt lat="43.52726514084961" lon="12.584066860944555"><ele>369.0</ele><time>2026-04-29T10:57:58.001Z</time></trkpt><trkpt lat="43.527355438533206" lon="12.583857604991168"><ele>374.0</ele><time>2026-04-29T10:57:59.001Z</time></trkpt><trkpt lat="43.52740292773529" lon="12.58361246189811"><ele>374.0</ele><time>2026-04-29T10:58:00.001Z</time></trkpt><trkpt lat="43.527394477475994" lon="12.583357337727351"><ele>374.0</ele><time>2026-04-29T10:58:01.001Z</time></trkpt><trkpt lat="43.527316571169266" lon="12.583102837007946"><ele>374.0</ele><time>2026-04-29T10:58:02.001Z</time></trkpt><trkpt lat="43.527230707460944" lon="12.58285093194048"><ele>378.0</ele><time>2026-04-29T10:58:03.001Z</time></trkpt><trkpt lat="43.527132099984335" lon="12.58257364930118"><ele>382.0</ele><time>2026-04-29T10:58:04.001Z</time></trkpt><trkpt lat="43.52704035661147" lon="12.582281052305461"><ele>376.0</ele><time>2026-04-29T10:58:05.001Z</time></trkpt><trkpt lat="43.52694605805417" lon="12.58198407433358"><ele>370.0</ele><time>2026-04-29T10:58:06.001Z</time></trkpt><trkpt lat="43.52684708423456" lon="12.581672336433597"><ele>370.0</ele><time>2026-04-29T10:58:07.001Z</time></trkpt><trkpt lat="43.52674833550539" lon="12.581349953551396"><ele>370.0</ele><time>2026-04-29T10:58:08.001Z</time></trkpt><trkpt lat="43.526647083237805" lon="12.581026535048538"><ele>377.5</ele><time>2026-04-29T10:58:09.001Z</time></trkpt><trkpt lat="43.52654680808028" lon="12.580705130382727"><ele>385.0</ele><time>2026-04-29T10:58:10.001Z</time></trkpt><trkpt lat="43.52643220069877" lon="12.580412007802094"><ele>381.33333333333337</ele><time>2026-04-29T10:58:11.001Z</time></trkpt><trkpt lat="43.52630652800681" lon="12.58015777831027"><ele>377.6666666666667</ele><time>2026-04-29T10:58:12.001Z</time></trkpt><trkpt lat="43.5261787102313" lon="12.579965714351474"><ele>374.0</ele><time>2026-04-29T10:58:13.001Z</time></trkpt><trkpt lat="43.526026293346774" lon="12.579830977504036"><ele>374.0</ele><time>2026-04-29T10:58:14.001Z</time></trkpt><trkpt lat="43.525829735365996" lon="12.57972876811604"><ele>374.0</ele><time>2026-04-29T10:58:15.001Z</time></trkpt><trkpt lat="43.52562351501187" lon="12.57962593783494"><ele>374.0</ele><time>2026-04-29T10:58:16.001Z</time></trkpt><trkpt lat="43.525398238163106" lon="12.57952490089466"><ele>385.0</ele><time>2026-04-29T10:58:17.001Z</time></trkpt><trkpt lat="43.52516700474723" lon="12.579445901848704"><ele>396.0</ele><time>2026-04-29T10:58:18.001Z</time></trkpt><trkpt lat="43.524955207035134" lon="12.579429307370575"><ele>396.0</ele><time>2026-04-29T10:58:19.001Z</time></trkpt><trkpt lat="43.524791055561785" lon="12.579434694568056"><ele>396.0</ele><time>2026-04-29T10:58:19.999Z</time></trkpt><trkpt lat="43.52467677121352" lon="12.579379420376277"><ele>396.0</ele><time>2026-04-29T10:58:20.998Z</time></trkpt><trkpt lat="43.524589385715" lon="12.579286140263768"><ele>396.0</ele><time>2026-04-29T10:58:21.999Z</time></trkpt><trkpt lat="43.524535342353786" lon="12.579106154676246"><ele>396.33333333333337</ele><time>2026-04-29T10:58:22.998Z</time></trkpt><trkpt lat="43.52444908604455" lon="12.578870364852474"><ele>396.6666666666667</ele><time>2026-04-29T10:58:23.998Z</time></trkpt><trkpt lat="43.524339862618234" lon="12.578653082673187"><ele>397.0</ele><time>2026-04-29T10:58:24.998Z</time></trkpt><trkpt lat="43.524166553519464" lon="12.57845555331259"><ele>397.0</ele><time>2026-04-29T10:58:25.998Z</time></trkpt><trkpt lat="43.52396873780987" lon="12.578288235552508"><ele>397.0</ele><time>2026-04-29T10:58:26.998Z</time></trkpt><trkpt lat="43.52381509675771" lon="12.578115672348643"><ele>397.0</ele><time>2026-04-29T10:58:27.998Z</time></trkpt><trkpt lat="43.52368785788744" lon="12.577880564481504"><ele>390.0</ele><time>2026-04-29T10:58:28.998Z</time></trkpt><trkpt lat="43.523610167716775" lon="12.577640470761429"><ele>383.0</ele><time>2026-04-29T10:58:29.998Z</time></trkpt><trkpt lat="43.52353059967448" lon="12.577352003736767"><ele>376.0</ele><time>2026-04-29T10:58:30.998Z</time></trkpt><trkpt lat="43.52347219812544" lon="12.577041005032003"><ele>379.5</ele><time>2026-04-29T10:58:31.998Z</time></trkpt><trkpt lat="43.523460850234436" lon="12.576735435990152"><ele>383.0</ele><time>2026-04-29T10:58:32.998Z</time></trkpt><trkpt lat="43.523475424470355" lon="12.576421610859441"><ele>383.5</ele><time>2026-04-29T10:58:33.998Z</time></trkpt><trkpt lat="43.52349190186364" lon="12.576101563892534"><ele>384.0</ele><time>2026-04-29T10:58:34.999Z</time></trkpt><trkpt lat="43.523540455932654" lon="12.575782365758883"><ele>384.0</ele><time>2026-04-29T10:58:35.999Z</time></trkpt><trkpt lat="43.52359735079313" lon="12.575472466887636"><ele>384.0</ele><time>2026-04-29T10:58:36.999Z</time></trkpt><trkpt lat="43.52366819557337" lon="12.575188412866009"><ele>395.0</ele><time>2026-04-29T10:58:37.999Z</time></trkpt><trkpt lat="43.52373290373264" lon="12.574948709811721"><ele>406.0</ele><time>2026-04-29T10:58:38.999Z</time></trkpt><trkpt lat="43.52376696872862" lon="12.574721568236129"><ele>417.0</ele><time>2026-04-29T10:58:39.999Z</time></trkpt><trkpt lat="43.52374365500467" lon="12.574477180451577"><ele>404.3333333333333</ele><time>2026-04-29T10:58:40.999Z</time></trkpt><trkpt lat="43.52366683389304" lon="12.574205370988476"><ele>391.66666666666663</ele><time>2026-04-29T10:58:41.999Z</time></trkpt><trkpt lat="43.52357431609638" lon="12.573936709657017"><ele>379.0</ele><time>2026-04-29T10:58:42.999Z</time></trkpt><trkpt lat="43.52347261324405" lon="12.573707476361431"><ele>389.3333333333333</ele><time>2026-04-29T10:58:43.999Z</time></trkpt><trkpt lat="43.523348832410285" lon="12.573536304036214"><ele>399.66666666666663</ele><time>2026-04-29T10:58:44.999Z</time></trkpt><trkpt lat="43.52319449003517" lon="12.57341540394362"><ele>410.0</ele><time>2026-04-29T10:58:45.999Z</time></trkpt><trkpt lat="43.52299038390191" lon="12.573364448042673"><ele>397.0</ele><time>2026-04-29T10:58:46.999Z</time></trkpt><trkpt lat="43.52277310262474" lon="12.573363389330625"><ele>384.0</ele><time>2026-04-29T10:58:47.999Z</time></trkpt><trkpt lat="43.5225371832504" lon="12.573367019978523"><ele>384.0</ele><time>2026-04-29T10:58:48.999Z</time></trkpt><trkpt lat="43.52229668884147" lon="12.573353258829808"><ele>384.0</ele><time>2026-04-29T10:58:49.999Z</time></trkpt><trkpt lat="43.52208194771092" lon="12.57329251564068"><ele>382.3333333333333</ele><time>2026-04-29T10:58:50.999Z</time></trkpt><trkpt lat="43.52190509703681" lon="12.573199546030342"><ele>380.66666666666663</ele><time>2026-04-29T10:58:51.999Z</time></trkpt><trkpt lat="43.52175521295397" lon="12.573050153828172"><ele>379.0</ele><time>2026-04-29T10:58:52.999Z</time></trkpt><trkpt lat="43.52159809143249" lon="12.572904117469088"><ele>386.66666666666663</ele><time>2026-04-29T10:58:53.999Z</time></trkpt><trkpt lat="43.521438088595914" lon="12.572794433704068"><ele>394.3333333333333</ele><time>2026-04-29T10:58:54.999Z</time></trkpt><trkpt lat="43.52125915607594" lon="12.572795355915828"><ele>402.0</ele><time>2026-04-29T10:58:55.999Z</time></trkpt><trkpt lat="43.52107440997992" lon="12.572849062594138"><ele>402.0</ele><time>2026-04-29T10:58:56.999Z</time></trkpt><trkpt lat="43.52090704138588" lon="12.57285846307335"><ele>402.0</ele><time>2026-04-29T10:58:57.999Z</time></trkpt><trkpt lat="43.52074185975224" lon="12.572808442061065"><ele>402.0</ele><time>2026-04-29T10:58:58.999Z</time></trkpt><trkpt lat="43.520577292165406" lon="12.572703290123101"><ele>402.0</ele><time>2026-04-29T10:58:59.999Z</time></trkpt><trkpt lat="43.52042340189737" lon="12.572530953593878"><ele>402.0</ele><time>2026-04-29T10:59:00.999Z</time></trkpt><trkpt lat="43.520267592204746" lon="12.572342925606286"><ele>402.0</ele><time>2026-04-29T10:59:01.999Z</time></trkpt><trkpt lat="43.52008296105623" lon="12.572178001112125"><ele>407.0</ele><time>2026-04-29T10:59:02.999Z</time></trkpt><trkpt lat="43.5198781452928" lon="12.572033512451199"><ele>412.0</ele><time>2026-04-29T10:59:03.999Z</time></trkpt><trkpt lat="43.519661494373125" lon="12.571899071146996"><ele>400.0</ele><time>2026-04-29T10:59:04.999Z</time></trkpt><trkpt lat="43.51944234590887" lon="12.571761041051566"><ele>388.0</ele><time>2026-04-29T10:59:05.999Z</time></trkpt><trkpt lat="43.519224964513725" lon="12.571613395549273"><ele>388.0</ele><time>2026-04-29T10:59:06.999Z</time></trkpt><trkpt lat="43.51902286730915" lon="12.571481018416975"><ele>388.0</ele><time>2026-04-29T10:59:07.999Z</time></trkpt><trkpt lat="43.51884975259499" lon="12.571347325508729"><ele>388.0</ele><time>2026-04-29T10:59:08.999Z</time></trkpt><trkpt lat="43.518714555209186" lon="12.571170486837017"><ele>385.33333333333337</ele><time>2026-04-29T10:59:09.999Z</time></trkpt><trkpt lat="43.518606138235384" lon="12.57096185463771"><ele>382.6666666666667</ele><time>2026-04-29T10:59:10.999Z</time></trkpt><trkpt lat="43.51854403843105" lon="12.570715418667854"><ele>380.0</ele><time>2026-04-29T10:59:11.999Z</time></trkpt><trkpt lat="43.518523255540224" lon="12.5704449481854"><ele>382.0</ele><time>2026-04-29T10:59:12.999Z</time></trkpt><trkpt lat="43.51851157361031" lon="12.570168167345132"><ele>384.0</ele><time>2026-04-29T10:59:13.999Z</time></trkpt><trkpt lat="43.51854296872218" lon="12.569904543139968"><ele>386.0</ele><time>2026-04-29T10:59:14.999Z</time></trkpt><trkpt lat="43.518511765064005" lon="12.569682224469119"><ele>391.66666666666663</ele><time>2026-04-29T10:59:15.999Z</time></trkpt><trkpt lat="43.51841050292548" lon="12.56948541263767"><ele>397.33333333333337</ele><time>2026-04-29T10:59:16.999Z</time></trkpt><trkpt lat="43.518278855612785" lon="12.569323669809636"><ele>403.0</ele><time>2026-04-29T10:59:17.999Z</time></trkpt><trkpt lat="43.51814168192949" lon="12.569205958346675"><ele>403.0</ele><time>2026-04-29T10:59:18.999Z</time></trkpt><trkpt lat="43.517967896913966" lon="12.569134617396909"><ele>403.0</ele><time>2026-04-29T10:59:19.999Z</time></trkpt><trkpt lat="43.517775838047406" lon="12.56907869078927"><ele>403.0</ele><time>2026-04-29T10:59:20.999Z</time></trkpt><trkpt lat="43.517573405732" lon="12.569018456157629"><ele>397.6666666666667</ele><time>2026-04-29T10:59:22Z</time></trkpt><trkpt lat="43.51736442600541" lon="12.568959414341059"><ele>392.33333333333337</ele><time>2026-04-29T10:59:23Z</time></trkpt><trkpt lat="43.51717130273122" lon="12.568938675177895"><ele>387.0</ele><time>2026-04-29T10:59:24Z</time></trkpt><trkpt lat="43.51700779059487" lon="12.56892823653687"><ele>386.0</ele><time>2026-04-29T10:59:25Z</time></trkpt><trkpt lat="43.516890817414534" lon="12.568854487109423"><ele>385.0</ele><time>2026-04-29T10:59:26Z</time></trkpt><trkpt lat="43.51679825236559" lon="12.56873025809483"><ele>384.0</ele><time>2026-04-29T10:59:27Z</time></trkpt><trkpt lat="43.51676405064335" lon="12.568525907702695"><ele>383.0</ele><time>2026-04-29T10:59:28Z</time></trkpt><trkpt lat="43.516689933569786" lon="12.568307633408352"><ele>386.6666666666667</ele><time>2026-04-29T10:59:29Z</time></trkpt><trkpt lat="43.51661492289662" lon="12.56808367891732"><ele>390.33333333333337</ele><time>2026-04-29T10:59:30Z</time></trkpt><trkpt lat="43.51648311464682" lon="12.56788405053002"><ele>394.0</ele><time>2026-04-29T10:59:31Z</time></trkpt><trkpt lat="43.5163201501343" lon="12.56770420585188"><ele>391.33333333333337</ele><time>2026-04-29T10:59:32Z</time></trkpt><trkpt lat="43.51614230754284" lon="12.567554289356455"><ele>388.66666666666663</ele><time>2026-04-29T10:59:33Z</time></trkpt><trkpt lat="43.51594859397855" lon="12.567459927874763"><ele>386.0</ele><time>2026-04-29T10:59:34Z</time></trkpt><trkpt lat="43.515734153907474" lon="12.567416255687203"><ele>386.0</ele><time>2026-04-29T10:59:35Z</time></trkpt><trkpt lat="43.515504846563616" lon="12.567404972264393"><ele>386.0</ele><time>2026-04-29T10:59:36Z</time></trkpt><trkpt lat="43.51527198056792" lon="12.567386844134793"><ele>385.0</ele><time>2026-04-29T10:59:37Z</time></trkpt><trkpt lat="43.515030541096735" lon="12.56736276489584"><ele>384.0</ele><time>2026-04-29T10:59:38Z</time></trkpt><trkpt lat="43.51480107242759" lon="12.567341343895384"><ele>384.0</ele><time>2026-04-29T10:59:39Z</time></trkpt><trkpt lat="43.514611505484474" lon="12.5673177901333"><ele>384.0</ele><time>2026-04-29T10:59:40Z</time></trkpt><trkpt lat="43.5144585026155" lon="12.567291624454517"><ele>384.0</ele><time>2026-04-29T10:59:41Z</time></trkpt><trkpt lat="43.51435280125425" lon="12.567231886014685"><ele>383.25</ele><time>2026-04-29T10:59:42Z</time></trkpt><trkpt lat="43.51429320391814" lon="12.567118045201328"><ele>382.5</ele><time>2026-04-29T10:59:43Z</time></trkpt><trkpt lat="43.514307107020876" lon="12.566971424585056"><ele>381.75</ele><time>2026-04-29T10:59:44Z</time></trkpt><trkpt lat="43.514321600737865" lon="12.566815726530958"><ele>381.0</ele><time>2026-04-29T10:59:45Z</time></trkpt><trkpt lat="43.51435123762093" lon="12.566611226331132"><ele>381.0</ele><time>2026-04-29T10:59:46Z</time></trkpt><trkpt lat="43.51439514950756" lon="12.566386702004484"><ele>381.0</ele><time>2026-04-29T10:59:47Z</time></trkpt><trkpt lat="43.51443188255732" lon="12.566148369900807"><ele>381.0</ele><time>2026-04-29T10:59:48Z</time></trkpt><trkpt lat="43.514462452708806" lon="12.565922347581079"><ele>382.0</ele><time>2026-04-29T10:59:49Z</time></trkpt><trkpt lat="43.514468420361105" lon="12.565723566280504"><ele>383.0</ele><time>2026-04-29T10:59:50Z</time></trkpt><trkpt lat="43.514417271334246" lon="12.565544201445247"><ele>384.0</ele><time>2026-04-29T10:59:51Z</time></trkpt><trkpt lat="43.51431979915363" lon="12.565363961784193"><ele>385.0</ele><time>2026-04-29T10:59:52Z</time></trkpt><trkpt lat="43.5141829826001" lon="12.56517665215595"><ele>385.6666666666667</ele><time>2026-04-29T10:59:53Z</time></trkpt><trkpt lat="43.514034927583616" lon="12.564978295676502"><ele>386.33333333333337</ele><time>2026-04-29T10:59:54Z</time></trkpt><trkpt lat="43.51388022687256" lon="12.564753600406297"><ele>387.0</ele><time>2026-04-29T10:59:55Z</time></trkpt><trkpt lat="43.51373490054547" lon="12.564495473968316"><ele>389.0</ele><time>2026-04-29T10:59:56Z</time></trkpt><trkpt lat="43.5135764303579" lon="12.564245071044603"><ele>391.0</ele><time>2026-04-29T10:59:57Z</time></trkpt><trkpt lat="43.51342009275023" lon="12.564007187569812"><ele>391.0</ele><time>2026-04-29T10:59:58Z</time></trkpt><trkpt lat="43.513272026534494" lon="12.563791815449083"><ele>391.0</ele><time>2026-04-29T10:59:59Z</time></trkpt><trkpt lat="43.51321494612646" lon="12.563546072523886"><ele>391.0</ele><time>2026-04-29T11:00:00Z</time></trkpt><trkpt lat="43.51318624989868" lon="12.563317143777937"><ele>391.0</ele><time>2026-04-29T11:00:01Z</time></trkpt><trkpt lat="43.513134325527766" lon="12.563098937912539"><ele>391.0</ele><time>2026-04-29T11:00:02Z</time></trkpt><trkpt lat="43.51308693666124" lon="12.562894294096404"><ele>391.0</ele><time>2026-04-29T11:00:03Z</time></trkpt><trkpt lat="43.51298512983823" lon="12.562735441014517"><ele>392.6666666666667</ele><time>2026-04-29T11:00:04Z</time></trkpt><trkpt lat="43.51284131669018" lon="12.562637173643127"><ele>394.33333333333337</ele><time>2026-04-29T11:00:05Z</time></trkpt><trkpt lat="43.5126636187249" lon="12.562578594332823"><ele>396.0</ele><time>2026-04-29T11:00:06Z</time></trkpt><trkpt lat="43.51248862653052" lon="12.562480565462993"><ele>396.0</ele><time>2026-04-29T11:00:07Z</time></trkpt><trkpt lat="43.51234197535439" lon="12.56228399889348"><ele>396.0</ele><time>2026-04-29T11:00:08Z</time></trkpt><trkpt lat="43.51219512800932" lon="12.56204906326865"><ele>396.0</ele><time>2026-04-29T11:00:09Z</time></trkpt><trkpt lat="43.512064505559366" lon="12.561797674231181"><ele>399.66666666666663</ele><time>2026-04-29T11:00:10Z</time></trkpt><trkpt lat="43.511943474787444" lon="12.561589425568659"><ele>403.3333333333333</ele><time>2026-04-29T11:00:11Z</time></trkpt><trkpt lat="43.51188979816739" lon="12.561368220771644"><ele>407.0</ele><time>2026-04-29T11:00:12Z</time></trkpt><trkpt lat="43.51184256120144" lon="12.561145643285597"><ele>407.0</ele><time>2026-04-29T11:00:13Z</time></trkpt><trkpt lat="43.511845234792915" lon="12.560899138517401"><ele>407.0</ele><time>2026-04-29T11:00:14Z</time></trkpt><trkpt lat="43.51190166879778" lon="12.560660051041209"><ele>407.0</ele><time>2026-04-29T11:00:15Z</time></trkpt><trkpt lat="43.51197548441224" lon="12.560430136739402"><ele>406.0</ele><time>2026-04-29T11:00:16Z</time></trkpt><trkpt lat="43.5120656993499" lon="12.56018127745137"><ele>405.0</ele><time>2026-04-29T11:00:17Z</time></trkpt><trkpt lat="43.51214566536142" lon="12.559918710965526"><ele>404.0</ele><time>2026-04-29T11:00:18Z</time></trkpt><trkpt lat="43.512243350204955" lon="12.559647163385604"><ele>402.0</ele><time>2026-04-29T11:00:19Z</time></trkpt><trkpt lat="43.512335906675155" lon="12.559366857741587"><ele>400.0</ele><time>2026-04-29T11:00:20Z</time></trkpt><trkpt lat="43.51244222255238" lon="12.559094877261634"><ele>398.0</ele><time>2026-04-29T11:00:21Z</time></trkpt><trkpt lat="43.512522466578154" lon="12.558842980941996"><ele>398.66666666666663</ele><time>2026-04-29T11:00:22Z</time></trkpt><trkpt lat="43.5125921094356" lon="12.558635548435891"><ele>399.33333333333337</ele><time>2026-04-29T11:00:23Z</time></trkpt><trkpt lat="43.512638878461864" lon="12.558433014362612"><ele>400.0</ele><time>2026-04-29T11:00:24Z</time></trkpt><trkpt lat="43.512642372123175" lon="12.558213991823134"><ele>400.0</ele><time>2026-04-29T11:00:25Z</time></trkpt><trkpt lat="43.512607583159706" lon="12.557983024133618"><ele>400.0</ele><time>2026-04-29T11:00:25.997Z</time></trkpt><trkpt lat="43.51254576553437" lon="12.557749884897664"><ele>400.0</ele><time>2026-04-29T11:00:26.997Z</time></trkpt><trkpt lat="43.51247564289017" lon="12.557510501971135"><ele>399.33333333333337</ele><time>2026-04-29T11:00:27.997Z</time></trkpt><trkpt lat="43.512409532347405" lon="12.557258851100325"><ele>398.66666666666663</ele><time>2026-04-29T11:00:28.997Z</time></trkpt><trkpt lat="43.512345404938486" lon="12.556994776090837"><ele>398.0</ele><time>2026-04-29T11:00:29.997Z</time></trkpt><trkpt lat="43.512278468937566" lon="12.556728311485822"><ele>397.66666666666663</ele><time>2026-04-29T11:00:30.997Z</time></trkpt><trkpt lat="43.51222336064009" lon="12.556469950263644"><ele>397.33333333333337</ele><time>2026-04-29T11:00:31.997Z</time></trkpt><trkpt lat="43.512224050209205" lon="12.556232126770517"><ele>397.0</ele><time>2026-04-29T11:00:32.997Z</time></trkpt><trkpt lat="43.512238974837985" lon="12.555994449695289"><ele>396.6666666666667</ele><time>2026-04-29T11:00:33.997Z</time></trkpt><trkpt lat="43.51227204659185" lon="12.555754748564235"><ele>396.33333333333337</ele><time>2026-04-29T11:00:34.997Z</time></trkpt><trkpt lat="43.512312133911124" lon="12.555495840524918"><ele>396.0</ele><time>2026-04-29T11:00:35.997Z</time></trkpt><trkpt lat="43.51234783547269" lon="12.555234158988624"><ele>395.66666666666663</ele><time>2026-04-29T11:00:36.997Z</time></trkpt><trkpt lat="43.51238446537373" lon="12.554966465466073"><ele>395.3333333333333</ele><time>2026-04-29T11:00:37.997Z</time></trkpt><trkpt lat="43.51241445618296" lon="12.554706720725493"><ele>395.0</ele><time>2026-04-29T11:00:38.997Z</time></trkpt><trkpt lat="43.51242793429778" lon="12.55446663876545"><ele>395.66666666666663</ele><time>2026-04-29T11:00:39.997Z</time></trkpt><trkpt lat="43.51239086297291" lon="12.55424758028639"><ele>396.33333333333337</ele><time>2026-04-29T11:00:40.997Z</time></trkpt><trkpt lat="43.51231022090446" lon="12.554051140322642"><ele>397.0</ele><time>2026-04-29T11:00:41.997Z</time></trkpt><trkpt lat="43.51220649465604" lon="12.55384838126889"><ele>396.0</ele><time>2026-04-29T11:00:42.997Z</time></trkpt><trkpt lat="43.51212023647224" lon="12.553627329625646"><ele>395.0</ele><time>2026-04-29T11:00:43.998Z</time></trkpt><trkpt lat="43.51202256360128" lon="12.55340170684045"><ele>394.0</ele><time>2026-04-29T11:00:44.998Z</time></trkpt><trkpt lat="43.51192120946943" lon="12.553165648595744"><ele>396.0</ele><time>2026-04-29T11:00:45.998Z</time></trkpt><trkpt lat="43.51182189878033" lon="12.552918894619559"><ele>398.0</ele><time>2026-04-29T11:00:46.998Z</time></trkpt><trkpt lat="43.51172310119036" lon="12.55266843988415"><ele>400.0</ele><time>2026-04-29T11:00:47.998Z</time></trkpt><trkpt lat="43.51162142093998" lon="12.552413852976192"><ele>400.0</ele><time>2026-04-29T11:00:48.998Z</time></trkpt><trkpt lat="43.5115116240916" lon="12.552154159936988"><ele>400.0</ele><time>2026-04-29T11:00:49.998Z</time></trkpt><trkpt lat="43.51139826872699" lon="12.551912218268434"><ele>400.0</ele><time>2026-04-29T11:00:50.998Z</time></trkpt><trkpt lat="43.51129208425163" lon="12.55170239484453"><ele>400.25</ele><time>2026-04-29T11:00:51.998Z</time></trkpt><trkpt lat="43.5111973703302" lon="12.551518457124558"><ele>400.5</ele><time>2026-04-29T11:00:52.998Z</time></trkpt><trkpt lat="43.51110978451458" lon="12.551360966879198"><ele>400.75</ele><time>2026-04-29T11:00:53.998Z</time></trkpt><trkpt lat="43.511028841792026" lon="12.551212870456915"><ele>401.0</ele><time>2026-04-29T11:00:54.998Z</time></trkpt><trkpt lat="43.5109490852248" lon="12.551067161528785"><ele>401.0</ele><time>2026-04-29T11:00:55.998Z</time></trkpt><trkpt lat="43.51087878403648" lon="12.550916462644523"><ele>401.0</ele><time>2026-04-29T11:00:56.998Z</time></trkpt><trkpt lat="43.51081875082885" lon="12.550755068830037"><ele>401.0</ele><time>2026-04-29T11:00:57.998Z</time></trkpt><trkpt lat="43.510768419463055" lon="12.550579709997026"><ele>401.0</ele><time>2026-04-29T11:00:58.998Z</time></trkpt><trkpt lat="43.510716355998014" lon="12.550390217397156"><ele>400.3333333333333</ele><time>2026-04-29T11:00:59.998Z</time></trkpt><trkpt lat="43.51066113409019" lon="12.550186341734673"><ele>399.66666666666663</ele><time>2026-04-29T11:01:00.998Z</time></trkpt><trkpt lat="43.510606362445984" lon="12.549969431177697"><ele>399.0</ele><time>2026-04-29T11:01:01.998Z</time></trkpt><trkpt lat="43.51054493417164" lon="12.549736059947628"><ele>399.33333333333337</ele><time>2026-04-29T11:01:02.998Z</time></trkpt><trkpt lat="43.51048566266681" lon="12.549490972803442"><ele>399.6666666666667</ele><time>2026-04-29T11:01:03.999Z</time></trkpt><trkpt lat="43.5104250303135" lon="12.54923456238205"><ele>400.0</ele><time>2026-04-29T11:01:04.999Z</time></trkpt><trkpt lat="43.510357412559" lon="12.548970868287698"><ele>403.0</ele><time>2026-04-29T11:01:05.999Z</time></trkpt><trkpt lat="43.510287565847385" lon="12.548699357636837"><ele>406.0</ele><time>2026-04-29T11:01:06.999Z</time></trkpt><trkpt lat="43.51021635985932" lon="12.548420460113391"><ele>409.0</ele><time>2026-04-29T11:01:07.999Z</time></trkpt><trkpt lat="43.510144368272854" lon="12.5481361920488"><ele>408.6666666666667</ele><time>2026-04-29T11:01:08.999Z</time></trkpt><trkpt lat="43.51007229861725" lon="12.547846975879361"><ele>408.33333333333337</ele><time>2026-04-29T11:01:09.999Z</time></trkpt><trkpt lat="43.51000037444487" lon="12.547551363221558"><ele>408.0</ele><time>2026-04-29T11:01:10.999Z</time></trkpt><trkpt lat="43.50992391768196" lon="12.547252359373388"><ele>406.0</ele><time>2026-04-29T11:01:11.999Z</time></trkpt><trkpt lat="43.509845576890285" lon="12.546948274550529"><ele>404.0</ele><time>2026-04-29T11:01:12.999Z</time></trkpt><trkpt lat="43.50977074272931" lon="12.546642889599989"><ele>404.0</ele><time>2026-04-29T11:01:13.999Z</time></trkpt><trkpt lat="43.509696555532464" lon="12.54633410957334"><ele>404.0</ele><time>2026-04-29T11:01:14.999Z</time></trkpt><trkpt lat="43.50962788451836" lon="12.546022685543043"><ele>404.0</ele><time>2026-04-29T11:01:15.999Z</time></trkpt><trkpt lat="43.50958850320009" lon="12.545707580526502"><ele>404.0</ele><time>2026-04-29T11:01:16.999Z</time></trkpt><trkpt lat="43.50952336664505" lon="12.54541726883302"><ele>410.66666666666663</ele><time>2026-04-29T11:01:17.999Z</time></trkpt><trkpt lat="43.50947062130918" lon="12.545144443210331"><ele>417.33333333333337</ele><time>2026-04-29T11:01:18.999Z</time></trkpt><trkpt lat="43.50938565183733" lon="12.544891301529205"><ele>424.0</ele><time>2026-04-29T11:01:19.999Z</time></trkpt><trkpt lat="43.50927544217729" lon="12.544645865711868"><ele>419.0</ele><time>2026-04-29T11:01:20.999Z</time></trkpt><trkpt lat="43.509145610509094" lon="12.544403109105934"><ele>414.0</ele><time>2026-04-29T11:01:21.999Z</time></trkpt><trkpt lat="43.509011243022265" lon="12.544154440607054"><ele>409.0</ele><time>2026-04-29T11:01:22.999Z</time></trkpt><trkpt lat="43.50887470440718" lon="12.543896631183296"><ele>407.0</ele><time>2026-04-29T11:01:23.999Z</time></trkpt><trkpt lat="43.508749337486634" lon="12.543619059531673"><ele>405.0</ele><time>2026-04-29T11:01:24.999Z</time></trkpt><trkpt lat="43.50860874894045" lon="12.543349414917676"><ele>407.0</ele><time>2026-04-29T11:01:25.999Z</time></trkpt><trkpt lat="43.508454768445226" lon="12.54309430039532"><ele>409.0</ele><time>2026-04-29T11:01:26.999Z</time></trkpt><trkpt lat="43.50831580168474" lon="12.542824611134579"><ele>409.0</ele><time>2026-04-29T11:01:27.999Z</time></trkpt><trkpt lat="43.508174177360566" lon="12.542550544444056"><ele>409.0</ele><time>2026-04-29T11:01:28.999Z</time></trkpt><trkpt lat="43.50803029239699" lon="12.54227661945281"><ele>415.0</ele><time>2026-04-29T11:01:29.999Z</time></trkpt><trkpt lat="43.50788845423639" lon="12.541999578710776"><ele>421.0</ele><time>2026-04-29T11:01:30.999Z</time></trkpt><trkpt lat="43.50774443817625" lon="12.541721265589464"><ele>421.0</ele><time>2026-04-29T11:01:31.999Z</time></trkpt><trkpt lat="43.507595334762016" lon="12.541446487380957"><ele>421.0</ele><time>2026-04-29T11:01:32.999Z</time></trkpt><trkpt lat="43.50744003289929" lon="12.541181299666754"><ele>418.5</ele><time>2026-04-29T11:01:33.999Z</time></trkpt><trkpt lat="43.50727182645528" lon="12.540927901972223"><ele>416.0</ele><time>2026-04-29T11:01:34.999Z</time></trkpt><trkpt lat="43.50709864373327" lon="12.54068210809729"><ele>417.5</ele><time>2026-04-29T11:01:35.999Z</time></trkpt><trkpt lat="43.506925142210136" lon="12.540440205976253"><ele>419.0</ele><time>2026-04-29T11:01:36.999Z</time></trkpt><trkpt lat="43.506747877533044" lon="12.540199687661772"><ele>419.0</ele><time>2026-04-29T11:01:37.999Z</time></trkpt><trkpt lat="43.506570415986054" lon="12.539953534770271"><ele>419.0</ele><time>2026-04-29T11:01:38.999Z</time></trkpt><trkpt lat="43.50639781352337" lon="12.53970825692478"><ele>425.5</ele><time>2026-04-29T11:01:39.999Z</time></trkpt><trkpt lat="43.50624364914265" lon="12.539452551200313"><ele>432.0</ele><time>2026-04-29T11:01:40.999Z</time></trkpt><trkpt lat="43.506122032181686" lon="12.53917837105238"><ele>432.0</ele><time>2026-04-29T11:01:41.999Z</time></trkpt><trkpt lat="43.50607063822484" lon="12.538875173712945"><ele>432.0</ele><time>2026-04-29T11:01:42.999Z</time></trkpt><trkpt lat="43.506005178273355" lon="12.538586897987491"><ele>432.0</ele><time>2026-04-29T11:01:43.999Z</time></trkpt><trkpt lat="43.505973638634394" lon="12.538289508822544"><ele>430.66666666666663</ele><time>2026-04-29T11:01:44.999Z</time></trkpt><trkpt lat="43.505929599090656" lon="12.537995572916936"><ele>429.3333333333333</ele><time>2026-04-29T11:01:45.999Z</time></trkpt><trkpt lat="43.50587177695176" lon="12.537697820849605"><ele>428.0</ele><time>2026-04-29T11:01:46.999Z</time></trkpt><trkpt lat="43.50581526429949" lon="12.537395487657008"><ele>427.0</ele><time>2026-04-29T11:01:48Z</time></trkpt><trkpt lat="43.5057613870827" lon="12.537089564390334"><ele>426.0</ele><time>2026-04-29T11:01:49Z</time></trkpt><trkpt lat="43.50570372250541" lon="12.536777103361837"><ele>426.0</ele><time>2026-04-29T11:01:50Z</time></trkpt><trkpt lat="43.505644769687294" lon="12.536463886729793"><ele>426.0</ele><time>2026-04-29T11:01:51Z</time></trkpt><trkpt lat="43.505586120650236" lon="12.536152868601803"><ele>425.33333333333337</ele><time>2026-04-29T11:01:52Z</time></trkpt><trkpt lat="43.50554408910698" lon="12.535871356002772"><ele>424.6666666666667</ele><time>2026-04-29T11:01:53Z</time></trkpt><trkpt lat="43.505379385282225" lon="12.535634948232746"><ele>424.0</ele><time>2026-04-29T11:01:54Z</time></trkpt><trkpt lat="43.50521102356378" lon="12.535417040702962"><ele>426.0</ele><time>2026-04-29T11:01:55Z</time></trkpt><trkpt lat="43.50502375639583" lon="12.535195055088794"><ele>428.0</ele><time>2026-04-29T11:01:56Z</time></trkpt><trkpt lat="43.504828008112625" lon="12.534961367321573"><ele>428.0</ele><time>2026-04-29T11:01:57Z</time></trkpt><trkpt lat="43.50463355816403" lon="12.534725019237056"><ele>428.0</ele><time>2026-04-29T11:01:58Z</time></trkpt><trkpt lat="43.50443687802412" lon="12.53448919603294"><ele>429.0</ele><time>2026-04-29T11:01:59Z</time></trkpt><trkpt lat="43.504250906788585" lon="12.534251460753348"><ele>430.0</ele><time>2026-04-29T11:02:00Z</time></trkpt><trkpt lat="43.50408585927747" lon="12.534000616868505"><ele>430.0</ele><time>2026-04-29T11:02:01Z</time></trkpt><trkpt lat="43.50393307405907" lon="12.53373468139797"><ele>430.0</ele><time>2026-04-29T11:02:02Z</time></trkpt><trkpt lat="43.50378370045712" lon="12.533468409497035"><ele>439.5</ele><time>2026-04-29T11:02:03Z</time></trkpt><trkpt lat="43.503637435520304" lon="12.533212262736793"><ele>449.0</ele><time>2026-04-29T11:02:04Z</time></trkpt><trkpt lat="43.50350315259689" lon="12.532973035637774"><ele>446.66666666666663</ele><time>2026-04-29T11:02:05Z</time></trkpt><trkpt lat="43.50339123278243" lon="12.5327322272517"><ele>444.33333333333337</ele><time>2026-04-29T11:02:06Z</time></trkpt><trkpt lat="43.50331087076482" lon="12.532473448608826"><ele>442.0</ele><time>2026-04-29T11:02:07Z</time></trkpt><trkpt lat="43.50326741366669" lon="12.53220456438291"><ele>441.0</ele><time>2026-04-29T11:02:08Z</time></trkpt><trkpt lat="43.50325012363532" lon="12.531924659382033"><ele>440.0</ele><time>2026-04-29T11:02:09Z</time></trkpt><trkpt lat="43.50324415508248" lon="12.531646299241968"><ele>439.0</ele><time>2026-04-29T11:02:10Z</time></trkpt><trkpt lat="43.50322827056276" lon="12.531367080440832"><ele>439.33333333333337</ele><time>2026-04-29T11:02:11Z</time></trkpt><trkpt lat="43.50320955511446" lon="12.531089211431162"><ele>439.66666666666663</ele><time>2026-04-29T11:02:12Z</time></trkpt><trkpt lat="43.50317131006255" lon="12.53083767740538"><ele>440.0</ele><time>2026-04-29T11:02:13Z</time></trkpt><trkpt lat="43.50309948751485" lon="12.530608792473409"><ele>441.66666666666663</ele><time>2026-04-29T11:02:14Z</time></trkpt><trkpt lat="43.502996199847" lon="12.530390356796964"><ele>443.33333333333337</ele><time>2026-04-29T11:02:15Z</time></trkpt><trkpt lat="43.502861761479025" lon="12.530183709352935"><ele>445.0</ele><time>2026-04-29T11:02:16Z</time></trkpt><trkpt lat="43.502712529874074" lon="12.529974191419656"><ele>446.0</ele><time>2026-04-29T11:02:17Z</time></trkpt><trkpt lat="43.50256964388483" lon="12.529765748526037"><ele>447.0</ele><time>2026-04-29T11:02:18Z</time></trkpt><trkpt lat="43.50242920843051" lon="12.529564752344115"><ele>448.0</ele><time>2026-04-29T11:02:19Z</time></trkpt><trkpt lat="43.502304947807794" lon="12.529384349697095"><ele>448.0</ele><time>2026-04-29T11:02:20Z</time></trkpt><trkpt lat="43.502201141762534" lon="12.529211466105648"><ele>448.0</ele><time>2026-04-29T11:02:21Z</time></trkpt><trkpt lat="43.50212575742453" lon="12.529029086833674"><ele>448.0</ele><time>2026-04-29T11:02:22Z</time></trkpt><trkpt lat="43.50207404791032" lon="12.528816247997755"><ele>455.0</ele><time>2026-04-29T11:02:23Z</time></trkpt><trkpt lat="43.50204763847141" lon="12.528585265109793"><ele>462.0</ele><time>2026-04-29T11:02:24Z</time></trkpt><trkpt lat="43.50205056684621" lon="12.528333917446984"><ele>469.0</ele><time>2026-04-29T11:02:25Z</time></trkpt><trkpt lat="43.5020575110354" lon="12.528071750356963"><ele>470.33333333333337</ele><time>2026-04-29T11:02:26Z</time></trkpt><trkpt lat="43.502059865380375" lon="12.527800569888988"><ele>471.66666666666663</ele><time>2026-04-29T11:02:27Z</time></trkpt><trkpt lat="43.50206202439136" lon="12.527518084797043"><ele>473.0</ele><time>2026-04-29T11:02:28Z</time></trkpt><trkpt lat="43.502062706592355" lon="12.527229233225693"><ele>473.3333333333333</ele><time>2026-04-29T11:02:29Z</time></trkpt><trkpt lat="43.5020648667872" lon="12.526934892604471"><ele>473.66666666666663</ele><time>2026-04-29T11:02:30Z</time></trkpt><trkpt lat="43.50206927640366" lon="12.526637357945758"><ele>474.0</ele><time>2026-04-29T11:02:31Z</time></trkpt><trkpt lat="43.502070529174276" lon="12.526341287381713"><ele>475.0</ele><time>2026-04-29T11:02:31.997Z</time></trkpt><trkpt lat="43.50206284481449" lon="12.526050671037373"><ele>476.0</ele><time>2026-04-29T11:02:32.997Z</time></trkpt><trkpt lat="43.50203045469157" lon="12.525766984496261"><ele>477.0</ele><time>2026-04-29T11:02:33.997Z</time></trkpt><trkpt lat="43.501980860313154" lon="12.525484187029639"><ele>476.0</ele><time>2026-04-29T11:02:34.997Z</time></trkpt><trkpt lat="43.50191839466028" lon="12.525208419307308"><ele>475.0</ele><time>2026-04-29T11:02:35.997Z</time></trkpt><trkpt lat="43.501859519898986" lon="12.5249322171476"><ele>474.0</ele><time>2026-04-29T11:02:36.997Z</time></trkpt><trkpt lat="43.50180388719634" lon="12.524652779199508"><ele>469.66666666666663</ele><time>2026-04-29T11:02:37.997Z</time></trkpt><trkpt lat="43.501749567422856" lon="12.524370216097033"><ele>465.3333333333333</ele><time>2026-04-29T11:02:38.997Z</time></trkpt><trkpt lat="43.50169968924119" lon="12.524084659897245"><ele>461.0</ele><time>2026-04-29T11:02:39.997Z</time></trkpt><trkpt lat="43.50166443608333" lon="12.523795754767981"><ele>460.0</ele><time>2026-04-29T11:02:40.997Z</time></trkpt><trkpt lat="43.5016349407889" lon="12.523503356330481"><ele>459.0</ele><time>2026-04-29T11:02:41.997Z</time></trkpt><trkpt lat="43.501600034184314" lon="12.52321471535355"><ele>458.0</ele><time>2026-04-29T11:02:42.997Z</time></trkpt><trkpt lat="43.50156521157702" lon="12.52292652741595"><ele>457.66666666666663</ele><time>2026-04-29T11:02:43.997Z</time></trkpt><trkpt lat="43.50153095932994" lon="12.522641766149397"><ele>457.33333333333337</ele><time>2026-04-29T11:02:44.997Z</time></trkpt><trkpt lat="43.50149867928958" lon="12.522365567436324"><ele>457.0</ele><time>2026-04-29T11:02:45.997Z</time></trkpt><trkpt lat="43.50146623686528" lon="12.522093013243527"><ele>458.33333333333337</ele><time>2026-04-29T11:02:46.997Z</time></trkpt><trkpt lat="43.50142862815694" lon="12.521827966024903"><ele>459.66666666666663</ele><time>2026-04-29T11:02:47.997Z</time></trkpt><trkpt lat="43.501380205695085" lon="12.52156808367297"><ele>461.0</ele><time>2026-04-29T11:02:48.998Z</time></trkpt><trkpt lat="43.501324103546665" lon="12.521313607939797"><ele>461.3333333333333</ele><time>2026-04-29T11:02:49.998Z</time></trkpt><trkpt lat="43.501263734940046" lon="12.521062194444308"><ele>461.66666666666663</ele><time>2026-04-29T11:02:50.998Z</time></trkpt><trkpt lat="43.50118524916844" lon="12.52082092634638"><ele>462.0</ele><time>2026-04-29T11:02:51.998Z</time></trkpt><trkpt lat="43.501088766320976" lon="12.520585672017601"><ele>461.0</ele><time>2026-04-29T11:02:52.998Z</time></trkpt><trkpt lat="43.50100279238391" lon="12.520398253850738"><ele>460.0</ele><time>2026-04-29T11:02:53.998Z</time></trkpt><trkpt lat="43.50091150455971" lon="12.520255948384705"><ele>459.0</ele><time>2026-04-29T11:02:54.998Z</time></trkpt><trkpt lat="43.50080880365046" lon="12.520129238820429"><ele>458.0</ele><time>2026-04-29T11:02:55.998Z</time></trkpt><trkpt lat="43.500712116107216" lon="12.520013034560655"><ele>457.99999999999994</ele><time>2026-04-29T11:02:56.998Z</time></trkpt><trkpt lat="43.500631921193516" lon="12.51990946923297"><ele>458.0</ele><time>2026-04-29T11:02:57.998Z</time></trkpt><trkpt lat="43.500562406690236" lon="12.519813692426004"><ele>458.0</ele><time>2026-04-29T11:02:58.998Z</time></trkpt><trkpt lat="43.500504091574555" lon="12.519735178449583"><ele>458.0</ele><time>2026-04-29T11:02:59.998Z</time></trkpt><trkpt lat="43.50044979509452" lon="12.519678708565042"><ele>457.99999999999994</ele><time>2026-04-29T11:03:00.998Z</time></trkpt><trkpt lat="43.50038963695671" lon="12.519625328072088"><ele>458.0</ele><time>2026-04-29T11:03:01.998Z</time></trkpt><trkpt lat="43.50032058963576" lon="12.519577586190703"><ele>459.49999999999994</ele><time>2026-04-29T11:03:02.998Z</time></trkpt><trkpt lat="43.500244207518705" lon="12.519540813717768"><ele>461.0</ele><time>2026-04-29T11:03:03.998Z</time></trkpt><trkpt lat="43.50016350451149" lon="12.519498432120082"><ele>462.5</ele><time>2026-04-29T11:03:04.998Z</time></trkpt><trkpt lat="43.500082270509935" lon="12.519453005574977"><ele>464.0</ele><time>2026-04-29T11:03:05.998Z</time></trkpt><trkpt lat="43.50000256699002" lon="12.519408755358095"><ele>465.49999999999994</ele><time>2026-04-29T11:03:06.999Z</time></trkpt><trkpt lat="43.49991763282373" lon="12.519361575843682"><ele>467.0</ele><time>2026-04-29T11:03:07.999Z</time></trkpt><trkpt lat="43.49983252236845" lon="12.519310208940857"><ele>467.0</ele><time>2026-04-29T11:03:08.999Z</time></trkpt><trkpt lat="43.4997430374511" lon="12.519264980978976"><ele>467.00000000000006</ele><time>2026-04-29T11:03:09.999Z</time></trkpt><trkpt lat="43.49965101188445" lon="12.51922021794956"><ele>467.00000000000006</ele><time>2026-04-29T11:03:10.999Z</time></trkpt><trkpt lat="43.499557629131544" lon="12.519180232591605"><ele>467.0</ele><time>2026-04-29T11:03:11.999Z</time></trkpt><trkpt lat="43.49947030511913" lon="12.519133802784177"><ele>467.0</ele><time>2026-04-29T11:03:12.999Z</time></trkpt><trkpt lat="43.49938842114303" lon="12.51907498548746"><ele>467.6</ele><time>2026-04-29T11:03:13.999Z</time></trkpt><trkpt lat="43.49931512967752" lon="12.518985832581452"><ele>468.20000000000005</ele><time>2026-04-29T11:03:14.999Z</time></trkpt><trkpt lat="43.49924675831925" lon="12.51888580006756"><ele>468.8</ele><time>2026-04-29T11:03:15.999Z</time></trkpt><trkpt lat="43.49916758969652" lon="12.518770088663796"><ele>469.4</ele><time>2026-04-29T11:03:16.999Z</time></trkpt><trkpt lat="43.49906494227619" lon="12.51866418298624"><ele>470.0</ele><time>2026-04-29T11:03:17.999Z</time></trkpt><trkpt lat="43.498957372918554" lon="12.518560635841764"><ele>470.0</ele><time>2026-04-29T11:03:18.999Z</time></trkpt><trkpt lat="43.4988668955748" lon="12.518446888413234"><ele>470.0</ele><time>2026-04-29T11:03:19.999Z</time></trkpt><trkpt lat="43.498802034226735" lon="12.518315911923452"><ele>470.0</ele><time>2026-04-29T11:03:20.999Z</time></trkpt><trkpt lat="43.49875628607906" lon="12.518169362960153"><ele>470.0</ele><time>2026-04-29T11:03:21.999Z</time></trkpt><trkpt lat="43.49872603440233" lon="12.518009087392876"><ele>469.75</ele><time>2026-04-29T11:03:22.999Z</time></trkpt><trkpt lat="43.49872815477164" lon="12.517851706286391"><ele>469.5</ele><time>2026-04-29T11:03:23.999Z</time></trkpt><trkpt lat="43.49876252437261" lon="12.517702115217059"><ele>469.25</ele><time>2026-04-29T11:03:24.999Z</time></trkpt><trkpt lat="43.49878793400925" lon="12.517523613998177"><ele>469.0</ele><time>2026-04-29T11:03:25.999Z</time></trkpt><trkpt lat="43.498830907308914" lon="12.517319508450331"><ele>469.0</ele><time>2026-04-29T11:03:26.999Z</time></trkpt><trkpt lat="43.498862898976355" lon="12.517127345877947"><ele>469.0</ele><time>2026-04-29T11:03:27.999Z</time></trkpt><trkpt lat="43.498891089935185" lon="12.516955177667615"><ele>469.0</ele><time>2026-04-29T11:03:28.999Z</time></trkpt><trkpt lat="43.49891658901139" lon="12.516803812803461"><ele>469.0</ele><time>2026-04-29T11:03:29.999Z</time></trkpt><trkpt lat="43.49892867510676" lon="12.516655415273421"><ele>469.79999999999995</ele><time>2026-04-29T11:03:30.999Z</time></trkpt><trkpt lat="43.49892076050466" lon="12.516524929328389"><ele>470.59999999999997</ele><time>2026-04-29T11:03:31.999Z</time></trkpt><trkpt lat="43.49888409597302" lon="12.516414483652214"><ele>471.4</ele><time>2026-04-29T11:03:32.999Z</time></trkpt><trkpt lat="43.498823408312674" lon="12.516311263386168"><ele>472.2</ele><time>2026-04-29T11:03:33.999Z</time></trkpt><trkpt lat="43.49874795310369" lon="12.51623219885952"><ele>473.0</ele><time>2026-04-29T11:03:34.999Z</time></trkpt><trkpt lat="43.49865861767644" lon="12.516172861237557"><ele>473.5</ele><time>2026-04-29T11:03:35.999Z</time></trkpt><trkpt lat="43.498555713128255" lon="12.516115211412346"><ele>474.0</ele><time>2026-04-29T11:03:36.999Z</time></trkpt><trkpt lat="43.498441299760096" lon="12.516051272192794"><ele>474.5</ele><time>2026-04-29T11:03:37.999Z</time></trkpt><trkpt lat="43.49830444556301" lon="12.515983373253782"><ele>475.0</ele><time>2026-04-29T11:03:38.999Z</time></trkpt><trkpt lat="43.49816845849099" lon="12.515912206013365"><ele>475.0</ele><time>2026-04-29T11:03:40Z</time></trkpt><trkpt lat="43.49806302537112" lon="12.515836319565414"><ele>475.0</ele><time>2026-04-29T11:03:41Z</time></trkpt><trkpt lat="43.49797457183186" lon="12.515747410415619"><ele>475.0</ele><time>2026-04-29T11:03:42Z</time></trkpt><trkpt lat="43.4978906674938" lon="12.515639592943067"><ele>475.0</ele><time>2026-04-29T11:03:43Z</time></trkpt><trkpt lat="43.49780502216184" lon="12.515534139670395"><ele>475.0</ele><time>2026-04-29T11:03:44Z</time></trkpt><trkpt lat="43.49772477831578" lon="12.51543709306091"><ele>475.0</ele><time>2026-04-29T11:03:45Z</time></trkpt><trkpt lat="43.49766266458885" lon="12.515327269616714"><ele>475.0</ele><time>2026-04-29T11:03:46Z</time></trkpt><trkpt lat="43.49760748792459" lon="12.515187192414698"><ele>475.0</ele><time>2026-04-29T11:03:47Z</time></trkpt><trkpt lat="43.497570572951275" lon="12.515039188538639"><ele>475.0</ele><time>2026-04-29T11:03:48Z</time></trkpt><trkpt lat="43.49751740343662" lon="12.514925855151972"><ele>475.0</ele><time>2026-04-29T11:03:49Z</time></trkpt><trkpt lat="43.49746625911817" lon="12.51482709269273"><ele>475.0</ele><time>2026-04-29T11:03:50Z</time></trkpt><trkpt lat="43.49739983487171" lon="12.514746214756272"><ele>475.0</ele><time>2026-04-29T11:03:51Z</time></trkpt><trkpt lat="43.49733726202543" lon="12.514651814007717"><ele>475.0</ele><time>2026-04-29T11:03:52Z</time></trkpt><trkpt lat="43.497263118366924" lon="12.514538432822219"><ele>475.0</ele><time>2026-04-29T11:03:53Z</time></trkpt><trkpt lat="43.49718506629348" lon="12.514424469868729"><ele>474.6</ele><time>2026-04-29T11:03:54Z</time></trkpt><trkpt lat="43.49712273317274" lon="12.514344263706514"><ele>474.2</ele><time>2026-04-29T11:03:55Z</time></trkpt><trkpt lat="43.49703754220566" lon="12.514294899080872"><ele>473.79999999999995</ele><time>2026-04-29T11:03:56Z</time></trkpt><trkpt lat="43.49693304853813" lon="12.514244906508013"><ele>473.4</ele><time>2026-04-29T11:03:57Z</time></trkpt><trkpt lat="43.496821053756484" lon="12.514167308622012"><ele>473.0</ele><time>2026-04-29T11:03:58Z</time></trkpt><trkpt lat="43.49674217036623" lon="12.514112170172048"><ele>472.99999999999994</ele><time>2026-04-29T11:03:59Z</time></trkpt><trkpt lat="43.496679741754804" lon="12.514047703095631"><ele>473.0</ele><time>2026-04-29T11:04:00Z</time></trkpt><trkpt lat="43.49661962899415" lon="12.513968370416821"><ele>473.0</ele><time>2026-04-29T11:04:01Z</time></trkpt><trkpt lat="43.496575988667324" lon="12.513871130532973"><ele>473.0</ele><time>2026-04-29T11:04:02Z</time></trkpt><trkpt lat="43.49651717115296" lon="12.513773754395592"><ele>472.99999999999994</ele><time>2026-04-29T11:04:03Z</time></trkpt><trkpt lat="43.496454292036454" lon="12.513702135576656"><ele>473.0</ele><time>2026-04-29T11:04:04Z</time></trkpt><trkpt lat="43.49635746586006" lon="12.513683840131318"><ele>472.0</ele><time>2026-04-29T11:04:05Z</time></trkpt><trkpt lat="43.49627150383827" lon="12.51363046167813"><ele>471.0</ele><time>2026-04-29T11:04:06Z</time></trkpt><trkpt lat="43.496144740699336" lon="12.513623739880957"><ele>470.0</ele><time>2026-04-29T11:04:07Z</time></trkpt><trkpt lat="43.49601584308386" lon="12.513627925828562"><ele>469.0</ele><time>2026-04-29T11:04:08Z</time></trkpt><trkpt lat="43.49588784199385" lon="12.513629027613234"><ele>469.0</ele><time>2026-04-29T11:04:09Z</time></trkpt><trkpt lat="43.495799304774756" lon="12.513621590783176"><ele>469.0</ele><time>2026-04-29T11:04:10Z</time></trkpt><trkpt lat="43.49574966950652" lon="12.51355215886698"><ele>469.0</ele><time>2026-04-29T11:04:12Z</time></trkpt><trkpt lat="43.495738136172754" lon="12.513390238824616"><ele>469.0</ele><time>2026-04-29T11:04:14Z</time></trkpt><trkpt lat="43.4957498168702" lon="12.51322520130981"><ele>469.0</ele><time>2026-04-29T11:04:15Z</time></trkpt><trkpt lat="43.49575508213201" lon="12.51304290579991"><ele>468.79999999999995</ele><time>2026-04-29T11:04:16Z</time></trkpt><trkpt lat="43.49575829231625" lon="12.512864749530273"><ele>468.59999999999997</ele><time>2026-04-29T11:04:17Z</time></trkpt><trkpt lat="43.49575517176631" lon="12.512725065302842"><ele>468.4</ele><time>2026-04-29T11:04:18Z</time></trkpt><trkpt lat="43.495747110104375" lon="12.512593263913336"><ele>468.2</ele><time>2026-04-29T11:04:19Z</time></trkpt><trkpt lat="43.495720397789945" lon="12.512451655744348"><ele>468.0</ele><time>2026-04-29T11:04:20Z</time></trkpt><trkpt lat="43.49566994787011" lon="12.512307679320937"><ele>468.0</ele><time>2026-04-29T11:04:21Z</time></trkpt><trkpt lat="43.495623910145824" lon="12.51214138938506"><ele>468.0</ele><time>2026-04-29T11:04:22Z</time></trkpt><trkpt lat="43.49556538389134" lon="12.511943410096766"><ele>468.0</ele><time>2026-04-29T11:04:23.001Z</time></trkpt><trkpt lat="43.4955104728095" lon="12.511755764624658"><ele>468.0</ele><time>2026-04-29T11:04:24.001Z</time></trkpt><trkpt lat="43.49544171829429" lon="12.511543566976567"><ele>470.0</ele><time>2026-04-29T11:04:25.001Z</time></trkpt><trkpt lat="43.495379015221616" lon="12.511329739988867"><ele>472.0</ele><time>2026-04-29T11:04:26.001Z</time></trkpt><trkpt lat="43.49532398618895" lon="12.511121424983628"><ele>474.0</ele><time>2026-04-29T11:04:27.001Z</time></trkpt><trkpt lat="43.49527020326452" lon="12.510920865183456"><ele>475.0</ele><time>2026-04-29T11:04:28.001Z</time></trkpt><trkpt lat="43.4952168375241" lon="12.510722980492979"><ele>476.0</ele><time>2026-04-29T11:04:29.001Z</time></trkpt><trkpt lat="43.49517175864728" lon="12.51055698345305"><ele>477.0</ele><time>2026-04-29T11:04:30.001Z</time></trkpt><trkpt lat="43.49514272656262" lon="12.510426487757272"><ele>478.0</ele><time>2026-04-29T11:04:31.001Z</time></trkpt><trkpt lat="43.4951217859401" lon="12.51031724727524"><ele>480.0</ele><time>2026-04-29T11:04:32.001Z</time></trkpt><trkpt lat="43.49507843849109" lon="12.510225476163086"><ele>481.99999999999994</ele><time>2026-04-29T11:04:33.001Z</time></trkpt><trkpt lat="43.49503661735983" lon="12.510138333285566"><ele>483.99999999999994</ele><time>2026-04-29T11:04:34.001Z</time></trkpt><trkpt lat="43.49494663103949" lon="12.510089269759176"><ele>486.0</ele><time>2026-04-29T11:04:35.001Z</time></trkpt><trkpt lat="43.494850543823844" lon="12.510068712259617"><ele>488.0</ele><time>2026-04-29T11:04:36.001Z</time></trkpt><trkpt lat="43.49474737046206" lon="12.510042521258065"><ele>488.0</ele><time>2026-04-29T11:04:37.001Z</time></trkpt><trkpt lat="43.494643392377824" lon="12.510015270397233"><ele>487.99999999999994</ele><time>2026-04-29T11:04:37.997Z</time></trkpt><trkpt lat="43.49455136185501" lon="12.509986103567922"><ele>487.99999999999994</ele><time>2026-04-29T11:04:38.997Z</time></trkpt><trkpt lat="43.494471354866576" lon="12.509957240298421"><ele>488.0</ele><time>2026-04-29T11:04:39.997Z</time></trkpt><trkpt lat="43.49441201995429" lon="12.509901136174191"><ele>488.0</ele><time>2026-04-29T11:04:41.997Z</time></trkpt><trkpt lat="43.49448820157676" lon="12.509804223608338"><ele>488.0</ele><time>2026-04-29T11:04:45.998Z</time></trkpt><trkpt lat="43.49457125881893" lon="12.509808291933172"><ele>487.99999999999994</ele><time>2026-04-29T11:04:46.998Z</time></trkpt><trkpt lat="43.49463956425378" lon="12.509801626748"><ele>487.99999999999994</ele><time>2026-04-29T11:04:47.998Z</time></trkpt><trkpt lat="43.494746464759224" lon="12.509772096440514"><ele>488.0</ele><time>2026-04-29T11:04:49.998Z</time></trkpt><trkpt lat="43.494842034964286" lon="12.509676409134538"><ele>488.0</ele><time>2026-04-29T11:04:51.998Z</time></trkpt><trkpt lat="43.49488016921994" lon="12.509590509624251"><ele>490.59999999999997</ele><time>2026-04-29T11:04:52.998Z</time></trkpt><trkpt lat="43.49490938427334" lon="12.509496437960516"><ele>493.19999999999993</ele><time>2026-04-29T11:04:53.998Z</time></trkpt><trkpt lat="43.49495769758877" lon="12.509415328321948"><ele>495.8</ele><time>2026-04-29T11:04:54.998Z</time></trkpt><trkpt lat="43.49498095000275" lon="12.50927717653342"><ele>498.4</ele><time>2026-04-29T11:04:56.998Z</time></trkpt><trkpt lat="43.49490026403444" lon="12.509194503882494"><ele>501.0</ele><time>2026-04-29T11:04:58.998Z</time></trkpt><trkpt lat="43.49481134365547" lon="12.509253347576323"><ele>501.0</ele><time>2026-04-29T11:05:00.998Z</time></trkpt><trkpt lat="43.49476488535301" lon="12.509325277875242"><ele>501.0</ele><time>2026-04-29T11:05:01.999Z</time></trkpt><trkpt lat="43.49469037903798" lon="12.50934846029821"><ele>501.0</ele><time>2026-04-29T11:05:02.999Z</time></trkpt><trkpt lat="43.49462806312313" lon="12.509398902214796"><ele>501.0</ele><time>2026-04-29T11:05:03.999Z</time></trkpt><trkpt lat="43.49452492610626" lon="12.50931658258326"><ele>501.0</ele><time>2026-04-29T11:05:05.999Z</time></trkpt><trkpt lat="43.49445253520998" lon="12.509273830466968"><ele>501.0</ele><time>2026-04-29T11:05:06.999Z</time></trkpt><trkpt lat="43.49435964126261" lon="12.509222223786214"><ele>503.6</ele><time>2026-04-29T11:05:07.999Z</time></trkpt><trkpt lat="43.4942690478496" lon="12.509190634431029"><ele>506.20000000000005</ele><time>2026-04-29T11:05:08.999Z</time></trkpt><trkpt lat="43.49416897609123" lon="12.509218990788646"><ele>508.79999999999995</ele><time>2026-04-29T11:05:09.999Z</time></trkpt><trkpt lat="43.49407346504899" lon="12.509208650256873"><ele>511.4</ele><time>2026-04-29T11:05:10.999Z</time></trkpt><trkpt lat="43.49397269474678" lon="12.509117445649068"><ele>514.0</ele><time>2026-04-29T11:05:11.999Z</time></trkpt><trkpt lat="43.49385992345898" lon="12.509105448962526"><ele>513.8</ele><time>2026-04-29T11:05:12.999Z</time></trkpt><trkpt lat="43.49375341474202" lon="12.50913476659009"><ele>513.5999999999999</ele><time>2026-04-29T11:05:13.999Z</time></trkpt><trkpt lat="43.493649323884306" lon="12.50911821827682"><ele>513.4</ele><time>2026-04-29T11:05:14.999Z</time></trkpt><trkpt lat="43.49356182459751" lon="12.509090745555302"><ele>513.1999999999999</ele><time>2026-04-29T11:05:15.999Z</time></trkpt><trkpt lat="43.493490115363905" lon="12.509031090960436"><ele>513.0</ele><time>2026-04-29T11:05:16.999Z</time></trkpt><trkpt lat="43.493419302960895" lon="12.50895390651135"><ele>513.0</ele><time>2026-04-29T11:05:17.999Z</time></trkpt><trkpt lat="43.49332459072759" lon="12.50888212121115"><ele>513.0</ele><time>2026-04-29T11:05:18.999Z</time></trkpt><trkpt lat="43.493237227129455" lon="12.5088129800043"><ele>513.0</ele><time>2026-04-29T11:05:19.999Z</time></trkpt><trkpt lat="43.4931701302915" lon="12.508780138821718"><ele>513.0</ele><time>2026-04-29T11:05:20.999Z</time></trkpt><trkpt lat="43.49305849190237" lon="12.508805786824299"><ele>513.0</ele><time>2026-04-29T11:05:22.999Z</time></trkpt><trkpt lat="43.49300497085576" lon="12.508881236155876"><ele>513.0</ele><time>2026-04-29T11:05:23.999Z</time></trkpt><trkpt lat="43.49294384222206" lon="12.508982048236707"><ele>513.0</ele><time>2026-04-29T11:05:24.999Z</time></trkpt><trkpt lat="43.492880117025464" lon="12.509122583733063"><ele>513.0</ele><time>2026-04-29T11:05:25.999Z</time></trkpt><trkpt lat="43.492834977448524" lon="12.509226990874357"><ele>513.0</ele><time>2026-04-29T11:05:27Z</time></trkpt><trkpt lat="43.4927943258954" lon="12.509300023292814"><ele>513.0</ele><time>2026-04-29T11:05:28Z</time></trkpt><trkpt lat="43.492679230758114" lon="12.509367442058714"><ele>516.8</ele><time>2026-04-29T11:05:30Z</time></trkpt><trkpt lat="43.492601015515966" lon="12.509406710092996"><ele>520.5999999999999</ele><time>2026-04-29T11:05:31Z</time></trkpt><trkpt lat="43.49253396601931" lon="12.509457153888146"><ele>524.4000000000001</ele><time>2026-04-29T11:05:32Z</time></trkpt><trkpt lat="43.492387893616566" lon="12.509375735278624"><ele>528.2</ele><time>2026-04-29T11:05:34Z</time></trkpt><trkpt lat="43.49232543006446" lon="12.509363455440232"><ele>532.0</ele><time>2026-04-29T11:05:35Z</time></trkpt><trkpt lat="43.49224961905556" lon="12.509321585126708"><ele>532.0</ele><time>2026-04-29T11:05:36Z</time></trkpt><trkpt lat="43.49217791543304" lon="12.509249978244295"><ele>532.0</ele><time>2026-04-29T11:05:37Z</time></trkpt><trkpt lat="43.49212825034226" lon="12.50917389768794"><ele>532.0</ele><time>2026-04-29T11:05:38Z</time></trkpt><trkpt lat="43.49209388069311" lon="12.509083507183156"><ele>532.0</ele><time>2026-04-29T11:05:39Z</time></trkpt><trkpt lat="43.49207032120862" lon="12.50897758797542"><ele>532.0</ele><time>2026-04-29T11:05:40Z</time></trkpt><trkpt lat="43.49205645120679" lon="12.508855306668035"><ele>532.0</ele><time>2026-04-29T11:05:41Z</time></trkpt><trkpt lat="43.49203331143575" lon="12.508733223840181"><ele>532.1666666666667</ele><time>2026-04-29T11:05:42Z</time></trkpt><trkpt lat="43.49198849179755" lon="12.508642251850247"><ele>532.3333333333334</ele><time>2026-04-29T11:05:43Z</time></trkpt><trkpt lat="43.49192581714915" lon="12.508584443713064"><ele>532.5</ele><time>2026-04-29T11:05:44Z</time></trkpt><trkpt lat="43.4918474711904" lon="12.508556846687219"><ele>532.6666666666666</ele><time>2026-04-29T11:05:45Z</time></trkpt><trkpt lat="43.49177928350691" lon="12.508577937735707"><ele>532.8333333333333</ele><time>2026-04-29T11:05:46Z</time></trkpt><trkpt lat="43.491725383392364" lon="12.508645060168707"><ele>533.0</ele><time>2026-04-29T11:05:47Z</time></trkpt><trkpt lat="43.49168717394518" lon="12.508750759043632"><ele>533.0</ele><time>2026-04-29T11:05:48Z</time></trkpt><trkpt lat="43.491632631353575" lon="12.508884454422393"><ele>533.0</ele><time>2026-04-29T11:05:49Z</time></trkpt><trkpt lat="43.491571763085034" lon="12.50900605112856"><ele>533.0</ele><time>2026-04-29T11:05:50Z</time></trkpt><trkpt lat="43.49151197477576" lon="12.509085506701972"><ele>533.0</ele><time>2026-04-29T11:05:51Z</time></trkpt><trkpt lat="43.491409540991214" lon="12.509140695402197"><ele>533.0</ele><time>2026-04-29T11:05:53Z</time></trkpt><trkpt lat="43.4913129650487" lon="12.509045759995148"><ele>533.0</ele><time>2026-04-29T11:05:55Z</time></trkpt><trkpt lat="43.49129379083743" lon="12.508949560146323"><ele>533.0</ele><time>2026-04-29T11:05:56Z</time></trkpt><trkpt lat="43.49129614694271" lon="12.508855041730932"><ele>533.0</ele><time>2026-04-29T11:05:57Z</time></trkpt><trkpt lat="43.491319149103845" lon="12.508759067126483"><ele>533.0</ele><time>2026-04-29T11:05:58Z</time></trkpt><trkpt lat="43.49135492463114" lon="12.508613480625826"><ele>533.0</ele><time>2026-04-29T11:05:59Z</time></trkpt><trkpt lat="43.49138818605759" lon="12.508441555858308"><ele>536.4</ele><time>2026-04-29T11:06:00Z</time></trkpt><trkpt lat="43.491410685493136" lon="12.508269874639751"><ele>539.8</ele><time>2026-04-29T11:06:01Z</time></trkpt><trkpt lat="43.49142395137474" lon="12.508126671007773"><ele>543.2</ele><time>2026-04-29T11:06:02.001Z</time></trkpt><trkpt lat="43.49142904518183" lon="12.508013479043582"><ele>546.6</ele><time>2026-04-29T11:06:03.001Z</time></trkpt><trkpt lat="43.49141586149607" lon="12.507919828717384"><ele>550.0</ele><time>2026-04-29T11:06:04.001Z</time></trkpt><trkpt lat="43.49138332300959" lon="12.507827405988309"><ele>550.8333333333334</ele><time>2026-04-29T11:06:05.001Z</time></trkpt><trkpt lat="43.49133970073604" lon="12.507744986060619"><ele>551.6666666666667</ele><time>2026-04-29T11:06:06.001Z</time></trkpt><trkpt lat="43.49128583146328" lon="12.507675620556238"><ele>552.5</ele><time>2026-04-29T11:06:07.001Z</time></trkpt><trkpt lat="43.491228281210184" lon="12.507615711791127"><ele>553.3333333333334</ele><time>2026-04-29T11:06:08.001Z</time></trkpt><trkpt lat="43.491154794126494" lon="12.507535055698192"><ele>554.1666666666666</ele><time>2026-04-29T11:06:09.001Z</time></trkpt><trkpt lat="43.49106485442166" lon="12.507462903733142"><ele>555.0</ele><time>2026-04-29T11:06:10.001Z</time></trkpt><trkpt lat="43.490987229972575" lon="12.507411346262373"><ele>555.0</ele><time>2026-04-29T11:06:11.001Z</time></trkpt><trkpt lat="43.49089855693985" lon="12.507371137684403"><ele>555.0</ele><time>2026-04-29T11:06:12.001Z</time></trkpt><trkpt lat="43.490796724693624" lon="12.507325445605305"><ele>555.0</ele><time>2026-04-29T11:06:13.001Z</time></trkpt><trkpt lat="43.490698121838825" lon="12.507285467433281"><ele>555.0</ele><time>2026-04-29T11:06:14.001Z</time></trkpt><trkpt lat="43.49061540916092" lon="12.507234762313592"><ele>555.0</ele><time>2026-04-29T11:06:15.001Z</time></trkpt><trkpt lat="43.49054606597812" lon="12.50717399237538"><ele>555.0</ele><time>2026-04-29T11:06:16.001Z</time></trkpt><trkpt lat="43.49046451859227" lon="12.507096196949949"><ele>555.0</ele><time>2026-04-29T11:06:17.001Z</time></trkpt><trkpt lat="43.490373689307546" lon="12.507010484028102"><ele>555.0</ele><time>2026-04-29T11:06:18.001Z</time></trkpt><trkpt lat="43.49027834638383" lon="12.506926624538576"><ele>555.0</ele><time>2026-04-29T11:06:19.001Z</time></trkpt><trkpt lat="43.49017680648161" lon="12.506830394396305"><ele>555.0</ele><time>2026-04-29T11:06:20.001Z</time></trkpt><trkpt lat="43.490073951257365" lon="12.506731779393714"><ele>557.2</ele><time>2026-04-29T11:06:21.001Z</time></trkpt><trkpt lat="43.48999142915122" lon="12.506642265392424"><ele>559.4</ele><time>2026-04-29T11:06:22.001Z</time></trkpt><trkpt lat="43.489907640842574" lon="12.506561275946554"><ele>561.6</ele><time>2026-04-29T11:06:23.001Z</time></trkpt><trkpt lat="43.48982850955726" lon="12.50650392589579"><ele>563.8</ele><time>2026-04-29T11:06:24.001Z</time></trkpt><trkpt lat="43.48974688054041" lon="12.506466065350814"><ele>566.0</ele><time>2026-04-29T11:06:25.001Z</time></trkpt><trkpt lat="43.489668236190184" lon="12.506458736114014"><ele>566.8333333333333</ele><time>2026-04-29T11:06:26.001Z</time></trkpt><trkpt lat="43.48958384099691" lon="12.506464993527352"><ele>567.6666666666666</ele><time>2026-04-29T11:06:27.001Z</time></trkpt><trkpt lat="43.48949203539605" lon="12.506459183060503"><ele>568.5</ele><time>2026-04-29T11:06:28.001Z</time></trkpt><trkpt lat="43.48938765666178" lon="12.506435208148414"><ele>569.3333333333334</ele><time>2026-04-29T11:06:29.001Z</time></trkpt><trkpt lat="43.48930100941796" lon="12.506423751355062"><ele>570.1666666666667</ele><time>2026-04-29T11:06:30.001Z</time></trkpt><trkpt lat="43.489235510593446" lon="12.506426752048537"><ele>571.0</ele><time>2026-04-29T11:06:31.001Z</time></trkpt><trkpt lat="43.489133812079864" lon="12.506506113910332"><ele>571.0</ele><time>2026-04-29T11:06:33.001Z</time></trkpt><trkpt lat="43.489082474271804" lon="12.506568687483975"><ele>571.0</ele><time>2026-04-29T11:06:34.001Z</time></trkpt><trkpt lat="43.489021405780775" lon="12.506644688472326"><ele>571.0</ele><time>2026-04-29T11:06:35.001Z</time></trkpt><trkpt lat="43.488960899445715" lon="12.506696774919124"><ele>571.0</ele><time>2026-04-29T11:06:36.001Z</time></trkpt><trkpt lat="43.48886716530938" lon="12.506670396904008"><ele>571.0</ele><time>2026-04-29T11:06:38.001Z</time></trkpt><trkpt lat="43.48882701626253" lon="12.506570691560208"><ele>571.0</ele><time>2026-04-29T11:06:40.002Z</time></trkpt><trkpt lat="43.48879948684867" lon="12.506408328512023"><ele>571.0</ele><time>2026-04-29T11:06:42.002Z</time></trkpt><trkpt lat="43.48878035018959" lon="12.506297157478846"><ele>571.0</ele><time>2026-04-29T11:06:43.002Z</time></trkpt><trkpt lat="43.488749736743365" lon="12.506199436590622"><ele>571.0</ele><time>2026-04-29T11:06:43.998Z</time></trkpt><trkpt lat="43.488706765988795" lon="12.506101806858194"><ele>571.0</ele><time>2026-04-29T11:06:44.998Z</time></trkpt><trkpt lat="43.48868874053352" lon="12.506017677807261"><ele>571.0</ele><time>2026-04-29T11:06:45.998Z</time></trkpt><trkpt lat="43.48867814497487" lon="12.505883785687569"><ele>571.0</ele><time>2026-04-29T11:06:47.998Z</time></trkpt><trkpt lat="43.488761722956745" lon="12.50585760865867"><ele>575.0</ele><time>2026-04-29T11:06:49.998Z</time></trkpt><trkpt lat="43.48884366930907" lon="12.505934061506084"><ele>579.0</ele><time>2026-04-29T11:06:51.998Z</time></trkpt><trkpt lat="43.488890228400116" lon="12.506006627419039"><ele>583.0</ele><time>2026-04-29T11:06:52.998Z</time></trkpt><trkpt lat="43.488943381357544" lon="12.506083979952571"><ele>587.0</ele><time>2026-04-29T11:06:53.998Z</time></trkpt><trkpt lat="43.48905807919847" lon="12.506067790171194"><ele>591.0</ele><time>2026-04-29T11:06:55.998Z</time></trkpt><trkpt lat="43.489121557957866" lon="12.506015185656272"><ele>595.0</ele><time>2026-04-29T11:06:56.998Z</time></trkpt><trkpt lat="43.48919164927048" lon="12.505938554634977"><ele>595.0</ele><time>2026-04-29T11:06:57.998Z</time></trkpt><trkpt lat="43.48926895134545" lon="12.505883280409122"><ele>595.0</ele><time>2026-04-29T11:06:58.998Z</time></trkpt><trkpt lat="43.489354765787155" lon="12.505851746958864"><ele>595.0</ele><time>2026-04-29T11:06:59.998Z</time></trkpt><trkpt lat="43.489449709039036" lon="12.505831869847214"><ele>595.0</ele><time>2026-04-29T11:07:00.998Z</time></trkpt><trkpt lat="43.48954738616994" lon="12.505821588577133"><ele>595.0</ele><time>2026-04-29T11:07:01.998Z</time></trkpt><trkpt lat="43.48966236026927" lon="12.505814742764922"><ele>595.5</ele><time>2026-04-29T11:07:02.998Z</time></trkpt><trkpt lat="43.489778995044574" lon="12.505801907021064"><ele>596.0</ele><time>2026-04-29T11:07:03.999Z</time></trkpt><trkpt lat="43.489890779908265" lon="12.505789896622609"><ele>596.5</ele><time>2026-04-29T11:07:04.999Z</time></trkpt><trkpt lat="43.49000282234986" lon="12.505767136713356"><ele>597.0</ele><time>2026-04-29T11:07:05.999Z</time></trkpt><trkpt lat="43.49010817755329" lon="12.505733078010898"><ele>597.0</ele><time>2026-04-29T11:07:06.999Z</time></trkpt><trkpt lat="43.490198058975935" lon="12.505697399897217"><ele>597.0</ele><time>2026-04-29T11:07:07.999Z</time></trkpt><trkpt lat="43.49026094733249" lon="12.505676170170377"><ele>597.0</ele><time>2026-04-29T11:07:08.999Z</time></trkpt><trkpt lat="43.49032321552332" lon="12.505608124967289"><ele>597.0</ele><time>2026-04-29T11:07:10.999Z</time></trkpt><trkpt lat="43.49025789823204" lon="12.505540467062758"><ele>597.0</ele><time>2026-04-29T11:07:13.999Z</time></trkpt><trkpt lat="43.49018605980445" lon="12.505567919311629"><ele>597.0</ele><time>2026-04-29T11:07:40Z</time></trkpt><trkpt lat="43.49005944387752" lon="12.50562115299558"><ele>597.0</ele><time>2026-04-29T11:07:42Z</time></trkpt><trkpt lat="43.489988250308876" lon="12.505642315283158"><ele>597.0</ele><time>2026-04-29T11:07:43Z</time></trkpt><trkpt lat="43.48986885626069" lon="12.505649637664787"><ele>597.0</ele><time>2026-04-29T11:07:45Z</time></trkpt><trkpt lat="43.48976296620402" lon="12.505634228152159"><ele>597.0</ele><time>2026-04-29T11:07:47Z</time></trkpt><trkpt lat="43.48966172050059" lon="12.505606473352776"><ele>597.0</ele><time>2026-04-29T11:07:49Z</time></trkpt><trkpt lat="43.489547584069115" lon="12.50555334372059"><ele>596.6666666666666</ele><time>2026-04-29T11:07:51Z</time></trkpt><trkpt lat="43.48944671728033" lon="12.50547289234114"><ele>596.3333333333334</ele><time>2026-04-29T11:07:53Z</time></trkpt><trkpt lat="43.48935947394213" lon="12.505368453459376"><ele>596.0</ele><time>2026-04-29T11:07:55Z</time></trkpt><trkpt lat="43.4893124038214" lon="12.505297584728776"><ele>595.6666666666667</ele><time>2026-04-29T11:07:56.001Z</time></trkpt><trkpt lat="43.48926537672859" lon="12.505217138688456"><ele>595.3333333333334</ele><time>2026-04-29T11:07:57.001Z</time></trkpt><trkpt lat="43.489229418710636" lon="12.505141216704848"><ele>595.0</ele><time>2026-04-29T11:07:58.001Z</time></trkpt><trkpt lat="43.48917091350053" lon="12.505034006077352"><ele>598.5</ele><time>2026-04-29T11:08:00.001Z</time></trkpt><trkpt lat="43.489126715914054" lon="12.504947458925715"><ele>602.0</ele><time>2026-04-29T11:08:02.001Z</time></trkpt><trkpt lat="43.48905324947236" lon="12.504863093451007"><ele>605.5</ele><time>2026-04-29T11:08:04.001Z</time></trkpt><trkpt lat="43.48899009862474" lon="12.504824015992517"><ele>609.0</ele><time>2026-04-29T11:08:05.001Z</time></trkpt><trkpt lat="43.48893283994932" lon="12.504762262721586"><ele>612.5</ele><time>2026-04-29T11:08:06.001Z</time></trkpt><trkpt lat="43.4888659921556" lon="12.504699083496588"><ele>616.0</ele><time>2026-04-29T11:08:07.001Z</time></trkpt><trkpt lat="43.48878948491881" lon="12.504656848711319"><ele>616.6</ele><time>2026-04-29T11:08:08.001Z</time></trkpt><trkpt lat="43.48870493870775" lon="12.504619404623098"><ele>617.2</ele><time>2026-04-29T11:08:09.001Z</time></trkpt><trkpt lat="43.48860778103434" lon="12.504579463379457"><ele>617.8</ele><time>2026-04-29T11:08:10.001Z</time></trkpt><trkpt lat="43.488518714555866" lon="12.504536940699008"><ele>618.4</ele><time>2026-04-29T11:08:11.001Z</time></trkpt><trkpt lat="43.48846505595957" lon="12.504443955835079"><ele>619.0</ele><time>2026-04-29T11:08:12.001Z</time></trkpt><trkpt lat="43.488415234265005" lon="12.504357676710445"><ele>619.0</ele><time>2026-04-29T11:08:13.001Z</time></trkpt><trkpt lat="43.488368835891116" lon="12.504255649188611"><ele>619.0</ele><time>2026-04-29T11:08:14.001Z</time></trkpt><trkpt lat="43.48833821286464" lon="12.504141746298398"><ele>619.0</ele><time>2026-04-29T11:08:15.001Z</time></trkpt><trkpt lat="43.488329436939395" lon="12.504026753942357"><ele>619.0</ele><time>2026-04-29T11:08:16.001Z</time></trkpt><trkpt lat="43.48831669993843" lon="12.503919988646745"><ele>619.0</ele><time>2026-04-29T11:08:17.001Z</time></trkpt><trkpt lat="43.4882955077816" lon="12.503818449623983"><ele>619.0</ele><time>2026-04-29T11:08:18.001Z</time></trkpt><trkpt lat="43.488265204763714" lon="12.503733896265723"><ele>619.6666666666667</ele><time>2026-04-29T11:08:19.001Z</time></trkpt><trkpt lat="43.48820962681188" lon="12.503664552376781"><ele>620.3333333333334</ele><time>2026-04-29T11:08:20.001Z</time></trkpt><trkpt lat="43.488148043002184" lon="12.503574944838014"><ele>621.0</ele><time>2026-04-29T11:08:21.001Z</time></trkpt><trkpt lat="43.488080949098524" lon="12.503531011158108"><ele>621.6666666666666</ele><time>2026-04-29T11:08:22.001Z</time></trkpt><trkpt lat="43.48800159647586" lon="12.503479592033633"><ele>622.3333333333333</ele><time>2026-04-29T11:08:23.001Z</time></trkpt><trkpt lat="43.4878987879347" lon="12.503481802266334"><ele>623.0</ele><time>2026-04-29T11:08:24.001Z</time></trkpt><trkpt lat="43.48780031682963" lon="12.503459141340956"><ele>623.0</ele><time>2026-04-29T11:08:25.001Z</time></trkpt><trkpt lat="43.487731858070966" lon="12.503439131358688"><ele>623.0</ele><time>2026-04-29T11:08:26.001Z</time></trkpt><trkpt lat="43.487660419594405" lon="12.503312756424535"><ele>623.0</ele><time>2026-04-29T11:08:28.001Z</time></trkpt><trkpt lat="43.487637411500444" lon="12.503213146425605"><ele>623.0</ele><time>2026-04-29T11:08:29.002Z</time></trkpt><trkpt lat="43.48764784500995" lon="12.503085611351985"><ele>623.0</ele><time>2026-04-29T11:08:30.002Z</time></trkpt><trkpt lat="43.487625526327875" lon="12.502954041556226"><ele>626.6666666666666</ele><time>2026-04-29T11:08:31.002Z</time></trkpt><trkpt lat="43.487621361948825" lon="12.502845657914943"><ele>630.3333333333333</ele><time>2026-04-29T11:08:32.002Z</time></trkpt><trkpt lat="43.487593477638065" lon="12.502761971429452"><ele>634.0</ele><time>2026-04-29T11:08:33.002Z</time></trkpt><trkpt lat="43.48754706783887" lon="12.5026768133391"><ele>637.6666666666666</ele><time>2026-04-29T11:08:34.002Z</time></trkpt><trkpt lat="43.487497930854204" lon="12.502584130561258"><ele>641.3333333333334</ele><time>2026-04-29T11:08:35.002Z</time></trkpt><trkpt lat="43.48740778397145" lon="12.5025118160253"><ele>645.0</ele><time>2026-04-29T11:08:36.002Z</time></trkpt><trkpt lat="43.48730039349903" lon="12.502465399676026"><ele>645.0</ele><time>2026-04-29T11:08:37.002Z</time></trkpt><trkpt lat="43.48719698921734" lon="12.502420723069141"><ele>645.0</ele><time>2026-04-29T11:08:38.002Z</time></trkpt><trkpt lat="43.487072762184546" lon="12.502387304975828"><ele>645.0</ele><time>2026-04-29T11:08:39.002Z</time></trkpt><trkpt lat="43.48694895123895" lon="12.502382331727908"><ele>645.0</ele><time>2026-04-29T11:08:40.002Z</time></trkpt><trkpt lat="43.48683208531931" lon="12.502426147253072"><ele>644.2</ele><time>2026-04-29T11:08:41.002Z</time></trkpt><trkpt lat="43.486734330840065" lon="12.502418356409095"><ele>643.4</ele><time>2026-04-29T11:08:42.002Z</time></trkpt><trkpt lat="43.486651117779886" lon="12.502344572878293"><ele>642.5999999999999</ele><time>2026-04-29T11:08:43.002Z</time></trkpt><trkpt lat="43.486559962181126" lon="12.50234811705611"><ele>641.8</ele><time>2026-04-29T11:08:44.002Z</time></trkpt><trkpt lat="43.486465207048745" lon="12.502337096347828"><ele>641.0</ele><time>2026-04-29T11:08:45.002Z</time></trkpt><trkpt lat="43.48637377108146" lon="12.502371277850632"><ele>641.0</ele><time>2026-04-29T11:08:46.002Z</time></trkpt><trkpt lat="43.48630722941917" lon="12.502444393626025"><ele>641.0</ele><time>2026-04-29T11:08:47.002Z</time></trkpt><trkpt lat="43.486254997993704" lon="12.502557952549262"><ele>641.0</ele><time>2026-04-29T11:08:48.002Z</time></trkpt><trkpt lat="43.48619242913844" lon="12.502665846219314"><ele>641.0</ele><time>2026-04-29T11:08:49.002Z</time></trkpt><trkpt lat="43.48611539539914" lon="12.502747476474514"><ele>641.0</ele><time>2026-04-29T11:08:49.998Z</time></trkpt><trkpt lat="43.48607781619195" lon="12.502842748989517"><ele>644.8</ele><time>2026-04-29T11:08:50.998Z</time></trkpt><trkpt lat="43.48603192545454" lon="12.50302389986762"><ele>648.5999999999999</ele><time>2026-04-29T11:08:52.998Z</time></trkpt><trkpt lat="43.48602655035742" lon="12.50318081589773"><ele>652.4</ele><time>2026-04-29T11:08:53.998Z</time></trkpt><trkpt lat="43.48603596716182" lon="12.50332514935033"><ele>656.2</ele><time>2026-04-29T11:08:54.998Z</time></trkpt><trkpt lat="43.48607219676989" lon="12.503429602505822"><ele>660.0</ele><time>2026-04-29T11:08:55.998Z</time></trkpt><trkpt lat="43.486094216744505" lon="12.50352971555057"><ele>660.0</ele><time>2026-04-29T11:08:56.998Z</time></trkpt><trkpt lat="43.48610618120898" lon="12.503636463147114"><ele>660.0</ele><time>2026-04-29T11:08:57.998Z</time></trkpt><trkpt lat="43.48608843492016" lon="12.503754842607506"><ele>660.0</ele><time>2026-04-29T11:08:58.998Z</time></trkpt><trkpt lat="43.48608132720421" lon="12.50387762781062"><ele>660.0</ele><time>2026-04-29T11:08:59.998Z</time></trkpt><trkpt lat="43.486087756503586" lon="12.504018331938939"><ele>660.0</ele><time>2026-04-29T11:09:00.998Z</time></trkpt><trkpt lat="43.48607314301326" lon="12.504152849219919"><ele>659.3333333333334</ele><time>2026-04-29T11:09:01.998Z</time></trkpt><trkpt lat="43.48607634964226" lon="12.504270891736246"><ele>658.6666666666666</ele><time>2026-04-29T11:09:02.998Z</time></trkpt><trkpt lat="43.486074719466075" lon="12.504373969802511"><ele>658.0</ele><time>2026-04-29T11:09:03.998Z</time></trkpt><trkpt lat="43.48607918189242" lon="12.504482614862253"><ele>657.3333333333333</ele><time>2026-04-29T11:09:04.998Z</time></trkpt><trkpt lat="43.486069636522735" lon="12.504608590810648"><ele>656.6666666666666</ele><time>2026-04-29T11:09:05.999Z</time></trkpt><trkpt lat="43.486058208934374" lon="12.504723159379905"><ele>656.0</ele><time>2026-04-29T11:09:06.999Z</time></trkpt><trkpt lat="43.486019880602676" lon="12.504835584648259"><ele>656.0</ele><time>2026-04-29T11:09:08.999Z</time></trkpt><trkpt lat="43.48589993595315" lon="12.504867431667051"><ele>656.0</ele><time>2026-04-29T11:09:10.999Z</time></trkpt><trkpt lat="43.485814355947944" lon="12.504734619017553"><ele>656.0</ele><time>2026-04-29T11:09:12.999Z</time></trkpt><trkpt lat="43.48574123707701" lon="12.504641622790286"><ele>656.0</ele><time>2026-04-29T11:09:13.999Z</time></trkpt><trkpt lat="43.48563652160604" lon="12.504517642302016"><ele>656.0</ele><time>2026-04-29T11:09:14.999Z</time></trkpt><trkpt lat="43.48552143164942" lon="12.50438460176292"><ele>656.0</ele><time>2026-04-29T11:09:15.999Z</time></trkpt><trkpt lat="43.48539457479269" lon="12.504285676923917"><ele>656.0</ele><time>2026-04-29T11:09:16.999Z</time></trkpt><trkpt lat="43.48529018471312" lon="12.504159909283105"><ele>656.0</ele><time>2026-04-29T11:09:17.999Z</time></trkpt><trkpt lat="43.4851565792258" lon="12.504085946281316"><ele>656.4</ele><time>2026-04-29T11:09:18.999Z</time></trkpt><trkpt lat="43.48503490046654" lon="12.504006582330017"><ele>656.8</ele><time>2026-04-29T11:09:19.999Z</time></trkpt><trkpt lat="43.48494792146063" lon="12.503966877519291"><ele>657.1999999999999</ele><time>2026-04-29T11:09:20.999Z</time></trkpt><trkpt lat="43.48487288281375" lon="12.503948300928107"><ele>657.5999999999999</ele><time>2026-04-29T11:09:21.999Z</time></trkpt><trkpt lat="43.484798618983994" lon="12.503945617787872"><ele>658.0</ele><time>2026-04-29T11:09:22.999Z</time></trkpt><trkpt lat="43.48471859380797" lon="12.503952705985613"><ele>658.0</ele><time>2026-04-29T11:09:23.999Z</time></trkpt><trkpt lat="43.48462630553353" lon="12.50392883364068"><ele>658.0</ele><time>2026-04-29T11:09:25Z</time></trkpt><trkpt lat="43.48452878705049" lon="12.503935596078954"><ele>658.0</ele><time>2026-04-29T11:09:26Z</time></trkpt><trkpt lat="43.48444718194645" lon="12.503993772893118"><ele>658.0</ele><time>2026-04-29T11:09:27Z</time></trkpt><trkpt lat="43.484374757934596" lon="12.504056007662411"><ele>658.0</ele><time>2026-04-29T11:09:28Z</time></trkpt><trkpt lat="43.4843006769238" lon="12.50406948292086"><ele>658.0</ele><time>2026-04-29T11:09:29Z</time></trkpt><trkpt lat="43.48419119342306" lon="12.504033106301108"><ele>656.4</ele><time>2026-04-29T11:09:31Z</time></trkpt><trkpt lat="43.484116257940144" lon="12.503971570180685"><ele>654.8</ele><time>2026-04-29T11:09:32Z</time></trkpt><trkpt lat="43.484063501026554" lon="12.503883876397806"><ele>653.2</ele><time>2026-04-29T11:09:33Z</time></trkpt><trkpt lat="43.48399829364184" lon="12.503762065025143"><ele>651.6</ele><time>2026-04-29T11:09:34Z</time></trkpt><trkpt lat="43.483893202123014" lon="12.503630457966386"><ele>650.0</ele><time>2026-04-29T11:09:35Z</time></trkpt><trkpt lat="43.48380182173573" lon="12.503472931057786"><ele>652.4</ele><time>2026-04-29T11:09:36Z</time></trkpt><trkpt lat="43.483714077904956" lon="12.503353960670461"><ele>654.8</ele><time>2026-04-29T11:09:37Z</time></trkpt><trkpt lat="43.483631431849375" lon="12.503270291135454"><ele>657.2</ele><time>2026-04-29T11:09:38Z</time></trkpt><trkpt lat="43.48355427192382" lon="12.503178527111194"><ele>659.6</ele><time>2026-04-29T11:09:39Z</time></trkpt><trkpt lat="43.483461357074184" lon="12.503091053267202"><ele>662.0</ele><time>2026-04-29T11:09:40Z</time></trkpt><trkpt lat="43.483367405544826" lon="12.503008763375254"><ele>662.0</ele><time>2026-04-29T11:09:41Z</time></trkpt><trkpt lat="43.48328162278685" lon="12.502946365316852"><ele>662.0</ele><time>2026-04-29T11:09:42Z</time></trkpt><trkpt lat="43.48322337472283" lon="12.502890489068948"><ele>662.0</ele><time>2026-04-29T11:09:43Z</time></trkpt><trkpt lat="43.48311991387458" lon="12.502867717760116"><ele>662.0</ele><time>2026-04-29T11:09:45Z</time></trkpt><trkpt lat="43.48298330866773" lon="12.502921143745445"><ele>662.0</ele><time>2026-04-29T11:09:47Z</time></trkpt><trkpt lat="43.482909300395" lon="12.503004955527201"><ele>661.6666666666666</ele><time>2026-04-29T11:09:48Z</time></trkpt><trkpt lat="43.48282843724887" lon="12.503071425177616"><ele>661.3333333333333</ele><time>2026-04-29T11:09:49Z</time></trkpt><trkpt lat="43.48275220661424" lon="12.503117567934153"><ele>661.0</ele><time>2026-04-29T11:09:50Z</time></trkpt><trkpt lat="43.482676537137024" lon="12.503120656660112"><ele>660.6666666666666</ele><time>2026-04-29T11:09:51Z</time></trkpt><trkpt lat="43.482603203128754" lon="12.503109486114525"><ele>660.3333333333334</ele><time>2026-04-29T11:09:52Z</time></trkpt><trkpt lat="43.48252954612021" lon="12.503085293287532"><ele>660.0</ele><time>2026-04-29T11:09:53.001Z</time></trkpt><trkpt lat="43.4824501660422" lon="12.50303670433566"><ele>660.0</ele><time>2026-04-29T11:09:54.001Z</time></trkpt><trkpt lat="43.482347133278594" lon="12.502979443852674"><ele>660.0</ele><time>2026-04-29T11:09:55.001Z</time></trkpt><trkpt lat="43.48223389274875" lon="12.502920355319642"><ele>660.0</ele><time>2026-04-29T11:09:56.001Z</time></trkpt><trkpt lat="43.4821361002005" lon="12.502867513327715"><ele>660.0</ele><time>2026-04-29T11:09:57.001Z</time></trkpt><trkpt lat="43.48207448147419" lon="12.502812345489664"><ele>660.0</ele><time>2026-04-29T11:09:58.001Z</time></trkpt><trkpt lat="43.482019057131424" lon="12.502749622377259"><ele>662.3333333333334</ele><time>2026-04-29T11:09:59.001Z</time></trkpt><trkpt lat="43.481976941614015" lon="12.50268226008221"><ele>664.6666666666666</ele><time>2026-04-29T11:10:00.001Z</time></trkpt><trkpt lat="43.481919137738394" lon="12.50261565983713"><ele>667.0</ele><time>2026-04-29T11:10:01.001Z</time></trkpt><trkpt lat="43.481873040590465" lon="12.502550202814925"><ele>669.3333333333333</ele><time>2026-04-29T11:10:02.001Z</time></trkpt><trkpt lat="43.48174107956944" lon="12.50249878866708"><ele>671.6666666666666</ele><time>2026-04-29T11:10:04.001Z</time></trkpt><trkpt lat="43.48165368714644" lon="12.50249703021653"><ele>674.0</ele><time>2026-04-29T11:10:05.001Z</time></trkpt><trkpt lat="43.48156151798053" lon="12.502485633708591"><ele>674.0</ele><time>2026-04-29T11:10:06.001Z</time></trkpt><trkpt lat="43.48148519476578" lon="12.502504494220531"><ele>674.0</ele><time>2026-04-29T11:10:07.001Z</time></trkpt><trkpt lat="43.48142494643732" lon="12.50246606827492"><ele>674.0</ele><time>2026-04-29T11:10:08.001Z</time></trkpt><trkpt lat="43.48133267963062" lon="12.502440881331117"><ele>674.0</ele><time>2026-04-29T11:10:09.001Z</time></trkpt><trkpt lat="43.48124077982647" lon="12.50244521880297"><ele>674.0</ele><time>2026-04-29T11:10:10.001Z</time></trkpt><trkpt lat="43.481174900790464" lon="12.50244554648932"><ele>674.0</ele><time>2026-04-29T11:10:11.001Z</time></trkpt><trkpt lat="43.48106787904987" lon="12.5024261745381"><ele>674.8000000000001</ele><time>2026-04-29T11:10:13.001Z</time></trkpt><trkpt lat="43.48099313177328" lon="12.502449887515963"><ele>675.6</ele><time>2026-04-29T11:10:14.001Z</time></trkpt><trkpt lat="43.48090463120732" lon="12.502451224619254"><ele>676.4</ele><time>2026-04-29T11:10:15.001Z</time></trkpt><trkpt lat="43.48080153465094" lon="12.502453238572613"><ele>677.2</ele><time>2026-04-29T11:10:16.001Z</time></trkpt><trkpt lat="43.48070981521768" lon="12.502420259916727"><ele>678.0</ele><time>2026-04-29T11:10:17.001Z</time></trkpt><trkpt lat="43.48061410933091" lon="12.502397374265362"><ele>678.0</ele><time>2026-04-29T11:10:18.001Z</time></trkpt><trkpt lat="43.48051223554495" lon="12.502390851666812"><ele>678.0</ele><time>2026-04-29T11:10:19.001Z</time></trkpt><trkpt lat="43.4804158810237" lon="12.502354096132407"><ele>678.0</ele><time>2026-04-29T11:10:20.001Z</time></trkpt><trkpt lat="43.48033732432396" lon="12.502307489880115"><ele>678.0</ele><time>2026-04-29T11:10:21.001Z</time></trkpt><trkpt lat="43.480267940455995" lon="12.502247880902456"><ele>678.0</ele><time>2026-04-29T11:10:22.001Z</time></trkpt><trkpt lat="43.4802093578358" lon="12.502162710365448"><ele>680.0</ele><time>2026-04-29T11:10:23.001Z</time></trkpt><trkpt lat="43.480167947033166" lon="12.502045177437067"><ele>682.0</ele><time>2026-04-29T11:10:24.001Z</time></trkpt><trkpt lat="43.480125749503074" lon="12.50193193850367"><ele>684.0</ele><time>2026-04-29T11:10:25.002Z</time></trkpt><trkpt lat="43.480078504345904" lon="12.501835494814069"><ele>686.0</ele><time>2026-04-29T11:10:26.002Z</time></trkpt><trkpt lat="43.480065319394484" lon="12.50174054236969"><ele>688.0</ele><time>2026-04-29T11:10:27.002Z</time></trkpt><trkpt lat="43.48004495800286" lon="12.501630127323763"><ele>690.0</ele><time>2026-04-29T11:10:28.002Z</time></trkpt><trkpt lat="43.48001805802495" lon="12.501498798426454"><ele>690.0</ele><time>2026-04-29T11:10:29.002Z</time></trkpt><trkpt lat="43.479977917471416" lon="12.501372021070136"><ele>690.0</ele><time>2026-04-29T11:10:30.002Z</time></trkpt><trkpt lat="43.479935746371815" lon="12.501260514698245"><ele>690.0</ele><time>2026-04-29T11:10:31.002Z</time></trkpt><trkpt lat="43.47993876140855" lon="12.50115759015147"><ele>690.0</ele><time>2026-04-29T11:10:32.002Z</time></trkpt><trkpt lat="43.47991818043156" lon="12.501071453510697"><ele>690.0</ele><time>2026-04-29T11:10:34.002Z</time></trkpt><trkpt lat="43.47978793205887" lon="12.50107500486211"><ele>690.0</ele><time>2026-04-29T11:10:37.002Z</time></trkpt><trkpt lat="43.4796627421831" lon="12.501112258767158"><ele>690.0</ele><time>2026-04-29T11:10:39.002Z</time></trkpt><trkpt lat="43.47954688656088" lon="12.501111367459723"><ele>690.0</ele><time>2026-04-29T11:10:40.002Z</time></trkpt><trkpt lat="43.47940445431355" lon="12.501136864854939"><ele>690.0</ele><time>2026-04-29T11:10:41.002Z</time></trkpt><trkpt lat="43.479285790419524" lon="12.501208335407972"><ele>689.75</ele><time>2026-04-29T11:10:42.002Z</time></trkpt><trkpt lat="43.47918448281198" lon="12.501282944406606"><ele>689.5</ele><time>2026-04-29T11:10:43.002Z</time></trkpt><trkpt lat="43.47909253866273" lon="12.50139596632269"><ele>689.25</ele><time>2026-04-29T11:10:44.002Z</time></trkpt><trkpt lat="43.47899920323582" lon="12.501523748722695"><ele>689.0</ele><time>2026-04-29T11:10:45.002Z</time></trkpt><trkpt lat="43.4789121582886" lon="12.50163599178138"><ele>689.0</ele><time>2026-04-29T11:10:46.002Z</time></trkpt><trkpt lat="43.47882972736578" lon="12.501722506177583"><ele>689.0</ele><time>2026-04-29T11:10:47.002Z</time></trkpt><trkpt lat="43.47873149213047" lon="12.50177879524594"><ele>689.0</ele><time>2026-04-29T11:10:48.002Z</time></trkpt><trkpt lat="43.4786036541787" lon="12.501794066138334"><ele>689.0</ele><time>2026-04-29T11:10:49.002Z</time></trkpt><trkpt lat="43.478470107723055" lon="12.50181578609787"><ele>694.3333333333333</ele><time>2026-04-29T11:10:50.002Z</time></trkpt><trkpt lat="43.47832298628272" lon="12.501882284345138"><ele>699.6666666666666</ele><time>2026-04-29T11:10:51.002Z</time></trkpt><trkpt lat="43.47815707088571" lon="12.501940672950576"><ele>705.0</ele><time>2026-04-29T11:10:52.002Z</time></trkpt><trkpt lat="43.47801971664064" lon="12.502050976663806"><ele>703.75</ele><time>2026-04-29T11:10:53.002Z</time></trkpt><trkpt lat="43.4778983958566" lon="12.502136646601627"><ele>702.5</ele><time>2026-04-29T11:10:54.002Z</time></trkpt><trkpt lat="43.47779270934177" lon="12.502225613894517"><ele>701.25</ele><time>2026-04-29T11:10:55.002Z</time></trkpt><trkpt lat="43.477705054437195" lon="12.502299901199695"><ele>700.0</ele><time>2026-04-29T11:10:55.999Z</time></trkpt><trkpt lat="43.47760959040439" lon="12.502354435851645"><ele>700.0</ele><time>2026-04-29T11:10:56.999Z</time></trkpt><trkpt lat="43.47753342272159" lon="12.502420369490634"><ele>700.0</ele><time>2026-04-29T11:10:57.999Z</time></trkpt><trkpt lat="43.477458741681275" lon="12.502461445202698"><ele>700.0</ele><time>2026-04-29T11:10:58.999Z</time></trkpt><trkpt lat="43.47737856053077" lon="12.502462942433658"><ele>700.0</ele><time>2026-04-29T11:10:59.999Z</time></trkpt><trkpt lat="43.477279988198745" lon="12.502473256466464"><ele>700.0</ele><time>2026-04-29T11:11:00.999Z</time></trkpt><trkpt lat="43.47717732176486" lon="12.502483224132696"><ele>703.25</ele><time>2026-04-29T11:11:01.999Z</time></trkpt><trkpt lat="43.47706948189503" lon="12.502466266303296"><ele>706.5</ele><time>2026-04-29T11:11:02.999Z</time></trkpt><trkpt lat="43.476954053912834" lon="12.50242688444516"><ele>709.75</ele><time>2026-04-29T11:11:03.999Z</time></trkpt><trkpt lat="43.476835243645624" lon="12.502384898682774"><ele>713.0</ele><time>2026-04-29T11:11:04.999Z</time></trkpt><trkpt lat="43.47671094078804" lon="12.502337425452042"><ele>713.0</ele><time>2026-04-29T11:11:05.999Z</time></trkpt><trkpt lat="43.47659712341322" lon="12.502293956787552"><ele>713.0</ele><time>2026-04-29T11:11:06.999Z</time></trkpt><trkpt lat="43.476501305305234" lon="12.502259669334013"><ele>713.0</ele><time>2026-04-29T11:11:07.999Z</time></trkpt><trkpt lat="43.476425052103004" lon="12.502259684313511"><ele>713.0</ele><time>2026-04-29T11:11:08.999Z</time></trkpt><trkpt lat="43.476356103753226" lon="12.502234622321312"><ele>713.0</ele><time>2026-04-29T11:11:09.999Z</time></trkpt><trkpt lat="43.47623896866864" lon="12.502241997967975"><ele>713.0</ele><time>2026-04-29T11:11:12Z</time></trkpt><trkpt lat="43.47618204613246" lon="12.502292831690184"><ele>713.0</ele><time>2026-04-29T11:11:13Z</time></trkpt><trkpt lat="43.476129861264916" lon="12.50238107172496"><ele>713.0</ele><time>2026-04-29T11:11:14Z</time></trkpt><trkpt lat="43.476073555744655" lon="12.502473011566007"><ele>713.0</ele><time>2026-04-29T11:11:15Z</time></trkpt><trkpt lat="43.47602196999984" lon="12.50258209932235"><ele>713.0</ele><time>2026-04-29T11:11:16Z</time></trkpt><trkpt lat="43.475964478434854" lon="12.502726045605854"><ele>713.0</ele><time>2026-04-29T11:11:17Z</time></trkpt><trkpt lat="43.475904055996665" lon="12.50287435321622"><ele>713.0</ele><time>2026-04-29T11:11:18Z</time></trkpt><trkpt lat="43.4758218662404" lon="12.50300864350681"><ele>713.0</ele><time>2026-04-29T11:11:19Z</time></trkpt><trkpt lat="43.47575807547759" lon="12.503132671308846"><ele>713.0</ele><time>2026-04-29T11:11:20Z</time></trkpt><trkpt lat="43.47569982222044" lon="12.503230700690152"><ele>712.0</ele><time>2026-04-29T11:11:21Z</time></trkpt><trkpt lat="43.47564307081669" lon="12.503328821698005"><ele>711.0</ele><time>2026-04-29T11:11:22Z</time></trkpt><trkpt lat="43.47555433548378" lon="12.50337051237409"><ele>710.0</ele><time>2026-04-29T11:11:23Z</time></trkpt><trkpt lat="43.47544499113581" lon="12.503388575249446"><ele>709.0</ele><time>2026-04-29T11:11:24Z</time></trkpt><trkpt lat="43.475323982520806" lon="12.503387582476531"><ele>708.0</ele><time>2026-04-29T11:11:25Z</time></trkpt><trkpt lat="43.475230077494956" lon="12.50339299642366"><ele>708.0</ele><time>2026-04-29T11:11:26Z</time></trkpt><trkpt lat="43.47516122389221" lon="12.503417731355732"><ele>708.0</ele><time>2026-04-29T11:11:27Z</time></trkpt><trkpt lat="43.47506763494072" lon="12.503531008374036"><ele>708.0</ele><time>2026-04-29T11:11:29Z</time></trkpt><trkpt lat="43.4750249186799" lon="12.50362849040379"><ele>708.0</ele><time>2026-04-29T11:11:30Z</time></trkpt><trkpt lat="43.47498457992698" lon="12.503757893533715"><ele>708.0</ele><time>2026-04-29T11:11:31Z</time></trkpt><trkpt lat="43.47494839230501" lon="12.503904774696508"><ele>709.5999999999999</ele><time>2026-04-29T11:11:32Z</time></trkpt><trkpt lat="43.474919787293445" lon="12.50404714949187"><ele>711.1999999999999</ele><time>2026-04-29T11:11:33Z</time></trkpt><trkpt lat="43.474888134659096" lon="12.504178518411855"><ele>712.8</ele><time>2026-04-29T11:11:34Z</time></trkpt><trkpt lat="43.47483729946003" lon="12.504294671646218"><ele>714.4</ele><time>2026-04-29T11:11:35Z</time></trkpt><trkpt lat="43.47476914225153" lon="12.504396524999548"><ele>716.0</ele><time>2026-04-29T11:11:36.001Z</time></trkpt><trkpt lat="43.47467802331585" lon="12.504447375464467"><ele>714.0</ele><time>2026-04-29T11:11:37.001Z</time></trkpt><trkpt lat="43.47459111294571" lon="12.504488426749303"><ele>712.0</ele><time>2026-04-29T11:11:38.001Z</time></trkpt><trkpt lat="43.4744906820452" lon="12.50451032993934"><ele>710.0</ele><time>2026-04-29T11:11:39.001Z</time></trkpt><trkpt lat="43.4743804626059" lon="12.504522225364928"><ele>708.0</ele><time>2026-04-29T11:11:40.001Z</time></trkpt><trkpt lat="43.47426826968004" lon="12.504508033160803"><ele>706.0</ele><time>2026-04-29T11:11:41.001Z</time></trkpt><trkpt lat="43.47415029873487" lon="12.504519608854698"><ele>706.0</ele><time>2026-04-29T11:11:42.001Z</time></trkpt><trkpt lat="43.47402920724685" lon="12.50450918434367"><ele>706.0</ele><time>2026-04-29T11:11:43.001Z</time></trkpt><trkpt lat="43.47389974115268" lon="12.504508431671523"><ele>706.0</ele><time>2026-04-29T11:11:44.001Z</time></trkpt><trkpt lat="43.47376370121292" lon="12.504504404377782"><ele>706.0</ele><time>2026-04-29T11:11:45.001Z</time></trkpt><trkpt lat="43.47362649751764" lon="12.504499810720318"><ele>709.75</ele><time>2026-04-29T11:11:46.001Z</time></trkpt><trkpt lat="43.47349300602176" lon="12.504484411092236"><ele>713.5</ele><time>2026-04-29T11:11:47.001Z</time></trkpt><trkpt lat="43.47336977660543" lon="12.504469077107423"><ele>717.25</ele><time>2026-04-29T11:11:48.001Z</time></trkpt><trkpt lat="43.473255934514505" lon="12.504423555185346"><ele>721.0</ele><time>2026-04-29T11:11:49.001Z</time></trkpt><trkpt lat="43.47314262980899" lon="12.504385099689095"><ele>721.0</ele><time>2026-04-29T11:11:50.001Z</time></trkpt><trkpt lat="43.47302369203023" lon="12.5043754181863"><ele>721.0</ele><time>2026-04-29T11:11:51.001Z</time></trkpt><trkpt lat="43.47291274103476" lon="12.504357340316002"><ele>721.0</ele><time>2026-04-29T11:11:52.001Z</time></trkpt><trkpt lat="43.472807150574695" lon="12.504348054861625"><ele>721.0</ele><time>2026-04-29T11:11:53.001Z</time></trkpt><trkpt lat="43.472705263091754" lon="12.504352844535047"><ele>721.0</ele><time>2026-04-29T11:11:54.001Z</time></trkpt><trkpt lat="43.4726035598975" lon="12.504383183784276"><ele>721.1666666666667</ele><time>2026-04-29T11:11:55.001Z</time></trkpt><trkpt lat="43.47251726173102" lon="12.504435244676126"><ele>721.3333333333334</ele><time>2026-04-29T11:11:56.001Z</time></trkpt><trkpt lat="43.4724469548311" lon="12.504485791009905"><ele>721.5</ele><time>2026-04-29T11:11:57.001Z</time></trkpt><trkpt lat="43.47238422330093" lon="12.504533907173542"><ele>721.6666666666666</ele><time>2026-04-29T11:11:58.001Z</time></trkpt><trkpt lat="43.47233024273177" lon="12.504596309879277"><ele>721.8333333333333</ele><time>2026-04-29T11:11:59.001Z</time></trkpt><trkpt lat="43.47227759654772" lon="12.50468864024995"><ele>722.0</ele><time>2026-04-29T11:12:00.001Z</time></trkpt><trkpt lat="43.47222769520308" lon="12.50480402952591"><ele>722.0</ele><time>2026-04-29T11:12:01.001Z</time></trkpt><trkpt lat="43.47217641933007" lon="12.504925042243125"><ele>722.0</ele><time>2026-04-29T11:12:02.001Z</time></trkpt><trkpt lat="43.47212127215116" lon="12.50505516426031"><ele>722.0</ele><time>2026-04-29T11:12:03.001Z</time></trkpt><trkpt lat="43.47205816316401" lon="12.505181577218627"><ele>722.0</ele><time>2026-04-29T11:12:04.001Z</time></trkpt><trkpt lat="43.471984253405886" lon="12.505315818311946"><ele>722.0</ele><time>2026-04-29T11:12:05.001Z</time></trkpt><trkpt lat="43.47190683716001" lon="12.505452078214594"><ele>724.75</ele><time>2026-04-29T11:12:06.001Z</time></trkpt><trkpt lat="43.47183988011986" lon="12.505591970770393"><ele>727.5</ele><time>2026-04-29T11:12:07.001Z</time></trkpt><trkpt lat="43.47177595670549" lon="12.505731512557547"><ele>730.25</ele><time>2026-04-29T11:12:08.002Z</time></trkpt><trkpt lat="43.47171492754859" lon="12.505872594163845"><ele>733.0</ele><time>2026-04-29T11:12:09.002Z</time></trkpt><trkpt lat="43.47165994094149" lon="12.506025218830418"><ele>733.0</ele><time>2026-04-29T11:12:10.002Z</time></trkpt><trkpt lat="43.47161237738536" lon="12.506161430437453"><ele>733.0</ele><time>2026-04-29T11:12:11.002Z</time></trkpt><trkpt lat="43.47155126246528" lon="12.50627470818996"><ele>733.0</ele><time>2026-04-29T11:12:12.002Z</time></trkpt><trkpt lat="43.47149488309914" lon="12.5063845010356"><ele>733.0</ele><time>2026-04-29T11:12:13.002Z</time></trkpt><trkpt lat="43.47143767788132" lon="12.50647209568844"><ele>733.0</ele><time>2026-04-29T11:12:14.002Z</time></trkpt><trkpt lat="43.47135669913664" lon="12.506536948642935"><ele>734.4</ele><time>2026-04-29T11:12:15.002Z</time></trkpt><trkpt lat="43.47128587856804" lon="12.506632474835058"><ele>735.8</ele><time>2026-04-29T11:12:16.002Z</time></trkpt><trkpt lat="43.47119047865941" lon="12.50669801420906"><ele>737.2</ele><time>2026-04-29T11:12:17.002Z</time></trkpt><trkpt lat="43.47109620311532" lon="12.506753733528836"><ele>738.6</ele><time>2026-04-29T11:12:18.002Z</time></trkpt><trkpt lat="43.47101333453042" lon="12.506805251564073"><ele>740.0</ele><time>2026-04-29T11:12:19.002Z</time></trkpt><trkpt lat="43.47094034685263" lon="12.506827921443524"><ele>740.0</ele><time>2026-04-29T11:12:20.002Z</time></trkpt><trkpt lat="43.47085985461531" lon="12.50684618839953"><ele>740.0</ele><time>2026-04-29T11:12:21.002Z</time></trkpt><trkpt lat="43.470779022204056" lon="12.506841041661403"><ele>740.0</ele><time>2026-04-29T11:12:22.002Z</time></trkpt><trkpt lat="43.47069917533047" lon="12.506805128672744"><ele>740.0</ele><time>2026-04-29T11:12:23.002Z</time></trkpt><trkpt lat="43.47061293105198" lon="12.50675346970841"><ele>740.0</ele><time>2026-04-29T11:12:24.002Z</time></trkpt><trkpt lat="43.470518206950594" lon="12.506702147241652"><ele>740.0</ele><time>2026-04-29T11:12:25.002Z</time></trkpt><trkpt lat="43.47041762857014" lon="12.506668556497361"><ele>740.6666666666666</ele><time>2026-04-29T11:12:26.002Z</time></trkpt><trkpt lat="43.470323903445845" lon="12.506621080374218"><ele>741.3333333333333</ele><time>2026-04-29T11:12:27.002Z</time></trkpt><trkpt lat="43.47025033195143" lon="12.506569780013617"><ele>742.0</ele><time>2026-04-29T11:12:28.002Z</time></trkpt><trkpt lat="43.47019558645995" lon="12.506494082791669"><ele>742.6666666666666</ele><time>2026-04-29T11:12:29.002Z</time></trkpt><trkpt lat="43.47015796160775" lon="12.506409100214798"><ele>743.3333333333334</ele><time>2026-04-29T11:12:30.002Z</time></trkpt><trkpt lat="43.47017063339423" lon="12.506290603214381"><ele>744.0</ele><time>2026-04-29T11:12:31.002Z</time></trkpt><trkpt lat="43.470128409447" lon="12.506210486757038"><ele>744.0</ele><time>2026-04-29T11:12:32.002Z</time></trkpt><trkpt lat="43.47008643453362" lon="12.506132824186299"><ele>744.0</ele><time>2026-04-29T11:12:33.002Z</time></trkpt><trkpt lat="43.470029907677244" lon="12.506086578935653"><ele>744.0</ele><time>2026-04-29T11:12:34.002Z</time></trkpt><trkpt lat="43.469961610442" lon="12.506070511289817"><ele>744.0</ele><time>2026-04-29T11:12:35.002Z</time></trkpt><trkpt lat="43.46988316439969" lon="12.506058748461852"><ele>744.0</ele><time>2026-04-29T11:12:36.002Z</time></trkpt><trkpt lat="43.46979574410043" lon="12.506028603328266"><ele>744.0</ele><time>2026-04-29T11:12:37.002Z</time></trkpt><trkpt lat="43.46967735298125" lon="12.505991963743766"><ele>747.75</ele><time>2026-04-29T11:12:38.002Z</time></trkpt><trkpt lat="43.46955408208894" lon="12.505955138889878"><ele>751.5</ele><time>2026-04-29T11:12:39.002Z</time></trkpt><trkpt lat="43.46943780249472" lon="12.505913420130605"><ele>755.25</ele><time>2026-04-29T11:12:40.002Z</time></trkpt><trkpt lat="43.46932776552028" lon="12.505861358465943"><ele>759.0</ele><time>2026-04-29T11:12:41.003Z</time></trkpt><trkpt lat="43.4692207763277" lon="12.505811251673403"><ele>759.0</ele><time>2026-04-29T11:12:42.003Z</time></trkpt><trkpt lat="43.4691086533301" lon="12.505760791672701"><ele>759.0</ele><time>2026-04-29T11:12:43.003Z</time></trkpt><trkpt lat="43.46899143943642" lon="12.505707681657316"><ele>759.0</ele><time>2026-04-29T11:12:44.003Z</time></trkpt><trkpt lat="43.468871669598684" lon="12.505644476839992"><ele>759.0</ele><time>2026-04-29T11:12:45.003Z</time></trkpt><trkpt lat="43.46876223273035" lon="12.50557124168348"><ele>758.6</ele><time>2026-04-29T11:12:46.003Z</time></trkpt><trkpt lat="43.468652720256465" lon="12.505493427322651"><ele>758.2</ele><time>2026-04-29T11:12:47.003Z</time></trkpt><trkpt lat="43.46855649276691" lon="12.505412763646552"><ele>757.8000000000001</ele><time>2026-04-29T11:12:48.003Z</time></trkpt><trkpt lat="43.4684764921235" lon="12.505330835035517"><ele>757.4000000000001</ele><time>2026-04-29T11:12:49.003Z</time></trkpt><trkpt lat="43.46841042714885" lon="12.50523316885868"><ele>757.0</ele><time>2026-04-29T11:12:50.003Z</time></trkpt><trkpt lat="43.46833091394094" lon="12.505129788716552"><ele>755.8</ele><time>2026-04-29T11:12:51.003Z</time></trkpt><trkpt lat="43.46825311254279" lon="12.50504094050566"><ele>754.6</ele><time>2026-04-29T11:12:52.003Z</time></trkpt><trkpt lat="43.46817992631294" lon="12.504960091477082"><ele>753.4</ele><time>2026-04-29T11:12:53.003Z</time></trkpt><trkpt lat="43.46809968535244" lon="12.504899242702665"><ele>752.1999999999999</ele><time>2026-04-29T11:12:54.003Z</time></trkpt><trkpt lat="43.46801381808414" lon="12.504862689979976"><ele>751.0</ele><time>2026-04-29T11:12:55.003Z</time></trkpt><trkpt lat="43.46792400198961" lon="12.504835845439917"><ele>750.6666666666667</ele><time>2026-04-29T11:12:56.003Z</time></trkpt><trkpt lat="43.467834945222684" lon="12.504819906636742"><ele>750.3333333333334</ele><time>2026-04-29T11:12:57.003Z</time></trkpt><trkpt lat="43.467747066800115" lon="12.504813510075257"><ele>750.0</ele><time>2026-04-29T11:12:58.003Z</time></trkpt><trkpt lat="43.467660729729815" lon="12.504806608202234"><ele>749.6666666666666</ele><time>2026-04-29T11:12:59.003Z</time></trkpt><trkpt lat="43.46757391717259" lon="12.504798797150022"><ele>749.3333333333333</ele><time>2026-04-29T11:13:00.003Z</time></trkpt><trkpt lat="43.46749299322496" lon="12.504787123918398"><ele>749.0</ele><time>2026-04-29T11:13:01.003Z</time></trkpt><trkpt lat="43.46741253921638" lon="12.504794748115946"><ele>749.0</ele><time>2026-04-29T11:13:02Z</time></trkpt><trkpt lat="43.46733015046878" lon="12.504806395495555"><ele>749.0</ele><time>2026-04-29T11:13:03Z</time></trkpt><trkpt lat="43.46724767121154" lon="12.504825560948369"><ele>749.0</ele><time>2026-04-29T11:13:04Z</time></trkpt><trkpt lat="43.467166362399944" lon="12.504848721790838"><ele>749.0</ele><time>2026-04-29T11:13:05Z</time></trkpt><trkpt lat="43.46708798066869" lon="12.504864780492106"><ele>749.0</ele><time>2026-04-29T11:13:06Z</time></trkpt><trkpt lat="43.46701113918436" lon="12.504879741048219"><ele>749.0</ele><time>2026-04-29T11:13:07Z</time></trkpt><trkpt lat="43.46694055109669" lon="12.50490237669658"><ele>748.8571428571429</ele><time>2026-04-29T11:13:08Z</time></trkpt><trkpt lat="43.46687094510672" lon="12.504927486759808"><ele>748.7142857142858</ele><time>2026-04-29T11:13:09Z</time></trkpt><trkpt lat="43.46680281390103" lon="12.504947987778191"><ele>748.5714285714286</ele><time>2026-04-29T11:13:10Z</time></trkpt><trkpt lat="43.466736624200394" lon="12.504958540515016"><ele>748.4285714285714</ele><time>2026-04-29T11:13:11Z</time></trkpt><trkpt lat="43.46666997330473" lon="12.504964504418957"><ele>748.2857142857143</ele><time>2026-04-29T11:13:12Z</time></trkpt><trkpt lat="43.4666018830961" lon="12.504968924854118"><ele>748.1428571428571</ele><time>2026-04-29T11:13:13Z</time></trkpt><trkpt lat="43.46653468212712" lon="12.504968653609817"><ele>748.0</ele><time>2026-04-29T11:13:14Z</time></trkpt><trkpt lat="43.46646866636941" lon="12.50496779657864"><ele>748.0</ele><time>2026-04-29T11:13:15Z</time></trkpt><trkpt lat="43.46640200383422" lon="12.504967007498193"><ele>748.0</ele><time>2026-04-29T11:13:16Z</time></trkpt><trkpt lat="43.466337201074026" lon="12.50496324111297"><ele>748.0</ele><time>2026-04-29T11:13:17Z</time></trkpt><trkpt lat="43.466273350366855" lon="12.504963772352783"><ele>748.0</ele><time>2026-04-29T11:13:18Z</time></trkpt><trkpt lat="43.466206870437595" lon="12.504964134985547"><ele>748.0</ele><time>2026-04-29T11:13:19Z</time></trkpt><trkpt lat="43.466122669587634" lon="12.504962833617723"><ele>748.0</ele><time>2026-04-29T11:13:20Z</time></trkpt><trkpt lat="43.46602716531093" lon="12.504962650726457"><ele>748.0</ele><time>2026-04-29T11:13:21Z</time></trkpt><trkpt lat="43.46593173177513" lon="12.504964605481238"><ele>748.25</ele><time>2026-04-29T11:13:22Z</time></trkpt><trkpt lat="43.465819623499826" lon="12.504968276993765"><ele>748.5</ele><time>2026-04-29T11:13:23Z</time></trkpt><trkpt lat="43.46569905723647" lon="12.504971044119278"><ele>748.75</ele><time>2026-04-29T11:13:24Z</time></trkpt><trkpt lat="43.4655662263606" lon="12.504970942688862"><ele>749.0</ele><time>2026-04-29T11:13:25Z</time></trkpt><trkpt lat="43.465433538732604" lon="12.504968977713329"><ele>749.0</ele><time>2026-04-29T11:13:26Z</time></trkpt><trkpt lat="43.46530848232061" lon="12.504957210801638"><ele>749.0</ele><time>2026-04-29T11:13:27Z</time></trkpt><trkpt lat="43.46518180108863" lon="12.504932127631154"><ele>749.0</ele><time>2026-04-29T11:13:28Z</time></trkpt><trkpt lat="43.465065123584075" lon="12.504906768462986"><ele>749.0</ele><time>2026-04-29T11:13:29Z</time></trkpt><trkpt lat="43.46495502369073" lon="12.504888528963596"><ele>749.0</ele><time>2026-04-29T11:13:30Z</time></trkpt><trkpt lat="43.46486119196037" lon="12.504845458654138"><ele>749.0</ele><time>2026-04-29T11:13:31Z</time></trkpt><trkpt lat="43.46477998796408" lon="12.50481929315293"><ele>749.0</ele><time>2026-04-29T11:13:32Z</time></trkpt><trkpt lat="43.46471457871156" lon="12.50478953633264"><ele>749.0</ele><time>2026-04-29T11:13:33Z</time></trkpt><trkpt lat="43.46461180467535" lon="12.504729493633056"><ele>749.0</ele><time>2026-04-29T11:13:35Z</time></trkpt><trkpt lat="43.46455525755959" lon="12.504677513684538"><ele>749.0</ele><time>2026-04-29T11:13:36Z</time></trkpt><trkpt lat="43.4644886758304" lon="12.504609129294357"><ele>749.0</ele><time>2026-04-29T11:13:37Z</time></trkpt><trkpt lat="43.46441977136918" lon="12.504522918250979"><ele>749.0</ele><time>2026-04-29T11:13:38.001Z</time></trkpt><trkpt lat="43.46435682659414" lon="12.504409912863716"><ele>749.0</ele><time>2026-04-29T11:13:39.001Z</time></trkpt><trkpt lat="43.46429552073234" lon="12.504301337877529"><ele>749.0</ele><time>2026-04-29T11:13:40.001Z</time></trkpt><trkpt lat="43.46423735687565" lon="12.504203929711302"><ele>749.0</ele><time>2026-04-29T11:13:41.001Z</time></trkpt><trkpt lat="43.464173813619915" lon="12.504109146451787"><ele>749.0</ele><time>2026-04-29T11:13:42.001Z</time></trkpt><trkpt lat="43.464095157518805" lon="12.504022296795343"><ele>749.0</ele><time>2026-04-29T11:13:43.001Z</time></trkpt><trkpt lat="43.4639999411066" lon="12.503945580599007"><ele>749.0</ele><time>2026-04-29T11:13:44.001Z</time></trkpt><trkpt lat="43.463904515755544" lon="12.503877400921402"><ele>749.0</ele><time>2026-04-29T11:13:45.001Z</time></trkpt><trkpt lat="43.46380332336131" lon="12.503807285134567"><ele>749.0</ele><time>2026-04-29T11:13:46.001Z</time></trkpt><trkpt lat="43.46370902743651" lon="12.503737470960358"><ele>749.2</ele><time>2026-04-29T11:13:47.001Z</time></trkpt><trkpt lat="43.46362336428615" lon="12.503659968059425"><ele>749.4000000000001</ele><time>2026-04-29T11:13:48.001Z</time></trkpt><trkpt lat="43.46353986956784" lon="12.503571225607093"><ele>749.6</ele><time>2026-04-29T11:13:49.001Z</time></trkpt><trkpt lat="43.46346059869407" lon="12.503483300633592"><ele>749.8</ele><time>2026-04-29T11:13:50.001Z</time></trkpt><trkpt lat="43.46338073205844" lon="12.50339962465001"><ele>750.0</ele><time>2026-04-29T11:13:51.001Z</time></trkpt><trkpt lat="43.46330053657479" lon="12.503328298096983"><ele>750.0</ele><time>2026-04-29T11:13:52.001Z</time></trkpt><trkpt lat="43.46321443128498" lon="12.503263736683621"><ele>750.0</ele><time>2026-04-29T11:13:53.001Z</time></trkpt><trkpt lat="43.46313008018288" lon="12.503223029266188"><ele>750.0</ele><time>2026-04-29T11:13:54.001Z</time></trkpt><trkpt lat="43.463052432398506" lon="12.503190142442097"><ele>750.0</ele><time>2026-04-29T11:13:55.001Z</time></trkpt><trkpt lat="43.4629801246239" lon="12.503161900506415"><ele>750.0</ele><time>2026-04-29T11:13:56.001Z</time></trkpt><trkpt lat="43.46291634239975" lon="12.50313592922946"><ele>750.0</ele><time>2026-04-29T11:13:57.001Z</time></trkpt><trkpt lat="43.462854703345414" lon="12.503107015650585"><ele>750.4</ele><time>2026-04-29T11:13:58.001Z</time></trkpt><trkpt lat="43.462776670678785" lon="12.503087841887448"><ele>750.8</ele><time>2026-04-29T11:13:59.001Z</time></trkpt><trkpt lat="43.4627033361498" lon="12.503024490856282"><ele>751.2</ele><time>2026-04-29T11:14:00.001Z</time></trkpt><trkpt lat="43.4626355208292" lon="12.502934224457304"><ele>751.6</ele><time>2026-04-29T11:14:01.001Z</time></trkpt><trkpt lat="43.462568257781754" lon="12.502828702865173"><ele>752.0</ele><time>2026-04-29T11:14:02.001Z</time></trkpt><trkpt lat="43.46249493697286" lon="12.50272038310648"><ele>752.0</ele><time>2026-04-29T11:14:03.001Z</time></trkpt><trkpt lat="43.46243144450219" lon="12.502592284769166"><ele>752.0</ele><time>2026-04-29T11:14:04.001Z</time></trkpt><trkpt lat="43.46237323091745" lon="12.50247039134535"><ele>752.0</ele><time>2026-04-29T11:14:05.001Z</time></trkpt><trkpt lat="43.46232976671099" lon="12.50234789781393"><ele>752.0</ele><time>2026-04-29T11:14:06.001Z</time></trkpt><trkpt lat="43.46228235121317" lon="12.502207235129765"><ele>752.0</ele><time>2026-04-29T11:14:07.001Z</time></trkpt><trkpt lat="43.462238233864745" lon="12.502059405720612"><ele>750.0</ele><time>2026-04-29T11:14:08.001Z</time></trkpt><trkpt lat="43.4621930807855" lon="12.501899789868755"><ele>748.0</ele><time>2026-04-29T11:14:09.001Z</time></trkpt><trkpt lat="43.46210887180178" lon="12.501753139598542"><ele>746.0</ele><time>2026-04-29T11:14:10.001Z</time></trkpt><trkpt lat="43.46200429008694" lon="12.50164131836559"><ele>744.0</ele><time>2026-04-29T11:14:11.001Z</time></trkpt><trkpt lat="43.46189695135571" lon="12.501575969744202"><ele>744.0</ele><time>2026-04-29T11:14:12.001Z</time></trkpt><trkpt lat="43.46180011169279" lon="12.501487419433829"><ele>744.0</ele><time>2026-04-29T11:14:13.001Z</time></trkpt><trkpt lat="43.46168184832193" lon="12.501421273173905"><ele>744.0</ele><time>2026-04-29T11:14:14.001Z</time></trkpt><trkpt lat="43.46155973675524" lon="12.501372339144773"><ele>744.0</ele><time>2026-04-29T11:14:15.001Z</time></trkpt><trkpt lat="43.461434480535125" lon="12.501324499570934"><ele>744.0</ele><time>2026-04-29T11:14:16.001Z</time></trkpt><trkpt lat="43.4613080248454" lon="12.501281230961522"><ele>744.0</ele><time>2026-04-29T11:14:17.001Z</time></trkpt><trkpt lat="43.461231331291245" lon="12.50119840490181"><ele>744.0</ele><time>2026-04-29T11:14:18.002Z</time></trkpt><trkpt lat="43.461171400139364" lon="12.501129231822285"><ele>744.0</ele><time>2026-04-29T11:14:19.002Z</time></trkpt><trkpt lat="43.46111531466107" lon="12.50104092196031"><ele>744.0</ele><time>2026-04-29T11:14:20.002Z</time></trkpt><trkpt lat="43.461040849468915" lon="12.500930959441646"><ele>747.0</ele><time>2026-04-29T11:14:21.002Z</time></trkpt><trkpt lat="43.46094205869008" lon="12.50082470064165"><ele>750.0</ele><time>2026-04-29T11:14:22.002Z</time></trkpt><trkpt lat="43.460822119687485" lon="12.500745990130397"><ele>753.0</ele><time>2026-04-29T11:14:23.002Z</time></trkpt><trkpt lat="43.46070107308044" lon="12.50068976871882"><ele>756.0</ele><time>2026-04-29T11:14:24.002Z</time></trkpt><trkpt lat="43.46057372327635" lon="12.500654578022894"><ele>754.75</ele><time>2026-04-29T11:14:25.002Z</time></trkpt><trkpt lat="43.46044307825744" lon="12.500652816986142"><ele>753.5</ele><time>2026-04-29T11:14:26.002Z</time></trkpt><trkpt lat="43.460321420151644" lon="12.500694774738248"><ele>752.25</ele><time>2026-04-29T11:14:27.002Z</time></trkpt><trkpt lat="43.46020705001973" lon="12.500710573458882"><ele>751.0</ele><time>2026-04-29T11:14:28.002Z</time></trkpt><trkpt lat="43.460098522244664" lon="12.500751020497304"><ele>751.0</ele><time>2026-04-29T11:14:29.002Z</time></trkpt><trkpt lat="43.459997100757" lon="12.500829134057074"><ele>751.0</ele><time>2026-04-29T11:14:30.002Z</time></trkpt><trkpt lat="43.45988817878112" lon="12.50093634440273"><ele>751.0</ele><time>2026-04-29T11:14:31.002Z</time></trkpt><trkpt lat="43.459744413894505" lon="12.501028530387229"><ele>751.0</ele><time>2026-04-29T11:14:32.002Z</time></trkpt><trkpt lat="43.45960864888051" lon="12.501133454690626"><ele>752.0</ele><time>2026-04-29T11:14:33.002Z</time></trkpt><trkpt lat="43.459485922313746" lon="12.501247705502928"><ele>753.0</ele><time>2026-04-29T11:14:34.002Z</time></trkpt><trkpt lat="43.459363628591426" lon="12.501334694955144"><ele>754.0</ele><time>2026-04-29T11:14:35.002Z</time></trkpt><trkpt lat="43.45925288843799" lon="12.501432203715439"><ele>755.0</ele><time>2026-04-29T11:14:36.002Z</time></trkpt><trkpt lat="43.459157965952016" lon="12.50153976647423"><ele>755.0</ele><time>2026-04-29T11:14:37.002Z</time></trkpt><trkpt lat="43.45907824468502" lon="12.501669013784321"><ele>755.0</ele><time>2026-04-29T11:14:38.002Z</time></trkpt><trkpt lat="43.4590202995777" lon="12.501807500328498"><ele>755.0</ele><time>2026-04-29T11:14:39.002Z</time></trkpt><trkpt lat="43.45896398374614" lon="12.50195172656142"><ele>755.0</ele><time>2026-04-29T11:14:40.002Z</time></trkpt><trkpt lat="43.45890837178487" lon="12.502083225407102"><ele>754.8</ele><time>2026-04-29T11:14:41.002Z</time></trkpt><trkpt lat="43.45884930599782" lon="12.50219075161514"><ele>754.6</ele><time>2026-04-29T11:14:42.002Z</time></trkpt><trkpt lat="43.458779069856256" lon="12.502279239462746"><ele>754.4000000000001</ele><time>2026-04-29T11:14:43.002Z</time></trkpt><trkpt lat="43.45869357557358" lon="12.50233766667481"><ele>754.2</ele><time>2026-04-29T11:14:44.002Z</time></trkpt><trkpt lat="43.458596781037535" lon="12.502372838459628"><ele>754.0</ele><time>2026-04-29T11:14:45.002Z</time></trkpt><trkpt lat="43.458486146653485" lon="12.50240743006368"><ele>754.0</ele><time>2026-04-29T11:14:46.002Z</time></trkpt><trkpt lat="43.45837950235174" lon="12.50238510395442"><ele>754.0</ele><time>2026-04-29T11:14:47.002Z</time></trkpt><trkpt lat="43.45828885002085" lon="12.502352024038005"><ele>754.0</ele><time>2026-04-29T11:14:48.002Z</time></trkpt><trkpt lat="43.45821212744378" lon="12.50229500857742"><ele>754.0</ele><time>2026-04-29T11:14:49.002Z</time></trkpt><trkpt lat="43.45813585958191" lon="12.502221743277328"><ele>754.0</ele><time>2026-04-29T11:14:50.002Z</time></trkpt><trkpt lat="43.458048274026524" lon="12.502129045085264"><ele>754.0</ele><time>2026-04-29T11:14:51.002Z</time></trkpt><trkpt lat="43.457967177192955" lon="12.502042213499768"><ele>754.0</ele><time>2026-04-29T11:14:52.002Z</time></trkpt><trkpt lat="43.45786381850783" lon="12.501948644268639"><ele>754.0</ele><time>2026-04-29T11:14:53.002Z</time></trkpt><trkpt lat="43.45774840946916" lon="12.501894605153508"><ele>754.0</ele><time>2026-04-29T11:14:54.002Z</time></trkpt><trkpt lat="43.45763677864712" lon="12.501893042855164"><ele>754.0</ele><time>2026-04-29T11:14:55.002Z</time></trkpt><trkpt lat="43.457546473914846" lon="12.501847988539327"><ele>754.0</ele><time>2026-04-29T11:14:56.003Z</time></trkpt><trkpt lat="43.45748404194804" lon="12.501809190029226"><ele>754.0</ele><time>2026-04-29T11:14:57.003Z</time></trkpt><trkpt lat="43.45745650763134" lon="12.5016605764613"><ele>754.0</ele><time>2026-04-29T11:14:59.003Z</time></trkpt><trkpt lat="43.457483661478506" lon="12.501481738359473"><ele>754.0</ele><time>2026-04-29T11:15:01.003Z</time></trkpt><trkpt lat="43.45749159977522" lon="12.50138040447237"><ele>754.0</ele><time>2026-04-29T11:15:02.003Z</time></trkpt><trkpt lat="43.45750055308842" lon="12.501266115017781"><ele>754.0</ele><time>2026-04-29T11:15:03.003Z</time></trkpt><trkpt lat="43.45750460360535" lon="12.501138961414801"><ele>754.0</ele><time>2026-04-29T11:15:04.003Z</time></trkpt><trkpt lat="43.45749249445544" lon="12.501002649320887"><ele>754.0</ele><time>2026-04-29T11:15:05.003Z</time></trkpt><trkpt lat="43.45744933131397" lon="12.500860174996488"><ele>754.0</ele><time>2026-04-29T11:15:06.003Z</time></trkpt><trkpt lat="43.45738204834667" lon="12.500732190211595"><ele>756.2</ele><time>2026-04-29T11:15:07.003Z</time></trkpt><trkpt lat="43.45731252639511" lon="12.500616986431796"><ele>758.4000000000001</ele><time>2026-04-29T11:15:08Z</time></trkpt><trkpt lat="43.45724025697734" lon="12.500514288805396"><ele>760.6</ele><time>2026-04-29T11:15:09Z</time></trkpt><trkpt lat="43.45717616775872" lon="12.5004259642433"><ele>762.8</ele><time>2026-04-29T11:15:10Z</time></trkpt><trkpt lat="43.45711239742735" lon="12.500355544447304"><ele>765.0</ele><time>2026-04-29T11:15:11Z</time></trkpt><trkpt lat="43.45700314537169" lon="12.500280111577567"><ele>765.0</ele><time>2026-04-29T11:15:13Z</time></trkpt><trkpt lat="43.45693977770697" lon="12.500264744756178"><ele>765.0</ele><time>2026-04-29T11:15:14Z</time></trkpt><trkpt lat="43.45686487478875" lon="12.50029648111256"><ele>765.0</ele><time>2026-04-29T11:15:15Z</time></trkpt><trkpt lat="43.45677614462205" lon="12.500266895365522"><ele>765.0</ele><time>2026-04-29T11:15:16Z</time></trkpt><trkpt lat="43.45666660951081" lon="12.500256493756504"><ele>765.0</ele><time>2026-04-29T11:15:17Z</time></trkpt><trkpt lat="43.45655108822483" lon="12.500245153404567"><ele>765.0</ele><time>2026-04-29T11:15:18Z</time></trkpt><trkpt lat="43.456441652175535" lon="12.500225780472025"><ele>765.0</ele><time>2026-04-29T11:15:19Z</time></trkpt><trkpt lat="43.456343357939254" lon="12.500189259310943"><ele>765.0</ele><time>2026-04-29T11:15:20Z</time></trkpt><trkpt lat="43.45625436707892" lon="12.500140472034394"><ele>765.0</ele><time>2026-04-29T11:15:21Z</time></trkpt><trkpt lat="43.45620462528415" lon="12.500079330106166"><ele>765.0</ele><time>2026-04-29T11:15:22Z</time></trkpt><trkpt lat="43.45611292162594" lon="12.499962191989365"><ele>761.0</ele><time>2026-04-29T11:15:24Z</time></trkpt><trkpt lat="43.45607030199014" lon="12.499877714160565"><ele>757.0</ele><time>2026-04-29T11:15:25Z</time></trkpt><trkpt lat="43.456018958359074" lon="12.499773723998958"><ele>753.0</ele><time>2026-04-29T11:15:26Z</time></trkpt><trkpt lat="43.45597299374418" lon="12.499692089502705"><ele>749.0</ele><time>2026-04-29T11:15:27Z</time></trkpt><trkpt lat="43.45585465576029" lon="12.49960042994478"><ele>745.0</ele><time>2026-04-29T11:15:29Z</time></trkpt><trkpt lat="43.4557544785956" lon="12.499595475326283"><ele>745.0</ele><time>2026-04-29T11:15:30Z</time></trkpt><trkpt lat="43.455644365513656" lon="12.4996590743692"><ele>745.0</ele><time>2026-04-29T11:15:31Z</time></trkpt><trkpt lat="43.45554516368698" lon="12.499707053918192"><ele>745.0</ele><time>2026-04-29T11:15:32Z</time></trkpt><trkpt lat="43.455453468051196" lon="12.499691744853603"><ele>745.0</ele><time>2026-04-29T11:15:33Z</time></trkpt><trkpt lat="43.45539009121268" lon="12.499671458915982"><ele>745.0</ele><time>2026-04-29T11:15:34Z</time></trkpt><trkpt lat="43.4552840599533" lon="12.499545005158257"><ele>745.4</ele><time>2026-04-29T11:15:36Z</time></trkpt><trkpt lat="43.455190209526144" lon="12.499439194090318"><ele>745.8</ele><time>2026-04-29T11:15:37Z</time></trkpt><trkpt lat="43.455080711886424" lon="12.49934191007435"><ele>746.2</ele><time>2026-04-29T11:15:38Z</time></trkpt><trkpt lat="43.45499358687107" lon="12.499278803795296"><ele>746.6</ele><time>2026-04-29T11:15:39Z</time></trkpt><trkpt lat="43.454909941650115" lon="12.499230936198506"><ele>747.0</ele><time>2026-04-29T11:15:40Z</time></trkpt><trkpt lat="43.454842172731496" lon="12.499201548216254"><ele>747.0</ele><time>2026-04-29T11:15:41Z</time></trkpt><trkpt lat="43.454695790305976" lon="12.499206149207055"><ele>747.0</ele><time>2026-04-29T11:15:43.001Z</time></trkpt><trkpt lat="43.454620769565906" lon="12.499260145948748"><ele>747.0</ele><time>2026-04-29T11:15:44.001Z</time></trkpt><trkpt lat="43.45454437836489" lon="12.499304575614097"><ele>747.0</ele><time>2026-04-29T11:15:45.001Z</time></trkpt><trkpt lat="43.454480949498254" lon="12.499340482197251"><ele>747.0</ele><time>2026-04-29T11:15:46.001Z</time></trkpt><trkpt lat="43.454411189403245" lon="12.499360883421241"><ele>743.0</ele><time>2026-04-29T11:15:47.001Z</time></trkpt><trkpt lat="43.454296929270534" lon="12.499281990334401"><ele>739.0</ele><time>2026-04-29T11:15:49.001Z</time></trkpt><trkpt lat="43.45425645534815" lon="12.499203510121811"><ele>735.0</ele><time>2026-04-29T11:15:50.001Z</time></trkpt><trkpt lat="43.454199446606246" lon="12.499100399512047"><ele>731.0</ele><time>2026-04-29T11:15:51.001Z</time></trkpt><trkpt lat="43.45413107244615" lon="12.499006078599553"><ele>727.0</ele><time>2026-04-29T11:15:52.001Z</time></trkpt><trkpt lat="43.454040105551286" lon="12.498950439215188"><ele>727.0</ele><time>2026-04-29T11:15:53.001Z</time></trkpt><trkpt lat="43.45396162217961" lon="12.498881389101214"><ele>727.0</ele><time>2026-04-29T11:15:54.001Z</time></trkpt><trkpt lat="43.45386846874707" lon="12.498825341680528"><ele>727.0</ele><time>2026-04-29T11:15:55.001Z</time></trkpt><trkpt lat="43.45376959796629" lon="12.49877627860623"><ele>727.0</ele><time>2026-04-29T11:15:56.001Z</time></trkpt><trkpt lat="43.45366830718895" lon="12.498761263977585"><ele>727.0</ele><time>2026-04-29T11:15:57.001Z</time></trkpt><trkpt lat="43.453583317466254" lon="12.498735076956045"><ele>728.5</ele><time>2026-04-29T11:15:58.001Z</time></trkpt><trkpt lat="43.453512049945495" lon="12.498717806124064"><ele>730.0</ele><time>2026-04-29T11:15:59.001Z</time></trkpt><trkpt lat="43.453444840435516" lon="12.4987150716947"><ele>731.5</ele><time>2026-04-29T11:16:00.001Z</time></trkpt><trkpt lat="43.45338073931131" lon="12.498745966123085"><ele>733.0</ele><time>2026-04-29T11:16:01.001Z</time></trkpt><trkpt lat="43.453311985812306" lon="12.498802726312615"><ele>734.5</ele><time>2026-04-29T11:16:02.001Z</time></trkpt><trkpt lat="43.45325608284374" lon="12.498890478113296"><ele>736.0</ele><time>2026-04-29T11:16:03.001Z</time></trkpt><trkpt lat="43.453198856573586" lon="12.49900138130637"><ele>731.8</ele><time>2026-04-29T11:16:04.001Z</time></trkpt><trkpt lat="43.45314214948622" lon="12.499131980824622"><ele>727.5999999999999</ele><time>2026-04-29T11:16:05.001Z</time></trkpt><trkpt lat="43.45309890238078" lon="12.499284108189913"><ele>723.4</ele><time>2026-04-29T11:16:06.001Z</time></trkpt><trkpt lat="43.45305862435644" lon="12.499425458678807"><ele>719.2</ele><time>2026-04-29T11:16:07.001Z</time></trkpt><trkpt lat="43.453025247710315" lon="12.499542997386516"><ele>715.0</ele><time>2026-04-29T11:16:08.001Z</time></trkpt><trkpt lat="43.45298617847171" lon="12.499640425621196"><ele>712.0</ele><time>2026-04-29T11:16:09.001Z</time></trkpt><trkpt lat="43.45293575633987" lon="12.49972818958809"><ele>709.0</ele><time>2026-04-29T11:16:10.001Z</time></trkpt><trkpt lat="43.45287896173874" lon="12.499787738843608"><ele>706.0</ele><time>2026-04-29T11:16:11.001Z</time></trkpt><trkpt lat="43.452803629804585" lon="12.499811950053786"><ele>703.0</ele><time>2026-04-29T11:16:12.001Z</time></trkpt><trkpt lat="43.45275622331267" lon="12.499885457882778"><ele>700.0</ele><time>2026-04-29T11:16:13.001Z</time></trkpt><trkpt lat="43.452530066677205" lon="12.499728034596483"><ele>700.0</ele><time>2026-04-29T11:16:15.001Z</time></trkpt><trkpt lat="43.45240849546058" lon="12.499648601040715"><ele>700.0</ele><time>2026-04-29T11:16:16.001Z</time></trkpt><trkpt lat="43.45229688562272" lon="12.499580304776332"><ele>700.0</ele><time>2026-04-29T11:16:17.001Z</time></trkpt><trkpt lat="43.45220893794356" lon="12.499518767465723"><ele>700.0</ele><time>2026-04-29T11:16:18.001Z</time></trkpt><trkpt lat="43.452132110391595" lon="12.499440277080485"><ele>700.0</ele><time>2026-04-29T11:16:19.001Z</time></trkpt><trkpt lat="43.45206701671162" lon="12.499341686062856"><ele>700.0</ele><time>2026-04-29T11:16:20.001Z</time></trkpt><trkpt lat="43.4520119649182" lon="12.499218598847799"><ele>700.0</ele><time>2026-04-29T11:16:21.001Z</time></trkpt><trkpt lat="43.45196148576044" lon="12.499076911382833"><ele>700.0</ele><time>2026-04-29T11:16:22.001Z</time></trkpt><trkpt lat="43.45192398408682" lon="12.498931663566538"><ele>700.0</ele><time>2026-04-29T11:16:23.001Z</time></trkpt><trkpt lat="43.45187460511723" lon="12.498806491543547"><ele>702.2</ele><time>2026-04-29T11:16:24.001Z</time></trkpt><trkpt lat="43.45180362641073" lon="12.498699818116558"><ele>704.4</ele><time>2026-04-29T11:16:25.001Z</time></trkpt><trkpt lat="43.45171638969553" lon="12.498611099040264"><ele>706.5999999999999</ele><time>2026-04-29T11:16:26.001Z</time></trkpt><trkpt lat="43.45162729204258" lon="12.498538011434341"><ele>708.8</ele><time>2026-04-29T11:16:27.002Z</time></trkpt><trkpt lat="43.451534024805156" lon="12.498486872688314"><ele>711.0</ele><time>2026-04-29T11:16:28.002Z</time></trkpt><trkpt lat="43.45143387494493" lon="12.498462131986216"><ele>711.0</ele><time>2026-04-29T11:16:29.002Z</time></trkpt><trkpt lat="43.45133683165435" lon="12.498473418211578"><ele>711.0</ele><time>2026-04-29T11:16:30.002Z</time></trkpt><trkpt lat="43.45123313207729" lon="12.498506756231494"><ele>711.0</ele><time>2026-04-29T11:16:31.002Z</time></trkpt><trkpt lat="43.451122160785296" lon="12.498562700951242"><ele>711.0</ele><time>2026-04-29T11:16:32.002Z</time></trkpt><trkpt lat="43.45100055238499" lon="12.498623792550653"><ele>708.25</ele><time>2026-04-29T11:16:33.002Z</time></trkpt><trkpt lat="43.45087118009348" lon="12.498681341827208"><ele>705.5</ele><time>2026-04-29T11:16:34.002Z</time></trkpt><trkpt lat="43.45073304807592" lon="12.498731713126391"><ele>702.75</ele><time>2026-04-29T11:16:35.002Z</time></trkpt><trkpt lat="43.4505893773698" lon="12.498773812357374"><ele>700.0</ele><time>2026-04-29T11:16:36.002Z</time></trkpt><trkpt lat="43.45045574860222" lon="12.498798613493202"><ele>698.5</ele><time>2026-04-29T11:16:37.002Z</time></trkpt><trkpt lat="43.4503280019394" lon="12.498811445797783"><ele>697.0</ele><time>2026-04-29T11:16:38.002Z</time></trkpt><trkpt lat="43.45020831194986" lon="12.498817259754004"><ele>695.5</ele><time>2026-04-29T11:16:39.002Z</time></trkpt><trkpt lat="43.45009259430493" lon="12.498817855742741"><ele>694.0</ele><time>2026-04-29T11:16:40.002Z</time></trkpt><trkpt lat="43.44999191805335" lon="12.498817573168706"><ele>694.0</ele><time>2026-04-29T11:16:41.002Z</time></trkpt><trkpt lat="43.44989963153197" lon="12.498820895274052"><ele>694.0</ele><time>2026-04-29T11:16:42.002Z</time></trkpt><trkpt lat="43.449830010062136" lon="12.49882526393807"><ele>694.0</ele><time>2026-04-29T11:16:43.002Z</time></trkpt><trkpt lat="43.44976886241215" lon="12.498791908088"><ele>694.0</ele><time>2026-04-29T11:16:47.002Z</time></trkpt><trkpt lat="43.44981192633879" lon="12.498711691821628"><ele>694.0</ele><time>2026-04-29T11:16:55.002Z</time></trkpt><trkpt lat="43.44989475145188" lon="12.498670833361421"><ele>694.0</ele><time>2026-04-29T11:16:57.002Z</time></trkpt><trkpt lat="43.44998794394708" lon="12.498620645933292"><ele>693.8333333333334</ele><time>2026-04-29T11:16:59.002Z</time></trkpt><trkpt lat="43.45007530554236" lon="12.498560285529159"><ele>693.6666666666667</ele><time>2026-04-29T11:17:01.002Z</time></trkpt><trkpt lat="43.45015000780161" lon="12.498466352200248"><ele>693.5</ele><time>2026-04-29T11:17:03.002Z</time></trkpt><trkpt lat="43.4501956653219" lon="12.49835383833149"><ele>693.3333333333334</ele><time>2026-04-29T11:17:05.002Z</time></trkpt><trkpt lat="43.45020515925296" lon="12.4982336246148"><ele>693.1666666666666</ele><time>2026-04-29T11:17:07.002Z</time></trkpt><trkpt lat="43.4501920744453" lon="12.498145044329052"><ele>693.0</ele><time>2026-04-29T11:17:09.003Z</time></trkpt><trkpt lat="43.45017593950864" lon="12.498053580902457"><ele>693.0</ele><time>2026-04-29T11:17:12.003Z</time></trkpt><trkpt lat="43.45013926627683" lon="12.49796638560584"><ele>693.0</ele><time>2026-04-29T11:17:14.001Z</time></trkpt><trkpt lat="43.45009923962552" lon="12.497888993459432"><ele>693.0</ele><time>2026-04-29T11:17:25.001Z</time></trkpt><trkpt lat="43.450139100779786" lon="12.498004411672639"><ele>693.0</ele><time>2026-04-29T11:17:41.001Z</time></trkpt><trkpt lat="43.450181533265095" lon="12.49809551215648"><ele>693.0</ele><time>2026-04-29T11:17:43.001Z</time></trkpt><trkpt lat="43.450207819037544" lon="12.498210012616068"><ele>693.0</ele><time>2026-04-29T11:18:00.001Z</time></trkpt><trkpt lat="43.450191526061246" lon="12.498329467087824"><ele>693.0</ele><time>2026-04-29T11:18:03.001Z</time></trkpt><trkpt lat="43.45013455983648" lon="12.498459482477834"><ele>693.0</ele><time>2026-04-29T11:18:05.001Z</time></trkpt><trkpt lat="43.45006879208043" lon="12.498544366329009"><ele>693.0</ele><time>2026-04-29T11:18:06.001Z</time></trkpt><trkpt lat="43.45001319734576" lon="12.49860297570521"><ele>693.0</ele><time>2026-04-29T11:18:07.001Z</time></trkpt><trkpt lat="43.44995124158403" lon="12.498645944082833"><ele>693.0</ele><time>2026-04-29T11:18:08.001Z</time></trkpt><trkpt lat="43.44988228585373" lon="12.498684191285424"><ele>693.0</ele><time>2026-04-29T11:18:09.001Z</time></trkpt><trkpt lat="43.449803583182096" lon="12.49872663902761"><ele>693.2</ele><time>2026-04-29T11:18:10.001Z</time></trkpt><trkpt lat="43.44970527389757" lon="12.498796812702322"><ele>693.4</ele><time>2026-04-29T11:18:12.001Z</time></trkpt><trkpt lat="43.449639484794304" lon="12.498812226972975"><ele>693.6</ele><time>2026-04-29T11:18:13.001Z</time></trkpt><trkpt lat="43.44954633679669" lon="12.498814630785514"><ele>693.8000000000001</ele><time>2026-04-29T11:18:14.001Z</time></trkpt><trkpt lat="43.44941850234129" lon="12.498807173562303"><ele>694.0</ele><time>2026-04-29T11:18:15.001Z</time></trkpt><trkpt lat="43.44928086178224" lon="12.498809634665387"><ele>695.4000000000001</ele><time>2026-04-29T11:18:16.001Z</time></trkpt><trkpt lat="43.44916056514188" lon="12.498826569670243"><ele>696.8</ele><time>2026-04-29T11:18:17.001Z</time></trkpt><trkpt lat="43.44905626760615" lon="12.498856149977987"><ele>698.2</ele><time>2026-04-29T11:18:18.001Z</time></trkpt><trkpt lat="43.448975248766935" lon="12.498892800858249"><ele>699.5999999999999</ele><time>2026-04-29T11:18:19.001Z</time></trkpt><trkpt lat="43.448913323846625" lon="12.498943769641386"><ele>701.0</ele><time>2026-04-29T11:18:20.001Z</time></trkpt><trkpt lat="43.44882747879034" lon="12.499079488368618"><ele>701.4</ele><time>2026-04-29T11:18:22.001Z</time></trkpt><trkpt lat="43.44877689519445" lon="12.499184143901708"><ele>701.8</ele><time>2026-04-29T11:18:23.001Z</time></trkpt><trkpt lat="43.4487097239098" lon="12.499288129242844"><ele>702.1999999999999</ele><time>2026-04-29T11:18:24.001Z</time></trkpt><trkpt lat="43.44863461905629" lon="12.499380745831205"><ele>702.5999999999999</ele><time>2026-04-29T11:18:25.001Z</time></trkpt><trkpt lat="43.4485557780957" lon="12.49945156991771"><ele>703.0</ele><time>2026-04-29T11:18:26.001Z</time></trkpt><trkpt lat="43.448464928583434" lon="12.499509959592693"><ele>703.0</ele><time>2026-04-29T11:18:27.001Z</time></trkpt><trkpt lat="43.44835936196597" lon="12.499567004434518"><ele>703.0</ele><time>2026-04-29T11:18:28.001Z</time></trkpt><trkpt lat="43.44824517084456" lon="12.499627135770524"><ele>703.0</ele><time>2026-04-29T11:18:29.002Z</time></trkpt><trkpt lat="43.448136815362716" lon="12.499690835674873"><ele>703.0</ele><time>2026-04-29T11:18:30.002Z</time></trkpt><trkpt lat="43.44804014031139" lon="12.499753168692004"><ele>705.4</ele><time>2026-04-29T11:18:31.002Z</time></trkpt><trkpt lat="43.44794863019504" lon="12.499825887547399"><ele>707.8</ele><time>2026-04-29T11:18:32.002Z</time></trkpt><trkpt lat="43.44786166289206" lon="12.499913625674802"><ele>710.2</ele><time>2026-04-29T11:18:33.002Z</time></trkpt><trkpt lat="43.44777590827061" lon="12.500019968816451"><ele>712.6</ele><time>2026-04-29T11:18:34.002Z</time></trkpt><trkpt lat="43.447695365992786" lon="12.500137470440839"><ele>715.0</ele><time>2026-04-29T11:18:35.002Z</time></trkpt><trkpt lat="43.447629000791245" lon="12.5002535798951"><ele>715.0</ele><time>2026-04-29T11:18:36.002Z</time></trkpt><trkpt lat="43.44757849246134" lon="12.500354667442751"><ele>715.0</ele><time>2026-04-29T11:18:37.002Z</time></trkpt><trkpt lat="43.447551223991816" lon="12.500451330794485"><ele>715.0</ele><time>2026-04-29T11:18:38.002Z</time></trkpt><trkpt lat="43.44754218701599" lon="12.500563453474077"><ele>715.0</ele><time>2026-04-29T11:18:39.002Z</time></trkpt><trkpt lat="43.4475500367447" lon="12.50069327705597"><ele>715.0</ele><time>2026-04-29T11:18:40.002Z</time></trkpt><trkpt lat="43.44756335915776" lon="12.500852387651275"><ele>716.25</ele><time>2026-04-29T11:18:41.002Z</time></trkpt><trkpt lat="43.4475845343229" lon="12.50102535520641"><ele>717.5</ele><time>2026-04-29T11:18:42.002Z</time></trkpt><trkpt lat="43.44760938585906" lon="12.501207311554497"><ele>718.75</ele><time>2026-04-29T11:18:43.002Z</time></trkpt><trkpt lat="43.4476457077953" lon="12.501394062815274"><ele>720.0</ele><time>2026-04-29T11:18:44.002Z</time></trkpt><trkpt lat="43.44769221634656" lon="12.501581068428964"><ele>719.75</ele><time>2026-04-29T11:18:45.002Z</time></trkpt><trkpt lat="43.44773407525998" lon="12.50176018346085"><ele>719.5</ele><time>2026-04-29T11:18:46.002Z</time></trkpt><trkpt lat="43.44776549955187" lon="12.50193795789866"><ele>719.25</ele><time>2026-04-29T11:18:47.002Z</time></trkpt><trkpt lat="43.44779831468849" lon="12.502130019762559"><ele>719.0</ele><time>2026-04-29T11:18:48.002Z</time></trkpt><trkpt lat="43.44782554026161" lon="12.50232932791814"><ele>719.0</ele><time>2026-04-29T11:18:49.002Z</time></trkpt><trkpt lat="43.44784757664557" lon="12.502511771026263"><ele>719.0</ele><time>2026-04-29T11:18:50.002Z</time></trkpt><trkpt lat="43.44786404677958" lon="12.502655503485201"><ele>719.0</ele><time>2026-04-29T11:18:51.002Z</time></trkpt><trkpt lat="43.44787257892669" lon="12.502772339396204"><ele>719.0</ele><time>2026-04-29T11:18:52.002Z</time></trkpt><trkpt lat="43.4478729668837" lon="12.50286965530194"><ele>719.0</ele><time>2026-04-29T11:18:53.002Z</time></trkpt><trkpt lat="43.447804456243354" lon="12.502990908273523"><ele>719.0</ele><time>2026-04-29T11:18:55.002Z</time></trkpt><trkpt lat="43.44773275070218" lon="12.5029963840344"><ele>719.0</ele><time>2026-04-29T11:18:56.002Z</time></trkpt><trkpt lat="43.44764511868743" lon="12.502974489024341"><ele>719.0</ele><time>2026-04-29T11:18:57.002Z</time></trkpt><trkpt lat="43.447534559422714" lon="12.502920951967722"><ele>719.0</ele><time>2026-04-29T11:18:58.002Z</time></trkpt><trkpt lat="43.44739821698395" lon="12.502832423407828"><ele>719.0</ele><time>2026-04-29T11:18:59.002Z</time></trkpt><trkpt lat="43.447229212527944" lon="12.502728552206923"><ele>716.3333333333333</ele><time>2026-04-29T11:19:00.002Z</time></trkpt><trkpt lat="43.447053152910165" lon="12.502638750030522"><ele>713.6666666666666</ele><time>2026-04-29T11:19:01.002Z</time></trkpt><trkpt lat="43.44689968536515" lon="12.502565585762289"><ele>711.0</ele><time>2026-04-29T11:19:02.002Z</time></trkpt><trkpt lat="43.446787652297914" lon="12.502510642826847"><ele>711.0</ele><time>2026-04-29T11:19:03.002Z</time></trkpt><trkpt lat="43.44669399206694" lon="12.502472727834808"><ele>711.0</ele><time>2026-04-29T11:19:04.002Z</time></trkpt><trkpt lat="43.4466175976729" lon="12.502448978567838"><ele>711.0</ele><time>2026-04-29T11:19:05.002Z</time></trkpt><trkpt lat="43.446541266947584" lon="12.502412214391759"><ele>711.0</ele><time>2026-04-29T11:19:07.002Z</time></trkpt><trkpt lat="43.44648216009726" lon="12.502325321972684"><ele>711.0</ele><time>2026-04-29T11:19:10.002Z</time></trkpt><trkpt lat="43.4464104672592" lon="12.502242236301432"><ele>711.0</ele><time>2026-04-29T11:19:13.002Z</time></trkpt><trkpt lat="43.44634758523331" lon="12.502124553849956"><ele>711.4285714285714</ele><time>2026-04-29T11:19:15.003Z</time></trkpt><trkpt lat="43.446308048511064" lon="12.50204484833679"><ele>711.8571428571429</ele><time>2026-04-29T11:19:16.003Z</time></trkpt><trkpt lat="43.44627108146861" lon="12.501959388387627"><ele>712.2857142857142</ele><time>2026-04-29T11:19:17.003Z</time></trkpt><trkpt lat="43.44623299574485" lon="12.501861877909763"><ele>712.7142857142858</ele><time>2026-04-29T11:19:18.003Z</time></trkpt><trkpt lat="43.446196826377594" lon="12.501766279482755"><ele>713.1428571428571</ele><time>2026-04-29T11:19:19.003Z</time></trkpt><trkpt lat="43.44616264679356" lon="12.501680949432185"><ele>713.5714285714286</ele><time>2026-04-29T11:19:20Z</time></trkpt><trkpt lat="43.446136763472076" lon="12.501601428228359"><ele>714.0</ele><time>2026-04-29T11:19:21Z</time></trkpt><trkpt lat="43.446105497966556" lon="12.501520388373857"><ele>714.0</ele><time>2026-04-29T11:19:22Z</time></trkpt><trkpt lat="43.4460781178732" lon="12.501424312080944"><ele>714.0</ele><time>2026-04-29T11:19:23Z</time></trkpt><trkpt lat="43.446045574974825" lon="12.501338453460388"><ele>714.0</ele><time>2026-04-29T11:19:24Z</time></trkpt><trkpt lat="43.44601471068257" lon="12.501249086700323"><ele>714.0</ele><time>2026-04-29T11:19:25Z</time></trkpt><trkpt lat="43.445976474282205" lon="12.501165499197487"><ele>714.0</ele><time>2026-04-29T11:19:26Z</time></trkpt><trkpt lat="43.44593242953734" lon="12.501095568876911"><ele>714.0</ele><time>2026-04-29T11:19:27Z</time></trkpt><trkpt lat="43.445892711928416" lon="12.501021737061638"><ele>714.0</ele><time>2026-04-29T11:19:28Z</time></trkpt><trkpt lat="43.44585052609242" lon="12.500949773119007"><ele>716.6666666666666</ele><time>2026-04-29T11:19:29Z</time></trkpt><trkpt lat="43.445806875997306" lon="12.500881785470611"><ele>719.3333333333334</ele><time>2026-04-29T11:19:30Z</time></trkpt><trkpt lat="43.44576140375474" lon="12.500816318878067"><ele>722.0</ele><time>2026-04-29T11:19:31Z</time></trkpt><trkpt lat="43.445710491047514" lon="12.500753408430803"><ele>724.6666666666667</ele><time>2026-04-29T11:19:32Z</time></trkpt><trkpt lat="43.44566283583803" lon="12.500691900130462"><ele>727.3333333333334</ele><time>2026-04-29T11:19:33Z</time></trkpt><trkpt lat="43.445573030428456" lon="12.500572572332088"><ele>730.0</ele><time>2026-04-29T11:19:35Z</time></trkpt><trkpt lat="43.445524289928365" lon="12.500517406819164"><ele>730.0000000000001</ele><time>2026-04-29T11:19:36Z</time></trkpt><trkpt lat="43.44547214941573" lon="12.50046728401584"><ele>730.0</ele><time>2026-04-29T11:19:37Z</time></trkpt><trkpt lat="43.44541320301848" lon="12.500418219569694"><ele>730.0</ele><time>2026-04-29T11:19:38Z</time></trkpt><trkpt lat="43.44535326842875" lon="12.5003849294295"><ele>730.0</ele><time>2026-04-29T11:19:39Z</time></trkpt><trkpt lat="43.44528650951472" lon="12.500330223586902"><ele>730.0</ele><time>2026-04-29T11:19:40Z</time></trkpt><trkpt lat="43.445218270134326" lon="12.500272011197247"><ele>730.0000000000001</ele><time>2026-04-29T11:19:41Z</time></trkpt><trkpt lat="43.44515998553338" lon="12.500205563905709"><ele>730.0</ele><time>2026-04-29T11:19:42Z</time></trkpt><trkpt lat="43.44509834700459" lon="12.500147003193792"><ele>733.2857142857143</ele><time>2026-04-29T11:19:43Z</time></trkpt><trkpt lat="43.44503442990277" lon="12.50012405558273"><ele>736.5714285714286</ele><time>2026-04-29T11:19:45Z</time></trkpt><trkpt lat="43.44495907260016" lon="12.500146729193123"><ele>739.8571428571429</ele><time>2026-04-29T11:19:49Z</time></trkpt><trkpt lat="43.44501992530143" lon="12.500175172753655"><ele>743.1428571428571</ele><time>2026-04-29T11:19:56Z</time></trkpt><trkpt lat="43.44512271804759" lon="12.500178215911431"><ele>746.4285714285714</ele><time>2026-04-29T11:19:58.001Z</time></trkpt><trkpt lat="43.445172932276186" lon="12.50023717652064"><ele>749.7142857142858</ele><time>2026-04-29T11:19:59.001Z</time></trkpt><trkpt lat="43.44522427795755" lon="12.500289933434097"><ele>753.0</ele><time>2026-04-29T11:20:00.001Z</time></trkpt><trkpt lat="43.44532630049688" lon="12.50038237928142"><ele>749.8333333333334</ele><time>2026-04-29T11:20:02.001Z</time></trkpt><trkpt lat="43.44537910174181" lon="12.500433400790069"><ele>746.6666666666666</ele><time>2026-04-29T11:20:03.001Z</time></trkpt><trkpt lat="43.44548214029312" lon="12.500512700074042"><ele>743.5</ele><time>2026-04-29T11:20:05.001Z</time></trkpt><trkpt lat="43.44554428438535" lon="12.500547067630931"><ele>740.3333333333333</ele><time>2026-04-29T11:20:06.001Z</time></trkpt><trkpt lat="43.4455889351159" lon="12.500610605306075"><ele>737.1666666666666</ele><time>2026-04-29T11:20:07.001Z</time></trkpt><trkpt lat="43.44564213220889" lon="12.500670943041683"><ele>734.0</ele><time>2026-04-29T11:20:08.001Z</time></trkpt><trkpt lat="43.44568978478256" lon="12.500736238180743"><ele>733.0</ele><time>2026-04-29T11:20:09.001Z</time></trkpt><trkpt lat="43.44578044926078" lon="12.500845889776295"><ele>732.0</ele><time>2026-04-29T11:20:11.001Z</time></trkpt><trkpt lat="43.4458546569197" lon="12.500977035898892"><ele>731.0</ele><time>2026-04-29T11:20:13.001Z</time></trkpt><trkpt lat="43.445924560395966" lon="12.501092782873464"><ele>730.0</ele><time>2026-04-29T11:20:15.001Z</time></trkpt><trkpt lat="43.44599154228528" lon="12.501219665759614"><ele>726.8</ele><time>2026-04-29T11:20:17.001Z</time></trkpt><trkpt lat="43.44604329120808" lon="12.501369705551511"><ele>723.6</ele><time>2026-04-29T11:20:19.001Z</time></trkpt><trkpt lat="43.446093911854966" lon="12.501501904866632"><ele>720.4000000000001</ele><time>2026-04-29T11:20:21.001Z</time></trkpt><trkpt lat="43.44613757742482" lon="12.50165062436768"><ele>717.2</ele><time>2026-04-29T11:20:23.001Z</time></trkpt><trkpt lat="43.446168615976866" lon="12.501734850495719"><ele>714.0</ele><time>2026-04-29T11:20:24.001Z</time></trkpt><trkpt lat="43.44620347959182" lon="12.501829791634409"><ele>714.0</ele><time>2026-04-29T11:20:25.001Z</time></trkpt><trkpt lat="43.44623397209918" lon="12.50191924769325"><ele>714.0</ele><time>2026-04-29T11:20:26.001Z</time></trkpt><trkpt lat="43.44630196604996" lon="12.50204211329416"><ele>714.0</ele><time>2026-04-29T11:20:28.001Z</time></trkpt><trkpt lat="43.446330639687055" lon="12.502123499289883"><ele>714.0</ele><time>2026-04-29T11:20:29.001Z</time></trkpt><trkpt lat="43.44639579587929" lon="12.502241542447859"><ele>714.0</ele><time>2026-04-29T11:20:31.001Z</time></trkpt><trkpt lat="43.44645410570839" lon="12.502337152114062"><ele>714.0</ele><time>2026-04-29T11:20:33.001Z</time></trkpt><trkpt lat="43.44653712361936" lon="12.502425048349977"><ele>713.4000000000001</ele><time>2026-04-29T11:20:35.001Z</time></trkpt><trkpt lat="43.44664432724194" lon="12.50251742651851"><ele>712.8</ele><time>2026-04-29T11:20:37.001Z</time></trkpt><trkpt lat="43.44673339337751" lon="12.502629946402665"><ele>712.2</ele><time>2026-04-29T11:20:39.001Z</time></trkpt><trkpt lat="43.44678244572169" lon="12.502694111871897"><ele>711.5999999999999</ele><time>2026-04-29T11:20:40.001Z</time></trkpt><trkpt lat="43.44683429385536" lon="12.502752826519208"><ele>711.0</ele><time>2026-04-29T11:20:41.001Z</time></trkpt><trkpt lat="43.44693358113834" lon="12.502855856675604"><ele>707.8</ele><time>2026-04-29T11:20:43.001Z</time></trkpt><trkpt lat="43.4469883330383" lon="12.502953710065517"><ele>704.5999999999999</ele><time>2026-04-29T11:20:45.001Z</time></trkpt><trkpt lat="43.446969033019585" lon="12.503064788475157"><ele>701.4</ele><time>2026-04-29T11:20:47.001Z</time></trkpt><trkpt lat="43.446893221444256" lon="12.503172310396252"><ele>698.2</ele><time>2026-04-29T11:20:49.002Z</time></trkpt><trkpt lat="43.446818274261936" lon="12.503244458929652"><ele>695.0</ele><time>2026-04-29T11:20:51.002Z</time></trkpt><trkpt lat="43.44675455489511" lon="12.503317688503712"><ele>695.0000000000001</ele><time>2026-04-29T11:20:53.002Z</time></trkpt><trkpt lat="43.446679885001295" lon="12.503391047259948"><ele>695.0</ele><time>2026-04-29T11:20:55.002Z</time></trkpt><trkpt lat="43.44662106760594" lon="12.50343981059584"><ele>695.0</ele><time>2026-04-29T11:20:56.002Z</time></trkpt><trkpt lat="43.44655482172908" lon="12.503477000520464"><ele>695.0</ele><time>2026-04-29T11:20:57.002Z</time></trkpt><trkpt lat="43.44648570508557" lon="12.503489886738732"><ele>695.0</ele><time>2026-04-29T11:20:58.002Z</time></trkpt><trkpt lat="43.44641426174967" lon="12.503468481775702"><ele>695.0000000000001</ele><time>2026-04-29T11:20:59.002Z</time></trkpt><trkpt lat="43.44634687954259" lon="12.503424141631351"><ele>695.0</ele><time>2026-04-29T11:21:00.002Z</time></trkpt><trkpt lat="43.44628353768452" lon="12.503365138100579"><ele>694.8333333333333</ele><time>2026-04-29T11:21:01.002Z</time></trkpt><trkpt lat="43.44621228357573" lon="12.503307567433641"><ele>694.6666666666666</ele><time>2026-04-29T11:21:02.002Z</time></trkpt><trkpt lat="43.446133156249786" lon="12.503261911415333"><ele>694.5</ele><time>2026-04-29T11:21:03.002Z</time></trkpt><trkpt lat="43.44604933379058" lon="12.503218123433507"><ele>694.3333333333334</ele><time>2026-04-29T11:21:04.002Z</time></trkpt><trkpt lat="43.445972044758136" lon="12.503187647693318"><ele>694.1666666666667</ele><time>2026-04-29T11:21:05.002Z</time></trkpt><trkpt lat="43.445896791965225" lon="12.503168288412759"><ele>694.0</ele><time>2026-04-29T11:21:06.002Z</time></trkpt><trkpt lat="43.44578061829936" lon="12.503207573788634"><ele>694.0</ele><time>2026-04-29T11:21:08.002Z</time></trkpt><trkpt lat="43.44572588687789" lon="12.50334381592388"><ele>694.0</ele><time>2026-04-29T11:21:10.002Z</time></trkpt><trkpt lat="43.44572579091729" lon="12.50343167889754"><ele>694.0</ele><time>2026-04-29T11:21:11.002Z</time></trkpt><trkpt lat="43.4457306364578" lon="12.503535416843592"><ele>694.0</ele><time>2026-04-29T11:21:12.002Z</time></trkpt><trkpt lat="43.445746761851666" lon="12.503646279757442"><ele>694.0</ele><time>2026-04-29T11:21:13.002Z</time></trkpt><trkpt lat="43.44577263238505" lon="12.503748651426918"><ele>694.0</ele><time>2026-04-29T11:21:14.002Z</time></trkpt><trkpt lat="43.44580518214778" lon="12.503842933343616"><ele>693.8000000000001</ele><time>2026-04-29T11:21:15.002Z</time></trkpt><trkpt lat="43.445860106041934" lon="12.503929241886047"><ele>693.6</ele><time>2026-04-29T11:21:16.002Z</time></trkpt><trkpt lat="43.445924486927616" lon="12.504022013824551"><ele>693.4</ele><time>2026-04-29T11:21:17.002Z</time></trkpt><trkpt lat="43.44598287166481" lon="12.50411951970663"><ele>693.2</ele><time>2026-04-29T11:21:18.002Z</time></trkpt><trkpt lat="43.44604378499253" lon="12.504222674028533"><ele>693.0</ele><time>2026-04-29T11:21:19.002Z</time></trkpt><trkpt lat="43.44610216808785" lon="12.504324487352228"><ele>693.0</ele><time>2026-04-29T11:21:20.002Z</time></trkpt><trkpt lat="43.44616261818781" lon="12.504423605178093"><ele>693.0</ele><time>2026-04-29T11:21:21.002Z</time></trkpt><trkpt lat="43.44622766873127" lon="12.504509138198564"><ele>693.0</ele><time>2026-04-29T11:21:22.002Z</time></trkpt><trkpt lat="43.446297271825514" lon="12.504586075333274"><ele>693.0</ele><time>2026-04-29T11:21:23.002Z</time></trkpt><trkpt lat="43.44636903287965" lon="12.504650569122617"><ele>693.0</ele><time>2026-04-29T11:21:24.002Z</time></trkpt><trkpt lat="43.446444014892876" lon="12.504712326667885"><ele>693.0</ele><time>2026-04-29T11:21:25.002Z</time></trkpt><trkpt lat="43.44651584391023" lon="12.50477105219923"><ele>690.5</ele><time>2026-04-29T11:21:25.999Z</time></trkpt><trkpt lat="43.446582561678845" lon="12.504814538623648"><ele>688.0</ele><time>2026-04-29T11:21:26.999Z</time></trkpt><trkpt lat="43.44664320026367" lon="12.504850032927289"><ele>685.5</ele><time>2026-04-29T11:21:27.999Z</time></trkpt><trkpt lat="43.44673279093495" lon="12.504861893434446"><ele>683.0</ele><time>2026-04-29T11:21:28.999Z</time></trkpt><trkpt lat="43.44682821290341" lon="12.504874575145406"><ele>680.5</ele><time>2026-04-29T11:21:29.999Z</time></trkpt><trkpt lat="43.44693588344019" lon="12.504894422716678"><ele>678.0</ele><time>2026-04-29T11:21:30.999Z</time></trkpt><trkpt lat="43.44705440486829" lon="12.50494728751419"><ele>677.4</ele><time>2026-04-29T11:21:31.999Z</time></trkpt><trkpt lat="43.44715998243801" lon="12.505009013845969"><ele>676.8</ele><time>2026-04-29T11:21:32.999Z</time></trkpt><trkpt lat="43.44725562542494" lon="12.505071967841944"><ele>676.2</ele><time>2026-04-29T11:21:33.999Z</time></trkpt><trkpt lat="43.44734004502952" lon="12.505129381880012"><ele>675.6</ele><time>2026-04-29T11:21:34.999Z</time></trkpt><trkpt lat="43.447414134248945" lon="12.505179853224353"><ele>675.0</ele><time>2026-04-29T11:21:35.999Z</time></trkpt><trkpt lat="43.44748645909436" lon="12.505239392000457"><ele>675.0</ele><time>2026-04-29T11:21:36.999Z</time></trkpt><trkpt lat="43.447521977097054" lon="12.505340780482792"><ele>675.0</ele><time>2026-04-29T11:21:37.999Z</time></trkpt><trkpt lat="43.447539339140555" lon="12.505447584216878"><ele>675.0</ele><time>2026-04-29T11:21:38.999Z</time></trkpt><trkpt lat="43.44756168053215" lon="12.505565976221337"><ele>675.0</ele><time>2026-04-29T11:21:39.999Z</time></trkpt><trkpt lat="43.44758520917586" lon="12.505702411608242"><ele>675.0</ele><time>2026-04-29T11:21:40.999Z</time></trkpt><trkpt lat="43.44761187399658" lon="12.505839723864684"><ele>674.6</ele><time>2026-04-29T11:21:41.999Z</time></trkpt><trkpt lat="43.44763792367094" lon="12.50597962022809"><ele>674.2</ele><time>2026-04-29T11:21:42.999Z</time></trkpt><trkpt lat="43.447687573987245" lon="12.506108157453776"><ele>673.8</ele><time>2026-04-29T11:21:44Z</time></trkpt><trkpt lat="43.44772319396553" lon="12.506246121157611"><ele>673.4</ele><time>2026-04-29T11:21:45Z</time></trkpt><trkpt lat="43.44775583881933" lon="12.50639442055003"><ele>673.0</ele><time>2026-04-29T11:21:46Z</time></trkpt><trkpt lat="43.447774467977915" lon="12.506532624415216"><ele>674.6666666666667</ele><time>2026-04-29T11:21:47Z</time></trkpt><trkpt lat="43.447805909814655" lon="12.506639524705417"><ele>676.3333333333334</ele><time>2026-04-29T11:21:48Z</time></trkpt><trkpt lat="43.44784598555489" lon="12.506719841721532"><ele>678.0</ele><time>2026-04-29T11:21:49Z</time></trkpt><trkpt lat="43.447899355117194" lon="12.506784605065686"><ele>679.6666666666666</ele><time>2026-04-29T11:21:50Z</time></trkpt><trkpt lat="43.447966445247346" lon="12.506846290779329"><ele>681.3333333333333</ele><time>2026-04-29T11:21:51Z</time></trkpt><trkpt lat="43.448041683700694" lon="12.506916407949273"><ele>683.0</ele><time>2026-04-29T11:21:52Z</time></trkpt><trkpt lat="43.44812220889574" lon="12.506967503037263"><ele>683.0</ele><time>2026-04-29T11:21:53Z</time></trkpt><trkpt lat="43.44820696261699" lon="12.506990393545115"><ele>683.0</ele><time>2026-04-29T11:21:54Z</time></trkpt><trkpt lat="43.44828744295869" lon="12.5069845568107"><ele>683.0</ele><time>2026-04-29T11:21:55Z</time></trkpt><trkpt lat="43.44837185268351" lon="12.507022418065365"><ele>683.0</ele><time>2026-04-29T11:21:56Z</time></trkpt><trkpt lat="43.448465370669034" lon="12.507037049207801"><ele>683.0</ele><time>2026-04-29T11:21:57Z</time></trkpt><trkpt lat="43.44854708704759" lon="12.507024033786957"><ele>683.0</ele><time>2026-04-29T11:21:58Z</time></trkpt><trkpt lat="43.44866751151153" lon="12.507025952971873"><ele>683.0</ele><time>2026-04-29T11:22:00Z</time></trkpt><trkpt lat="43.44875444989297" lon="12.50703507353945"><ele>683.0</ele><time>2026-04-29T11:22:01Z</time></trkpt><trkpt lat="43.448853318380294" lon="12.507110499298669"><ele>683.0</ele><time>2026-04-29T11:22:02Z</time></trkpt><trkpt lat="43.44895654085284" lon="12.507185366385087"><ele>683.0</ele><time>2026-04-29T11:22:03Z</time></trkpt><trkpt lat="43.44907203272386" lon="12.507266511382106"><ele>683.0</ele><time>2026-04-29T11:22:04Z</time></trkpt><trkpt lat="43.44918184733005" lon="12.50736080642982"><ele>685.2</ele><time>2026-04-29T11:22:05Z</time></trkpt><trkpt lat="43.44928368758636" lon="12.507440682163352"><ele>687.4</ele><time>2026-04-29T11:22:06Z</time></trkpt><trkpt lat="43.44937777104772" lon="12.507516853442358"><ele>689.6</ele><time>2026-04-29T11:22:07Z</time></trkpt><trkpt lat="43.44946201686372" lon="12.507589374616538"><ele>691.8000000000001</ele><time>2026-04-29T11:22:08Z</time></trkpt><trkpt lat="43.44953178149032" lon="12.507685820094066"><ele>694.0</ele><time>2026-04-29T11:22:09Z</time></trkpt><trkpt lat="43.44959751392926" lon="12.50780429345388"><ele>692.0</ele><time>2026-04-29T11:22:10Z</time></trkpt><trkpt lat="43.44966349425081" lon="12.50791933393151"><ele>690.0</ele><time>2026-04-29T11:22:11Z</time></trkpt><trkpt lat="43.44972428899768" lon="12.508031388711043"><ele>688.0</ele><time>2026-04-29T11:22:12Z</time></trkpt><trkpt lat="43.44976994936971" lon="12.508147942298882"><ele>686.0</ele><time>2026-04-29T11:22:13Z</time></trkpt><trkpt lat="43.4498041332429" lon="12.508281020318345"><ele>684.0</ele><time>2026-04-29T11:22:14Z</time></trkpt><trkpt lat="43.44985345409837" lon="12.508400900086329"><ele>684.0</ele><time>2026-04-29T11:22:15Z</time></trkpt><trkpt lat="43.44991365863816" lon="12.508494673110869"><ele>684.0</ele><time>2026-04-29T11:22:16Z</time></trkpt><trkpt lat="43.44998288779145" lon="12.50857039761273"><ele>684.0</ele><time>2026-04-29T11:22:17Z</time></trkpt><trkpt lat="43.4500301502989" lon="12.50863178008601"><ele>684.0</ele><time>2026-04-29T11:22:18Z</time></trkpt><trkpt lat="43.45005822610101" lon="12.508752927025574"><ele>684.0</ele><time>2026-04-29T11:22:20Z</time></trkpt><trkpt lat="43.44998857789139" lon="12.508879005392425"><ele>684.4000000000001</ele><time>2026-04-29T11:22:22.001Z</time></trkpt><trkpt lat="43.44993819902173" lon="12.508965927877378"><ele>684.8</ele><time>2026-04-29T11:22:23.001Z</time></trkpt><trkpt lat="43.44991109777082" lon="12.509045490492362"><ele>685.2</ele><time>2026-04-29T11:22:24.001Z</time></trkpt><trkpt lat="43.449934461825286" lon="12.509206852421613"><ele>685.5999999999999</ele><time>2026-04-29T11:22:26.001Z</time></trkpt><trkpt lat="43.450012940326324" lon="12.509339999012894"><ele>686.0</ele><time>2026-04-29T11:22:28.001Z</time></trkpt><trkpt lat="43.450076673787684" lon="12.509369404849249"><ele>686.0</ele><time>2026-04-29T11:22:29.001Z</time></trkpt><trkpt lat="43.45014559442791" lon="12.509369777160032"><ele>686.0</ele><time>2026-04-29T11:22:30.001Z</time></trkpt><trkpt lat="43.45021556544043" lon="12.509374650974143"><ele>686.0</ele><time>2026-04-29T11:22:31.001Z</time></trkpt><trkpt lat="43.45031147643856" lon="12.509355368207972"><ele>686.0</ele><time>2026-04-29T11:22:32.001Z</time></trkpt><trkpt lat="43.45040502881678" lon="12.509314533062941"><ele>686.0</ele><time>2026-04-29T11:22:33.001Z</time></trkpt><trkpt lat="43.45050287220418" lon="12.50934278193653"><ele>686.0</ele><time>2026-04-29T11:22:34.001Z</time></trkpt><trkpt lat="43.4505874778284" lon="12.509357517054847"><ele>685.8</ele><time>2026-04-29T11:22:35.001Z</time></trkpt><trkpt lat="43.450679903683344" lon="12.50936926935507"><ele>685.5999999999999</ele><time>2026-04-29T11:22:36.001Z</time></trkpt><trkpt lat="43.450772748030474" lon="12.509371430297824"><ele>685.4</ele><time>2026-04-29T11:22:37.001Z</time></trkpt><trkpt lat="43.45086533813531" lon="12.509403997315651"><ele>685.2</ele><time>2026-04-29T11:22:38.001Z</time></trkpt><trkpt lat="43.45095298814875" lon="12.509453703249477"><ele>685.0</ele><time>2026-04-29T11:22:39.001Z</time></trkpt><trkpt lat="43.45103959883668" lon="12.509493513897974"><ele>685.0</ele><time>2026-04-29T11:22:40.001Z</time></trkpt><trkpt lat="43.451125261110356" lon="12.509537436625669"><ele>685.0</ele><time>2026-04-29T11:22:41.001Z</time></trkpt><trkpt lat="43.45122080416981" lon="12.509576675785642"><ele>685.0</ele><time>2026-04-29T11:22:42.001Z</time></trkpt><trkpt lat="43.451315651421936" lon="12.509618483035684"><ele>685.0</ele><time>2026-04-29T11:22:43.001Z</time></trkpt><trkpt lat="43.451415253308056" lon="12.509664211498537"><ele>685.0</ele><time>2026-04-29T11:22:44.001Z</time></trkpt><trkpt lat="43.45150915359377" lon="12.509691912613118"><ele>689.6666666666667</ele><time>2026-04-29T11:22:45.001Z</time></trkpt><trkpt lat="43.45159167681257" lon="12.509705769505892"><ele>694.3333333333334</ele><time>2026-04-29T11:22:46.001Z</time></trkpt><trkpt lat="43.45167229912248" lon="12.509708336060463"><ele>699.0</ele><time>2026-04-29T11:22:47.001Z</time></trkpt><trkpt lat="43.45174574239625" lon="12.509698610618015"><ele>703.6666666666666</ele><time>2026-04-29T11:22:48.001Z</time></trkpt><trkpt lat="43.45181887534287" lon="12.50966909408867"><ele>708.3333333333333</ele><time>2026-04-29T11:22:49.001Z</time></trkpt><trkpt lat="43.451903518508125" lon="12.5096218557437"><ele>713.0</ele><time>2026-04-29T11:22:50.001Z</time></trkpt><trkpt lat="43.45198756578219" lon="12.509594304767658"><ele>711.5999999999999</ele><time>2026-04-29T11:22:51.001Z</time></trkpt><trkpt lat="43.4520874194098" lon="12.509531838090592"><ele>710.1999999999999</ele><time>2026-04-29T11:22:52.001Z</time></trkpt><trkpt lat="43.45219886752214" lon="12.509455959537561"><ele>708.8</ele><time>2026-04-29T11:22:53.001Z</time></trkpt><trkpt lat="43.452289589940065" lon="12.509399119863698"><ele>707.4</ele><time>2026-04-29T11:22:54.001Z</time></trkpt><trkpt lat="43.452356531984094" lon="12.509380396711316"><ele>706.0</ele><time>2026-04-29T11:22:55.001Z</time></trkpt><trkpt lat="43.45246799631108" lon="12.509390890037077"><ele>706.0</ele><time>2026-04-29T11:22:57.001Z</time></trkpt><trkpt lat="43.45254414369977" lon="12.509410411705215"><ele>706.0</ele><time>2026-04-29T11:22:58.001Z</time></trkpt><trkpt lat="43.452632139975776" lon="12.509443025359667"><ele>706.0</ele><time>2026-04-29T11:22:59.001Z</time></trkpt><trkpt lat="43.452720487034355" lon="12.509483765894007"><ele>706.0</ele><time>2026-04-29T11:23:00.001Z</time></trkpt><trkpt lat="43.45280329639962" lon="12.509525887337379"><ele>706.0</ele><time>2026-04-29T11:23:01.001Z</time></trkpt><trkpt lat="43.45291205635604" lon="12.509564959921255"><ele>710.25</ele><time>2026-04-29T11:23:02.001Z</time></trkpt><trkpt lat="43.45300791701901" lon="12.509647146876887"><ele>714.5</ele><time>2026-04-29T11:23:03.001Z</time></trkpt><trkpt lat="43.453103698253486" lon="12.509737637644891"><ele>718.75</ele><time>2026-04-29T11:23:04.001Z</time></trkpt><trkpt lat="43.45320208604074" lon="12.509843060792539"><ele>723.0</ele><time>2026-04-29T11:23:05.001Z</time></trkpt><trkpt lat="43.4532948132583" lon="12.509922338146835"><ele>723.0</ele><time>2026-04-29T11:23:06.001Z</time></trkpt><trkpt lat="43.45338491075337" lon="12.509987839936759"><ele>723.0</ele><time>2026-04-29T11:23:07.001Z</time></trkpt><trkpt lat="43.45348486780779" lon="12.51003522686396"><ele>723.0</ele><time>2026-04-29T11:23:08.001Z</time></trkpt><trkpt lat="43.45359192297187" lon="12.510082663209205"><ele>723.0</ele><time>2026-04-29T11:23:09.002Z</time></trkpt><trkpt lat="43.453686036533945" lon="12.510117798935875"><ele>723.0</ele><time>2026-04-29T11:23:10.002Z</time></trkpt><trkpt lat="43.45375557767007" lon="12.510163099357328"><ele>722.0</ele><time>2026-04-29T11:23:11.002Z</time></trkpt><trkpt lat="43.4538053356897" lon="12.510231453550576"><ele>721.0</ele><time>2026-04-29T11:23:12.002Z</time></trkpt><trkpt lat="43.453847202818466" lon="12.510317778247739"><ele>720.0</ele><time>2026-04-29T11:23:13.002Z</time></trkpt><trkpt lat="43.453876867083984" lon="12.510418051180755"><ele>719.0</ele><time>2026-04-29T11:23:14.002Z</time></trkpt><trkpt lat="43.45391504058235" lon="12.510553421980735"><ele>718.0</ele><time>2026-04-29T11:23:15.002Z</time></trkpt><trkpt lat="43.453944859173916" lon="12.510686668372143"><ele>717.0</ele><time>2026-04-29T11:23:16.002Z</time></trkpt><trkpt lat="43.453963770375665" lon="12.510796749186396"><ele>717.0</ele><time>2026-04-29T11:23:17.002Z</time></trkpt><trkpt lat="43.45395783965181" lon="12.510906742447146"><ele>717.0</ele><time>2026-04-29T11:23:18.002Z</time></trkpt><trkpt lat="43.45393938017497" lon="12.511018913663838"><ele>717.0</ele><time>2026-04-29T11:23:19.002Z</time></trkpt><trkpt lat="43.453903626805435" lon="12.511138969171965"><ele>717.0</ele><time>2026-04-29T11:23:20.002Z</time></trkpt><trkpt lat="43.453860066516135" lon="12.51130688312751"><ele>717.0</ele><time>2026-04-29T11:23:21.002Z</time></trkpt><trkpt lat="43.45384006299648" lon="12.511485823985709"><ele>718.0</ele><time>2026-04-29T11:23:22.002Z</time></trkpt><trkpt lat="43.4538160599744" lon="12.511649505648215"><ele>719.0</ele><time>2026-04-29T11:23:23.002Z</time></trkpt><trkpt lat="43.45379672486246" lon="12.511792172230923"><ele>720.0</ele><time>2026-04-29T11:23:24.002Z</time></trkpt><trkpt lat="43.45378221297995" lon="12.511912880481232"><ele>721.0</ele><time>2026-04-29T11:23:25.002Z</time></trkpt><trkpt lat="43.4537721002036" lon="12.512031005601704"><ele>722.0</ele><time>2026-04-29T11:23:26.002Z</time></trkpt><trkpt lat="43.45376846756318" lon="12.512153964514077"><ele>724.4000000000001</ele><time>2026-04-29T11:23:27.002Z</time></trkpt><trkpt lat="43.45377254698465" lon="12.512279912518247"><ele>726.8000000000001</ele><time>2026-04-29T11:23:28.002Z</time></trkpt><trkpt lat="43.45381350068441" lon="12.512403869751038"><ele>729.2</ele><time>2026-04-29T11:23:29.002Z</time></trkpt><trkpt lat="43.45388958651337" lon="12.512518564440946"><ele>731.6</ele><time>2026-04-29T11:23:30.002Z</time></trkpt><trkpt lat="43.45399476661243" lon="12.512627550411963"><ele>734.0</ele><time>2026-04-29T11:23:31.002Z</time></trkpt><trkpt lat="43.4540968360468" lon="12.51277611986287"><ele>734.0</ele><time>2026-04-29T11:23:31.999Z</time></trkpt><trkpt lat="43.45422285588999" lon="12.512889424683834"><ele>734.0</ele><time>2026-04-29T11:23:32.999Z</time></trkpt><trkpt lat="43.45432151115357" lon="12.512984043954642"><ele>734.0</ele><time>2026-04-29T11:23:33.999Z</time></trkpt><trkpt lat="43.45440763850743" lon="12.513050066890756"><ele>734.0</ele><time>2026-04-29T11:23:34.999Z</time></trkpt><trkpt lat="43.45448781760531" lon="12.513092478583602"><ele>737.1666666666666</ele><time>2026-04-29T11:23:35.999Z</time></trkpt><trkpt lat="43.45454869183255" lon="12.51313234746476"><ele>740.3333333333333</ele><time>2026-04-29T11:23:36.999Z</time></trkpt><trkpt lat="43.45460680221097" lon="12.513245880408018"><ele>743.5</ele><time>2026-04-29T11:23:38.999Z</time></trkpt><trkpt lat="43.454583922556736" lon="12.513398052299554"><ele>746.6666666666666</ele><time>2026-04-29T11:23:40.999Z</time></trkpt><trkpt lat="43.45452923398452" lon="12.513447768096993"><ele>749.8333333333334</ele><time>2026-04-29T11:23:41.999Z</time></trkpt><trkpt lat="43.45446166886916" lon="12.513456951064335"><ele>753.0</ele><time>2026-04-29T11:23:42.999Z</time></trkpt><trkpt lat="43.454392640195266" lon="12.513420513551207"><ele>753.0</ele><time>2026-04-29T11:23:43.999Z</time></trkpt><trkpt lat="43.45429656410736" lon="12.513378117383182"><ele>753.0</ele><time>2026-04-29T11:23:44.999Z</time></trkpt><trkpt lat="43.45418872170805" lon="12.513312091391834"><ele>753.0</ele><time>2026-04-29T11:23:46Z</time></trkpt><trkpt lat="43.4540892002471" lon="12.51324137329739"><ele>753.0</ele><time>2026-04-29T11:23:47Z</time></trkpt><trkpt lat="43.45400782967893" lon="12.51319522478508"><ele>753.0</ele><time>2026-04-29T11:23:48Z</time></trkpt><trkpt lat="43.45394449625153" lon="12.513153786622828"><ele>753.0</ele><time>2026-04-29T11:23:49Z</time></trkpt><trkpt lat="43.453874565716" lon="12.513147091148493"><ele>753.0</ele><time>2026-04-29T11:23:50Z</time></trkpt><trkpt lat="43.453775840746566" lon="12.51314593416832"><ele>753.0</ele><time>2026-04-29T11:23:51Z</time></trkpt><trkpt lat="43.45365947626443" lon="12.51312463691481"><ele>753.0</ele><time>2026-04-29T11:23:52Z</time></trkpt><trkpt lat="43.453543990265324" lon="12.513042250988153"><ele>753.0</ele><time>2026-04-29T11:23:53Z</time></trkpt><trkpt lat="43.45341831871202" lon="12.512967734732891"><ele>752.5</ele><time>2026-04-29T11:23:54Z</time></trkpt><trkpt lat="43.453288090983904" lon="12.512906876074922"><ele>752.0</ele><time>2026-04-29T11:23:55Z</time></trkpt><trkpt lat="43.453155056443805" lon="12.512824906765777"><ele>751.5</ele><time>2026-04-29T11:23:56Z</time></trkpt><trkpt lat="43.4530261928219" lon="12.512734805982271"><ele>751.0</ele><time>2026-04-29T11:23:57Z</time></trkpt><trkpt lat="43.45290079057585" lon="12.512631306087505"><ele>755.25</ele><time>2026-04-29T11:23:58Z</time></trkpt><trkpt lat="43.452776498520194" lon="12.512579075748311"><ele>759.5</ele><time>2026-04-29T11:23:59Z</time></trkpt><trkpt lat="43.452671228466315" lon="12.512511734179276"><ele>763.75</ele><time>2026-04-29T11:24:00Z</time></trkpt><trkpt lat="43.452570040258095" lon="12.51245567728942"><ele>768.0</ele><time>2026-04-29T11:24:01Z</time></trkpt><trkpt lat="43.45248486963876" lon="12.512390414615243"><ele>768.0</ele><time>2026-04-29T11:24:02Z</time></trkpt><trkpt lat="43.452397728554594" lon="12.512341031040952"><ele>768.0</ele><time>2026-04-29T11:24:03Z</time></trkpt><trkpt lat="43.4523134998532" lon="12.512297016713532"><ele>768.0</ele><time>2026-04-29T11:24:04Z</time></trkpt><trkpt lat="43.45223289690247" lon="12.512266118146192"><ele>768.0</ele><time>2026-04-29T11:24:05Z</time></trkpt><trkpt lat="43.45216064723586" lon="12.512208517008984"><ele>768.0</ele><time>2026-04-29T11:24:06Z</time></trkpt><trkpt lat="43.45208540846446" lon="12.512174515518064"><ele>768.0</ele><time>2026-04-29T11:24:07Z</time></trkpt><trkpt lat="43.45201640793298" lon="12.512193436515794"><ele>768.5999999999999</ele><time>2026-04-29T11:24:08Z</time></trkpt><trkpt lat="43.45191145225808" lon="12.512257131037623"><ele>769.1999999999999</ele><time>2026-04-29T11:24:10Z</time></trkpt><trkpt lat="43.45187324476045" lon="12.512337308798896"><ele>769.8</ele><time>2026-04-29T11:24:11Z</time></trkpt><trkpt lat="43.451864200953025" lon="12.512457571522082"><ele>770.4</ele><time>2026-04-29T11:24:12Z</time></trkpt><trkpt lat="43.451839545311145" lon="12.512582182178962"><ele>771.0</ele><time>2026-04-29T11:24:13Z</time></trkpt><trkpt lat="43.4517908385105" lon="12.51275718858777"><ele>772.5999999999999</ele><time>2026-04-29T11:24:14Z</time></trkpt><trkpt lat="43.45173525223918" lon="12.512914855901778"><ele>774.2</ele><time>2026-04-29T11:24:15Z</time></trkpt><trkpt lat="43.451652095560185" lon="12.51301507445378"><ele>775.8</ele><time>2026-04-29T11:24:16Z</time></trkpt><trkpt lat="43.45158398481386" lon="12.513120080225685"><ele>777.4000000000001</ele><time>2026-04-29T11:24:17Z</time></trkpt><trkpt lat="43.45149224838688" lon="12.513198176911843"><ele>779.0</ele><time>2026-04-29T11:24:18Z</time></trkpt><trkpt lat="43.4513893651367" lon="12.513287844940349"><ele>777.25</ele><time>2026-04-29T11:24:19Z</time></trkpt><trkpt lat="43.45127652251821" lon="12.513386827327516"><ele>775.5</ele><time>2026-04-29T11:24:20Z</time></trkpt><trkpt lat="43.451164091915444" lon="12.513481259101262"><ele>773.75</ele><time>2026-04-29T11:24:21Z</time></trkpt><trkpt lat="43.4510593662415" lon="12.513557194539558"><ele>772.0</ele><time>2026-04-29T11:24:22Z</time></trkpt><trkpt lat="43.45095163768353" lon="12.513618120821103"><ele>772.0</ele><time>2026-04-29T11:24:23Z</time></trkpt><trkpt lat="43.45082973739347" lon="12.513656603038715"><ele>772.0</ele><time>2026-04-29T11:24:24.001Z</time></trkpt><trkpt lat="43.450703053588796" lon="12.5136863439248"><ele>772.0</ele><time>2026-04-29T11:24:25.001Z</time></trkpt><trkpt lat="43.450571244479946" lon="12.513705581533584"><ele>772.0</ele><time>2026-04-29T11:24:26.001Z</time></trkpt><trkpt lat="43.450440898574456" lon="12.513734453193157"><ele>775.8</ele><time>2026-04-29T11:24:27.001Z</time></trkpt><trkpt lat="43.450316187619" lon="12.513766962165864"><ele>779.6</ele><time>2026-04-29T11:24:28.001Z</time></trkpt><trkpt lat="43.45020666669071" lon="12.513795160742154"><ele>783.4</ele><time>2026-04-29T11:24:29.001Z</time></trkpt><trkpt lat="43.45011858762317" lon="12.513822289902977"><ele>787.1999999999999</ele><time>2026-04-29T11:24:30.001Z</time></trkpt><trkpt lat="43.450034945173826" lon="12.513836942149709"><ele>791.0</ele><time>2026-04-29T11:24:31.001Z</time></trkpt><trkpt lat="43.44994959788873" lon="12.513838207054828"><ele>791.0000000000001</ele><time>2026-04-29T11:24:32.001Z</time></trkpt><trkpt lat="43.449872690448494" lon="12.513860576447778"><ele>791.0</ele><time>2026-04-29T11:24:33.001Z</time></trkpt><trkpt lat="43.44981452201737" lon="12.513902976226627"><ele>791.0</ele><time>2026-04-29T11:24:34.001Z</time></trkpt><trkpt lat="43.449774504005525" lon="12.514002792182753"><ele>791.0</ele><time>2026-04-29T11:24:35.001Z</time></trkpt><trkpt lat="43.44978478641234" lon="12.51412133054715"><ele>791.0000000000001</ele><time>2026-04-29T11:24:36.001Z</time></trkpt><trkpt lat="43.44978718447702" lon="12.514217314665924"><ele>791.0</ele><time>2026-04-29T11:24:37.001Z</time></trkpt><trkpt lat="43.44980469292381" lon="12.5143242717834"><ele>791.0</ele><time>2026-04-29T11:24:38.001Z</time></trkpt><trkpt lat="43.44982639652676" lon="12.514475985336821"><ele>791.0</ele><time>2026-04-29T11:24:39.001Z</time></trkpt><trkpt lat="43.449853950484545" lon="12.514682135678397"><ele>791.0</ele><time>2026-04-29T11:24:40.001Z</time></trkpt><trkpt lat="43.44985455062431" lon="12.514892479642482"><ele>791.0</ele><time>2026-04-29T11:24:41.001Z</time></trkpt><trkpt lat="43.449833256363064" lon="12.515095096683613"><ele>791.1999999999999</ele><time>2026-04-29T11:24:42.001Z</time></trkpt><trkpt lat="43.449800488865016" lon="12.515281384337104"><ele>791.4</ele><time>2026-04-29T11:24:43.001Z</time></trkpt><trkpt lat="43.4497920042407" lon="12.515452189513539"><ele>791.6</ele><time>2026-04-29T11:24:44.001Z</time></trkpt><trkpt lat="43.44979176697207" lon="12.515590230355095"><ele>791.8</ele><time>2026-04-29T11:24:45.001Z</time></trkpt><trkpt lat="43.44977835224" lon="12.515696069225333"><ele>792.0</ele><time>2026-04-29T11:24:46.001Z</time></trkpt><trkpt lat="43.44976549350683" lon="12.515783694559302"><ele>792.0</ele><time>2026-04-29T11:24:47.001Z</time></trkpt><trkpt lat="43.44964974297066" lon="12.515850038018405"><ele>792.0</ele><time>2026-04-29T11:24:49.001Z</time></trkpt><trkpt lat="43.44958019974357" lon="12.515836983287121"><ele>792.0</ele><time>2026-04-29T11:24:50.001Z</time></trkpt><trkpt lat="43.44950794100086" lon="12.515768594208442"><ele>792.0</ele><time>2026-04-29T11:24:51.001Z</time></trkpt><trkpt lat="43.44941270232222" lon="12.515728905861918"><ele>792.0</ele><time>2026-04-29T11:24:52.001Z</time></trkpt><trkpt lat="43.449287607067596" lon="12.515696317554417"><ele>792.8</ele><time>2026-04-29T11:24:53.001Z</time></trkpt><trkpt lat="43.449171112734554" lon="12.515657026725567"><ele>793.6</ele><time>2026-04-29T11:24:54.001Z</time></trkpt><trkpt lat="43.449070152054304" lon="12.515624660910014"><ele>794.4</ele><time>2026-04-29T11:24:55.001Z</time></trkpt><trkpt lat="43.448978715372945" lon="12.515591755810734"><ele>795.1999999999999</ele><time>2026-04-29T11:24:56.001Z</time></trkpt><trkpt lat="43.44888148417946" lon="12.515552802165894"><ele>796.0</ele><time>2026-04-29T11:24:57.001Z</time></trkpt><trkpt lat="43.44879347171118" lon="12.515485962013098"><ele>797.5</ele><time>2026-04-29T11:24:58.001Z</time></trkpt><trkpt lat="43.44870658410593" lon="12.515398655520897"><ele>799.0</ele><time>2026-04-29T11:24:59.001Z</time></trkpt><trkpt lat="43.448597891111476" lon="12.515296951980918"><ele>800.5</ele><time>2026-04-29T11:25:00.001Z</time></trkpt><trkpt lat="43.448511652297654" lon="12.515173449737976"><ele>802.0</ele><time>2026-04-29T11:25:01.001Z</time></trkpt><trkpt lat="43.448425565137036" lon="12.515096062135944"><ele>802.0</ele><time>2026-04-29T11:25:02.001Z</time></trkpt><trkpt lat="43.44837187283596" lon="12.515021579679061"><ele>802.0</ele><time>2026-04-29T11:25:03.001Z</time></trkpt><trkpt lat="43.448282501927494" lon="12.514994246650392"><ele>802.0</ele><time>2026-04-29T11:25:05.001Z</time></trkpt><trkpt lat="43.44821768323855" lon="12.51505877260506"><ele>802.0</ele><time>2026-04-29T11:25:06.001Z</time></trkpt><trkpt lat="43.44813910522982" lon="12.515146628517796"><ele>802.0</ele><time>2026-04-29T11:25:07.001Z</time></trkpt><trkpt lat="43.44806017290448" lon="12.515242255276176"><ele>802.0</ele><time>2026-04-29T11:25:08.001Z</time></trkpt><trkpt lat="43.44799158460608" lon="12.515331680578274"><ele>802.0</ele><time>2026-04-29T11:25:09.001Z</time></trkpt><trkpt lat="43.44792405539759" lon="12.515454357616903"><ele>802.0</ele><time>2026-04-29T11:25:10.002Z</time></trkpt><trkpt lat="43.44788913465366" lon="12.51559484998581"><ele>802.0</ele><time>2026-04-29T11:25:11.002Z</time></trkpt><trkpt lat="43.44782046630559" lon="12.515690013008863"><ele>802.0</ele><time>2026-04-29T11:25:12.002Z</time></trkpt><trkpt lat="43.44773166602399" lon="12.515743634409944"><ele>803.5</ele><time>2026-04-29T11:25:13.002Z</time></trkpt><trkpt lat="43.44763901964217" lon="12.515705845708474"><ele>805.0</ele><time>2026-04-29T11:25:14.002Z</time></trkpt><trkpt lat="43.447512891148975" lon="12.515706548460576"><ele>806.5</ele><time>2026-04-29T11:25:15.002Z</time></trkpt><trkpt lat="43.447370273131064" lon="12.515716475878373"><ele>808.0</ele><time>2026-04-29T11:25:16.002Z</time></trkpt><trkpt lat="43.44722723398005" lon="12.515709691430798"><ele>809.4</ele><time>2026-04-29T11:25:17.002Z</time></trkpt><trkpt lat="43.44709599381221" lon="12.515706215784505"><ele>810.8</ele><time>2026-04-29T11:25:18.002Z</time></trkpt><trkpt lat="43.44699178737678" lon="12.515707189222438"><ele>812.2</ele><time>2026-04-29T11:25:19.002Z</time></trkpt><trkpt lat="43.44689881331028" lon="12.515726373322376"><ele>813.6</ele><time>2026-04-29T11:25:20.002Z</time></trkpt><trkpt lat="43.44679461592931" lon="12.51574512344632"><ele>815.0</ele><time>2026-04-29T11:25:21.002Z</time></trkpt><trkpt lat="43.4466989705301" lon="12.515837798736634"><ele>815.0</ele><time>2026-04-29T11:25:22.002Z</time></trkpt><trkpt lat="43.44661343231675" lon="12.515937624983964"><ele>815.0</ele><time>2026-04-29T11:25:23.002Z</time></trkpt><trkpt lat="43.44654273028397" lon="12.51606082517783"><ele>815.0</ele><time>2026-04-29T11:25:24.002Z</time></trkpt><trkpt lat="43.44647207559325" lon="12.516173437284571"><ele>815.0</ele><time>2026-04-29T11:25:25.002Z</time></trkpt><trkpt lat="43.44638801780949" lon="12.516239837391545"><ele>815.0</ele><time>2026-04-29T11:25:26.002Z</time></trkpt><trkpt lat="43.446272695700564" lon="12.51624355377195"><ele>817.5</ele><time>2026-04-29T11:25:27.002Z</time></trkpt><trkpt lat="43.44617358897699" lon="12.516337264940985"><ele>820.0</ele><time>2026-04-29T11:25:28.002Z</time></trkpt><trkpt lat="43.44607785228686" lon="12.516431362549573"><ele>822.5</ele><time>2026-04-29T11:25:29.002Z</time></trkpt><trkpt lat="43.44599681032687" lon="12.51656709483675"><ele>825.0</ele><time>2026-04-29T11:25:30.002Z</time></trkpt><trkpt lat="43.445896185242624" lon="12.516676788472749"><ele>825.0</ele><time>2026-04-29T11:25:31.002Z</time></trkpt><trkpt lat="43.445828316229445" lon="12.516772080600765"><ele>825.0</ele><time>2026-04-29T11:25:32.002Z</time></trkpt><trkpt lat="43.44576088369441" lon="12.516829333098416"><ele>825.0</ele><time>2026-04-29T11:25:33.002Z</time></trkpt><trkpt lat="43.44569686525962" lon="12.516859819178256"><ele>825.0</ele><time>2026-04-29T11:25:34.002Z</time></trkpt><trkpt lat="43.44556177337458" lon="12.516845187030073"><ele>825.0</ele><time>2026-04-29T11:25:36.002Z</time></trkpt><trkpt lat="43.44546469641728" lon="12.516799436832953"><ele>826.25</ele><time>2026-04-29T11:25:37.002Z</time></trkpt><trkpt lat="43.445360162558686" lon="12.516735887708212"><ele>827.5</ele><time>2026-04-29T11:25:37.999Z</time></trkpt><trkpt lat="43.44524297309828" lon="12.516651146544353"><ele>828.75</ele><time>2026-04-29T11:25:38.999Z</time></trkpt><trkpt lat="43.44512926434032" lon="12.51657434164431"><ele>830.0</ele><time>2026-04-29T11:25:40Z</time></trkpt><trkpt lat="43.44503443453582" lon="12.516514920345097"><ele>830.0</ele><time>2026-04-29T11:25:40.999Z</time></trkpt><trkpt lat="43.44494737394739" lon="12.516457795969718"><ele>830.0</ele><time>2026-04-29T11:25:41.999Z</time></trkpt><trkpt lat="43.444851008784994" lon="12.516450498070132"><ele>830.0</ele><time>2026-04-29T11:25:43Z</time></trkpt><trkpt lat="43.444757337929595" lon="12.516496744579571"><ele>830.0</ele><time>2026-04-29T11:25:44Z</time></trkpt><trkpt lat="43.44466349950273" lon="12.516558875830988"><ele>830.0</ele><time>2026-04-29T11:25:45Z</time></trkpt><trkpt lat="43.44457507466897" lon="12.516644822997687"><ele>829.8</ele><time>2026-04-29T11:25:46Z</time></trkpt><trkpt lat="43.44451176194119" lon="12.516752453018237"><ele>829.6</ele><time>2026-04-29T11:25:47Z</time></trkpt><trkpt lat="43.44444831108158" lon="12.516891311654284"><ele>829.4000000000001</ele><time>2026-04-29T11:25:48Z</time></trkpt><trkpt lat="43.44440324138506" lon="12.517013349432784"><ele>829.2</ele><time>2026-04-29T11:25:49Z</time></trkpt><trkpt lat="43.44436173845284" lon="12.517100641218173"><ele>829.0</ele><time>2026-04-29T11:25:50Z</time></trkpt><trkpt lat="43.44430875823616" lon="12.51716827943989"><ele>829.0</ele><time>2026-04-29T11:25:51Z</time></trkpt><trkpt lat="43.44422732814662" lon="12.51715077075007"><ele>829.0</ele><time>2026-04-29T11:25:52Z</time></trkpt><trkpt lat="43.44412608226532" lon="12.51715671266346"><ele>829.0</ele><time>2026-04-29T11:25:53Z</time></trkpt><trkpt lat="43.444034846376454" lon="12.517157318421996"><ele>829.0</ele><time>2026-04-29T11:25:54Z</time></trkpt><trkpt lat="43.44392202063896" lon="12.517155950863538"><ele>829.0</ele><time>2026-04-29T11:25:55Z</time></trkpt><trkpt lat="43.443798833253574" lon="12.517173922470635"><ele>831.2</ele><time>2026-04-29T11:25:56Z</time></trkpt><trkpt lat="43.44368853391653" lon="12.517168891206069"><ele>833.4000000000001</ele><time>2026-04-29T11:25:57Z</time></trkpt><trkpt lat="43.44358929682764" lon="12.51716095818339"><ele>835.6</ele><time>2026-04-29T11:25:58Z</time></trkpt><trkpt lat="43.443503127818886" lon="12.517187220873694"><ele>837.8</ele><time>2026-04-29T11:25:59Z</time></trkpt><trkpt lat="43.443424114643804" lon="12.517229065529778"><ele>840.0</ele><time>2026-04-29T11:26:00Z</time></trkpt><trkpt lat="43.44334523189036" lon="12.51729495710095"><ele>840.0</ele><time>2026-04-29T11:26:01Z</time></trkpt><trkpt lat="43.44326834031362" lon="12.51736773169705"><ele>840.0</ele><time>2026-04-29T11:26:02Z</time></trkpt><trkpt lat="43.44320528014455" lon="12.517412266849407"><ele>840.0</ele><time>2026-04-29T11:26:03Z</time></trkpt><trkpt lat="43.44307861124855" lon="12.517394638632434"><ele>840.0</ele><time>2026-04-29T11:26:05Z</time></trkpt><trkpt lat="43.44302200967221" lon="12.517356064286082"><ele>840.0</ele><time>2026-04-29T11:26:06Z</time></trkpt><trkpt lat="43.44296664005837" lon="12.517279155486028"><ele>840.0</ele><time>2026-04-29T11:26:08Z</time></trkpt><trkpt lat="43.44306795177127" lon="12.517321021105941"><ele>840.0</ele><time>2026-04-29T11:27:08.001Z</time></trkpt><trkpt lat="43.44321647721572" lon="12.517097617539736"><ele>840.0</ele><time>2026-04-29T11:27:10.001Z</time></trkpt><trkpt lat="43.443261296579664" lon="12.516996424473138"><ele>840.0</ele><time>2026-04-29T11:27:12.001Z</time></trkpt><trkpt lat="43.44326790192722" lon="12.516850075134155"><ele>840.0</ele><time>2026-04-29T11:27:14.002Z</time></trkpt><trkpt lat="43.443226323731785" lon="12.516696444203097"><ele>841.1428571428571</ele><time>2026-04-29T11:27:16.002Z</time></trkpt><trkpt lat="43.443195752597966" lon="12.516617335609409"><ele>842.2857142857142</ele><time>2026-04-29T11:27:17.002Z</time></trkpt><trkpt lat="43.443166884490964" lon="12.516535921270265"><ele>843.4285714285714</ele><time>2026-04-29T11:27:18.002Z</time></trkpt><trkpt lat="43.4431263639703" lon="12.516431605134326"><ele>844.5714285714286</ele><time>2026-04-29T11:27:20.002Z</time></trkpt><trkpt lat="43.443116076588844" lon="12.516320717843627"><ele>845.7142857142857</ele><time>2026-04-29T11:27:22.002Z</time></trkpt><trkpt lat="43.443131067734654" lon="12.51622539029124"><ele>846.8571428571429</ele><time>2026-04-29T11:27:24.002Z</time></trkpt><trkpt lat="43.44317655320167" lon="12.5161544320642"><ele>848.0</ele><time>2026-04-29T11:27:26.002Z</time></trkpt><trkpt lat="43.44326048017182" lon="12.516078902449394"><ele>850.1666666666667</ele><time>2026-04-29T11:27:28.002Z</time></trkpt><trkpt lat="43.443362093728375" lon="12.516013990272166"><ele>852.3333333333334</ele><time>2026-04-29T11:27:30.002Z</time></trkpt><trkpt lat="43.443416413096486" lon="12.515967630073918"><ele>854.5</ele><time>2026-04-29T11:27:31.002Z</time></trkpt><trkpt lat="43.44347700526645" lon="12.51592300409943"><ele>856.6666666666667</ele><time>2026-04-29T11:27:32.002Z</time></trkpt><trkpt lat="43.443536173973015" lon="12.515878021365726"><ele>858.8333333333334</ele><time>2026-04-29T11:27:33.002Z</time></trkpt><trkpt lat="43.44359303518673" lon="12.515832064708562"><ele>861.0</ele><time>2026-04-29T11:27:34.002Z</time></trkpt><trkpt lat="43.44365024762168" lon="12.515758366021451"><ele>861.0</ele><time>2026-04-29T11:27:36.002Z</time></trkpt><trkpt lat="43.44371213020378" lon="12.515711834204716"><ele>861.0</ele><time>2026-04-29T11:27:39.002Z</time></trkpt><trkpt lat="43.44376183773551" lon="12.515645624018607"><ele>861.0</ele><time>2026-04-29T11:27:42.002Z</time></trkpt><trkpt lat="43.44368892194208" lon="12.515619167725529"><ele>861.0</ele><time>2026-04-29T11:27:45.999Z</time></trkpt><trkpt lat="43.443641919672466" lon="12.515679892740856"><ele>861.0</ele><time>2026-04-29T11:27:47.999Z</time></trkpt><trkpt lat="43.443601919043736" lon="12.515784638133317"><ele>861.0</ele><time>2026-04-29T11:28:34Z</time></trkpt><trkpt lat="43.443518655811225" lon="12.515878649304673"><ele>861.0</ele><time>2026-04-29T11:28:36Z</time></trkpt><trkpt lat="43.44344971986643" lon="12.515941534288917"><ele>861.0</ele><time>2026-04-29T11:28:38Z</time></trkpt><trkpt lat="43.44337770858067" lon="12.51598893013414"><ele>861.0</ele><time>2026-04-29T11:28:40.001Z</time></trkpt><trkpt lat="43.44331448542413" lon="12.51602899562694"><ele>861.0</ele><time>2026-04-29T11:28:42.001Z</time></trkpt><trkpt lat="43.44326569307876" lon="12.516108657302022"><ele>861.0</ele><time>2026-04-29T11:28:45.001Z</time></trkpt><trkpt lat="43.44321516406392" lon="12.516211522554915"><ele>861.0</ele><time>2026-04-29T11:28:48.001Z</time></trkpt><trkpt lat="43.44313881175085" lon="12.5161778540148"><ele>858.8333333333334</ele><time>2026-04-29T11:28:49.001Z</time></trkpt><trkpt lat="43.4431000913631" lon="12.516277838924392"><ele>856.6666666666667</ele><time>2026-04-29T11:28:52.001Z</time></trkpt><trkpt lat="43.44310567011037" lon="12.516380471537225"><ele>854.5</ele><time>2026-04-29T11:28:55.001Z</time></trkpt><trkpt lat="43.443130247197956" lon="12.516490601337443"><ele>852.3333333333334</ele><time>2026-04-29T11:28:58.001Z</time></trkpt><trkpt lat="43.44316192488066" lon="12.516565882750603"><ele>850.1666666666667</ele><time>2026-04-29T11:29:02.001Z</time></trkpt><trkpt lat="43.44320854330414" lon="12.516671420487874"><ele>848.0</ele><time>2026-04-29T11:29:06.001Z</time></trkpt><trkpt lat="43.44324460753001" lon="12.516802861965552"><ele>848.0</ele><time>2026-04-29T11:29:09.001Z</time></trkpt><trkpt lat="43.44326444882676" lon="12.516908196076347"><ele>848.0</ele><time>2026-04-29T11:29:11.001Z</time></trkpt><trkpt lat="43.44324657826663" lon="12.517019917349026"><ele>848.0</ele><time>2026-04-29T11:29:13.001Z</time></trkpt><trkpt lat="43.44320898677426" lon="12.517112125631874"><ele>848.0</ele><time>2026-04-29T11:29:15.001Z</time></trkpt><trkpt lat="43.44323719114876" lon="12.517356279201346"><ele>848.0</ele><time>2026-04-29T11:29:17.001Z</time></trkpt><trkpt lat="43.4431630992847" lon="12.517388027149094"><ele>846.6666666666667</ele><time>2026-04-29T11:29:18.001Z</time></trkpt><trkpt lat="43.44309933887528" lon="12.517393896294388"><ele>845.3333333333334</ele><time>2026-04-29T11:29:19.001Z</time></trkpt><trkpt lat="43.44302101149636" lon="12.517356231851442"><ele>844.0</ele><time>2026-04-29T11:29:20.002Z</time></trkpt><trkpt lat="43.442946725268726" lon="12.517215721603677"><ele>842.6666666666667</ele><time>2026-04-29T11:29:22.002Z</time></trkpt><trkpt lat="43.44286988177189" lon="12.517196765543716"><ele>841.3333333333334</ele><time>2026-04-29T11:29:24.002Z</time></trkpt><trkpt lat="43.44280863216296" lon="12.517160912106498"><ele>840.0</ele><time>2026-04-29T11:29:26.002Z</time></trkpt><trkpt lat="43.44271698440001" lon="12.517072005764758"><ele>839.8571428571429</ele><time>2026-04-29T11:29:28.002Z</time></trkpt><trkpt lat="43.44266157586672" lon="12.517022581324278"><ele>839.7142857142858</ele><time>2026-04-29T11:29:29.002Z</time></trkpt><trkpt lat="43.44259767493818" lon="12.516975822895482"><ele>839.5714285714286</ele><time>2026-04-29T11:29:30.002Z</time></trkpt><trkpt lat="43.4425357573067" lon="12.51692153398889"><ele>839.4285714285714</ele><time>2026-04-29T11:29:31.002Z</time></trkpt><trkpt lat="43.44247684869995" lon="12.516871562749701"><ele>839.2857142857143</ele><time>2026-04-29T11:29:32.002Z</time></trkpt><trkpt lat="43.44241885725473" lon="12.51683325867831"><ele>839.1428571428571</ele><time>2026-04-29T11:29:33.002Z</time></trkpt><trkpt lat="43.44235501725167" lon="12.516811333183183"><ele>839.0</ele><time>2026-04-29T11:29:34.002Z</time></trkpt><trkpt lat="43.442285553832455" lon="12.516804507282295"><ele>839.0000000000001</ele><time>2026-04-29T11:29:35.002Z</time></trkpt><trkpt lat="43.44220869674913" lon="12.516812608473913"><ele>839.0</ele><time>2026-04-29T11:29:36.002Z</time></trkpt><trkpt lat="43.4421297414071" lon="12.516824817668317"><ele>839.0</ele><time>2026-04-29T11:29:37.002Z</time></trkpt><trkpt lat="43.44205019912825" lon="12.516847173226207"><ele>839.0</ele><time>2026-04-29T11:29:38.002Z</time></trkpt><trkpt lat="43.44197049620463" lon="12.516877369853729"><ele>839.0000000000001</ele><time>2026-04-29T11:29:39.002Z</time></trkpt><trkpt lat="43.44189359097189" lon="12.516909774412763"><ele>839.0</ele><time>2026-04-29T11:29:40.002Z</time></trkpt><trkpt lat="43.441813816902226" lon="12.516946881019441"><ele>837.2</ele><time>2026-04-29T11:29:41.002Z</time></trkpt><trkpt lat="43.44173094883769" lon="12.51697339928106"><ele>835.4000000000001</ele><time>2026-04-29T11:29:42.002Z</time></trkpt><trkpt lat="43.44164413835337" lon="12.516989902334187"><ele>833.6</ele><time>2026-04-29T11:29:43.002Z</time></trkpt><trkpt lat="43.441548160432404" lon="12.516988210791785"><ele>831.8</ele><time>2026-04-29T11:29:44.002Z</time></trkpt><trkpt lat="43.44144301054719" lon="12.516979178041368"><ele>830.0</ele><time>2026-04-29T11:29:45.002Z</time></trkpt><trkpt lat="43.44133335966157" lon="12.516971424550611"><ele>827.75</ele><time>2026-04-29T11:29:46.002Z</time></trkpt><trkpt lat="43.44121880785499" lon="12.516969564545645"><ele>825.5</ele><time>2026-04-29T11:29:47.002Z</time></trkpt><trkpt lat="43.44110324527147" lon="12.51697012967113"><ele>823.25</ele><time>2026-04-29T11:29:48.002Z</time></trkpt><trkpt lat="43.44098376747946" lon="12.516979310802"><ele>821.0</ele><time>2026-04-29T11:29:49.002Z</time></trkpt><trkpt lat="43.440866110372085" lon="12.517009104916385"><ele>821.0</ele><time>2026-04-29T11:29:50Z</time></trkpt><trkpt lat="43.44075409742432" lon="12.517063639636786"><ele>821.0</ele><time>2026-04-29T11:29:51Z</time></trkpt><trkpt lat="43.44064145664047" lon="12.517135895262928"><ele>821.0</ele><time>2026-04-29T11:29:52Z</time></trkpt><trkpt lat="43.44051940037679" lon="12.517210121720398"><ele>821.0</ele><time>2026-04-29T11:29:53Z</time></trkpt><trkpt lat="43.440390813779224" lon="12.517287422215121"><ele>818.5</ele><time>2026-04-29T11:29:54Z</time></trkpt><trkpt lat="43.44026150105512" lon="12.517362619443702"><ele>816.0</ele><time>2026-04-29T11:29:55Z</time></trkpt><trkpt lat="43.44013775525829" lon="12.5174353849959"><ele>813.5</ele><time>2026-04-29T11:29:56Z</time></trkpt><trkpt lat="43.44002542600642" lon="12.51752173845334"><ele>811.0</ele><time>2026-04-29T11:29:57Z</time></trkpt><trkpt lat="43.43992644659343" lon="12.517624383787071"><ele>811.0</ele><time>2026-04-29T11:29:58Z</time></trkpt><trkpt lat="43.43983499821244" lon="12.517744736134265"><ele>811.0</ele><time>2026-04-29T11:29:59Z</time></trkpt><trkpt lat="43.4397472400199" lon="12.517868174305027"><ele>811.0</ele><time>2026-04-29T11:30:00Z</time></trkpt><trkpt lat="43.43964405238654" lon="12.517956711017742"><ele>811.0</ele><time>2026-04-29T11:30:01Z</time></trkpt><trkpt lat="43.43954371527202" lon="12.518038893261219"><ele>811.0</ele><time>2026-04-29T11:30:02Z</time></trkpt><trkpt lat="43.439434299260746" lon="12.518128873982763"><ele>811.0</ele><time>2026-04-29T11:30:03Z</time></trkpt><trkpt lat="43.439309685942476" lon="12.518155968719665"><ele>811.0</ele><time>2026-04-29T11:30:04Z</time></trkpt><trkpt lat="43.439193410172955" lon="12.518174610457745"><ele>811.0</ele><time>2026-04-29T11:30:05Z</time></trkpt><trkpt lat="43.43909011932125" lon="12.518208668064771"><ele>810.9999999999999</ele><time>2026-04-29T11:30:06Z</time></trkpt><trkpt lat="43.43900711840985" lon="12.518227035869689"><ele>811.0</ele><time>2026-04-29T11:30:07Z</time></trkpt><trkpt lat="43.43893666898583" lon="12.518244117649493"><ele>811.0</ele><time>2026-04-29T11:30:08Z</time></trkpt><trkpt lat="43.43888014551773" lon="12.518323470885715"><ele>811.0</ele><time>2026-04-29T11:30:09Z</time></trkpt><trkpt lat="43.43885207393535" lon="12.518430190174392"><ele>810.9999999999999</ele><time>2026-04-29T11:30:10Z</time></trkpt><trkpt lat="43.438874232898215" lon="12.5185802250561"><ele>811.0</ele><time>2026-04-29T11:30:11Z</time></trkpt><trkpt lat="43.43889756517261" lon="12.51872381111452"><ele>811.8</ele><time>2026-04-29T11:30:12Z</time></trkpt><trkpt lat="43.438892897982264" lon="12.518864044462822"><ele>812.5999999999999</ele><time>2026-04-29T11:30:13Z</time></trkpt><trkpt lat="43.43887089034969" lon="12.518993930337947"><ele>813.4</ele><time>2026-04-29T11:30:14Z</time></trkpt><trkpt lat="43.43882281726423" lon="12.519120095485672"><ele>814.2</ele><time>2026-04-29T11:30:15.001Z</time></trkpt><trkpt lat="43.43875551053733" lon="12.519250188933253"><ele>815.0</ele><time>2026-04-29T11:30:16.001Z</time></trkpt><trkpt lat="43.43867237539419" lon="12.519390632900098"><ele>812.0</ele><time>2026-04-29T11:30:17.001Z</time></trkpt><trkpt lat="43.43859087935267" lon="12.519551139742457"><ele>809.0</ele><time>2026-04-29T11:30:18.001Z</time></trkpt><trkpt lat="43.4384862704479" lon="12.519697995420758"><ele>806.0</ele><time>2026-04-29T11:30:19.001Z</time></trkpt><trkpt lat="43.43838070368788" lon="12.519837632066615"><ele>803.0</ele><time>2026-04-29T11:30:20.001Z</time></trkpt><trkpt lat="43.438268580344996" lon="12.519937747422286"><ele>803.0</ele><time>2026-04-29T11:30:21.001Z</time></trkpt><trkpt lat="43.438165318524455" lon="12.520045549541532"><ele>803.0</ele><time>2026-04-29T11:30:22.001Z</time></trkpt><trkpt lat="43.43802888306167" lon="12.520118267536564"><ele>803.0</ele><time>2026-04-29T11:30:23.001Z</time></trkpt><trkpt lat="43.43788346404357" lon="12.52017555519172"><ele>803.0</ele><time>2026-04-29T11:30:24.001Z</time></trkpt><trkpt lat="43.437721900247624" lon="12.520231857433094"><ele>798.0</ele><time>2026-04-29T11:30:25.001Z</time></trkpt><trkpt lat="43.437564853054454" lon="12.520306044776312"><ele>793.0</ele><time>2026-04-29T11:30:26.001Z</time></trkpt><trkpt lat="43.437412725336245" lon="12.520390157926743"><ele>788.0</ele><time>2026-04-29T11:30:27.001Z</time></trkpt><trkpt lat="43.437258760603505" lon="12.52045279548075"><ele>791.25</ele><time>2026-04-29T11:30:28.001Z</time></trkpt><trkpt lat="43.437117164162515" lon="12.520551864802002"><ele>794.5</ele><time>2026-04-29T11:30:29.001Z</time></trkpt><trkpt lat="43.43699333068024" lon="12.520663594841503"><ele>797.75</ele><time>2026-04-29T11:30:30.001Z</time></trkpt><trkpt lat="43.43691466785203" lon="12.520797965134467"><ele>801.0</ele><time>2026-04-29T11:30:31.001Z</time></trkpt><trkpt lat="43.43683567053172" lon="12.520880425958358"><ele>801.0</ele><time>2026-04-29T11:30:32.001Z</time></trkpt><trkpt lat="43.436760378239796" lon="12.520921284159686"><ele>801.0</ele><time>2026-04-29T11:30:33.001Z</time></trkpt><trkpt lat="43.436675235980005" lon="12.520922641920729"><ele>801.0</ele><time>2026-04-29T11:30:34.001Z</time></trkpt><trkpt lat="43.436581059939954" lon="12.52088530609844"><ele>801.0</ele><time>2026-04-29T11:30:35.001Z</time></trkpt><trkpt lat="43.43646321913567" lon="12.52089600294895"><ele>801.0</ele><time>2026-04-29T11:30:36.001Z</time></trkpt><trkpt lat="43.43634871426775" lon="12.520962068906307"><ele>800.25</ele><time>2026-04-29T11:30:37.001Z</time></trkpt><trkpt lat="43.43623487126835" lon="12.52103299342936"><ele>799.5</ele><time>2026-04-29T11:30:38.001Z</time></trkpt><trkpt lat="43.43611592085454" lon="12.521123793288195"><ele>798.75</ele><time>2026-04-29T11:30:39.001Z</time></trkpt><trkpt lat="43.435996242908686" lon="12.521215520263851"><ele>798.0</ele><time>2026-04-29T11:30:40.001Z</time></trkpt><trkpt lat="43.43588701458338" lon="12.521304618168704"><ele>798.0</ele><time>2026-04-29T11:30:41.001Z</time></trkpt><trkpt lat="43.435797671603666" lon="12.52141194810476"><ele>798.0</ele><time>2026-04-29T11:30:42.001Z</time></trkpt><trkpt lat="43.43569357071433" lon="12.521520523482858"><ele>798.0</ele><time>2026-04-29T11:30:43.001Z</time></trkpt><trkpt lat="43.4355937919386" lon="12.521661109957533"><ele>798.0</ele><time>2026-04-29T11:30:44.001Z</time></trkpt><trkpt lat="43.43549231668697" lon="12.52179611415688"><ele>796.0</ele><time>2026-04-29T11:30:45.001Z</time></trkpt><trkpt lat="43.435393719445074" lon="12.521915871589151"><ele>794.0</ele><time>2026-04-29T11:30:46.001Z</time></trkpt><trkpt lat="43.4352988131047" lon="12.522018668312201"><ele>792.0</ele><time>2026-04-29T11:30:47.001Z</time></trkpt><trkpt lat="43.435210481194964" lon="12.522113419408843"><ele>790.0</ele><time>2026-04-29T11:30:48.001Z</time></trkpt><trkpt lat="43.435100294154594" lon="12.522094122381437"><ele>794.0</ele><time>2026-04-29T11:30:49.001Z</time></trkpt><trkpt lat="43.43498967391011" lon="12.5220936520395"><ele>798.0</ele><time>2026-04-29T11:30:50.001Z</time></trkpt><trkpt lat="43.43487570743455" lon="12.522122153760806"><ele>802.0</ele><time>2026-04-29T11:30:51.001Z</time></trkpt><trkpt lat="43.4347881808364" lon="12.522137398245386"><ele>806.0</ele><time>2026-04-29T11:30:52.001Z</time></trkpt><trkpt lat="43.43472089742914" lon="12.522150042540437"><ele>810.0</ele><time>2026-04-29T11:30:53.001Z</time></trkpt><trkpt lat="43.43466426932251" lon="12.522233199453932"><ele>810.0</ele><time>2026-04-29T11:30:54.001Z</time></trkpt><trkpt lat="43.43464988546268" lon="12.522370217144537"><ele>810.0</ele><time>2026-04-29T11:30:55.001Z</time></trkpt><trkpt lat="43.434654011589195" lon="12.522504793609938"><ele>810.0</ele><time>2026-04-29T11:30:56.001Z</time></trkpt><trkpt lat="43.434617542688954" lon="12.522616201846713"><ele>810.0</ele><time>2026-04-29T11:30:57.001Z</time></trkpt><trkpt lat="43.43459973908339" lon="12.522716256266174"><ele>810.0</ele><time>2026-04-29T11:30:58.001Z</time></trkpt><trkpt lat="43.434532137281494" lon="12.522775950929452"><ele>810.0</ele><time>2026-04-29T11:30:59.001Z</time></trkpt><trkpt lat="43.434473126351705" lon="12.522841381507991"><ele>810.6</ele><time>2026-04-29T11:31:00.001Z</time></trkpt><trkpt lat="43.43440668696885" lon="12.522906031085627"><ele>811.2</ele><time>2026-04-29T11:31:01.002Z</time></trkpt><trkpt lat="43.434332594386746" lon="12.522966366955256"><ele>811.8</ele><time>2026-04-29T11:31:02.002Z</time></trkpt><trkpt lat="43.43424896941562" lon="12.523004297194605"><ele>812.4</ele><time>2026-04-29T11:31:03.002Z</time></trkpt><trkpt lat="43.434151554035275" lon="12.523019555280356"><ele>813.0</ele><time>2026-04-29T11:31:04.002Z</time></trkpt><trkpt lat="43.43403384371174" lon="12.523040624430655"><ele>813.0</ele><time>2026-04-29T11:31:05.002Z</time></trkpt><trkpt lat="43.433916947718345" lon="12.523060967183405"><ele>813.0</ele><time>2026-04-29T11:31:06.002Z</time></trkpt><trkpt lat="43.43378660786495" lon="12.523068687326276"><ele>813.0</ele><time>2026-04-29T11:31:07.002Z</time></trkpt><trkpt lat="43.433650910992924" lon="12.523040926823695"><ele>813.0</ele><time>2026-04-29T11:31:08.002Z</time></trkpt><trkpt lat="43.43352105156058" lon="12.523024638574487"><ele>811.2</ele><time>2026-04-29T11:31:09.002Z</time></trkpt><trkpt lat="43.43340211090939" lon="12.523008689054617"><ele>809.4</ele><time>2026-04-29T11:31:10.002Z</time></trkpt><trkpt lat="43.43329568505735" lon="12.522956579555018"><ele>807.6</ele><time>2026-04-29T11:31:11.002Z</time></trkpt><trkpt lat="43.43321511289129" lon="12.522880940519407"><ele>805.8000000000001</ele><time>2026-04-29T11:31:12.002Z</time></trkpt><trkpt lat="43.433137632093036" lon="12.522858942282923"><ele>804.0</ele><time>2026-04-29T11:31:13.002Z</time></trkpt><trkpt lat="43.43302952880869" lon="12.522831696201917"><ele>804.0</ele><time>2026-04-29T11:31:15.002Z</time></trkpt><trkpt lat="43.43296596904768" lon="12.522903177823055"><ele>804.0</ele><time>2026-04-29T11:31:16.002Z</time></trkpt><trkpt lat="43.43296064175811" lon="12.523033526931766"><ele>804.0</ele><time>2026-04-29T11:31:17.002Z</time></trkpt><trkpt lat="43.43296157139214" lon="12.523147659533544"><ele>804.0</ele><time>2026-04-29T11:31:18.002Z</time></trkpt><trkpt lat="43.432969975135556" lon="12.523273579739469"><ele>804.0</ele><time>2026-04-29T11:31:19.002Z</time></trkpt><trkpt lat="43.43297788725283" lon="12.52339965654862"><ele>804.0</ele><time>2026-04-29T11:31:20.002Z</time></trkpt><trkpt lat="43.43298979225816" lon="12.523504228327601"><ele>801.1666666666666</ele><time>2026-04-29T11:31:21.002Z</time></trkpt><trkpt lat="43.43296834632308" lon="12.523589749555656"><ele>798.3333333333333</ele><time>2026-04-29T11:31:22.002Z</time></trkpt><trkpt lat="43.432889080400294" lon="12.523719490363698"><ele>795.5</ele><time>2026-04-29T11:31:24.002Z</time></trkpt><trkpt lat="43.432819563610494" lon="12.523731893258029"><ele>792.6666666666666</ele><time>2026-04-29T11:31:25.002Z</time></trkpt><trkpt lat="43.43274987188101" lon="12.523767718422084"><ele>789.8333333333333</ele><time>2026-04-29T11:31:26.002Z</time></trkpt><trkpt lat="43.43265761866941" lon="12.523812173851308"><ele>787.0</ele><time>2026-04-29T11:31:27.002Z</time></trkpt><trkpt lat="43.43255797181655" lon="12.523848968809112"><ele>787.0</ele><time>2026-04-29T11:31:28.002Z</time></trkpt><trkpt lat="43.43246517842614" lon="12.523873349770058"><ele>787.0</ele><time>2026-04-29T11:31:29.002Z</time></trkpt><trkpt lat="43.43236798150398" lon="12.523840555393706"><ele>787.0</ele><time>2026-04-29T11:31:30.002Z</time></trkpt><trkpt lat="43.432273119568904" lon="12.523788214454324"><ele>787.0</ele><time>2026-04-29T11:31:31.002Z</time></trkpt><trkpt lat="43.432177112011935" lon="12.523729477212749"><ele>787.0</ele><time>2026-04-29T11:31:32.002Z</time></trkpt><trkpt lat="43.432076217887655" lon="12.523673492937197"><ele>784.75</ele><time>2026-04-29T11:31:33.002Z</time></trkpt><trkpt lat="43.43196510378102" lon="12.523608627465503"><ele>782.5</ele><time>2026-04-29T11:31:34.002Z</time></trkpt><trkpt lat="43.431847559117195" lon="12.523539598942804"><ele>780.25</ele><time>2026-04-29T11:31:35.002Z</time></trkpt><trkpt lat="43.43172257081258" lon="12.523474776802967"><ele>778.0</ele><time>2026-04-29T11:31:36.002Z</time></trkpt><trkpt lat="43.43159465710691" lon="12.523410794466033"><ele>778.0</ele><time>2026-04-29T11:31:37.002Z</time></trkpt><trkpt lat="43.43146878693341" lon="12.523340288562947"><ele>778.0</ele><time>2026-04-29T11:31:38.002Z</time></trkpt><trkpt lat="43.431336008486575" lon="12.523289061373523"><ele>778.0</ele><time>2026-04-29T11:31:39.002Z</time></trkpt><trkpt lat="43.43120323887488" lon="12.523230643886556"><ele>778.0</ele><time>2026-04-29T11:31:40.002Z</time></trkpt><trkpt lat="43.431062671759584" lon="12.523181509830703"><ele>779.25</ele><time>2026-04-29T11:31:41.002Z</time></trkpt><trkpt lat="43.43092565241569" lon="12.523134750241466"><ele>780.5</ele><time>2026-04-29T11:31:42.002Z</time></trkpt><trkpt lat="43.43079374084034" lon="12.523092922159208"><ele>781.75</ele><time>2026-04-29T11:31:43.002Z</time></trkpt><trkpt lat="43.43068334728832" lon="12.523073747365437"><ele>783.0</ele><time>2026-04-29T11:31:44.003Z</time></trkpt><trkpt lat="43.43059002615142" lon="12.523085174676863"><ele>783.0</ele><time>2026-04-29T11:31:45.003Z</time></trkpt><trkpt lat="43.43049612713876" lon="12.523102237871804"><ele>783.0</ele><time>2026-04-29T11:31:46.003Z</time></trkpt><trkpt lat="43.43040899117162" lon="12.523174517610508"><ele>783.0</ele><time>2026-04-29T11:31:47.003Z</time></trkpt><trkpt lat="43.43034009224951" lon="12.523288617097771"><ele>783.0</ele><time>2026-04-29T11:31:48.003Z</time></trkpt><trkpt lat="43.430306356153814" lon="12.523427937073006"><ele>783.0</ele><time>2026-04-29T11:31:49.003Z</time></trkpt><trkpt lat="43.43025046287815" lon="12.52355061064104"><ele>783.4</ele><time>2026-04-29T11:31:50.003Z</time></trkpt><trkpt lat="43.430211919417424" lon="12.523688595263598"><ele>783.8</ele><time>2026-04-29T11:31:51.003Z</time></trkpt><trkpt lat="43.43018570361204" lon="12.523809976080527"><ele>784.2</ele><time>2026-04-29T11:31:52.003Z</time></trkpt><trkpt lat="43.43012579079021" lon="12.523883053618764"><ele>784.6</ele><time>2026-04-29T11:31:53.003Z</time></trkpt><trkpt lat="43.43006201054078" lon="12.523909404537465"><ele>785.0</ele><time>2026-04-29T11:31:54.003Z</time></trkpt><trkpt lat="43.42994906180912" lon="12.523821357628522"><ele>785.0</ele><time>2026-04-29T11:31:56Z</time></trkpt><trkpt lat="43.42987777903166" lon="12.52373629563674"><ele>785.0</ele><time>2026-04-29T11:31:57Z</time></trkpt><trkpt lat="43.42979684767462" lon="12.523634919209298"><ele>785.0</ele><time>2026-04-29T11:31:58Z</time></trkpt><trkpt lat="43.42970647623853" lon="12.523507847618992"><ele>785.0</ele><time>2026-04-29T11:31:59Z</time></trkpt><trkpt lat="43.42960981022184" lon="12.523380216241968"><ele>785.25</ele><time>2026-04-29T11:32:00Z</time></trkpt><trkpt lat="43.42951240531387" lon="12.523248626170354"><ele>785.5</ele><time>2026-04-29T11:32:01Z</time></trkpt><trkpt lat="43.429423922240055" lon="12.523130639365423"><ele>785.75</ele><time>2026-04-29T11:32:02Z</time></trkpt><trkpt lat="43.42933724046538" lon="12.523036163866065"><ele>786.0</ele><time>2026-04-29T11:32:03Z</time></trkpt><trkpt lat="43.42924601679597" lon="12.522972046068183"><ele>786.0</ele><time>2026-04-29T11:32:04Z</time></trkpt><trkpt lat="43.42915364617488" lon="12.522911155677551"><ele>786.0</ele><time>2026-04-29T11:32:05Z</time></trkpt><trkpt lat="43.42904711608917" lon="12.522935252417591"><ele>786.0</ele><time>2026-04-29T11:32:06Z</time></trkpt><trkpt lat="43.428942494038814" lon="12.522966430846695"><ele>786.0</ele><time>2026-04-29T11:32:07Z</time></trkpt><trkpt lat="43.42883256757299" lon="12.523020431726069"><ele>786.0</ele><time>2026-04-29T11:32:08Z</time></trkpt><trkpt lat="43.428722800866254" lon="12.523082622174265"><ele>787.1999999999999</ele><time>2026-04-29T11:32:09Z</time></trkpt><trkpt lat="43.428623666593694" lon="12.523145395136053"><ele>788.4</ele><time>2026-04-29T11:32:10Z</time></trkpt><trkpt lat="43.42854427890439" lon="12.523227217645962"><ele>789.6</ele><time>2026-04-29T11:32:11Z</time></trkpt><trkpt lat="43.42848344044529" lon="12.52334811590321"><ele>790.8</ele><time>2026-04-29T11:32:12Z</time></trkpt><trkpt lat="43.42844695569867" lon="12.523487320564252"><ele>792.0</ele><time>2026-04-29T11:32:13Z</time></trkpt><trkpt lat="43.42841996920127" lon="12.523639111519632"><ele>790.6</ele><time>2026-04-29T11:32:14Z</time></trkpt><trkpt lat="43.428379925093694" lon="12.523767033255606"><ele>789.2</ele><time>2026-04-29T11:32:15Z</time></trkpt><trkpt lat="43.42830947577007" lon="12.523869641733114"><ele>787.8</ele><time>2026-04-29T11:32:16Z</time></trkpt><trkpt lat="43.428217944529365" lon="12.523943269565434"><ele>786.4</ele><time>2026-04-29T11:32:17Z</time></trkpt><trkpt lat="43.42811149066588" lon="12.523983347479549"><ele>785.0</ele><time>2026-04-29T11:32:18Z</time></trkpt><trkpt lat="43.427994511276204" lon="12.52400592556229"><ele>785.0</ele><time>2026-04-29T11:32:19Z</time></trkpt><trkpt lat="43.42786576450028" lon="12.524015800182703"><ele>785.0</ele><time>2026-04-29T11:32:20Z</time></trkpt><trkpt lat="43.42773386132703" lon="12.524023100908725"><ele>785.0</ele><time>2026-04-29T11:32:21Z</time></trkpt><trkpt lat="43.42760720097761" lon="12.524006954181598"><ele>785.0</ele><time>2026-04-29T11:32:22Z</time></trkpt><trkpt lat="43.427483989402425" lon="12.523959888140984"><ele>785.0</ele><time>2026-04-29T11:32:23Z</time></trkpt><trkpt lat="43.42737308757179" lon="12.523900050317726"><ele>785.0</ele><time>2026-04-29T11:32:24Z</time></trkpt><trkpt lat="43.427275626423885" lon="12.523854046839409"><ele>785.0</ele><time>2026-04-29T11:32:25Z</time></trkpt><trkpt lat="43.42717710665617" lon="12.523843188070796"><ele>785.0</ele><time>2026-04-29T11:32:26Z</time></trkpt><trkpt lat="43.427076602680344" lon="12.523869984577702"><ele>785.0</ele><time>2026-04-29T11:32:27Z</time></trkpt><trkpt lat="43.42698567796727" lon="12.523940637240056"><ele>785.75</ele><time>2026-04-29T11:32:28Z</time></trkpt><trkpt lat="43.426899586890244" lon="12.524046558330324"><ele>786.5</ele><time>2026-04-29T11:32:29Z</time></trkpt><trkpt lat="43.42681706310219" lon="12.524182928754747"><ele>787.25</ele><time>2026-04-29T11:32:30Z</time></trkpt><trkpt lat="43.42673145551679" lon="12.524337362837262"><ele>788.0</ele><time>2026-04-29T11:32:31Z</time></trkpt><trkpt lat="43.42663656923288" lon="12.524500926374287"><ele>784.6666666666667</ele><time>2026-04-29T11:32:32.001Z</time></trkpt><trkpt lat="43.42652372037583" lon="12.524663651901324"><ele>781.3333333333333</ele><time>2026-04-29T11:32:33.001Z</time></trkpt><trkpt lat="43.42639689400377" lon="12.524820224838498"><ele>778.0</ele><time>2026-04-29T11:32:34.001Z</time></trkpt><trkpt lat="43.42626511063332" lon="12.52497686032502"><ele>778.3333333333333</ele><time>2026-04-29T11:32:35.001Z</time></trkpt><trkpt lat="43.426127942419626" lon="12.525141720701702"><ele>778.6666666666667</ele><time>2026-04-29T11:32:36.001Z</time></trkpt><trkpt lat="43.425994818697475" lon="12.525314564796467"><ele>779.0</ele><time>2026-04-29T11:32:37.001Z</time></trkpt><trkpt lat="43.42586207022448" lon="12.525506784081527"><ele>779.0</ele><time>2026-04-29T11:32:38.001Z</time></trkpt><trkpt lat="43.4257272600186" lon="12.525710175662116"><ele>779.0</ele><time>2026-04-29T11:32:39.001Z</time></trkpt><trkpt lat="43.42559437794086" lon="12.525922248023857"><ele>779.0</ele><time>2026-04-29T11:32:40.001Z</time></trkpt><trkpt lat="43.42545788863083" lon="12.526137133823736"><ele>779.3333333333334</ele><time>2026-04-29T11:32:41.001Z</time></trkpt><trkpt lat="43.42532354596941" lon="12.526336133536292"><ele>779.6666666666667</ele><time>2026-04-29T11:32:42.001Z</time></trkpt><trkpt lat="43.42520091910565" lon="12.526519340044294"><ele>780.0</ele><time>2026-04-29T11:32:43.001Z</time></trkpt><trkpt lat="43.425093974504925" lon="12.526690675970254"><ele>780.0</ele><time>2026-04-29T11:32:44.001Z</time></trkpt><trkpt lat="43.42500276662873" lon="12.526854632791855"><ele>780.0</ele><time>2026-04-29T11:32:45.001Z</time></trkpt><trkpt lat="43.424924179400314" lon="12.527014255872501"><ele>780.0</ele><time>2026-04-29T11:32:46.001Z</time></trkpt><trkpt lat="43.42485846692865" lon="12.527162438277337"><ele>780.0</ele><time>2026-04-29T11:32:47.001Z</time></trkpt><trkpt lat="43.42479977359441" lon="12.527298997627376"><ele>782.2</ele><time>2026-04-29T11:32:48.001Z</time></trkpt><trkpt lat="43.42474227204522" lon="12.527424860496541"><ele>784.4</ele><time>2026-04-29T11:32:49.001Z</time></trkpt><trkpt lat="43.42469714569507" lon="12.527542153308925"><ele>786.5999999999999</ele><time>2026-04-29T11:32:50.001Z</time></trkpt><trkpt lat="43.424681555373006" lon="12.527665473697814"><ele>788.8</ele><time>2026-04-29T11:32:51.001Z</time></trkpt><trkpt lat="43.42468749035011" lon="12.527791420187615"><ele>791.0</ele><time>2026-04-29T11:32:52.001Z</time></trkpt><trkpt lat="43.424714221964315" lon="12.527915123978014"><ele>791.8</ele><time>2026-04-29T11:32:53.001Z</time></trkpt><trkpt lat="43.424756241032384" lon="12.528033040148118"><ele>792.5999999999999</ele><time>2026-04-29T11:32:54.001Z</time></trkpt><trkpt lat="43.42483357913597" lon="12.528128917426848"><ele>793.4</ele><time>2026-04-29T11:32:55.001Z</time></trkpt><trkpt lat="43.42490999125817" lon="12.528221295415703"><ele>794.2</ele><time>2026-04-29T11:32:56.001Z</time></trkpt><trkpt lat="43.42499364116552" lon="12.528330086907888"><ele>795.0</ele><time>2026-04-29T11:32:57.001Z</time></trkpt><trkpt lat="43.425068628602546" lon="12.528440096253947"><ele>795.0</ele><time>2026-04-29T11:32:58.001Z</time></trkpt><trkpt lat="43.425128766706" lon="12.52855813068041"><ele>795.0</ele><time>2026-04-29T11:32:59.001Z</time></trkpt><trkpt lat="43.425158167609105" lon="12.528707569863743"><ele>795.0</ele><time>2026-04-29T11:33:00.001Z</time></trkpt><trkpt lat="43.4251628942734" lon="12.52887384032791"><ele>795.0</ele><time>2026-04-29T11:33:01.001Z</time></trkpt><trkpt lat="43.425140664064244" lon="12.529036196455117"><ele>795.75</ele><time>2026-04-29T11:33:02.001Z</time></trkpt><trkpt lat="43.42509431692996" lon="12.529200722777556"><ele>796.5</ele><time>2026-04-29T11:33:03.001Z</time></trkpt><trkpt lat="43.42503179854239" lon="12.529359895813348"><ele>797.25</ele><time>2026-04-29T11:33:04.001Z</time></trkpt><trkpt lat="43.42494974453775" lon="12.529512406653275"><ele>798.0</ele><time>2026-04-29T11:33:05.001Z</time></trkpt><trkpt lat="43.42484175891022" lon="12.52964909861586"><ele>798.5</ele><time>2026-04-29T11:33:06.001Z</time></trkpt><trkpt lat="43.424719155239906" lon="12.529759163325739"><ele>799.0</ele><time>2026-04-29T11:33:07.001Z</time></trkpt><trkpt lat="43.42458615672502" lon="12.529831262917437"><ele>799.5</ele><time>2026-04-29T11:33:08.001Z</time></trkpt><trkpt lat="43.42445075014074" lon="12.529865826388999"><ele>800.0</ele><time>2026-04-29T11:33:09.001Z</time></trkpt><trkpt lat="43.42432067251664" lon="12.529901445364956"><ele>800.0</ele><time>2026-04-29T11:33:10.001Z</time></trkpt><trkpt lat="43.424197449372535" lon="12.52998707854602"><ele>800.0</ele><time>2026-04-29T11:33:11.001Z</time></trkpt><trkpt lat="43.424062452361426" lon="12.5300220071432"><ele>800.0</ele><time>2026-04-29T11:33:12.001Z</time></trkpt><trkpt lat="43.42393544722522" lon="12.529995911269468"><ele>800.0</ele><time>2026-04-29T11:33:13.001Z</time></trkpt><trkpt lat="43.42381553060121" lon="12.529923641467049"><ele>803.5</ele><time>2026-04-29T11:33:14.001Z</time></trkpt><trkpt lat="43.42370084837917" lon="12.529805543770117"><ele>807.0</ele><time>2026-04-29T11:33:15.002Z</time></trkpt><trkpt lat="43.423606979704395" lon="12.529664312978404"><ele>810.5</ele><time>2026-04-29T11:33:16.002Z</time></trkpt><trkpt lat="43.42350500474132" lon="12.529506093489442"><ele>814.0</ele><time>2026-04-29T11:33:17.002Z</time></trkpt><trkpt lat="43.42340649560207" lon="12.529319773660319"><ele>807.0</ele><time>2026-04-29T11:33:18.002Z</time></trkpt><trkpt lat="43.423317436829535" lon="12.529150774305144"><ele>800.0</ele><time>2026-04-29T11:33:19.002Z</time></trkpt><trkpt lat="43.423247929772565" lon="12.528990605105697"><ele>793.0</ele><time>2026-04-29T11:33:20.002Z</time></trkpt><trkpt lat="43.423182467951065" lon="12.528861777050006"><ele>786.0</ele><time>2026-04-29T11:33:21.002Z</time></trkpt><trkpt lat="43.42310818491506" lon="12.528752974630732"><ele>786.4</ele><time>2026-04-29T11:33:22.002Z</time></trkpt><trkpt lat="43.42301812251404" lon="12.528701068479634"><ele>786.8</ele><time>2026-04-29T11:33:23.002Z</time></trkpt><trkpt lat="43.42292161872778" lon="12.528723878102708"><ele>787.1999999999999</ele><time>2026-04-29T11:33:24.002Z</time></trkpt><trkpt lat="43.42283671734878" lon="12.52881786098268"><ele>787.5999999999999</ele><time>2026-04-29T11:33:25.002Z</time></trkpt><trkpt lat="43.42276553579619" lon="12.528963325226734"><ele>788.0</ele><time>2026-04-29T11:33:26.002Z</time></trkpt><trkpt lat="43.422671333235265" lon="12.529099223188934"><ele>788.0</ele><time>2026-04-29T11:33:27.002Z</time></trkpt><trkpt lat="43.42257812982364" lon="12.529213841597688"><ele>788.0</ele><time>2026-04-29T11:33:28.002Z</time></trkpt><trkpt lat="43.42247389804939" lon="12.529276922728716"><ele>788.0</ele><time>2026-04-29T11:33:29.002Z</time></trkpt><trkpt lat="43.422366967969225" lon="12.529274305593814"><ele>788.0</ele><time>2026-04-29T11:33:30.002Z</time></trkpt><trkpt lat="43.42226047967894" lon="12.529204828776153"><ele>788.0</ele><time>2026-04-29T11:33:31.002Z</time></trkpt><trkpt lat="43.42215792118871" lon="12.529089299136558"><ele>788.0</ele><time>2026-04-29T11:33:32.002Z</time></trkpt><trkpt lat="43.42203292797593" lon="12.528944507380446"><ele>788.0</ele><time>2026-04-29T11:33:33.002Z</time></trkpt><trkpt lat="43.42190582017559" lon="12.528813089117724"><ele>783.3333333333334</ele><time>2026-04-29T11:33:34.002Z</time></trkpt><trkpt lat="43.421780177062956" lon="12.528680351621807"><ele>778.6666666666667</ele><time>2026-04-29T11:33:35.002Z</time></trkpt><trkpt lat="43.42164361322158" lon="12.52855755216358"><ele>774.0</ele><time>2026-04-29T11:33:36.002Z</time></trkpt><trkpt lat="43.42150321428484" lon="12.528424352305358"><ele>774.0</ele><time>2026-04-29T11:33:37.002Z</time></trkpt><trkpt lat="43.42137273768278" lon="12.528305434244434"><ele>774.0</ele><time>2026-04-29T11:33:38.002Z</time></trkpt><trkpt lat="43.421260158435366" lon="12.52820537944567"><ele>774.0</ele><time>2026-04-29T11:33:39.002Z</time></trkpt><trkpt lat="43.42115528253435" lon="12.528092176836322"><ele>774.0</ele><time>2026-04-29T11:33:40.002Z</time></trkpt><trkpt lat="43.421062729943316" lon="12.527952789869083"><ele>774.6</ele><time>2026-04-29T11:33:41.002Z</time></trkpt><trkpt lat="43.42096578592062" lon="12.527815005143358"><ele>775.2</ele><time>2026-04-29T11:33:42.002Z</time></trkpt><trkpt lat="43.42086769051239" lon="12.527701136511537"><ele>775.8000000000001</ele><time>2026-04-29T11:33:43.002Z</time></trkpt><trkpt lat="43.420813779811134" lon="12.527599044775389"><ele>776.4000000000001</ele><time>2026-04-29T11:33:44.002Z</time></trkpt><trkpt lat="43.42080843301975" lon="12.527487290684464"><ele>777.0</ele><time>2026-04-29T11:33:45.002Z</time></trkpt><trkpt lat="43.42084752326973" lon="12.527355942558154"><ele>777.0</ele><time>2026-04-29T11:33:46.002Z</time></trkpt><trkpt lat="43.42089136998272" lon="12.527209732622437"><ele>777.0</ele><time>2026-04-29T11:33:47.002Z</time></trkpt><trkpt lat="43.42091830148599" lon="12.52703837837975"><ele>777.0</ele><time>2026-04-29T11:33:48.002Z</time></trkpt><trkpt lat="43.42095140515446" lon="12.52685312484817"><ele>777.0</ele><time>2026-04-29T11:33:49.002Z</time></trkpt><trkpt lat="43.4210115673649" lon="12.52667135665186"><ele>777.0</ele><time>2026-04-29T11:33:50.002Z</time></trkpt><trkpt lat="43.421087629396006" lon="12.526517155802996"><ele>777.0</ele><time>2026-04-29T11:33:51.002Z</time></trkpt><trkpt lat="43.421138603482575" lon="12.52635771552888"><ele>777.0</ele><time>2026-04-29T11:33:52.002Z</time></trkpt><trkpt lat="43.421144368202945" lon="12.526175796679459"><ele>777.0</ele><time>2026-04-29T11:33:53.002Z</time></trkpt><trkpt lat="43.42110582871363" lon="12.525989681295902"><ele>777.0</ele><time>2026-04-29T11:33:54.002Z</time></trkpt><trkpt lat="43.421026714380176" lon="12.52582664131045"><ele>777.0</ele><time>2026-04-29T11:33:55.002Z</time></trkpt><trkpt lat="43.42092006327987" lon="12.525694624117428"><ele>777.0</ele><time>2026-04-29T11:33:56.002Z</time></trkpt><trkpt lat="43.42086037716848" lon="12.52556826842034"><ele>777.0</ele><time>2026-04-29T11:33:57.002Z</time></trkpt><trkpt lat="43.42086470671566" lon="12.525459595809583"><ele>777.0</ele><time>2026-04-29T11:33:58.003Z</time></trkpt><trkpt lat="43.420901431438914" lon="12.525325521940754"><ele>777.0</ele><time>2026-04-29T11:33:59.003Z</time></trkpt><trkpt lat="43.420956269457044" lon="12.525164831664549"><ele>777.0</ele><time>2026-04-29T11:34:00.003Z</time></trkpt><trkpt lat="43.42100008389048" lon="12.52499048901397"><ele>777.0</ele><time>2026-04-29T11:34:01.003Z</time></trkpt><trkpt lat="43.42104405189688" lon="12.524799346507853"><ele>777.0</ele><time>2026-04-29T11:34:02Z</time></trkpt><trkpt lat="43.42106888971306" lon="12.524619812063758"><ele>777.0</ele><time>2026-04-29T11:34:03Z</time></trkpt><trkpt lat="43.42105702585017" lon="12.524439709464176"><ele>777.0</ele><time>2026-04-29T11:34:04Z</time></trkpt><trkpt lat="43.42099507619997" lon="12.524265628304702"><ele>777.0</ele><time>2026-04-29T11:34:05Z</time></trkpt><trkpt lat="43.420909601758524" lon="12.524093504020456"><ele>775.6666666666667</ele><time>2026-04-29T11:34:06Z</time></trkpt><trkpt lat="43.42079731814437" lon="12.523925936593216"><ele>774.3333333333334</ele><time>2026-04-29T11:34:07Z</time></trkpt><trkpt lat="43.42066390074495" lon="12.523776119235023"><ele>773.0</ele><time>2026-04-29T11:34:08Z</time></trkpt><trkpt lat="43.42051220461193" lon="12.523647983333944"><ele>776.3333333333334</ele><time>2026-04-29T11:34:09Z</time></trkpt><trkpt lat="43.42034424126417" lon="12.523535770621287"><ele>779.6666666666667</ele><time>2026-04-29T11:34:10Z</time></trkpt><trkpt lat="43.42016223513051" lon="12.523457067195476"><ele>783.0</ele><time>2026-04-29T11:34:11Z</time></trkpt><trkpt lat="43.41998758995198" lon="12.523403425812667"><ele>783.0</ele><time>2026-04-29T11:34:12Z</time></trkpt><trkpt lat="43.41986323695742" lon="12.523354938764117"><ele>783.0</ele><time>2026-04-29T11:34:13Z</time></trkpt><trkpt lat="43.41978574045679" lon="12.523291073093349"><ele>783.0</ele><time>2026-04-29T11:34:14Z</time></trkpt><trkpt lat="43.41973437236905" lon="12.52316022876559"><ele>783.0</ele><time>2026-04-29T11:34:15Z</time></trkpt><trkpt lat="43.419667052284716" lon="12.523032307279502"><ele>783.0</ele><time>2026-04-29T11:34:16Z</time></trkpt><trkpt lat="43.41957506525658" lon="12.522900936712622"><ele>782.3333333333333</ele><time>2026-04-29T11:34:17Z</time></trkpt><trkpt lat="43.41942582755029" lon="12.522789545460274"><ele>781.6666666666666</ele><time>2026-04-29T11:34:18Z</time></trkpt><trkpt lat="43.419274307907415" lon="12.522686826006744"><ele>781.0</ele><time>2026-04-29T11:34:19Z</time></trkpt><trkpt lat="43.419148750711734" lon="12.5225926343351"><ele>781.0</ele><time>2026-04-29T11:34:20Z</time></trkpt><trkpt lat="43.41905335469111" lon="12.52248078873138"><ele>781.0</ele><time>2026-04-29T11:34:21Z</time></trkpt><trkpt lat="43.418980130723064" lon="12.522337533127045"><ele>781.0</ele><time>2026-04-29T11:34:22Z</time></trkpt><trkpt lat="43.41890363520465" lon="12.522177390706327"><ele>781.0</ele><time>2026-04-29T11:34:23Z</time></trkpt><trkpt lat="43.41885506764851" lon="12.521985156112294"><ele>780.0</ele><time>2026-04-29T11:34:24Z</time></trkpt><trkpt lat="43.41882577021085" lon="12.521776833546399"><ele>779.0</ele><time>2026-04-29T11:34:25Z</time></trkpt><trkpt lat="43.41880526101711" lon="12.52156290667836"><ele>778.0</ele><time>2026-04-29T11:34:26Z</time></trkpt><trkpt lat="43.41875234359106" lon="12.52136534127845"><ele>769.3333333333333</ele><time>2026-04-29T11:34:27Z</time></trkpt><trkpt lat="43.41866729407997" lon="12.52117284682639"><ele>760.6666666666666</ele><time>2026-04-29T11:34:28Z</time></trkpt><trkpt lat="43.41855977393622" lon="12.520979999003229"><ele>752.0</ele><time>2026-04-29T11:34:29Z</time></trkpt><trkpt lat="43.41844118150717" lon="12.520788932217881"><ele>752.0</ele><time>2026-04-29T11:34:30Z</time></trkpt><trkpt lat="43.41831072916962" lon="12.520606523413031"><ele>752.0</ele><time>2026-04-29T11:34:31Z</time></trkpt><trkpt lat="43.41817076430053" lon="12.520429540792207"><ele>752.0</ele><time>2026-04-29T11:34:32Z</time></trkpt><trkpt lat="43.418034056683986" lon="12.52027161544907"><ele>749.25</ele><time>2026-04-29T11:34:33Z</time></trkpt><trkpt lat="43.41790976278206" lon="12.520139659500439"><ele>746.5</ele><time>2026-04-29T11:34:34Z</time></trkpt><trkpt lat="43.417813093307366" lon="12.520020164344864"><ele>743.75</ele><time>2026-04-29T11:34:35Z</time></trkpt><trkpt lat="43.41773716245899" lon="12.519876671121448"><ele>741.0</ele><time>2026-04-29T11:34:36.001Z</time></trkpt><trkpt lat="43.41769168252355" lon="12.519705926777494"><ele>741.0</ele><time>2026-04-29T11:34:37.001Z</time></trkpt><trkpt lat="43.41767703856365" lon="12.519500387615512"><ele>741.0</ele><time>2026-04-29T11:34:38.001Z</time></trkpt><trkpt lat="43.417662376224506" lon="12.51928297478202"><ele>741.0</ele><time>2026-04-29T11:34:39.001Z</time></trkpt><trkpt lat="43.41764914771479" lon="12.519048222801379"><ele>741.0</ele><time>2026-04-29T11:34:40.001Z</time></trkpt><trkpt lat="43.41762927951678" lon="12.518811375244162"><ele>741.0</ele><time>2026-04-29T11:34:41.001Z</time></trkpt><trkpt lat="43.41760130063469" lon="12.51859438003351"><ele>741.0</ele><time>2026-04-29T11:34:42.001Z</time></trkpt><trkpt lat="43.4175749748353" lon="12.518405153090448"><ele>741.0</ele><time>2026-04-29T11:34:43.001Z</time></trkpt><trkpt lat="43.41753623854065" lon="12.518243043760064"><ele>741.0</ele><time>2026-04-29T11:34:44.001Z</time></trkpt><trkpt lat="43.41750233747524" lon="12.518087272814908"><ele>741.0</ele><time>2026-04-29T11:34:45.001Z</time></trkpt><trkpt lat="43.417420668931534" lon="12.517971775485657"><ele>741.0</ele><time>2026-04-29T11:34:46.001Z</time></trkpt><trkpt lat="43.41735527400236" lon="12.517852883709075"><ele>740.75</ele><time>2026-04-29T11:34:47.001Z</time></trkpt><trkpt lat="43.41729210900835" lon="12.517734242683215"><ele>740.5</ele><time>2026-04-29T11:34:48.001Z</time></trkpt><trkpt lat="43.41723087989566" lon="12.517606823063288"><ele>740.25</ele><time>2026-04-29T11:34:49.001Z</time></trkpt><trkpt lat="43.41716365616747" lon="12.517468487215101"><ele>740.0</ele><time>2026-04-29T11:34:50.001Z</time></trkpt><trkpt lat="43.41709016956264" lon="12.517319541768071"><ele>742.0</ele><time>2026-04-29T11:34:51.001Z</time></trkpt><trkpt lat="43.41701263482866" lon="12.517163001511738"><ele>744.0</ele><time>2026-04-29T11:34:52.001Z</time></trkpt><trkpt lat="43.416922401913055" lon="12.517004856051825"><ele>746.0</ele><time>2026-04-29T11:34:53.001Z</time></trkpt><trkpt lat="43.41680919977665" lon="12.516864131245004"><ele>748.0</ele><time>2026-04-29T11:34:54.001Z</time></trkpt><trkpt lat="43.41666381490665" lon="12.516759496869179"><ele>748.0</ele><time>2026-04-29T11:34:55.001Z</time></trkpt><trkpt lat="43.41649888891581" lon="12.516701410745162"><ele>748.0</ele><time>2026-04-29T11:34:56.001Z</time></trkpt><trkpt lat="43.41632396971892" lon="12.51664940103276"><ele>748.0</ele><time>2026-04-29T11:34:57.001Z</time></trkpt><trkpt lat="43.41617166632229" lon="12.516563375917517"><ele>746.0</ele><time>2026-04-29T11:34:58.001Z</time></trkpt><trkpt lat="43.416037944336985" lon="12.516488714127266"><ele>744.0</ele><time>2026-04-29T11:34:59.001Z</time></trkpt><trkpt lat="43.4159311711825" lon="12.516402772537383"><ele>742.0</ele><time>2026-04-29T11:35:00.001Z</time></trkpt><trkpt lat="43.41586835080701" lon="12.516251325282376"><ele>740.0</ele><time>2026-04-29T11:35:01.001Z</time></trkpt><trkpt lat="43.415814437594264" lon="12.516071976959784"><ele>740.0</ele><time>2026-04-29T11:35:02.001Z</time></trkpt><trkpt lat="43.41574346230963" lon="12.515870821258925"><ele>740.0</ele><time>2026-04-29T11:35:03.001Z</time></trkpt><trkpt lat="43.415659118299075" lon="12.515661079295361"><ele>740.0</ele><time>2026-04-29T11:35:04.001Z</time></trkpt><trkpt lat="43.41557878444839" lon="12.515431509562838"><ele>740.25</ele><time>2026-04-29T11:35:05.001Z</time></trkpt><trkpt lat="43.4155042905396" lon="12.515212303317693"><ele>740.5</ele><time>2026-04-29T11:35:06.001Z</time></trkpt><trkpt lat="43.4154483226594" lon="12.51502338943108"><ele>740.75</ele><time>2026-04-29T11:35:07.001Z</time></trkpt><trkpt lat="43.415426514156344" lon="12.514864277267574"><ele>741.0</ele><time>2026-04-29T11:35:08.001Z</time></trkpt><trkpt lat="43.41547739648255" lon="12.514743020464048"><ele>741.0</ele><time>2026-04-29T11:35:09.001Z</time></trkpt><trkpt lat="43.415534462341995" lon="12.51459563487323"><ele>741.0</ele><time>2026-04-29T11:35:10.001Z</time></trkpt><trkpt lat="43.41559289143656" lon="12.514411931390256"><ele>741.0</ele><time>2026-04-29T11:35:11.001Z</time></trkpt><trkpt lat="43.41566203290691" lon="12.514211597245385"><ele>741.0</ele><time>2026-04-29T11:35:12.001Z</time></trkpt><trkpt lat="43.41570166060218" lon="12.513982310434239"><ele>736.0</ele><time>2026-04-29T11:35:13.001Z</time></trkpt><trkpt lat="43.415720693338265" lon="12.513727955253362"><ele>731.0</ele><time>2026-04-29T11:35:14.001Z</time></trkpt><trkpt lat="43.41571757637885" lon="12.513456167115944"><ele>726.0</ele><time>2026-04-29T11:35:15.001Z</time></trkpt><trkpt lat="43.41569009980357" lon="12.513174705008005"><ele>723.6666666666666</ele><time>2026-04-29T11:35:16.001Z</time></trkpt><trkpt lat="43.41564983460784" lon="12.512882563337849"><ele>721.3333333333333</ele><time>2026-04-29T11:35:17.001Z</time></trkpt><trkpt lat="43.41560438247261" lon="12.512585536816086"><ele>719.0</ele><time>2026-04-29T11:35:18.001Z</time></trkpt><trkpt lat="43.41555510090484" lon="12.512284576924165"><ele>714.0</ele><time>2026-04-29T11:35:19.001Z</time></trkpt><trkpt lat="43.41549585575845" lon="12.511983083806228"><ele>709.0</ele><time>2026-04-29T11:35:20.002Z</time></trkpt><trkpt lat="43.415417956337436" lon="12.511692649208364"><ele>707.0</ele><time>2026-04-29T11:35:21.002Z</time></trkpt><trkpt lat="43.41531970469093" lon="12.511417204514705"><ele>705.0</ele><time>2026-04-29T11:35:22.002Z</time></trkpt><trkpt lat="43.41520894774617" lon="12.511137785887687"><ele>705.0</ele><time>2026-04-29T11:35:23.002Z</time></trkpt><trkpt lat="43.415111137910074" lon="12.510866261014497"><ele>705.0</ele><time>2026-04-29T11:35:24.002Z</time></trkpt><trkpt lat="43.41501125713029" lon="12.510596211061687"><ele>705.0</ele><time>2026-04-29T11:35:25.002Z</time></trkpt><trkpt lat="43.41491492477584" lon="12.510309218074482"><ele>704.6666666666666</ele><time>2026-04-29T11:35:26.002Z</time></trkpt><trkpt lat="43.41481585094001" lon="12.51003764060965"><ele>704.3333333333333</ele><time>2026-04-29T11:35:27.002Z</time></trkpt><trkpt lat="43.414719144094136" lon="12.509759403441132"><ele>704.0</ele><time>2026-04-29T11:35:28.002Z</time></trkpt><trkpt lat="43.41462366713328" lon="12.509483235508338"><ele>704.3333333333333</ele><time>2026-04-29T11:35:29.002Z</time></trkpt><trkpt lat="43.414531226272665" lon="12.50920873644189"><ele>704.6666666666666</ele><time>2026-04-29T11:35:30.002Z</time></trkpt><trkpt lat="43.41444120633667" lon="12.508940413191175"><ele>705.0</ele><time>2026-04-29T11:35:31.002Z</time></trkpt><trkpt lat="43.41434824007633" lon="12.508681592454092"><ele>705.0</ele><time>2026-04-29T11:35:32.002Z</time></trkpt><trkpt lat="43.414247738490126" lon="12.508445166480072"><ele>705.0</ele><time>2026-04-29T11:35:33.002Z</time></trkpt><trkpt lat="43.414123656597006" lon="12.50824588929016"><ele>705.0</ele><time>2026-04-29T11:35:34.002Z</time></trkpt><trkpt lat="43.4139805505403" lon="12.50809474934299"><ele>701.6666666666666</ele><time>2026-04-29T11:35:35.002Z</time></trkpt><trkpt lat="43.41381894044394" lon="12.507963574587116"><ele>698.3333333333333</ele><time>2026-04-29T11:35:36.002Z</time></trkpt><trkpt lat="43.41367694482412" lon="12.507792881556036"><ele>695.0</ele><time>2026-04-29T11:35:37.002Z</time></trkpt><trkpt lat="43.413552167607364" lon="12.507587856637155"><ele>695.0</ele><time>2026-04-29T11:35:38.002Z</time></trkpt><trkpt lat="43.41343590555978" lon="12.5073612124256"><ele>695.0</ele><time>2026-04-29T11:35:39.002Z</time></trkpt><trkpt lat="43.413320984542075" lon="12.507132245510922"><ele>695.0</ele><time>2026-04-29T11:35:40.002Z</time></trkpt><trkpt lat="43.41319855042109" lon="12.5068864536012"><ele>695.0</ele><time>2026-04-29T11:35:41.002Z</time></trkpt><trkpt lat="43.413080167237986" lon="12.506635954266917"><ele>695.0</ele><time>2026-04-29T11:35:42.002Z</time></trkpt><trkpt lat="43.412954500050176" lon="12.506389105059183"><ele>695.0</ele><time>2026-04-29T11:35:43.002Z</time></trkpt><trkpt lat="43.412812510439984" lon="12.506180616607919"><ele>695.0</ele><time>2026-04-29T11:35:44.002Z</time></trkpt><trkpt lat="43.41266295639561" lon="12.506016738840882"><ele>695.0</ele><time>2026-04-29T11:35:45.002Z</time></trkpt><trkpt lat="43.41250283075473" lon="12.505909842705968"><ele>695.0</ele><time>2026-04-29T11:35:46.002Z</time></trkpt><trkpt lat="43.41233994502318" lon="12.505787647958572"><ele>695.0</ele><time>2026-04-29T11:35:47.002Z</time></trkpt><trkpt lat="43.41217618685124" lon="12.505672498403484"><ele>695.0</ele><time>2026-04-29T11:35:48.002Z</time></trkpt><trkpt lat="43.41206480777613" lon="12.505495671183835"><ele>695.0</ele><time>2026-04-29T11:35:49.002Z</time></trkpt><trkpt lat="43.41196646083515" lon="12.505299170723047"><ele>696.6666666666666</ele><time>2026-04-29T11:35:50.002Z</time></trkpt><trkpt lat="43.41186427876393" lon="12.505096540101029"><ele>698.3333333333334</ele><time>2026-04-29T11:35:51.002Z</time></trkpt><trkpt lat="43.411749296287155" lon="12.504893332702341"><ele>700.0</ele><time>2026-04-29T11:35:52.002Z</time></trkpt><trkpt lat="43.411639931645446" lon="12.504677977012204"><ele>697.3333333333334</ele><time>2026-04-29T11:35:53.002Z</time></trkpt><trkpt lat="43.41153284306176" lon="12.504472306503699"><ele>694.6666666666666</ele><time>2026-04-29T11:35:54.002Z</time></trkpt><trkpt lat="43.411432901125345" lon="12.504300248615108"><ele>692.0</ele><time>2026-04-29T11:35:55.002Z</time></trkpt><trkpt lat="43.41132123324913" lon="12.504168106219657"><ele>690.3333333333333</ele><time>2026-04-29T11:35:56.002Z</time></trkpt><trkpt lat="43.41118328256316" lon="12.50408588544734"><ele>688.6666666666666</ele><time>2026-04-29T11:35:57.002Z</time></trkpt><trkpt lat="43.41103543969681" lon="12.504025822280635"><ele>687.0</ele><time>2026-04-29T11:35:58.002Z</time></trkpt><trkpt lat="43.41088690830532" lon="12.503940495379219"><ele>687.0</ele><time>2026-04-29T11:35:59.002Z</time></trkpt><trkpt lat="43.41077467153291" lon="12.503751815644335"><ele>687.0</ele><time>2026-04-29T11:36:00.002Z</time></trkpt><trkpt lat="43.41068926753178" lon="12.503537635363404"><ele>687.0</ele><time>2026-04-29T11:36:01.002Z</time></trkpt><trkpt lat="43.410626203752386" lon="12.503308310375616"><ele>687.6666666666666</ele><time>2026-04-29T11:36:02.002Z</time></trkpt><trkpt lat="43.41055024742392" lon="12.503081051645557"><ele>688.3333333333333</ele><time>2026-04-29T11:36:03.003Z</time></trkpt><trkpt lat="43.410495012091424" lon="12.502842233143724"><ele>689.0</ele><time>2026-04-29T11:36:04.003Z</time></trkpt><trkpt lat="43.41044066804714" lon="12.502640567128267"><ele>687.4000000000001</ele><time>2026-04-29T11:36:05.003Z</time></trkpt><trkpt lat="43.410384342842285" lon="12.502466710424372"><ele>685.8</ele><time>2026-04-29T11:36:06.003Z</time></trkpt><trkpt lat="43.4103152703702" lon="12.502324715377506"><ele>684.2</ele><time>2026-04-29T11:36:07.003Z</time></trkpt><trkpt lat="43.41024124112423" lon="12.502232699248328"><ele>682.5999999999999</ele><time>2026-04-29T11:36:08Z</time></trkpt><trkpt lat="43.41018100997086" lon="12.502176664431486"><ele>681.0</ele><time>2026-04-29T11:36:09Z</time></trkpt><trkpt lat="43.410043393866246" lon="12.502137485388449"><ele>681.0</ele><time>2026-04-29T11:36:11Z</time></trkpt><trkpt lat="43.409929230403506" lon="12.502102236143982"><ele>681.0</ele><time>2026-04-29T11:36:12Z</time></trkpt><trkpt lat="43.409785447364726" lon="12.502066667499548"><ele>681.0</ele><time>2026-04-29T11:36:13Z</time></trkpt><trkpt lat="43.40964364624249" lon="12.502016211153322"><ele>681.0</ele><time>2026-04-29T11:36:14Z</time></trkpt><trkpt lat="43.409486349621176" lon="12.501964633204448"><ele>684.0</ele><time>2026-04-29T11:36:15Z</time></trkpt><trkpt lat="43.40931994260757" lon="12.501914892734769"><ele>687.0</ele><time>2026-04-29T11:36:16Z</time></trkpt><trkpt lat="43.40914750356204" lon="12.501865138587505"><ele>690.0</ele><time>2026-04-29T11:36:17Z</time></trkpt><trkpt lat="43.40898484195747" lon="12.501813227270368"><ele>690.0</ele><time>2026-04-29T11:36:18Z</time></trkpt><trkpt lat="43.40883517478526" lon="12.501763420618248"><ele>690.0</ele><time>2026-04-29T11:36:19Z</time></trkpt><trkpt lat="43.40870494216505" lon="12.501685830486709"><ele>690.0</ele><time>2026-04-29T11:36:20Z</time></trkpt><trkpt lat="43.40859781483312" lon="12.501571321694954"><ele>690.0</ele><time>2026-04-29T11:36:21Z</time></trkpt><trkpt lat="43.40852174923916" lon="12.5014215366982"><ele>689.75</ele><time>2026-04-29T11:36:22Z</time></trkpt><trkpt lat="43.40849037126322" lon="12.501234653105362"><ele>689.5</ele><time>2026-04-29T11:36:23Z</time></trkpt><trkpt lat="43.408416655624855" lon="12.501068756837196"><ele>689.25</ele><time>2026-04-29T11:36:24Z</time></trkpt><trkpt lat="43.408309458272484" lon="12.50093091656863"><ele>689.0</ele><time>2026-04-29T11:36:25Z</time></trkpt><trkpt lat="43.40815547105604" lon="12.5008406352714"><ele>683.6666666666666</ele><time>2026-04-29T11:36:26Z</time></trkpt><trkpt lat="43.407983386445515" lon="12.500789455003341"><ele>678.3333333333334</ele><time>2026-04-29T11:36:27Z</time></trkpt><trkpt lat="43.40780890578563" lon="12.500735555962631"><ele>673.0</ele><time>2026-04-29T11:36:28Z</time></trkpt><trkpt lat="43.40763518597781" lon="12.500671557901201"><ele>673.0</ele><time>2026-04-29T11:36:29Z</time></trkpt><trkpt lat="43.407467011925796" lon="12.500596517459597"><ele>673.0</ele><time>2026-04-29T11:36:30Z</time></trkpt><trkpt lat="43.407311963576156" lon="12.500502502664833"><ele>673.0</ele><time>2026-04-29T11:36:31Z</time></trkpt><trkpt lat="43.407173426185366" lon="12.500399121947275"><ele>671.0</ele><time>2026-04-29T11:36:32Z</time></trkpt><trkpt lat="43.40707353488706" lon="12.50024724858196"><ele>669.0</ele><time>2026-04-29T11:36:33Z</time></trkpt><trkpt lat="43.406972866522345" lon="12.50008986105793"><ele>667.0</ele><time>2026-04-29T11:36:34Z</time></trkpt><trkpt lat="43.40688477162232" lon="12.499903311233462"><ele>667.0</ele><time>2026-04-29T11:36:35Z</time></trkpt><trkpt lat="43.406798029900756" lon="12.499709198579017"><ele>667.0</ele><time>2026-04-29T11:36:36.001Z</time></trkpt><trkpt lat="43.406717734755034" lon="12.49950663676409"><ele>667.0</ele><time>2026-04-29T11:36:37.001Z</time></trkpt><trkpt lat="43.40665641864083" lon="12.499282078260691"><ele>671.3333333333334</ele><time>2026-04-29T11:36:38.001Z</time></trkpt><trkpt lat="43.40660744326856" lon="12.499042456170416"><ele>675.6666666666666</ele><time>2026-04-29T11:36:39.001Z</time></trkpt><trkpt lat="43.406559379194434" lon="12.498796487881446"><ele>680.0</ele><time>2026-04-29T11:36:40.001Z</time></trkpt><trkpt lat="43.40649698598209" lon="12.498563432032766"><ele>681.5</ele><time>2026-04-29T11:36:41.001Z</time></trkpt><trkpt lat="43.406438244763415" lon="12.498362098586284"><ele>683.0</ele><time>2026-04-29T11:36:42.001Z</time></trkpt><trkpt lat="43.406407002974056" lon="12.498171602910244"><ele>684.5</ele><time>2026-04-29T11:36:43.001Z</time></trkpt><trkpt lat="43.40643119955878" lon="12.497975398758092"><ele>686.0</ele><time>2026-04-29T11:36:44.001Z</time></trkpt><trkpt lat="43.40645903314603" lon="12.497760126060532"><ele>687.3333333333333</ele><time>2026-04-29T11:36:45.001Z</time></trkpt><trkpt lat="43.406460739747025" lon="12.497532547262438"><ele>688.6666666666666</ele><time>2026-04-29T11:36:46.001Z</time></trkpt><trkpt lat="43.40644579904598" lon="12.4972982575433"><ele>690.0</ele><time>2026-04-29T11:36:47.001Z</time></trkpt><trkpt lat="43.406399334397115" lon="12.497053245215334"><ele>690.3333333333334</ele><time>2026-04-29T11:36:48.001Z</time></trkpt><trkpt lat="43.40634463450607" lon="12.496801009922253"><ele>690.6666666666667</ele><time>2026-04-29T11:36:49.001Z</time></trkpt><trkpt lat="43.40627461470287" lon="12.496548830728281"><ele>691.0</ele><time>2026-04-29T11:36:50.001Z</time></trkpt><trkpt lat="43.40619101314741" lon="12.496320011130457"><ele>685.0</ele><time>2026-04-29T11:36:51.001Z</time></trkpt><trkpt lat="43.406110860231294" lon="12.49612152244023"><ele>679.0</ele><time>2026-04-29T11:36:52.001Z</time></trkpt><trkpt lat="43.406016198247485" lon="12.495950946880631"><ele>673.0</ele><time>2026-04-29T11:36:53.001Z</time></trkpt><trkpt lat="43.40588778047276" lon="12.495807373174603"><ele>673.0</ele><time>2026-04-29T11:36:54.001Z</time></trkpt><trkpt lat="43.405734586404606" lon="12.495698334710399"><ele>673.0</ele><time>2026-04-29T11:36:55.001Z</time></trkpt><trkpt lat="43.405557855204364" lon="12.495625702960846"><ele>673.0</ele><time>2026-04-29T11:36:56.001Z</time></trkpt><trkpt lat="43.405377213728876" lon="12.495560746429861"><ele>672.0</ele><time>2026-04-29T11:36:57.001Z</time></trkpt><trkpt lat="43.40522298153485" lon="12.49545438105647"><ele>671.0</ele><time>2026-04-29T11:36:58.001Z</time></trkpt><trkpt lat="43.40508611641691" lon="12.495370492839628"><ele>670.0</ele><time>2026-04-29T11:36:59.001Z</time></trkpt><trkpt lat="43.404987930558825" lon="12.495204024487595"><ele>670.0</ele><time>2026-04-29T11:37:00.001Z</time></trkpt><trkpt lat="43.404882403889474" lon="12.49503862956757"><ele>670.0</ele><time>2026-04-29T11:37:01.001Z</time></trkpt><trkpt lat="43.40478940311404" lon="12.494843885592356"><ele>670.0</ele><time>2026-04-29T11:37:02.001Z</time></trkpt><trkpt lat="43.4046899124039" lon="12.494648694297357"><ele>668.3333333333334</ele><time>2026-04-29T11:37:03.001Z</time></trkpt><trkpt lat="43.40457744172893" lon="12.49445519986641"><ele>666.6666666666666</ele><time>2026-04-29T11:37:04.001Z</time></trkpt><trkpt lat="43.40444324509886" lon="12.494280837541092"><ele>665.0</ele><time>2026-04-29T11:37:05.001Z</time></trkpt><trkpt lat="43.40428703031537" lon="12.494126599393987"><ele>665.0</ele><time>2026-04-29T11:37:06.001Z</time></trkpt><trkpt lat="43.4041273990088" lon="12.493992161905501"><ele>665.0</ele><time>2026-04-29T11:37:07.001Z</time></trkpt><trkpt lat="43.40397296660733" lon="12.49387747754157"><ele>665.0</ele><time>2026-04-29T11:37:08.001Z</time></trkpt><trkpt lat="43.40381323731783" lon="12.493793646974181"><ele>665.0</ele><time>2026-04-29T11:37:09.001Z</time></trkpt><trkpt lat="43.40364609965433" lon="12.49373848172122"><ele>665.0</ele><time>2026-04-29T11:37:10.001Z</time></trkpt><trkpt lat="43.40348117314447" lon="12.493700721594074"><ele>665.0</ele><time>2026-04-29T11:37:11.001Z</time></trkpt><trkpt lat="43.40332277109791" lon="12.49366611036852"><ele>665.0</ele><time>2026-04-29T11:37:12.001Z</time></trkpt><trkpt lat="43.40316714426356" lon="12.493627626465656"><ele>665.0</ele><time>2026-04-29T11:37:13.001Z</time></trkpt><trkpt lat="43.403017504156836" lon="12.493582604459796"><ele>665.0</ele><time>2026-04-29T11:37:14.001Z</time></trkpt><trkpt lat="43.4028794877982" lon="12.49351175405286"><ele>664.0</ele><time>2026-04-29T11:37:15.001Z</time></trkpt><trkpt lat="43.40276004877552" lon="12.493406096098916"><ele>663.0</ele><time>2026-04-29T11:37:16.001Z</time></trkpt><trkpt lat="43.40265849218768" lon="12.493286900288835"><ele>662.0</ele><time>2026-04-29T11:37:17.001Z</time></trkpt><trkpt lat="43.40255108672041" lon="12.493195618607873"><ele>661.0</ele><time>2026-04-29T11:37:18.001Z</time></trkpt><trkpt lat="43.40243472485783" lon="12.493136814034168"><ele>661.0</ele><time>2026-04-29T11:37:19.001Z</time></trkpt><trkpt lat="43.40231548109234" lon="12.49309963056675"><ele>661.0</ele><time>2026-04-29T11:37:20.001Z</time></trkpt><trkpt lat="43.402199513917076" lon="12.493071551311948"><ele>661.0</ele><time>2026-04-29T11:37:21.001Z</time></trkpt><trkpt lat="43.40209168738231" lon="12.493030785116805"><ele>661.0</ele><time>2026-04-29T11:37:22.002Z</time></trkpt><trkpt lat="43.40200529638948" lon="12.49294817395387"><ele>658.5</ele><time>2026-04-29T11:37:23.002Z</time></trkpt><trkpt lat="43.40192308774923" lon="12.492870449170622"><ele>656.0</ele><time>2026-04-29T11:37:24.002Z</time></trkpt><trkpt lat="43.40183315216958" lon="12.492793670283588"><ele>653.5</ele><time>2026-04-29T11:37:25.002Z</time></trkpt><trkpt lat="43.40173785630449" lon="12.492690346319272"><ele>651.0</ele><time>2026-04-29T11:37:26.002Z</time></trkpt><trkpt lat="43.40162200063506" lon="12.49259977088553"><ele>651.0</ele><time>2026-04-29T11:37:27.002Z</time></trkpt><trkpt lat="43.40148167865547" lon="12.492525590231754"><ele>651.0</ele><time>2026-04-29T11:37:28.002Z</time></trkpt><trkpt lat="43.40133005123858" lon="12.492467953747434"><ele>651.0</ele><time>2026-04-29T11:37:29.002Z</time></trkpt><trkpt lat="43.40117180989922" lon="12.492407234322263"><ele>651.6666666666666</ele><time>2026-04-29T11:37:30.002Z</time></trkpt><trkpt lat="43.401035966968955" lon="12.492280124756217"><ele>652.3333333333333</ele><time>2026-04-29T11:37:31.002Z</time></trkpt><trkpt lat="43.400895451044946" lon="12.492135897387879"><ele>653.0</ele><time>2026-04-29T11:37:32.002Z</time></trkpt><trkpt lat="43.40074649334638" lon="12.491984819932535"><ele>649.3333333333333</ele><time>2026-04-29T11:37:33.002Z</time></trkpt><trkpt lat="43.40060479602129" lon="12.491812692153967"><ele>645.6666666666666</ele><time>2026-04-29T11:37:34.002Z</time></trkpt><trkpt lat="43.40046539882143" lon="12.491646474808137"><ele>642.0</ele><time>2026-04-29T11:37:35.002Z</time></trkpt><trkpt lat="43.40032999969389" lon="12.491497221376532"><ele>640.6666666666666</ele><time>2026-04-29T11:37:36.002Z</time></trkpt><trkpt lat="43.40019892350528" lon="12.491393591972416"><ele>639.3333333333333</ele><time>2026-04-29T11:37:37.002Z</time></trkpt><trkpt lat="43.400055534779995" lon="12.491356809018864"><ele>638.0</ele><time>2026-04-29T11:37:38.002Z</time></trkpt><trkpt lat="43.399887534008684" lon="12.491361279517083"><ele>638.0</ele><time>2026-04-29T11:37:39.002Z</time></trkpt><trkpt lat="43.399705408964266" lon="12.491374985077076"><ele>638.0</ele><time>2026-04-29T11:37:40.002Z</time></trkpt><trkpt lat="43.39951577641455" lon="12.491386929768877"><ele>638.0</ele><time>2026-04-29T11:37:41.002Z</time></trkpt><trkpt lat="43.39933463334996" lon="12.491418223442919"><ele>636.3333333333333</ele><time>2026-04-29T11:37:42.002Z</time></trkpt><trkpt lat="43.399156833159395" lon="12.491482114260506"><ele>634.6666666666666</ele><time>2026-04-29T11:37:43.002Z</time></trkpt><trkpt lat="43.39897256867515" lon="12.49157324881434"><ele>633.0</ele><time>2026-04-29T11:37:44.002Z</time></trkpt><trkpt lat="43.39878740857537" lon="12.49168116447807"><ele>631.6666666666666</ele><time>2026-04-29T11:37:45.002Z</time></trkpt><trkpt lat="43.39861859478547" lon="12.491799683143524"><ele>630.3333333333333</ele><time>2026-04-29T11:37:46.002Z</time></trkpt><trkpt lat="43.39846058411215" lon="12.491925204839163"><ele>629.0</ele><time>2026-04-29T11:37:47.002Z</time></trkpt><trkpt lat="43.39829509202716" lon="12.492022161941971"><ele>627.0</ele><time>2026-04-29T11:37:48.002Z</time></trkpt><trkpt lat="43.39813489453763" lon="12.492106749629164"><ele>625.0</ele><time>2026-04-29T11:37:49.002Z</time></trkpt><trkpt lat="43.39796539227204" lon="12.49214455981261"><ele>623.0</ele><time>2026-04-29T11:37:50.002Z</time></trkpt><trkpt lat="43.39778586679878" lon="12.492160380328237"><ele>623.0</ele><time>2026-04-29T11:37:51.002Z</time></trkpt><trkpt lat="43.397607163007976" lon="12.492193198589641"><ele>623.0</ele><time>2026-04-29T11:37:52.002Z</time></trkpt><trkpt lat="43.39743220045969" lon="12.492201723590078"><ele>623.0</ele><time>2026-04-29T11:37:53.002Z</time></trkpt><trkpt lat="43.39727192386912" lon="12.49219373499693"><ele>622.0</ele><time>2026-04-29T11:37:54.002Z</time></trkpt><trkpt lat="43.397127477898266" lon="12.492146091035803"><ele>621.0</ele><time>2026-04-29T11:37:55.002Z</time></trkpt><trkpt lat="43.39698764913991" lon="12.492093005234754"><ele>620.0</ele><time>2026-04-29T11:37:56.002Z</time></trkpt><trkpt lat="43.39684330481386" lon="12.492068752073807"><ele>619.0</ele><time>2026-04-29T11:37:57.002Z</time></trkpt><trkpt lat="43.39669364149295" lon="12.492065541408618"><ele>619.0</ele><time>2026-04-29T11:37:58.002Z</time></trkpt><trkpt lat="43.39654121631045" lon="12.492083215578432"><ele>619.0</ele><time>2026-04-29T11:37:59.002Z</time></trkpt><trkpt lat="43.396381916414214" lon="12.492128953180513"><ele>619.0</ele><time>2026-04-29T11:38:00.002Z</time></trkpt><trkpt lat="43.396218376210754" lon="12.492196449406135"><ele>615.3333333333334</ele><time>2026-04-29T11:38:01.002Z</time></trkpt><trkpt lat="43.396056817944306" lon="12.49225935042324"><ele>611.6666666666666</ele><time>2026-04-29T11:38:02.002Z</time></trkpt><trkpt lat="43.39591484177532" lon="12.492310187873551"><ele>608.0</ele><time>2026-04-29T11:38:03.002Z</time></trkpt><trkpt lat="43.395781583188715" lon="12.492348168862316"><ele>608.0</ele><time>2026-04-29T11:38:04.002Z</time></trkpt><trkpt lat="43.39564456149861" lon="12.492351941429744"><ele>608.0</ele><time>2026-04-29T11:38:05.002Z</time></trkpt><trkpt lat="43.395494902167044" lon="12.492312556000945"><ele>608.0</ele><time>2026-04-29T11:38:06.003Z</time></trkpt><trkpt lat="43.39533177281418" lon="12.492274762227666"><ele>604.0</ele><time>2026-04-29T11:38:07.003Z</time></trkpt><trkpt lat="43.39515561770036" lon="12.492264852691115"><ele>600.0</ele><time>2026-04-29T11:38:08.003Z</time></trkpt><trkpt lat="43.3949727778369" lon="12.492263048897117"><ele>596.0</ele><time>2026-04-29T11:38:09.003Z</time></trkpt><trkpt lat="43.39480126966578" lon="12.492258018102245"><ele>590.75</ele><time>2026-04-29T11:38:10.003Z</time></trkpt><trkpt lat="43.39464154601879" lon="12.492246648458668"><ele>585.5</ele><time>2026-04-29T11:38:11.003Z</time></trkpt><trkpt lat="43.394493865944426" lon="12.49223182262224"><ele>580.25</ele><time>2026-04-29T11:38:12.003Z</time></trkpt><trkpt lat="43.39435913491178" lon="12.492214991102598"><ele>575.0</ele><time>2026-04-29T11:38:13.003Z</time></trkpt><trkpt lat="43.394228067534655" lon="12.4922055964473"><ele>575.0</ele><time>2026-04-29T11:38:14Z</time></trkpt><trkpt lat="43.39410099385552" lon="12.492233263852345"><ele>575.0</ele><time>2026-04-29T11:38:15Z</time></trkpt><trkpt lat="43.39397600638226" lon="12.492333756628309"><ele>575.0</ele><time>2026-04-29T11:38:16Z</time></trkpt><trkpt lat="43.393850821838434" lon="12.492493126830675"><ele>575.0</ele><time>2026-04-29T11:38:17Z</time></trkpt><trkpt lat="43.393720004272254" lon="12.492662939493401"><ele>572.6666666666666</ele><time>2026-04-29T11:38:18Z</time></trkpt><trkpt lat="43.39358266919365" lon="12.492839350072186"><ele>570.3333333333334</ele><time>2026-04-29T11:38:19Z</time></trkpt><trkpt lat="43.39341868221889" lon="12.49299070802295"><ele>568.0</ele><time>2026-04-29T11:38:20Z</time></trkpt><trkpt lat="43.393259794226346" lon="12.493158472486693"><ele>568.0</ele><time>2026-04-29T11:38:21Z</time></trkpt><trkpt lat="43.393101008519146" lon="12.493346659786129"><ele>568.0</ele><time>2026-04-29T11:38:22Z</time></trkpt><trkpt lat="43.39293310834961" lon="12.493513444259445"><ele>568.0</ele><time>2026-04-29T11:38:23Z</time></trkpt><trkpt lat="43.39276205894438" lon="12.493683998374724"><ele>566.0</ele><time>2026-04-29T11:38:24Z</time></trkpt><trkpt lat="43.39258365123085" lon="12.493851446485166"><ele>564.0</ele><time>2026-04-29T11:38:25Z</time></trkpt><trkpt lat="43.39241034034298" lon="12.494017085314756"><ele>562.0</ele><time>2026-04-29T11:38:26Z</time></trkpt><trkpt lat="43.39222503609087" lon="12.494154934689071"><ele>552.0</ele><time>2026-04-29T11:38:27Z</time></trkpt><trkpt lat="43.39206035044962" lon="12.4942857707286"><ele>542.0</ele><time>2026-04-29T11:38:28Z</time></trkpt><trkpt lat="43.391918048373036" lon="12.494383258860582"><ele>532.0</ele><time>2026-04-29T11:38:29Z</time></trkpt><trkpt lat="43.391826691883495" lon="12.494449075406395"><ele>532.0</ele><time>2026-04-29T11:38:30Z</time></trkpt><trkpt lat="43.39175783017635" lon="12.494506989649187"><ele>532.0</ele><time>2026-04-29T11:38:32Z</time></trkpt><trkpt lat="43.39181212767199" lon="12.49442703175537"><ele>532.0</ele><time>2026-04-29T11:38:38Z</time></trkpt><trkpt lat="43.39188945123756" lon="12.49436928638315"><ele>532.0</ele><time>2026-04-29T11:38:41.001Z</time></trkpt><trkpt lat="43.391976358679806" lon="12.494309745529879"><ele>532.0</ele><time>2026-04-29T11:38:43.001Z</time></trkpt><trkpt lat="43.39203792173875" lon="12.494267568356724"><ele>532.0</ele><time>2026-04-29T11:38:44.001Z</time></trkpt><trkpt lat="43.39210983090336" lon="12.494218302997115"><ele>539.5</ele><time>2026-04-29T11:38:45.001Z</time></trkpt><trkpt lat="43.39220032656621" lon="12.49403161407519"><ele>547.0</ele><time>2026-04-29T11:38:46.001Z</time></trkpt><trkpt lat="43.39229017898975" lon="12.493957446142481"><ele>554.5</ele><time>2026-04-29T11:38:47.001Z</time></trkpt><trkpt lat="43.39237116348607" lon="12.493878749379789"><ele>562.0</ele><time>2026-04-29T11:38:48.001Z</time></trkpt><trkpt lat="43.392458412226965" lon="12.493788928089144"><ele>554.25</ele><time>2026-04-29T11:38:49.001Z</time></trkpt><trkpt lat="43.39255479183075" lon="12.493681871146636"><ele>546.5</ele><time>2026-04-29T11:38:50.001Z</time></trkpt><trkpt lat="43.39265388741068" lon="12.493577241056963"><ele>538.75</ele><time>2026-04-29T11:38:51.001Z</time></trkpt><trkpt lat="43.39275606596982" lon="12.493465295754529"><ele>531.0</ele><time>2026-04-29T11:38:52.001Z</time></trkpt><trkpt lat="43.39286410929309" lon="12.493346008184469"><ele>531.0</ele><time>2026-04-29T11:38:53.001Z</time></trkpt><trkpt lat="43.392966765617075" lon="12.493240853075477"><ele>531.0</ele><time>2026-04-29T11:38:54.001Z</time></trkpt><trkpt lat="43.39305639026604" lon="12.493130700842924"><ele>531.0</ele><time>2026-04-29T11:38:55.001Z</time></trkpt><trkpt lat="43.39314663023707" lon="12.493006500471534"><ele>531.0</ele><time>2026-04-29T11:38:56.001Z</time></trkpt><trkpt lat="43.39324164880338" lon="12.492871466278903"><ele>531.5</ele><time>2026-04-29T11:38:57.001Z</time></trkpt><trkpt lat="43.393332049810915" lon="12.492732516180922"><ele>532.0</ele><time>2026-04-29T11:38:58.001Z</time></trkpt><trkpt lat="43.3934202736559" lon="12.492586217913887"><ele>532.5</ele><time>2026-04-29T11:38:59.001Z</time></trkpt><trkpt lat="43.39350646515297" lon="12.492436045278994"><ele>533.0</ele><time>2026-04-29T11:39:00.001Z</time></trkpt><trkpt lat="43.3935926174821" lon="12.492276052088199"><ele>533.0</ele><time>2026-04-29T11:39:01.001Z</time></trkpt><trkpt lat="43.39366751225884" lon="12.49212189879971"><ele>533.0</ele><time>2026-04-29T11:39:02.001Z</time></trkpt><trkpt lat="43.39373434895706" lon="12.491983628901224"><ele>533.0</ele><time>2026-04-29T11:39:03.001Z</time></trkpt><trkpt lat="43.39380882021905" lon="12.491867288048814"><ele>533.0</ele><time>2026-04-29T11:39:04.001Z</time></trkpt><trkpt lat="43.39390036285372" lon="12.49177920109409"><ele>534.25</ele><time>2026-04-29T11:39:05.001Z</time></trkpt><trkpt lat="43.39401511433543" lon="12.4917131002809"><ele>535.5</ele><time>2026-04-29T11:39:06.001Z</time></trkpt><trkpt lat="43.39413367331317" lon="12.491660681648442"><ele>536.75</ele><time>2026-04-29T11:39:07.001Z</time></trkpt><trkpt lat="43.39423799280311" lon="12.491625213876711"><ele>538.0</ele><time>2026-04-29T11:39:08.001Z</time></trkpt><trkpt lat="43.394334630985036" lon="12.4916357241823"><ele>538.0</ele><time>2026-04-29T11:39:09.001Z</time></trkpt><trkpt lat="43.39443184989858" lon="12.491664560885406"><ele>538.0</ele><time>2026-04-29T11:39:10.001Z</time></trkpt><trkpt lat="43.39451110241468" lon="12.491658466325891"><ele>538.0</ele><time>2026-04-29T11:39:11.001Z</time></trkpt><trkpt lat="43.39455808000366" lon="12.491528406366292"><ele>538.0</ele><time>2026-04-29T11:39:13.001Z</time></trkpt><trkpt lat="43.39453777899457" lon="12.491441252257797"><ele>538.0</ele><time>2026-04-29T11:39:14.001Z</time></trkpt><trkpt lat="43.39450746316993" lon="12.491346112383198"><ele>538.0</ele><time>2026-04-29T11:39:15.001Z</time></trkpt><trkpt lat="43.394470292613725" lon="12.491239073487826"><ele>536.1999999999999</ele><time>2026-04-29T11:39:16.001Z</time></trkpt><trkpt lat="43.39443876854054" lon="12.491146639357575"><ele>534.4</ele><time>2026-04-29T11:39:17.001Z</time></trkpt><trkpt lat="43.394376390759184" lon="12.491002589998507"><ele>532.5999999999999</ele><time>2026-04-29T11:39:19.001Z</time></trkpt><trkpt lat="43.39431771142207" lon="12.490842036950719"><ele>530.8</ele><time>2026-04-29T11:39:21.001Z</time></trkpt><trkpt lat="43.39429229008614" lon="12.49075829482308"><ele>529.0</ele><time>2026-04-29T11:39:22.001Z</time></trkpt><trkpt lat="43.39428096634453" lon="12.490666837300319"><ele>529.0</ele><time>2026-04-29T11:39:23.001Z</time></trkpt><trkpt lat="43.39427138587891" lon="12.490577993228726"><ele>529.0</ele><time>2026-04-29T11:39:24.001Z</time></trkpt><trkpt lat="43.39427421824213" lon="12.490405326604252"><ele>529.0</ele><time>2026-04-29T11:39:26.001Z</time></trkpt><trkpt lat="43.394289431008865" lon="12.490318631916338"><ele>529.0</ele><time>2026-04-29T11:39:27.001Z</time></trkpt><trkpt lat="43.39431550850714" lon="12.49022935688231"><ele>529.0</ele><time>2026-04-29T11:39:28.002Z</time></trkpt><trkpt lat="43.39435575025414" lon="12.490133186794177"><ele>529.0</ele><time>2026-04-29T11:39:29.002Z</time></trkpt><trkpt lat="43.39440688492817" lon="12.490027404387893"><ele>529.4</ele><time>2026-04-29T11:39:30.002Z</time></trkpt><trkpt lat="43.39447679247441" lon="12.489914094269196"><ele>529.8</ele><time>2026-04-29T11:39:31.002Z</time></trkpt><trkpt lat="43.3945492747788" lon="12.489789276360415"><ele>530.2</ele><time>2026-04-29T11:39:32.002Z</time></trkpt><trkpt lat="43.39461339790799" lon="12.489670108312323"><ele>530.6</ele><time>2026-04-29T11:39:33.002Z</time></trkpt><trkpt lat="43.394676779146366" lon="12.4895626605391"><ele>531.0</ele><time>2026-04-29T11:39:34.002Z</time></trkpt><trkpt lat="43.39473466967222" lon="12.489448593466213"><ele>537.4</ele><time>2026-04-29T11:39:35.002Z</time></trkpt><trkpt lat="43.394789616507985" lon="12.489332175537808"><ele>543.8</ele><time>2026-04-29T11:39:36.002Z</time></trkpt><trkpt lat="43.39484342405278" lon="12.489203430467962"><ele>550.1999999999999</ele><time>2026-04-29T11:39:37.002Z</time></trkpt><trkpt lat="43.39488731434109" lon="12.489065461607359"><ele>556.6</ele><time>2026-04-29T11:39:38.002Z</time></trkpt><trkpt lat="43.394933098720195" lon="12.48892137756558"><ele>563.0</ele><time>2026-04-29T11:39:39.002Z</time></trkpt><trkpt lat="43.39498295880032" lon="12.488765839803657"><ele>561.5</ele><time>2026-04-29T11:39:40.002Z</time></trkpt><trkpt lat="43.39503291076915" lon="12.488606707050389"><ele>560.0</ele><time>2026-04-29T11:39:41.002Z</time></trkpt><trkpt lat="43.39507370899358" lon="12.488441361735827"><ele>558.5</ele><time>2026-04-29T11:39:42.002Z</time></trkpt><trkpt lat="43.39510931346492" lon="12.488269641462528"><ele>557.0</ele><time>2026-04-29T11:39:43.002Z</time></trkpt><trkpt lat="43.395148280853824" lon="12.488095533642053"><ele>557.25</ele><time>2026-04-29T11:39:44.002Z</time></trkpt><trkpt lat="43.39518532586749" lon="12.48791845159851"><ele>557.5</ele><time>2026-04-29T11:39:45.002Z</time></trkpt><trkpt lat="43.395224348154294" lon="12.487748905554295"><ele>557.75</ele><time>2026-04-29T11:39:46.002Z</time></trkpt><trkpt lat="43.39526699850027" lon="12.487582190526552"><ele>558.0</ele><time>2026-04-29T11:39:47.002Z</time></trkpt><trkpt lat="43.39532108307513" lon="12.487427073628497"><ele>558.0</ele><time>2026-04-29T11:39:48.002Z</time></trkpt><trkpt lat="43.39539176513969" lon="12.487285110684326"><ele>558.0</ele><time>2026-04-29T11:39:49.002Z</time></trkpt><trkpt lat="43.3954703955804" lon="12.487147540273613"><ele>558.0</ele><time>2026-04-29T11:39:50.002Z</time></trkpt><trkpt lat="43.39555069990048" lon="12.487009254826082"><ele>558.0</ele><time>2026-04-29T11:39:51.002Z</time></trkpt><trkpt lat="43.39563451949325" lon="12.486867545841662"><ele>560.5</ele><time>2026-04-29T11:39:52.002Z</time></trkpt><trkpt lat="43.395722238830956" lon="12.486717524746567"><ele>563.0</ele><time>2026-04-29T11:39:53.002Z</time></trkpt><trkpt lat="43.39580953546689" lon="12.48655914028452"><ele>565.5</ele><time>2026-04-29T11:39:54.002Z</time></trkpt><trkpt lat="43.39589756133056" lon="12.48639228710121"><ele>568.0</ele><time>2026-04-29T11:39:55.002Z</time></trkpt><trkpt lat="43.395991474490856" lon="12.486220083243287"><ele>568.0</ele><time>2026-04-29T11:39:56.002Z</time></trkpt><trkpt lat="43.39608815673965" lon="12.486050790840228"><ele>568.0</ele><time>2026-04-29T11:39:57.002Z</time></trkpt><trkpt lat="43.396186306514196" lon="12.485891163883938"><ele>568.0</ele><time>2026-04-29T11:39:58.002Z</time></trkpt><trkpt lat="43.3962797892608" lon="12.485741384243042"><ele>569.0</ele><time>2026-04-29T11:39:59.002Z</time></trkpt><trkpt lat="43.39636962277203" lon="12.48561571248532"><ele>570.0</ele><time>2026-04-29T11:40:00.002Z</time></trkpt><trkpt lat="43.396464248702635" lon="12.485506211352734"><ele>571.0</ele><time>2026-04-29T11:40:01.002Z</time></trkpt><trkpt lat="43.396573696220784" lon="12.48541697883936"><ele>572.0</ele><time>2026-04-29T11:40:02.002Z</time></trkpt><trkpt lat="43.39670364831156" lon="12.485338432569016"><ele>572.0</ele><time>2026-04-29T11:40:03.002Z</time></trkpt><trkpt lat="43.39684126884666" lon="12.48525971812384"><ele>572.0</ele><time>2026-04-29T11:40:04.002Z</time></trkpt><trkpt lat="43.39697508455012" lon="12.48520493631516"><ele>572.0</ele><time>2026-04-29T11:40:05.002Z</time></trkpt><trkpt lat="43.397089674369575" lon="12.485181345789924"><ele>572.0</ele><time>2026-04-29T11:40:06.002Z</time></trkpt><trkpt lat="43.397186687912026" lon="12.485153438498523"><ele>578.0</ele><time>2026-04-29T11:40:07.002Z</time></trkpt><trkpt lat="43.397265692947244" lon="12.485083879464748"><ele>584.0</ele><time>2026-04-29T11:40:08.002Z</time></trkpt><trkpt lat="43.397324016255666" lon="12.484964538341945"><ele>590.0</ele><time>2026-04-29T11:40:09.002Z</time></trkpt><trkpt lat="43.39737913167236" lon="12.484816790871992"><ele>596.0</ele><time>2026-04-29T11:40:10.002Z</time></trkpt><trkpt lat="43.39744999795281" lon="12.484657771993875"><ele>591.3333333333333</ele><time>2026-04-29T11:40:11.002Z</time></trkpt><trkpt lat="43.397557589499016" lon="12.48451468217036"><ele>586.6666666666666</ele><time>2026-04-29T11:40:12.002Z</time></trkpt><trkpt lat="43.397690012816575" lon="12.484392137394428"><ele>582.0</ele><time>2026-04-29T11:40:13.003Z</time></trkpt><trkpt lat="43.39783571584954" lon="12.484298776689114"><ele>582.0</ele><time>2026-04-29T11:40:14.003Z</time></trkpt><trkpt lat="43.39798425709964" lon="12.484204527318816"><ele>582.0</ele><time>2026-04-29T11:40:15.003Z</time></trkpt><trkpt lat="43.39813197985531" lon="12.484109332939646"><ele>582.0</ele><time>2026-04-29T11:40:16.003Z</time></trkpt><trkpt lat="43.39828341530362" lon="12.484012477465871"><ele>583.3333333333334</ele><time>2026-04-29T11:40:17.003Z</time></trkpt><trkpt lat="43.398437829365484" lon="12.483920607210383"><ele>584.6666666666667</ele><time>2026-04-29T11:40:18.003Z</time></trkpt><trkpt lat="43.39860133945231" lon="12.483840686542587"><ele>586.0</ele><time>2026-04-29T11:40:19.003Z</time></trkpt><trkpt lat="43.39876407488311" lon="12.483761783724223"><ele>589.6666666666667</ele><time>2026-04-29T11:40:20Z</time></trkpt><trkpt lat="43.39892962010237" lon="12.483676200281467"><ele>593.3333333333334</ele><time>2026-04-29T11:40:21Z</time></trkpt><trkpt lat="43.399095632405746" lon="12.483591501638086"><ele>597.0</ele><time>2026-04-29T11:40:22Z</time></trkpt><trkpt lat="43.39924962333753" lon="12.483507416698934"><ele>597.0</ele><time>2026-04-29T11:40:23Z</time></trkpt><trkpt lat="43.39939037371203" lon="12.483418731457027"><ele>597.0</ele><time>2026-04-29T11:40:24Z</time></trkpt><trkpt lat="43.399528341009635" lon="12.483318904143056"><ele>597.0</ele><time>2026-04-29T11:40:25Z</time></trkpt><trkpt lat="43.39966966547381" lon="12.483207330993407"><ele>599.6666666666666</ele><time>2026-04-29T11:40:26Z</time></trkpt><trkpt lat="43.399815112082116" lon="12.483104506659776"><ele>602.3333333333333</ele><time>2026-04-29T11:40:27Z</time></trkpt><trkpt lat="43.399971990856486" lon="12.48301734018235"><ele>605.0</ele><time>2026-04-29T11:40:28Z</time></trkpt><trkpt lat="43.40012074215267" lon="12.482950269781234"><ele>603.6</ele><time>2026-04-29T11:40:29Z</time></trkpt><trkpt lat="43.40024224350412" lon="12.482903051306254"><ele>602.2</ele><time>2026-04-29T11:40:30Z</time></trkpt><trkpt lat="43.40032972608917" lon="12.482876282570523"><ele>600.8</ele><time>2026-04-29T11:40:31Z</time></trkpt><trkpt lat="43.400416590847335" lon="12.482877609757896"><ele>599.4</ele><time>2026-04-29T11:40:32Z</time></trkpt><trkpt lat="43.40050893614263" lon="12.482913106691273"><ele>598.0</ele><time>2026-04-29T11:40:33Z</time></trkpt><trkpt lat="43.40059338983268" lon="12.48298070645649"><ele>598.0</ele><time>2026-04-29T11:40:34Z</time></trkpt><trkpt lat="43.40068051564854" lon="12.48305826409179"><ele>598.0</ele><time>2026-04-29T11:40:35Z</time></trkpt><trkpt lat="43.40079406754407" lon="12.48313092655141"><ele>598.0</ele><time>2026-04-29T11:40:36Z</time></trkpt><trkpt lat="43.40090649255692" lon="12.483196973821904"><ele>598.0</ele><time>2026-04-29T11:40:37Z</time></trkpt><trkpt lat="43.401019058132704" lon="12.483242355017005"><ele>598.0</ele><time>2026-04-29T11:40:38Z</time></trkpt><trkpt lat="43.401127522761946" lon="12.48325551242859"><ele>598.0</ele><time>2026-04-29T11:40:39Z</time></trkpt><trkpt lat="43.401235230589336" lon="12.483247358570202"><ele>598.0</ele><time>2026-04-29T11:40:40Z</time></trkpt><trkpt lat="43.401351319813415" lon="12.483215214127016"><ele>598.0</ele><time>2026-04-29T11:40:41.001Z</time></trkpt><trkpt lat="43.401465302357" lon="12.483204282182141"><ele>598.0</ele><time>2026-04-29T11:40:42.001Z</time></trkpt><trkpt lat="43.40156423796037" lon="12.48322727041087"><ele>598.0</ele><time>2026-04-29T11:40:43.001Z</time></trkpt><trkpt lat="43.40164432781425" lon="12.483289975072138"><ele>598.0</ele><time>2026-04-29T11:40:44.001Z</time></trkpt><trkpt lat="43.40171466203598" lon="12.483386659850115"><ele>598.0</ele><time>2026-04-29T11:40:45.001Z</time></trkpt><trkpt lat="43.40177817408933" lon="12.483512385900742"><ele>598.0</ele><time>2026-04-29T11:40:46.001Z</time></trkpt><trkpt lat="43.40185036559733" lon="12.483627029565076"><ele>598.0</ele><time>2026-04-29T11:40:47.001Z</time></trkpt><trkpt lat="43.401950380973965" lon="12.483699508844111"><ele>598.0</ele><time>2026-04-29T11:40:48.001Z</time></trkpt><trkpt lat="43.40206905251409" lon="12.483739011446927"><ele>598.0</ele><time>2026-04-29T11:40:49.001Z</time></trkpt><trkpt lat="43.402202789552604" lon="12.483760423351164"><ele>598.0</ele><time>2026-04-29T11:40:50.001Z</time></trkpt><trkpt lat="43.40233284625372" lon="12.483765093851352"><ele>598.0</ele><time>2026-04-29T11:40:51.001Z</time></trkpt><trkpt lat="43.40244532738836" lon="12.483764896782539"><ele>599.1999999999999</ele><time>2026-04-29T11:40:52.001Z</time></trkpt><trkpt lat="43.402549849407066" lon="12.483774751497176"><ele>600.4</ele><time>2026-04-29T11:40:53.001Z</time></trkpt><trkpt lat="43.40264482716887" lon="12.48379091031094"><ele>601.5999999999999</ele><time>2026-04-29T11:40:54.001Z</time></trkpt><trkpt lat="43.40274015516113" lon="12.48380975322014"><ele>602.8</ele><time>2026-04-29T11:40:55.001Z</time></trkpt><trkpt lat="43.40284429270702" lon="12.483839986396763"><ele>604.0</ele><time>2026-04-29T11:40:56.001Z</time></trkpt><trkpt lat="43.40295859804303" lon="12.483881972785014"><ele>602.0</ele><time>2026-04-29T11:40:57.001Z</time></trkpt><trkpt lat="43.40307483429678" lon="12.483929414713353"><ele>600.0</ele><time>2026-04-29T11:40:58.001Z</time></trkpt><trkpt lat="43.40320082667877" lon="12.483981026637887"><ele>598.0</ele><time>2026-04-29T11:40:59.001Z</time></trkpt><trkpt lat="43.40333338315293" lon="12.48403964597515"><ele>596.0</ele><time>2026-04-29T11:41:00.001Z</time></trkpt><trkpt lat="43.40346789865451" lon="12.484108088497747"><ele>596.0</ele><time>2026-04-29T11:41:01.001Z</time></trkpt><trkpt lat="43.40360100962562" lon="12.484186799353225"><ele>596.0</ele><time>2026-04-29T11:41:02.001Z</time></trkpt><trkpt lat="43.40372904548552" lon="12.484267749784943"><ele>596.0</ele><time>2026-04-29T11:41:03.001Z</time></trkpt><trkpt lat="43.40385007839936" lon="12.484358857989585"><ele>596.0</ele><time>2026-04-29T11:41:04.001Z</time></trkpt><trkpt lat="43.40396283650956" lon="12.484460330180307"><ele>595.75</ele><time>2026-04-29T11:41:05.001Z</time></trkpt><trkpt lat="43.404075765784334" lon="12.484569630775114"><ele>595.5</ele><time>2026-04-29T11:41:06.001Z</time></trkpt><trkpt lat="43.404192869474706" lon="12.48467778102721"><ele>595.25</ele><time>2026-04-29T11:41:07.001Z</time></trkpt><trkpt lat="43.404309354010294" lon="12.484782468675984"><ele>595.0</ele><time>2026-04-29T11:41:08.001Z</time></trkpt><trkpt lat="43.40442150310278" lon="12.484891808201457"><ele>595.0</ele><time>2026-04-29T11:41:09.001Z</time></trkpt><trkpt lat="43.40453103769262" lon="12.48500416440586"><ele>595.0</ele><time>2026-04-29T11:41:10.001Z</time></trkpt><trkpt lat="43.40465027287034" lon="12.485096099456774"><ele>595.0</ele><time>2026-04-29T11:41:11.001Z</time></trkpt><trkpt lat="43.40476591950596" lon="12.485192383728764"><ele>595.0</ele><time>2026-04-29T11:41:12.001Z</time></trkpt><trkpt lat="43.40487642020843" lon="12.485275241703103"><ele>594.5</ele><time>2026-04-29T11:41:13.001Z</time></trkpt><trkpt lat="43.40498487356728" lon="12.485342245408129"><ele>594.0</ele><time>2026-04-29T11:41:14.001Z</time></trkpt><trkpt lat="43.405106761708765" lon="12.485392920775526"><ele>593.5</ele><time>2026-04-29T11:41:15.001Z</time></trkpt><trkpt lat="43.40523522627799" lon="12.485419219881559"><ele>593.0</ele><time>2026-04-29T11:41:16.001Z</time></trkpt><trkpt lat="43.40537104713934" lon="12.485424147878657"><ele>592.5</ele><time>2026-04-29T11:41:17.001Z</time></trkpt><trkpt lat="43.40551583230044" lon="12.485418451035427"><ele>592.0</ele><time>2026-04-29T11:41:18.001Z</time></trkpt><trkpt lat="43.40566087336026" lon="12.485404143149854"><ele>591.5</ele><time>2026-04-29T11:41:19.001Z</time></trkpt><trkpt lat="43.405801980146336" lon="12.485377495435795"><ele>591.0</ele><time>2026-04-29T11:41:20.001Z</time></trkpt><trkpt lat="43.40592879393627" lon="12.485345091657829"><ele>591.0</ele><time>2026-04-29T11:41:21.001Z</time></trkpt><trkpt lat="43.406050038623704" lon="12.485302811743756"><ele>591.0</ele><time>2026-04-29T11:41:22.001Z</time></trkpt><trkpt lat="43.406171667483555" lon="12.485263775110155"><ele>591.0</ele><time>2026-04-29T11:41:23.001Z</time></trkpt><trkpt lat="43.406287156418074" lon="12.48521261667789"><ele>591.0</ele><time>2026-04-29T11:41:24.001Z</time></trkpt><trkpt lat="43.406395982898054" lon="12.485143635222494"><ele>591.0</ele><time>2026-04-29T11:41:25.001Z</time></trkpt><trkpt lat="43.4065040323591" lon="12.485069087106917"><ele>591.0</ele><time>2026-04-29T11:41:26.001Z</time></trkpt><trkpt lat="43.40660623023239" lon="12.484978210014505"><ele>591.0</ele><time>2026-04-29T11:41:27.001Z</time></trkpt><trkpt lat="43.406702993655884" lon="12.484876470316266"><ele>591.0</ele><time>2026-04-29T11:41:28.001Z</time></trkpt><trkpt lat="43.40679692646199" lon="12.484781054891862"><ele>591.0</ele><time>2026-04-29T11:41:29.001Z</time></trkpt><trkpt lat="43.40689798662758" lon="12.484713981582539"><ele>591.0</ele><time>2026-04-29T11:41:30.001Z</time></trkpt><trkpt lat="43.40700818337121" lon="12.484686373212032"><ele>591.0</ele><time>2026-04-29T11:41:31.001Z</time></trkpt><trkpt lat="43.40713567079423" lon="12.484680116518673"><ele>591.0</ele><time>2026-04-29T11:41:32.002Z</time></trkpt><trkpt lat="43.4072678472207" lon="12.484672131283968"><ele>590.4</ele><time>2026-04-29T11:41:33.002Z</time></trkpt><trkpt lat="43.40739197516585" lon="12.484662927097164"><ele>589.8</ele><time>2026-04-29T11:41:34.002Z</time></trkpt><trkpt lat="43.40749729232521" lon="12.484655973413426"><ele>589.1999999999999</ele><time>2026-04-29T11:41:35.002Z</time></trkpt><trkpt lat="43.407596370110944" lon="12.484651955508655"><ele>588.6</ele><time>2026-04-29T11:41:36.002Z</time></trkpt><trkpt lat="43.40769581797974" lon="12.484655862861478"><ele>588.0</ele><time>2026-04-29T11:41:37.002Z</time></trkpt><trkpt lat="43.40778036366565" lon="12.484660924072077"><ele>588.0</ele><time>2026-04-29T11:41:38.002Z</time></trkpt><trkpt lat="43.40786507085338" lon="12.484646856959628"><ele>588.0</ele><time>2026-04-29T11:41:39.002Z</time></trkpt><trkpt lat="43.40797121245573" lon="12.484603598569096"><ele>588.0</ele><time>2026-04-29T11:41:40.002Z</time></trkpt><trkpt lat="43.40809871543374" lon="12.484538585837809"><ele>588.0</ele><time>2026-04-29T11:41:41.002Z</time></trkpt><trkpt lat="43.40822264918907" lon="12.484466194374717"><ele>583.5</ele><time>2026-04-29T11:41:42.002Z</time></trkpt><trkpt lat="43.4083444936243" lon="12.484389700163952"><ele>579.0</ele><time>2026-04-29T11:41:43.002Z</time></trkpt><trkpt lat="43.408465700105076" lon="12.484305747585376"><ele>574.5</ele><time>2026-04-29T11:41:44.002Z</time></trkpt><trkpt lat="43.4085888779716" lon="12.484222042232727"><ele>570.0</ele><time>2026-04-29T11:41:45.002Z</time></trkpt><trkpt lat="43.40871093728576" lon="12.48413461216671"><ele>568.0</ele><time>2026-04-29T11:41:46.002Z</time></trkpt><trkpt lat="43.40882864021459" lon="12.484043131112653"><ele>566.0</ele><time>2026-04-29T11:41:47.002Z</time></trkpt><trkpt lat="43.40894438967877" lon="12.483941584409088"><ele>564.0</ele><time>2026-04-29T11:41:48.002Z</time></trkpt><trkpt lat="43.40905098409419" lon="12.483849331029969"><ele>562.0</ele><time>2026-04-29T11:41:49.002Z</time></trkpt><trkpt lat="43.40914459389701" lon="12.483769135418445"><ele>561.0</ele><time>2026-04-29T11:41:50.002Z</time></trkpt><trkpt lat="43.40922934497714" lon="12.483694743114809"><ele>560.0</ele><time>2026-04-29T11:41:51.002Z</time></trkpt><trkpt lat="43.40930049003412" lon="12.48363016858567"><ele>559.0</ele><time>2026-04-29T11:41:52.002Z</time></trkpt><trkpt lat="43.409352474022114" lon="12.483567956425187"><ele>558.0</ele><time>2026-04-29T11:41:53.002Z</time></trkpt><trkpt lat="43.40940161838612" lon="12.483499286954256"><ele>557.0</ele><time>2026-04-29T11:41:54.002Z</time></trkpt><trkpt lat="43.40944256965303" lon="12.483409733084505"><ele>556.0</ele><time>2026-04-29T11:41:55.002Z</time></trkpt><trkpt lat="43.40947321684225" lon="12.483304462648498"><ele>556.0</ele><time>2026-04-29T11:41:56.002Z</time></trkpt><trkpt lat="43.40949228501722" lon="12.483168235252235"><ele>556.0</ele><time>2026-04-29T11:41:57.002Z</time></trkpt><trkpt lat="43.40950130015064" lon="12.483041650619075"><ele>556.0</ele><time>2026-04-29T11:41:58.002Z</time></trkpt><trkpt lat="43.40951427306854" lon="12.482893851589857"><ele>556.0</ele><time>2026-04-29T11:41:59.002Z</time></trkpt><trkpt lat="43.40952590673879" lon="12.482728942092855"><ele>556.0</ele><time>2026-04-29T11:42:00.002Z</time></trkpt><trkpt lat="43.40954419446694" lon="12.482561002227172"><ele>554.6</ele><time>2026-04-29T11:42:01.002Z</time></trkpt><trkpt lat="43.40956275177039" lon="12.482398774566049"><ele>553.2</ele><time>2026-04-29T11:42:02.002Z</time></trkpt><trkpt lat="43.40957961851194" lon="12.482234975831565"><ele>551.8</ele><time>2026-04-29T11:42:03.002Z</time></trkpt><trkpt lat="43.409594058193775" lon="12.482083334130667"><ele>550.4</ele><time>2026-04-29T11:42:04.002Z</time></trkpt><trkpt lat="43.40961124111281" lon="12.481959042701021"><ele>549.0</ele><time>2026-04-29T11:42:05.002Z</time></trkpt><trkpt lat="43.409632283674775" lon="12.481839826547745"><ele>546.8333333333334</ele><time>2026-04-29T11:42:06.002Z</time></trkpt><trkpt lat="43.40965965946875" lon="12.481726670258324"><ele>544.6666666666666</ele><time>2026-04-29T11:42:07.002Z</time></trkpt><trkpt lat="43.40969517029254" lon="12.481638693868948"><ele>542.5</ele><time>2026-04-29T11:42:08.002Z</time></trkpt><trkpt lat="43.40973987823924" lon="12.481575618530805"><ele>540.3333333333333</ele><time>2026-04-29T11:42:09.002Z</time></trkpt><trkpt lat="43.40980291125369" lon="12.481535617183196"><ele>538.1666666666666</ele><time>2026-04-29T11:42:10.002Z</time></trkpt><trkpt lat="43.40987933877859" lon="12.481513568646598"><ele>536.0</ele><time>2026-04-29T11:42:11.002Z</time></trkpt><trkpt lat="43.40996470024964" lon="12.481522067965127"><ele>536.0</ele><time>2026-04-29T11:42:12.002Z</time></trkpt><trkpt lat="43.41006467997141" lon="12.481555704058025"><ele>536.0</ele><time>2026-04-29T11:42:13.002Z</time></trkpt><trkpt lat="43.41016772676677" lon="12.481617801193554"><ele>536.0</ele><time>2026-04-29T11:42:14.002Z</time></trkpt><trkpt lat="43.41027503843243" lon="12.481690798207486"><ele>536.0</ele><time>2026-04-29T11:42:15.002Z</time></trkpt><trkpt lat="43.41038571046688" lon="12.481774097498167"><ele>536.0</ele><time>2026-04-29T11:42:16.002Z</time></trkpt><trkpt lat="43.41049099085246" lon="12.481867444388191"><ele>536.0</ele><time>2026-04-29T11:42:17.002Z</time></trkpt><trkpt lat="43.41059282621128" lon="12.481977626398164"><ele>536.0</ele><time>2026-04-29T11:42:18.002Z</time></trkpt><trkpt lat="43.41069045513848" lon="12.48210129066749"><ele>536.0</ele><time>2026-04-29T11:42:19.003Z</time></trkpt><trkpt lat="43.41078864197484" lon="12.482234680938802"><ele>534.0</ele><time>2026-04-29T11:42:20.003Z</time></trkpt><trkpt lat="43.41088474736772" lon="12.482380098340728"><ele>532.0</ele><time>2026-04-29T11:42:21.003Z</time></trkpt><trkpt lat="43.41098539174202" lon="12.482522939506904"><ele>530.0</ele><time>2026-04-29T11:42:22.003Z</time></trkpt><trkpt lat="43.41108892748004" lon="12.482672671923625"><ele>528.0</ele><time>2026-04-29T11:42:23.003Z</time></trkpt><trkpt lat="43.41118439378758" lon="12.482814436881869"><ele>528.5</ele><time>2026-04-29T11:42:24.003Z</time></trkpt><trkpt lat="43.411290970087656" lon="12.482954151373884"><ele>529.0</ele><time>2026-04-29T11:42:25.003Z</time></trkpt><trkpt lat="43.41138616889007" lon="12.483093205129292"><ele>529.5</ele><time>2026-04-29T11:42:26.001Z</time></trkpt><trkpt lat="43.411480666311284" lon="12.483234311348884"><ele>530.0</ele><time>2026-04-29T11:42:27.001Z</time></trkpt><trkpt lat="43.41157210936554" lon="12.483363072153113"><ele>530.25</ele><time>2026-04-29T11:42:28.001Z</time></trkpt><trkpt lat="43.411664636306966" lon="12.483500527993844"><ele>530.5</ele><time>2026-04-29T11:42:29.001Z</time></trkpt><trkpt lat="43.41175303204467" lon="12.483636398906548"><ele>530.75</ele><time>2026-04-29T11:42:30.001Z</time></trkpt><trkpt lat="43.411845770935386" lon="12.483762284101568"><ele>531.0</ele><time>2026-04-29T11:42:31.001Z</time></trkpt><trkpt lat="43.41193583872256" lon="12.483874075515475"><ele>531.0</ele><time>2026-04-29T11:42:32.001Z</time></trkpt><trkpt lat="43.41200871628767" lon="12.483970688587396"><ele>531.0</ele><time>2026-04-29T11:42:33.001Z</time></trkpt><trkpt lat="43.412074027410384" lon="12.484063614456122"><ele>531.0</ele><time>2026-04-29T11:42:34.001Z</time></trkpt><trkpt lat="43.41214725519032" lon="12.48418326147217"><ele>531.0</ele><time>2026-04-29T11:42:35.001Z</time></trkpt><trkpt lat="43.412221154327234" lon="12.484337748246459"><ele>531.0</ele><time>2026-04-29T11:42:36.001Z</time></trkpt><trkpt lat="43.41228797402183" lon="12.484505990200455"><ele>531.4</ele><time>2026-04-29T11:42:37.001Z</time></trkpt><trkpt lat="43.412341484084294" lon="12.484653892148257"><ele>531.8</ele><time>2026-04-29T11:42:38.001Z</time></trkpt><trkpt lat="43.41240159457164" lon="12.484770478000359"><ele>532.1999999999999</ele><time>2026-04-29T11:42:39.001Z</time></trkpt><trkpt lat="43.41247769415288" lon="12.484861382931859"><ele>532.6</ele><time>2026-04-29T11:42:40.001Z</time></trkpt><trkpt lat="43.4125693751716" lon="12.48492339644832"><ele>533.0</ele><time>2026-04-29T11:42:41.001Z</time></trkpt><trkpt lat="43.41267237842543" lon="12.484954879963528"><ele>533.0</ele><time>2026-04-29T11:42:42.001Z</time></trkpt><trkpt lat="43.412781722722706" lon="12.484974219299975"><ele>533.0</ele><time>2026-04-29T11:42:43.001Z</time></trkpt><trkpt lat="43.41289056501357" lon="12.484985328163043"><ele>533.0</ele><time>2026-04-29T11:42:44.001Z</time></trkpt><trkpt lat="43.41300794616359" lon="12.484981055336101"><ele>533.0</ele><time>2026-04-29T11:42:45.001Z</time></trkpt><trkpt lat="43.41313360983976" lon="12.484963087802813"><ele>531.3333333333333</ele><time>2026-04-29T11:42:46.001Z</time></trkpt><trkpt lat="43.413269256787636" lon="12.484921551641348"><ele>529.6666666666666</ele><time>2026-04-29T11:42:47.001Z</time></trkpt><trkpt lat="43.413416322250825" lon="12.48486194961991"><ele>528.0</ele><time>2026-04-29T11:42:48.001Z</time></trkpt><trkpt lat="43.413563220343676" lon="12.484778687264976"><ele>528.0</ele><time>2026-04-29T11:42:49.001Z</time></trkpt><trkpt lat="43.41370938912028" lon="12.484688396892372"><ele>528.0</ele><time>2026-04-29T11:42:50.001Z</time></trkpt><trkpt lat="43.413851214759845" lon="12.484592249331008"><ele>528.0</ele><time>2026-04-29T11:42:51.001Z</time></trkpt><trkpt lat="43.413991786605074" lon="12.484486602401152"><ele>523.75</ele><time>2026-04-29T11:42:52.001Z</time></trkpt><trkpt lat="43.414126945673644" lon="12.484387959553082"><ele>519.5</ele><time>2026-04-29T11:42:53.001Z</time></trkpt><trkpt lat="43.414259293080754" lon="12.484298915744018"><ele>515.25</ele><time>2026-04-29T11:42:54.001Z</time></trkpt><trkpt lat="43.41439118469705" lon="12.484254425943012"><ele>511.0</ele><time>2026-04-29T11:42:55.001Z</time></trkpt><trkpt lat="43.41453286106239" lon="12.484283268429959"><ele>508.6666666666667</ele><time>2026-04-29T11:42:56.001Z</time></trkpt><trkpt lat="43.414677797904076" lon="12.484328297164945"><ele>506.33333333333337</ele><time>2026-04-29T11:42:57.001Z</time></trkpt><trkpt lat="43.41483697892723" lon="12.484375558188265"><ele>504.0</ele><time>2026-04-29T11:42:58.001Z</time></trkpt><trkpt lat="43.41499095501424" lon="12.484447193977715"><ele>504.0</ele><time>2026-04-29T11:42:59.001Z</time></trkpt><trkpt lat="43.415163755149685" lon="12.484529905299691"><ele>504.0</ele><time>2026-04-29T11:43:00.001Z</time></trkpt><trkpt lat="43.415328084573275" lon="12.484553843560374"><ele>504.0</ele><time>2026-04-29T11:43:01.001Z</time></trkpt><trkpt lat="43.41549645178985" lon="12.484557209544151"><ele>503.0</ele><time>2026-04-29T11:43:02.001Z</time></trkpt><trkpt lat="43.415644365629944" lon="12.48460673116132"><ele>502.0</ele><time>2026-04-29T11:43:04.001Z</time></trkpt><trkpt lat="43.41570323577083" lon="12.484691094885497"><ele>501.0</ele><time>2026-04-29T11:43:05.001Z</time></trkpt><trkpt lat="43.41575359626692" lon="12.484811493338032"><ele>500.0</ele><time>2026-04-29T11:43:06.001Z</time></trkpt><trkpt lat="43.415798376797156" lon="12.484934198749952"><ele>499.0</ele><time>2026-04-29T11:43:07.001Z</time></trkpt><trkpt lat="43.41580688636985" lon="12.48504117827984"><ele>499.0</ele><time>2026-04-29T11:43:08.001Z</time></trkpt><trkpt lat="43.41577929054329" lon="12.48515017702334"><ele>499.0</ele><time>2026-04-29T11:43:09.001Z</time></trkpt><trkpt lat="43.41577124975497" lon="12.485306105283682"><ele>499.0</ele><time>2026-04-29T11:43:10.001Z</time></trkpt><trkpt lat="43.41583219329735" lon="12.485457536945614"><ele>499.0</ele><time>2026-04-29T11:43:11.001Z</time></trkpt><trkpt lat="43.41588861618887" lon="12.485587807775731"><ele>499.0</ele><time>2026-04-29T11:43:12.001Z</time></trkpt><trkpt lat="43.415981420171455" lon="12.48566958085386"><ele>500.25</ele><time>2026-04-29T11:43:13.001Z</time></trkpt><trkpt lat="43.416101349820984" lon="12.485713574459558"><ele>501.5</ele><time>2026-04-29T11:43:14.001Z</time></trkpt><trkpt lat="43.416227800819556" lon="12.485747478825662"><ele>502.75</ele><time>2026-04-29T11:43:15.001Z</time></trkpt><trkpt lat="43.41636122245189" lon="12.485791215400353"><ele>504.0</ele><time>2026-04-29T11:43:16.001Z</time></trkpt><trkpt lat="43.4164984067452" lon="12.4858325318867"><ele>504.0</ele><time>2026-04-29T11:43:17.001Z</time></trkpt><trkpt lat="43.41662966976044" lon="12.485877047719406"><ele>504.0</ele><time>2026-04-29T11:43:18.001Z</time></trkpt><trkpt lat="43.416756058493206" lon="12.485917045702504"><ele>504.0</ele><time>2026-04-29T11:43:19.001Z</time></trkpt><trkpt lat="43.41685907656332" lon="12.485957157159417"><ele>504.0</ele><time>2026-04-29T11:43:20.001Z</time></trkpt><trkpt lat="43.41694873162805" lon="12.486003051897168"><ele>504.0</ele><time>2026-04-29T11:43:21.001Z</time></trkpt><trkpt lat="43.41702924165103" lon="12.486066558998038"><ele>504.0</ele><time>2026-04-29T11:43:22.001Z</time></trkpt><trkpt lat="43.41707212429262" lon="12.486171638779775"><ele>504.0</ele><time>2026-04-29T11:43:23.001Z</time></trkpt><trkpt lat="43.41712539284268" lon="12.486272262368164"><ele>504.0</ele><time>2026-04-29T11:43:24.001Z</time></trkpt><trkpt lat="43.41716834798076" lon="12.486379413860616"><ele>504.0</ele><time>2026-04-29T11:43:25.001Z</time></trkpt><trkpt lat="43.417203622636734" lon="12.486487046515329"><ele>504.0</ele><time>2026-04-29T11:43:26.001Z</time></trkpt><trkpt lat="43.4172221722368" lon="12.486593342379123"><ele>508.2</ele><time>2026-04-29T11:43:27.001Z</time></trkpt><trkpt lat="43.417225820410785" lon="12.486713696318771"><ele>512.4</ele><time>2026-04-29T11:43:28.001Z</time></trkpt><trkpt lat="43.417236996145206" lon="12.486848630114359"><ele>516.6</ele><time>2026-04-29T11:43:29.001Z</time></trkpt><trkpt lat="43.417249026531096" lon="12.486984817828793"><ele>520.8</ele><time>2026-04-29T11:43:30.001Z</time></trkpt><trkpt lat="43.41726033274275" lon="12.48711280792163"><ele>525.0</ele><time>2026-04-29T11:43:31.001Z</time></trkpt><trkpt lat="43.41727086525883" lon="12.487232039483953"><ele>526.0</ele><time>2026-04-29T11:43:32.001Z</time></trkpt><trkpt lat="43.41727963522051" lon="12.487336297503504"><ele>527.0</ele><time>2026-04-29T11:43:33.002Z</time></trkpt><trkpt lat="43.41728704112694" lon="12.487437817843155"><ele>528.0</ele><time>2026-04-29T11:43:34.002Z</time></trkpt><trkpt lat="43.41729396724714" lon="12.487548654882383"><ele>529.0</ele><time>2026-04-29T11:43:35.002Z</time></trkpt><trkpt lat="43.41730028213958" lon="12.487671596704855"><ele>530.0</ele><time>2026-04-29T11:43:36.002Z</time></trkpt><trkpt lat="43.41730760708009" lon="12.487814202808808"><ele>531.0</ele><time>2026-04-29T11:43:37.002Z</time></trkpt><trkpt lat="43.41731777623413" lon="12.487967716699853"><ele>533.0</ele><time>2026-04-29T11:43:38.002Z</time></trkpt><trkpt lat="43.417331913037735" lon="12.488118322898258"><ele>535.0</ele><time>2026-04-29T11:43:39.002Z</time></trkpt><trkpt lat="43.41735174432154" lon="12.488269396559277"><ele>537.0</ele><time>2026-04-29T11:43:40.002Z</time></trkpt><trkpt lat="43.41738107664727" lon="12.488421280393622"><ele>539.0</ele><time>2026-04-29T11:43:41.002Z</time></trkpt><trkpt lat="43.41742271170812" lon="12.48857523496373"><ele>539.0</ele><time>2026-04-29T11:43:42.002Z</time></trkpt><trkpt lat="43.417499916368946" lon="12.488718170672126"><ele>539.0</ele><time>2026-04-29T11:43:43.002Z</time></trkpt><trkpt lat="43.41753074599074" lon="12.48889411024336"><ele>539.0</ele><time>2026-04-29T11:43:44.002Z</time></trkpt><trkpt lat="43.417562871139296" lon="12.489056946786507"><ele>539.0</ele><time>2026-04-29T11:43:45.002Z</time></trkpt><trkpt lat="43.41758140057267" lon="12.489204506729449"><ele>539.2</ele><time>2026-04-29T11:43:46.002Z</time></trkpt><trkpt lat="43.41758044986035" lon="12.48932725700664"><ele>539.4</ele><time>2026-04-29T11:43:47.002Z</time></trkpt><trkpt lat="43.41755863261757" lon="12.489437878425878"><ele>539.6</ele><time>2026-04-29T11:43:48.002Z</time></trkpt><trkpt lat="43.417524223226245" lon="12.489566325536607"><ele>539.8</ele><time>2026-04-29T11:43:49.002Z</time></trkpt><trkpt lat="43.41748056430388" lon="12.48969971158707"><ele>540.0</ele><time>2026-04-29T11:43:50.002Z</time></trkpt><trkpt lat="43.41743531948284" lon="12.489839165331906"><ele>540.2</ele><time>2026-04-29T11:43:51.002Z</time></trkpt><trkpt lat="43.41739504284714" lon="12.489973333529473"><ele>540.4</ele><time>2026-04-29T11:43:52.002Z</time></trkpt><trkpt lat="43.41737174735352" lon="12.490107764997491"><ele>540.6</ele><time>2026-04-29T11:43:53.002Z</time></trkpt><trkpt lat="43.417385880314804" lon="12.490237936858136"><ele>540.8</ele><time>2026-04-29T11:43:54.002Z</time></trkpt><trkpt lat="43.417386136023005" lon="12.490340529841658"><ele>541.0</ele><time>2026-04-29T11:43:55.002Z</time></trkpt><trkpt lat="43.417384928049195" lon="12.49049765788632"><ele>541.0</ele><time>2026-04-29T11:43:57.002Z</time></trkpt><trkpt lat="43.417432760884786" lon="12.490569673904101"><ele>541.0</ele><time>2026-04-29T11:43:58.002Z</time></trkpt><trkpt lat="43.417546062129205" lon="12.49057823920818"><ele>541.0</ele><time>2026-04-29T11:43:59.002Z</time></trkpt><trkpt lat="43.417627460868125" lon="12.490570351462322"><ele>541.0</ele><time>2026-04-29T11:44:00.002Z</time></trkpt><trkpt lat="43.41771430527308" lon="12.490629266305897"><ele>541.0</ele><time>2026-04-29T11:44:01.002Z</time></trkpt><trkpt lat="43.41779091116689" lon="12.49068583476955"><ele>541.0</ele><time>2026-04-29T11:44:02.002Z</time></trkpt><trkpt lat="43.41786437389928" lon="12.4907420852242"><ele>541.0</ele><time>2026-04-29T11:44:03.002Z</time></trkpt><trkpt lat="43.41794445516581" lon="12.490806498474308"><ele>541.0</ele><time>2026-04-29T11:44:04.002Z</time></trkpt><trkpt lat="43.41804459768564" lon="12.490871232301334"><ele>541.0</ele><time>2026-04-29T11:44:05.002Z</time></trkpt><trkpt lat="43.418156440240544" lon="12.490962061134855"><ele>541.0</ele><time>2026-04-29T11:44:06.002Z</time></trkpt><trkpt lat="43.41827330765867" lon="12.491054892210956"><ele>545.2</ele><time>2026-04-29T11:44:07.002Z</time></trkpt><trkpt lat="43.41836724391999" lon="12.491140735742965"><ele>549.4000000000001</ele><time>2026-04-29T11:44:08.002Z</time></trkpt><trkpt lat="43.41844588331592" lon="12.491228531414926"><ele>553.6</ele><time>2026-04-29T11:44:09.002Z</time></trkpt><trkpt lat="43.418518222124995" lon="12.491312458234233"><ele>557.8000000000001</ele><time>2026-04-29T11:44:10.002Z</time></trkpt><trkpt lat="43.41854617119373" lon="12.491408578016475"><ele>562.0</ele><time>2026-04-29T11:44:11.002Z</time></trkpt><trkpt lat="43.41855018960944" lon="12.491562990023873"><ele>562.1666666666667</ele><time>2026-04-29T11:44:13.002Z</time></trkpt><trkpt lat="43.41847957901997" lon="12.491583015458557"><ele>562.3333333333334</ele><time>2026-04-29T11:44:14.002Z</time></trkpt><trkpt lat="43.418406538628986" lon="12.491593905643693"><ele>562.5</ele><time>2026-04-29T11:44:15.002Z</time></trkpt><trkpt lat="43.418326798768575" lon="12.491660311555853"><ele>562.6666666666666</ele><time>2026-04-29T11:44:16.002Z</time></trkpt><trkpt lat="43.41824604497349" lon="12.491745187337514"><ele>562.8333333333333</ele><time>2026-04-29T11:44:17.002Z</time></trkpt><trkpt lat="43.41819849635671" lon="12.491830033202382"><ele>563.0</ele><time>2026-04-29T11:44:18.002Z</time></trkpt><trkpt lat="43.41817560876719" lon="12.491959257875935"><ele>563.8333333333333</ele><time>2026-04-29T11:44:19.002Z</time></trkpt><trkpt lat="43.4181948853885" lon="12.492097225944695"><ele>564.6666666666666</ele><time>2026-04-29T11:44:20.002Z</time></trkpt><trkpt lat="43.41818496843486" lon="12.492223308479984"><ele>565.5</ele><time>2026-04-29T11:44:21.002Z</time></trkpt><trkpt lat="43.418151429180284" lon="12.492317269446879"><ele>566.3333333333334</ele><time>2026-04-29T11:44:22.002Z</time></trkpt><trkpt lat="43.41806789873643" lon="12.492339139331484"><ele>567.1666666666667</ele><time>2026-04-29T11:44:23.003Z</time></trkpt><trkpt lat="43.41798889397616" lon="12.492355260813154"><ele>568.0</ele><time>2026-04-29T11:44:24.003Z</time></trkpt><trkpt lat="43.41789005287753" lon="12.492408829799036"><ele>568.0</ele><time>2026-04-29T11:44:25.003Z</time></trkpt><trkpt lat="43.417770989755034" lon="12.492454707590904"><ele>568.0</ele><time>2026-04-29T11:44:26.003Z</time></trkpt><trkpt lat="43.41765454887917" lon="12.492483564451437"><ele>568.0</ele><time>2026-04-29T11:44:27.003Z</time></trkpt><trkpt lat="43.4175723079874" lon="12.492501434241568"><ele>568.0</ele><time>2026-04-29T11:44:28.003Z</time></trkpt><trkpt lat="43.4174518218933" lon="12.492548405627284"><ele>568.0</ele><time>2026-04-29T11:44:30.003Z</time></trkpt><trkpt lat="43.41739208123119" lon="12.492634610212916"><ele>568.0</ele><time>2026-04-29T11:44:31.003Z</time></trkpt><trkpt lat="43.41736153620109" lon="12.492730254180776"><ele>568.0</ele><time>2026-04-29T11:44:32.001Z</time></trkpt><trkpt lat="43.41739616253293" lon="12.492873713292257"><ele>568.0</ele><time>2026-04-29T11:44:33.001Z</time></trkpt><trkpt lat="43.4174272989634" lon="12.49301569687246"><ele>568.0</ele><time>2026-04-29T11:44:34.001Z</time></trkpt><trkpt lat="43.41745054798024" lon="12.493178621009474"><ele>569.8</ele><time>2026-04-29T11:44:35.001Z</time></trkpt><trkpt lat="43.417519620427626" lon="12.493296956890445"><ele>571.5999999999999</ele><time>2026-04-29T11:44:36.001Z</time></trkpt><trkpt lat="43.4175777098542" lon="12.493387084463027"><ele>573.4000000000001</ele><time>2026-04-29T11:44:37.001Z</time></trkpt><trkpt lat="43.41765563855081" lon="12.493481071550054"><ele>575.2</ele><time>2026-04-29T11:44:38.001Z</time></trkpt><trkpt lat="43.417733688613296" lon="12.493598889321456"><ele>577.0</ele><time>2026-04-29T11:44:39.001Z</time></trkpt><trkpt lat="43.41778728248887" lon="12.493754726313608"><ele>577.5</ele><time>2026-04-29T11:44:40.001Z</time></trkpt><trkpt lat="43.41785533553732" lon="12.493906838510858"><ele>578.0</ele><time>2026-04-29T11:44:41.001Z</time></trkpt><trkpt lat="43.41792807410078" lon="12.494061804038273"><ele>578.5</ele><time>2026-04-29T11:44:42.001Z</time></trkpt><trkpt lat="43.418011899020556" lon="12.494198410866757"><ele>579.0</ele><time>2026-04-29T11:44:43.001Z</time></trkpt><trkpt lat="43.41806948925847" lon="12.494330467107776"><ele>584.25</ele><time>2026-04-29T11:44:44.001Z</time></trkpt><trkpt lat="43.41816609336285" lon="12.494415434268618"><ele>589.5</ele><time>2026-04-29T11:44:45.001Z</time></trkpt><trkpt lat="43.41825834585073" lon="12.494516357568434"><ele>594.75</ele><time>2026-04-29T11:44:46.001Z</time></trkpt><trkpt lat="43.41835921450628" lon="12.494617901307002"><ele>600.0</ele><time>2026-04-29T11:44:47.001Z</time></trkpt><trkpt lat="43.418461914946064" lon="12.49471063176865"><ele>600.0</ele><time>2026-04-29T11:44:48.001Z</time></trkpt><trkpt lat="43.418551272658796" lon="12.494784884356664"><ele>600.0</ele><time>2026-04-29T11:44:49.001Z</time></trkpt><trkpt lat="43.41861578663978" lon="12.494826315955267"><ele>600.0</ele><time>2026-04-29T11:44:50.001Z</time></trkpt><trkpt lat="43.41872985784466" lon="12.494869270014448"><ele>600.0</ele><time>2026-04-29T11:44:52.001Z</time></trkpt><trkpt lat="43.41879368313409" lon="12.494878286184292"><ele>600.0</ele><time>2026-04-29T11:44:53.001Z</time></trkpt><trkpt lat="43.418916870390085" lon="12.49485161501132"><ele>600.1666666666666</ele><time>2026-04-29T11:44:55.001Z</time></trkpt><trkpt lat="43.418976425636885" lon="12.49482008848689"><ele>600.3333333333334</ele><time>2026-04-29T11:44:56.001Z</time></trkpt><trkpt lat="43.41905891643429" lon="12.494739317668268"><ele>600.5</ele><time>2026-04-29T11:44:58.001Z</time></trkpt><trkpt lat="43.419124572764645" lon="12.494633746479453"><ele>600.6666666666667</ele><time>2026-04-29T11:45:00.001Z</time></trkpt><trkpt lat="43.41916083575756" lon="12.494560401943332"><ele>600.8333333333334</ele><time>2026-04-29T11:45:01.001Z</time></trkpt><trkpt lat="43.41920424420142" lon="12.494486712125642"><ele>601.0</ele><time>2026-04-29T11:45:02.001Z</time></trkpt><trkpt lat="43.41926710073429" lon="12.494414885511684"><ele>603.0</ele><time>2026-04-29T11:45:03.001Z</time></trkpt><trkpt lat="43.419344283805195" lon="12.494357655764047"><ele>605.0</ele><time>2026-04-29T11:45:04.001Z</time></trkpt><trkpt lat="43.419434559539475" lon="12.494323698394501"><ele>607.0</ele><time>2026-04-29T11:45:05.001Z</time></trkpt><trkpt lat="43.41953974856186" lon="12.494304130218525"><ele>609.0</ele><time>2026-04-29T11:45:06.001Z</time></trkpt><trkpt lat="43.4196540702294" lon="12.4943034426628"><ele>611.0</ele><time>2026-04-29T11:45:07.001Z</time></trkpt><trkpt lat="43.41976952187578" lon="12.49433071155204"><ele>611.25</ele><time>2026-04-29T11:45:08.001Z</time></trkpt><trkpt lat="43.41986394011141" lon="12.494418647758085"><ele>611.5</ele><time>2026-04-29T11:45:09.001Z</time></trkpt><trkpt lat="43.41996100021309" lon="12.494488646556482"><ele>611.75</ele><time>2026-04-29T11:45:10.001Z</time></trkpt><trkpt lat="43.42005128788995" lon="12.494596347067626"><ele>612.0</ele><time>2026-04-29T11:45:11.001Z</time></trkpt><trkpt lat="43.42014260020525" lon="12.494732094421558"><ele>612.0</ele><time>2026-04-29T11:45:12.001Z</time></trkpt><trkpt lat="43.42024295435829" lon="12.494843288653518"><ele>612.0</ele><time>2026-04-29T11:45:13.001Z</time></trkpt><trkpt lat="43.420348911476815" lon="12.494897142019537"><ele>612.0</ele><time>2026-04-29T11:45:14.001Z</time></trkpt><trkpt lat="43.42044433220383" lon="12.494951980126242"><ele>612.0</ele><time>2026-04-29T11:45:15.001Z</time></trkpt><trkpt lat="43.42053926802288" lon="12.494995414487796"><ele>612.0</ele><time>2026-04-29T11:45:16.001Z</time></trkpt><trkpt lat="43.42063528006367" lon="12.495008346933853"><ele>615.6</ele><time>2026-04-29T11:45:17.001Z</time></trkpt><trkpt lat="43.420731985038294" lon="12.494996386214256"><ele>619.2</ele><time>2026-04-29T11:45:18.001Z</time></trkpt><trkpt lat="43.42083581515899" lon="12.494958583173922"><ele>622.8</ele><time>2026-04-29T11:45:19.001Z</time></trkpt><trkpt lat="43.42096306666522" lon="12.494930678813875"><ele>626.4</ele><time>2026-04-29T11:45:20.001Z</time></trkpt><trkpt lat="43.42107523104818" lon="12.494897568717363"><ele>630.0</ele><time>2026-04-29T11:45:21.001Z</time></trkpt><trkpt lat="43.42116876615087" lon="12.49487906750813"><ele>630.0</ele><time>2026-04-29T11:45:22.001Z</time></trkpt><trkpt lat="43.42125276131901" lon="12.494886450054794"><ele>630.0</ele><time>2026-04-29T11:45:23.001Z</time></trkpt><trkpt lat="43.421334089525274" lon="12.494923303071234"><ele>630.0</ele><time>2026-04-29T11:45:24.001Z</time></trkpt><trkpt lat="43.42139664050091" lon="12.49499521957368"><ele>630.0</ele><time>2026-04-29T11:45:25.001Z</time></trkpt><trkpt lat="43.421471595042085" lon="12.495086363249072"><ele>630.0</ele><time>2026-04-29T11:45:26.001Z</time></trkpt><trkpt lat="43.42157781820539" lon="12.49519451758626"><ele>630.25</ele><time>2026-04-29T11:45:27.001Z</time></trkpt><trkpt lat="43.42169288816464" lon="12.495314245922756"><ele>630.5</ele><time>2026-04-29T11:45:28.001Z</time></trkpt><trkpt lat="43.42181970092589" lon="12.495420314628422"><ele>630.75</ele><time>2026-04-29T11:45:29.001Z</time></trkpt><trkpt lat="43.421954509780925" lon="12.495522145590636"><ele>631.0</ele><time>2026-04-29T11:45:30.001Z</time></trkpt><trkpt lat="43.42209102448885" lon="12.495615302549597"><ele>635.75</ele><time>2026-04-29T11:45:31.001Z</time></trkpt><trkpt lat="43.422216907942975" lon="12.495696283483689"><ele>640.5</ele><time>2026-04-29T11:45:32.001Z</time></trkpt><trkpt lat="43.42233180329421" lon="12.49575310094544"><ele>645.25</ele><time>2026-04-29T11:45:33.001Z</time></trkpt><trkpt lat="43.422433643648105" lon="12.495792305936414"><ele>650.0</ele><time>2026-04-29T11:45:34.001Z</time></trkpt><trkpt lat="43.42251882583251" lon="12.49584695738373"><ele>650.0</ele><time>2026-04-29T11:45:35.001Z</time></trkpt><trkpt lat="43.42259390949037" lon="12.495934638896884"><ele>650.0</ele><time>2026-04-29T11:45:36.001Z</time></trkpt><trkpt lat="43.42264977191538" lon="12.49605594927466"><ele>650.0</ele><time>2026-04-29T11:45:37.001Z</time></trkpt><trkpt lat="43.422682432828736" lon="12.496208910515588"><ele>650.0</ele><time>2026-04-29T11:45:38.001Z</time></trkpt><trkpt lat="43.42271171781609" lon="12.496382550562016"><ele>650.0</ele><time>2026-04-29T11:45:39.002Z</time></trkpt><trkpt lat="43.42274463115079" lon="12.496569464612744"><ele>649.8</ele><time>2026-04-29T11:45:40.002Z</time></trkpt><trkpt lat="43.4227719844248" lon="12.496735902621877"><ele>649.6</ele><time>2026-04-29T11:45:41.002Z</time></trkpt><trkpt lat="43.42275188977936" lon="12.496875257121367"><ele>649.4000000000001</ele><time>2026-04-29T11:45:42.002Z</time></trkpt><trkpt lat="43.42271131063302" lon="12.496981559320131"><ele>649.2</ele><time>2026-04-29T11:45:43.002Z</time></trkpt><trkpt lat="43.42264621097811" lon="12.497105429446915"><ele>649.0</ele><time>2026-04-29T11:45:44.002Z</time></trkpt><trkpt lat="43.42260627351566" lon="12.49724445891898"><ele>649.0</ele><time>2026-04-29T11:45:45.002Z</time></trkpt><trkpt lat="43.42260976380888" lon="12.49739684831275"><ele>649.0</ele><time>2026-04-29T11:45:46.002Z</time></trkpt><trkpt lat="43.42260606180208" lon="12.49757340088664"><ele>649.0</ele><time>2026-04-29T11:45:47.002Z</time></trkpt><trkpt lat="43.42258449913706" lon="12.497742293397629"><ele>649.0</ele><time>2026-04-29T11:45:48.002Z</time></trkpt><trkpt lat="43.42258232980117" lon="12.497875744914321"><ele>649.2</ele><time>2026-04-29T11:45:49.002Z</time></trkpt><trkpt lat="43.4225841463908" lon="12.497975146668512"><ele>649.4000000000001</ele><time>2026-04-29T11:45:50.002Z</time></trkpt><trkpt lat="43.4226216613386" lon="12.498065460997308"><ele>649.6</ele><time>2026-04-29T11:45:51.002Z</time></trkpt><trkpt lat="43.42267036017918" lon="12.498135515180664"><ele>649.8</ele><time>2026-04-29T11:45:52.002Z</time></trkpt><trkpt lat="43.422808264185576" lon="12.49807674487155"><ele>650.0</ele><time>2026-04-29T11:45:53.002Z</time></trkpt><trkpt lat="43.4229036581445" lon="12.498054392660107"><ele>651.75</ele><time>2026-04-29T11:45:54.002Z</time></trkpt><trkpt lat="43.42302401038912" lon="12.498023808091096"><ele>653.5</ele><time>2026-04-29T11:45:55.002Z</time></trkpt><trkpt lat="43.42316358025903" lon="12.497984331138454"><ele>655.25</ele><time>2026-04-29T11:45:56.002Z</time></trkpt><trkpt lat="43.42329845197617" lon="12.497953888860128"><ele>657.0</ele><time>2026-04-29T11:45:57.002Z</time></trkpt><trkpt lat="43.423391462469866" lon="12.497934635861665"><ele>657.0</ele><time>2026-04-29T11:45:58.002Z</time></trkpt><trkpt lat="43.423471189960964" lon="12.497920486464452"><ele>657.0</ele><time>2026-04-29T11:45:59.002Z</time></trkpt><trkpt lat="43.423549694809346" lon="12.497923643688244"><ele>657.0</ele><time>2026-04-29T11:46:00.002Z</time></trkpt><trkpt lat="43.423622560717455" lon="12.49794124751253"><ele>657.0</ele><time>2026-04-29T11:46:01.002Z</time></trkpt><trkpt lat="43.42369068536765" lon="12.497971341569151"><ele>657.0</ele><time>2026-04-29T11:46:02.002Z</time></trkpt><trkpt lat="43.423751674543524" lon="12.49800874513429"><ele>657.0</ele><time>2026-04-29T11:46:03.002Z</time></trkpt><trkpt lat="43.423805330086196" lon="12.498055314372685"><ele>657.0</ele><time>2026-04-29T11:46:04.002Z</time></trkpt><trkpt lat="43.42387931701625" lon="12.498155690343784"><ele>659.6666666666666</ele><time>2026-04-29T11:46:06.002Z</time></trkpt><trkpt lat="43.42395060762794" lon="12.498296476332287"><ele>662.3333333333334</ele><time>2026-04-29T11:46:08.002Z</time></trkpt><trkpt lat="43.42401718591951" lon="12.498364835225495"><ele>665.0</ele><time>2026-04-29T11:46:09.002Z</time></trkpt><trkpt lat="43.424089042400325" lon="12.498425181705718"><ele>667.6666666666667</ele><time>2026-04-29T11:46:10.002Z</time></trkpt><trkpt lat="43.424153946722036" lon="12.498486289265951"><ele>670.3333333333334</ele><time>2026-04-29T11:46:11.002Z</time></trkpt><trkpt lat="43.42420940034211" lon="12.498558349009224"><ele>673.0</ele><time>2026-04-29T11:46:12.002Z</time></trkpt><trkpt lat="43.424227629312384" lon="12.498662075126491"><ele>671.5</ele><time>2026-04-29T11:46:13.002Z</time></trkpt><trkpt lat="43.42424360993245" lon="12.498752718950513"><ele>670.0</ele><time>2026-04-29T11:46:14.002Z</time></trkpt><trkpt lat="43.42426213904324" lon="12.4988534827799"><ele>668.5</ele><time>2026-04-29T11:46:15.002Z</time></trkpt><trkpt lat="43.42427705263155" lon="12.498965208601934"><ele>667.0</ele><time>2026-04-29T11:46:16.002Z</time></trkpt><trkpt lat="43.42428671389053" lon="12.499092798013722"><ele>665.5</ele><time>2026-04-29T11:46:17.002Z</time></trkpt><trkpt lat="43.42428923315519" lon="12.499229291076302"><ele>664.0</ele><time>2026-04-29T11:46:18.002Z</time></trkpt><trkpt lat="43.424303565682166" lon="12.499372069429963"><ele>664.0</ele><time>2026-04-29T11:46:19.002Z</time></trkpt><trkpt lat="43.424293605184516" lon="12.499527230689226"><ele>664.0</ele><time>2026-04-29T11:46:20.002Z</time></trkpt><trkpt lat="43.42427722171173" lon="12.499704710676095"><ele>664.0</ele><time>2026-04-29T11:46:21.002Z</time></trkpt><trkpt lat="43.42425531699425" lon="12.499900528977978"><ele>664.0</ele><time>2026-04-29T11:46:22.002Z</time></trkpt><trkpt lat="43.424236523831404" lon="12.500111187860051"><ele>664.0</ele><time>2026-04-29T11:46:23.002Z</time></trkpt><trkpt lat="43.42421393303634" lon="12.50031618330548"><ele>664.0</ele><time>2026-04-29T11:46:24.002Z</time></trkpt><trkpt lat="43.424195343140624" lon="12.500491601785047"><ele>664.0</ele><time>2026-04-29T11:46:25.002Z</time></trkpt><trkpt lat="43.424184749717014" lon="12.500633171916418"><ele>664.0</ele><time>2026-04-29T11:46:26.002Z</time></trkpt><trkpt lat="43.42418997957389" lon="12.500754958972708"><ele>664.0</ele><time>2026-04-29T11:46:27.002Z</time></trkpt><trkpt lat="43.42419331246021" lon="12.50086469206041"><ele>664.0</ele><time>2026-04-29T11:46:28.002Z</time></trkpt><trkpt lat="43.424262562983394" lon="12.500962527498546"><ele>664.0</ele><time>2026-04-29T11:46:29.002Z</time></trkpt><trkpt lat="43.42433919163877" lon="12.501044494011692"><ele>664.0</ele><time>2026-04-29T11:46:30.002Z</time></trkpt><trkpt lat="43.4244392124798" lon="12.501066824375501"><ele>664.0</ele><time>2026-04-29T11:46:31.002Z</time></trkpt><trkpt lat="43.42452032519904" lon="12.501058243899834"><ele>664.0</ele><time>2026-04-29T11:46:32.002Z</time></trkpt><trkpt lat="43.424585831595415" lon="12.50105454256068"><ele>664.0</ele><time>2026-04-29T11:46:33.002Z</time></trkpt><trkpt lat="43.42464817488559" lon="12.50097246602527"><ele>664.0</ele><time>2026-04-29T11:46:34.003Z</time></trkpt><trkpt lat="43.424735296695424" lon="12.50089078489173"><ele>664.0</ele><time>2026-04-29T11:46:35.003Z</time></trkpt><trkpt lat="43.424829641776" lon="12.500859944828594"><ele>664.0</ele><time>2026-04-29T11:46:36.003Z</time></trkpt><trkpt lat="43.42491647286535" lon="12.500841660109009"><ele>664.0</ele><time>2026-04-29T11:46:37.003Z</time></trkpt><trkpt lat="43.42499230795089" lon="12.50089105840878"><ele>664.4000000000001</ele><time>2026-04-29T11:46:38.001Z</time></trkpt><trkpt lat="43.42507453144596" lon="12.50094225828998"><ele>664.8</ele><time>2026-04-29T11:46:39.001Z</time></trkpt><trkpt lat="43.42516173583224" lon="12.501013296762007"><ele>665.2</ele><time>2026-04-29T11:46:40.001Z</time></trkpt><trkpt lat="43.42522971202738" lon="12.501103233156416"><ele>665.5999999999999</ele><time>2026-04-29T11:46:41.001Z</time></trkpt><trkpt lat="43.42528626250304" lon="12.501207775214217"><ele>666.0</ele><time>2026-04-29T11:46:42.001Z</time></trkpt><trkpt lat="43.425344924255306" lon="12.501311634897181"><ele>662.8333333333334</ele><time>2026-04-29T11:46:43.001Z</time></trkpt><trkpt lat="43.42533493395979" lon="12.501453460317327"><ele>659.6666666666666</ele><time>2026-04-29T11:46:44.001Z</time></trkpt><trkpt lat="43.425351012182" lon="12.501587518512027"><ele>656.5</ele><time>2026-04-29T11:46:45.001Z</time></trkpt><trkpt lat="43.42537314624046" lon="12.501704638683988"><ele>653.3333333333333</ele><time>2026-04-29T11:46:46.001Z</time></trkpt><trkpt lat="43.425427601756496" lon="12.501790932541944"><ele>650.1666666666666</ele><time>2026-04-29T11:46:47.001Z</time></trkpt><trkpt lat="43.425442626967616" lon="12.501888746505719"><ele>647.0</ele><time>2026-04-29T11:46:48.001Z</time></trkpt><trkpt lat="43.425439328595715" lon="12.50197550027175"><ele>645.6</ele><time>2026-04-29T11:46:49.001Z</time></trkpt><trkpt lat="43.42535428511654" lon="12.502094813352798"><ele>644.2</ele><time>2026-04-29T11:46:51.001Z</time></trkpt><trkpt lat="43.425265833860756" lon="12.502113904414141"><ele>642.8</ele><time>2026-04-29T11:46:52.001Z</time></trkpt><trkpt lat="43.42517274630909" lon="12.502162698870569"><ele>641.4</ele><time>2026-04-29T11:46:53.001Z</time></trkpt><trkpt lat="43.42509068784639" lon="12.502216798447952"><ele>640.0</ele><time>2026-04-29T11:46:54.001Z</time></trkpt><trkpt lat="43.425017472741416" lon="12.502287691082532"><ele>640.0</ele><time>2026-04-29T11:46:55.001Z</time></trkpt><trkpt lat="43.42496421273535" lon="12.50240337582376"><ele>640.0</ele><time>2026-04-29T11:46:56.001Z</time></trkpt><trkpt lat="43.42490961272506" lon="12.502530080861577"><ele>640.0</ele><time>2026-04-29T11:46:57.001Z</time></trkpt><trkpt lat="43.424858375667064" lon="12.502670370650499"><ele>640.0</ele><time>2026-04-29T11:46:58.001Z</time></trkpt><trkpt lat="43.42481443181298" lon="12.502815311208957"><ele>640.0</ele><time>2026-04-29T11:46:59.001Z</time></trkpt><trkpt lat="43.42477416355386" lon="12.502956444913009"><ele>638.8333333333334</ele><time>2026-04-29T11:47:00.001Z</time></trkpt><trkpt lat="43.42474733300417" lon="12.503089824994335"><ele>637.6666666666667</ele><time>2026-04-29T11:47:01.001Z</time></trkpt><trkpt lat="43.4247303313068" lon="12.503209084892077"><ele>636.5</ele><time>2026-04-29T11:47:02.001Z</time></trkpt><trkpt lat="43.42471542124315" lon="12.5033134036044"><ele>635.3333333333334</ele><time>2026-04-29T11:47:03.001Z</time></trkpt><trkpt lat="43.42469343572448" lon="12.50340217552912"><ele>634.1666666666666</ele><time>2026-04-29T11:47:04.001Z</time></trkpt><trkpt lat="43.42470078525635" lon="12.50349401428999"><ele>633.0</ele><time>2026-04-29T11:47:05.001Z</time></trkpt><trkpt lat="43.424760305827796" lon="12.503577669791305"><ele>633.0</ele><time>2026-04-29T11:47:06.001Z</time></trkpt><trkpt lat="43.424814250534006" lon="12.503670518991674"><ele>633.0</ele><time>2026-04-29T11:47:07.001Z</time></trkpt><trkpt lat="43.42486644521558" lon="12.50377549393185"><ele>633.0</ele><time>2026-04-29T11:47:08.001Z</time></trkpt><trkpt lat="43.42490832960047" lon="12.503904022462835"><ele>633.0</ele><time>2026-04-29T11:47:09.001Z</time></trkpt><trkpt lat="43.42492194963572" lon="12.50405317690488"><ele>633.0</ele><time>2026-04-29T11:47:10.001Z</time></trkpt><trkpt lat="43.424921935512266" lon="12.50422655955513"><ele>630.0</ele><time>2026-04-29T11:47:11.001Z</time></trkpt><trkpt lat="43.424924485235906" lon="12.504388247783815"><ele>627.0</ele><time>2026-04-29T11:47:12.001Z</time></trkpt><trkpt lat="43.424924214195585" lon="12.504521315638753"><ele>624.0</ele><time>2026-04-29T11:47:13.001Z</time></trkpt><trkpt lat="43.42493420303347" lon="12.5046274742229"><ele>621.0</ele><time>2026-04-29T11:47:14.001Z</time></trkpt><trkpt lat="43.42495881297228" lon="12.504713716259701"><ele>618.0</ele><time>2026-04-29T11:47:15.001Z</time></trkpt><trkpt lat="43.42502079461511" lon="12.504854404811327"><ele>618.1999999999999</ele><time>2026-04-29T11:47:17.001Z</time></trkpt><trkpt lat="43.425112659218954" lon="12.504846970478606"><ele>618.4</ele><time>2026-04-29T11:47:18.001Z</time></trkpt><trkpt lat="43.42519722900713" lon="12.504820741902586"><ele>618.5999999999999</ele><time>2026-04-29T11:47:19.001Z</time></trkpt><trkpt lat="43.425290310807654" lon="12.504772700932042"><ele>618.8</ele><time>2026-04-29T11:47:20.001Z</time></trkpt><trkpt lat="43.42540231620785" lon="12.504703461211385"><ele>619.0</ele><time>2026-04-29T11:47:21.001Z</time></trkpt><trkpt lat="43.42552685253116" lon="12.50462516084423"><ele>619.0</ele><time>2026-04-29T11:47:22.001Z</time></trkpt><trkpt lat="43.425644410607326" lon="12.50460329303706"><ele>619.0</ele><time>2026-04-29T11:47:23.001Z</time></trkpt><trkpt lat="43.425747486019354" lon="12.504592617664308"><ele>619.0</ele><time>2026-04-29T11:47:24.001Z</time></trkpt><trkpt lat="43.425828186584276" lon="12.50459014288974"><ele>619.0</ele><time>2026-04-29T11:47:25.001Z</time></trkpt><trkpt lat="43.42593715532122" lon="12.504600200407445"><ele>619.0</ele><time>2026-04-29T11:47:27.001Z</time></trkpt><trkpt lat="43.42595826905357" lon="12.504688095045337"><ele>619.0</ele><time>2026-04-29T11:47:28.001Z</time></trkpt><trkpt lat="43.42591089740061" lon="12.504838284655651"><ele>619.0</ele><time>2026-04-29T11:47:30.001Z</time></trkpt><trkpt lat="43.42590547795532" lon="12.504970401388116"><ele>619.0</ele><time>2026-04-29T11:47:31.001Z</time></trkpt><trkpt lat="43.425882687437124" lon="12.505096153219139"><ele>619.0</ele><time>2026-04-29T11:47:32.001Z</time></trkpt><trkpt lat="43.42588815343189" lon="12.505229022952737"><ele>619.0</ele><time>2026-04-29T11:47:33.001Z</time></trkpt><trkpt lat="43.4259181483624" lon="12.505361263310835"><ele>617.75</ele><time>2026-04-29T11:47:34.001Z</time></trkpt><trkpt lat="43.425952693766725" lon="12.505520812324777"><ele>616.5</ele><time>2026-04-29T11:47:35.001Z</time></trkpt><trkpt lat="43.42599575532165" lon="12.505710137637553"><ele>615.25</ele><time>2026-04-29T11:47:36.001Z</time></trkpt><trkpt lat="43.42601508826497" lon="12.505896178453202"><ele>614.0</ele><time>2026-04-29T11:47:37.001Z</time></trkpt><trkpt lat="43.42601372755936" lon="12.506073816230108"><ele>614.0</ele><time>2026-04-29T11:47:38.001Z</time></trkpt><trkpt lat="43.42600916301279" lon="12.506222589875513"><ele>614.0</ele><time>2026-04-29T11:47:39.001Z</time></trkpt><trkpt lat="43.42602297588649" lon="12.506348193136574"><ele>614.0</ele><time>2026-04-29T11:47:40.001Z</time></trkpt><trkpt lat="43.426053852381436" lon="12.506462608405581"><ele>614.0</ele><time>2026-04-29T11:47:41.001Z</time></trkpt><trkpt lat="43.426083565134874" lon="12.506578850813309"><ele>614.0</ele><time>2026-04-29T11:47:42.001Z</time></trkpt><trkpt lat="43.42615465223158" lon="12.506675326738716"><ele>611.8</ele><time>2026-04-29T11:47:43.001Z</time></trkpt><trkpt lat="43.426249662518416" lon="12.506742418510177"><ele>609.5999999999999</ele><time>2026-04-29T11:47:44.001Z</time></trkpt><trkpt lat="43.426340620922524" lon="12.506817337945655"><ele>607.4</ele><time>2026-04-29T11:47:45.001Z</time></trkpt><trkpt lat="43.426423829704895" lon="12.506870790187232"><ele>605.1999999999999</ele><time>2026-04-29T11:47:46.001Z</time></trkpt><trkpt lat="43.4265031136269" lon="12.50690616924229"><ele>603.0</ele><time>2026-04-29T11:47:47.001Z</time></trkpt><trkpt lat="43.42659517348823" lon="12.506932649011517"><ele>602.8</ele><time>2026-04-29T11:47:48.001Z</time></trkpt><trkpt lat="43.42668803905678" lon="12.506959244765019"><ele>602.5999999999999</ele><time>2026-04-29T11:47:49.001Z</time></trkpt><trkpt lat="43.42677543928629" lon="12.507002696852675"><ele>602.4000000000001</ele><time>2026-04-29T11:47:50.001Z</time></trkpt><trkpt lat="43.42686295212582" lon="12.507059300804299"><ele>602.2</ele><time>2026-04-29T11:47:51.001Z</time></trkpt><trkpt lat="43.42695023958369" lon="12.507104407844693"><ele>602.0</ele><time>2026-04-29T11:47:52.001Z</time></trkpt><trkpt lat="43.42703742354223" lon="12.507122860415144"><ele>602.0</ele><time>2026-04-29T11:47:53.001Z</time></trkpt><trkpt lat="43.427129202077424" lon="12.507129225854893"><ele>602.0</ele><time>2026-04-29T11:47:54.001Z</time></trkpt><trkpt lat="43.42722509017597" lon="12.507133111535614"><ele>602.0</ele><time>2026-04-29T11:47:55.001Z</time></trkpt><trkpt lat="43.42732184496349" lon="12.507157899425385"><ele>602.0</ele><time>2026-04-29T11:47:56.001Z</time></trkpt><trkpt lat="43.42741325108336" lon="12.507167721027198"><ele>602.0</ele><time>2026-04-29T11:47:57.001Z</time></trkpt><trkpt lat="43.427486717949556" lon="12.507171445582564"><ele>602.4285714285714</ele><time>2026-04-29T11:47:58.002Z</time></trkpt><trkpt lat="43.427549802703844" lon="12.50715930211825"><ele>602.8571428571429</ele><time>2026-04-29T11:47:59.002Z</time></trkpt><trkpt lat="43.42763827229707" lon="12.507173841352365"><ele>603.2857142857142</ele><time>2026-04-29T11:48:01.002Z</time></trkpt><trkpt lat="43.42770447689778" lon="12.507198292118309"><ele>603.7142857142858</ele><time>2026-04-29T11:48:03.002Z</time></trkpt><trkpt lat="43.427768311170205" lon="12.507202648125407"><ele>604.1428571428571</ele><time>2026-04-29T11:48:08.002Z</time></trkpt><trkpt lat="43.42769818831908" lon="12.507128573382115"><ele>604.5714285714286</ele><time>2026-04-29T11:48:10.002Z</time></trkpt><trkpt lat="43.427644578115455" lon="12.507184964034627"><ele>605.0</ele><time>2026-04-29T11:48:12.002Z</time></trkpt><trkpt lat="43.42756041982268" lon="12.507255067047142"><ele>605.0</ele><time>2026-04-29T11:48:14.002Z</time></trkpt><trkpt lat="43.42744208906739" lon="12.507324903892941"><ele>605.0</ele><time>2026-04-29T11:48:16.002Z</time></trkpt><trkpt lat="43.427380870717506" lon="12.507359601800623"><ele>605.0</ele><time>2026-04-29T11:48:17.002Z</time></trkpt><trkpt lat="43.42731283167551" lon="12.50739435433082"><ele>605.0</ele><time>2026-04-29T11:48:18.002Z</time></trkpt><trkpt lat="43.42724236147508" lon="12.507432733817156"><ele>605.0</ele><time>2026-04-29T11:48:19.002Z</time></trkpt><trkpt lat="43.42715988135011" lon="12.507477930035531"><ele>605.0</ele><time>2026-04-29T11:48:20.002Z</time></trkpt><trkpt lat="43.42702039135666" lon="12.507602349867351"><ele>604.25</ele><time>2026-04-29T11:48:21.002Z</time></trkpt><trkpt lat="43.426931270322186" lon="12.507620533234544"><ele>603.5</ele><time>2026-04-29T11:48:22.002Z</time></trkpt><trkpt lat="43.42684593312096" lon="12.507620396485423"><ele>602.75</ele><time>2026-04-29T11:48:23.002Z</time></trkpt><trkpt lat="43.426764197473005" lon="12.507615902095585"><ele>602.0</ele><time>2026-04-29T11:48:24.002Z</time></trkpt><trkpt lat="43.42660966413408" lon="12.506908168638184"><ele>602.2</ele><time>2026-04-29T11:48:25.002Z</time></trkpt><trkpt lat="43.42652538088618" lon="12.506903097438235"><ele>602.4000000000001</ele><time>2026-04-29T11:48:26.002Z</time></trkpt><trkpt lat="43.426427196871906" lon="12.50683216788339"><ele>602.5999999999999</ele><time>2026-04-29T11:48:28.002Z</time></trkpt><trkpt lat="43.42631904124487" lon="12.506763068578389"><ele>602.8</ele><time>2026-04-29T11:48:30.002Z</time></trkpt><trkpt lat="43.42625377362802" lon="12.50671173049673"><ele>603.0</ele><time>2026-04-29T11:48:31.002Z</time></trkpt><trkpt lat="43.42618612271782" lon="12.50664303891984"><ele>603.0</ele><time>2026-04-29T11:48:32.002Z</time></trkpt><trkpt lat="43.4261186387845" lon="12.506564057160706"><ele>603.0</ele><time>2026-04-29T11:48:33.002Z</time></trkpt><trkpt lat="43.42607158595446" lon="12.50646653294274"><ele>603.0</ele><time>2026-04-29T11:48:34.002Z</time></trkpt><trkpt lat="43.426058520064764" lon="12.506348670126048"><ele>603.0</ele><time>2026-04-29T11:48:35.002Z</time></trkpt><trkpt lat="43.426048902209466" lon="12.50621290462525"><ele>603.0</ele><time>2026-04-29T11:48:36.002Z</time></trkpt><trkpt lat="43.42604130439364" lon="12.506075910789061"><ele>605.75</ele><time>2026-04-29T11:48:37.002Z</time></trkpt><trkpt lat="43.4260476142653" lon="12.505922372572968"><ele>608.5</ele><time>2026-04-29T11:48:38.002Z</time></trkpt><trkpt lat="43.4260175765948" lon="12.505754177116067"><ele>611.25</ele><time>2026-04-29T11:48:39.002Z</time></trkpt><trkpt lat="43.42599967465343" lon="12.505584067496896"><ele>614.0</ele><time>2026-04-29T11:48:40.002Z</time></trkpt><trkpt lat="43.425972335798534" lon="12.505418790563137"><ele>615.0</ele><time>2026-04-29T11:48:41.002Z</time></trkpt><trkpt lat="43.42594962176759" lon="12.505261587688933"><ele>616.0</ele><time>2026-04-29T11:48:42.002Z</time></trkpt><trkpt lat="43.425932097111776" lon="12.50511707501336"><ele>617.0</ele><time>2026-04-29T11:48:43.002Z</time></trkpt><trkpt lat="43.42591895769724" lon="12.504980269369389"><ele>618.0</ele><time>2026-04-29T11:48:44Z</time></trkpt><trkpt lat="43.42593251916208" lon="12.504852273945492"><ele>619.0</ele><time>2026-04-29T11:48:45Z</time></trkpt><trkpt lat="43.42596336491066" lon="12.504740321894822"><ele>619.0</ele><time>2026-04-29T11:48:46Z</time></trkpt><trkpt lat="43.425986184104396" lon="12.504642057667208"><ele>619.0</ele><time>2026-04-29T11:48:47Z</time></trkpt><trkpt lat="43.42590420882285" lon="12.50453548474098"><ele>619.0</ele><time>2026-04-29T11:48:49Z</time></trkpt><trkpt lat="43.425841649673515" lon="12.504516839794382"><ele>619.0</ele><time>2026-04-29T11:48:50Z</time></trkpt><trkpt lat="43.425754866458874" lon="12.504561744135307"><ele>619.0</ele><time>2026-04-29T11:48:51Z</time></trkpt><trkpt lat="43.42565491780643" lon="12.5045570335255"><ele>619.0</ele><time>2026-04-29T11:48:52Z</time></trkpt><trkpt lat="43.425520913727574" lon="12.504590858925335"><ele>616.25</ele><time>2026-04-29T11:48:53Z</time></trkpt><trkpt lat="43.42538200970889" lon="12.504666953867938"><ele>613.5</ele><time>2026-04-29T11:48:54Z</time></trkpt><trkpt lat="43.425258772188634" lon="12.504752504757242"><ele>610.75</ele><time>2026-04-29T11:48:55Z</time></trkpt><trkpt lat="43.42516777259275" lon="12.504791337014293"><ele>608.0</ele><time>2026-04-29T11:48:56Z</time></trkpt><trkpt lat="43.42509191685121" lon="12.50479823072541"><ele>608.0</ele><time>2026-04-29T11:48:57Z</time></trkpt><trkpt lat="43.425025142710126" lon="12.504792920319884"><ele>608.0</ele><time>2026-04-29T11:48:58Z</time></trkpt><trkpt lat="43.42495788268086" lon="12.504680439188066"><ele>608.0</ele><time>2026-04-29T11:49:00Z</time></trkpt><trkpt lat="43.424950089074535" lon="12.504587515346847"><ele>608.0</ele><time>2026-04-29T11:49:01Z</time></trkpt><trkpt lat="43.42494039819996" lon="12.504456505870184"><ele>608.0</ele><time>2026-04-29T11:49:02Z</time></trkpt><trkpt lat="43.424934615327786" lon="12.504285781854737"><ele>610.0</ele><time>2026-04-29T11:49:03Z</time></trkpt><trkpt lat="43.42492751842013" lon="12.504103665694673"><ele>612.0</ele><time>2026-04-29T11:49:04Z</time></trkpt><trkpt lat="43.424926488178855" lon="12.503940141990448"><ele>614.0</ele><time>2026-04-29T11:49:05Z</time></trkpt><trkpt lat="43.424905584696425" lon="12.503812290914425"><ele>616.0</ele><time>2026-04-29T11:49:06Z</time></trkpt><trkpt lat="43.424866296323714" lon="12.503706537310931"><ele>618.0</ele><time>2026-04-29T11:49:07Z</time></trkpt><trkpt lat="43.42480719169993" lon="12.503602988421815"><ele>621.0</ele><time>2026-04-29T11:49:08Z</time></trkpt><trkpt lat="43.42474869497533" lon="12.503501819401677"><ele>624.0</ele><time>2026-04-29T11:49:09Z</time></trkpt><trkpt lat="43.42472034333472" lon="12.503396609946096"><ele>627.0</ele><time>2026-04-29T11:49:10Z</time></trkpt><trkpt lat="43.424726035856224" lon="12.503273442712137"><ele>630.0</ele><time>2026-04-29T11:49:11Z</time></trkpt><trkpt lat="43.424753405654975" lon="12.503139556010755"><ele>633.0</ele><time>2026-04-29T11:49:12Z</time></trkpt><trkpt lat="43.42478400063578" lon="12.50297677500173"><ele>634.75</ele><time>2026-04-29T11:49:13Z</time></trkpt><trkpt lat="43.42482570105177" lon="12.502806682630842"><ele>636.5</ele><time>2026-04-29T11:49:14Z</time></trkpt><trkpt lat="43.42488259174735" lon="12.502649044302334"><ele>638.25</ele><time>2026-04-29T11:49:15.001Z</time></trkpt><trkpt lat="43.424941617695104" lon="12.502501848577133"><ele>640.0</ele><time>2026-04-29T11:49:16.001Z</time></trkpt><trkpt lat="43.42500177019717" lon="12.502382444124763"><ele>640.0</ele><time>2026-04-29T11:49:17.001Z</time></trkpt><trkpt lat="43.425064312392315" lon="12.50229153894473"><ele>640.0</ele><time>2026-04-29T11:49:18.001Z</time></trkpt><trkpt lat="43.42513775748504" lon="12.502213228224806"><ele>640.0</ele><time>2026-04-29T11:49:19.001Z</time></trkpt><trkpt lat="43.425218124574684" lon="12.50217100979419"><ele>640.0</ele><time>2026-04-29T11:49:20.001Z</time></trkpt><trkpt lat="43.425309505121" lon="12.502132007082036"><ele>640.0</ele><time>2026-04-29T11:49:21.001Z</time></trkpt><trkpt lat="43.425388219476325" lon="12.502079621253191"><ele>641.0</ele><time>2026-04-29T11:49:22.001Z</time></trkpt><trkpt lat="43.42544754316725" lon="12.502039059206364"><ele>642.0</ele><time>2026-04-29T11:49:23.001Z</time></trkpt><trkpt lat="43.42548320701355" lon="12.501965821108385"><ele>643.0</ele><time>2026-04-29T11:49:24.001Z</time></trkpt><trkpt lat="43.42545756018663" lon="12.501847134890024"><ele>644.0</ele><time>2026-04-29T11:49:25.001Z</time></trkpt><trkpt lat="43.42543205308565" lon="12.501763015937826"><ele>645.0</ele><time>2026-04-29T11:49:26.001Z</time></trkpt><trkpt lat="43.42540385175164" lon="12.5016828762732"><ele>646.0</ele><time>2026-04-29T11:49:27.001Z</time></trkpt><trkpt lat="43.42537820658011" lon="12.501591465718926"><ele>647.0</ele><time>2026-04-29T11:49:28.001Z</time></trkpt><trkpt lat="43.42536088925423" lon="12.50148874218433"><ele>647.0</ele><time>2026-04-29T11:49:29.001Z</time></trkpt><trkpt lat="43.42534816012876" lon="12.501368599894619"><ele>647.0</ele><time>2026-04-29T11:49:30.001Z</time></trkpt><trkpt lat="43.42532846646238" lon="12.50124448015553"><ele>647.0</ele><time>2026-04-29T11:49:31.001Z</time></trkpt><trkpt lat="43.42528688697167" lon="12.501140877808062"><ele>647.0</ele><time>2026-04-29T11:49:32.001Z</time></trkpt><trkpt lat="43.425222287550326" lon="12.501046589729926"><ele>647.0</ele><time>2026-04-29T11:49:33.001Z</time></trkpt><trkpt lat="43.425148084066194" lon="12.500960983502729"><ele>650.1666666666666</ele><time>2026-04-29T11:49:34.001Z</time></trkpt><trkpt lat="43.4250687262388" lon="12.500887365233597"><ele>653.3333333333333</ele><time>2026-04-29T11:49:35.001Z</time></trkpt><trkpt lat="43.42498439577282" lon="12.500843840107562"><ele>656.5</ele><time>2026-04-29T11:49:36.001Z</time></trkpt><trkpt lat="43.42489896284184" lon="12.500824092348175"><ele>659.6666666666666</ele><time>2026-04-29T11:49:37.001Z</time></trkpt><trkpt lat="43.42481660794124" lon="12.500831668250955"><ele>662.8333333333334</ele><time>2026-04-29T11:49:38.001Z</time></trkpt><trkpt lat="43.42473562462168" lon="12.500864706092534"><ele>666.0</ele><time>2026-04-29T11:49:39.001Z</time></trkpt><trkpt lat="43.424662763328065" lon="12.500920554780333"><ele>665.6666666666666</ele><time>2026-04-29T11:49:40.001Z</time></trkpt><trkpt lat="43.424585432154196" lon="12.500993018929247"><ele>665.3333333333334</ele><time>2026-04-29T11:49:41.001Z</time></trkpt><trkpt lat="43.42450024894805" lon="12.5010480008508"><ele>665.0</ele><time>2026-04-29T11:49:42.001Z</time></trkpt><trkpt lat="43.4244183589301" lon="12.501056956135837"><ele>664.6666666666667</ele><time>2026-04-29T11:49:43.001Z</time></trkpt><trkpt lat="43.42434783995868" lon="12.501015442293683"><ele>664.3333333333334</ele><time>2026-04-29T11:49:44.001Z</time></trkpt><trkpt lat="43.424277470770306" lon="12.500943531424983"><ele>664.0</ele><time>2026-04-29T11:49:45.001Z</time></trkpt><trkpt lat="43.42422554865239" lon="12.50084836377545"><ele>664.0</ele><time>2026-04-29T11:49:46.001Z</time></trkpt><trkpt lat="43.4241955986021" lon="12.500742375516937"><ele>664.0</ele><time>2026-04-29T11:49:47.001Z</time></trkpt><trkpt lat="43.42420450188807" lon="12.50061988602792"><ele>664.0</ele><time>2026-04-29T11:49:48.001Z</time></trkpt><trkpt lat="43.42421781321309" lon="12.500489223522814"><ele>664.0</ele><time>2026-04-29T11:49:49.001Z</time></trkpt><trkpt lat="43.42423532773785" lon="12.500354558178376"><ele>664.0</ele><time>2026-04-29T11:49:50.001Z</time></trkpt><trkpt lat="43.42423813433586" lon="12.500195991168512"><ele>664.0</ele><time>2026-04-29T11:49:51.001Z</time></trkpt><trkpt lat="43.424256904358764" lon="12.500039991259756"><ele>664.0</ele><time>2026-04-29T11:49:52.001Z</time></trkpt><trkpt lat="43.4242742314978" lon="12.49988054182185"><ele>664.0</ele><time>2026-04-29T11:49:53.001Z</time></trkpt><trkpt lat="43.4242961469347" lon="12.49972129984664"><ele>664.0</ele><time>2026-04-29T11:49:54.001Z</time></trkpt><trkpt lat="43.4243092636359" lon="12.49956059592685"><ele>664.0</ele><time>2026-04-29T11:49:55.001Z</time></trkpt><trkpt lat="43.424322049200065" lon="12.49939728408098"><ele>664.0</ele><time>2026-04-29T11:49:56.001Z</time></trkpt><trkpt lat="43.424327868926206" lon="12.49923245888265"><ele>664.0</ele><time>2026-04-29T11:49:57.001Z</time></trkpt><trkpt lat="43.42432281674996" lon="12.4990658761509"><ele>664.0</ele><time>2026-04-29T11:49:58.001Z</time></trkpt><trkpt lat="43.42430277745084" lon="12.49889818215614"><ele>665.8000000000001</ele><time>2026-04-29T11:49:59.001Z</time></trkpt><trkpt lat="43.4242781521601" lon="12.498749290522799"><ele>667.6</ele><time>2026-04-29T11:50:00.001Z</time></trkpt><trkpt lat="43.42424491785984" lon="12.4986143597629"><ele>669.4</ele><time>2026-04-29T11:50:01.001Z</time></trkpt><trkpt lat="43.4241920249073" lon="12.4985017657013"><ele>671.2</ele><time>2026-04-29T11:50:02.001Z</time></trkpt><trkpt lat="43.4241262048586" lon="12.4984229759865"><ele>673.0</ele><time>2026-04-29T11:50:03.001Z</time></trkpt><trkpt lat="43.42405492013265" lon="12.498366873662368"><ele>673.0</ele><time>2026-04-29T11:50:04.001Z</time></trkpt><trkpt lat="43.42398820161613" lon="12.498308671610415"><ele>673.0</ele><time>2026-04-29T11:50:05.001Z</time></trkpt><trkpt lat="43.42392798482042" lon="12.498221863997573"><ele>673.0</ele><time>2026-04-29T11:50:06.001Z</time></trkpt><trkpt lat="43.4238675485278" lon="12.498115669690762"><ele>673.0</ele><time>2026-04-29T11:50:07.001Z</time></trkpt><trkpt lat="43.423802782699376" lon="12.498030169590562"><ele>673.0</ele><time>2026-04-29T11:50:08.001Z</time></trkpt><trkpt lat="43.423730940867976" lon="12.497950216799625"><ele>673.0</ele><time>2026-04-29T11:50:09.001Z</time></trkpt><trkpt lat="43.42363030452885" lon="12.497905334166072"><ele>671.4</ele><time>2026-04-29T11:50:10.001Z</time></trkpt><trkpt lat="43.4235230588172" lon="12.497890964720332"><ele>669.8</ele><time>2026-04-29T11:50:11.002Z</time></trkpt><trkpt lat="43.423406764586495" lon="12.49789928930946"><ele>668.2</ele><time>2026-04-29T11:50:12.002Z</time></trkpt><trkpt lat="43.42329393921826" lon="12.497923347106887"><ele>666.6</ele><time>2026-04-29T11:50:13.002Z</time></trkpt><trkpt lat="43.423190961986975" lon="12.497946640418236"><ele>665.0</ele><time>2026-04-29T11:50:14.002Z</time></trkpt><trkpt lat="43.42309352321957" lon="12.497968680916141"><ele>663.4</ele><time>2026-04-29T11:50:15.002Z</time></trkpt><trkpt lat="43.42299907179899" lon="12.497988906223444"><ele>661.8</ele><time>2026-04-29T11:50:16.002Z</time></trkpt><trkpt lat="43.42290899130206" lon="12.498007563814692"><ele>660.2</ele><time>2026-04-29T11:50:17.002Z</time></trkpt><trkpt lat="43.42282157451809" lon="12.498023563884436"><ele>658.6</ele><time>2026-04-29T11:50:18.002Z</time></trkpt><trkpt lat="43.42274929099933" lon="12.49803139376051"><ele>657.0</ele><time>2026-04-29T11:50:19.002Z</time></trkpt><trkpt lat="43.42264384693711" lon="12.498007120114218"><ele>655.6666666666666</ele><time>2026-04-29T11:50:21.002Z</time></trkpt><trkpt lat="43.42259597914322" lon="12.497879708339209"><ele>654.3333333333334</ele><time>2026-04-29T11:50:23.002Z</time></trkpt><trkpt lat="43.422617134185835" lon="12.497783684434284"><ele>653.0</ele><time>2026-04-29T11:50:24.002Z</time></trkpt><trkpt lat="43.42260360501287" lon="12.497678546596074"><ele>651.6666666666667</ele><time>2026-04-29T11:50:25.002Z</time></trkpt><trkpt lat="43.42261150428814" lon="12.497559400308258"><ele>650.3333333333334</ele><time>2026-04-29T11:50:26.002Z</time></trkpt><trkpt lat="43.42262245336573" lon="12.49743731197957"><ele>649.0</ele><time>2026-04-29T11:50:27.002Z</time></trkpt><trkpt lat="43.42263683367136" lon="12.497310043677471"><ele>649.0</ele><time>2026-04-29T11:50:28.002Z</time></trkpt><trkpt lat="43.42264947896811" lon="12.497201838809683"><ele>649.0</ele><time>2026-04-29T11:50:29.002Z</time></trkpt><trkpt lat="43.42268089588102" lon="12.49710328629424"><ele>649.0</ele><time>2026-04-29T11:50:30.002Z</time></trkpt><trkpt lat="43.42272454773566" lon="12.497011487920082"><ele>649.0</ele><time>2026-04-29T11:50:31.002Z</time></trkpt><trkpt lat="43.42276656200055" lon="12.496921599370738"><ele>649.0</ele><time>2026-04-29T11:50:32.002Z</time></trkpt><trkpt lat="43.42279061945405" lon="12.496821045206001"><ele>649.0</ele><time>2026-04-29T11:50:33.002Z</time></trkpt><trkpt lat="43.42279460143535" lon="12.496712035119991"><ele>649.1666666666667</ele><time>2026-04-29T11:50:34.002Z</time></trkpt><trkpt lat="43.422777967328194" lon="12.496606015351496"><ele>649.3333333333334</ele><time>2026-04-29T11:50:35.002Z</time></trkpt><trkpt lat="43.42275634630848" lon="12.496494780146813"><ele>649.5</ele><time>2026-04-29T11:50:36.002Z</time></trkpt><trkpt lat="43.422729709651676" lon="12.496381634413407"><ele>649.6666666666666</ele><time>2026-04-29T11:50:37.002Z</time></trkpt><trkpt lat="43.42270555658334" lon="12.496263615939638"><ele>649.8333333333333</ele><time>2026-04-29T11:50:38.002Z</time></trkpt><trkpt lat="43.42267857498222" lon="12.496141286168493"><ele>650.0</ele><time>2026-04-29T11:50:39.002Z</time></trkpt><trkpt lat="43.4226487250125" lon="12.496023849249594"><ele>650.0</ele><time>2026-04-29T11:50:40.002Z</time></trkpt><trkpt lat="43.42260884909141" lon="12.49592465418609"><ele>650.0</ele><time>2026-04-29T11:50:41.002Z</time></trkpt><trkpt lat="43.42255058450338" lon="12.49584507766148"><ele>650.0</ele><time>2026-04-29T11:50:42.002Z</time></trkpt><trkpt lat="43.42247641471158" lon="12.495786745139975"><ele>650.0</ele><time>2026-04-29T11:50:43.002Z</time></trkpt><trkpt lat="43.42239644348295" lon="12.49575388740981"><ele>650.0</ele><time>2026-04-29T11:50:44.002Z</time></trkpt><trkpt lat="43.42231809304474" lon="12.495734405284779"><ele>650.0</ele><time>2026-04-29T11:50:45.002Z</time></trkpt><trkpt lat="43.42224639356648" lon="12.495678970924361"><ele>650.0</ele><time>2026-04-29T11:50:46.002Z</time></trkpt><trkpt lat="43.422170929913996" lon="12.495632012111065"><ele>650.0</ele><time>2026-04-29T11:50:47.002Z</time></trkpt><trkpt lat="43.42209294078727" lon="12.495578602542615"><ele>650.0</ele><time>2026-04-29T11:50:48.002Z</time></trkpt><trkpt lat="43.422003675013244" lon="12.495540267631918"><ele>650.0</ele><time>2026-04-29T11:50:49.002Z</time></trkpt><trkpt lat="43.42192009721083" lon="12.495478346097018"><ele>650.0</ele><time>2026-04-29T11:50:50.001Z</time></trkpt><trkpt lat="43.421835925643485" lon="12.495415462284777"><ele>648.8</ele><time>2026-04-29T11:50:51.001Z</time></trkpt><trkpt lat="43.421756326709435" lon="12.495355744227268"><ele>647.6</ele><time>2026-04-29T11:50:52.001Z</time></trkpt><trkpt lat="43.42167719772748" lon="12.495292811493501"><ele>646.4000000000001</ele><time>2026-04-29T11:50:53.001Z</time></trkpt><trkpt lat="43.421598625525675" lon="12.495212675668807"><ele>645.2</ele><time>2026-04-29T11:50:54Z</time></trkpt><trkpt lat="43.42153700117625" lon="12.495108798452428"><ele>644.0</ele><time>2026-04-29T11:50:55.001Z</time></trkpt><trkpt lat="43.421465523527665" lon="12.495014330999599"><ele>644.0</ele><time>2026-04-29T11:50:56Z</time></trkpt><trkpt lat="43.42138745357786" lon="12.494945687823941"><ele>644.0</ele><time>2026-04-29T11:50:57Z</time></trkpt><trkpt lat="43.42131564946651" lon="12.494880897070324"><ele>644.0</ele><time>2026-04-29T11:50:58Z</time></trkpt><trkpt lat="43.42123335201443" lon="12.494840780820594"><ele>644.0</ele><time>2026-04-29T11:50:59Z</time></trkpt><trkpt lat="43.421145964384685" lon="12.494843434732116"><ele>644.0</ele><time>2026-04-29T11:51:00Z</time></trkpt><trkpt lat="43.42105134590527" lon="12.494867876594196"><ele>644.0</ele><time>2026-04-29T11:51:01Z</time></trkpt><trkpt lat="43.42094669804753" lon="12.494902436262933"><ele>641.2</ele><time>2026-04-29T11:51:02Z</time></trkpt><trkpt lat="43.42083542342281" lon="12.494927111094048"><ele>638.4000000000001</ele><time>2026-04-29T11:51:03Z</time></trkpt><trkpt lat="43.42073677077779" lon="12.494958591973527"><ele>635.6</ele><time>2026-04-29T11:51:04Z</time></trkpt><trkpt lat="43.4206450839453" lon="12.494977948683264"><ele>632.8</ele><time>2026-04-29T11:51:05Z</time></trkpt><trkpt lat="43.420558098377995" lon="12.494988278203765"><ele>630.0</ele><time>2026-04-29T11:51:06Z</time></trkpt><trkpt lat="43.42047013990896" lon="12.494931440831298"><ele>626.4</ele><time>2026-04-29T11:51:07Z</time></trkpt><trkpt lat="43.420373023402384" lon="12.494897937341017"><ele>622.8</ele><time>2026-04-29T11:51:08Z</time></trkpt><trkpt lat="43.420289838104004" lon="12.49483582951914"><ele>619.2</ele><time>2026-04-29T11:51:09Z</time></trkpt><trkpt lat="43.42021080337981" lon="12.49475919945933"><ele>615.6</ele><time>2026-04-29T11:51:10Z</time></trkpt><trkpt lat="43.42013324670028" lon="12.494680236979027"><ele>612.0</ele><time>2026-04-29T11:51:11Z</time></trkpt><trkpt lat="43.42005537121005" lon="12.494588070434562"><ele>611.8000000000001</ele><time>2026-04-29T11:51:12.001Z</time></trkpt><trkpt lat="43.419976606526866" lon="12.494496084945325"><ele>611.6</ele><time>2026-04-29T11:51:13.001Z</time></trkpt><trkpt lat="43.419898349949065" lon="12.494409523826098"><ele>611.4000000000001</ele><time>2026-04-29T11:51:14.001Z</time></trkpt><trkpt lat="43.41981441492716" lon="12.49434514870184"><ele>611.2</ele><time>2026-04-29T11:51:15.001Z</time></trkpt><trkpt lat="43.419724028471826" lon="12.494306767962092"><ele>611.0</ele><time>2026-04-29T11:51:16.001Z</time></trkpt><trkpt lat="43.41962900307383" lon="12.494283996843834"><ele>611.0</ele><time>2026-04-29T11:51:17.001Z</time></trkpt><trkpt lat="43.419533088517696" lon="12.494289703058774"><ele>611.0</ele><time>2026-04-29T11:51:18.001Z</time></trkpt><trkpt lat="43.419436059762404" lon="12.49428978554327"><ele>611.0</ele><time>2026-04-29T11:51:19.001Z</time></trkpt><trkpt lat="43.41934170634084" lon="12.494322632529968"><ele>611.0</ele><time>2026-04-29T11:51:20.001Z</time></trkpt><trkpt lat="43.419265889515785" lon="12.494401809956111"><ele>611.0</ele><time>2026-04-29T11:51:21.001Z</time></trkpt><trkpt lat="43.41918622320903" lon="12.494451437781795"><ele>611.0</ele><time>2026-04-29T11:51:22.001Z</time></trkpt><trkpt lat="43.41914140341966" lon="12.494568224504466"><ele>611.0</ele><time>2026-04-29T11:51:23.001Z</time></trkpt><trkpt lat="43.41908572523277" lon="12.494670744176343"><ele>611.0</ele><time>2026-04-29T11:51:24.001Z</time></trkpt><trkpt lat="43.41901823273166" lon="12.494739379437547"><ele>611.0</ele><time>2026-04-29T11:51:25.001Z</time></trkpt><trkpt lat="43.41895780992391" lon="12.4948098750637"><ele>611.0</ele><time>2026-04-29T11:51:26.001Z</time></trkpt><trkpt lat="43.41888419750703" lon="12.494833112572156"><ele>611.0</ele><time>2026-04-29T11:51:27.001Z</time></trkpt><trkpt lat="43.418803404392435" lon="12.494834985433098"><ele>610.1666666666666</ele><time>2026-04-29T11:51:28.001Z</time></trkpt><trkpt lat="43.4187190356231" lon="12.494831016706629"><ele>609.3333333333333</ele><time>2026-04-29T11:51:29.001Z</time></trkpt><trkpt lat="43.41864042920001" lon="12.494799259516872"><ele>608.5</ele><time>2026-04-29T11:51:30.001Z</time></trkpt><trkpt lat="43.4185639650697" lon="12.494751324392366"><ele>607.6666666666666</ele><time>2026-04-29T11:51:31.001Z</time></trkpt><trkpt lat="43.41847916702011" lon="12.494711362911843"><ele>606.8333333333334</ele><time>2026-04-29T11:51:32.001Z</time></trkpt><trkpt lat="43.41840341013109" lon="12.494636574226684"><ele>606.0</ele><time>2026-04-29T11:51:33.001Z</time></trkpt><trkpt lat="43.41832605375591" lon="12.494554784050168"><ele>606.0</ele><time>2026-04-29T11:51:34.001Z</time></trkpt><trkpt lat="43.418248256806635" lon="12.494474989205905"><ele>606.0</ele><time>2026-04-29T11:51:35.001Z</time></trkpt><trkpt lat="43.418177334617184" lon="12.494392971556655"><ele>606.0</ele><time>2026-04-29T11:51:36.001Z</time></trkpt><trkpt lat="43.418111082313054" lon="12.49431327879673"><ele>606.0</ele><time>2026-04-29T11:51:37.001Z</time></trkpt><trkpt lat="43.41805249977841" lon="12.494225576042924"><ele>606.0</ele><time>2026-04-29T11:51:38.001Z</time></trkpt><trkpt lat="43.417997475202526" lon="12.494126750706009"><ele>600.6</ele><time>2026-04-29T11:51:39.001Z</time></trkpt><trkpt lat="43.417945347151495" lon="12.494018413068426"><ele>595.2</ele><time>2026-04-29T11:51:40.001Z</time></trkpt><trkpt lat="43.41789685147892" lon="12.493898272217281"><ele>589.8</ele><time>2026-04-29T11:51:41.001Z</time></trkpt><trkpt lat="43.417845111769076" lon="12.493770248885605"><ele>584.4</ele><time>2026-04-29T11:51:42.001Z</time></trkpt><trkpt lat="43.41778621766257" lon="12.493649765647053"><ele>579.0</ele><time>2026-04-29T11:51:43.001Z</time></trkpt><trkpt lat="43.41772502421981" lon="12.493534133994133"><ele>578.6</ele><time>2026-04-29T11:51:44.001Z</time></trkpt><trkpt lat="43.41766818501594" lon="12.493430746996678"><ele>578.2</ele><time>2026-04-29T11:51:45.001Z</time></trkpt><trkpt lat="43.4175886131684" lon="12.49334576294605"><ele>577.8000000000001</ele><time>2026-04-29T11:51:46.001Z</time></trkpt><trkpt lat="43.41752448943169" lon="12.493258684356269"><ele>577.4</ele><time>2026-04-29T11:51:47.001Z</time></trkpt><trkpt lat="43.417479066295094" lon="12.493157236479734"><ele>577.0</ele><time>2026-04-29T11:51:48.001Z</time></trkpt><trkpt lat="43.41744961215941" lon="12.49304215672642"><ele>577.0</ele><time>2026-04-29T11:51:49.001Z</time></trkpt><trkpt lat="43.41742233236276" lon="12.49292639349729"><ele>577.0</ele><time>2026-04-29T11:51:50.001Z</time></trkpt><trkpt lat="43.41741234978001" lon="12.492815775672522"><ele>577.0</ele><time>2026-04-29T11:51:51.001Z</time></trkpt><trkpt lat="43.41741552224537" lon="12.492722035421817"><ele>577.0</ele><time>2026-04-29T11:51:52.001Z</time></trkpt><trkpt lat="43.41743713221156" lon="12.492640197133728"><ele>577.0</ele><time>2026-04-29T11:51:53.001Z</time></trkpt><trkpt lat="43.417536993500875" lon="12.492542225778546"><ele>577.0</ele><time>2026-04-29T11:51:55.001Z</time></trkpt><trkpt lat="43.41760660126714" lon="12.492529823196188"><ele>576.6666666666667</ele><time>2026-04-29T11:51:56.001Z</time></trkpt><trkpt lat="43.417677719649106" lon="12.49252906342063"><ele>576.3333333333334</ele><time>2026-04-29T11:51:57.001Z</time></trkpt><trkpt lat="43.41775264100866" lon="12.492519863848916"><ele>576.0</ele><time>2026-04-29T11:51:58.001Z</time></trkpt><trkpt lat="43.41783106379695" lon="12.492501309231328"><ele>575.6666666666666</ele><time>2026-04-29T11:51:59.001Z</time></trkpt><trkpt lat="43.41790384292827" lon="12.492466818515402"><ele>575.3333333333333</ele><time>2026-04-29T11:52:00.001Z</time></trkpt><trkpt lat="43.41797734036693" lon="12.492429469590173"><ele>575.0</ele><time>2026-04-29T11:52:01.001Z</time></trkpt><trkpt lat="43.41804310811659" lon="12.492385946968342"><ele>575.0</ele><time>2026-04-29T11:52:02.001Z</time></trkpt><trkpt lat="43.41810796894263" lon="12.492354331813043"><ele>575.0</ele><time>2026-04-29T11:52:03.001Z</time></trkpt><trkpt lat="43.41820190651839" lon="12.492268536324522"><ele>575.0</ele><time>2026-04-29T11:52:05.001Z</time></trkpt><trkpt lat="43.41822982438626" lon="12.492105166067429"><ele>575.0</ele><time>2026-04-29T11:52:07.001Z</time></trkpt><trkpt lat="43.41822583350608" lon="12.4920180028435"><ele>575.0</ele><time>2026-04-29T11:52:08.001Z</time></trkpt><trkpt lat="43.41822610999855" lon="12.491929063991185"><ele>575.0</ele><time>2026-04-29T11:52:09.001Z</time></trkpt><trkpt lat="43.41824740063573" lon="12.491834988993402"><ele>573.0</ele><time>2026-04-29T11:52:10.001Z</time></trkpt><trkpt lat="43.41828691045216" lon="12.491750717855327"><ele>571.0</ele><time>2026-04-29T11:52:11.001Z</time></trkpt><trkpt lat="43.41834625031459" lon="12.49168843445854"><ele>569.0</ele><time>2026-04-29T11:52:12.001Z</time></trkpt><trkpt lat="43.418414408390255" lon="12.491643882156012"><ele>567.0</ele><time>2026-04-29T11:52:13.001Z</time></trkpt><trkpt lat="43.418485072155015" lon="12.491607199701852"><ele>565.0</ele><time>2026-04-29T11:52:14.001Z</time></trkpt><trkpt lat="43.4185671359551" lon="12.491523998881613"><ele>563.0</ele><time>2026-04-29T11:52:16.002Z</time></trkpt><trkpt lat="43.41857495679987" lon="12.491384286976912"><ele>563.0</ele><time>2026-04-29T11:52:18.002Z</time></trkpt><trkpt lat="43.41853738581756" lon="12.491299912832737"><ele>563.0</ele><time>2026-04-29T11:52:19.002Z</time></trkpt><trkpt lat="43.418484874576414" lon="12.491225713679459"><ele>563.0</ele><time>2026-04-29T11:52:20.002Z</time></trkpt><trkpt lat="43.4184366898529" lon="12.491144650140015"><ele>563.0</ele><time>2026-04-29T11:52:21.002Z</time></trkpt><trkpt lat="43.41836928916756" lon="12.49108974080586"><ele>563.0</ele><time>2026-04-29T11:52:22.002Z</time></trkpt><trkpt lat="43.418304156019325" lon="12.491040344511617"><ele>563.0</ele><time>2026-04-29T11:52:23.002Z</time></trkpt><trkpt lat="43.41823919606661" lon="12.4909919555015"><ele>562.8333333333333</ele><time>2026-04-29T11:52:24.002Z</time></trkpt><trkpt lat="43.418171262332386" lon="12.490956381625198"><ele>562.6666666666666</ele><time>2026-04-29T11:52:25.002Z</time></trkpt><trkpt lat="43.41810442480253" lon="12.490910887658242"><ele>562.5</ele><time>2026-04-29T11:52:26.002Z</time></trkpt><trkpt lat="43.41804511751761" lon="12.49083566359408"><ele>562.3333333333334</ele><time>2026-04-29T11:52:27.002Z</time></trkpt><trkpt lat="43.41797455965088" lon="12.490800770193383"><ele>562.1666666666667</ele><time>2026-04-29T11:52:28.002Z</time></trkpt><trkpt lat="43.417918697959514" lon="12.490751458157623"><ele>562.0</ele><time>2026-04-29T11:52:29.002Z</time></trkpt><trkpt lat="43.41781816883357" lon="12.490666707845898"><ele>558.8333333333334</ele><time>2026-04-29T11:52:31.002Z</time></trkpt><trkpt lat="43.417717854576985" lon="12.490597899465223"><ele>555.6666666666667</ele><time>2026-04-29T11:52:33.002Z</time></trkpt><trkpt lat="43.417652080732964" lon="12.490565511837566"><ele>552.5</ele><time>2026-04-29T11:52:34.002Z</time></trkpt><trkpt lat="43.41758304956397" lon="12.490541444553715"><ele>549.3333333333334</ele><time>2026-04-29T11:52:35.002Z</time></trkpt><trkpt lat="43.41751908895651" lon="12.49052502448475"><ele>546.1666666666666</ele><time>2026-04-29T11:52:36.002Z</time></trkpt><trkpt lat="43.41741481105153" lon="12.490460069882797"><ele>543.0</ele><time>2026-04-29T11:52:38.002Z</time></trkpt><trkpt lat="43.41738485898881" lon="12.490323561351845"><ele>543.0</ele><time>2026-04-29T11:52:40.002Z</time></trkpt><trkpt lat="43.41739517384632" lon="12.49023666342771"><ele>543.0</ele><time>2026-04-29T11:52:41.002Z</time></trkpt><trkpt lat="43.41739922664346" lon="12.490147429294852"><ele>543.0</ele><time>2026-04-29T11:52:42.002Z</time></trkpt><trkpt lat="43.417410747454674" lon="12.4900518025451"><ele>543.0</ele><time>2026-04-29T11:52:43.002Z</time></trkpt><trkpt lat="43.41743500571933" lon="12.489955955241815"><ele>543.0</ele><time>2026-04-29T11:52:44.002Z</time></trkpt><trkpt lat="43.41746076754654" lon="12.489862069010721"><ele>543.0</ele><time>2026-04-29T11:52:45.002Z</time></trkpt><trkpt lat="43.41749638394019" lon="12.489765659471395"><ele>543.0</ele><time>2026-04-29T11:52:46.002Z</time></trkpt><trkpt lat="43.41753329376724" lon="12.489671283427127"><ele>542.5</ele><time>2026-04-29T11:52:47.002Z</time></trkpt><trkpt lat="43.417567268744946" lon="12.489570897707777"><ele>542.0</ele><time>2026-04-29T11:52:48.002Z</time></trkpt><trkpt lat="43.417596066222615" lon="12.48946749343438"><ele>541.5</ele><time>2026-04-29T11:52:49.002Z</time></trkpt><trkpt lat="43.41761376635351" lon="12.489361109939741"><ele>541.0</ele><time>2026-04-29T11:52:50.002Z</time></trkpt><trkpt lat="43.41761664890405" lon="12.489251980613114"><ele>540.5</ele><time>2026-04-29T11:52:51.002Z</time></trkpt><trkpt lat="43.41760318890632" lon="12.489144734234285"><ele>540.0</ele><time>2026-04-29T11:52:52.002Z</time></trkpt><trkpt lat="43.41758901633892" lon="12.489033040637525"><ele>540.0</ele><time>2026-04-29T11:52:53.002Z</time></trkpt><trkpt lat="43.41756386653501" lon="12.4889266474569"><ele>540.0</ele><time>2026-04-29T11:52:54.002Z</time></trkpt><trkpt lat="43.4175375975049" lon="12.488814400112531"><ele>540.0</ele><time>2026-04-29T11:52:55.002Z</time></trkpt><trkpt lat="43.41750585356794" lon="12.488704873160104"><ele>540.0</ele><time>2026-04-29T11:52:56Z</time></trkpt><trkpt lat="43.4174671964338" lon="12.488595120401376"><ele>540.0</ele><time>2026-04-29T11:52:57Z</time></trkpt><trkpt lat="43.417429142564906" lon="12.488483101208038"><ele>540.0</ele><time>2026-04-29T11:52:58Z</time></trkpt><trkpt lat="43.417400227721096" lon="12.488373730605447"><ele>539.8</ele><time>2026-04-29T11:52:59Z</time></trkpt><trkpt lat="43.41738056300116" lon="12.488255113330366"><ele>539.6</ele><time>2026-04-29T11:53:00Z</time></trkpt><trkpt lat="43.41737036021443" lon="12.488119810171899"><ele>539.4</ele><time>2026-04-29T11:53:01Z</time></trkpt><trkpt lat="43.41735867876894" lon="12.487971838140355"><ele>539.2</ele><time>2026-04-29T11:53:02Z</time></trkpt><trkpt lat="43.417347644447354" lon="12.487823785295623"><ele>539.0</ele><time>2026-04-29T11:53:03Z</time></trkpt><trkpt lat="43.41733821402461" lon="12.48767255448017"><ele>537.4</ele><time>2026-04-29T11:53:04Z</time></trkpt><trkpt lat="43.41732824805784" lon="12.487522298680295"><ele>535.8</ele><time>2026-04-29T11:53:05Z</time></trkpt><trkpt lat="43.41731296431087" lon="12.487374719658332"><ele>534.2</ele><time>2026-04-29T11:53:06Z</time></trkpt><trkpt lat="43.41729614262607" lon="12.487228524904252"><ele>532.6</ele><time>2026-04-29T11:53:07Z</time></trkpt><trkpt lat="43.41728428866072" lon="12.487082122874101"><ele>531.0</ele><time>2026-04-29T11:53:08Z</time></trkpt><trkpt lat="43.41727479884026" lon="12.486935660522757"><ele>530.0</ele><time>2026-04-29T11:53:09Z</time></trkpt><trkpt lat="43.41726414469511" lon="12.486797195948942"><ele>529.0</ele><time>2026-04-29T11:53:10Z</time></trkpt><trkpt lat="43.41724954163493" lon="12.486675979943431"><ele>528.0</ele><time>2026-04-29T11:53:11Z</time></trkpt><trkpt lat="43.41723681630652" lon="12.486558672681317"><ele>527.0</ele><time>2026-04-29T11:53:12Z</time></trkpt><trkpt lat="43.41721669447147" lon="12.486449314262826"><ele>526.0</ele><time>2026-04-29T11:53:13Z</time></trkpt><trkpt lat="43.41717998239338" lon="12.486334994748283"><ele>525.0</ele><time>2026-04-29T11:53:14Z</time></trkpt><trkpt lat="43.417128052403186" lon="12.486231750934"><ele>520.8</ele><time>2026-04-29T11:53:15Z</time></trkpt><trkpt lat="43.4170662222259" lon="12.486129507350814"><ele>516.6</ele><time>2026-04-29T11:53:16Z</time></trkpt><trkpt lat="43.417013987592085" lon="12.486020742761324"><ele>512.4</ele><time>2026-04-29T11:53:17Z</time></trkpt><trkpt lat="43.416942560761896" lon="12.485951111581771"><ele>508.2</ele><time>2026-04-29T11:53:18Z</time></trkpt><trkpt lat="43.41686020083688" lon="12.485905302213178"><ele>504.0</ele><time>2026-04-29T11:53:19.001Z</time></trkpt><trkpt lat="43.41677307097974" lon="12.48586747915323"><ele>504.0</ele><time>2026-04-29T11:53:20.001Z</time></trkpt><trkpt lat="43.41667494005594" lon="12.485831225690285"><ele>504.0</ele><time>2026-04-29T11:53:21.001Z</time></trkpt><trkpt lat="43.41656306725501" lon="12.485792809568865"><ele>504.0</ele><time>2026-04-29T11:53:22.001Z</time></trkpt><trkpt lat="43.416434635919494" lon="12.485755728592965"><ele>504.0</ele><time>2026-04-29T11:53:23.001Z</time></trkpt><trkpt lat="43.41626820588425" lon="12.485716816758165"><ele>504.5</ele><time>2026-04-29T11:53:24.001Z</time></trkpt><trkpt lat="43.41611305665147" lon="12.485651717788357"><ele>505.0</ele><time>2026-04-29T11:53:25.001Z</time></trkpt><trkpt lat="43.41598828281979" lon="12.485598197895092"><ele>505.5</ele><time>2026-04-29T11:53:26.001Z</time></trkpt><trkpt lat="43.415894160537384" lon="12.485534691433484"><ele>506.0</ele><time>2026-04-29T11:53:27.001Z</time></trkpt><trkpt lat="43.41582858918377" lon="12.485450434722363"><ele>504.6</ele><time>2026-04-29T11:53:28.001Z</time></trkpt><trkpt lat="43.41580613259318" lon="12.485331159639486"><ele>503.20000000000005</ele><time>2026-04-29T11:53:29.001Z</time></trkpt><trkpt lat="43.4158077545541" lon="12.485187727426085"><ele>501.79999999999995</ele><time>2026-04-29T11:53:30.001Z</time></trkpt><trkpt lat="43.41582641357115" lon="12.485040129130034"><ele>500.4</ele><time>2026-04-29T11:53:31.001Z</time></trkpt><trkpt lat="43.41582725831415" lon="12.48490743157147"><ele>499.0</ele><time>2026-04-29T11:53:32.001Z</time></trkpt><trkpt lat="43.41579338116569" lon="12.484796293737865"><ele>499.0</ele><time>2026-04-29T11:53:33.001Z</time></trkpt><trkpt lat="43.415724745020775" lon="12.484686496355542"><ele>499.0</ele><time>2026-04-29T11:53:34.001Z</time></trkpt><trkpt lat="43.41565219176541" lon="12.484575825807752"><ele>499.0</ele><time>2026-04-29T11:53:35.001Z</time></trkpt><trkpt lat="43.415564042489656" lon="12.484520252589244"><ele>499.0</ele><time>2026-04-29T11:53:36.001Z</time></trkpt><trkpt lat="43.41546728976876" lon="12.484481328948478"><ele>499.0</ele><time>2026-04-29T11:53:37.001Z</time></trkpt><trkpt lat="43.415355509019975" lon="12.484477887275716"><ele>500.25</ele><time>2026-04-29T11:53:38.001Z</time></trkpt><trkpt lat="43.415229341881464" lon="12.484474230659785"><ele>501.5</ele><time>2026-04-29T11:53:39.001Z</time></trkpt><trkpt lat="43.41509621579166" lon="12.484471993134548"><ele>502.75</ele><time>2026-04-29T11:53:40.001Z</time></trkpt><trkpt lat="43.41496076677739" lon="12.484423046282412"><ele>504.0</ele><time>2026-04-29T11:53:41.001Z</time></trkpt><trkpt lat="43.41482629232918" lon="12.484355338878398"><ele>504.0</ele><time>2026-04-29T11:53:42.001Z</time></trkpt><trkpt lat="43.414683351783324" lon="12.484299010165817"><ele>504.0</ele><time>2026-04-29T11:53:43.001Z</time></trkpt><trkpt lat="43.4145405894828" lon="12.4842440235729"><ele>504.0</ele><time>2026-04-29T11:53:44.001Z</time></trkpt><trkpt lat="43.41439729709274" lon="12.4842349586535"><ele>504.0</ele><time>2026-04-29T11:53:45.001Z</time></trkpt><trkpt lat="43.41426477396074" lon="12.484262924035487"><ele>505.75</ele><time>2026-04-29T11:53:46.001Z</time></trkpt><trkpt lat="43.41414506220257" lon="12.484321478482427"><ele>507.5</ele><time>2026-04-29T11:53:47.001Z</time></trkpt><trkpt lat="43.41402681810285" lon="12.484412682021876"><ele>509.25</ele><time>2026-04-29T11:53:48.001Z</time></trkpt><trkpt lat="43.41390926330802" lon="12.48451099927045"><ele>511.0</ele><time>2026-04-29T11:53:49.001Z</time></trkpt><trkpt lat="43.413786537695636" lon="12.484596184096379"><ele>515.25</ele><time>2026-04-29T11:53:50.001Z</time></trkpt><trkpt lat="43.413656249196414" lon="12.484672557169825"><ele>519.5</ele><time>2026-04-29T11:53:51.001Z</time></trkpt><trkpt lat="43.41352222600121" lon="12.484743833736365"><ele>523.75</ele><time>2026-04-29T11:53:52.001Z</time></trkpt><trkpt lat="43.4133870492674" lon="12.484815723818569"><ele>528.0</ele><time>2026-04-29T11:53:53.001Z</time></trkpt><trkpt lat="43.41325245726913" lon="12.484879002678793"><ele>528.0</ele><time>2026-04-29T11:53:54.001Z</time></trkpt><trkpt lat="43.41311499324731" lon="12.484917734243043"><ele>528.0</ele><time>2026-04-29T11:53:55.001Z</time></trkpt><trkpt lat="43.41299242524942" lon="12.484927271226045"><ele>528.0</ele><time>2026-04-29T11:53:56.001Z</time></trkpt><trkpt lat="43.41287735074123" lon="12.48492616344692"><ele>528.0</ele><time>2026-04-29T11:53:57.001Z</time></trkpt><trkpt lat="43.41275832529093" lon="12.484917341589414"><ele>529.25</ele><time>2026-04-29T11:53:58.001Z</time></trkpt><trkpt lat="43.412635331616336" lon="12.484911066822937"><ele>530.5</ele><time>2026-04-29T11:53:59.001Z</time></trkpt><trkpt lat="43.41251763320875" lon="12.484854939240622"><ele>531.75</ele><time>2026-04-29T11:54:00.001Z</time></trkpt><trkpt lat="43.412418474910986" lon="12.48476526156278"><ele>533.0</ele><time>2026-04-29T11:54:01.001Z</time></trkpt><trkpt lat="43.41234769637002" lon="12.484639764803024"><ele>532.5</ele><time>2026-04-29T11:54:02.001Z</time></trkpt><trkpt lat="43.41228577629912" lon="12.484474679298193"><ele>532.0</ele><time>2026-04-29T11:54:03.001Z</time></trkpt><trkpt lat="43.41222714813836" lon="12.484307904253445"><ele>531.5</ele><time>2026-04-29T11:54:04.001Z</time></trkpt><trkpt lat="43.41215789022377" lon="12.484155912562713"><ele>531.0</ele><time>2026-04-29T11:54:05.001Z</time></trkpt><trkpt lat="43.41207170365917" lon="12.484017319953143"><ele>531.0</ele><time>2026-04-29T11:54:06.001Z</time></trkpt><trkpt lat="43.41196651960621" lon="12.483883192991922"><ele>531.0</ele><time>2026-04-29T11:54:07.001Z</time></trkpt><trkpt lat="43.41185366109544" lon="12.483745455232567"><ele>531.0</ele><time>2026-04-29T11:54:08.001Z</time></trkpt><trkpt lat="43.41174070998271" lon="12.483592527209478"><ele>531.0</ele><time>2026-04-29T11:54:09.001Z</time></trkpt><trkpt lat="43.41163478214133" lon="12.483446986641818"><ele>531.0</ele><time>2026-04-29T11:54:10.001Z</time></trkpt><trkpt lat="43.41155289540184" lon="12.483287397881167"><ele>531.0</ele><time>2026-04-29T11:54:11.001Z</time></trkpt><trkpt lat="43.41145243739727" lon="12.483162335948215"><ele>531.0</ele><time>2026-04-29T11:54:12.001Z</time></trkpt><trkpt lat="43.41136229240831" lon="12.483031818934952"><ele>530.25</ele><time>2026-04-29T11:54:13.001Z</time></trkpt><trkpt lat="43.411263402227306" lon="12.482909250405173"><ele>529.5</ele><time>2026-04-29T11:54:14.001Z</time></trkpt><trkpt lat="43.411167654724586" lon="12.482778020900469"><ele>528.75</ele><time>2026-04-29T11:54:15.001Z</time></trkpt><trkpt lat="43.411079764300865" lon="12.482643078023688"><ele>528.0</ele><time>2026-04-29T11:54:16.001Z</time></trkpt><trkpt lat="43.41098981728693" lon="12.482512177453161"><ele>528.0</ele><time>2026-04-29T11:54:17.001Z</time></trkpt><trkpt lat="43.41090971749435" lon="12.482356909570802"><ele>528.0</ele><time>2026-04-29T11:54:18.001Z</time></trkpt><trkpt lat="43.41081330370503" lon="12.482213988903577"><ele>528.0</ele><time>2026-04-29T11:54:19.001Z</time></trkpt><trkpt lat="43.41070732870232" lon="12.48209278227685"><ele>528.0</ele><time>2026-04-29T11:54:20.001Z</time></trkpt><trkpt lat="43.410610594648496" lon="12.481979264152068"><ele>527.0</ele><time>2026-04-29T11:54:21.001Z</time></trkpt><trkpt lat="43.41051895872533" lon="12.48187420041558"><ele>526.0</ele><time>2026-04-29T11:54:22.002Z</time></trkpt><trkpt lat="43.41043564435454" lon="12.481766349565145"><ele>525.0</ele><time>2026-04-29T11:54:23.002Z</time></trkpt><trkpt lat="43.41032996060382" lon="12.48170859699645"><ele>524.0</ele><time>2026-04-29T11:54:24.002Z</time></trkpt><trkpt lat="43.410227099949175" lon="12.481638632419964"><ele>526.4</ele><time>2026-04-29T11:54:25.002Z</time></trkpt><trkpt lat="43.410134375664036" lon="12.481548942560213"><ele>528.8</ele><time>2026-04-29T11:54:26.002Z</time></trkpt><trkpt lat="43.41003160579874" lon="12.4814962322874"><ele>531.2</ele><time>2026-04-29T11:54:27.002Z</time></trkpt><trkpt lat="43.40993292792396" lon="12.481472011467377"><ele>533.6</ele><time>2026-04-29T11:54:28.002Z</time></trkpt><trkpt lat="43.409845548403844" lon="12.481470660651855"><ele>536.0</ele><time>2026-04-29T11:54:29.002Z</time></trkpt><trkpt lat="43.40976240839029" lon="12.481499556669329"><ele>536.0</ele><time>2026-04-29T11:54:30.002Z</time></trkpt><trkpt lat="43.409699048894225" lon="12.481597739101"><ele>536.0</ele><time>2026-04-29T11:54:31.002Z</time></trkpt><trkpt lat="43.409651188389375" lon="12.481679998927204"><ele>536.0</ele><time>2026-04-29T11:54:32.002Z</time></trkpt><trkpt lat="43.40961291294805" lon="12.481784585497083"><ele>536.0</ele><time>2026-04-29T11:54:33.002Z</time></trkpt><trkpt lat="43.40959053532192" lon="12.481913098899843"><ele>536.0</ele><time>2026-04-29T11:54:34.002Z</time></trkpt><trkpt lat="43.4095686447312" lon="12.48206817649661"><ele>539.25</ele><time>2026-04-29T11:54:35.002Z</time></trkpt><trkpt lat="43.40954901989966" lon="12.482243695444692"><ele>542.5</ele><time>2026-04-29T11:54:36.002Z</time></trkpt><trkpt lat="43.40952885590969" lon="12.482423702472634"><ele>545.75</ele><time>2026-04-29T11:54:37.002Z</time></trkpt><trkpt lat="43.4095091306265" lon="12.48259979295313"><ele>549.0</ele><time>2026-04-29T11:54:38.002Z</time></trkpt><trkpt lat="43.4095062128376" lon="12.482776414815094"><ele>550.4</ele><time>2026-04-29T11:54:39.002Z</time></trkpt><trkpt lat="43.409484332465425" lon="12.482950519433427"><ele>551.8</ele><time>2026-04-29T11:54:40.002Z</time></trkpt><trkpt lat="43.40946947782328" lon="12.483123286539792"><ele>553.2</ele><time>2026-04-29T11:54:41.002Z</time></trkpt><trkpt lat="43.40946325402277" lon="12.483271350860083"><ele>554.6</ele><time>2026-04-29T11:54:42.002Z</time></trkpt><trkpt lat="43.409443095632774" lon="12.483386833954143"><ele>556.0</ele><time>2026-04-29T11:54:43.002Z</time></trkpt><trkpt lat="43.40940507312552" lon="12.483481476892887"><ele>556.0</ele><time>2026-04-29T11:54:44.002Z</time></trkpt><trkpt lat="43.40935259744044" lon="12.48356803348385"><ele>556.0</ele><time>2026-04-29T11:54:45.002Z</time></trkpt><trkpt lat="43.40929120239085" lon="12.483634988844425"><ele>556.0</ele><time>2026-04-29T11:54:46.002Z</time></trkpt><trkpt lat="43.40921153494472" lon="12.483670902695794"><ele>556.0</ele><time>2026-04-29T11:54:47.002Z</time></trkpt><trkpt lat="43.409133424924015" lon="12.483736326403996"><ele>556.0</ele><time>2026-04-29T11:54:48.002Z</time></trkpt><trkpt lat="43.409034753409095" lon="12.483819917663835"><ele>557.5</ele><time>2026-04-29T11:54:49.002Z</time></trkpt><trkpt lat="43.408921104432814" lon="12.483916279758011"><ele>559.0</ele><time>2026-04-29T11:54:50.002Z</time></trkpt><trkpt lat="43.408794799227216" lon="12.484023286294997"><ele>560.5</ele><time>2026-04-29T11:54:51.002Z</time></trkpt><trkpt lat="43.408670459525595" lon="12.484146848416842"><ele>562.0</ele><time>2026-04-29T11:54:52.002Z</time></trkpt><trkpt lat="43.40853768693784" lon="12.48424207288746"><ele>564.0</ele><time>2026-04-29T11:54:53.002Z</time></trkpt><trkpt lat="43.40839283722393" lon="12.484313907149977"><ele>566.0</ele><time>2026-04-29T11:54:54.002Z</time></trkpt><trkpt lat="43.408256910654025" lon="12.484400414272953"><ele>568.0</ele><time>2026-04-29T11:54:55.002Z</time></trkpt><trkpt lat="43.40813283900244" lon="12.484501570791563"><ele>570.0</ele><time>2026-04-29T11:54:56.002Z</time></trkpt><trkpt lat="43.408001462825574" lon="12.484573906599955"><ele>573.6</ele><time>2026-04-29T11:54:57.002Z</time></trkpt><trkpt lat="43.4078799008836" lon="12.484631353774102"><ele>577.2</ele><time>2026-04-29T11:54:58.002Z</time></trkpt><trkpt lat="43.40777350403081" lon="12.484630199408597"><ele>580.8</ele><time>2026-04-29T11:54:59.002Z</time></trkpt><trkpt lat="43.407675080961816" lon="12.484622694564484"><ele>584.4</ele><time>2026-04-29T11:55:00.002Z</time></trkpt><trkpt lat="43.40757513637382" lon="12.484640693417413"><ele>588.0</ele><time>2026-04-29T11:55:01.002Z</time></trkpt><trkpt lat="43.40746986071201" lon="12.48463603569643"><ele>588.0</ele><time>2026-04-29T11:55:02.001Z</time></trkpt><trkpt lat="43.40735665708299" lon="12.484642046453407"><ele>588.0</ele><time>2026-04-29T11:55:03.001Z</time></trkpt><trkpt lat="43.407235247588396" lon="12.484649945002422"><ele>588.0</ele><time>2026-04-29T11:55:04.001Z</time></trkpt><trkpt lat="43.407118017662214" lon="12.48465156488834"><ele>588.0</ele><time>2026-04-29T11:55:05.001Z</time></trkpt><trkpt lat="43.40702033044353" lon="12.484656401832265"><ele>588.6</ele><time>2026-04-29T11:55:06.001Z</time></trkpt><trkpt lat="43.40694096861741" lon="12.48465924393244"><ele>589.1999999999999</ele><time>2026-04-29T11:55:07.001Z</time></trkpt><trkpt lat="43.406874042246656" lon="12.484693731864857"><ele>589.8</ele><time>2026-04-29T11:55:08.001Z</time></trkpt><trkpt lat="43.40678231174565" lon="12.484729711626228"><ele>590.4</ele><time>2026-04-29T11:55:10.001Z</time></trkpt><trkpt lat="43.40672823915347" lon="12.484608432177204"><ele>591.0</ele><time>2026-04-29T11:55:13.001Z</time></trkpt><trkpt lat="43.406717285256946" lon="12.484442041727776"><ele>589.6666666666666</ele><time>2026-04-29T11:55:15Z</time></trkpt><trkpt lat="43.4067100356828" lon="12.484339301017538"><ele>588.3333333333334</ele><time>2026-04-29T11:55:16Z</time></trkpt><trkpt lat="43.40669951378707" lon="12.48423101612556"><ele>587.0</ele><time>2026-04-29T11:55:17.001Z</time></trkpt><trkpt lat="43.406685596061955" lon="12.484115240290217"><ele>585.6666666666667</ele><time>2026-04-29T11:55:18.001Z</time></trkpt><trkpt lat="43.40666340350952" lon="12.48399594110549"><ele>584.3333333333334</ele><time>2026-04-29T11:55:19.001Z</time></trkpt><trkpt lat="43.4066373665321" lon="12.483886086468956"><ele>583.0</ele><time>2026-04-29T11:55:20.001Z</time></trkpt><trkpt lat="43.40661101129698" lon="12.483787514253152"><ele>580.8</ele><time>2026-04-29T11:55:21.001Z</time></trkpt><trkpt lat="43.406594882245" lon="12.483698623182702"><ele>578.5999999999999</ele><time>2026-04-29T11:55:22.001Z</time></trkpt><trkpt lat="43.40660675474735" lon="12.483560845171873"><ele>576.4000000000001</ele><time>2026-04-29T11:55:24.001Z</time></trkpt><trkpt lat="43.4066912147353" lon="12.483499369960537"><ele>574.2</ele><time>2026-04-29T11:55:26.001Z</time></trkpt><trkpt lat="43.40678232981797" lon="12.483545180522587"><ele>572.0</ele><time>2026-04-29T11:55:27.001Z</time></trkpt><trkpt lat="43.406688556469696" lon="12.483315099169861"><ele>572.0</ele><time>2026-04-29T11:55:28.001Z</time></trkpt><trkpt lat="43.40671587756844" lon="12.483205558728937"><ele>572.0</ele><time>2026-04-29T11:55:29.001Z</time></trkpt><trkpt lat="43.40672098289604" lon="12.483083131907998"><ele>572.0</ele><time>2026-04-29T11:55:30.001Z</time></trkpt><trkpt lat="43.406709109708395" lon="12.482971784128312"><ele>572.0</ele><time>2026-04-29T11:55:31.001Z</time></trkpt><trkpt lat="43.40667623376295" lon="12.4828715671742"><ele>572.0</ele><time>2026-04-29T11:55:32.001Z</time></trkpt><trkpt lat="43.406637312522314" lon="12.48276836641904"><ele>572.0</ele><time>2026-04-29T11:55:33.001Z</time></trkpt><trkpt lat="43.40658813929135" lon="12.4826642729459"><ele>570.2</ele><time>2026-04-29T11:55:34.001Z</time></trkpt><trkpt lat="43.40654347095897" lon="12.482556147668072"><ele>568.4000000000001</ele><time>2026-04-29T11:55:35.001Z</time></trkpt><trkpt lat="43.406502906945356" lon="12.482444718159513"><ele>566.5999999999999</ele><time>2026-04-29T11:55:36.001Z</time></trkpt><trkpt lat="43.40645832925289" lon="12.482331336695268"><ele>564.8</ele><time>2026-04-29T11:55:37.001Z</time></trkpt><trkpt lat="43.40642128890453" lon="12.482209604254562"><ele>563.0</ele><time>2026-04-29T11:55:38.001Z</time></trkpt><trkpt lat="43.40640746185425" lon="12.482081144912403"><ele>561.4</ele><time>2026-04-29T11:55:39.001Z</time></trkpt><trkpt lat="43.406407465780966" lon="12.481949950174004"><ele>559.8</ele><time>2026-04-29T11:55:40.001Z</time></trkpt><trkpt lat="43.406409109305244" lon="12.481819434640265"><ele>558.2</ele><time>2026-04-29T11:55:41.001Z</time></trkpt><trkpt lat="43.40641331492274" lon="12.481681060183002"><ele>556.6</ele><time>2026-04-29T11:55:42.001Z</time></trkpt><trkpt lat="43.4064154944562" lon="12.481537456762657"><ele>555.0</ele><time>2026-04-29T11:55:43.001Z</time></trkpt><trkpt lat="43.406419822044114" lon="12.48138707700836"><ele>553.5</ele><time>2026-04-29T11:55:44.001Z</time></trkpt><trkpt lat="43.40643629387163" lon="12.481230147665844"><ele>552.0</ele><time>2026-04-29T11:55:45.001Z</time></trkpt><trkpt lat="43.406461659356495" lon="12.481072838760825"><ele>550.5</ele><time>2026-04-29T11:55:46.001Z</time></trkpt><trkpt lat="43.40648996639366" lon="12.480912082553681"><ele>549.0</ele><time>2026-04-29T11:55:47.001Z</time></trkpt><trkpt lat="43.40651564003956" lon="12.480755953438958"><ele>549.0</ele><time>2026-04-29T11:55:48.001Z</time></trkpt><trkpt lat="43.40653496445816" lon="12.480612305743625"><ele>549.0</ele><time>2026-04-29T11:55:49.001Z</time></trkpt><trkpt lat="43.40654376370332" lon="12.48047475070871"><ele>549.0</ele><time>2026-04-29T11:55:50.001Z</time></trkpt><trkpt lat="43.40653656489324" lon="12.480336798014303"><ele>549.0</ele><time>2026-04-29T11:55:51.001Z</time></trkpt><trkpt lat="43.406521297284414" lon="12.480202298514385"><ele>549.0</ele><time>2026-04-29T11:55:52.001Z</time></trkpt><trkpt lat="43.40651568771447" lon="12.48006491478199"><ele>547.8</ele><time>2026-04-29T11:55:53.001Z</time></trkpt><trkpt lat="43.4065344161501" lon="12.479929547630777"><ele>546.5999999999999</ele><time>2026-04-29T11:55:54.001Z</time></trkpt><trkpt lat="43.406563512392374" lon="12.479802103321436"><ele>545.4</ele><time>2026-04-29T11:55:55.001Z</time></trkpt><trkpt lat="43.40659919542007" lon="12.479676642563318"><ele>544.1999999999999</ele><time>2026-04-29T11:55:56.001Z</time></trkpt><trkpt lat="43.40663391736832" lon="12.479559309132592"><ele>543.0</ele><time>2026-04-29T11:55:57.001Z</time></trkpt><trkpt lat="43.40666848179733" lon="12.479445308973132"><ele>543.0</ele><time>2026-04-29T11:55:58.001Z</time></trkpt><trkpt lat="43.406700605979545" lon="12.479330872383347"><ele>543.0</ele><time>2026-04-29T11:55:59.001Z</time></trkpt><trkpt lat="43.40674150871838" lon="12.479216859048762"><ele>543.0</ele><time>2026-04-29T11:56:00.001Z</time></trkpt><trkpt lat="43.406784863032485" lon="12.479084338405789"><ele>543.0</ele><time>2026-04-29T11:56:01.001Z</time></trkpt><trkpt lat="43.406829350375624" lon="12.478963237720441"><ele>543.0</ele><time>2026-04-29T11:56:02.001Z</time></trkpt><trkpt lat="43.406853332773146" lon="12.47886540371145"><ele>543.0</ele><time>2026-04-29T11:56:03.001Z</time></trkpt><trkpt lat="43.4068618068053" lon="12.478778286609082"><ele>543.0</ele><time>2026-04-29T11:56:04.001Z</time></trkpt><trkpt lat="43.40681441366389" lon="12.478624865706527"><ele>543.0</ele><time>2026-04-29T11:56:06.001Z</time></trkpt><trkpt lat="43.40677652746929" lon="12.478514689905843"><ele>543.0</ele><time>2026-04-29T11:56:07.001Z</time></trkpt><trkpt lat="43.406734671250696" lon="12.478388346339495"><ele>543.0</ele><time>2026-04-29T11:56:08.001Z</time></trkpt><trkpt lat="43.40669950662472" lon="12.478272515158789"><ele>542.1666666666666</ele><time>2026-04-29T11:56:09.001Z</time></trkpt><trkpt lat="43.40666590576789" lon="12.478170696604849"><ele>541.3333333333334</ele><time>2026-04-29T11:56:10.001Z</time></trkpt><trkpt lat="43.40663982745568" lon="12.478068623710284"><ele>540.5</ele><time>2026-04-29T11:56:11.001Z</time></trkpt><trkpt lat="43.406618432628676" lon="12.477968837833073"><ele>539.6666666666667</ele><time>2026-04-29T11:56:12.001Z</time></trkpt><trkpt lat="43.406582698247426" lon="12.477883165792031"><ele>538.8333333333334</ele><time>2026-04-29T11:56:13.001Z</time></trkpt><trkpt lat="43.406565278086674" lon="12.477790743767326"><ele>538.0</ele><time>2026-04-29T11:56:14.001Z</time></trkpt><trkpt lat="43.40652032839535" lon="12.477636081264926"><ele>536.1999999999999</ele><time>2026-04-29T11:56:16.001Z</time></trkpt><trkpt lat="43.406419584486386" lon="12.477545443491199"><ele>534.4</ele><time>2026-04-29T11:56:18.001Z</time></trkpt><trkpt lat="43.40632318673508" lon="12.477508037727738"><ele>532.5999999999999</ele><time>2026-04-29T11:56:20.001Z</time></trkpt><trkpt lat="43.40621396680343" lon="12.477472701517362"><ele>530.8</ele><time>2026-04-29T11:56:22.001Z</time></trkpt><trkpt lat="43.40613657451479" lon="12.477443635441219"><ele>529.0</ele><time>2026-04-29T11:56:23.001Z</time></trkpt><trkpt lat="43.40605756117261" lon="12.4774064226781"><ele>528.4285714285714</ele><time>2026-04-29T11:56:24.001Z</time></trkpt><trkpt lat="43.40598240038214" lon="12.477363372684444"><ele>527.8571428571429</ele><time>2026-04-29T11:56:25.001Z</time></trkpt><trkpt lat="43.405912198626844" lon="12.477318771046843"><ele>527.2857142857142</ele><time>2026-04-29T11:56:26.001Z</time></trkpt><trkpt lat="43.40585069228014" lon="12.47727037269574"><ele>526.7142857142858</ele><time>2026-04-29T11:56:27.002Z</time></trkpt><trkpt lat="43.40579053538829" lon="12.477225488206766"><ele>526.1428571428571</ele><time>2026-04-29T11:56:28.002Z</time></trkpt><trkpt lat="43.405730599878204" lon="12.4771802820025"><ele>525.5714285714286</ele><time>2026-04-29T11:56:29.002Z</time></trkpt><trkpt lat="43.405671725618014" lon="12.477135142795385"><ele>525.0</ele><time>2026-04-29T11:56:30.002Z</time></trkpt><trkpt lat="43.405578282379174" lon="12.47705285049852"><ele>524.3333333333334</ele><time>2026-04-29T11:56:32.002Z</time></trkpt><trkpt lat="43.40553408597607" lon="12.47693353999619"><ele>523.6666666666666</ele><time>2026-04-29T11:56:34.002Z</time></trkpt><trkpt lat="43.405512264664125" lon="12.476770564533172"><ele>523.0</ele><time>2026-04-29T11:56:36.002Z</time></trkpt><trkpt lat="43.40548925456459" lon="12.476685143976344"><ele>522.3333333333333</ele><time>2026-04-29T11:56:37.002Z</time></trkpt><trkpt lat="43.40545206944078" lon="12.476598685755373"><ele>521.6666666666666</ele><time>2026-04-29T11:56:38.002Z</time></trkpt><trkpt lat="43.405400002913396" lon="12.47650300284828"><ele>521.0</ele><time>2026-04-29T11:56:39.002Z</time></trkpt><trkpt lat="43.40534525087494" lon="12.476410025824233"><ele>521.0</ele><time>2026-04-29T11:56:40.002Z</time></trkpt><trkpt lat="43.405306422683964" lon="12.476323570133033"><ele>521.0</ele><time>2026-04-29T11:56:41.002Z</time></trkpt><trkpt lat="43.4052874327196" lon="12.476233153717649"><ele>521.0</ele><time>2026-04-29T11:56:42.002Z</time></trkpt><trkpt lat="43.405281319362835" lon="12.476145514554474"><ele>521.0</ele><time>2026-04-29T11:56:43.002Z</time></trkpt><trkpt lat="43.40528639637355" lon="12.476051152783239"><ele>521.0</ele><time>2026-04-29T11:56:44.002Z</time></trkpt><trkpt lat="43.40530204850729" lon="12.475955516619155"><ele>521.0</ele><time>2026-04-29T11:56:45.002Z</time></trkpt><trkpt lat="43.405321181169356" lon="12.475852805663582"><ele>521.0</ele><time>2026-04-29T11:56:46.002Z</time></trkpt><trkpt lat="43.40534246292111" lon="12.4757423465066"><ele>518.8333333333333</ele><time>2026-04-29T11:56:47.002Z</time></trkpt><trkpt lat="43.40536861878858" lon="12.475628762724204"><ele>516.6666666666666</ele><time>2026-04-29T11:56:48.002Z</time></trkpt><trkpt lat="43.40540496911211" lon="12.475540406055035"><ele>514.5</ele><time>2026-04-29T11:56:49.002Z</time></trkpt><trkpt lat="43.40545129904966" lon="12.4754728119648"><ele>512.3333333333334</ele><time>2026-04-29T11:56:50.002Z</time></trkpt><trkpt lat="43.405507129762064" lon="12.47541275518092"><ele>510.1666666666667</ele><time>2026-04-29T11:56:51.002Z</time></trkpt><trkpt lat="43.40557716569686" lon="12.475354277208691"><ele>508.0</ele><time>2026-04-29T11:56:52.002Z</time></trkpt><trkpt lat="43.40565202596594" lon="12.475297273328968"><ele>506.4</ele><time>2026-04-29T11:56:53.002Z</time></trkpt><trkpt lat="43.405732879537446" lon="12.475241801881317"><ele>504.79999999999995</ele><time>2026-04-29T11:56:54.002Z</time></trkpt><trkpt lat="43.40581176314022" lon="12.47517953357131"><ele>503.2</ele><time>2026-04-29T11:56:55.002Z</time></trkpt><trkpt lat="43.405895434418944" lon="12.475110772332853"><ele>501.6</ele><time>2026-04-29T11:56:56.002Z</time></trkpt><trkpt lat="43.405977969222214" lon="12.47503945543217"><ele>500.0</ele><time>2026-04-29T11:56:57.002Z</time></trkpt><trkpt lat="43.40606689058189" lon="12.47495827467486"><ele>499.99999999999994</ele><time>2026-04-29T11:56:58.002Z</time></trkpt><trkpt lat="43.406149535678914" lon="12.47487701616072"><ele>500.0</ele><time>2026-04-29T11:56:59.002Z</time></trkpt><trkpt lat="43.406225724936476" lon="12.474813147789838"><ele>500.0</ele><time>2026-04-29T11:57:00.002Z</time></trkpt><trkpt lat="43.40629134100945" lon="12.474755783612418"><ele>500.0</ele><time>2026-04-29T11:57:01.002Z</time></trkpt><trkpt lat="43.40634691777745" lon="12.474704988440665"><ele>499.99999999999994</ele><time>2026-04-29T11:57:02.002Z</time></trkpt><trkpt lat="43.40641349119983" lon="12.474611550807973"><ele>500.0</ele><time>2026-04-29T11:57:04.002Z</time></trkpt><trkpt lat="43.40639940078677" lon="12.474526097736772"><ele>498.6</ele><time>2026-04-29T11:57:07.002Z</time></trkpt><trkpt lat="43.406365287007425" lon="12.474440613839288"><ele>497.2</ele><time>2026-04-29T11:57:09.001Z</time></trkpt><trkpt lat="43.406292145085914" lon="12.47430396947515"><ele>495.79999999999995</ele><time>2026-04-29T11:57:11.001Z</time></trkpt><trkpt lat="43.4062434820342" lon="12.47424478332138"><ele>494.4</ele><time>2026-04-29T11:57:12.001Z</time></trkpt><trkpt lat="43.406158897127966" lon="12.474148988028757"><ele>493.0</ele><time>2026-04-29T11:57:14.001Z</time></trkpt><trkpt lat="43.40611810061376" lon="12.473983148614627"><ele>492.50000000000006</ele><time>2026-04-29T11:57:16.001Z</time></trkpt><trkpt lat="43.40609732201446" lon="12.473891537049004"><ele>492.0</ele><time>2026-04-29T11:57:17.001Z</time></trkpt><trkpt lat="43.4060708198739" lon="12.473810271441234"><ele>491.5</ele><time>2026-04-29T11:57:18.001Z</time></trkpt><trkpt lat="43.40600896282554" lon="12.473656732169545"><ele>491.0</ele><time>2026-04-29T11:57:20.001Z</time></trkpt><trkpt lat="43.40596737211719" lon="12.473580664927297"><ele>490.50000000000006</ele><time>2026-04-29T11:57:21.001Z</time></trkpt><trkpt lat="43.405926830642535" lon="12.473508231018858"><ele>490.0</ele><time>2026-04-29T11:57:22.001Z</time></trkpt><trkpt lat="43.40588659778908" lon="12.473438535152837"><ele>488.6666666666667</ele><time>2026-04-29T11:57:23.001Z</time></trkpt><trkpt lat="43.405848045930874" lon="12.473368110338706"><ele>487.33333333333337</ele><time>2026-04-29T11:57:24.001Z</time></trkpt><trkpt lat="43.40580684560432" lon="12.473292329508634"><ele>486.0</ele><time>2026-04-29T11:57:25Z</time></trkpt><trkpt lat="43.40576102505134" lon="12.473221691939717"><ele>484.66666666666663</ele><time>2026-04-29T11:57:26Z</time></trkpt><trkpt lat="43.405714193594314" lon="12.47314835605467"><ele>483.3333333333333</ele><time>2026-04-29T11:57:27Z</time></trkpt><trkpt lat="43.405667096359" lon="12.47308363317818"><ele>482.0</ele><time>2026-04-29T11:57:28Z</time></trkpt><trkpt lat="43.40559186103595" lon="12.472970667633893"><ele>479.5</ele><time>2026-04-29T11:57:30Z</time></trkpt><trkpt lat="43.40554414126038" lon="12.472835864432803"><ele>477.0</ele><time>2026-04-29T11:57:32Z</time></trkpt><trkpt lat="43.40549680335847" lon="12.472693231822271"><ele>474.5</ele><time>2026-04-29T11:57:34Z</time></trkpt><trkpt lat="43.405440105171145" lon="12.472545924515192"><ele>472.0</ele><time>2026-04-29T11:57:35.999Z</time></trkpt><trkpt lat="43.40538586529004" lon="12.472400272976552"><ele>470.20000000000005</ele><time>2026-04-29T11:57:37.999Z</time></trkpt><trkpt lat="43.40534002649284" lon="12.472271175269578"><ele>468.40000000000003</ele><time>2026-04-29T11:57:39.999Z</time></trkpt><trkpt lat="43.40527003530632" lon="12.472175144939559"><ele>466.59999999999997</ele><time>2026-04-29T11:57:41.999Z</time></trkpt><trkpt lat="43.405176878103006" lon="12.472126509312693"><ele>464.79999999999995</ele><time>2026-04-29T11:57:43.999Z</time></trkpt><trkpt lat="43.40506044093201" lon="12.472110962644711"><ele>463.0</ele><time>2026-04-29T11:57:45.999Z</time></trkpt><trkpt lat="43.40499598171431" lon="12.472123133804493"><ele>463.0</ele><time>2026-04-29T11:57:46.999Z</time></trkpt><trkpt lat="43.40492538729826" lon="12.472129525411155"><ele>462.99999999999994</ele><time>2026-04-29T11:57:47.999Z</time></trkpt><trkpt lat="43.40485262164985" lon="12.472135335648682"><ele>463.0</ele><time>2026-04-29T11:57:48.999Z</time></trkpt><trkpt lat="43.40477975540292" lon="12.472138504840585"><ele>463.0</ele><time>2026-04-29T11:57:49.999Z</time></trkpt><trkpt lat="43.40470959519478" lon="12.472132451440874"><ele>462.99999999999994</ele><time>2026-04-29T11:57:50.999Z</time></trkpt><trkpt lat="43.40464035305754" lon="12.472129045361376"><ele>463.0</ele><time>2026-04-29T11:57:51.999Z</time></trkpt><trkpt lat="43.404576310644224" lon="12.472124124356663"><ele>463.0</ele><time>2026-04-29T11:57:52.999Z</time></trkpt><trkpt lat="43.40451257714956" lon="12.472120877239478"><ele>459.2</ele><time>2026-04-29T11:57:53.999Z</time></trkpt><trkpt lat="43.40439075828738" lon="12.472097744860752"><ele>455.4</ele><time>2026-04-29T11:57:55.999Z</time></trkpt><trkpt lat="43.40429474279083" lon="12.472046107326186"><ele>451.59999999999997</ele><time>2026-04-29T11:57:57.999Z</time></trkpt><trkpt lat="43.4042452754789" lon="12.471949724148361"><ele>447.79999999999995</ele><time>2026-04-29T11:57:59.999Z</time></trkpt><trkpt lat="43.40423929196229" lon="12.471794984503843"><ele>444.0</ele><time>2026-04-29T11:58:01.999Z</time></trkpt><trkpt lat="43.40424159969181" lon="12.47169670505728"><ele>444.0</ele><time>2026-04-29T11:58:02.999Z</time></trkpt><trkpt lat="43.40425305365075" lon="12.471595476841848"><ele>444.0</ele><time>2026-04-29T11:58:03.999Z</time></trkpt><trkpt lat="43.40425422403637" lon="12.471487781642512"><ele>444.0</ele><time>2026-04-29T11:58:04.999Z</time></trkpt><trkpt lat="43.404249049524516" lon="12.471391720543611"><ele>444.0</ele><time>2026-04-29T11:58:05.999Z</time></trkpt><trkpt lat="43.404235838317284" lon="12.471298112973454"><ele>444.0</ele><time>2026-04-29T11:58:06.999Z</time></trkpt><trkpt lat="43.40421677026721" lon="12.47121530938422"><ele>444.0</ele><time>2026-04-29T11:58:07.999Z</time></trkpt><trkpt lat="43.40418896866781" lon="12.47113369877513"><ele>444.0</ele><time>2026-04-29T11:58:08.999Z</time></trkpt><trkpt lat="43.40416115625099" lon="12.4710525702941"><ele>443.3333333333333</ele><time>2026-04-29T11:58:09.999Z</time></trkpt><trkpt lat="43.404132045742145" lon="12.47096235088156"><ele>442.66666666666663</ele><time>2026-04-29T11:58:10.999Z</time></trkpt><trkpt lat="43.40410940966195" lon="12.470871344056848"><ele>442.0</ele><time>2026-04-29T11:58:11.999Z</time></trkpt><trkpt lat="43.40408990170687" lon="12.470781822358118"><ele>441.3333333333333</ele><time>2026-04-29T11:58:12.999Z</time></trkpt><trkpt lat="43.404066056942554" lon="12.470692964009844"><ele>440.66666666666663</ele><time>2026-04-29T11:58:13.999Z</time></trkpt><trkpt lat="43.404042537825994" lon="12.470612331023975"><ele>440.0</ele><time>2026-04-29T11:58:14.999Z</time></trkpt><trkpt lat="43.40398835029643" lon="12.470480375487368"><ele>439.8333333333333</ele><time>2026-04-29T11:58:16.999Z</time></trkpt><trkpt lat="43.40393326451535" lon="12.47037671204439"><ele>439.66666666666663</ele><time>2026-04-29T11:58:18.999Z</time></trkpt><trkpt lat="43.40387888590806" lon="12.470326680258292"><ele>439.5</ele><time>2026-04-29T11:58:20.999Z</time></trkpt><trkpt lat="43.403791787469146" lon="12.470311968616498"><ele>439.33333333333337</ele><time>2026-04-29T11:58:22.999Z</time></trkpt><trkpt lat="43.40367134779871" lon="12.470321737843753"><ele>439.1666666666667</ele><time>2026-04-29T11:58:24.999Z</time></trkpt><trkpt lat="43.403609559381934" lon="12.470350501440858"><ele>439.0</ele><time>2026-04-29T11:58:25.999Z</time></trkpt><trkpt lat="43.4035008844252" lon="12.470424751174612"><ele>438.1666666666667</ele><time>2026-04-29T11:58:27.999Z</time></trkpt><trkpt lat="43.40339845256735" lon="12.47050014558343"><ele>437.33333333333337</ele><time>2026-04-29T11:58:29.999Z</time></trkpt><trkpt lat="43.40333731319747" lon="12.47055627538115"><ele>436.5</ele><time>2026-04-29T11:58:31.999Z</time></trkpt><trkpt lat="43.40327439007584" lon="12.470608980501519"><ele>435.66666666666663</ele><time>2026-04-29T11:58:34.999Z</time></trkpt><trkpt lat="43.40321597629471" lon="12.470663055720967"><ele>434.8333333333333</ele><time>2026-04-29T11:58:37.999Z</time></trkpt><trkpt lat="43.403159164095776" lon="12.470754576003795"><ele>434.0</ele><time>2026-04-29T11:58:40.999Z</time></trkpt><trkpt lat="43.40306776663613" lon="12.470863687003968"><ele>433.99999999999994</ele><time>2026-04-29T11:58:42.999Z</time></trkpt><trkpt lat="43.403000697729475" lon="12.470938944191378"><ele>434.0</ele><time>2026-04-29T11:58:43.999Z</time></trkpt><trkpt lat="43.402944130222586" lon="12.471003738461246"><ele>434.0</ele><time>2026-04-29T11:58:44.999Z</time></trkpt><trkpt lat="43.402881541556646" lon="12.471040247748682"><ele>434.0</ele><time>2026-04-29T11:58:45.999Z</time></trkpt><trkpt lat="43.40281621232769" lon="12.471068133803174"><ele>433.99999999999994</ele><time>2026-04-29T11:58:46.999Z</time></trkpt><trkpt lat="43.40274717153953" lon="12.47108604233586"><ele>434.0</ele><time>2026-04-29T11:58:47.999Z</time></trkpt><trkpt lat="43.402645046664944" lon="12.47116029096585"><ele>433.4</ele><time>2026-04-29T11:58:49.999Z</time></trkpt><trkpt lat="43.402570684236395" lon="12.471203199811226"><ele>432.79999999999995</ele><time>2026-04-29T11:58:51.999Z</time></trkpt><trkpt lat="43.40247726386967" lon="12.47120606693953"><ele>432.20000000000005</ele><time>2026-04-29T11:58:55Z</time></trkpt><trkpt lat="43.40240039455775" lon="12.471235273559325"><ele>431.6</ele><time>2026-04-29T11:58:58Z</time></trkpt><trkpt lat="43.402299472769386" lon="12.47129619723485"><ele>431.0</ele><time>2026-04-29T11:59:00Z</time></trkpt><trkpt lat="43.40218674016903" lon="12.471331575606335"><ele>431.0</ele><time>2026-04-29T11:59:02Z</time></trkpt><trkpt lat="43.40211705764785" lon="12.471321407251443"><ele>431.0</ele><time>2026-04-29T11:59:03Z</time></trkpt><trkpt lat="43.402024382152334" lon="12.471295930414845"><ele>431.0</ele><time>2026-04-29T11:59:04Z</time></trkpt><trkpt lat="43.40191971733559" lon="12.471258724851069"><ele>431.0</ele><time>2026-04-29T11:59:05Z</time></trkpt><trkpt lat="43.401810942022756" lon="12.471226973049404"><ele>431.0</ele><time>2026-04-29T11:59:06Z</time></trkpt><trkpt lat="43.40170978915466" lon="12.471198842050965"><ele>431.0</ele><time>2026-04-29T11:59:07Z</time></trkpt><trkpt lat="43.40161060813217" lon="12.47118675843364"><ele>431.0</ele><time>2026-04-29T11:59:08Z</time></trkpt><trkpt lat="43.401513451396" lon="12.47118776778133"><ele>431.0</ele><time>2026-04-29T11:59:09Z</time></trkpt><trkpt lat="43.401416972071296" lon="12.471205047145538"><ele>431.0</ele><time>2026-04-29T11:59:10Z</time></trkpt><trkpt lat="43.4013270892339" lon="12.471233894600068"><ele>431.0</ele><time>2026-04-29T11:59:11Z</time></trkpt><trkpt lat="43.40124497507729" lon="12.471289714985824"><ele>431.4</ele><time>2026-04-29T11:59:12Z</time></trkpt><trkpt lat="43.401171058766415" lon="12.471363073272785"><ele>431.8</ele><time>2026-04-29T11:59:13Z</time></trkpt><trkpt lat="43.40110865454542" lon="12.471453219862223"><ele>432.19999999999993</ele><time>2026-04-29T11:59:13.999Z</time></trkpt><trkpt lat="43.40103385695023" lon="12.471540692477697"><ele>432.59999999999997</ele><time>2026-04-29T11:59:14.999Z</time></trkpt><trkpt lat="43.40095397687073" lon="12.471639633031307"><ele>433.0</ele><time>2026-04-29T11:59:15.999Z</time></trkpt><trkpt lat="43.400873513593275" lon="12.471731928610243"><ele>433.0</ele><time>2026-04-29T11:59:16.999Z</time></trkpt><trkpt lat="43.400789729019635" lon="12.471821786721902"><ele>432.99999999999994</ele><time>2026-04-29T11:59:17.999Z</time></trkpt><trkpt lat="43.400715950632886" lon="12.471890694874707"><ele>432.99999999999994</ele><time>2026-04-29T11:59:18.999Z</time></trkpt><trkpt lat="43.40065625739217" lon="12.471920383443317"><ele>433.0</ele><time>2026-04-29T11:59:19.999Z</time></trkpt><trkpt lat="43.400532920167905" lon="12.471948915413149"><ele>433.0</ele><time>2026-04-29T11:59:21.999Z</time></trkpt><trkpt lat="43.4004554912378" lon="12.471945667939394"><ele>432.59999999999997</ele><time>2026-04-29T11:59:23Z</time></trkpt><trkpt lat="43.40035463596247" lon="12.471949025913043"><ele>432.19999999999993</ele><time>2026-04-29T11:59:24Z</time></trkpt><trkpt lat="43.40024708269196" lon="12.47192683737708"><ele>431.8</ele><time>2026-04-29T11:59:25Z</time></trkpt><trkpt lat="43.40014994110552" lon="12.471905481438395"><ele>431.4</ele><time>2026-04-29T11:59:26Z</time></trkpt><trkpt lat="43.40006006625197" lon="12.47187564285127"><ele>431.0</ele><time>2026-04-29T11:59:27Z</time></trkpt><trkpt lat="43.39996832119884" lon="12.471858197725156"><ele>431.0</ele><time>2026-04-29T11:59:28Z</time></trkpt><trkpt lat="43.39987157676884" lon="12.471852542646506"><ele>431.0</ele><time>2026-04-29T11:59:29Z</time></trkpt><trkpt lat="43.39977198883534" lon="12.471834649573594"><ele>431.0</ele><time>2026-04-29T11:59:30Z</time></trkpt><trkpt lat="43.399681672546514" lon="12.471776296024952"><ele>431.0</ele><time>2026-04-29T11:59:31Z</time></trkpt><trkpt lat="43.39958920908755" lon="12.471734515335083"><ele>431.0</ele><time>2026-04-29T11:59:32Z</time></trkpt><trkpt lat="43.399492358821725" lon="12.471702639086201"><ele>430.8</ele><time>2026-04-29T11:59:33Z</time></trkpt><trkpt lat="43.399394528218416" lon="12.471641718060184"><ele>430.6</ele><time>2026-04-29T11:59:34Z</time></trkpt><trkpt lat="43.39929564760422" lon="12.471579173320075"><ele>430.4</ele><time>2026-04-29T11:59:35Z</time></trkpt><trkpt lat="43.39919503454348" lon="12.471525268238159"><ele>430.2</ele><time>2026-04-29T11:59:36Z</time></trkpt><trkpt lat="43.39909491168585" lon="12.471482681470766"><ele>430.0</ele><time>2026-04-29T11:59:37Z</time></trkpt><trkpt lat="43.39899129586494" lon="12.471446535126082"><ele>430.0</ele><time>2026-04-29T11:59:38Z</time></trkpt><trkpt lat="43.39888056662996" lon="12.471414429967492"><ele>430.0</ele><time>2026-04-29T11:59:39Z</time></trkpt><trkpt lat="43.39877043077185" lon="12.471386089456832"><ele>430.0</ele><time>2026-04-29T11:59:40Z</time></trkpt><trkpt lat="43.398659601937034" lon="12.471355013055668"><ele>430.0</ele><time>2026-04-29T11:59:41Z</time></trkpt><trkpt lat="43.398547751272886" lon="12.471321425310112"><ele>429.0</ele><time>2026-04-29T11:59:42.001Z</time></trkpt><trkpt lat="43.39843155242281" lon="12.471301021927077"><ele>428.0</ele><time>2026-04-29T11:59:43.001Z</time></trkpt><trkpt lat="43.39831589029683" lon="12.471277902459114"><ele>427.0</ele><time>2026-04-29T11:59:44.001Z</time></trkpt><trkpt lat="43.39820655525502" lon="12.471230961568088"><ele>426.0</ele><time>2026-04-29T11:59:45.001Z</time></trkpt><trkpt lat="43.39809758833265" lon="12.471195975685152"><ele>425.4</ele><time>2026-04-29T11:59:46.001Z</time></trkpt><trkpt lat="43.39799264960012" lon="12.471155904121566"><ele>424.8</ele><time>2026-04-29T11:59:47.001Z</time></trkpt><trkpt lat="43.397896103999145" lon="12.471114583682272"><ele>424.2</ele><time>2026-04-29T11:59:48.001Z</time></trkpt><trkpt lat="43.397802338897165" lon="12.471089041656517"><ele>423.59999999999997</ele><time>2026-04-29T11:59:49.001Z</time></trkpt><trkpt lat="43.397719500232256" lon="12.47104592649903"><ele>423.0</ele><time>2026-04-29T11:59:50.001Z</time></trkpt><trkpt lat="43.397645232877245" lon="12.47097871348996"><ele>423.0</ele><time>2026-04-29T11:59:51.001Z</time></trkpt><trkpt lat="43.39757232080845" lon="12.470920511002618"><ele>423.0</ele><time>2026-04-29T11:59:52.001Z</time></trkpt><trkpt lat="43.397506947482846" lon="12.470848428943043"><ele>423.0</ele><time>2026-04-29T11:59:53.001Z</time></trkpt><trkpt lat="43.39744082098366" lon="12.47076260084804"><ele>423.0</ele><time>2026-04-29T11:59:54.001Z</time></trkpt><trkpt lat="43.39736129478117" lon="12.47065824451089"><ele>423.0</ele><time>2026-04-29T11:59:55.001Z</time></trkpt><trkpt lat="43.3972793663532" lon="12.47057281080414"><ele>423.0</ele><time>2026-04-29T11:59:56.001Z</time></trkpt><trkpt lat="43.39721031100614" lon="12.470464040140756"><ele>423.0</ele><time>2026-04-29T11:59:57.001Z</time></trkpt><trkpt lat="43.397139822533596" lon="12.470403845206297"><ele>423.0</ele><time>2026-04-29T11:59:58.001Z</time></trkpt><trkpt lat="43.39705526484045" lon="12.47032609494279"><ele>423.0</ele><time>2026-04-29T11:59:59.001Z</time></trkpt><trkpt lat="43.39696511618259" lon="12.47025081917552"><ele>423.0</ele><time>2026-04-29T12:00:00.001Z</time></trkpt><trkpt lat="43.39687432203742" lon="12.470190665386"><ele>423.2</ele><time>2026-04-29T12:00:01.001Z</time></trkpt><trkpt lat="43.39677850202461" lon="12.470139771758998"><ele>423.4</ele><time>2026-04-29T12:00:02.001Z</time></trkpt><trkpt lat="43.3966838234362" lon="12.470074619300254"><ele>423.59999999999997</ele><time>2026-04-29T12:00:03.001Z</time></trkpt><trkpt lat="43.3965912028896" lon="12.470021453896747"><ele>423.79999999999995</ele><time>2026-04-29T12:00:04.001Z</time></trkpt><trkpt lat="43.39650581971854" lon="12.469985579776797"><ele>424.0</ele><time>2026-04-29T12:00:05.001Z</time></trkpt><trkpt lat="43.39643828470377" lon="12.469926219234443"><ele>424.00000000000006</ele><time>2026-04-29T12:00:06.001Z</time></trkpt><trkpt lat="43.39638133289255" lon="12.46986767078508"><ele>424.0</ele><time>2026-04-29T12:00:07.001Z</time></trkpt><trkpt lat="43.396337459089054" lon="12.469799791062645"><ele>424.0</ele><time>2026-04-29T12:00:08.001Z</time></trkpt><trkpt lat="43.39630211317118" lon="12.469727704233584"><ele>424.0</ele><time>2026-04-29T12:00:09.001Z</time></trkpt><trkpt lat="43.39627698368063" lon="12.469544880788932"><ele>424.00000000000006</ele><time>2026-04-29T12:00:11.001Z</time></trkpt><trkpt lat="43.39622795542494" lon="12.469454413697417"><ele>424.0</ele><time>2026-04-29T12:00:12.001Z</time></trkpt><trkpt lat="43.39619021584394" lon="12.469343181171878"><ele>423.6</ele><time>2026-04-29T12:00:13.001Z</time></trkpt><trkpt lat="43.39616165500764" lon="12.469227672520319"><ele>423.2</ele><time>2026-04-29T12:00:14.001Z</time></trkpt><trkpt lat="43.396145272964816" lon="12.469133214618479"><ele>422.8</ele><time>2026-04-29T12:00:15.001Z</time></trkpt><trkpt lat="43.39619884698299" lon="12.468991150420226"><ele>422.40000000000003</ele><time>2026-04-29T12:00:17.001Z</time></trkpt><trkpt lat="43.39629325454813" lon="12.468960441954657"><ele>422.0</ele><time>2026-04-29T12:00:18.001Z</time></trkpt><trkpt lat="43.396399312620204" lon="12.468939972259845"><ele>424.25</ele><time>2026-04-29T12:00:19.001Z</time></trkpt><trkpt lat="43.39650636436019" lon="12.468936513583797"><ele>426.5</ele><time>2026-04-29T12:00:20.001Z</time></trkpt><trkpt lat="43.396621970876204" lon="12.468960068618452"><ele>428.75</ele><time>2026-04-29T12:00:21.001Z</time></trkpt><trkpt lat="43.396727311554315" lon="12.469036781300789"><ele>431.0</ele><time>2026-04-29T12:00:22.001Z</time></trkpt><trkpt lat="43.39684621990542" lon="12.469109518056356"><ele>431.0</ele><time>2026-04-29T12:00:23.001Z</time></trkpt><trkpt lat="43.3969647572821" lon="12.469215170069411"><ele>431.0</ele><time>2026-04-29T12:00:24.001Z</time></trkpt><trkpt lat="43.39707949454729" lon="12.46933301887318"><ele>431.0</ele><time>2026-04-29T12:00:25.001Z</time></trkpt><trkpt lat="43.39718345357344" lon="12.469434707818115"><ele>431.0</ele><time>2026-04-29T12:00:26.001Z</time></trkpt><trkpt lat="43.39727143005919" lon="12.469507535974332"><ele>434.4</ele><time>2026-04-29T12:00:27.001Z</time></trkpt><trkpt lat="43.39734586876841" lon="12.469550902104384"><ele>437.8</ele><time>2026-04-29T12:00:28.001Z</time></trkpt><trkpt lat="43.39746488646066" lon="12.469528381837511"><ele>441.19999999999993</ele><time>2026-04-29T12:00:30.001Z</time></trkpt><trkpt lat="43.397488605746496" lon="12.469409326555068"><ele>444.59999999999997</ele><time>2026-04-29T12:00:31.001Z</time></trkpt><trkpt lat="43.39744383674117" lon="12.469301766648599"><ele>448.0</ele><time>2026-04-29T12:00:32.001Z</time></trkpt><trkpt lat="43.39736022746785" lon="12.469239847902186"><ele>448.0</ele><time>2026-04-29T12:00:33.001Z</time></trkpt><trkpt lat="43.39726612609852" lon="12.469175807261529"><ele>448.0</ele><time>2026-04-29T12:00:34.001Z</time></trkpt><trkpt lat="43.39716923855414" lon="12.469062217176806"><ele>448.0</ele><time>2026-04-29T12:00:35.001Z</time></trkpt><trkpt lat="43.3970933835523" lon="12.468926380995198"><ele>448.0</ele><time>2026-04-29T12:00:36.001Z</time></trkpt><trkpt lat="43.397046350756796" lon="12.468748255838136"><ele>447.75</ele><time>2026-04-29T12:00:37.002Z</time></trkpt><trkpt lat="43.39700424560172" lon="12.468568910644814"><ele>447.5</ele><time>2026-04-29T12:00:38.002Z</time></trkpt><trkpt lat="43.39700595562071" lon="12.468358444695399"><ele>447.25</ele><time>2026-04-29T12:00:39.002Z</time></trkpt><trkpt lat="43.397005908421214" lon="12.468163525910379"><ele>447.0</ele><time>2026-04-29T12:00:40.002Z</time></trkpt><trkpt lat="43.39703731089417" lon="12.468011563247577"><ele>449.5</ele><time>2026-04-29T12:00:41.002Z</time></trkpt><trkpt lat="43.39709369088589" lon="12.467823297569064"><ele>452.0</ele><time>2026-04-29T12:00:42.002Z</time></trkpt><trkpt lat="43.3971277468108" lon="12.467627358084437"><ele>454.5</ele><time>2026-04-29T12:00:43.002Z</time></trkpt><trkpt lat="43.39715714369679" lon="12.467453743488553"><ele>457.0</ele><time>2026-04-29T12:00:44.002Z</time></trkpt><trkpt lat="43.39720236414504" lon="12.467324453304162"><ele>456.75</ele><time>2026-04-29T12:00:45.002Z</time></trkpt><trkpt lat="43.39726619468282" lon="12.467198701776027"><ele>456.5</ele><time>2026-04-29T12:00:46.002Z</time></trkpt><trkpt lat="43.397363883461715" lon="12.46708635843961"><ele>456.25</ele><time>2026-04-29T12:00:47.002Z</time></trkpt><trkpt lat="43.397476003678484" lon="12.46699918468596"><ele>456.0</ele><time>2026-04-29T12:00:48.002Z</time></trkpt><trkpt lat="43.39759589738264" lon="12.466904838240644"><ele>456.0</ele><time>2026-04-29T12:00:49.002Z</time></trkpt><trkpt lat="43.39772453316358" lon="12.466795121058434"><ele>456.0</ele><time>2026-04-29T12:00:50.002Z</time></trkpt><trkpt lat="43.39785663095052" lon="12.466684577437158"><ele>456.0</ele><time>2026-04-29T12:00:51.002Z</time></trkpt><trkpt lat="43.39798933177075" lon="12.46658052179981"><ele>461.0</ele><time>2026-04-29T12:00:52.002Z</time></trkpt><trkpt lat="43.39812530161574" lon="12.4664780568958"><ele>466.0</ele><time>2026-04-29T12:00:53.002Z</time></trkpt><trkpt lat="43.3982672179349" lon="12.466376690806667"><ele>471.0</ele><time>2026-04-29T12:00:54.002Z</time></trkpt><trkpt lat="43.39841300933709" lon="12.466279315648347"><ele>472.0</ele><time>2026-04-29T12:00:55.002Z</time></trkpt><trkpt lat="43.39856300725612" lon="12.46619613354711"><ele>473.0</ele><time>2026-04-29T12:00:56.002Z</time></trkpt><trkpt lat="43.39871379499544" lon="12.466107159213555"><ele>474.0</ele><time>2026-04-29T12:00:57.002Z</time></trkpt><trkpt lat="43.39886404458092" lon="12.466044397903154"><ele>474.0</ele><time>2026-04-29T12:00:58.002Z</time></trkpt><trkpt lat="43.399003116548236" lon="12.465962715464544"><ele>474.0</ele><time>2026-04-29T12:00:59.002Z</time></trkpt><trkpt lat="43.39912849018644" lon="12.465855509706136"><ele>474.0</ele><time>2026-04-29T12:01:00.002Z</time></trkpt><trkpt lat="43.39923780639815" lon="12.465725623035416"><ele>474.0</ele><time>2026-04-29T12:01:01.002Z</time></trkpt><trkpt lat="43.39932448745432" lon="12.465580775825762"><ele>474.0</ele><time>2026-04-29T12:01:02.002Z</time></trkpt><trkpt lat="43.39938341535827" lon="12.465405251001116"><ele>474.0</ele><time>2026-04-29T12:01:03.002Z</time></trkpt><trkpt lat="43.39942328497896" lon="12.465211149239213"><ele>474.0</ele><time>2026-04-29T12:01:04.002Z</time></trkpt><trkpt lat="43.39947135103478" lon="12.465006573751943"><ele>474.0</ele><time>2026-04-29T12:01:05.002Z</time></trkpt><trkpt lat="43.39952034783977" lon="12.46482407648434"><ele>474.0</ele><time>2026-04-29T12:01:06.002Z</time></trkpt><trkpt lat="43.39958173710344" lon="12.464693213423365"><ele>474.0</ele><time>2026-04-29T12:01:07.002Z</time></trkpt><trkpt lat="43.3996829813628" lon="12.464651972237704"><ele>474.0</ele><time>2026-04-29T12:01:08.002Z</time></trkpt><trkpt lat="43.39975722269551" lon="12.464629828441028"><ele>474.0</ele><time>2026-04-29T12:01:09.002Z</time></trkpt><trkpt lat="43.39981411638443" lon="12.464713217923425"><ele>474.0</ele><time>2026-04-29T12:01:10.002Z</time></trkpt><trkpt lat="43.39988591461817" lon="12.464799908667828"><ele>479.25</ele><time>2026-04-29T12:01:11.002Z</time></trkpt><trkpt lat="43.39996994208564" lon="12.46491539164477"><ele>484.5</ele><time>2026-04-29T12:01:12.002Z</time></trkpt><trkpt lat="43.40005511766064" lon="12.46506146724192"><ele>489.75</ele><time>2026-04-29T12:01:13.002Z</time></trkpt><trkpt lat="43.40011337644614" lon="12.465218167430532"><ele>495.0</ele><time>2026-04-29T12:01:14.002Z</time></trkpt><trkpt lat="43.40014169834873" lon="12.465387548578441"><ele>495.75</ele><time>2026-04-29T12:01:15.002Z</time></trkpt><trkpt lat="43.40013115909488" lon="12.465566106019054"><ele>496.5</ele><time>2026-04-29T12:01:16.002Z</time></trkpt><trkpt lat="43.40009428521161" lon="12.465748017936892"><ele>497.25</ele><time>2026-04-29T12:01:17.002Z</time></trkpt><trkpt lat="43.40004868410165" lon="12.465939553368933"><ele>498.0</ele><time>2026-04-29T12:01:18.002Z</time></trkpt><trkpt lat="43.40002946893332" lon="12.466105014344295"><ele>498.0</ele><time>2026-04-29T12:01:19.002Z</time></trkpt><trkpt lat="43.40001206019009" lon="12.466208109630749"><ele>497.99999999999994</ele><time>2026-04-29T12:01:20.001Z</time></trkpt><trkpt lat="43.400044027341515" lon="12.466315620483932"><ele>497.99999999999994</ele><time>2026-04-29T12:01:22.001Z</time></trkpt><trkpt lat="43.40014991674134" lon="12.466352875425072"><ele>498.0</ele><time>2026-04-29T12:01:23.001Z</time></trkpt><trkpt lat="43.400268841375386" lon="12.466192391508368"><ele>498.0</ele><time>2026-04-29T12:01:24.001Z</time></trkpt><trkpt lat="43.40034047745135" lon="12.466079828564549"><ele>498.0</ele><time>2026-04-29T12:01:25.001Z</time></trkpt><trkpt lat="43.40041150548579" lon="12.46592291073894"><ele>498.0</ele><time>2026-04-29T12:01:26.001Z</time></trkpt><trkpt lat="43.40051344033366" lon="12.465787423869857"><ele>498.0</ele><time>2026-04-29T12:01:27.001Z</time></trkpt><trkpt lat="43.400619321068035" lon="12.465632122453252"><ele>498.0</ele><time>2026-04-29T12:01:28.001Z</time></trkpt><trkpt lat="43.40072852041768" lon="12.465471929136854"><ele>503.33333333333337</ele><time>2026-04-29T12:01:29.001Z</time></trkpt><trkpt lat="43.40084182038779" lon="12.465305461165583"><ele>508.6666666666667</ele><time>2026-04-29T12:01:30.001Z</time></trkpt><trkpt lat="43.40096123597521" lon="12.465134646476733"><ele>514.0</ele><time>2026-04-29T12:01:31.001Z</time></trkpt><trkpt lat="43.40107514286417" lon="12.464975468359468"><ele>514.0</ele><time>2026-04-29T12:01:32.001Z</time></trkpt><trkpt lat="43.40119566475842" lon="12.46482156258216"><ele>514.0</ele><time>2026-04-29T12:01:33.001Z</time></trkpt><trkpt lat="43.40131875443768" lon="12.464669717457706"><ele>514.0</ele><time>2026-04-29T12:01:34.001Z</time></trkpt><trkpt lat="43.40143129817637" lon="12.46454271995432"><ele>516.25</ele><time>2026-04-29T12:01:35.001Z</time></trkpt><trkpt lat="43.40153173442249" lon="12.46445615819974"><ele>518.5</ele><time>2026-04-29T12:01:36.001Z</time></trkpt><trkpt lat="43.40163901594436" lon="12.46441651449201"><ele>520.75</ele><time>2026-04-29T12:01:37.001Z</time></trkpt><trkpt lat="43.401765253456574" lon="12.464408012631596"><ele>523.0</ele><time>2026-04-29T12:01:38.001Z</time></trkpt><trkpt lat="43.401902572200584" lon="12.464371568676162"><ele>523.0</ele><time>2026-04-29T12:01:39.001Z</time></trkpt><trkpt lat="43.402038263080726" lon="12.464335723946574"><ele>523.0</ele><time>2026-04-29T12:01:40.001Z</time></trkpt><trkpt lat="43.40215864524348" lon="12.464253680562168"><ele>523.0</ele><time>2026-04-29T12:01:41.001Z</time></trkpt><trkpt lat="43.40227101583921" lon="12.464139869101876"><ele>523.0</ele><time>2026-04-29T12:01:42.001Z</time></trkpt><trkpt lat="43.402384656727655" lon="12.464064139049125"><ele>525.0</ele><time>2026-04-29T12:01:43.001Z</time></trkpt><trkpt lat="43.40247785441052" lon="12.464011419858899"><ele>527.0</ele><time>2026-04-29T12:01:44.001Z</time></trkpt><trkpt lat="43.40257677384591" lon="12.463993980440966"><ele>529.0</ele><time>2026-04-29T12:01:45.001Z</time></trkpt><trkpt lat="43.40268341852353" lon="12.464023463846326"><ele>531.0</ele><time>2026-04-29T12:01:46.001Z</time></trkpt><trkpt lat="43.402803763588906" lon="12.464069252074884"><ele>533.0</ele><time>2026-04-29T12:01:47.001Z</time></trkpt><trkpt lat="43.402931435642266" lon="12.46412402193621"><ele>534.25</ele><time>2026-04-29T12:01:48.001Z</time></trkpt><trkpt lat="43.40306510814653" lon="12.464184624838508"><ele>535.5</ele><time>2026-04-29T12:01:49.001Z</time></trkpt><trkpt lat="43.40320483186656" lon="12.464247971194348"><ele>536.75</ele><time>2026-04-29T12:01:50.001Z</time></trkpt><trkpt lat="43.40334602886255" lon="12.464313883450771"><ele>538.0</ele><time>2026-04-29T12:01:51.001Z</time></trkpt><trkpt lat="43.403488214312134" lon="12.464391330603807"><ele>538.0</ele><time>2026-04-29T12:01:52.001Z</time></trkpt><trkpt lat="43.40363225219" lon="12.464478492795244"><ele>538.0</ele><time>2026-04-29T12:01:53.001Z</time></trkpt><trkpt lat="43.40378293855683" lon="12.46456381709296"><ele>538.0</ele><time>2026-04-29T12:01:54.001Z</time></trkpt><trkpt lat="43.40392236406863" lon="12.464685500514623"><ele>540.6666666666667</ele><time>2026-04-29T12:01:55.001Z</time></trkpt><trkpt lat="43.4040540805223" lon="12.464839845159702"><ele>543.3333333333334</ele><time>2026-04-29T12:01:56.001Z</time></trkpt><trkpt lat="43.40420317045101" lon="12.464958048773584"><ele>546.0</ele><time>2026-04-29T12:01:57.001Z</time></trkpt><trkpt lat="43.40434602570816" lon="12.465093729717635"><ele>546.0</ele><time>2026-04-29T12:01:58.001Z</time></trkpt><trkpt lat="43.404482494490786" lon="12.465210519741333"><ele>546.0</ele><time>2026-04-29T12:01:59.001Z</time></trkpt><trkpt lat="43.40461441685333" lon="12.465314184273131"><ele>546.0</ele><time>2026-04-29T12:02:00.001Z</time></trkpt><trkpt lat="43.40474841508025" lon="12.465427786258873"><ele>548.0</ele><time>2026-04-29T12:02:01.001Z</time></trkpt><trkpt lat="43.404892657844634" lon="12.465517420120724"><ele>550.0</ele><time>2026-04-29T12:02:02.001Z</time></trkpt><trkpt lat="43.40504144776887" lon="12.465608703177832"><ele>552.0</ele><time>2026-04-29T12:02:03.001Z</time></trkpt><trkpt lat="43.40520197744963" lon="12.465676757659821"><ele>552.0</ele><time>2026-04-29T12:02:04.001Z</time></trkpt><trkpt lat="43.40535362704767" lon="12.465785188333104"><ele>552.0</ele><time>2026-04-29T12:02:05.001Z</time></trkpt><trkpt lat="43.405520897209" lon="12.465848191314862"><ele>552.0</ele><time>2026-04-29T12:02:06.001Z</time></trkpt><trkpt lat="43.40568178131205" lon="12.465930009322586"><ele>552.6666666666666</ele><time>2026-04-29T12:02:07.001Z</time></trkpt><trkpt lat="43.40584260225535" lon="12.466003974526574"><ele>553.3333333333333</ele><time>2026-04-29T12:02:08.001Z</time></trkpt><trkpt lat="43.40600107662947" lon="12.466077052405309"><ele>554.0</ele><time>2026-04-29T12:02:09.001Z</time></trkpt><trkpt lat="43.406158048936746" lon="12.466149430613525"><ele>554.0</ele><time>2026-04-29T12:02:10.001Z</time></trkpt><trkpt lat="43.40631416333907" lon="12.46622089553241"><ele>554.0</ele><time>2026-04-29T12:02:11.001Z</time></trkpt><trkpt lat="43.4064742657283" lon="12.466284797621375"><ele>554.0</ele><time>2026-04-29T12:02:12.001Z</time></trkpt><trkpt lat="43.40663722277689" lon="12.466337833440774"><ele>558.0</ele><time>2026-04-29T12:02:13.001Z</time></trkpt><trkpt lat="43.406796812540875" lon="12.46638786001459"><ele>562.0</ele><time>2026-04-29T12:02:14.001Z</time></trkpt><trkpt lat="43.406955503031625" lon="12.466447480100067"><ele>566.0</ele><time>2026-04-29T12:02:15.001Z</time></trkpt><trkpt lat="43.407111440996815" lon="12.466504706336648"><ele>567.0</ele><time>2026-04-29T12:02:16.001Z</time></trkpt><trkpt lat="43.40727318133942" lon="12.466551885955807"><ele>568.0</ele><time>2026-04-29T12:02:17.001Z</time></trkpt><trkpt lat="43.40743402039525" lon="12.466587646424722"><ele>569.0</ele><time>2026-04-29T12:02:18.001Z</time></trkpt><trkpt lat="43.40759209961098" lon="12.466612022345359"><ele>569.0</ele><time>2026-04-29T12:02:19.001Z</time></trkpt><trkpt lat="43.407748711927646" lon="12.466625617642727"><ele>569.0</ele><time>2026-04-29T12:02:20.001Z</time></trkpt><trkpt lat="43.407900676819054" lon="12.466632869484572"><ele>569.0</ele><time>2026-04-29T12:02:21.001Z</time></trkpt><trkpt lat="43.40805479952342" lon="12.466629324897767"><ele>571.0</ele><time>2026-04-29T12:02:22.001Z</time></trkpt><trkpt lat="43.40820935456033" lon="12.466650161826875"><ele>573.0</ele><time>2026-04-29T12:02:23.001Z</time></trkpt><trkpt lat="43.408363839300165" lon="12.466649075320102"><ele>575.0</ele><time>2026-04-29T12:02:24.001Z</time></trkpt><trkpt lat="43.40851823916791" lon="12.466649329317537"><ele>575.0</ele><time>2026-04-29T12:02:25.001Z</time></trkpt><trkpt lat="43.40867199571414" lon="12.466659054939658"><ele>575.0</ele><time>2026-04-29T12:02:26.001Z</time></trkpt><trkpt lat="43.40882928948559" lon="12.466678692791106"><ele>575.0</ele><time>2026-04-29T12:02:27.001Z</time></trkpt><trkpt lat="43.408983782643524" lon="12.466711988411065"><ele>575.3333333333333</ele><time>2026-04-29T12:02:28.001Z</time></trkpt><trkpt lat="43.409141461899154" lon="12.4667429225275"><ele>575.6666666666666</ele><time>2026-04-29T12:02:29.001Z</time></trkpt><trkpt lat="43.40929914985188" lon="12.466769400235707"><ele>576.0</ele><time>2026-04-29T12:02:30.001Z</time></trkpt><trkpt lat="43.40945794306358" lon="12.46679351214881"><ele>576.0</ele><time>2026-04-29T12:02:31.001Z</time></trkpt><trkpt lat="43.40961453644813" lon="12.466808345887722"><ele>576.0</ele><time>2026-04-29T12:02:32.001Z</time></trkpt><trkpt lat="43.40976761477748" lon="12.466810394558593"><ele>576.0</ele><time>2026-04-29T12:02:33.001Z</time></trkpt><trkpt lat="43.40991791228005" lon="12.466753074174923"><ele>578.6666666666666</ele><time>2026-04-29T12:02:34.001Z</time></trkpt><trkpt lat="43.41006299655871" lon="12.466691770072382"><ele>581.3333333333333</ele><time>2026-04-29T12:02:35.001Z</time></trkpt><trkpt lat="43.41020280118339" lon="12.466613514169138"><ele>584.0</ele><time>2026-04-29T12:02:36.001Z</time></trkpt><trkpt lat="43.410349649518594" lon="12.466578764709022"><ele>585.0</ele><time>2026-04-29T12:02:37.001Z</time></trkpt><trkpt lat="43.41050167016923" lon="12.466532405334826"><ele>586.0</ele><time>2026-04-29T12:02:38.001Z</time></trkpt><trkpt lat="43.410660430534925" lon="12.466471062762475"><ele>587.0</ele><time>2026-04-29T12:02:39.001Z</time></trkpt><trkpt lat="43.41082249366006" lon="12.46642988478796"><ele>587.0</ele><time>2026-04-29T12:02:40.001Z</time></trkpt><trkpt lat="43.410996150129144" lon="12.466382906563927"><ele>587.0</ele><time>2026-04-29T12:02:41.001Z</time></trkpt><trkpt lat="43.411177891055296" lon="12.466354686835905"><ele>587.0</ele><time>2026-04-29T12:02:42.001Z</time></trkpt><trkpt lat="43.41135864919264" lon="12.466303615829878"><ele>584.3333333333333</ele><time>2026-04-29T12:02:43.001Z</time></trkpt><trkpt lat="43.411539356061446" lon="12.466225242385224"><ele>581.6666666666666</ele><time>2026-04-29T12:02:44.001Z</time></trkpt><trkpt lat="43.41173530134736" lon="12.466166220535992"><ele>579.0</ele><time>2026-04-29T12:02:45.001Z</time></trkpt><trkpt lat="43.4119412275166" lon="12.466119649569656"><ele>579.0</ele><time>2026-04-29T12:02:46.001Z</time></trkpt><trkpt lat="43.41214646413538" lon="12.466032488538431"><ele>579.0</ele><time>2026-04-29T12:02:47.001Z</time></trkpt><trkpt lat="43.41235188641637" lon="12.465966160297235"><ele>579.0</ele><time>2026-04-29T12:02:48.001Z</time></trkpt><trkpt lat="43.41255824116502" lon="12.465904572120708"><ele>578.6666666666666</ele><time>2026-04-29T12:02:49.001Z</time></trkpt><trkpt lat="43.41276131778277" lon="12.465843546146884"><ele>578.3333333333333</ele><time>2026-04-29T12:02:50.001Z</time></trkpt><trkpt lat="43.41296701488527" lon="12.465786071092518"><ele>578.0</ele><time>2026-04-29T12:02:51.001Z</time></trkpt><trkpt lat="43.41317512468245" lon="12.465754926572522"><ele>578.6666666666666</ele><time>2026-04-29T12:02:52.002Z</time></trkpt><trkpt lat="43.41337807675158" lon="12.465685198044708"><ele>579.3333333333334</ele><time>2026-04-29T12:02:53.002Z</time></trkpt><trkpt lat="43.413578072165635" lon="12.46564158884466"><ele>580.0</ele><time>2026-04-29T12:02:54.002Z</time></trkpt><trkpt lat="43.41376106083067" lon="12.465601131657992"><ele>580.0</ele><time>2026-04-29T12:02:55.002Z</time></trkpt><trkpt lat="43.41392237533458" lon="12.465559317374776"><ele>580.0</ele><time>2026-04-29T12:02:56.002Z</time></trkpt><trkpt lat="43.41406251565141" lon="12.465519994205074"><ele>580.0</ele><time>2026-04-29T12:02:57.002Z</time></trkpt><trkpt lat="43.41417122770575" lon="12.46546857715518"><ele>580.0</ele><time>2026-04-29T12:02:58.002Z</time></trkpt><trkpt lat="43.4142689679946" lon="12.465388123675549"><ele>580.0</ele><time>2026-04-29T12:02:59.002Z</time></trkpt><trkpt lat="43.41434950641544" lon="12.465261234778076"><ele>580.0</ele><time>2026-04-29T12:03:00.002Z</time></trkpt><trkpt lat="43.4144195886444" lon="12.465096935521093"><ele>580.0</ele><time>2026-04-29T12:03:01.002Z</time></trkpt><trkpt lat="43.41450268183131" lon="12.464931000005599"><ele>580.0</ele><time>2026-04-29T12:03:02.002Z</time></trkpt><trkpt lat="43.41458834751119" lon="12.464799190179095"><ele>582.0</ele><time>2026-04-29T12:03:03.002Z</time></trkpt><trkpt lat="43.41468680622169" lon="12.464730066840396"><ele>584.0</ele><time>2026-04-29T12:03:04.002Z</time></trkpt><trkpt lat="43.41479085086965" lon="12.46470656987457"><ele>586.0</ele><time>2026-04-29T12:03:05.002Z</time></trkpt><trkpt lat="43.414910998466695" lon="12.464704839283351"><ele>588.0</ele><time>2026-04-29T12:03:06.002Z</time></trkpt><trkpt lat="43.41502593498727" lon="12.46471625302548"><ele>588.0</ele><time>2026-04-29T12:03:07.002Z</time></trkpt><trkpt lat="43.41513141944268" lon="12.464816592230205"><ele>588.0</ele><time>2026-04-29T12:03:08.002Z</time></trkpt><trkpt lat="43.41519166264714" lon="12.46491251696683"><ele>588.0</ele><time>2026-04-29T12:03:09.002Z</time></trkpt><trkpt lat="43.415217593755486" lon="12.465038189261453"><ele>588.0</ele><time>2026-04-29T12:03:10.002Z</time></trkpt><trkpt lat="43.415263147238115" lon="12.465133884540085"><ele>588.0</ele><time>2026-04-29T12:03:11.002Z</time></trkpt><trkpt lat="43.415365096514854" lon="12.465231239370178"><ele>588.0</ele><time>2026-04-29T12:03:13.002Z</time></trkpt><trkpt lat="43.4154757632924" lon="12.465221496018286"><ele>588.0</ele><time>2026-04-29T12:03:14.002Z</time></trkpt><trkpt lat="43.41557569202443" lon="12.465198943720917"><ele>588.0</ele><time>2026-04-29T12:03:15.002Z</time></trkpt><trkpt lat="43.41568222501731" lon="12.465153577136986"><ele>588.0</ele><time>2026-04-29T12:03:16.002Z</time></trkpt><trkpt lat="43.415772065170344" lon="12.46505940259209"><ele>588.0</ele><time>2026-04-29T12:03:17.002Z</time></trkpt><trkpt lat="43.415860312429665" lon="12.464947293904142"><ele>585.25</ele><time>2026-04-29T12:03:18.002Z</time></trkpt><trkpt lat="43.41592103725483" lon="12.464798210849775"><ele>582.5</ele><time>2026-04-29T12:03:19.002Z</time></trkpt><trkpt lat="43.41596008340256" lon="12.464621086612539"><ele>579.75</ele><time>2026-04-29T12:03:20.002Z</time></trkpt><trkpt lat="43.41598507981199" lon="12.464425838756371"><ele>577.0</ele><time>2026-04-29T12:03:21.002Z</time></trkpt><trkpt lat="43.416016822619795" lon="12.464223212411818"><ele>574.6666666666667</ele><time>2026-04-29T12:03:22.002Z</time></trkpt><trkpt lat="43.41605250369841" lon="12.46400848742047"><ele>572.3333333333334</ele><time>2026-04-29T12:03:23.002Z</time></trkpt><trkpt lat="43.41610514974071" lon="12.463813910283568"><ele>570.0</ele><time>2026-04-29T12:03:24.002Z</time></trkpt><trkpt lat="43.4161511958897" lon="12.463629518676438"><ele>569.4</ele><time>2026-04-29T12:03:25.002Z</time></trkpt><trkpt lat="43.41621499963137" lon="12.4634796904722"><ele>568.8</ele><time>2026-04-29T12:03:26Z</time></trkpt><trkpt lat="43.41630750708211" lon="12.463391898280017"><ele>568.2</ele><time>2026-04-29T12:03:27Z</time></trkpt><trkpt lat="43.41639185048157" lon="12.463366631743696"><ele>567.6</ele><time>2026-04-29T12:03:28Z</time></trkpt><trkpt lat="43.41647711619289" lon="12.463371639322396"><ele>567.0</ele><time>2026-04-29T12:03:29Z</time></trkpt><trkpt lat="43.41658510409459" lon="12.463407356764714"><ele>567.0</ele><time>2026-04-29T12:03:30Z</time></trkpt><trkpt lat="43.416727265605545" lon="12.463454183759314"><ele>567.0</ele><time>2026-04-29T12:03:31Z</time></trkpt><trkpt lat="43.41687428391237" lon="12.463518478825543"><ele>567.0</ele><time>2026-04-29T12:03:32Z</time></trkpt><trkpt lat="43.41703370570403" lon="12.463588098390517"><ele>566.3333333333334</ele><time>2026-04-29T12:03:33Z</time></trkpt><trkpt lat="43.41719900283993" lon="12.463656635262552"><ele>565.6666666666667</ele><time>2026-04-29T12:03:34Z</time></trkpt><trkpt lat="43.4173554548267" lon="12.463730637771604"><ele>565.0</ele><time>2026-04-29T12:03:35Z</time></trkpt><trkpt lat="43.417501068960746" lon="12.463797738016753"><ele>565.8</ele><time>2026-04-29T12:03:36Z</time></trkpt><trkpt lat="43.41762943836009" lon="12.463862111586703"><ele>566.6</ele><time>2026-04-29T12:03:37Z</time></trkpt><trkpt lat="43.41773713661366" lon="12.463910551773003"><ele>567.4</ele><time>2026-04-29T12:03:38Z</time></trkpt><trkpt lat="43.417830952981475" lon="12.463934940976472"><ele>568.2</ele><time>2026-04-29T12:03:39Z</time></trkpt><trkpt lat="43.41792613989801" lon="12.463914070344922"><ele>569.0</ele><time>2026-04-29T12:03:40Z</time></trkpt><trkpt lat="43.4180340402884" lon="12.463863588958167"><ele>567.0</ele><time>2026-04-29T12:03:41Z</time></trkpt><trkpt lat="43.41814587148282" lon="12.463771161464862"><ele>565.0</ele><time>2026-04-29T12:03:42Z</time></trkpt><trkpt lat="43.41826342328065" lon="12.463656721512248"><ele>563.0</ele><time>2026-04-29T12:03:43Z</time></trkpt><trkpt lat="43.41838595395099" lon="12.463512876181404"><ele>561.0</ele><time>2026-04-29T12:03:44Z</time></trkpt><trkpt lat="43.418492002079965" lon="12.463358273231693"><ele>561.0</ele><time>2026-04-29T12:03:45Z</time></trkpt><trkpt lat="43.41857571613236" lon="12.463208627830426"><ele>561.0</ele><time>2026-04-29T12:03:46Z</time></trkpt><trkpt lat="43.41866757640276" lon="12.463093025125024"><ele>561.0</ele><time>2026-04-29T12:03:47Z</time></trkpt><trkpt lat="43.41875950122743" lon="12.46300983880934"><ele>561.0</ele><time>2026-04-29T12:03:48Z</time></trkpt><trkpt lat="43.418868985527055" lon="12.462970292786691"><ele>560.75</ele><time>2026-04-29T12:03:49Z</time></trkpt><trkpt lat="43.418977696890224" lon="12.462982641172868"><ele>560.5</ele><time>2026-04-29T12:03:50Z</time></trkpt><trkpt lat="43.41911324638757" lon="12.462990460713824"><ele>560.25</ele><time>2026-04-29T12:03:51Z</time></trkpt><trkpt lat="43.41926127296195" lon="12.463005229422528"><ele>560.0</ele><time>2026-04-29T12:03:52Z</time></trkpt><trkpt lat="43.41942619765901" lon="12.462990579689103"><ele>560.0</ele><time>2026-04-29T12:03:53Z</time></trkpt><trkpt lat="43.419594084356596" lon="12.463005162803583"><ele>560.0</ele><time>2026-04-29T12:03:54Z</time></trkpt><trkpt lat="43.419764410947046" lon="12.462992515826159"><ele>560.0</ele><time>2026-04-29T12:03:55Z</time></trkpt><trkpt lat="43.41991675367027" lon="12.462985866350552"><ele>559.5</ele><time>2026-04-29T12:03:56.001Z</time></trkpt><trkpt lat="43.42005818957116" lon="12.462981404202269"><ele>559.0</ele><time>2026-04-29T12:03:57.001Z</time></trkpt><trkpt lat="43.42019114060633" lon="12.46297888857003"><ele>558.5</ele><time>2026-04-29T12:03:58.001Z</time></trkpt><trkpt lat="43.42031159769616" lon="12.462974425758668"><ele>558.0</ele><time>2026-04-29T12:03:59.001Z</time></trkpt><trkpt lat="43.42042453211289" lon="12.46298286340753"><ele>556.25</ele><time>2026-04-29T12:04:00.001Z</time></trkpt><trkpt lat="43.42051646302474" lon="12.463003613870088"><ele>554.5</ele><time>2026-04-29T12:04:01.001Z</time></trkpt><trkpt lat="43.42060730699884" lon="12.463110979888025"><ele>552.75</ele><time>2026-04-29T12:04:02.001Z</time></trkpt><trkpt lat="43.42072056800428" lon="12.463205641815392"><ele>551.0</ele><time>2026-04-29T12:04:03.001Z</time></trkpt><trkpt lat="43.42082508667815" lon="12.463325628926977"><ele>551.0</ele><time>2026-04-29T12:04:04.001Z</time></trkpt><trkpt lat="43.42093492045921" lon="12.463408502979533"><ele>551.0</ele><time>2026-04-29T12:04:05.001Z</time></trkpt><trkpt lat="43.421054372041716" lon="12.463447206986158"><ele>551.0</ele><time>2026-04-29T12:04:06.001Z</time></trkpt><trkpt lat="43.42118115565937" lon="12.463446209908536"><ele>551.0</ele><time>2026-04-29T12:04:07.001Z</time></trkpt><trkpt lat="43.42131590303783" lon="12.463460141200416"><ele>549.5</ele><time>2026-04-29T12:04:08.001Z</time></trkpt><trkpt lat="43.42144714338977" lon="12.463469692502164"><ele>548.0</ele><time>2026-04-29T12:04:09.001Z</time></trkpt><trkpt lat="43.421593105816825" lon="12.463507051943967"><ele>546.5</ele><time>2026-04-29T12:04:10.001Z</time></trkpt><trkpt lat="43.42172671199598" lon="12.46357893627406"><ele>545.0</ele><time>2026-04-29T12:04:11.001Z</time></trkpt><trkpt lat="43.42185086382321" lon="12.463683151955072"><ele>544.0</ele><time>2026-04-29T12:04:12.001Z</time></trkpt><trkpt lat="43.421971464850735" lon="12.463803495981688"><ele>543.0</ele><time>2026-04-29T12:04:13.001Z</time></trkpt><trkpt lat="43.422097196948116" lon="12.463913312608815"><ele>542.0</ele><time>2026-04-29T12:04:14.001Z</time></trkpt><trkpt lat="43.42219824092636" lon="12.464029042916568"><ele>541.0</ele><time>2026-04-29T12:04:15.001Z</time></trkpt><trkpt lat="43.42226564792222" lon="12.464134618465799"><ele>541.0</ele><time>2026-04-29T12:04:16.001Z</time></trkpt><trkpt lat="43.422295852954974" lon="12.464238901313967"><ele>541.0</ele><time>2026-04-29T12:04:17.001Z</time></trkpt><trkpt lat="43.42229890752528" lon="12.464339755006243"><ele>541.0</ele><time>2026-04-29T12:04:18.001Z</time></trkpt><trkpt lat="43.42230013009838" lon="12.464469301174548"><ele>541.0</ele><time>2026-04-29T12:04:19.001Z</time></trkpt><trkpt lat="43.42233915396254" lon="12.46457102533976"><ele>541.0</ele><time>2026-04-29T12:04:20.001Z</time></trkpt><trkpt lat="43.42241902235041" lon="12.464638379256861"><ele>541.0</ele><time>2026-04-29T12:04:21.001Z</time></trkpt><trkpt lat="43.422519023191306" lon="12.464660931980692"><ele>539.5</ele><time>2026-04-29T12:04:22.001Z</time></trkpt><trkpt lat="43.42263155658819" lon="12.464654048456245"><ele>538.0</ele><time>2026-04-29T12:04:23.001Z</time></trkpt><trkpt lat="43.42276678792813" lon="12.464665350240923"><ele>536.5</ele><time>2026-04-29T12:04:24.001Z</time></trkpt><trkpt lat="43.4228990110994" lon="12.464671476706688"><ele>535.0</ele><time>2026-04-29T12:04:25.001Z</time></trkpt><trkpt lat="43.42300407382285" lon="12.464685970715594"><ele>535.0</ele><time>2026-04-29T12:04:26.001Z</time></trkpt><trkpt lat="43.42307895521417" lon="12.46472715004147"><ele>535.0</ele><time>2026-04-29T12:04:27.001Z</time></trkpt><trkpt lat="43.42313755201199" lon="12.46477983900856"><ele>535.0</ele><time>2026-04-29T12:04:28.001Z</time></trkpt><trkpt lat="43.42315659079183" lon="12.464892064947323"><ele>535.0</ele><time>2026-04-29T12:04:29.001Z</time></trkpt><trkpt lat="43.423145197444114" lon="12.465020377450747"><ele>535.0</ele><time>2026-04-29T12:04:30.001Z</time></trkpt><trkpt lat="43.423106726208246" lon="12.465176007254994"><ele>535.0</ele><time>2026-04-29T12:04:31.001Z</time></trkpt><trkpt lat="43.423065592724505" lon="12.465351889002081"><ele>535.0</ele><time>2026-04-29T12:04:32.001Z</time></trkpt><trkpt lat="43.423048682676466" lon="12.465547519130375"><ele>535.0</ele><time>2026-04-29T12:04:33.001Z</time></trkpt><trkpt lat="43.42303183160669" lon="12.465761392744213"><ele>535.0</ele><time>2026-04-29T12:04:34.001Z</time></trkpt><trkpt lat="43.42301147589521" lon="12.465984649828295"><ele>535.0</ele><time>2026-04-29T12:04:35.001Z</time></trkpt><trkpt lat="43.42298203979391" lon="12.466205836143246"><ele>535.0</ele><time>2026-04-29T12:04:36.001Z</time></trkpt><trkpt lat="43.422951028069534" lon="12.466414360710214"><ele>535.0</ele><time>2026-04-29T12:04:37.001Z</time></trkpt><trkpt lat="43.422912153173684" lon="12.466580905768218"><ele>535.0</ele><time>2026-04-29T12:04:38.001Z</time></trkpt><trkpt lat="43.422863095704535" lon="12.466725375633748"><ele>540.5</ele><time>2026-04-29T12:04:39.001Z</time></trkpt><trkpt lat="43.42280190502256" lon="12.466868398120818"><ele>546.0</ele><time>2026-04-29T12:04:40.001Z</time></trkpt><trkpt lat="43.42273744840521" lon="12.467017488419813"><ele>551.5</ele><time>2026-04-29T12:04:41.001Z</time></trkpt><trkpt lat="43.42269310929959" lon="12.467164637471155"><ele>557.0</ele><time>2026-04-29T12:04:42.001Z</time></trkpt><trkpt lat="43.42266572564816" lon="12.467302278400194"><ele>557.0</ele><time>2026-04-29T12:04:43.001Z</time></trkpt><trkpt lat="43.42265962597615" lon="12.467438163458391"><ele>557.0</ele><time>2026-04-29T12:04:44.001Z</time></trkpt><trkpt lat="43.422662277435975" lon="12.46756821571347"><ele>557.0</ele><time>2026-04-29T12:04:45.001Z</time></trkpt><trkpt lat="43.422673892681864" lon="12.467687851385712"><ele>557.0</ele><time>2026-04-29T12:04:46.001Z</time></trkpt><trkpt lat="43.42268636985499" lon="12.467806872874057"><ele>557.0</ele><time>2026-04-29T12:04:47.001Z</time></trkpt><trkpt lat="43.42271761976876" lon="12.467910482348538"><ele>557.4</ele><time>2026-04-29T12:04:48.001Z</time></trkpt><trkpt lat="43.42275623966763" lon="12.468007396959342"><ele>557.8000000000001</ele><time>2026-04-29T12:04:49.001Z</time></trkpt><trkpt lat="43.42283907024503" lon="12.468060962355297"><ele>558.2</ele><time>2026-04-29T12:04:50.001Z</time></trkpt><trkpt lat="43.42294311464347" lon="12.468073884778212"><ele>558.6</ele><time>2026-04-29T12:04:51.001Z</time></trkpt><trkpt lat="43.42305998117689" lon="12.4680272515623"><ele>559.0</ele><time>2026-04-29T12:04:52.001Z</time></trkpt><trkpt lat="43.42318862792964" lon="12.467990902404484"><ele>554.6666666666667</ele><time>2026-04-29T12:04:53.001Z</time></trkpt><trkpt lat="43.42333541978417" lon="12.467964136958605"><ele>550.3333333333334</ele><time>2026-04-29T12:04:54.001Z</time></trkpt><trkpt lat="43.423500103536114" lon="12.46795985666626"><ele>546.0</ele><time>2026-04-29T12:04:55.001Z</time></trkpt><trkpt lat="43.4236526344406" lon="12.467940706463017"><ele>543.5</ele><time>2026-04-29T12:04:56.001Z</time></trkpt><trkpt lat="43.4238067854503" lon="12.46792275503751"><ele>541.0</ele><time>2026-04-29T12:04:57.001Z</time></trkpt><trkpt lat="43.42394250404076" lon="12.467843917837822"><ele>538.5</ele><time>2026-04-29T12:04:58.001Z</time></trkpt><trkpt lat="43.42406954053301" lon="12.467834640730727"><ele>536.0</ele><time>2026-04-29T12:04:59.001Z</time></trkpt><trkpt lat="43.42416983934362" lon="12.46785858368938"><ele>536.0</ele><time>2026-04-29T12:05:00.001Z</time></trkpt><trkpt lat="43.42427154867299" lon="12.467920258573546"><ele>536.0</ele><time>2026-04-29T12:05:01.001Z</time></trkpt><trkpt lat="43.42438163679889" lon="12.468013637531497"><ele>536.0</ele><time>2026-04-29T12:05:02.001Z</time></trkpt><trkpt lat="43.42447961700274" lon="12.468144362930602"><ele>536.0</ele><time>2026-04-29T12:05:03.001Z</time></trkpt><trkpt lat="43.42457268125113" lon="12.468294280891183"><ele>535.5</ele><time>2026-04-29T12:05:04.001Z</time></trkpt><trkpt lat="43.42467600237242" lon="12.468424015172134"><ele>535.0</ele><time>2026-04-29T12:05:05.001Z</time></trkpt><trkpt lat="43.42478800614324" lon="12.468556343028915"><ele>534.5</ele><time>2026-04-29T12:05:06.001Z</time></trkpt><trkpt lat="43.424922786673996" lon="12.468676194424857"><ele>534.0</ele><time>2026-04-29T12:05:07.001Z</time></trkpt><trkpt lat="43.42506178330575" lon="12.468796279801628"><ele>534.0</ele><time>2026-04-29T12:05:08.001Z</time></trkpt><trkpt lat="43.4252112952505" lon="12.46885512248328"><ele>534.0</ele><time>2026-04-29T12:05:09.001Z</time></trkpt><trkpt lat="43.42534453576075" lon="12.468897548034596"><ele>534.0</ele><time>2026-04-29T12:05:10.001Z</time></trkpt><trkpt lat="43.42546493994815" lon="12.468945855628496"><ele>534.0</ele><time>2026-04-29T12:05:11.001Z</time></trkpt><trkpt lat="43.42556473985274" lon="12.469038445441393"><ele>531.0</ele><time>2026-04-29T12:05:12.001Z</time></trkpt><trkpt lat="43.425628045741426" lon="12.469187483215418"><ele>528.0</ele><time>2026-04-29T12:05:13.001Z</time></trkpt><trkpt lat="43.4257048005116" lon="12.469349435226334"><ele>525.0</ele><time>2026-04-29T12:05:14.001Z</time></trkpt><trkpt lat="43.4258019516438" lon="12.469520355701457"><ele>522.0</ele><time>2026-04-29T12:05:15.001Z</time></trkpt><trkpt lat="43.4259175030829" lon="12.469668427137655"><ele>522.0</ele><time>2026-04-29T12:05:16.001Z</time></trkpt><trkpt lat="43.42600791906512" lon="12.469845971547903"><ele>522.0</ele><time>2026-04-29T12:05:17.001Z</time></trkpt><trkpt lat="43.42608687787684" lon="12.470054479176943"><ele>522.0</ele><time>2026-04-29T12:05:18.002Z</time></trkpt><trkpt lat="43.42616671536577" lon="12.470275122418833"><ele>524.0</ele><time>2026-04-29T12:05:19.002Z</time></trkpt><trkpt lat="43.42624895467095" lon="12.470511401050372"><ele>526.0</ele><time>2026-04-29T12:05:20.002Z</time></trkpt><trkpt lat="43.42636952991997" lon="12.47072846213362"><ele>528.0</ele><time>2026-04-29T12:05:21.002Z</time></trkpt><trkpt lat="43.426520009653146" lon="12.470907649419425"><ele>524.0</ele><time>2026-04-29T12:05:22.002Z</time></trkpt><trkpt lat="43.42665377384115" lon="12.471118328044476"><ele>520.0</ele><time>2026-04-29T12:05:23.002Z</time></trkpt><trkpt lat="43.42682907095872" lon="12.471274152727997"><ele>516.0</ele><time>2026-04-29T12:05:24.002Z</time></trkpt><trkpt lat="43.427003047695116" lon="12.471428860263835"><ele>514.3333333333334</ele><time>2026-04-29T12:05:25.002Z</time></trkpt><trkpt lat="43.4271619363943" lon="12.47156843811618"><ele>512.6666666666667</ele><time>2026-04-29T12:05:26.002Z</time></trkpt><trkpt lat="43.42730136386315" lon="12.471695744393728"><ele>511.0</ele><time>2026-04-29T12:05:27.002Z</time></trkpt><trkpt lat="43.427424817502676" lon="12.471809912023883"><ele>511.0</ele><time>2026-04-29T12:05:28.002Z</time></trkpt><trkpt lat="43.42753380112509" lon="12.4719067354424"><ele>511.0</ele><time>2026-04-29T12:05:29.002Z</time></trkpt><trkpt lat="43.42763718634313" lon="12.471974248837562"><ele>511.0</ele><time>2026-04-29T12:05:30.002Z</time></trkpt><trkpt lat="43.42773698453566" lon="12.472013465450432"><ele>511.0</ele><time>2026-04-29T12:05:31.002Z</time></trkpt><trkpt lat="43.42781815030276" lon="12.47199802717199"><ele>511.0</ele><time>2026-04-29T12:05:32Z</time></trkpt><trkpt lat="43.427881443376265" lon="12.471933599490333"><ele>511.0</ele><time>2026-04-29T12:05:33Z</time></trkpt><trkpt lat="43.427918123817946" lon="12.471836244694959"><ele>511.0</ele><time>2026-04-29T12:05:34Z</time></trkpt><trkpt lat="43.42793032432304" lon="12.471711460005801"><ele>511.0</ele><time>2026-04-29T12:05:35Z</time></trkpt><trkpt lat="43.42792572406505" lon="12.471562868015893"><ele>511.0</ele><time>2026-04-29T12:05:36Z</time></trkpt><trkpt lat="43.4279115484424" lon="12.471398266708958"><ele>511.0</ele><time>2026-04-29T12:05:37Z</time></trkpt><trkpt lat="43.427885710752975" lon="12.471219002810699"><ele>511.25</ele><time>2026-04-29T12:05:38Z</time></trkpt><trkpt lat="43.42785389582517" lon="12.471032269928669"><ele>511.5</ele><time>2026-04-29T12:05:39Z</time></trkpt><trkpt lat="43.42782017467941" lon="12.470839633722738"><ele>511.75</ele><time>2026-04-29T12:05:40Z</time></trkpt><trkpt lat="43.42778669480564" lon="12.470640099886305"><ele>512.0</ele><time>2026-04-29T12:05:41Z</time></trkpt><trkpt lat="43.427749750978" lon="12.47043552627753"><ele>514.0</ele><time>2026-04-29T12:05:42Z</time></trkpt><trkpt lat="43.42771402594898" lon="12.4702216971395"><ele>516.0</ele><time>2026-04-29T12:05:43Z</time></trkpt><trkpt lat="43.42768459518397" lon="12.469996671326543"><ele>518.0</ele><time>2026-04-29T12:05:44Z</time></trkpt><trkpt lat="43.42765500066442" lon="12.469762086550087"><ele>519.6666666666666</ele><time>2026-04-29T12:05:45Z</time></trkpt><trkpt lat="43.42762170562113" lon="12.46951403390872"><ele>521.3333333333334</ele><time>2026-04-29T12:05:46Z</time></trkpt><trkpt lat="43.427585455152354" lon="12.46925827325895"><ele>523.0</ele><time>2026-04-29T12:05:47Z</time></trkpt><trkpt lat="43.42755081564465" lon="12.468996365476388"><ele>525.0</ele><time>2026-04-29T12:05:48Z</time></trkpt><trkpt lat="43.42751747718571" lon="12.46873154411734"><ele>527.0</ele><time>2026-04-29T12:05:49Z</time></trkpt><trkpt lat="43.427484138799684" lon="12.468464541207357"><ele>529.0</ele><time>2026-04-29T12:05:50Z</time></trkpt><trkpt lat="43.42744198359405" lon="12.468197292768979"><ele>532.6666666666667</ele><time>2026-04-29T12:05:51Z</time></trkpt><trkpt lat="43.42738744868315" lon="12.467935027568885"><ele>536.3333333333334</ele><time>2026-04-29T12:05:52Z</time></trkpt><trkpt lat="43.4273199436039" lon="12.467672677764392"><ele>540.0</ele><time>2026-04-29T12:05:53Z</time></trkpt><trkpt lat="43.42725039580991" lon="12.467412763087863"><ele>540.0</ele><time>2026-04-29T12:05:54Z</time></trkpt><trkpt lat="43.42718244382099" lon="12.467157393293423"><ele>540.0</ele><time>2026-04-29T12:05:55Z</time></trkpt><trkpt lat="43.42712323768568" lon="12.46693370559597"><ele>540.0</ele><time>2026-04-29T12:05:56Z</time></trkpt><trkpt lat="43.42707955198326" lon="12.46674766534117"><ele>540.75</ele><time>2026-04-29T12:05:57Z</time></trkpt><trkpt lat="43.42706771148952" lon="12.466577487249795"><ele>541.5</ele><time>2026-04-29T12:05:58Z</time></trkpt><trkpt lat="43.42708712117649" lon="12.466412972330646"><ele>542.25</ele><time>2026-04-29T12:05:59Z</time></trkpt><trkpt lat="43.42713085977727" lon="12.466260437727602"><ele>543.0</ele><time>2026-04-29T12:06:00Z</time></trkpt><trkpt lat="43.4271866766411" lon="12.466111519118265"><ele>543.0</ele><time>2026-04-29T12:06:01.001Z</time></trkpt><trkpt lat="43.427261238728974" lon="12.465975704551497"><ele>543.0</ele><time>2026-04-29T12:06:02.001Z</time></trkpt><trkpt lat="43.4273591233548" lon="12.465860751057999"><ele>543.0</ele><time>2026-04-29T12:06:03.001Z</time></trkpt><trkpt lat="43.42746726452201" lon="12.465750761328415"><ele>543.0</ele><time>2026-04-29T12:06:04.001Z</time></trkpt><trkpt lat="43.42758210283712" lon="12.465642552109294"><ele>543.0</ele><time>2026-04-29T12:06:05.001Z</time></trkpt><trkpt lat="43.427704667382166" lon="12.465535207294327"><ele>543.0</ele><time>2026-04-29T12:06:06.001Z</time></trkpt><trkpt lat="43.42781656961776" lon="12.465450242492096"><ele>543.0</ele><time>2026-04-29T12:06:07.001Z</time></trkpt><trkpt lat="43.42790294396285" lon="12.465355864640488"><ele>543.0</ele><time>2026-04-29T12:06:08.001Z</time></trkpt><trkpt lat="43.427950614873374" lon="12.465218270092882"><ele>543.0</ele><time>2026-04-29T12:06:09.001Z</time></trkpt><trkpt lat="43.427958374988144" lon="12.465054844011226"><ele>543.0</ele><time>2026-04-29T12:06:10.001Z</time></trkpt><trkpt lat="43.427921493357964" lon="12.464893666768749"><ele>543.0</ele><time>2026-04-29T12:06:11.001Z</time></trkpt><trkpt lat="43.427849168668274" lon="12.464737484280915"><ele>543.0</ele><time>2026-04-29T12:06:12.001Z</time></trkpt><trkpt lat="43.42777569998343" lon="12.464552698624143"><ele>547.0</ele><time>2026-04-29T12:06:13.001Z</time></trkpt><trkpt lat="43.427681477323645" lon="12.464374859256203"><ele>551.0</ele><time>2026-04-29T12:06:14.001Z</time></trkpt><trkpt lat="43.4275864891535" lon="12.46419144364269"><ele>555.0</ele><time>2026-04-29T12:06:15.001Z</time></trkpt><trkpt lat="43.42749963393906" lon="12.464005738389341"><ele>555.0</ele><time>2026-04-29T12:06:16.001Z</time></trkpt><trkpt lat="43.427420415940986" lon="12.463846017034118"><ele>555.0</ele><time>2026-04-29T12:06:17.001Z</time></trkpt><trkpt lat="43.42738169385819" lon="12.463683513365538"><ele>555.0</ele><time>2026-04-29T12:06:18.001Z</time></trkpt><trkpt lat="43.42736484408388" lon="12.46353603414574"><ele>555.0</ele><time>2026-04-29T12:06:19.001Z</time></trkpt><trkpt lat="43.42738292257179" lon="12.463416562985781"><ele>555.2</ele><time>2026-04-29T12:06:20.001Z</time></trkpt><trkpt lat="43.427446282655836" lon="12.463331089231778"><ele>555.4</ele><time>2026-04-29T12:06:21.001Z</time></trkpt><trkpt lat="43.42753825853542" lon="12.46328930521777"><ele>555.6</ele><time>2026-04-29T12:06:22.001Z</time></trkpt><trkpt lat="43.42764833307715" lon="12.463274212671687"><ele>555.8</ele><time>2026-04-29T12:06:23.001Z</time></trkpt><trkpt lat="43.42776839928711" lon="12.463259074089809"><ele>556.0</ele><time>2026-04-29T12:06:24.001Z</time></trkpt><trkpt lat="43.42790187058489" lon="12.463271017017256"><ele>557.5</ele><time>2026-04-29T12:06:25.001Z</time></trkpt><trkpt lat="43.428047470286906" lon="12.463262267375262"><ele>559.0</ele><time>2026-04-29T12:06:26.001Z</time></trkpt><trkpt lat="43.42820109952977" lon="12.463258720722628"><ele>560.5</ele><time>2026-04-29T12:06:27.001Z</time></trkpt><trkpt lat="43.428346169302294" lon="12.46326235627455"><ele>562.0</ele><time>2026-04-29T12:06:28.001Z</time></trkpt><trkpt lat="43.428474532229245" lon="12.463338253537215"><ele>562.0</ele><time>2026-04-29T12:06:29.001Z</time></trkpt><trkpt lat="43.428595448952294" lon="12.463446745280805"><ele>562.0</ele><time>2026-04-29T12:06:30.001Z</time></trkpt><trkpt lat="43.428704166073274" lon="12.46358448819125"><ele>562.0</ele><time>2026-04-29T12:06:31.001Z</time></trkpt><trkpt lat="43.42880366334354" lon="12.463740246824054"><ele>562.0</ele><time>2026-04-29T12:06:32.001Z</time></trkpt><trkpt lat="43.42887063587217" lon="12.463916625609853"><ele>566.3333333333334</ele><time>2026-04-29T12:06:33.001Z</time></trkpt><trkpt lat="43.42892360808979" lon="12.4641130029255"><ele>570.6666666666666</ele><time>2026-04-29T12:06:34.001Z</time></trkpt><trkpt lat="43.42897707672719" lon="12.464319089325693"><ele>575.0</ele><time>2026-04-29T12:06:35.001Z</time></trkpt><trkpt lat="43.42902951089133" lon="12.464517996079021"><ele>575.2</ele><time>2026-04-29T12:06:36.001Z</time></trkpt><trkpt lat="43.42908058677883" lon="12.464675698985063"><ele>575.4</ele><time>2026-04-29T12:06:37.001Z</time></trkpt><trkpt lat="43.429137257686214" lon="12.464794048586931"><ele>575.6</ele><time>2026-04-29T12:06:38.001Z</time></trkpt><trkpt lat="43.4292092379275" lon="12.4648561127246"><ele>575.8</ele><time>2026-04-29T12:06:39.001Z</time></trkpt><trkpt lat="43.429306772525614" lon="12.464859718247114"><ele>576.0</ele><time>2026-04-29T12:06:40.001Z</time></trkpt><trkpt lat="43.42941692207074" lon="12.464813915416451"><ele>576.0</ele><time>2026-04-29T12:06:41.001Z</time></trkpt><trkpt lat="43.429537011840544" lon="12.464753182070107"><ele>576.0</ele><time>2026-04-29T12:06:42.001Z</time></trkpt><trkpt lat="43.429668191109656" lon="12.464705083862382"><ele>576.0</ele><time>2026-04-29T12:06:43.001Z</time></trkpt><trkpt lat="43.42980835543927" lon="12.464669788235186"><ele>576.0</ele><time>2026-04-29T12:06:44.001Z</time></trkpt><trkpt lat="43.429936902138664" lon="12.464625798863068"><ele>578.25</ele><time>2026-04-29T12:06:45.001Z</time></trkpt><trkpt lat="43.430052648541015" lon="12.46453764468624"><ele>580.5</ele><time>2026-04-29T12:06:46.001Z</time></trkpt><trkpt lat="43.43016921770753" lon="12.464406511135751"><ele>582.75</ele><time>2026-04-29T12:06:47.001Z</time></trkpt><trkpt lat="43.43029832240417" lon="12.464277149597448"><ele>585.0</ele><time>2026-04-29T12:06:48.001Z</time></trkpt><trkpt lat="43.430433305192096" lon="12.464171143842734"><ele>588.2</ele><time>2026-04-29T12:06:49.001Z</time></trkpt><trkpt lat="43.43055560351231" lon="12.464109425658798"><ele>591.4</ele><time>2026-04-29T12:06:50.001Z</time></trkpt><trkpt lat="43.430642819324675" lon="12.46407654745865"><ele>594.6</ele><time>2026-04-29T12:06:51.001Z</time></trkpt><trkpt lat="43.43072400117101" lon="12.464048287955947"><ele>597.8</ele><time>2026-04-29T12:06:53.001Z</time></trkpt><trkpt lat="43.430797321004356" lon="12.464027501967097"><ele>601.0</ele><time>2026-04-29T12:06:55.001Z</time></trkpt><trkpt lat="43.43092211876839" lon="12.463986606949877"><ele>601.0</ele><time>2026-04-29T12:06:57.001Z</time></trkpt><trkpt lat="43.43101641793146" lon="12.463948387605067"><ele>601.0</ele><time>2026-04-29T12:06:58.001Z</time></trkpt><trkpt lat="43.43110668992308" lon="12.463894626909994"><ele>601.0</ele><time>2026-04-29T12:06:59.001Z</time></trkpt><trkpt lat="43.431179334296644" lon="12.463810776683259"><ele>601.0</ele><time>2026-04-29T12:07:00.001Z</time></trkpt><trkpt lat="43.43121669357068" lon="12.463700040810089"><ele>601.0</ele><time>2026-04-29T12:07:01.001Z</time></trkpt><trkpt lat="43.431212490382585" lon="12.463573493542166"><ele>601.25</ele><time>2026-04-29T12:07:02.001Z</time></trkpt><trkpt lat="43.431196883956865" lon="12.46341048657376"><ele>601.5</ele><time>2026-04-29T12:07:03.001Z</time></trkpt><trkpt lat="43.431180497615195" lon="12.463236399437667"><ele>601.75</ele><time>2026-04-29T12:07:04.001Z</time></trkpt><trkpt lat="43.43114170799092" lon="12.463058821688602"><ele>602.0</ele><time>2026-04-29T12:07:05.001Z</time></trkpt><trkpt lat="43.43107581155013" lon="12.462891504573808"><ele>605.6666666666666</ele><time>2026-04-29T12:07:06.001Z</time></trkpt><trkpt lat="43.430982185456806" lon="12.462747284588445"><ele>609.3333333333334</ele><time>2026-04-29T12:07:07.001Z</time></trkpt><trkpt lat="43.430868827110835" lon="12.462609503380442"><ele>613.0</ele><time>2026-04-29T12:07:08.001Z</time></trkpt><trkpt lat="43.430744233913956" lon="12.46247180312259"><ele>613.0</ele><time>2026-04-29T12:07:09.001Z</time></trkpt><trkpt lat="43.4306308190528" lon="12.462353334769844"><ele>613.0</ele><time>2026-04-29T12:07:10.001Z</time></trkpt><trkpt lat="43.430542496850855" lon="12.462257905765574"><ele>613.0</ele><time>2026-04-29T12:07:11.001Z</time></trkpt><trkpt lat="43.43047807895104" lon="12.462143456800431"><ele>613.0</ele><time>2026-04-29T12:07:12.001Z</time></trkpt><trkpt lat="43.43044822595591" lon="12.462027863412763"><ele>613.0</ele><time>2026-04-29T12:07:13.001Z</time></trkpt><trkpt lat="43.43045516871918" lon="12.461920506767385"><ele>614.6</ele><time>2026-04-29T12:07:14.001Z</time></trkpt><trkpt lat="43.430499799713594" lon="12.461806217307927"><ele>616.1999999999999</ele><time>2026-04-29T12:07:15.001Z</time></trkpt><trkpt lat="43.43057186132894" lon="12.461700022509758"><ele>617.8</ele><time>2026-04-29T12:07:16.001Z</time></trkpt><trkpt lat="43.43065526842651" lon="12.461604284772333"><ele>619.4</ele><time>2026-04-29T12:07:17.001Z</time></trkpt><trkpt lat="43.430752653861596" lon="12.461517219553933"><ele>621.0</ele><time>2026-04-29T12:07:18.001Z</time></trkpt><trkpt lat="43.43085403079523" lon="12.46142638092827"><ele>621.0</ele><time>2026-04-29T12:07:19.001Z</time></trkpt><trkpt lat="43.430952355841264" lon="12.461318030402623"><ele>621.0</ele><time>2026-04-29T12:07:20.001Z</time></trkpt><trkpt lat="43.431040360015" lon="12.461189381794995"><ele>621.0</ele><time>2026-04-29T12:07:21.001Z</time></trkpt><trkpt lat="43.43112335028056" lon="12.461051403069728"><ele>621.0</ele><time>2026-04-29T12:07:22.001Z</time></trkpt><trkpt lat="43.43122268959844" lon="12.460932442339871"><ele>622.25</ele><time>2026-04-29T12:07:23.001Z</time></trkpt><trkpt lat="43.43134302162039" lon="12.460847251880331"><ele>623.5</ele><time>2026-04-29T12:07:24.002Z</time></trkpt><trkpt lat="43.43146991127459" lon="12.460814176163423"><ele>624.75</ele><time>2026-04-29T12:07:25.002Z</time></trkpt><trkpt lat="43.431602120338276" lon="12.460776832346363"><ele>626.0</ele><time>2026-04-29T12:07:26.002Z</time></trkpt><trkpt lat="43.43174577656326" lon="12.460694499899885"><ele>626.0</ele><time>2026-04-29T12:07:27.002Z</time></trkpt><trkpt lat="43.431902670732526" lon="12.46059904544352"><ele>626.0</ele><time>2026-04-29T12:07:28.002Z</time></trkpt><trkpt lat="43.4320730586536" lon="12.460530873404336"><ele>626.0</ele><time>2026-04-29T12:07:29.002Z</time></trkpt><trkpt lat="43.432257477990056" lon="12.460496271634089"><ele>626.6666666666666</ele><time>2026-04-29T12:07:30.002Z</time></trkpt><trkpt lat="43.43244521156885" lon="12.460461641685008"><ele>627.3333333333334</ele><time>2026-04-29T12:07:31.002Z</time></trkpt><trkpt lat="43.43263338770674" lon="12.460404588983735"><ele>628.0</ele><time>2026-04-29T12:07:32.002Z</time></trkpt><trkpt lat="43.432821807889106" lon="12.46034759487535"><ele>631.6666666666667</ele><time>2026-04-29T12:07:33.002Z</time></trkpt><trkpt lat="43.432994938265594" lon="12.460324516695044"><ele>635.3333333333334</ele><time>2026-04-29T12:07:34.002Z</time></trkpt><trkpt lat="43.43315756995456" lon="12.460337364526193"><ele>639.0</ele><time>2026-04-29T12:07:35.002Z</time></trkpt><trkpt lat="43.43330423158306" lon="12.460376316806666"><ele>639.0</ele><time>2026-04-29T12:07:36.002Z</time></trkpt><trkpt lat="43.433452003471885" lon="12.460404222147735"><ele>639.0</ele><time>2026-04-29T12:07:37.002Z</time></trkpt><trkpt lat="43.4336180751831" lon="12.46040537401477"><ele>639.0</ele><time>2026-04-29T12:07:38Z</time></trkpt><trkpt lat="43.433802358549755" lon="12.4603748317939"><ele>642.3333333333334</ele><time>2026-04-29T12:07:39Z</time></trkpt><trkpt lat="43.433981291552634" lon="12.46033695802695"><ele>645.6666666666667</ele><time>2026-04-29T12:07:40Z</time></trkpt><trkpt lat="43.434132766749485" lon="12.460300186595965"><ele>649.0</ele><time>2026-04-29T12:07:41Z</time></trkpt><trkpt lat="43.434275250024385" lon="12.460244204664463"><ele>649.0</ele><time>2026-04-29T12:07:42Z</time></trkpt><trkpt lat="43.43441489757125" lon="12.460146424055052"><ele>649.0</ele><time>2026-04-29T12:07:43Z</time></trkpt><trkpt lat="43.43455880241851" lon="12.459996278245114"><ele>649.0</ele><time>2026-04-29T12:07:44Z</time></trkpt><trkpt lat="43.434705545361226" lon="12.459823909786794"><ele>650.3333333333334</ele><time>2026-04-29T12:07:45Z</time></trkpt><trkpt lat="43.43485035613003" lon="12.459634561687336"><ele>651.6666666666666</ele><time>2026-04-29T12:07:46Z</time></trkpt><trkpt lat="43.43496429573499" lon="12.459452361554206"><ele>653.0</ele><time>2026-04-29T12:07:47Z</time></trkpt><trkpt lat="43.43504651486934" lon="12.459261660676752"><ele>653.0</ele><time>2026-04-29T12:07:48Z</time></trkpt><trkpt lat="43.435101713793514" lon="12.459075391589453"><ele>653.0</ele><time>2026-04-29T12:07:49Z</time></trkpt><trkpt lat="43.43517588419988" lon="12.458934811182113"><ele>653.0</ele><time>2026-04-29T12:07:50Z</time></trkpt><trkpt lat="43.43528725770634" lon="12.458840889501289"><ele>653.0</ele><time>2026-04-29T12:07:51Z</time></trkpt><trkpt lat="43.43542835806478" lon="12.458766710745406"><ele>655.3333333333333</ele><time>2026-04-29T12:07:52Z</time></trkpt><trkpt lat="43.43557689912531" lon="12.45867381364701"><ele>657.6666666666666</ele><time>2026-04-29T12:07:53Z</time></trkpt><trkpt lat="43.43570671419466" lon="12.458522584344722"><ele>660.0</ele><time>2026-04-29T12:07:54Z</time></trkpt><trkpt lat="43.43581436930417" lon="12.458368224256304"><ele>660.0</ele><time>2026-04-29T12:07:55Z</time></trkpt><trkpt lat="43.435898457221306" lon="12.4582322929878"><ele>660.0</ele><time>2026-04-29T12:07:56Z</time></trkpt><trkpt lat="43.43593081946422" lon="12.45809970988354"><ele>660.0</ele><time>2026-04-29T12:07:57Z</time></trkpt><trkpt lat="43.43592420466503" lon="12.457940509992376"><ele>660.0</ele><time>2026-04-29T12:07:58Z</time></trkpt><trkpt lat="43.435861350659245" lon="12.457787425706794"><ele>661.3333333333334</ele><time>2026-04-29T12:07:59Z</time></trkpt><trkpt lat="43.43575958199268" lon="12.457646421518998"><ele>662.6666666666667</ele><time>2026-04-29T12:08:00Z</time></trkpt><trkpt lat="43.43561715155922" lon="12.45751094378067"><ele>664.0</ele><time>2026-04-29T12:08:01Z</time></trkpt><trkpt lat="43.4354636497354" lon="12.457364283613082"><ele>666.0</ele><time>2026-04-29T12:08:02Z</time></trkpt><trkpt lat="43.4353075034139" lon="12.457207383411303"><ele>668.0</ele><time>2026-04-29T12:08:03Z</time></trkpt><trkpt lat="43.43517172418009" lon="12.457083740647867"><ele>670.0</ele><time>2026-04-29T12:08:04Z</time></trkpt><trkpt lat="43.435035985724234" lon="12.457017520029492"><ele>670.0</ele><time>2026-04-29T12:08:05Z</time></trkpt><trkpt lat="43.4348912902722" lon="12.457010595835648"><ele>670.0</ele><time>2026-04-29T12:08:06Z</time></trkpt><trkpt lat="43.4347388526533" lon="12.457036319361748"><ele>670.0</ele><time>2026-04-29T12:08:07Z</time></trkpt><trkpt lat="43.434601441975445" lon="12.45698959750853"><ele>670.0</ele><time>2026-04-29T12:08:08Z</time></trkpt><trkpt lat="43.4344888903723" lon="12.456858296097574"><ele>668.0</ele><time>2026-04-29T12:08:09Z</time></trkpt><trkpt lat="43.43439399163892" lon="12.45667298990991"><ele>666.0</ele><time>2026-04-29T12:08:10Z</time></trkpt><trkpt lat="43.43432075415846" lon="12.456450197522456"><ele>664.0</ele><time>2026-04-29T12:08:11Z</time></trkpt><trkpt lat="43.43426774932525" lon="12.456215552928915"><ele>664.0</ele><time>2026-04-29T12:08:12Z</time></trkpt><trkpt lat="43.43423816908949" lon="12.45594667542183"><ele>664.0</ele><time>2026-04-29T12:08:13Z</time></trkpt><trkpt lat="43.43418352490135" lon="12.45569796643459"><ele>664.0</ele><time>2026-04-29T12:08:14Z</time></trkpt><trkpt lat="43.434081658582556" lon="12.455494721350968"><ele>663.3333333333334</ele><time>2026-04-29T12:08:15Z</time></trkpt><trkpt lat="43.43393246447895" lon="12.455329245140499"><ele>662.6666666666666</ele><time>2026-04-29T12:08:16.001Z</time></trkpt><trkpt lat="43.4337586824726" lon="12.455186585849257"><ele>662.0</ele><time>2026-04-29T12:08:17.001Z</time></trkpt><trkpt lat="43.43358558838573" lon="12.45500608384671"><ele>662.0</ele><time>2026-04-29T12:08:18.001Z</time></trkpt><trkpt lat="43.433416585831054" lon="12.454793702997579"><ele>662.0</ele><time>2026-04-29T12:08:19.001Z</time></trkpt><trkpt lat="43.433227282240125" lon="12.454568720570787"><ele>660.5</ele><time>2026-04-29T12:08:20.001Z</time></trkpt><trkpt lat="43.43302522676236" lon="12.454356901510016"><ele>659.0</ele><time>2026-04-29T12:08:21.001Z</time></trkpt><trkpt lat="43.43281402411175" lon="12.454133103921942"><ele>659.0</ele><time>2026-04-29T12:08:22.001Z</time></trkpt><trkpt lat="43.43263946910462" lon="12.45387843143463"><ele>659.0</ele><time>2026-04-29T12:08:23.001Z</time></trkpt><trkpt lat="43.43248971546077" lon="12.453644011724775"><ele>660.0</ele><time>2026-04-29T12:08:24.001Z</time></trkpt><trkpt lat="43.432333911667975" lon="12.453483366644035"><ele>661.0</ele><time>2026-04-29T12:08:25.001Z</time></trkpt><trkpt lat="43.432180567200184" lon="12.453385131543378"><ele>662.0</ele><time>2026-04-29T12:08:26.001Z</time></trkpt><trkpt lat="43.432052196170176" lon="12.453309622178885"><ele>662.0</ele><time>2026-04-29T12:08:27.001Z</time></trkpt><trkpt lat="43.431944559668345" lon="12.453203205064149"><ele>662.0</ele><time>2026-04-29T12:08:28.001Z</time></trkpt><trkpt lat="43.431864837763754" lon="12.453031401243749"><ele>662.0</ele><time>2026-04-29T12:08:29.001Z</time></trkpt><trkpt lat="43.431793365820376" lon="12.452831647693593"><ele>662.0</ele><time>2026-04-29T12:08:30.001Z</time></trkpt><trkpt lat="43.431742146715" lon="12.452610653485374"><ele>666.0</ele><time>2026-04-29T12:08:31.001Z</time></trkpt><trkpt lat="43.43170219874346" lon="12.45237429430907"><ele>670.0</ele><time>2026-04-29T12:08:32.001Z</time></trkpt><trkpt lat="43.431648984306754" lon="12.452152545890339"><ele>674.0</ele><time>2026-04-29T12:08:33.001Z</time></trkpt><trkpt lat="43.43155529422315" lon="12.452046983651764"><ele>674.8333333333333</ele><time>2026-04-29T12:08:34.001Z</time></trkpt><trkpt lat="43.43153014177144" lon="12.451917792913424"><ele>675.6666666666666</ele><time>2026-04-29T12:08:35.001Z</time></trkpt><trkpt lat="43.43149746515299" lon="12.451803876541858"><ele>676.5</ele><time>2026-04-29T12:08:36.001Z</time></trkpt><trkpt lat="43.431467368891674" lon="12.451724371574565"><ele>677.3333333333334</ele><time>2026-04-29T12:08:37.001Z</time></trkpt><trkpt lat="43.43143409703488" lon="12.451646498152652"><ele>678.1666666666667</ele><time>2026-04-29T12:08:39.001Z</time></trkpt><trkpt lat="43.43141281560711" lon="12.451550001155478"><ele>679.0</ele><time>2026-04-29T12:08:41.001Z</time></trkpt><trkpt lat="43.43150232250979" lon="12.451487184790901"><ele>679.0</ele><time>2026-04-29T12:08:42.001Z</time></trkpt><trkpt lat="43.43155740990094" lon="12.451395547602035"><ele>679.0</ele><time>2026-04-29T12:08:43.001Z</time></trkpt><trkpt lat="43.43164637524202" lon="12.451240147929004"><ele>679.0</ele><time>2026-04-29T12:08:44.001Z</time></trkpt><trkpt lat="43.43174615170779" lon="12.451069000265187"><ele>679.0</ele><time>2026-04-29T12:08:45.001Z</time></trkpt><trkpt lat="43.431854529256825" lon="12.450883099099553"><ele>677.3333333333334</ele><time>2026-04-29T12:08:46.001Z</time></trkpt><trkpt lat="43.43195858428465" lon="12.450670567698157"><ele>675.6666666666666</ele><time>2026-04-29T12:08:47.001Z</time></trkpt><trkpt lat="43.43208560957691" lon="12.450472099005799"><ele>674.0</ele><time>2026-04-29T12:08:48.001Z</time></trkpt><trkpt lat="43.432208252601754" lon="12.450260384972285"><ele>671.25</ele><time>2026-04-29T12:08:49.001Z</time></trkpt><trkpt lat="43.432323766970235" lon="12.450059950880984"><ele>668.5</ele><time>2026-04-29T12:08:50.001Z</time></trkpt><trkpt lat="43.432422878911204" lon="12.44993284714923"><ele>665.75</ele><time>2026-04-29T12:08:51.001Z</time></trkpt><trkpt lat="43.432494995277715" lon="12.449851444682826"><ele>663.0</ele><time>2026-04-29T12:08:52.001Z</time></trkpt><trkpt lat="43.432561103241575" lon="12.44985555317105"><ele>663.0</ele><time>2026-04-29T12:08:53.001Z</time></trkpt><trkpt lat="43.43259499010771" lon="12.45000202301893"><ele>663.0</ele><time>2026-04-29T12:08:55.001Z</time></trkpt><trkpt lat="43.432641930669796" lon="12.450117187167322"><ele>663.0</ele><time>2026-04-29T12:08:56.001Z</time></trkpt><trkpt lat="43.432728567617104" lon="12.450247996824396"><ele>663.0</ele><time>2026-04-29T12:08:57.001Z</time></trkpt><trkpt lat="43.43284701833731" lon="12.450380942578603"><ele>662.0</ele><time>2026-04-29T12:08:58.001Z</time></trkpt><trkpt lat="43.43299662992077" lon="12.450505361525435"><ele>661.0</ele><time>2026-04-29T12:08:59.001Z</time></trkpt><trkpt lat="43.43316519478192" lon="12.450618342199245"><ele>660.0</ele><time>2026-04-29T12:09:00.001Z</time></trkpt><trkpt lat="43.43332270314539" lon="12.45072193248892"><ele>660.0</ele><time>2026-04-29T12:09:01.001Z</time></trkpt><trkpt lat="43.4334414388577" lon="12.450810034082753"><ele>660.0</ele><time>2026-04-29T12:09:02.001Z</time></trkpt><trkpt lat="43.43355895772836" lon="12.450867889284048"><ele>660.0</ele><time>2026-04-29T12:09:03.001Z</time></trkpt><trkpt lat="43.433673458121696" lon="12.450864970717546"><ele>660.0</ele><time>2026-04-29T12:09:04.001Z</time></trkpt><trkpt lat="43.4337861898835" lon="12.450792331710032"><ele>661.3333333333334</ele><time>2026-04-29T12:09:05.001Z</time></trkpt><trkpt lat="43.433886896897256" lon="12.450666697471133"><ele>662.6666666666667</ele><time>2026-04-29T12:09:06.001Z</time></trkpt><trkpt lat="43.433988185891764" lon="12.450504943801072"><ele>664.0</ele><time>2026-04-29T12:09:07.001Z</time></trkpt><trkpt lat="43.43409174480394" lon="12.450337577484923"><ele>660.0</ele><time>2026-04-29T12:09:08.001Z</time></trkpt><trkpt lat="43.43420333548163" lon="12.450157142159815"><ele>656.0</ele><time>2026-04-29T12:09:09.001Z</time></trkpt><trkpt lat="43.434305847047995" lon="12.449985047687099"><ele>652.0</ele><time>2026-04-29T12:09:10.001Z</time></trkpt><trkpt lat="43.434404895448274" lon="12.449852472932086"><ele>652.0</ele><time>2026-04-29T12:09:11.001Z</time></trkpt><trkpt lat="43.434502358084224" lon="12.449743731266416"><ele>652.0</ele><time>2026-04-29T12:09:12.001Z</time></trkpt><trkpt lat="43.43460255853703" lon="12.449748582032653"><ele>652.0</ele><time>2026-04-29T12:09:13.001Z</time></trkpt><trkpt lat="43.43468185162005" lon="12.449781588707248"><ele>652.0</ele><time>2026-04-29T12:09:14.001Z</time></trkpt><trkpt lat="43.434745914346585" lon="12.449913509297769"><ele>652.0</ele><time>2026-04-29T12:09:15.001Z</time></trkpt><trkpt lat="43.43486245385828" lon="12.450041736319303"><ele>651.25</ele><time>2026-04-29T12:09:16.001Z</time></trkpt><trkpt lat="43.43499625296312" lon="12.450169742273951"><ele>650.5</ele><time>2026-04-29T12:09:17.001Z</time></trkpt><trkpt lat="43.43510258896878" lon="12.45028299829435"><ele>649.75</ele><time>2026-04-29T12:09:18.001Z</time></trkpt><trkpt lat="43.43518985702546" lon="12.450345504866705"><ele>649.0</ele><time>2026-04-29T12:09:19.001Z</time></trkpt><trkpt lat="43.4352882996714" lon="12.450342723229374"><ele>649.0</ele><time>2026-04-29T12:09:20.001Z</time></trkpt><trkpt lat="43.43539400952333" lon="12.45029671971541"><ele>649.0</ele><time>2026-04-29T12:09:21.001Z</time></trkpt><trkpt lat="43.43546702256624" lon="12.450137347015566"><ele>649.0</ele><time>2026-04-29T12:09:22.001Z</time></trkpt><trkpt lat="43.43549637264212" lon="12.449956699692978"><ele>649.0</ele><time>2026-04-29T12:09:23.001Z</time></trkpt><trkpt lat="43.435484213956606" lon="12.44976592180669"><ele>646.0</ele><time>2026-04-29T12:09:24.001Z</time></trkpt><trkpt lat="43.4354600309549" lon="12.449559985244141"><ele>643.0</ele><time>2026-04-29T12:09:25.001Z</time></trkpt><trkpt lat="43.43543945786515" lon="12.44933677480381"><ele>640.0</ele><time>2026-04-29T12:09:26.001Z</time></trkpt><trkpt lat="43.43542312796252" lon="12.449096893673012"><ele>640.0</ele><time>2026-04-29T12:09:27.001Z</time></trkpt><trkpt lat="43.435411494946266" lon="12.448842696864347"><ele>640.0</ele><time>2026-04-29T12:09:28.001Z</time></trkpt><trkpt lat="43.43538848499798" lon="12.44858139471388"><ele>640.0</ele><time>2026-04-29T12:09:29.001Z</time></trkpt><trkpt lat="43.43536300458239" lon="12.448307101620067"><ele>636.6666666666667</ele><time>2026-04-29T12:09:30.001Z</time></trkpt><trkpt lat="43.435336352406594" lon="12.448026151301706"><ele>633.3333333333334</ele><time>2026-04-29T12:09:31.001Z</time></trkpt><trkpt lat="43.4353106181701" lon="12.447737663518403"><ele>630.0</ele><time>2026-04-29T12:09:32.001Z</time></trkpt><trkpt lat="43.43528703947329" lon="12.447467341361003"><ele>628.0</ele><time>2026-04-29T12:09:33.001Z</time></trkpt><trkpt lat="43.43525958840653" lon="12.447222391753952"><ele>626.0</ele><time>2026-04-29T12:09:34.001Z</time></trkpt><trkpt lat="43.43523615490792" lon="12.44701444586294"><ele>624.0</ele><time>2026-04-29T12:09:35.002Z</time></trkpt><trkpt lat="43.43523082777834" lon="12.44685239014943"><ele>623.0</ele><time>2026-04-29T12:09:36.002Z</time></trkpt><trkpt lat="43.43525280595875" lon="12.446753395723798"><ele>622.0</ele><time>2026-04-29T12:09:37.002Z</time></trkpt><trkpt lat="43.43530921731173" lon="12.44668302206778"><ele>621.0</ele><time>2026-04-29T12:09:38.002Z</time></trkpt><trkpt lat="43.43540976455691" lon="12.446683426679959"><ele>620.0</ele><time>2026-04-29T12:09:39.002Z</time></trkpt><trkpt lat="43.43552772958649" lon="12.44666856490225"><ele>619.0</ele><time>2026-04-29T12:09:40.002Z</time></trkpt><trkpt lat="43.435650717574845" lon="12.44664070886718"><ele>621.75</ele><time>2026-04-29T12:09:41.002Z</time></trkpt><trkpt lat="43.43574123229955" lon="12.446524431802995"><ele>624.5</ele><time>2026-04-29T12:09:42.002Z</time></trkpt><trkpt lat="43.435787718253124" lon="12.446382841228694"><ele>627.25</ele><time>2026-04-29T12:09:43.002Z</time></trkpt><trkpt lat="43.43580234269112" lon="12.446210281918614"><ele>630.0</ele><time>2026-04-29T12:09:44Z</time></trkpt><trkpt lat="43.435811282773386" lon="12.446020603240358"><ele>630.0</ele><time>2026-04-29T12:09:45Z</time></trkpt><trkpt lat="43.43583162345464" lon="12.44582355718543"><ele>630.0</ele><time>2026-04-29T12:09:46Z</time></trkpt><trkpt lat="43.435851565271705" lon="12.445624931203863"><ele>630.0</ele><time>2026-04-29T12:09:47Z</time></trkpt><trkpt lat="43.43588152374466" lon="12.445435684565455"><ele>630.0</ele><time>2026-04-29T12:09:48Z</time></trkpt><trkpt lat="43.43590342376487" lon="12.44525641676854"><ele>628.6</ele><time>2026-04-29T12:09:49Z</time></trkpt><trkpt lat="43.43592690248087" lon="12.445108360963923"><ele>627.2</ele><time>2026-04-29T12:09:50Z</time></trkpt><trkpt lat="43.435948431493024" lon="12.444993660078238"><ele>625.8</ele><time>2026-04-29T12:09:51Z</time></trkpt><trkpt lat="43.435979992591484" lon="12.444908140748922"><ele>624.4</ele><time>2026-04-29T12:09:52Z</time></trkpt><trkpt lat="43.436107311024244" lon="12.444861669549871"><ele>623.0</ele><time>2026-04-29T12:09:54Z</time></trkpt><trkpt lat="43.43619674765862" lon="12.444908340405357"><ele>623.0</ele><time>2026-04-29T12:09:55Z</time></trkpt><trkpt lat="43.43626149651195" lon="12.445042275095627"><ele>623.0</ele><time>2026-04-29T12:09:56Z</time></trkpt><trkpt lat="43.43636099537702" lon="12.445155827410465"><ele>623.0</ele><time>2026-04-29T12:09:57Z</time></trkpt><trkpt lat="43.43642567546407" lon="12.445263518303454"><ele>623.0</ele><time>2026-04-29T12:09:58Z</time></trkpt><trkpt lat="43.43646878751187" lon="12.44537716239186"><ele>623.0</ele><time>2026-04-29T12:09:59Z</time></trkpt><trkpt lat="43.436454846127155" lon="12.44552920905381"><ele>621.0</ele><time>2026-04-29T12:10:00Z</time></trkpt><trkpt lat="43.43642028000493" lon="12.445704047467565"><ele>619.0</ele><time>2026-04-29T12:10:01Z</time></trkpt><trkpt lat="43.436365511020306" lon="12.445890047135522"><ele>617.0</ele><time>2026-04-29T12:10:02Z</time></trkpt><trkpt lat="43.43633360618387" lon="12.446042772561848"><ele>615.0</ele><time>2026-04-29T12:10:03Z</time></trkpt><trkpt lat="43.43631907076351" lon="12.446156066461144"><ele>615.0</ele><time>2026-04-29T12:10:04Z</time></trkpt><trkpt lat="43.43633947582346" lon="12.44623818035935"><ele>615.0</ele><time>2026-04-29T12:10:05Z</time></trkpt><trkpt lat="43.436375642726965" lon="12.446322859425925"><ele>615.0</ele><time>2026-04-29T12:10:06Z</time></trkpt><trkpt lat="43.43647467876285" lon="12.446386084387314"><ele>615.0</ele><time>2026-04-29T12:10:07Z</time></trkpt><trkpt lat="43.43661937845285" lon="12.446367782189313"><ele>615.0</ele><time>2026-04-29T12:10:08Z</time></trkpt><trkpt lat="43.43677099321073" lon="12.446399080575809"><ele>615.0</ele><time>2026-04-29T12:10:09Z</time></trkpt><trkpt lat="43.436931754013" lon="12.446434674021763"><ele>615.0</ele><time>2026-04-29T12:10:10Z</time></trkpt><trkpt lat="43.43710228404765" lon="12.446471713679749"><ele>615.0</ele><time>2026-04-29T12:10:11Z</time></trkpt><trkpt lat="43.437260298902146" lon="12.446504433372416"><ele>615.0</ele><time>2026-04-29T12:10:12Z</time></trkpt><trkpt lat="43.43740795766474" lon="12.446531359236038"><ele>615.0</ele><time>2026-04-29T12:10:13Z</time></trkpt><trkpt lat="43.437529048478005" lon="12.446647168238039"><ele>615.0</ele><time>2026-04-29T12:10:14Z</time></trkpt><trkpt lat="43.43765786523543" lon="12.446745064648468"><ele>615.0</ele><time>2026-04-29T12:10:15Z</time></trkpt><trkpt lat="43.43778804251906" lon="12.44677809085625"><ele>615.0</ele><time>2026-04-29T12:10:16Z</time></trkpt><trkpt lat="43.437911063405465" lon="12.446744680232014"><ele>615.0</ele><time>2026-04-29T12:10:17Z</time></trkpt><trkpt lat="43.438020362843325" lon="12.446642571673134"><ele>615.0</ele><time>2026-04-29T12:10:18.001Z</time></trkpt><trkpt lat="43.43812683947084" lon="12.446496645257929"><ele>615.0</ele><time>2026-04-29T12:10:19.001Z</time></trkpt><trkpt lat="43.43825934999649" lon="12.446421324282388"><ele>613.0</ele><time>2026-04-29T12:10:20.001Z</time></trkpt><trkpt lat="43.43835481700313" lon="12.446383741557323"><ele>611.0</ele><time>2026-04-29T12:10:21.001Z</time></trkpt><trkpt lat="43.43845769179512" lon="12.446373976277135"><ele>609.0</ele><time>2026-04-29T12:10:22.001Z</time></trkpt><trkpt lat="43.43860041915565" lon="12.446434319022881"><ele>607.0</ele><time>2026-04-29T12:10:23.001Z</time></trkpt><trkpt lat="43.4387406406475" lon="12.44654002294643"><ele>604.6</ele><time>2026-04-29T12:10:24.001Z</time></trkpt><trkpt lat="43.438838510600945" lon="12.446672327016996"><ele>602.2</ele><time>2026-04-29T12:10:25.001Z</time></trkpt><trkpt lat="43.43892206148735" lon="12.446802513879456"><ele>599.8</ele><time>2026-04-29T12:10:26.001Z</time></trkpt><trkpt lat="43.43896773313799" lon="12.446906449611078"><ele>597.4</ele><time>2026-04-29T12:10:27.001Z</time></trkpt><trkpt lat="43.43904572527854" lon="12.446970102220988"><ele>595.0</ele><time>2026-04-29T12:10:29.001Z</time></trkpt><trkpt lat="43.43912532392279" lon="12.446868933162344"><ele>595.0</ele><time>2026-04-29T12:10:30.001Z</time></trkpt><trkpt lat="43.43911262379784" lon="12.446725944057839"><ele>595.0</ele><time>2026-04-29T12:10:31.001Z</time></trkpt><trkpt lat="43.439027149093036" lon="12.446621823138964"><ele>595.0</ele><time>2026-04-29T12:10:32.001Z</time></trkpt><trkpt lat="43.43893975362932" lon="12.446506796434583"><ele>595.0</ele><time>2026-04-29T12:10:33.001Z</time></trkpt><trkpt lat="43.43884191071497" lon="12.44637764204622"><ele>592.3333333333334</ele><time>2026-04-29T12:10:34.001Z</time></trkpt><trkpt lat="43.43873249995792" lon="12.446252066469311"><ele>589.6666666666666</ele><time>2026-04-29T12:10:35.001Z</time></trkpt><trkpt lat="43.43860667080527" lon="12.446143493215288"><ele>587.0</ele><time>2026-04-29T12:10:36.001Z</time></trkpt><trkpt lat="43.438453769508136" lon="12.446069907735325"><ele>587.0</ele><time>2026-04-29T12:10:37.001Z</time></trkpt><trkpt lat="43.438287972756996" lon="12.445997184505154"><ele>587.0</ele><time>2026-04-29T12:10:38.001Z</time></trkpt><trkpt lat="43.43811736766083" lon="12.445917909766665"><ele>587.0</ele><time>2026-04-29T12:10:39.001Z</time></trkpt><trkpt lat="43.437963792407636" lon="12.445818490696949"><ele>589.0</ele><time>2026-04-29T12:10:40.001Z</time></trkpt><trkpt lat="43.43782460672066" lon="12.445766698765038"><ele>591.0</ele><time>2026-04-29T12:10:41.001Z</time></trkpt><trkpt lat="43.437743170622895" lon="12.445708886054788"><ele>593.0</ele><time>2026-04-29T12:10:42.001Z</time></trkpt><trkpt lat="43.43770167788816" lon="12.445639520173518"><ele>595.0</ele><time>2026-04-29T12:10:43.001Z</time></trkpt><trkpt lat="43.43771237933761" lon="12.445540846891184"><ele>597.0</ele><time>2026-04-29T12:10:44.001Z</time></trkpt><trkpt lat="43.43776937372914" lon="12.445468154590134"><ele>594.75</ele><time>2026-04-29T12:10:45.001Z</time></trkpt><trkpt lat="43.437857228807324" lon="12.445446777081159"><ele>592.5</ele><time>2026-04-29T12:10:46.001Z</time></trkpt><trkpt lat="43.43797436393221" lon="12.445535986577067"><ele>590.25</ele><time>2026-04-29T12:10:47.001Z</time></trkpt><trkpt lat="43.43812180408934" lon="12.445568084929757"><ele>588.0</ele><time>2026-04-29T12:10:48.001Z</time></trkpt><trkpt lat="43.4382909106926" lon="12.445609136450832"><ele>587.75</ele><time>2026-04-29T12:10:49.001Z</time></trkpt><trkpt lat="43.438457694287585" lon="12.445649268133304"><ele>587.5</ele><time>2026-04-29T12:10:50.001Z</time></trkpt><trkpt lat="43.438590636370655" lon="12.44574336605206"><ele>587.25</ele><time>2026-04-29T12:10:51.001Z</time></trkpt><trkpt lat="43.43868956885769" lon="12.445812891258443"><ele>587.0</ele><time>2026-04-29T12:10:52.001Z</time></trkpt><trkpt lat="43.438784424014464" lon="12.44584462132293"><ele>587.0</ele><time>2026-04-29T12:10:53.001Z</time></trkpt><trkpt lat="43.43885321877569" lon="12.445833674016866"><ele>587.0</ele><time>2026-04-29T12:10:54.001Z</time></trkpt><trkpt lat="43.43890886870146" lon="12.445785962632828"><ele>587.0</ele><time>2026-04-29T12:10:55.001Z</time></trkpt><trkpt lat="43.438878645068186" lon="12.445635813677393"><ele>587.0</ele><time>2026-04-29T12:10:56.001Z</time></trkpt><trkpt lat="43.43880552560613" lon="12.445548229820279"><ele>587.0</ele><time>2026-04-29T12:10:57.001Z</time></trkpt><trkpt lat="43.438694452123386" lon="12.445498627955885"><ele>584.3333333333333</ele><time>2026-04-29T12:10:58.001Z</time></trkpt><trkpt lat="43.43858965710667" lon="12.445428389893335"><ele>581.6666666666666</ele><time>2026-04-29T12:10:59.001Z</time></trkpt><trkpt lat="43.43852647452584" lon="12.445367229619489"><ele>579.0</ele><time>2026-04-29T12:11:00.001Z</time></trkpt><trkpt lat="43.43852697740025" lon="12.445268448042645"><ele>576.3333333333334</ele><time>2026-04-29T12:11:01.001Z</time></trkpt><trkpt lat="43.43858340460794" lon="12.445215094388214"><ele>573.6666666666667</ele><time>2026-04-29T12:11:02.001Z</time></trkpt><trkpt lat="43.43866520492323" lon="12.445235843680717"><ele>571.0</ele><time>2026-04-29T12:11:03.001Z</time></trkpt><trkpt lat="43.43875765264649" lon="12.44529544831806"><ele>572.25</ele><time>2026-04-29T12:11:04.001Z</time></trkpt><trkpt lat="43.43886298749664" lon="12.445389851930523"><ele>573.5</ele><time>2026-04-29T12:11:05.001Z</time></trkpt><trkpt lat="43.43899479677334" lon="12.44547569265224"><ele>574.75</ele><time>2026-04-29T12:11:06.001Z</time></trkpt><trkpt lat="43.439152613269904" lon="12.445527178333897"><ele>576.0</ele><time>2026-04-29T12:11:07.001Z</time></trkpt><trkpt lat="43.43930601650936" lon="12.445577714804942"><ele>576.0</ele><time>2026-04-29T12:11:08.001Z</time></trkpt><trkpt lat="43.43941985183953" lon="12.44565705432963"><ele>576.0</ele><time>2026-04-29T12:11:09.001Z</time></trkpt><trkpt lat="43.439508468941575" lon="12.445749362999928"><ele>576.0</ele><time>2026-04-29T12:11:10.001Z</time></trkpt><trkpt lat="43.439602898288314" lon="12.445876212548555"><ele>576.0</ele><time>2026-04-29T12:11:11.001Z</time></trkpt><trkpt lat="43.43968950134612" lon="12.446037200131128"><ele>574.4</ele><time>2026-04-29T12:11:12.001Z</time></trkpt><trkpt lat="43.439768672676024" lon="12.446197518072562"><ele>572.8</ele><time>2026-04-29T12:11:13.001Z</time></trkpt><trkpt lat="43.43985579838425" lon="12.446313021997618"><ele>571.1999999999999</ele><time>2026-04-29T12:11:14.001Z</time></trkpt><trkpt lat="43.43992396151602" lon="12.446410885771497"><ele>569.6</ele><time>2026-04-29T12:11:15.001Z</time></trkpt><trkpt lat="43.439995078116056" lon="12.446459485001743"><ele>568.0</ele><time>2026-04-29T12:11:16.001Z</time></trkpt><trkpt lat="43.440077650615656" lon="12.446446546363912"><ele>568.0</ele><time>2026-04-29T12:11:17.001Z</time></trkpt><trkpt lat="43.440146926788884" lon="12.446370481470467"><ele>568.0</ele><time>2026-04-29T12:11:18.001Z</time></trkpt><trkpt lat="43.44016118621652" lon="12.44622747332605"><ele>568.0</ele><time>2026-04-29T12:11:19.001Z</time></trkpt><trkpt lat="43.44007407806272" lon="12.446086816693564"><ele>568.0</ele><time>2026-04-29T12:11:20.001Z</time></trkpt><trkpt lat="43.43998000392788" lon="12.445977576135908"><ele>565.25</ele><time>2026-04-29T12:11:21.001Z</time></trkpt><trkpt lat="43.43990351207363" lon="12.445855390977458"><ele>562.5</ele><time>2026-04-29T12:11:22.001Z</time></trkpt><trkpt lat="43.43983405924743" lon="12.445718073278059"><ele>559.75</ele><time>2026-04-29T12:11:23.001Z</time></trkpt><trkpt lat="43.4398197511228" lon="12.445516248072268"><ele>557.0</ele><time>2026-04-29T12:11:24.001Z</time></trkpt><trkpt lat="43.43981701401217" lon="12.445311812059076"><ele>557.25</ele><time>2026-04-29T12:11:25.001Z</time></trkpt><trkpt lat="43.43978888607809" lon="12.445134262643972"><ele>557.5</ele><time>2026-04-29T12:11:26.001Z</time></trkpt><trkpt lat="43.43971932576134" lon="12.444980673288168"><ele>557.75</ele><time>2026-04-29T12:11:27.001Z</time></trkpt><trkpt lat="43.43960680550828" lon="12.444854363556852"><ele>558.0</ele><time>2026-04-29T12:11:28.001Z</time></trkpt><trkpt lat="43.43945725459423" lon="12.4447667641156"><ele>558.0</ele><time>2026-04-29T12:11:29.001Z</time></trkpt><trkpt lat="43.43932984452971" lon="12.444678851434503"><ele>558.0</ele><time>2026-04-29T12:11:30.001Z</time></trkpt><trkpt lat="43.43922969934081" lon="12.444610023436526"><ele>558.0</ele><time>2026-04-29T12:11:31.001Z</time></trkpt><trkpt lat="43.439155231056255" lon="12.444569311567248"><ele>558.0</ele><time>2026-04-29T12:11:32.001Z</time></trkpt><trkpt lat="43.43912708304653" lon="12.444484237157953"><ele>558.0</ele><time>2026-04-29T12:11:33.001Z</time></trkpt><trkpt lat="43.43916501634652" lon="12.444412380178353"><ele>555.5</ele><time>2026-04-29T12:11:34.001Z</time></trkpt><trkpt lat="43.43925008124436" lon="12.444391837176855"><ele>553.0</ele><time>2026-04-29T12:11:35.001Z</time></trkpt><trkpt lat="43.439366205743994" lon="12.444371641675046"><ele>550.5</ele><time>2026-04-29T12:11:36.002Z</time></trkpt><trkpt lat="43.43950475166179" lon="12.444372738502366"><ele>548.0</ele><time>2026-04-29T12:11:37.002Z</time></trkpt><trkpt lat="43.439649907886334" lon="12.444379949541025"><ele>544.0</ele><time>2026-04-29T12:11:38.002Z</time></trkpt><trkpt lat="43.439817783032574" lon="12.444382338522251"><ele>540.0</ele><time>2026-04-29T12:11:39.002Z</time></trkpt><trkpt lat="43.439974671221265" lon="12.444370158588193"><ele>536.0</ele><time>2026-04-29T12:11:40.002Z</time></trkpt><trkpt lat="43.440117050826956" lon="12.444374303913143"><ele>536.0</ele><time>2026-04-29T12:11:41.002Z</time></trkpt><trkpt lat="43.4402459664239" lon="12.444392117644021"><ele>536.0</ele><time>2026-04-29T12:11:42.002Z</time></trkpt><trkpt lat="43.44034443048132" lon="12.444465091190427"><ele>536.0</ele><time>2026-04-29T12:11:43.002Z</time></trkpt><trkpt lat="43.44040371940607" lon="12.444587818494364"><ele>536.0</ele><time>2026-04-29T12:11:44.002Z</time></trkpt><trkpt lat="43.44043827855655" lon="12.444749625518217"><ele>534.0</ele><time>2026-04-29T12:11:45.002Z</time></trkpt><trkpt lat="43.44048637664078" lon="12.44493531824852"><ele>532.0</ele><time>2026-04-29T12:11:46.002Z</time></trkpt><trkpt lat="43.44054678162169" lon="12.445127527891616"><ele>530.0</ele><time>2026-04-29T12:11:47.002Z</time></trkpt><trkpt lat="43.44060160602192" lon="12.445349246490663"><ele>530.0</ele><time>2026-04-29T12:11:48.002Z</time></trkpt><trkpt lat="43.4406410983252" lon="12.445582810417493"><ele>530.0</ele><time>2026-04-29T12:11:49.002Z</time></trkpt><trkpt lat="43.440675643897016" lon="12.44581250308306"><ele>530.0</ele><time>2026-04-29T12:11:50Z</time></trkpt><trkpt lat="43.440711894083464" lon="12.44602020332366"><ele>530.0</ele><time>2026-04-29T12:11:51Z</time></trkpt><trkpt lat="43.44075237511632" lon="12.446214716784842"><ele>530.0</ele><time>2026-04-29T12:11:52Z</time></trkpt><trkpt lat="43.44079664774845" lon="12.446399844508536"><ele>530.0</ele><time>2026-04-29T12:11:53Z</time></trkpt><trkpt lat="43.440856605702784" lon="12.446568804110218"><ele>530.0</ele><time>2026-04-29T12:11:54Z</time></trkpt><trkpt lat="43.44092129228141" lon="12.446730561706975"><ele>531.25</ele><time>2026-04-29T12:11:55Z</time></trkpt><trkpt lat="43.441006450039744" lon="12.44687019209106"><ele>532.5</ele><time>2026-04-29T12:11:56Z</time></trkpt><trkpt lat="43.441080563937454" lon="12.447020301985908"><ele>533.75</ele><time>2026-04-29T12:11:57Z</time></trkpt><trkpt lat="43.44113660693939" lon="12.447170025492552"><ele>535.0</ele><time>2026-04-29T12:11:58Z</time></trkpt><trkpt lat="43.441147245336204" lon="12.447353395698494"><ele>536.0</ele><time>2026-04-29T12:11:59Z</time></trkpt><trkpt lat="43.44115389833998" lon="12.447547417656068"><ele>537.0</ele><time>2026-04-29T12:12:00Z</time></trkpt><trkpt lat="43.44116234347161" lon="12.447757522129299"><ele>538.0</ele><time>2026-04-29T12:12:01Z</time></trkpt><trkpt lat="43.44119068286554" lon="12.447970099426366"><ele>540.5</ele><time>2026-04-29T12:12:02Z</time></trkpt><trkpt lat="43.44124169773763" lon="12.448178718433647"><ele>543.0</ele><time>2026-04-29T12:12:03Z</time></trkpt><trkpt lat="43.44129576707251" lon="12.448364606284803"><ele>545.5</ele><time>2026-04-29T12:12:04Z</time></trkpt><trkpt lat="43.44134524039958" lon="12.448542998742088"><ele>548.0</ele><time>2026-04-29T12:12:05Z</time></trkpt><trkpt lat="43.44138814831634" lon="12.448706598753207"><ele>544.8</ele><time>2026-04-29T12:12:06Z</time></trkpt><trkpt lat="43.44142709479633" lon="12.448844389744602"><ele>541.5999999999999</ele><time>2026-04-29T12:12:07Z</time></trkpt><trkpt lat="43.441476480806934" lon="12.448945668595524"><ele>538.4000000000001</ele><time>2026-04-29T12:12:08Z</time></trkpt><trkpt lat="43.441541846739646" lon="12.449028135586227"><ele>535.2</ele><time>2026-04-29T12:12:09Z</time></trkpt><trkpt lat="43.44166260847399" lon="12.449029449301134"><ele>532.0</ele><time>2026-04-29T12:12:10Z</time></trkpt><trkpt lat="43.44177601118258" lon="12.448985479045621"><ele>532.0</ele><time>2026-04-29T12:12:11Z</time></trkpt><trkpt lat="43.4419004917692" lon="12.44895509037205"><ele>532.0</ele><time>2026-04-29T12:12:12Z</time></trkpt><trkpt lat="43.44203462644697" lon="12.448928181533546"><ele>532.0</ele><time>2026-04-29T12:12:13Z</time></trkpt><trkpt lat="43.44217675307547" lon="12.448904416772496"><ele>532.0</ele><time>2026-04-29T12:12:14Z</time></trkpt><trkpt lat="43.44231444232368" lon="12.448878026665776"><ele>531.8000000000001</ele><time>2026-04-29T12:12:15Z</time></trkpt><trkpt lat="43.44243401231325" lon="12.448875851892216"><ele>531.6</ele><time>2026-04-29T12:12:16Z</time></trkpt><trkpt lat="43.44253533572784" lon="12.44883778682623"><ele>531.4000000000001</ele><time>2026-04-29T12:12:17Z</time></trkpt><trkpt lat="43.44262807946733" lon="12.448827499746326"><ele>531.2</ele><time>2026-04-29T12:12:18Z</time></trkpt><trkpt lat="43.44271153236724" lon="12.448794293894194"><ele>531.0</ele><time>2026-04-29T12:12:19Z</time></trkpt><trkpt lat="43.4427934620147" lon="12.448740764987958"><ele>531.0</ele><time>2026-04-29T12:12:20Z</time></trkpt><trkpt lat="43.44285117726946" lon="12.448629967200922"><ele>531.0</ele><time>2026-04-29T12:12:21Z</time></trkpt><trkpt lat="43.44288257803464" lon="12.448482832152287"><ele>531.0</ele><time>2026-04-29T12:12:22Z</time></trkpt><trkpt lat="43.442861740904455" lon="12.448311899999716"><ele>531.0</ele><time>2026-04-29T12:12:23Z</time></trkpt><trkpt lat="43.44285074932261" lon="12.448137675395769"><ele>531.25</ele><time>2026-04-29T12:12:24Z</time></trkpt><trkpt lat="43.442838671522566" lon="12.447948716996674"><ele>531.5</ele><time>2026-04-29T12:12:25Z</time></trkpt><trkpt lat="43.44282676642575" lon="12.447748040071497"><ele>531.75</ele><time>2026-04-29T12:12:26Z</time></trkpt><trkpt lat="43.44278331457304" lon="12.447549267631492"><ele>532.0</ele><time>2026-04-29T12:12:27Z</time></trkpt><trkpt lat="43.44280697494602" lon="12.447316590795667"><ele>532.6666666666667</ele><time>2026-04-29T12:12:28Z</time></trkpt><trkpt lat="43.44279789675672" lon="12.447088503066164"><ele>533.3333333333334</ele><time>2026-04-29T12:12:29Z</time></trkpt><trkpt lat="43.44278593531966" lon="12.446866322469337"><ele>534.0</ele><time>2026-04-29T12:12:30Z</time></trkpt><trkpt lat="43.442779330693654" lon="12.446638634148965"><ele>534.0</ele><time>2026-04-29T12:12:31Z</time></trkpt><trkpt lat="43.44277938727732" lon="12.44640838708808"><ele>534.0</ele><time>2026-04-29T12:12:32Z</time></trkpt><trkpt lat="43.44278678061805" lon="12.44617975962753"><ele>534.0</ele><time>2026-04-29T12:12:33Z</time></trkpt><trkpt lat="43.44280089250761" lon="12.4459492518494"><ele>534.25</ele><time>2026-04-29T12:12:34Z</time></trkpt><trkpt lat="43.44281426328413" lon="12.44573268922273"><ele>534.5</ele><time>2026-04-29T12:12:35Z</time></trkpt><trkpt lat="43.442822803322834" lon="12.4455486761707"><ele>534.75</ele><time>2026-04-29T12:12:36Z</time></trkpt><trkpt lat="43.44283697702541" lon="12.4453893347747"><ele>535.0</ele><time>2026-04-29T12:12:37Z</time></trkpt><trkpt lat="43.4428733712801" lon="12.445270118941426"><ele>534.0</ele><time>2026-04-29T12:12:38Z</time></trkpt><trkpt lat="43.44293775199691" lon="12.445171850346249"><ele>533.0</ele><time>2026-04-29T12:12:39Z</time></trkpt><trkpt lat="43.443020165697796" lon="12.445109077013484"><ele>532.0</ele><time>2026-04-29T12:12:40Z</time></trkpt><trkpt lat="43.443118934183595" lon="12.445103747393276"><ele>531.0</ele><time>2026-04-29T12:12:41Z</time></trkpt><trkpt lat="43.44322191810938" lon="12.445061215003902"><ele>530.0</ele><time>2026-04-29T12:12:42Z</time></trkpt><trkpt lat="43.443323019715265" lon="12.445012938068494"><ele>535.0</ele><time>2026-04-29T12:12:43Z</time></trkpt><trkpt lat="43.44340689446058" lon="12.444913793515552"><ele>540.0</ele><time>2026-04-29T12:12:44Z</time></trkpt><trkpt lat="43.443459195734206" lon="12.444766235580495"><ele>545.0</ele><time>2026-04-29T12:12:45Z</time></trkpt><trkpt lat="43.44347123926952" lon="12.444605544235497"><ele>550.0</ele><time>2026-04-29T12:12:46Z</time></trkpt><trkpt lat="43.443449092326375" lon="12.444432205635156"><ele>550.0</ele><time>2026-04-29T12:12:47.001Z</time></trkpt><trkpt lat="43.44340483000932" lon="12.44423636940987"><ele>550.0</ele><time>2026-04-29T12:12:48.001Z</time></trkpt><trkpt lat="43.44336020500691" lon="12.444022497043"><ele>550.0</ele><time>2026-04-29T12:12:49.001Z</time></trkpt><trkpt lat="43.44332137821078" lon="12.44380113854858"><ele>553.3333333333334</ele><time>2026-04-29T12:12:50.001Z</time></trkpt><trkpt lat="43.44328208200372" lon="12.443584408420735"><ele>556.6666666666666</ele><time>2026-04-29T12:12:51.001Z</time></trkpt><trkpt lat="43.44322271870258" lon="12.443379228241167"><ele>560.0</ele><time>2026-04-29T12:12:52.001Z</time></trkpt><trkpt lat="43.443146604714215" lon="12.44317771922283"><ele>560.0</ele><time>2026-04-29T12:12:53.001Z</time></trkpt><trkpt lat="43.443067312277876" lon="12.442978829637987"><ele>560.0</ele><time>2026-04-29T12:12:54.001Z</time></trkpt><trkpt lat="43.442989315167885" lon="12.442790158014722"><ele>560.0</ele><time>2026-04-29T12:12:55.001Z</time></trkpt><trkpt lat="43.44292530681409" lon="12.442630066119259"><ele>556.25</ele><time>2026-04-29T12:12:56.001Z</time></trkpt><trkpt lat="43.44288130799056" lon="12.442481247106684"><ele>552.5</ele><time>2026-04-29T12:12:57.001Z</time></trkpt><trkpt lat="43.442873761810795" lon="12.442325350446866"><ele>548.75</ele><time>2026-04-29T12:12:58.001Z</time></trkpt><trkpt lat="43.4428962860414" lon="12.442146315236695"><ele>545.0</ele><time>2026-04-29T12:12:59.001Z</time></trkpt><trkpt lat="43.44292946355341" lon="12.441954963247122"><ele>545.0</ele><time>2026-04-29T12:13:00.001Z</time></trkpt><trkpt lat="43.4429553324814" lon="12.441762919055808"><ele>545.0</ele><time>2026-04-29T12:13:01.001Z</time></trkpt><trkpt lat="43.44296288526258" lon="12.441560964842536"><ele>545.0</ele><time>2026-04-29T12:13:02.001Z</time></trkpt><trkpt lat="43.44294096765116" lon="12.441348476138993"><ele>545.0</ele><time>2026-04-29T12:13:03.001Z</time></trkpt><trkpt lat="43.442895374701514" lon="12.441131025762886"><ele>546.25</ele><time>2026-04-29T12:13:04.001Z</time></trkpt><trkpt lat="43.44285049583922" lon="12.440930006971744"><ele>547.5</ele><time>2026-04-29T12:13:05.001Z</time></trkpt><trkpt lat="43.442819029596066" lon="12.440744848101444"><ele>548.75</ele><time>2026-04-29T12:13:06.001Z</time></trkpt><trkpt lat="43.4427856527233" lon="12.440573796452812"><ele>550.0</ele><time>2026-04-29T12:13:07.001Z</time></trkpt><trkpt lat="43.442764855567745" lon="12.440422173246255"><ele>551.2</ele><time>2026-04-29T12:13:08.001Z</time></trkpt><trkpt lat="43.44274016897903" lon="12.440285430933814"><ele>552.4</ele><time>2026-04-29T12:13:09.001Z</time></trkpt><trkpt lat="43.44271508137175" lon="12.440157752828688"><ele>553.6</ele><time>2026-04-29T12:13:10.001Z</time></trkpt><trkpt lat="43.442683523147956" lon="12.440028232272123"><ele>554.8</ele><time>2026-04-29T12:13:11.001Z</time></trkpt><trkpt lat="43.44266093200254" lon="12.439870565196033"><ele>556.0</ele><time>2026-04-29T12:13:12.001Z</time></trkpt><trkpt lat="43.442622968726674" lon="12.439680086714967"><ele>558.3333333333334</ele><time>2026-04-29T12:13:13.001Z</time></trkpt><trkpt lat="43.4425740920251" lon="12.439462955317103"><ele>560.6666666666666</ele><time>2026-04-29T12:13:14.001Z</time></trkpt><trkpt lat="43.44252678204534" lon="12.439251156953175"><ele>563.0</ele><time>2026-04-29T12:13:15.001Z</time></trkpt><trkpt lat="43.44249303089025" lon="12.43903371344629"><ele>563.0</ele><time>2026-04-29T12:13:16.001Z</time></trkpt><trkpt lat="43.44245417638152" lon="12.438835811160853"><ele>563.0</ele><time>2026-04-29T12:13:17.001Z</time></trkpt><trkpt lat="43.44241530961718" lon="12.438654973442265"><ele>563.0</ele><time>2026-04-29T12:13:18.001Z</time></trkpt><trkpt lat="43.442374595272746" lon="12.438476588451683"><ele>563.0</ele><time>2026-04-29T12:13:19.001Z</time></trkpt><trkpt lat="43.44233842165579" lon="12.438294713335512"><ele>563.75</ele><time>2026-04-29T12:13:20.001Z</time></trkpt><trkpt lat="43.442308142235994" lon="12.438104227733959"><ele>564.5</ele><time>2026-04-29T12:13:21.001Z</time></trkpt><trkpt lat="43.44227840554402" lon="12.437911750808965"><ele>565.25</ele><time>2026-04-29T12:13:22.001Z</time></trkpt><trkpt lat="43.44225246331558" lon="12.437731836165154"><ele>566.0</ele><time>2026-04-29T12:13:23.001Z</time></trkpt><trkpt lat="43.442227018909584" lon="12.437582804750415"><ele>566.0</ele><time>2026-04-29T12:13:24.001Z</time></trkpt><trkpt lat="43.4422094602482" lon="12.437462064899233"><ele>566.0</ele><time>2026-04-29T12:13:25.001Z</time></trkpt><trkpt lat="43.442239690759564" lon="12.437343735230197"><ele>566.0</ele><time>2026-04-29T12:13:27.001Z</time></trkpt><trkpt lat="43.44231807435732" lon="12.437351833436468"><ele>566.0</ele><time>2026-04-29T12:13:29.001Z</time></trkpt><trkpt lat="43.44235862055269" lon="12.437458693045915"><ele>566.0</ele><time>2026-04-29T12:13:31.001Z</time></trkpt><trkpt lat="43.44239617151052" lon="12.437536798745795"><ele>566.0</ele><time>2026-04-29T12:13:34.001Z</time></trkpt><trkpt lat="43.44235572416977" lon="12.43746796611173"><ele>566.0</ele><time>2026-04-29T12:13:39.001Z</time></trkpt><trkpt lat="43.44231920994141" lon="12.437391866241502"><ele>566.0</ele><time>2026-04-29T12:13:41.001Z</time></trkpt><trkpt lat="43.4424675516422" lon="12.437263179682828"><ele>566.0</ele><time>2026-04-29T12:13:45.001Z</time></trkpt><trkpt lat="43.442557467883596" lon="12.437332725538326"><ele>566.0</ele><time>2026-04-29T12:13:47.001Z</time></trkpt><trkpt lat="43.44266756757975" lon="12.437361999994271"><ele>566.0</ele><time>2026-04-29T12:13:49.001Z</time></trkpt><trkpt lat="43.44273781656493" lon="12.437389596740243"><ele>566.0</ele><time>2026-04-29T12:13:50.001Z</time></trkpt><trkpt lat="43.44281723335912" lon="12.437422727086863"><ele>566.0</ele><time>2026-04-29T12:13:51.001Z</time></trkpt><trkpt lat="43.44290071666373" lon="12.437454106049673"><ele>566.0</ele><time>2026-04-29T12:13:52.001Z</time></trkpt><trkpt lat="43.442972871740224" lon="12.437481104471736"><ele>566.0</ele><time>2026-04-29T12:13:53.001Z</time></trkpt><trkpt lat="43.44304366315449" lon="12.43748879285449"><ele>566.0</ele><time>2026-04-29T12:13:54.001Z</time></trkpt><trkpt lat="43.44315666182427" lon="12.437423457430091"><ele>566.0</ele><time>2026-04-29T12:13:56Z</time></trkpt><trkpt lat="43.44320656588347" lon="12.437355894062186"><ele>566.0</ele><time>2026-04-29T12:13:57Z</time></trkpt><trkpt lat="43.44327204952812" lon="12.43728289493537"><ele>566.0</ele><time>2026-04-29T12:13:58Z</time></trkpt><trkpt lat="43.44333649179146" lon="12.4372143042457"><ele>566.0</ele><time>2026-04-29T12:13:59Z</time></trkpt><trkpt lat="43.44339619733023" lon="12.437127576755902"><ele>566.0</ele><time>2026-04-29T12:14:00Z</time></trkpt><trkpt lat="43.443451190206304" lon="12.437034977574518"><ele>566.0</ele><time>2026-04-29T12:14:01Z</time></trkpt><trkpt lat="43.443485943949526" lon="12.436920563623076"><ele>564.2</ele><time>2026-04-29T12:14:02Z</time></trkpt><trkpt lat="43.443505365833744" lon="12.43679191264478"><ele>562.4000000000001</ele><time>2026-04-29T12:14:03Z</time></trkpt><trkpt lat="43.443510896037246" lon="12.436659779444069"><ele>560.6</ele><time>2026-04-29T12:14:04Z</time></trkpt><trkpt lat="43.44350622729431" lon="12.436531752384825"><ele>558.8000000000001</ele><time>2026-04-29T12:14:05Z</time></trkpt><trkpt lat="43.44350304927965" lon="12.436404522003729"><ele>557.0</ele><time>2026-04-29T12:14:06Z</time></trkpt><trkpt lat="43.44349919543438" lon="12.43627558527502"><ele>555.0</ele><time>2026-04-29T12:14:07Z</time></trkpt><trkpt lat="43.44350108464288" lon="12.436145376733265"><ele>553.0</ele><time>2026-04-29T12:14:08Z</time></trkpt><trkpt lat="43.44350979288773" lon="12.436020159509624"><ele>551.0</ele><time>2026-04-29T12:14:09Z</time></trkpt><trkpt lat="43.4435297010201" lon="12.435906700426868"><ele>549.0</ele><time>2026-04-29T12:14:10Z</time></trkpt><trkpt lat="43.44359618968927" lon="12.435837916372797"><ele>547.0</ele><time>2026-04-29T12:14:11Z</time></trkpt><trkpt lat="43.44367137567306" lon="12.43584224477619"><ele>545.0</ele><time>2026-04-29T12:14:12Z</time></trkpt><trkpt lat="43.44374284819536" lon="12.435852487389772"><ele>544.4</ele><time>2026-04-29T12:14:13Z</time></trkpt><trkpt lat="43.44380101142327" lon="12.43592165632402"><ele>543.8</ele><time>2026-04-29T12:14:14Z</time></trkpt><trkpt lat="43.44390221221942" lon="12.435957966587228"><ele>543.2</ele><time>2026-04-29T12:14:15Z</time></trkpt><trkpt lat="43.444001885917295" lon="12.436026728585775"><ele>542.6</ele><time>2026-04-29T12:14:16Z</time></trkpt><trkpt lat="43.44410836487143" lon="12.436086331248243"><ele>542.0</ele><time>2026-04-29T12:14:17Z</time></trkpt><trkpt lat="43.44421461295306" lon="12.436149891831203"><ele>542.0</ele><time>2026-04-29T12:14:18Z</time></trkpt><trkpt lat="43.444326609400015" lon="12.43620481991204"><ele>542.0</ele><time>2026-04-29T12:14:19Z</time></trkpt><trkpt lat="43.44443399469508" lon="12.436274019653924"><ele>542.0</ele><time>2026-04-29T12:14:20Z</time></trkpt><trkpt lat="43.44452955056971" lon="12.436360457867277"><ele>542.0</ele><time>2026-04-29T12:14:21Z</time></trkpt><trkpt lat="43.44460655748311" lon="12.436475763772632"><ele>541.2</ele><time>2026-04-29T12:14:22Z</time></trkpt><trkpt lat="43.44467414755518" lon="12.436595531557131"><ele>540.4000000000001</ele><time>2026-04-29T12:14:23Z</time></trkpt><trkpt lat="43.44474552173596" lon="12.436712202535427"><ele>539.5999999999999</ele><time>2026-04-29T12:14:24Z</time></trkpt><trkpt lat="43.44481972867884" lon="12.43682801482933"><ele>538.8</ele><time>2026-04-29T12:14:25Z</time></trkpt><trkpt lat="43.44490232459397" lon="12.436937103085993"><ele>538.0</ele><time>2026-04-29T12:14:26Z</time></trkpt><trkpt lat="43.44499719507769" lon="12.437032323948262"><ele>538.0</ele><time>2026-04-29T12:14:27Z</time></trkpt><trkpt lat="43.44509956299659" lon="12.437082502500063"><ele>538.0</ele><time>2026-04-29T12:14:28Z</time></trkpt><trkpt lat="43.445200089427935" lon="12.437099540513751"><ele>538.0</ele><time>2026-04-29T12:14:29Z</time></trkpt><trkpt lat="43.44527979909008" lon="12.437065611484028"><ele>538.0</ele><time>2026-04-29T12:14:30Z</time></trkpt><trkpt lat="43.44531373332473" lon="12.436974766795752"><ele>538.0</ele><time>2026-04-29T12:14:31Z</time></trkpt><trkpt lat="43.445234391862144" lon="12.436746958726355"><ele>538.0</ele><time>2026-04-29T12:14:33Z</time></trkpt><trkpt lat="43.44514505341464" lon="12.43665679063687"><ele>538.0</ele><time>2026-04-29T12:14:34.001Z</time></trkpt><trkpt lat="43.44506028952896" lon="12.436576171604319"><ele>538.0</ele><time>2026-04-29T12:14:35.001Z</time></trkpt><trkpt lat="43.44499707641032" lon="12.436478462722361"><ele>538.0</ele><time>2026-04-29T12:14:36.001Z</time></trkpt><trkpt lat="43.44498344913004" lon="12.436346168009013"><ele>538.0</ele><time>2026-04-29T12:14:37.001Z</time></trkpt><trkpt lat="43.44496480879824" lon="12.436224534230474"><ele>535.6</ele><time>2026-04-29T12:14:38.001Z</time></trkpt><trkpt lat="43.444962841467" lon="12.436090445083458"><ele>533.1999999999999</ele><time>2026-04-29T12:14:39.001Z</time></trkpt><trkpt lat="43.444958550886106" lon="12.43594750756871"><ele>530.8</ele><time>2026-04-29T12:14:40.001Z</time></trkpt><trkpt lat="43.44494308548728" lon="12.435809074340693"><ele>528.4</ele><time>2026-04-29T12:14:41.001Z</time></trkpt><trkpt lat="43.4448927776982" lon="12.435692949883558"><ele>526.0</ele><time>2026-04-29T12:14:42.001Z</time></trkpt><trkpt lat="43.444807749372664" lon="12.435620814840037"><ele>526.0</ele><time>2026-04-29T12:14:43.001Z</time></trkpt><trkpt lat="43.444706467463824" lon="12.435569499053198"><ele>526.0</ele><time>2026-04-29T12:14:44.001Z</time></trkpt><trkpt lat="43.44460048073133" lon="12.435524565108494"><ele>526.0</ele><time>2026-04-29T12:14:45.001Z</time></trkpt><trkpt lat="43.44450297700319" lon="12.435462451196011"><ele>526.0</ele><time>2026-04-29T12:14:46.001Z</time></trkpt><trkpt lat="43.44442062508872" lon="12.435400690682949"><ele>526.0</ele><time>2026-04-29T12:14:47.001Z</time></trkpt><trkpt lat="43.44436248056302" lon="12.43533899587099"><ele>526.0</ele><time>2026-04-29T12:14:48.001Z</time></trkpt><trkpt lat="43.444298921347475" lon="12.435231036598834"><ele>526.0</ele><time>2026-04-29T12:14:50.001Z</time></trkpt><trkpt lat="43.44441001349464" lon="12.435177770881559"><ele>526.0</ele><time>2026-04-29T12:14:53.001Z</time></trkpt><trkpt lat="43.44451845903587" lon="12.435236311256299"><ele>526.0</ele><time>2026-04-29T12:14:54.001Z</time></trkpt><trkpt lat="43.44460723343292" lon="12.435242408047074"><ele>526.0</ele><time>2026-04-29T12:14:55.001Z</time></trkpt><trkpt lat="43.4446962586892" lon="12.435270343989743"><ele>526.0</ele><time>2026-04-29T12:14:56.001Z</time></trkpt><trkpt lat="43.444792173077865" lon="12.435300165830276"><ele>526.0</ele><time>2026-04-29T12:14:57.001Z</time></trkpt><trkpt lat="43.44487332317495" lon="12.435326071471495"><ele>526.0</ele><time>2026-04-29T12:14:58.001Z</time></trkpt><trkpt lat="43.44494115143195" lon="12.43534668483938"><ele>526.0</ele><time>2026-04-29T12:14:59.001Z</time></trkpt><trkpt lat="43.44503494013834" lon="12.435397169017177"><ele>526.0</ele><time>2026-04-29T12:15:01.001Z</time></trkpt><trkpt lat="43.445091247733906" lon="12.435463955665663"><ele>526.0</ele><time>2026-04-29T12:15:03.001Z</time></trkpt><trkpt lat="43.44516516454273" lon="12.43550782269612"><ele>526.0</ele><time>2026-04-29T12:15:06.001Z</time></trkpt><trkpt lat="43.445237439571066" lon="12.43550580904736"><ele>526.0</ele><time>2026-04-29T12:15:41.002Z</time></trkpt><trkpt lat="43.445319104990915" lon="12.435500073913795"><ele>526.0</ele><time>2026-04-29T12:15:45.002Z</time></trkpt><trkpt lat="43.44514340216534" lon="12.435476650681366"><ele>526.0</ele><time>2026-04-29T12:16:07.001Z</time></trkpt><trkpt lat="43.44507756213694" lon="12.435373131517965"><ele>526.0</ele><time>2026-04-29T12:16:08.001Z</time></trkpt><trkpt lat="43.44499974924335" lon="12.435342280299988"><ele>526.0</ele><time>2026-04-29T12:16:09.001Z</time></trkpt><trkpt lat="43.444913895793" lon="12.43531485412703"><ele>526.0</ele><time>2026-04-29T12:16:10.001Z</time></trkpt><trkpt lat="43.444822654339525" lon="12.435290203062182"><ele>526.0</ele><time>2026-04-29T12:16:11.001Z</time></trkpt><trkpt lat="43.44472834417274" lon="12.43526342467078"><ele>526.0</ele><time>2026-04-29T12:16:12.001Z</time></trkpt><trkpt lat="43.44463533415148" lon="12.435232393772905"><ele>526.0</ele><time>2026-04-29T12:16:13.001Z</time></trkpt><trkpt lat="43.444539685268204" lon="12.435199920810822"><ele>526.0</ele><time>2026-04-29T12:16:14.001Z</time></trkpt><trkpt lat="43.44444141785016" lon="12.43516468650888"><ele>526.0</ele><time>2026-04-29T12:16:15.001Z</time></trkpt><trkpt lat="43.444341787336384" lon="12.4351300733641"><ele>526.0</ele><time>2026-04-29T12:16:16.001Z</time></trkpt><trkpt lat="43.444240632059454" lon="12.43509225826943"><ele>526.0</ele><time>2026-04-29T12:16:17.001Z</time></trkpt><trkpt lat="43.444138624949154" lon="12.435051097529398"><ele>526.0</ele><time>2026-04-29T12:16:18.001Z</time></trkpt><trkpt lat="43.44403299958653" lon="12.43500833163958"><ele>526.0</ele><time>2026-04-29T12:16:19.001Z</time></trkpt><trkpt lat="43.44392326845032" lon="12.434968070007745"><ele>526.0</ele><time>2026-04-29T12:16:20.001Z</time></trkpt><trkpt lat="43.443811165639055" lon="12.434934999206533"><ele>526.0</ele><time>2026-04-29T12:16:21.001Z</time></trkpt><trkpt lat="43.44370074565321" lon="12.434910473184878"><ele>526.0</ele><time>2026-04-29T12:16:22.001Z</time></trkpt><trkpt lat="43.443594436810905" lon="12.43488269321678"><ele>526.0</ele><time>2026-04-29T12:16:23.001Z</time></trkpt><trkpt lat="43.44348585645417" lon="12.434858243102935"><ele>526.25</ele><time>2026-04-29T12:16:24.001Z</time></trkpt><trkpt lat="43.4433711483331" lon="12.434828428616987"><ele>526.5</ele><time>2026-04-29T12:16:25.001Z</time></trkpt><trkpt lat="43.44325500074459" lon="12.434796153529875"><ele>526.75</ele><time>2026-04-29T12:16:26.001Z</time></trkpt><trkpt lat="43.44314356818146" lon="12.434760205391234"><ele>527.0</ele><time>2026-04-29T12:16:27.001Z</time></trkpt><trkpt lat="43.443029580251654" lon="12.434724225681716"><ele>528.75</ele><time>2026-04-29T12:16:28.001Z</time></trkpt><trkpt lat="43.44291649513096" lon="12.43469258233741"><ele>530.5</ele><time>2026-04-29T12:16:29.001Z</time></trkpt><trkpt lat="43.4428027532208" lon="12.434659532363806"><ele>532.25</ele><time>2026-04-29T12:16:30.001Z</time></trkpt><trkpt lat="43.44269252096635" lon="12.434621853618118"><ele>534.0</ele><time>2026-04-29T12:16:31.001Z</time></trkpt><trkpt lat="43.44258186661496" lon="12.4345864517913"><ele>529.8</ele><time>2026-04-29T12:16:32.001Z</time></trkpt><trkpt lat="43.44247372726496" lon="12.434551122022217"><ele>525.5999999999999</ele><time>2026-04-29T12:16:33.001Z</time></trkpt><trkpt lat="43.44236424565951" lon="12.434514767691363"><ele>521.4</ele><time>2026-04-29T12:16:34.001Z</time></trkpt><trkpt lat="43.442255461438165" lon="12.434484841547036"><ele>517.1999999999999</ele><time>2026-04-29T12:16:35.001Z</time></trkpt><trkpt lat="43.44214836324484" lon="12.434457735093511"><ele>513.0</ele><time>2026-04-29T12:16:36.001Z</time></trkpt><trkpt lat="43.44204503664176" lon="12.43443180463006"><ele>512.8</ele><time>2026-04-29T12:16:37.001Z</time></trkpt><trkpt lat="43.441940635380085" lon="12.434417923787624"><ele>512.5999999999999</ele><time>2026-04-29T12:16:38.001Z</time></trkpt><trkpt lat="43.4418404148536" lon="12.434412615917918"><ele>512.4000000000001</ele><time>2026-04-29T12:16:39.001Z</time></trkpt><trkpt lat="43.44173904846757" lon="12.434415685456438"><ele>512.2</ele><time>2026-04-29T12:16:40.001Z</time></trkpt><trkpt lat="43.441641039676796" lon="12.434417561392783"><ele>512.0</ele><time>2026-04-29T12:16:41.001Z</time></trkpt><trkpt lat="43.44154161892856" lon="12.43441845094153"><ele>512.0</ele><time>2026-04-29T12:16:42.001Z</time></trkpt><trkpt lat="43.44144099045645" lon="12.434419116132824"><ele>512.0</ele><time>2026-04-29T12:16:43.001Z</time></trkpt><trkpt lat="43.441340149520116" lon="12.434415421631355"><ele>512.0</ele><time>2026-04-29T12:16:44.001Z</time></trkpt><trkpt lat="43.441234758631836" lon="12.434414847311658"><ele>512.0</ele><time>2026-04-29T12:16:45.001Z</time></trkpt><trkpt lat="43.44112875004905" lon="12.434414808169073"><ele>512.0</ele><time>2026-04-29T12:16:46.001Z</time></trkpt><trkpt lat="43.44102095584077" lon="12.43441792509931"><ele>511.0</ele><time>2026-04-29T12:16:47.001Z</time></trkpt><trkpt lat="43.4409081961623" lon="12.434419331456283"><ele>510.0</ele><time>2026-04-29T12:16:48.001Z</time></trkpt><trkpt lat="43.440794976447165" lon="12.434419644355476"><ele>509.0</ele><time>2026-04-29T12:16:49.001Z</time></trkpt><trkpt lat="43.440678354920884" lon="12.434420240281693"><ele>508.0</ele><time>2026-04-29T12:16:50.001Z</time></trkpt><trkpt lat="43.44056267894433" lon="12.434423388020104"><ele>506.75</ele><time>2026-04-29T12:16:51.001Z</time></trkpt><trkpt lat="43.440441944027945" lon="12.434424524562132"><ele>505.5</ele><time>2026-04-29T12:16:52.001Z</time></trkpt><trkpt lat="43.44031860192034" lon="12.434426418246247"><ele>504.25</ele><time>2026-04-29T12:16:53.001Z</time></trkpt><trkpt lat="43.44019994467285" lon="12.434426393296954"><ele>503.0</ele><time>2026-04-29T12:16:54.001Z</time></trkpt><trkpt lat="43.44007999529827" lon="12.43442134614802"><ele>503.0</ele><time>2026-04-29T12:16:55.001Z</time></trkpt><trkpt lat="43.43996423508703" lon="12.434416916139059"><ele>502.99999999999994</ele><time>2026-04-29T12:16:56.001Z</time></trkpt><trkpt lat="43.439849914543764" lon="12.434418509430309"><ele>502.99999999999994</ele><time>2026-04-29T12:16:57.001Z</time></trkpt><trkpt lat="43.43974300469057" lon="12.434418375365915"><ele>503.0</ele><time>2026-04-29T12:16:58.001Z</time></trkpt><trkpt lat="43.43965702201368" lon="12.434416492963392"><ele>503.0</ele><time>2026-04-29T12:16:59.001Z</time></trkpt><trkpt lat="43.439538958743235" lon="12.434402269291784"><ele>502.59999999999997</ele><time>2026-04-29T12:17:01.001Z</time></trkpt><trkpt lat="43.43941982658553" lon="12.434410775428782"><ele>502.19999999999993</ele><time>2026-04-29T12:17:03.001Z</time></trkpt><trkpt lat="43.43931417771527" lon="12.434419678830832"><ele>501.8</ele><time>2026-04-29T12:17:05.001Z</time></trkpt><trkpt lat="43.439245258169215" lon="12.434406791579963"><ele>501.4</ele><time>2026-04-29T12:17:07.001Z</time></trkpt><trkpt lat="43.439165445442065" lon="12.434397814466964"><ele>501.0</ele><time>2026-04-29T12:17:09.001Z</time></trkpt><trkpt lat="43.43907618874796" lon="12.434398249366142"><ele>501.0</ele><time>2026-04-29T12:17:11.002Z</time></trkpt><trkpt lat="43.43897600433009" lon="12.434407405935955"><ele>501.0</ele><time>2026-04-29T12:17:13.002Z</time></trkpt><trkpt lat="43.43891321237647" lon="12.434414163235987"><ele>501.0</ele><time>2026-04-29T12:17:14.002Z</time></trkpt><trkpt lat="43.4388387184061" lon="12.434417858610784"><ele>501.0</ele><time>2026-04-29T12:17:15.002Z</time></trkpt><trkpt lat="43.43874744984688" lon="12.434414995837109"><ele>501.0</ele><time>2026-04-29T12:17:16.002Z</time></trkpt><trkpt lat="43.43864501084246" lon="12.434403323555632"><ele>501.0</ele><time>2026-04-29T12:17:17.002Z</time></trkpt><trkpt lat="43.43853128675549" lon="12.434381012738646"><ele>501.25</ele><time>2026-04-29T12:17:18.002Z</time></trkpt><trkpt lat="43.43841135752471" lon="12.434353510311123"><ele>501.5</ele><time>2026-04-29T12:17:19.002Z</time></trkpt><trkpt lat="43.438284851344605" lon="12.43431944305945"><ele>501.75</ele><time>2026-04-29T12:17:20.002Z</time></trkpt><trkpt lat="43.438145102008896" lon="12.434286500416482"><ele>502.0</ele><time>2026-04-29T12:17:21.002Z</time></trkpt><trkpt lat="43.43800145966554" lon="12.434248852791782"><ele>504.0</ele><time>2026-04-29T12:17:22.002Z</time></trkpt><trkpt lat="43.43785117168835" lon="12.434209305662351"><ele>506.0</ele><time>2026-04-29T12:17:23.002Z</time></trkpt><trkpt lat="43.43769723174339" lon="12.434171788105717"><ele>508.0</ele><time>2026-04-29T12:17:24.002Z</time></trkpt><trkpt lat="43.43754346716596" lon="12.434134612629746"><ele>508.0</ele><time>2026-04-29T12:17:25.002Z</time></trkpt><trkpt lat="43.43738974368275" lon="12.434098682531156"><ele>508.0</ele><time>2026-04-29T12:17:26.002Z</time></trkpt><trkpt lat="43.437241757920155" lon="12.434061074210227"><ele>508.0</ele><time>2026-04-29T12:17:27.002Z</time></trkpt><trkpt lat="43.43710308420465" lon="12.434029694304265"><ele>508.0</ele><time>2026-04-29T12:17:28.002Z</time></trkpt><trkpt lat="43.43697522837914" lon="12.434006657121193"><ele>508.79999999999995</ele><time>2026-04-29T12:17:29.002Z</time></trkpt><trkpt lat="43.43685524070512" lon="12.433990788179255"><ele>509.59999999999997</ele><time>2026-04-29T12:17:30.002Z</time></trkpt><trkpt lat="43.43674532153026" lon="12.433981997895094"><ele>510.40000000000003</ele><time>2026-04-29T12:17:31.002Z</time></trkpt><trkpt lat="43.43664808871223" lon="12.433980045457593"><ele>511.20000000000005</ele><time>2026-04-29T12:17:32.002Z</time></trkpt><trkpt lat="43.4365667849915" lon="12.433983208526577"><ele>512.0</ele><time>2026-04-29T12:17:33.002Z</time></trkpt><trkpt lat="43.43650068179697" lon="12.433986718438016"><ele>511.99999999999994</ele><time>2026-04-29T12:17:34.002Z</time></trkpt><trkpt lat="43.43641777340419" lon="12.433940747054832"><ele>512.0</ele><time>2026-04-29T12:17:36.002Z</time></trkpt><trkpt lat="43.43638989390064" lon="12.433855260878683"><ele>512.0</ele><time>2026-04-29T12:17:38.002Z</time></trkpt><trkpt lat="43.43635552323938" lon="12.433930776617215"><ele>512.0</ele><time>2026-04-29T12:17:40.002Z</time></trkpt><trkpt lat="43.43629219944316" lon="12.43393189476829"><ele>511.99999999999994</ele><time>2026-04-29T12:20:44.002Z</time></trkpt><trkpt lat="43.436283170280014" lon="12.433817535099477"><ele>512.0</ele><time>2026-04-29T12:20:51.002Z</time></trkpt><trkpt lat="43.436369116140305" lon="12.433870773232782"><ele>511.99999999999994</ele><time>2026-04-29T12:21:24.002Z</time></trkpt><trkpt lat="43.43642339898586" lon="12.433928733702924"><ele>512.0</ele><time>2026-04-29T12:21:29.002Z</time></trkpt><trkpt lat="43.43649121190516" lon="12.433961601815772"><ele>512.0</ele><time>2026-04-29T12:21:36.002Z</time></trkpt><trkpt lat="43.436555065082054" lon="12.433961401869702"><ele>512.0</ele><time>2026-04-29T12:21:42.002Z</time></trkpt><trkpt lat="43.43657746865651" lon="12.434052719473607"><ele>511.99999999999994</ele><time>2026-04-29T12:22:07.002Z</time></trkpt><trkpt lat="43.43647960137108" lon="12.434128790699756"><ele>512.0</ele><time>2026-04-29T12:22:20.002Z</time></trkpt><trkpt lat="43.4366670959108" lon="12.434300997392887"><ele>512.0</ele><time>2026-04-29T12:22:34.06Z</time></trkpt><trkpt lat="43.43658519183873" lon="12.434001263142141"><ele>512.0</ele><time>2026-04-29T12:23:02.201Z</time></trkpt><trkpt lat="43.436505043454524" lon="12.434044849261161"><ele>512.0</ele><time>2026-04-29T12:23:33.002Z</time></trkpt><trkpt lat="43.43652416999439" lon="12.433960868028974"><ele>512.0</ele><time>2026-04-29T12:23:35.002Z</time></trkpt><trkpt lat="43.43646375485752" lon="12.433935395406536"><ele>512.0</ele><time>2026-04-29T12:23:42.002Z</time></trkpt><trkpt lat="43.436401470569926" lon="12.433908297458212"><ele>511.99999999999994</ele><time>2026-04-29T12:23:47.002Z</time></trkpt><trkpt lat="43.43634230978664" lon="12.433862898387034"><ele>512.0</ele><time>2026-04-29T12:23:52.002Z</time></trkpt><trkpt lat="43.43628213224231" lon="12.433832996723538"><ele>512.0</ele><time>2026-04-29T12:24:28.001Z</time></trkpt><trkpt lat="43.43624606292404" lon="12.433939258465806"><ele>512.0</ele><time>2026-04-29T12:31:25Z</time></trkpt><trkpt lat="43.43616610723531" lon="12.434016610033519"><ele>511.99999999999994</ele><time>2026-04-29T12:31:27Z</time></trkpt><trkpt lat="43.43609186844547" lon="12.434020689614224"><ele>512.0</ele><time>2026-04-29T12:31:28Z</time></trkpt><trkpt lat="43.436003616760914" lon="12.434010949403273"><ele>511.8</ele><time>2026-04-29T12:31:29Z</time></trkpt><trkpt lat="43.43592558422877" lon="12.43400467421174"><ele>511.6</ele><time>2026-04-29T12:31:30Z</time></trkpt><trkpt lat="43.4358572284666" lon="12.43400768155427"><ele>511.40000000000003</ele><time>2026-04-29T12:31:31Z</time></trkpt><trkpt lat="43.4357214773115" lon="12.434028475151925"><ele>511.20000000000005</ele><time>2026-04-29T12:31:33Z</time></trkpt><trkpt lat="43.43563879493883" lon="12.434033416525915"><ele>511.0</ele><time>2026-04-29T12:31:34Z</time></trkpt><trkpt lat="43.43554362182424" lon="12.43404080769497"><ele>510.33333333333337</ele><time>2026-04-29T12:31:35Z</time></trkpt><trkpt lat="43.4354507004382" lon="12.434043762187608"><ele>509.6666666666667</ele><time>2026-04-29T12:31:36Z</time></trkpt><trkpt lat="43.43536468940741" lon="12.434049751230688"><ele>509.0</ele><time>2026-04-29T12:31:37Z</time></trkpt><trkpt lat="43.43528674571659" lon="12.434055803660252"><ele>508.33333333333337</ele><time>2026-04-29T12:31:38Z</time></trkpt><trkpt lat="43.43520538780905" lon="12.434056005824688"><ele>507.6666666666667</ele><time>2026-04-29T12:31:39Z</time></trkpt><trkpt lat="43.43511403944708" lon="12.434054762536896"><ele>507.0</ele><time>2026-04-29T12:31:40Z</time></trkpt><trkpt lat="43.43504216121835" lon="12.434055046403026"><ele>507.0</ele><time>2026-04-29T12:31:41Z</time></trkpt><trkpt lat="43.43497252350268" lon="12.434055092683932"><ele>507.00000000000006</ele><time>2026-04-29T12:31:42.001Z</time></trkpt><trkpt lat="43.434888009536735" lon="12.434049645672255"><ele>507.00000000000006</ele><time>2026-04-29T12:31:43.001Z</time></trkpt><trkpt lat="43.434791105369094" lon="12.43403951307012"><ele>507.0</ele><time>2026-04-29T12:31:44.001Z</time></trkpt><trkpt lat="43.43468661110075" lon="12.43402393170494"><ele>507.0</ele><time>2026-04-29T12:31:45.001Z</time></trkpt><trkpt lat="43.4345764345824" lon="12.434008840875318"><ele>507.0</ele><time>2026-04-29T12:31:46.001Z</time></trkpt><trkpt lat="43.43447983011134" lon="12.434002766820262"><ele>507.00000000000006</ele><time>2026-04-29T12:31:47.001Z</time></trkpt><trkpt lat="43.43439530771925" lon="12.433970573581794"><ele>507.00000000000006</ele><time>2026-04-29T12:31:48.001Z</time></trkpt><trkpt lat="43.43429031563162" lon="12.433951319685539"><ele>507.0</ele><time>2026-04-29T12:31:49.001Z</time></trkpt><trkpt lat="43.434168500622455" lon="12.433934142599849"><ele>507.0</ele><time>2026-04-29T12:31:50.001Z</time></trkpt><trkpt lat="43.434040975550616" lon="12.433917561556298"><ele>507.0</ele><time>2026-04-29T12:31:51.001Z</time></trkpt><trkpt lat="43.43391145024373" lon="12.433921891012766"><ele>507.0</ele><time>2026-04-29T12:31:52.001Z</time></trkpt><trkpt lat="43.43377770706469" lon="12.433902470615381"><ele>507.0</ele><time>2026-04-29T12:31:53.001Z</time></trkpt><trkpt lat="43.43364064147485" lon="12.433864840701263"><ele>507.0</ele><time>2026-04-29T12:31:54.001Z</time></trkpt><trkpt lat="43.433504756836236" lon="12.433846945137535"><ele>508.33333333333337</ele><time>2026-04-29T12:31:55.001Z</time></trkpt><trkpt lat="43.433354361888334" lon="12.4338402023228"><ele>509.6666666666667</ele><time>2026-04-29T12:31:56.001Z</time></trkpt><trkpt lat="43.433205352683046" lon="12.433819976322166"><ele>511.0</ele><time>2026-04-29T12:31:57.001Z</time></trkpt><trkpt lat="43.4330561679782" lon="12.433799798875143"><ele>506.6666666666667</ele><time>2026-04-29T12:31:58.001Z</time></trkpt><trkpt lat="43.43290165599638" lon="12.433779072339904"><ele>502.33333333333337</ele><time>2026-04-29T12:31:59.001Z</time></trkpt><trkpt lat="43.4327443153459" lon="12.433755467158678"><ele>498.0</ele><time>2026-04-29T12:32:00.001Z</time></trkpt><trkpt lat="43.432586858546095" lon="12.433730749444386"><ele>498.0</ele><time>2026-04-29T12:32:01.001Z</time></trkpt><trkpt lat="43.432430497841004" lon="12.433710263156883"><ele>498.0</ele><time>2026-04-29T12:32:02.001Z</time></trkpt><trkpt lat="43.43227023901388" lon="12.433690064525758"><ele>498.0</ele><time>2026-04-29T12:32:03.001Z</time></trkpt><trkpt lat="43.432106365352006" lon="12.433676139434292"><ele>497.33333333333337</ele><time>2026-04-29T12:32:04.001Z</time></trkpt><trkpt lat="43.43193760726463" lon="12.4336670521747"><ele>496.6666666666667</ele><time>2026-04-29T12:32:05.001Z</time></trkpt><trkpt lat="43.43176809372181" lon="12.433685599979574"><ele>496.0</ele><time>2026-04-29T12:32:06.001Z</time></trkpt><trkpt lat="43.431594162078305" lon="12.43371749243799"><ele>496.0</ele><time>2026-04-29T12:32:07.001Z</time></trkpt><trkpt lat="43.43141620070997" lon="12.433758929315355"><ele>496.0</ele><time>2026-04-29T12:32:08.001Z</time></trkpt><trkpt lat="43.431240561510286" lon="12.433803091504918"><ele>496.0</ele><time>2026-04-29T12:32:09.001Z</time></trkpt><trkpt lat="43.431058280087626" lon="12.433851771610431"><ele>498.6666666666667</ele><time>2026-04-29T12:32:10.001Z</time></trkpt><trkpt lat="43.43087256682402" lon="12.433903085604262"><ele>501.33333333333337</ele><time>2026-04-29T12:32:11.001Z</time></trkpt><trkpt lat="43.43068932584807" lon="12.43396503687201"><ele>504.0</ele><time>2026-04-29T12:32:12.001Z</time></trkpt><trkpt lat="43.43048893892741" lon="12.434063439217173"><ele>502.0</ele><time>2026-04-29T12:32:13.001Z</time></trkpt><trkpt lat="43.43030383983378" lon="12.434136627929405"><ele>500.0</ele><time>2026-04-29T12:32:14.001Z</time></trkpt><trkpt lat="43.43013395777766" lon="12.434202992127894"><ele>498.0</ele><time>2026-04-29T12:32:15.001Z</time></trkpt><trkpt lat="43.429984389597685" lon="12.434279643984812"><ele>498.0</ele><time>2026-04-29T12:32:16.001Z</time></trkpt><trkpt lat="43.42985021422663" lon="12.434331916635351"><ele>498.0</ele><time>2026-04-29T12:32:17.001Z</time></trkpt><trkpt lat="43.42971819296491" lon="12.434404305601568"><ele>498.0</ele><time>2026-04-29T12:32:18.001Z</time></trkpt><trkpt lat="43.4295899911015" lon="12.434509091928353"><ele>498.0</ele><time>2026-04-29T12:32:19.001Z</time></trkpt><trkpt lat="43.429478348836604" lon="12.434648232912789"><ele>497.33333333333337</ele><time>2026-04-29T12:32:20.001Z</time></trkpt><trkpt lat="43.429365199211" lon="12.434797040090027"><ele>496.6666666666667</ele><time>2026-04-29T12:32:21Z</time></trkpt><trkpt lat="43.42924625488083" lon="12.434951567991789"><ele>496.0</ele><time>2026-04-29T12:32:22Z</time></trkpt><trkpt lat="43.42911069839705" lon="12.43508990008116"><ele>496.0</ele><time>2026-04-29T12:32:23Z</time></trkpt><trkpt lat="43.42895721168342" lon="12.435212689687427"><ele>496.0</ele><time>2026-04-29T12:32:24Z</time></trkpt><trkpt lat="43.42880052717687" lon="12.43532671450467"><ele>496.0</ele><time>2026-04-29T12:32:25Z</time></trkpt><trkpt lat="43.4286294223201" lon="12.435420437122385"><ele>494.0</ele><time>2026-04-29T12:32:26Z</time></trkpt><trkpt lat="43.428451226832216" lon="12.435451101156072"><ele>492.0</ele><time>2026-04-29T12:32:27Z</time></trkpt><trkpt lat="43.428267615202586" lon="12.435477377628946"><ele>490.0</ele><time>2026-04-29T12:32:28Z</time></trkpt><trkpt lat="43.42808410303403" lon="12.435510263314598"><ele>493.0</ele><time>2026-04-29T12:32:29Z</time></trkpt><trkpt lat="43.427892144804744" lon="12.435524394402902"><ele>496.0</ele><time>2026-04-29T12:32:30Z</time></trkpt><trkpt lat="43.42770355731994" lon="12.435553826241456"><ele>499.0</ele><time>2026-04-29T12:32:31Z</time></trkpt><trkpt lat="43.42753028971093" lon="12.435602672822522"><ele>499.0</ele><time>2026-04-29T12:32:32Z</time></trkpt><trkpt lat="43.42737434628366" lon="12.435679668953783"><ele>499.0</ele><time>2026-04-29T12:32:33Z</time></trkpt><trkpt lat="43.42722342178047" lon="12.435778793520564"><ele>499.0</ele><time>2026-04-29T12:32:34Z</time></trkpt><trkpt lat="43.427044017091134" lon="12.435849308103737"><ele>499.0</ele><time>2026-04-29T12:32:35Z</time></trkpt><trkpt lat="43.426849180227386" lon="12.435825645046794"><ele>499.0</ele><time>2026-04-29T12:32:36Z</time></trkpt><trkpt lat="43.42664849993328" lon="12.435824721246144"><ele>499.0</ele><time>2026-04-29T12:32:37Z</time></trkpt><trkpt lat="43.426453966470504" lon="12.435811588233957"><ele>497.0</ele><time>2026-04-29T12:32:38Z</time></trkpt><trkpt lat="43.426258403645605" lon="12.435824576923002"><ele>495.0</ele><time>2026-04-29T12:32:39Z</time></trkpt><trkpt lat="43.42606805405209" lon="12.435880093652102"><ele>493.0</ele><time>2026-04-29T12:32:40Z</time></trkpt><trkpt lat="43.42588010575244" lon="12.435979369672882"><ele>493.0</ele><time>2026-04-29T12:32:41Z</time></trkpt><trkpt lat="43.425693033849825" lon="12.436079280198163"><ele>493.0</ele><time>2026-04-29T12:32:42Z</time></trkpt><trkpt lat="43.4254923497723" lon="12.43616366927236"><ele>493.0</ele><time>2026-04-29T12:32:43Z</time></trkpt><trkpt lat="43.42530746789872" lon="12.436203789374666"><ele>493.6666666666667</ele><time>2026-04-29T12:32:44Z</time></trkpt><trkpt lat="43.425153727392455" lon="12.436149200727563"><ele>494.33333333333337</ele><time>2026-04-29T12:32:45Z</time></trkpt><trkpt lat="43.42503050284378" lon="12.436059202550029"><ele>495.0</ele><time>2026-04-29T12:32:46Z</time></trkpt><trkpt lat="43.42491041713052" lon="12.435920817385814"><ele>495.0</ele><time>2026-04-29T12:32:47Z</time></trkpt><trkpt lat="43.424764347450214" lon="12.435760618459424"><ele>495.0</ele><time>2026-04-29T12:32:48Z</time></trkpt><trkpt lat="43.42461825559828" lon="12.435565008321449"><ele>495.0</ele><time>2026-04-29T12:32:48.999Z</time></trkpt><trkpt lat="43.42446086992719" lon="12.435370495985165"><ele>493.33333333333337</ele><time>2026-04-29T12:32:49.999Z</time></trkpt><trkpt lat="43.42430093791697" lon="12.435181524586893"><ele>491.6666666666667</ele><time>2026-04-29T12:32:50.999Z</time></trkpt><trkpt lat="43.42415952877016" lon="12.435023508488943"><ele>490.0</ele><time>2026-04-29T12:32:51.999Z</time></trkpt><trkpt lat="43.42403298351335" lon="12.434906306141375"><ele>490.0</ele><time>2026-04-29T12:32:52.999Z</time></trkpt><trkpt lat="43.423899027039596" lon="12.434835443844598"><ele>490.0</ele><time>2026-04-29T12:32:53.999Z</time></trkpt><trkpt lat="43.423737086445385" lon="12.434825534899336"><ele>490.0</ele><time>2026-04-29T12:32:54.999Z</time></trkpt><trkpt lat="43.42356486969954" lon="12.434818965229415"><ele>487.0</ele><time>2026-04-29T12:32:55.999Z</time></trkpt><trkpt lat="43.42338125791473" lon="12.434793569580364"><ele>484.0</ele><time>2026-04-29T12:32:56.999Z</time></trkpt><trkpt lat="43.42319601611902" lon="12.434732569693526"><ele>481.0</ele><time>2026-04-29T12:32:57.999Z</time></trkpt><trkpt lat="43.42301869256513" lon="12.43463294401034"><ele>483.33333333333337</ele><time>2026-04-29T12:32:58.999Z</time></trkpt><trkpt lat="43.422842333848344" lon="12.434494884628217"><ele>485.66666666666663</ele><time>2026-04-29T12:32:59.999Z</time></trkpt><trkpt lat="43.422664462617966" lon="12.434351481594724"><ele>488.0</ele><time>2026-04-29T12:33:00.999Z</time></trkpt><trkpt lat="43.42249282288662" lon="12.434232043593585"><ele>488.0</ele><time>2026-04-29T12:33:01.999Z</time></trkpt><trkpt lat="43.42232014567587" lon="12.43415548509354"><ele>488.0</ele><time>2026-04-29T12:33:02.999Z</time></trkpt><trkpt lat="43.42213294789705" lon="12.43412774655893"><ele>488.0</ele><time>2026-04-29T12:33:03.999Z</time></trkpt><trkpt lat="43.421934889696715" lon="12.434131378189814"><ele>488.3333333333333</ele><time>2026-04-29T12:33:04.999Z</time></trkpt><trkpt lat="43.42172851461464" lon="12.434138491260605"><ele>488.66666666666663</ele><time>2026-04-29T12:33:05.999Z</time></trkpt><trkpt lat="43.42151309544483" lon="12.434145074122684"><ele>489.0</ele><time>2026-04-29T12:33:06.999Z</time></trkpt><trkpt lat="43.421289301404904" lon="12.434152599440122"><ele>489.5</ele><time>2026-04-29T12:33:07.999Z</time></trkpt><trkpt lat="43.421058979447245" lon="12.434144020259085"><ele>490.0</ele><time>2026-04-29T12:33:08.999Z</time></trkpt><trkpt lat="43.42082829782902" lon="12.434141543604907"><ele>490.0</ele><time>2026-04-29T12:33:09.999Z</time></trkpt><trkpt lat="43.42060547279528" lon="12.434137222026694"><ele>490.0</ele><time>2026-04-29T12:33:10.999Z</time></trkpt><trkpt lat="43.42038449325218" lon="12.434133946004184"><ele>490.0</ele><time>2026-04-29T12:33:11.999Z</time></trkpt><trkpt lat="43.42017092601315" lon="12.434135467082422"><ele>489.6666666666667</ele><time>2026-04-29T12:33:12.999Z</time></trkpt><trkpt lat="43.41995669253559" lon="12.434127652833137"><ele>489.33333333333337</ele><time>2026-04-29T12:33:13.999Z</time></trkpt><trkpt lat="43.419756103125124" lon="12.434057554106069"><ele>489.0</ele><time>2026-04-29T12:33:14.999Z</time></trkpt><trkpt lat="43.41955950130881" lon="12.43397313512975"><ele>492.0</ele><time>2026-04-29T12:33:15.999Z</time></trkpt><trkpt lat="43.41936077941039" lon="12.43388519500241"><ele>495.0</ele><time>2026-04-29T12:33:16.999Z</time></trkpt><trkpt lat="43.4191652204795" lon="12.433783469583256"><ele>498.0</ele><time>2026-04-29T12:33:17.999Z</time></trkpt><trkpt lat="43.41896904327959" lon="12.43369106670516"><ele>495.0</ele><time>2026-04-29T12:33:18.999Z</time></trkpt><trkpt lat="43.41877709298385" lon="12.433602488687375"><ele>492.0</ele><time>2026-04-29T12:33:19.999Z</time></trkpt><trkpt lat="43.418602210027004" lon="12.433521444350282"><ele>489.0</ele><time>2026-04-29T12:33:20.999Z</time></trkpt><trkpt lat="43.41844837828316" lon="12.433463917083582"><ele>489.0</ele><time>2026-04-29T12:33:21.999Z</time></trkpt><trkpt lat="43.41828691113255" lon="12.433455331505161"><ele>489.0</ele><time>2026-04-29T12:33:22.999Z</time></trkpt><trkpt lat="43.41811058985332" lon="12.43348075445195"><ele>489.0</ele><time>2026-04-29T12:33:23.999Z</time></trkpt><trkpt lat="43.41792830250498" lon="12.4334528272318"><ele>494.66666666666663</ele><time>2026-04-29T12:33:24.999Z</time></trkpt><trkpt lat="43.41774249036212" lon="12.433366797576646"><ele>500.3333333333333</ele><time>2026-04-29T12:33:25.999Z</time></trkpt><trkpt lat="43.417546777116186" lon="12.433270036856925"><ele>506.0</ele><time>2026-04-29T12:33:26.999Z</time></trkpt><trkpt lat="43.41736601226921" lon="12.43312130946964"><ele>503.3333333333333</ele><time>2026-04-29T12:33:27.999Z</time></trkpt><trkpt lat="43.41722198808844" lon="12.43294804644789"><ele>500.66666666666663</ele><time>2026-04-29T12:33:28.999Z</time></trkpt><trkpt lat="43.417106273202734" lon="12.432815418402376"><ele>498.0</ele><time>2026-04-29T12:33:29.999Z</time></trkpt><trkpt lat="43.41695681089067" lon="12.432738765473196"><ele>498.0</ele><time>2026-04-29T12:33:30.999Z</time></trkpt><trkpt lat="43.41679485101767" lon="12.432753864610188"><ele>498.0</ele><time>2026-04-29T12:33:31.999Z</time></trkpt><trkpt lat="43.416638775779624" lon="12.432819045555744"><ele>498.0</ele><time>2026-04-29T12:33:32.999Z</time></trkpt><trkpt lat="43.416500797999376" lon="12.432852590179932"><ele>498.0</ele><time>2026-04-29T12:33:33.999Z</time></trkpt><trkpt lat="43.4163712545146" lon="12.432794829661855"><ele>498.0</ele><time>2026-04-29T12:33:34.999Z</time></trkpt><trkpt lat="43.41627005430949" lon="12.432659936531222"><ele>498.0</ele><time>2026-04-29T12:33:35.999Z</time></trkpt><trkpt lat="43.41620899972966" lon="12.432452018586005"><ele>498.0</ele><time>2026-04-29T12:33:36.999Z</time></trkpt><trkpt lat="43.41618188957627" lon="12.432227236270514"><ele>501.66666666666663</ele><time>2026-04-29T12:33:37.999Z</time></trkpt><trkpt lat="43.41621725963737" lon="12.431993771193206"><ele>505.3333333333333</ele><time>2026-04-29T12:33:38.999Z</time></trkpt><trkpt lat="43.416206103565" lon="12.431784654484884"><ele>509.0</ele><time>2026-04-29T12:33:39.999Z</time></trkpt><trkpt lat="43.41615671248816" lon="12.431611340757726"><ele>509.0</ele><time>2026-04-29T12:33:40.999Z</time></trkpt><trkpt lat="43.41603950537815" lon="12.431476479660494"><ele>509.0</ele><time>2026-04-29T12:33:41.999Z</time></trkpt><trkpt lat="43.41588238398201" lon="12.431378066000159"><ele>509.0</ele><time>2026-04-29T12:33:42.999Z</time></trkpt><trkpt lat="43.41570153568117" lon="12.431305817075517"><ele>503.0</ele><time>2026-04-29T12:33:43.999Z</time></trkpt><trkpt lat="43.415506383001116" lon="12.431239572121727"><ele>497.0</ele><time>2026-04-29T12:33:45Z</time></trkpt><trkpt lat="43.415301259323506" lon="12.431188035038462"><ele>491.0</ele><time>2026-04-29T12:33:46Z</time></trkpt><trkpt lat="43.415082443410526" lon="12.431160617901886"><ele>491.0</ele><time>2026-04-29T12:33:47Z</time></trkpt><trkpt lat="43.41485625433912" lon="12.431170187177603"><ele>491.0</ele><time>2026-04-29T12:33:48Z</time></trkpt><trkpt lat="43.414654208261" lon="12.431198699851999"><ele>491.0</ele><time>2026-04-29T12:33:49Z</time></trkpt><trkpt lat="43.41450034131283" lon="12.43122415288224"><ele>494.25</ele><time>2026-04-29T12:33:50Z</time></trkpt><trkpt lat="43.41435888574918" lon="12.431225188767183"><ele>497.5</ele><time>2026-04-29T12:33:51Z</time></trkpt><trkpt lat="43.41424342867728" lon="12.431107159418685"><ele>500.75</ele><time>2026-04-29T12:33:52Z</time></trkpt><trkpt lat="43.41415781402818" lon="12.430951796163031"><ele>504.0</ele><time>2026-04-29T12:33:53Z</time></trkpt><trkpt lat="43.414059939085384" lon="12.430767163266108"><ele>504.0</ele><time>2026-04-29T12:33:54Z</time></trkpt><trkpt lat="43.41394966387069" lon="12.430589504564715"><ele>504.0</ele><time>2026-04-29T12:33:55Z</time></trkpt><trkpt lat="43.41385170648002" lon="12.430418660443832"><ele>504.0</ele><time>2026-04-29T12:33:56Z</time></trkpt><trkpt lat="43.41375242560147" lon="12.430302433537088"><ele>502.5</ele><time>2026-04-29T12:33:57Z</time></trkpt><trkpt lat="43.41364129080446" lon="12.43024052438271"><ele>501.0</ele><time>2026-04-29T12:33:58Z</time></trkpt><trkpt lat="43.41349263828979" lon="12.430245507860507"><ele>499.5</ele><time>2026-04-29T12:33:59Z</time></trkpt><trkpt lat="43.41332849000381" lon="12.430278066953743"><ele>498.0</ele><time>2026-04-29T12:34:00Z</time></trkpt><trkpt lat="43.413161553329644" lon="12.430233780222185"><ele>498.0</ele><time>2026-04-29T12:34:01Z</time></trkpt><trkpt lat="43.41298934087978" lon="12.430151836112774"><ele>498.0</ele><time>2026-04-29T12:34:02Z</time></trkpt><trkpt lat="43.412804219501666" lon="12.43007411020488"><ele>498.0</ele><time>2026-04-29T12:34:03Z</time></trkpt><trkpt lat="43.4126255318243" lon="12.429961748165507"><ele>498.33333333333337</ele><time>2026-04-29T12:34:04Z</time></trkpt><trkpt lat="43.41245933147119" lon="12.42984897275134"><ele>498.6666666666667</ele><time>2026-04-29T12:34:05Z</time></trkpt><trkpt lat="43.41230272203997" lon="12.429736848659624"><ele>499.0</ele><time>2026-04-29T12:34:06Z</time></trkpt><trkpt lat="43.412155782545106" lon="12.429644954186193"><ele>494.25</ele><time>2026-04-29T12:34:07Z</time></trkpt><trkpt lat="43.41201452417252" lon="12.429557831236266"><ele>489.5</ele><time>2026-04-29T12:34:08Z</time></trkpt><trkpt lat="43.411884460210004" lon="12.42950562141502"><ele>484.75</ele><time>2026-04-29T12:34:09Z</time></trkpt><trkpt lat="43.41174782592848" lon="12.429486110048346"><ele>480.0</ele><time>2026-04-29T12:34:10Z</time></trkpt><trkpt lat="43.411604018846084" lon="12.429484344584134"><ele>480.0</ele><time>2026-04-29T12:34:11Z</time></trkpt><trkpt lat="43.411460541407536" lon="12.429446002269103"><ele>480.0</ele><time>2026-04-29T12:34:12Z</time></trkpt><trkpt lat="43.41133038729703" lon="12.429364190192144"><ele>480.0</ele><time>2026-04-29T12:34:13Z</time></trkpt><trkpt lat="43.411219007742915" lon="12.429296707586849"><ele>480.0</ele><time>2026-04-29T12:34:14Z</time></trkpt><trkpt lat="43.411116446857406" lon="12.429297673757812"><ele>480.25</ele><time>2026-04-29T12:34:15Z</time></trkpt><trkpt lat="43.411020920766056" lon="12.429366920010976"><ele>480.5</ele><time>2026-04-29T12:34:16Z</time></trkpt><trkpt lat="43.41096121055629" lon="12.429511750421604"><ele>480.75</ele><time>2026-04-29T12:34:17Z</time></trkpt><trkpt lat="43.410927186898356" lon="12.42967248377854"><ele>481.0</ele><time>2026-04-29T12:34:18Z</time></trkpt><trkpt lat="43.4109109780751" lon="12.429825960884203"><ele>483.1666666666667</ele><time>2026-04-29T12:34:19Z</time></trkpt><trkpt lat="43.41087728739432" lon="12.429947403850546"><ele>485.33333333333337</ele><time>2026-04-29T12:34:20Z</time></trkpt><trkpt lat="43.410821530153264" lon="12.430036420252083"><ele>487.5</ele><time>2026-04-29T12:34:21Z</time></trkpt><trkpt lat="43.41075626430064" lon="12.430082738201227"><ele>489.66666666666663</ele><time>2026-04-29T12:34:22Z</time></trkpt><trkpt lat="43.41067681379601" lon="12.43015183371234"><ele>491.8333333333333</ele><time>2026-04-29T12:34:24Z</time></trkpt><trkpt lat="43.41067369745846" lon="12.430266082308648"><ele>494.0</ele><time>2026-04-29T12:34:26Z</time></trkpt><trkpt lat="43.410675738131275" lon="12.430394356823843"><ele>495.6</ele><time>2026-04-29T12:34:28Z</time></trkpt><trkpt lat="43.410675674236046" lon="12.430550037229331"><ele>497.2</ele><time>2026-04-29T12:34:30Z</time></trkpt><trkpt lat="43.41070630979929" lon="12.430711305441978"><ele>498.80000000000007</ele><time>2026-04-29T12:34:32Z</time></trkpt><trkpt lat="43.41075205649388" lon="12.430843252004491"><ele>500.40000000000003</ele><time>2026-04-29T12:34:34Z</time></trkpt><trkpt lat="43.41078200686986" lon="12.430937294693692"><ele>502.0</ele><time>2026-04-29T12:34:36Z</time></trkpt><trkpt lat="43.41084096802183" lon="12.4310017052716"><ele>502.0</ele><time>2026-04-29T12:35:29.999Z</time></trkpt><trkpt lat="43.41086148214983" lon="12.4309107353098"><ele>502.00000000000006</ele><time>2026-04-29T12:35:33.999Z</time></trkpt><trkpt lat="43.41078088314469" lon="12.430864041805673"><ele>502.00000000000006</ele><time>2026-04-29T12:35:36.999Z</time></trkpt><trkpt lat="43.41073565979377" lon="12.43074036559876"><ele>502.0</ele><time>2026-04-29T12:35:38.999Z</time></trkpt><trkpt lat="43.410712205652146" lon="12.43058887425651"><ele>502.0</ele><time>2026-04-29T12:35:40.999Z</time></trkpt><trkpt lat="43.410703364463366" lon="12.430456628359167"><ele>500.6666666666667</ele><time>2026-04-29T12:35:42.999Z</time></trkpt><trkpt lat="43.410698521922306" lon="12.430335526468394"><ele>499.33333333333337</ele><time>2026-04-29T12:35:44.999Z</time></trkpt><trkpt lat="43.41070153086581" lon="12.430230588806033"><ele>498.0</ele><time>2026-04-29T12:35:46.999Z</time></trkpt><trkpt lat="43.41068094318022" lon="12.430133156290976"><ele>496.66666666666663</ele><time>2026-04-29T12:35:49.999Z</time></trkpt><trkpt lat="43.410593478395924" lon="12.43009309622502"><ele>495.3333333333333</ele><time>2026-04-29T12:35:51.999Z</time></trkpt><trkpt lat="43.410483255403825" lon="12.430069103946323"><ele>494.0</ele><time>2026-04-29T12:35:52.999Z</time></trkpt><trkpt lat="43.4103900174632" lon="12.430046853229227"><ele>494.0</ele><time>2026-04-29T12:35:53.999Z</time></trkpt><trkpt lat="43.41030019208378" lon="12.430020358089559"><ele>494.0</ele><time>2026-04-29T12:35:54.999Z</time></trkpt><trkpt lat="43.41021495350288" lon="12.429952267507735"><ele>494.0</ele><time>2026-04-29T12:35:55.999Z</time></trkpt><trkpt lat="43.41015859352524" lon="12.429828168585113"><ele>494.0</ele><time>2026-04-29T12:35:56.999Z</time></trkpt><trkpt lat="43.41011318248065" lon="12.429684060772955"><ele>494.0</ele><time>2026-04-29T12:35:57.999Z</time></trkpt><trkpt lat="43.41004877123597" lon="12.42955151409158"><ele>490.25</ele><time>2026-04-29T12:35:58.999Z</time></trkpt><trkpt lat="43.40995084198348" lon="12.429466565791333"><ele>486.5</ele><time>2026-04-29T12:35:59.999Z</time></trkpt><trkpt lat="43.40982375696566" lon="12.429428995851897"><ele>482.75</ele><time>2026-04-29T12:36:00.999Z</time></trkpt><trkpt lat="43.409676784698476" lon="12.429444768567464"><ele>479.0</ele><time>2026-04-29T12:36:01.999Z</time></trkpt><trkpt lat="43.40952216402682" lon="12.429479752533439"><ele>481.3333333333333</ele><time>2026-04-29T12:36:02.999Z</time></trkpt><trkpt lat="43.40936027360157" lon="12.429529835099846"><ele>483.66666666666663</ele><time>2026-04-29T12:36:03.999Z</time></trkpt><trkpt lat="43.409199036812936" lon="12.429607672169123"><ele>486.0</ele><time>2026-04-29T12:36:04.999Z</time></trkpt><trkpt lat="43.409062866562564" lon="12.42971838738937"><ele>486.0</ele><time>2026-04-29T12:36:05.999Z</time></trkpt><trkpt lat="43.40895894937521" lon="12.429856782296"><ele>486.0</ele><time>2026-04-29T12:36:06.999Z</time></trkpt><trkpt lat="43.40886681346529" lon="12.430033784321711"><ele>486.0</ele><time>2026-04-29T12:36:08Z</time></trkpt><trkpt lat="43.4087705831757" lon="12.430212088114835"><ele>486.0</ele><time>2026-04-29T12:36:09Z</time></trkpt><trkpt lat="43.40864745169111" lon="12.430364150091933"><ele>486.0</ele><time>2026-04-29T12:36:10Z</time></trkpt><trkpt lat="43.408501816581584" lon="12.430500305998208"><ele>486.0</ele><time>2026-04-29T12:36:11Z</time></trkpt><trkpt lat="43.40834475623875" lon="12.430589668955017"><ele>486.0</ele><time>2026-04-29T12:36:12Z</time></trkpt><trkpt lat="43.40817579114623" lon="12.430632694517698"><ele>486.0</ele><time>2026-04-29T12:36:13Z</time></trkpt><trkpt lat="43.40799766064822" lon="12.430624769705947"><ele>486.0</ele><time>2026-04-29T12:36:14Z</time></trkpt><trkpt lat="43.407821982251164" lon="12.430579193544446"><ele>484.66666666666663</ele><time>2026-04-29T12:36:15Z</time></trkpt><trkpt lat="43.40765268029905" lon="12.430494891770431"><ele>483.3333333333333</ele><time>2026-04-29T12:36:16Z</time></trkpt><trkpt lat="43.40748857649669" lon="12.430379269090837"><ele>482.0</ele><time>2026-04-29T12:36:17Z</time></trkpt><trkpt lat="43.40733417931285" lon="12.430287019728077"><ele>474.0</ele><time>2026-04-29T12:36:18Z</time></trkpt><trkpt lat="43.40718598439746" lon="12.43022474714878"><ele>466.0</ele><time>2026-04-29T12:36:19Z</time></trkpt><trkpt lat="43.40701744507496" lon="12.430196558415973"><ele>458.0</ele><time>2026-04-29T12:36:20Z</time></trkpt><trkpt lat="43.40682643140882" lon="12.430218612004536"><ele>458.0</ele><time>2026-04-29T12:36:21Z</time></trkpt><trkpt lat="43.4066260593689" lon="12.430223153714804"><ele>458.0</ele><time>2026-04-29T12:36:22Z</time></trkpt><trkpt lat="43.40641582650913" lon="12.430233557674354"><ele>458.0</ele><time>2026-04-29T12:36:23Z</time></trkpt><trkpt lat="43.40619466331847" lon="12.430245887017092"><ele>458.0</ele><time>2026-04-29T12:36:24Z</time></trkpt><trkpt lat="43.40596434337272" lon="12.430260428042075"><ele>458.0</ele><time>2026-04-29T12:36:25Z</time></trkpt><trkpt lat="43.405748274781075" lon="12.430278348256598"><ele>458.0</ele><time>2026-04-29T12:36:26Z</time></trkpt><trkpt lat="43.40555447320987" lon="12.430288581012588"><ele>458.3333333333333</ele><time>2026-04-29T12:36:27Z</time></trkpt><trkpt lat="43.40537226460499" lon="12.430277536119094"><ele>458.66666666666663</ele><time>2026-04-29T12:36:28Z</time></trkpt><trkpt lat="43.40519657983732" lon="12.430218519792541"><ele>459.0</ele><time>2026-04-29T12:36:29Z</time></trkpt><trkpt lat="43.4050297857932" lon="12.430120488900588"><ele>459.0</ele><time>2026-04-29T12:36:30Z</time></trkpt><trkpt lat="43.404849522085385" lon="12.430029741802496"><ele>459.0</ele><time>2026-04-29T12:36:31Z</time></trkpt><trkpt lat="43.4046544217616" lon="12.429964870646733"><ele>459.0</ele><time>2026-04-29T12:36:32Z</time></trkpt><trkpt lat="43.40444970091813" lon="12.429909456343823"><ele>459.66666666666663</ele><time>2026-04-29T12:36:33Z</time></trkpt><trkpt lat="43.404251596091626" lon="12.429856275253856"><ele>460.3333333333333</ele><time>2026-04-29T12:36:34Z</time></trkpt><trkpt lat="43.404070274394776" lon="12.429802200691483"><ele>461.0</ele><time>2026-04-29T12:36:35Z</time></trkpt><trkpt lat="43.403905603308324" lon="12.42973542024611"><ele>456.3333333333333</ele><time>2026-04-29T12:36:36Z</time></trkpt><trkpt lat="43.40375633396612" lon="12.429637107208995"><ele>451.66666666666663</ele><time>2026-04-29T12:36:37Z</time></trkpt><trkpt lat="43.40363515929251" lon="12.429484215890398"><ele>447.0</ele><time>2026-04-29T12:36:38Z</time></trkpt><trkpt lat="43.40353392769529" lon="12.429290225870297"><ele>447.0</ele><time>2026-04-29T12:36:39Z</time></trkpt><trkpt lat="43.40342819767231" lon="12.429119032449961"><ele>447.0</ele><time>2026-04-29T12:36:40Z</time></trkpt><trkpt lat="43.403295675918685" lon="12.428983655929569"><ele>447.0</ele><time>2026-04-29T12:36:41Z</time></trkpt><trkpt lat="43.40313710682711" lon="12.428880615849689"><ele>445.33333333333337</ele><time>2026-04-29T12:36:42Z</time></trkpt><trkpt lat="43.40296451453373" lon="12.428793152467502"><ele>443.6666666666667</ele><time>2026-04-29T12:36:43Z</time></trkpt><trkpt lat="43.402785987839835" lon="12.42869432628308"><ele>442.0</ele><time>2026-04-29T12:36:44Z</time></trkpt><trkpt lat="43.402616525534285" lon="12.428587187010692"><ele>442.0</ele><time>2026-04-29T12:36:45Z</time></trkpt><trkpt lat="43.40245938052394" lon="12.428473655414729"><ele>442.0</ele><time>2026-04-29T12:36:46Z</time></trkpt><trkpt lat="43.402310406653434" lon="12.428357828908805"><ele>442.0</ele><time>2026-04-29T12:36:47Z</time></trkpt><trkpt lat="43.402160539923216" lon="12.428252595572273"><ele>442.0</ele><time>2026-04-29T12:36:48Z</time></trkpt><trkpt lat="43.40201484072137" lon="12.428163890861365"><ele>442.0</ele><time>2026-04-29T12:36:49Z</time></trkpt><trkpt lat="43.40187393799214" lon="12.428103179284754"><ele>442.0</ele><time>2026-04-29T12:36:50Z</time></trkpt><trkpt lat="43.40173025385015" lon="12.428077494766207"><ele>442.0</ele><time>2026-04-29T12:36:51Z</time></trkpt><trkpt lat="43.40158857191339" lon="12.428068556105641"><ele>442.0</ele><time>2026-04-29T12:36:52Z</time></trkpt><trkpt lat="43.401451571706914" lon="12.428051453387317"><ele>442.0</ele><time>2026-04-29T12:36:53Z</time></trkpt><trkpt lat="43.40131370366027" lon="12.42802210164367"><ele>442.0</ele><time>2026-04-29T12:36:54Z</time></trkpt><trkpt lat="43.40118062414248" lon="12.427977050832538"><ele>440.0</ele><time>2026-04-29T12:36:55Z</time></trkpt><trkpt lat="43.401066368660686" lon="12.427881505027434"><ele>438.0</ele><time>2026-04-29T12:36:56Z</time></trkpt><trkpt lat="43.40099629025075" lon="12.427728113147138"><ele>436.0</ele><time>2026-04-29T12:36:57Z</time></trkpt><trkpt lat="43.400944979184644" lon="12.427544706415556"><ele>434.0</ele><time>2026-04-29T12:36:58Z</time></trkpt><trkpt lat="43.40090051428011" lon="12.427364176984664"><ele>434.0</ele><time>2026-04-29T12:36:59Z</time></trkpt><trkpt lat="43.40085176910278" lon="12.42720331136645"><ele>434.0</ele><time>2026-04-29T12:37:00Z</time></trkpt><trkpt lat="43.40080475221704" lon="12.427054520734796"><ele>434.0</ele><time>2026-04-29T12:37:00.998Z</time></trkpt><trkpt lat="43.400761343835924" lon="12.426899403617915"><ele>434.0</ele><time>2026-04-29T12:37:01.998Z</time></trkpt><trkpt lat="43.400722708922025" lon="12.42673052871179"><ele>435.25</ele><time>2026-04-29T12:37:02.998Z</time></trkpt><trkpt lat="43.400694862438286" lon="12.426544319610537"><ele>436.5</ele><time>2026-04-29T12:37:03.998Z</time></trkpt><trkpt lat="43.40068318070747" lon="12.426349253003501"><ele>437.75</ele><time>2026-04-29T12:37:04.998Z</time></trkpt><trkpt lat="43.40068406935048" lon="12.426163722539131"><ele>439.0</ele><time>2026-04-29T12:37:05.998Z</time></trkpt><trkpt lat="43.400668208911" lon="12.42598184400608"><ele>439.75</ele><time>2026-04-29T12:37:06.998Z</time></trkpt><trkpt lat="43.400616936814686" lon="12.42580072804049"><ele>440.5</ele><time>2026-04-29T12:37:07.998Z</time></trkpt><trkpt lat="43.400544098246726" lon="12.425625720123525"><ele>441.25</ele><time>2026-04-29T12:37:08.998Z</time></trkpt><trkpt lat="43.400466635562644" lon="12.425465740378304"><ele>442.0</ele><time>2026-04-29T12:37:09.999Z</time></trkpt><trkpt lat="43.40039364426008" lon="12.425308405726241"><ele>438.0</ele><time>2026-04-29T12:37:10.998Z</time></trkpt><trkpt lat="43.40032610711149" lon="12.425152014595861"><ele>434.0</ele><time>2026-04-29T12:37:11.999Z</time></trkpt><trkpt lat="43.400254785654695" lon="12.424994535346372"><ele>430.0</ele><time>2026-04-29T12:37:12.999Z</time></trkpt><trkpt lat="43.400180615477794" lon="12.424837499741953"><ele>426.0</ele><time>2026-04-29T12:37:13.999Z</time></trkpt><trkpt lat="43.40010224413401" lon="12.42467968179151"><ele>425.5</ele><time>2026-04-29T12:37:14.999Z</time></trkpt><trkpt lat="43.40001076171793" lon="12.424530139085956"><ele>425.0</ele><time>2026-04-29T12:37:15.999Z</time></trkpt><trkpt lat="43.39989934314564" lon="12.42440194923762"><ele>424.5</ele><time>2026-04-29T12:37:16.999Z</time></trkpt><trkpt lat="43.39976973231778" lon="12.424292066319529"><ele>424.0</ele><time>2026-04-29T12:37:17.999Z</time></trkpt><trkpt lat="43.39963061264432" lon="12.424180205585303"><ele>423.33333333333337</ele><time>2026-04-29T12:37:18.999Z</time></trkpt><trkpt lat="43.399487793415204" lon="12.424064286989159"><ele>422.66666666666663</ele><time>2026-04-29T12:37:19.999Z</time></trkpt><trkpt lat="43.399350817204265" lon="12.42394876975429"><ele>422.0</ele><time>2026-04-29T12:37:20.999Z</time></trkpt><trkpt lat="43.39922058492311" lon="12.423841376270692"><ele>422.75</ele><time>2026-04-29T12:37:21.999Z</time></trkpt><trkpt lat="43.399096054548544" lon="12.423738317177612"><ele>423.5</ele><time>2026-04-29T12:37:22.999Z</time></trkpt><trkpt lat="43.39897927091842" lon="12.42363886663456"><ele>424.25</ele><time>2026-04-29T12:37:23.999Z</time></trkpt><trkpt lat="43.398866243285255" lon="12.42354422785308"><ele>425.0</ele><time>2026-04-29T12:37:24.999Z</time></trkpt><trkpt lat="43.398750705040726" lon="12.423447851301875"><ele>425.0</ele><time>2026-04-29T12:37:25.999Z</time></trkpt><trkpt lat="43.39863355726944" lon="12.423352307994861"><ele>425.0</ele><time>2026-04-29T12:37:26.999Z</time></trkpt><trkpt lat="43.39851405166784" lon="12.423255126523886"><ele>425.0</ele><time>2026-04-29T12:37:27.999Z</time></trkpt><trkpt lat="43.39839400317698" lon="12.423155928417215"><ele>425.0</ele><time>2026-04-29T12:37:28.999Z</time></trkpt><trkpt lat="43.39827186225528" lon="12.423055040906704"><ele>426.25</ele><time>2026-04-29T12:37:29.999Z</time></trkpt><trkpt lat="43.39814729990344" lon="12.422950483893047"><ele>427.5</ele><time>2026-04-29T12:37:30.999Z</time></trkpt><trkpt lat="43.39801708897464" lon="12.422850826626066"><ele>428.75</ele><time>2026-04-29T12:37:31.999Z</time></trkpt><trkpt lat="43.39788369064153" lon="12.422749132874387"><ele>430.0</ele><time>2026-04-29T12:37:32.999Z</time></trkpt><trkpt lat="43.39774717301847" lon="12.422646403335392"><ele>430.0</ele><time>2026-04-29T12:37:33.999Z</time></trkpt><trkpt lat="43.39760562031337" lon="12.422555659842573"><ele>430.0</ele><time>2026-04-29T12:37:34.999Z</time></trkpt><trkpt lat="43.39745282845271" lon="12.422489608856743"><ele>430.0</ele><time>2026-04-29T12:37:35.999Z</time></trkpt><trkpt lat="43.39729129426515" lon="12.422442908840852"><ele>425.6666666666667</ele><time>2026-04-29T12:37:36.999Z</time></trkpt><trkpt lat="43.39712766497126" lon="12.42239290126737"><ele>421.33333333333337</ele><time>2026-04-29T12:37:37.999Z</time></trkpt><trkpt lat="43.39696312434128" lon="12.422344678903505"><ele>417.0</ele><time>2026-04-29T12:37:38.999Z</time></trkpt><trkpt lat="43.39679798952713" lon="12.42229587772406"><ele>417.0</ele><time>2026-04-29T12:37:39.999Z</time></trkpt><trkpt lat="43.39663435765935" lon="12.422248485128177"><ele>417.0</ele><time>2026-04-29T12:37:40.999Z</time></trkpt><trkpt lat="43.396472165185" lon="12.42219878606437"><ele>417.0</ele><time>2026-04-29T12:37:41.999Z</time></trkpt><trkpt lat="43.396309030074995" lon="12.422150846881602"><ele>418.0</ele><time>2026-04-29T12:37:42.999Z</time></trkpt><trkpt lat="43.396151806435505" lon="12.42210766292861"><ele>419.0</ele><time>2026-04-29T12:37:43.999Z</time></trkpt><trkpt lat="43.39600422226411" lon="12.422064459550883"><ele>420.0</ele><time>2026-04-29T12:37:44.999Z</time></trkpt><trkpt lat="43.39586496592459" lon="12.422020933960992"><ele>420.0</ele><time>2026-04-29T12:37:45.999Z</time></trkpt><trkpt lat="43.395738064478664" lon="12.421979834570463"><ele>420.0</ele><time>2026-04-29T12:37:46.999Z</time></trkpt><trkpt lat="43.395620329232045" lon="12.421938348105149"><ele>420.0</ele><time>2026-04-29T12:37:47.999Z</time></trkpt><trkpt lat="43.395507094727634" lon="12.421887420711283"><ele>420.0</ele><time>2026-04-29T12:37:49Z</time></trkpt><trkpt lat="43.39539617865033" lon="12.421799723866963"><ele>418.25</ele><time>2026-04-29T12:37:50Z</time></trkpt><trkpt lat="43.395291598964185" lon="12.421679522492786"><ele>416.5</ele><time>2026-04-29T12:37:51Z</time></trkpt><trkpt lat="43.39521923890294" lon="12.421535410647373"><ele>414.75</ele><time>2026-04-29T12:37:52Z</time></trkpt><trkpt lat="43.39518083620222" lon="12.421389527796308"><ele>413.0</ele><time>2026-04-29T12:37:53Z</time></trkpt><trkpt lat="43.39516906148878" lon="12.421260559331355"><ele>413.0</ele><time>2026-04-29T12:37:54Z</time></trkpt><trkpt lat="43.39517570805981" lon="12.421150267125949"><ele>413.0</ele><time>2026-04-29T12:37:55Z</time></trkpt><trkpt lat="43.395182298184395" lon="12.421053010605661"><ele>413.0</ele><time>2026-04-29T12:37:56Z</time></trkpt><trkpt lat="43.39513048974804" lon="12.420946702152943"><ele>413.0</ele><time>2026-04-29T12:37:58Z</time></trkpt><trkpt lat="43.395005924916006" lon="12.420903938891225"><ele>413.0</ele><time>2026-04-29T12:38:00Z</time></trkpt><trkpt lat="43.39492709716436" lon="12.420880166450328"><ele>413.0</ele><time>2026-04-29T12:38:01Z</time></trkpt><trkpt lat="43.39483306334185" lon="12.42084882010535"><ele>413.0</ele><time>2026-04-29T12:38:02Z</time></trkpt><trkpt lat="43.39473868308756" lon="12.420812766722689"><ele>413.0</ele><time>2026-04-29T12:38:03Z</time></trkpt><trkpt lat="43.39463959566615" lon="12.420771018496762"><ele>413.0</ele><time>2026-04-29T12:38:04Z</time></trkpt><trkpt lat="43.39453746742579" lon="12.420729684797227"><ele>413.0</ele><time>2026-04-29T12:38:05Z</time></trkpt><trkpt lat="43.39443466499898" lon="12.42069365396975"><ele>412.79999999999995</ele><time>2026-04-29T12:38:06Z</time></trkpt><trkpt lat="43.39433508596951" lon="12.420673319252437"><ele>412.6</ele><time>2026-04-29T12:38:07Z</time></trkpt><trkpt lat="43.39425398121157" lon="12.420669958680723"><ele>412.4</ele><time>2026-04-29T12:38:08Z</time></trkpt><trkpt lat="43.3941724549107" lon="12.420609527758144"><ele>412.20000000000005</ele><time>2026-04-29T12:38:10Z</time></trkpt><trkpt lat="43.39415582056985" lon="12.420448838597366"><ele>412.0</ele><time>2026-04-29T12:38:12Z</time></trkpt><trkpt lat="43.39417911327622" lon="12.420340059805575"><ele>412.0</ele><time>2026-04-29T12:38:13Z</time></trkpt><trkpt lat="43.39421845227092" lon="12.420236943505511"><ele>412.0</ele><time>2026-04-29T12:38:14Z</time></trkpt><trkpt lat="43.39423547800894" lon="12.420083500725124"><ele>412.0</ele><time>2026-04-29T12:38:16Z</time></trkpt><trkpt lat="43.39414997201117" lon="12.420018887857728"><ele>412.0</ele><time>2026-04-29T12:38:18Z</time></trkpt><trkpt lat="43.39406267077516" lon="12.420034447650185"><ele>412.0</ele><time>2026-04-29T12:38:20Z</time></trkpt><trkpt lat="43.39400472633364" lon="12.420095249802205"><ele>412.0</ele><time>2026-04-29T12:38:22Z</time></trkpt><trkpt lat="43.393937603975395" lon="12.42019788965228"><ele>412.0</ele><time>2026-04-29T12:38:24Z</time></trkpt><trkpt lat="43.39384876911179" lon="12.42032029774539"><ele>412.0</ele><time>2026-04-29T12:38:26Z</time></trkpt><trkpt lat="43.393740643352686" lon="12.420382047603223"><ele>412.0</ele><time>2026-04-29T12:38:28Z</time></trkpt><trkpt lat="43.3936323191912" lon="12.420436719206883"><ele>413.8</ele><time>2026-04-29T12:38:30Z</time></trkpt><trkpt lat="43.39355592890099" lon="12.420519963998661"><ele>415.6</ele><time>2026-04-29T12:38:32Z</time></trkpt><trkpt lat="43.39352790525754" lon="12.420617899143492"><ele>417.40000000000003</ele><time>2026-04-29T12:38:35Z</time></trkpt><trkpt lat="43.39358569865937" lon="12.420525636200676"><ele>419.20000000000005</ele><time>2026-04-29T12:38:54.001Z</time></trkpt><trkpt lat="43.39366081060532" lon="12.420456049316064"><ele>421.0</ele><time>2026-04-29T12:38:56.001Z</time></trkpt><trkpt lat="43.39374815294629" lon="12.420389376904982"><ele>421.0</ele><time>2026-04-29T12:38:57.001Z</time></trkpt><trkpt lat="43.39385571059551" lon="12.420328211501769"><ele>421.0</ele><time>2026-04-29T12:38:59.001Z</time></trkpt><trkpt lat="43.39394184188305" lon="12.42022632458488"><ele>421.0</ele><time>2026-04-29T12:39:01.001Z</time></trkpt><trkpt lat="43.393978397758524" lon="12.42014671050659"><ele>421.0</ele><time>2026-04-29T12:39:03.001Z</time></trkpt><trkpt lat="43.393921501226615" lon="12.420018885480532"><ele>421.0</ele><time>2026-04-29T12:39:06.999Z</time></trkpt><trkpt lat="43.39379771383306" lon="12.41995941291648"><ele>421.0</ele><time>2026-04-29T12:39:08.999Z</time></trkpt><trkpt lat="43.3936987245716" lon="12.419912805174835"><ele>421.0</ele><time>2026-04-29T12:39:09.999Z</time></trkpt><trkpt lat="43.39359763230202" lon="12.419855770736106"><ele>421.0</ele><time>2026-04-29T12:39:10.999Z</time></trkpt><trkpt lat="43.39349472001023" lon="12.419787224163588"><ele>421.0</ele><time>2026-04-29T12:39:11.999Z</time></trkpt><trkpt lat="43.39338821284525" lon="12.41972362413746"><ele>421.0</ele><time>2026-04-29T12:39:12.999Z</time></trkpt><trkpt lat="43.39328494793007" lon="12.41965651534762"><ele>419.25</ele><time>2026-04-29T12:39:13.999Z</time></trkpt><trkpt lat="43.39317946115445" lon="12.419593007125"><ele>417.5</ele><time>2026-04-29T12:39:14.999Z</time></trkpt><trkpt lat="43.393064272552344" lon="12.41953389164926"><ele>415.75</ele><time>2026-04-29T12:39:15.999Z</time></trkpt><trkpt lat="43.39295259851741" lon="12.41947446728878"><ele>414.0</ele><time>2026-04-29T12:39:16.999Z</time></trkpt><trkpt lat="43.39283950952126" lon="12.419415036625969"><ele>414.0</ele><time>2026-04-29T12:39:18Z</time></trkpt><trkpt lat="43.3927285861657" lon="12.419358589043505"><ele>414.0</ele><time>2026-04-29T12:39:19Z</time></trkpt><trkpt lat="43.39262353492448" lon="12.419294074891036"><ele>414.0</ele><time>2026-04-29T12:39:19.999Z</time></trkpt><trkpt lat="43.39253226513055" lon="12.41923623701289"><ele>414.0</ele><time>2026-04-29T12:39:21Z</time></trkpt><trkpt lat="43.39243322900259" lon="12.419183945519887"><ele>414.0</ele><time>2026-04-29T12:39:22Z</time></trkpt><trkpt lat="43.3923339677821" lon="12.419133736488229"><ele>414.0</ele><time>2026-04-29T12:39:23Z</time></trkpt><trkpt lat="43.3922335539199" lon="12.419080321947645"><ele>414.0</ele><time>2026-04-29T12:39:24Z</time></trkpt><trkpt lat="43.392124517672364" lon="12.41902515668071"><ele>414.0</ele><time>2026-04-29T12:39:25Z</time></trkpt><trkpt lat="43.392014447104366" lon="12.418970862130115"><ele>414.0</ele><time>2026-04-29T12:39:26Z</time></trkpt><trkpt lat="43.391910087227416" lon="12.418918609780881"><ele>413.3333333333333</ele><time>2026-04-29T12:39:27Z</time></trkpt><trkpt lat="43.39181522070023" lon="12.418867797738038"><ele>412.66666666666663</ele><time>2026-04-29T12:39:28Z</time></trkpt><trkpt lat="43.391731442617946" lon="12.41882133908372"><ele>412.0</ele><time>2026-04-29T12:39:29Z</time></trkpt><trkpt lat="43.391656488741944" lon="12.418787076435514"><ele>411.3333333333333</ele><time>2026-04-29T12:39:30Z</time></trkpt><trkpt lat="43.391589942416104" lon="12.418761191137499"><ele>410.66666666666663</ele><time>2026-04-29T12:39:31Z</time></trkpt><trkpt lat="43.391492153245835" lon="12.418727188660117"><ele>410.0</ele><time>2026-04-29T12:39:33Z</time></trkpt><trkpt lat="43.391443437771755" lon="12.418624037994062"><ele>409.99999999999994</ele><time>2026-04-29T12:39:35Z</time></trkpt><trkpt lat="43.391417659328326" lon="12.418543618287684"><ele>410.0</ele><time>2026-04-29T12:39:36Z</time></trkpt><trkpt lat="43.39137796528294" lon="12.418462096993277"><ele>410.0</ele><time>2026-04-29T12:39:37Z</time></trkpt><trkpt lat="43.39132862975832" lon="12.418383861388286"><ele>410.0</ele><time>2026-04-29T12:39:38Z</time></trkpt><trkpt lat="43.39127249574851" lon="12.418309457741637"><ele>409.99999999999994</ele><time>2026-04-29T12:39:39Z</time></trkpt><trkpt lat="43.39121851118132" lon="12.418253174801006"><ele>410.0</ele><time>2026-04-29T12:39:40Z</time></trkpt><trkpt lat="43.39112625481377" lon="12.418199967594063"><ele>409.8</ele><time>2026-04-29T12:39:42Z</time></trkpt><trkpt lat="43.3910785765531" lon="12.418029398872696"><ele>409.6</ele><time>2026-04-29T12:39:44Z</time></trkpt><trkpt lat="43.391053978601995" lon="12.417909423880019"><ele>409.4</ele><time>2026-04-29T12:39:45Z</time></trkpt><trkpt lat="43.39101521301919" lon="12.417805443830805"><ele>409.2</ele><time>2026-04-29T12:39:46Z</time></trkpt><trkpt lat="43.39095983161488" lon="12.41771138922203"><ele>409.0</ele><time>2026-04-29T12:39:47Z</time></trkpt><trkpt lat="43.39089858906437" lon="12.417637928123646"><ele>409.0</ele><time>2026-04-29T12:39:48Z</time></trkpt><trkpt lat="43.390824388974" lon="12.417577670623201"><ele>409.0</ele><time>2026-04-29T12:39:49Z</time></trkpt><trkpt lat="43.39073826184216" lon="12.417515077752537"><ele>409.0</ele><time>2026-04-29T12:39:50Z</time></trkpt><trkpt lat="43.39065160939817" lon="12.417443156035505"><ele>409.0</ele><time>2026-04-29T12:39:51Z</time></trkpt><trkpt lat="43.39056050304272" lon="12.417359080021159"><ele>409.0</ele><time>2026-04-29T12:39:52Z</time></trkpt><trkpt lat="43.3904754818659" lon="12.417285701159784"><ele>409.0</ele><time>2026-04-29T12:39:53Z</time></trkpt><trkpt lat="43.390405375818546" lon="12.41722368955325"><ele>409.0</ele><time>2026-04-29T12:39:54Z</time></trkpt><trkpt lat="43.39034165020427" lon="12.417152570853318"><ele>409.0</ele><time>2026-04-29T12:39:56Z</time></trkpt><trkpt lat="43.390401986495576" lon="12.417115580679829"><ele>409.0</ele><time>2026-04-29T12:39:59Z</time></trkpt><trkpt lat="43.39049630806181" lon="12.41719099549799"><ele>409.0</ele><time>2026-04-29T12:40:01Z</time></trkpt><trkpt lat="43.390600870630664" lon="12.417271103594844"><ele>409.0</ele><time>2026-04-29T12:40:03Z</time></trkpt><trkpt lat="43.39071660324718" lon="12.417314024540287"><ele>409.0</ele><time>2026-04-29T12:40:05Z</time></trkpt><trkpt lat="43.39078166857338" lon="12.417321854782852"><ele>409.0</ele><time>2026-04-29T12:40:06Z</time></trkpt><trkpt lat="43.390847232735524" lon="12.417325931319445"><ele>409.0</ele><time>2026-04-29T12:40:07Z</time></trkpt><trkpt lat="43.39096034040702" lon="12.417304788789641"><ele>409.0</ele><time>2026-04-29T12:40:09Z</time></trkpt><trkpt lat="43.39107112977281" lon="12.417270625110186"><ele>409.0</ele><time>2026-04-29T12:40:11Z</time></trkpt><trkpt lat="43.39116743736819" lon="12.417199284768548"><ele>409.0</ele><time>2026-04-29T12:40:13Z</time></trkpt><trkpt lat="43.391242604789475" lon="12.417094954446071"><ele>409.0</ele><time>2026-04-29T12:40:15Z</time></trkpt><trkpt lat="43.39129768927077" lon="12.416993747918411"><ele>409.0</ele><time>2026-04-29T12:40:17Z</time></trkpt><trkpt lat="43.39133146214355" lon="12.416901695267654"><ele>409.0</ele><time>2026-04-29T12:40:20Z</time></trkpt><trkpt lat="43.39131486457342" lon="12.41673370810366"><ele>407.0</ele><time>2026-04-29T12:40:22Z</time></trkpt><trkpt lat="43.39128059161459" lon="12.416595825517852"><ele>405.0</ele><time>2026-04-29T12:40:23Z</time></trkpt><trkpt lat="43.39125583288858" lon="12.416439392481681"><ele>403.0</ele><time>2026-04-29T12:40:24.001Z</time></trkpt><trkpt lat="43.39126692331424" lon="12.416237923242798"><ele>401.0</ele><time>2026-04-29T12:40:25.001Z</time></trkpt><trkpt lat="43.39128661219765" lon="12.416038366756606"><ele>401.0</ele><time>2026-04-29T12:40:26.001Z</time></trkpt><trkpt lat="43.391311954099386" lon="12.41582395571804"><ele>401.0</ele><time>2026-04-29T12:40:27.001Z</time></trkpt><trkpt lat="43.391333713186754" lon="12.415595786329158"><ele>401.0</ele><time>2026-04-29T12:40:28.001Z</time></trkpt><trkpt lat="43.391356736491836" lon="12.415364428729642"><ele>401.0</ele><time>2026-04-29T12:40:29.001Z</time></trkpt><trkpt lat="43.391369692461836" lon="12.415142871874124"><ele>401.0</ele><time>2026-04-29T12:40:30.001Z</time></trkpt><trkpt lat="43.39134786864647" lon="12.414922571903517"><ele>401.0</ele><time>2026-04-29T12:40:31.001Z</time></trkpt><trkpt lat="43.39126380810561" lon="12.414714643508859"><ele>405.3333333333333</ele><time>2026-04-29T12:40:32.001Z</time></trkpt><trkpt lat="43.39116132696431" lon="12.414508768925025"><ele>409.66666666666663</ele><time>2026-04-29T12:40:33.001Z</time></trkpt><trkpt lat="43.39105297497127" lon="12.414292671846342"><ele>414.0</ele><time>2026-04-29T12:40:34.001Z</time></trkpt><trkpt lat="43.39093375731407" lon="12.41408817352189"><ele>414.0</ele><time>2026-04-29T12:40:35.001Z</time></trkpt><trkpt lat="43.39079019161987" lon="12.413897327680711"><ele>414.0</ele><time>2026-04-29T12:40:36.001Z</time></trkpt><trkpt lat="43.39062643219478" lon="12.413725967334429"><ele>414.0</ele><time>2026-04-29T12:40:37.001Z</time></trkpt><trkpt lat="43.390451498229986" lon="12.413567104129532"><ele>410.0</ele><time>2026-04-29T12:40:38.001Z</time></trkpt><trkpt lat="43.39030002306832" lon="12.413419903765801"><ele>406.0</ele><time>2026-04-29T12:40:39.001Z</time></trkpt><trkpt lat="43.39016847718071" lon="12.413255832342806"><ele>402.0</ele><time>2026-04-29T12:40:40.001Z</time></trkpt><trkpt lat="43.39007431931251" lon="12.413064874741883"><ele>402.66666666666663</ele><time>2026-04-29T12:40:41.001Z</time></trkpt><trkpt lat="43.390019071228124" lon="12.412850494462827"><ele>403.3333333333333</ele><time>2026-04-29T12:40:42.001Z</time></trkpt><trkpt lat="43.390008630425605" lon="12.412633259550839"><ele>404.0</ele><time>2026-04-29T12:40:43.001Z</time></trkpt><trkpt lat="43.39003725622868" lon="12.412388596316458"><ele>402.66666666666663</ele><time>2026-04-29T12:40:44.001Z</time></trkpt><trkpt lat="43.39007258382136" lon="12.412126075460716"><ele>401.33333333333337</ele><time>2026-04-29T12:40:45.001Z</time></trkpt><trkpt lat="43.390114691984174" lon="12.41184345120824"><ele>400.0</ele><time>2026-04-29T12:40:46.001Z</time></trkpt><trkpt lat="43.39016417131133" lon="12.411541534088942"><ele>397.0</ele><time>2026-04-29T12:40:47.001Z</time></trkpt><trkpt lat="43.39021575933622" lon="12.411223532209364"><ele>394.0</ele><time>2026-04-29T12:40:48.001Z</time></trkpt><trkpt lat="43.390266546624126" lon="12.4108907266801"><ele>394.0</ele><time>2026-04-29T12:40:49.001Z</time></trkpt><trkpt lat="43.39030973374085" lon="12.410544858335436"><ele>394.0</ele><time>2026-04-29T12:40:50.001Z</time></trkpt><trkpt lat="43.390340818507696" lon="12.410186147616345"><ele>394.0</ele><time>2026-04-29T12:40:51.001Z</time></trkpt><trkpt lat="43.390358760701375" lon="12.409822549094187"><ele>394.0</ele><time>2026-04-29T12:40:52.001Z</time></trkpt><trkpt lat="43.39037170040551" lon="12.40945821981693"><ele>394.0</ele><time>2026-04-29T12:40:53.001Z</time></trkpt><trkpt lat="43.390386353590955" lon="12.409112042175185"><ele>394.0</ele><time>2026-04-29T12:40:54.001Z</time></trkpt><trkpt lat="43.390407333050675" lon="12.40879369296412"><ele>393.33333333333337</ele><time>2026-04-29T12:40:55.001Z</time></trkpt><trkpt lat="43.39043328775884" lon="12.40850154405544"><ele>392.66666666666663</ele><time>2026-04-29T12:40:56.001Z</time></trkpt><trkpt lat="43.39046781921941" lon="12.408229838189362"><ele>392.0</ele><time>2026-04-29T12:40:57.001Z</time></trkpt><trkpt lat="43.390504865232685" lon="12.407985486030944"><ele>391.0</ele><time>2026-04-29T12:40:58.001Z</time></trkpt><trkpt lat="43.390532145055914" lon="12.407756171184127"><ele>390.0</ele><time>2026-04-29T12:40:59.001Z</time></trkpt><trkpt lat="43.3905316438013" lon="12.407527812182698"><ele>389.0</ele><time>2026-04-29T12:41:00.001Z</time></trkpt><trkpt lat="43.39048858276906" lon="12.40729212438401"><ele>389.3333333333333</ele><time>2026-04-29T12:41:01.001Z</time></trkpt><trkpt lat="43.39042207413417" lon="12.407039186056181"><ele>389.66666666666663</ele><time>2026-04-29T12:41:02.001Z</time></trkpt><trkpt lat="43.3903622943225" lon="12.406777947064194"><ele>390.0</ele><time>2026-04-29T12:41:03.001Z</time></trkpt><trkpt lat="43.39032727613575" lon="12.406488521430644"><ele>390.33333333333337</ele><time>2026-04-29T12:41:04.001Z</time></trkpt><trkpt lat="43.39031466289718" lon="12.406185014005516"><ele>390.6666666666667</ele><time>2026-04-29T12:41:05.001Z</time></trkpt><trkpt lat="43.390331982133134" lon="12.40594319620517"><ele>391.0</ele><time>2026-04-29T12:41:06.001Z</time></trkpt><trkpt lat="43.39034351433419" lon="12.405698678887568"><ele>391.33333333333337</ele><time>2026-04-29T12:41:07.001Z</time></trkpt><trkpt lat="43.39031837668411" lon="12.405443947664178"><ele>391.66666666666663</ele><time>2026-04-29T12:41:08.001Z</time></trkpt><trkpt lat="43.39023918405642" lon="12.405202302547725"><ele>392.0</ele><time>2026-04-29T12:41:09.001Z</time></trkpt><trkpt lat="43.39012185013946" lon="12.404977093257111"><ele>392.0</ele><time>2026-04-29T12:41:10.001Z</time></trkpt><trkpt lat="43.39000903130712" lon="12.404765779136856"><ele>392.0</ele><time>2026-04-29T12:41:11.001Z</time></trkpt><trkpt lat="43.38993245094695" lon="12.40455564983837"><ele>392.0</ele><time>2026-04-29T12:41:12.001Z</time></trkpt><trkpt lat="43.389890286717105" lon="12.404346767126759"><ele>392.3333333333333</ele><time>2026-04-29T12:41:13Z</time></trkpt><trkpt lat="43.38989297830488" lon="12.404139350559849"><ele>392.66666666666663</ele><time>2026-04-29T12:41:14Z</time></trkpt><trkpt lat="43.389945423289355" lon="12.403938256972987"><ele>393.0</ele><time>2026-04-29T12:41:15Z</time></trkpt><trkpt lat="43.390039069649454" lon="12.40373716511373"><ele>391.66666666666663</ele><time>2026-04-29T12:41:16Z</time></trkpt><trkpt lat="43.39014717744548" lon="12.403516251150355"><ele>390.3333333333333</ele><time>2026-04-29T12:41:17Z</time></trkpt><trkpt lat="43.39026126353175" lon="12.40328176162019"><ele>389.0</ele><time>2026-04-29T12:41:18Z</time></trkpt><trkpt lat="43.39037667897073" lon="12.403046376626346"><ele>390.3333333333333</ele><time>2026-04-29T12:41:19Z</time></trkpt><trkpt lat="43.390483030553725" lon="12.40282990263903"><ele>391.66666666666663</ele><time>2026-04-29T12:41:20Z</time></trkpt><trkpt lat="43.39057646784299" lon="12.402624746446245"><ele>393.0</ele><time>2026-04-29T12:41:21Z</time></trkpt><trkpt lat="43.39064352809774" lon="12.402405733061608"><ele>398.33333333333337</ele><time>2026-04-29T12:41:22Z</time></trkpt><trkpt lat="43.3906481410101" lon="12.402167068831"><ele>403.6666666666667</ele><time>2026-04-29T12:41:23Z</time></trkpt><trkpt lat="43.39061046955124" lon="12.401900890714282"><ele>409.0</ele><time>2026-04-29T12:41:24Z</time></trkpt><trkpt lat="43.39056780858104" lon="12.401614369011021"><ele>407.33333333333337</ele><time>2026-04-29T12:41:25Z</time></trkpt><trkpt lat="43.3905297530143" lon="12.401320787434448"><ele>405.66666666666663</ele><time>2026-04-29T12:41:26Z</time></trkpt><trkpt lat="43.39048669196051" lon="12.401016816357767"><ele>404.0</ele><time>2026-04-29T12:41:27Z</time></trkpt><trkpt lat="43.39044239342894" lon="12.400716286771523"><ele>398.3333333333333</ele><time>2026-04-29T12:41:28Z</time></trkpt><trkpt lat="43.39040306576101" lon="12.400440873477274"><ele>392.66666666666663</ele><time>2026-04-29T12:41:29Z</time></trkpt><trkpt lat="43.39037198344523" lon="12.400189540143785"><ele>387.0</ele><time>2026-04-29T12:41:30Z</time></trkpt><trkpt lat="43.39036163675873" lon="12.399957912551884"><ele>387.0</ele><time>2026-04-29T12:41:31Z</time></trkpt><trkpt lat="43.390383420592315" lon="12.399731293112787"><ele>387.0</ele><time>2026-04-29T12:41:32Z</time></trkpt><trkpt lat="43.39043830979204" lon="12.399525355154905"><ele>387.0</ele><time>2026-04-29T12:41:33Z</time></trkpt><trkpt lat="43.390516602437025" lon="12.399323094345426"><ele>388.33333333333337</ele><time>2026-04-29T12:41:34Z</time></trkpt><trkpt lat="43.390612772833954" lon="12.3991223567707"><ele>389.6666666666667</ele><time>2026-04-29T12:41:35Z</time></trkpt><trkpt lat="43.39071153383988" lon="12.39890829699801"><ele>391.0</ele><time>2026-04-29T12:41:36Z</time></trkpt><trkpt lat="43.39081197949781" lon="12.39868130823615"><ele>391.0</ele><time>2026-04-29T12:41:37Z</time></trkpt><trkpt lat="43.39090255861901" lon="12.398473944957638"><ele>391.0</ele><time>2026-04-29T12:41:38Z</time></trkpt><trkpt lat="43.39096302482206" lon="12.398289845786646"><ele>391.0</ele><time>2026-04-29T12:41:39Z</time></trkpt><trkpt lat="43.39098425399101" lon="12.398084617070364"><ele>391.33333333333337</ele><time>2026-04-29T12:41:40Z</time></trkpt><trkpt lat="43.390955693733176" lon="12.39786590832162"><ele>391.66666666666663</ele><time>2026-04-29T12:41:41Z</time></trkpt><trkpt lat="43.390901483503974" lon="12.397619331004293"><ele>392.0</ele><time>2026-04-29T12:41:42Z</time></trkpt><trkpt lat="43.39084829370125" lon="12.397373395482864"><ele>394.66666666666663</ele><time>2026-04-29T12:41:43Z</time></trkpt><trkpt lat="43.39079963184189" lon="12.397139387345858"><ele>397.33333333333337</ele><time>2026-04-29T12:41:44Z</time></trkpt><trkpt lat="43.39074318638157" lon="12.396937903969084"><ele>400.0</ele><time>2026-04-29T12:41:45Z</time></trkpt><trkpt lat="43.390654175469045" lon="12.396778465186928"><ele>400.0</ele><time>2026-04-29T12:41:46Z</time></trkpt><trkpt lat="43.390519714196145" lon="12.396666572484303"><ele>400.0</ele><time>2026-04-29T12:41:47Z</time></trkpt><trkpt lat="43.39036543507183" lon="12.396588471998687"><ele>400.0</ele><time>2026-04-29T12:41:48Z</time></trkpt><trkpt lat="43.39018884608912" lon="12.396519036261521"><ele>396.33333333333337</ele><time>2026-04-29T12:41:49Z</time></trkpt><trkpt lat="43.390017412879764" lon="12.396420163638926"><ele>392.66666666666663</ele><time>2026-04-29T12:41:50Z</time></trkpt><trkpt lat="43.38984955181683" lon="12.39628490900586"><ele>389.0</ele><time>2026-04-29T12:41:51Z</time></trkpt><trkpt lat="43.389696901880555" lon="12.396118899388672"><ele>390.3333333333333</ele><time>2026-04-29T12:41:52Z</time></trkpt><trkpt lat="43.38956140774406" lon="12.395917698580886"><ele>391.66666666666663</ele><time>2026-04-29T12:41:53Z</time></trkpt><trkpt lat="43.38943714159381" lon="12.395703531788751"><ele>393.0</ele><time>2026-04-29T12:41:54Z</time></trkpt><trkpt lat="43.38930042238673" lon="12.395504583023879"><ele>400.66666666666663</ele><time>2026-04-29T12:41:55Z</time></trkpt><trkpt lat="43.389147612435586" lon="12.395324675640742"><ele>408.3333333333333</ele><time>2026-04-29T12:41:56Z</time></trkpt><trkpt lat="43.388991584509" lon="12.395150841756513"><ele>416.0</ele><time>2026-04-29T12:41:57Z</time></trkpt><trkpt lat="43.3888554023587" lon="12.394964685946375"><ele>408.66666666666663</ele><time>2026-04-29T12:41:58Z</time></trkpt><trkpt lat="43.38874352265275" lon="12.394755591781879"><ele>401.33333333333337</ele><time>2026-04-29T12:41:59Z</time></trkpt><trkpt lat="43.38865403349299" lon="12.39451820622008"><ele>394.0</ele><time>2026-04-29T12:42:00Z</time></trkpt><trkpt lat="43.38859132717058" lon="12.394297988227578"><ele>394.0</ele><time>2026-04-29T12:42:01Z</time></trkpt><trkpt lat="43.38856967685433" lon="12.39410413439664"><ele>394.0</ele><time>2026-04-29T12:42:02Z</time></trkpt><trkpt lat="43.38858893576302" lon="12.393908872553576"><ele>394.0</ele><time>2026-04-29T12:42:03Z</time></trkpt><trkpt lat="43.38864468772174" lon="12.393691594517884"><ele>396.0</ele><time>2026-04-29T12:42:04Z</time></trkpt><trkpt lat="43.38871506374229" lon="12.393471625912492"><ele>398.0</ele><time>2026-04-29T12:42:05Z</time></trkpt><trkpt lat="43.3887720924071" lon="12.393268555449003"><ele>400.0</ele><time>2026-04-29T12:42:06Z</time></trkpt><trkpt lat="43.388800102992306" lon="12.393084037888501"><ele>404.75</ele><time>2026-04-29T12:42:07Z</time></trkpt><trkpt lat="43.38877622031775" lon="12.392928635127088"><ele>409.5</ele><time>2026-04-29T12:42:08Z</time></trkpt><trkpt lat="43.38869231494009" lon="12.392814912278814"><ele>414.25</ele><time>2026-04-29T12:42:09Z</time></trkpt><trkpt lat="43.38857056491655" lon="12.392767090027931"><ele>419.0</ele><time>2026-04-29T12:42:10Z</time></trkpt><trkpt lat="43.388420760645545" lon="12.39277790647618"><ele>419.0</ele><time>2026-04-29T12:42:11Z</time></trkpt><trkpt lat="43.388249285779025" lon="12.392812625959106"><ele>419.0</ele><time>2026-04-29T12:42:12Z</time></trkpt><trkpt lat="43.388072339408744" lon="12.392850901827167"><ele>419.0</ele><time>2026-04-29T12:42:13Z</time></trkpt><trkpt lat="43.38790041036281" lon="12.392902948157953"><ele>420.0</ele><time>2026-04-29T12:42:14Z</time></trkpt><trkpt lat="43.38773933721141" lon="12.392985512026128"><ele>421.0</ele><time>2026-04-29T12:42:15Z</time></trkpt><trkpt lat="43.387581750342875" lon="12.393083399814483"><ele>422.0</ele><time>2026-04-29T12:42:16Z</time></trkpt><trkpt lat="43.387427252093524" lon="12.393152808352706"><ele>414.66666666666663</ele><time>2026-04-29T12:42:17Z</time></trkpt><trkpt lat="43.387263879568195" lon="12.393182253323776"><ele>407.33333333333337</ele><time>2026-04-29T12:42:18.001Z</time></trkpt><trkpt lat="43.38708570459653" lon="12.393182749672867"><ele>400.0</ele><time>2026-04-29T12:42:19.001Z</time></trkpt><trkpt lat="43.38689834023952" lon="12.393165468018587"><ele>397.6666666666667</ele><time>2026-04-29T12:42:20.001Z</time></trkpt><trkpt lat="43.38672442755301" lon="12.393125009477254"><ele>395.33333333333337</ele><time>2026-04-29T12:42:21.001Z</time></trkpt><trkpt lat="43.386582819149375" lon="12.393050365208325"><ele>393.0</ele><time>2026-04-29T12:42:22.001Z</time></trkpt><trkpt lat="43.38646816531922" lon="12.392946397857667"><ele>389.5</ele><time>2026-04-29T12:42:23.001Z</time></trkpt><trkpt lat="43.386393410578236" lon="12.392799217066555"><ele>386.0</ele><time>2026-04-29T12:42:24.001Z</time></trkpt><trkpt lat="43.38635218680877" lon="12.392605536491681"><ele>382.5</ele><time>2026-04-29T12:42:25.001Z</time></trkpt><trkpt lat="43.386342127323516" lon="12.392371493154238"><ele>379.0</ele><time>2026-04-29T12:42:26.001Z</time></trkpt><trkpt lat="43.38631944064333" lon="12.392123922778843"><ele>379.0</ele><time>2026-04-29T12:42:27.001Z</time></trkpt><trkpt lat="43.386266615916234" lon="12.391860473729878"><ele>379.0</ele><time>2026-04-29T12:42:28.001Z</time></trkpt><trkpt lat="43.38618473782777" lon="12.391586097771237"><ele>379.0</ele><time>2026-04-29T12:42:29.001Z</time></trkpt><trkpt lat="43.38606555668745" lon="12.39132563295575"><ele>384.0</ele><time>2026-04-29T12:42:30.001Z</time></trkpt><trkpt lat="43.385914263037" lon="12.391112267637318"><ele>389.0</ele><time>2026-04-29T12:42:31.001Z</time></trkpt><trkpt lat="43.38575685610973" lon="12.39092075215483"><ele>394.0</ele><time>2026-04-29T12:42:32.001Z</time></trkpt><trkpt lat="43.38557794264822" lon="12.390776844553814"><ele>391.33333333333337</ele><time>2026-04-29T12:42:33.001Z</time></trkpt><trkpt lat="43.385382600774676" lon="12.39066668292819"><ele>388.66666666666663</ele><time>2026-04-29T12:42:34.001Z</time></trkpt><trkpt lat="43.38518984562113" lon="12.390556647708383"><ele>386.0</ele><time>2026-04-29T12:42:35.001Z</time></trkpt><trkpt lat="43.38501162125849" lon="12.390449725093779"><ele>386.0</ele><time>2026-04-29T12:42:36.001Z</time></trkpt><trkpt lat="43.384854045628735" lon="12.39034904314797"><ele>386.0</ele><time>2026-04-29T12:42:37.001Z</time></trkpt><trkpt lat="43.38472441484246" lon="12.390243537113122"><ele>386.0</ele><time>2026-04-29T12:42:38.001Z</time></trkpt><trkpt lat="43.38463505207754" lon="12.390105000272207"><ele>380.0</ele><time>2026-04-29T12:42:39.001Z</time></trkpt><trkpt lat="43.3845851334889" lon="12.389918022531198"><ele>374.0</ele><time>2026-04-29T12:42:40.001Z</time></trkpt><trkpt lat="43.384577254247326" lon="12.38968835780894"><ele>368.0</ele><time>2026-04-29T12:42:41.001Z</time></trkpt><trkpt lat="43.38459271553271" lon="12.389444960924573"><ele>367.25</ele><time>2026-04-29T12:42:42.001Z</time></trkpt><trkpt lat="43.38462990398717" lon="12.389255045485122"><ele>366.5</ele><time>2026-04-29T12:42:43.001Z</time></trkpt><trkpt lat="43.38469421753262" lon="12.389107332023876"><ele>365.75</ele><time>2026-04-29T12:42:44.001Z</time></trkpt><trkpt lat="43.38478773228251" lon="12.38900365980265"><ele>365.0</ele><time>2026-04-29T12:42:45.001Z</time></trkpt><trkpt lat="43.38490183588316" lon="12.388902736421645"><ele>368.25</ele><time>2026-04-29T12:42:46.001Z</time></trkpt><trkpt lat="43.3849860267625" lon="12.388747470631294"><ele>371.5</ele><time>2026-04-29T12:42:47.001Z</time></trkpt><trkpt lat="43.38500414787067" lon="12.388569216334332"><ele>374.75</ele><time>2026-04-29T12:42:48.001Z</time></trkpt><trkpt lat="43.38497482590611" lon="12.388375188973678"><ele>378.0</ele><time>2026-04-29T12:42:49.001Z</time></trkpt><trkpt lat="43.38492224359076" lon="12.388156818002667"><ele>380.0</ele><time>2026-04-29T12:42:50.001Z</time></trkpt><trkpt lat="43.38485920286314" lon="12.38792218591434"><ele>382.0</ele><time>2026-04-29T12:42:51.001Z</time></trkpt><trkpt lat="43.38479268360923" lon="12.387669257665879"><ele>384.0</ele><time>2026-04-29T12:42:52.001Z</time></trkpt><trkpt lat="43.38472447686498" lon="12.387398526179627"><ele>380.0</ele><time>2026-04-29T12:42:53.001Z</time></trkpt><trkpt lat="43.384651790521225" lon="12.387116259148023"><ele>376.0</ele><time>2026-04-29T12:42:54.001Z</time></trkpt><trkpt lat="43.38457617230274" lon="12.386846733424571"><ele>372.0</ele><time>2026-04-29T12:42:55.001Z</time></trkpt><trkpt lat="43.38449261252198" lon="12.38660241306221"><ele>372.0</ele><time>2026-04-29T12:42:56.001Z</time></trkpt><trkpt lat="43.38440410176635" lon="12.38637291831284"><ele>372.0</ele><time>2026-04-29T12:42:57.001Z</time></trkpt><trkpt lat="43.384314906830646" lon="12.3861579384873"><ele>372.0</ele><time>2026-04-29T12:42:58.001Z</time></trkpt><trkpt lat="43.38423437379417" lon="12.385946214421379"><ele>374.3333333333333</ele><time>2026-04-29T12:42:59.001Z</time></trkpt><trkpt lat="43.384161956948816" lon="12.38574840495495"><ele>376.66666666666663</ele><time>2026-04-29T12:43:00.001Z</time></trkpt><trkpt lat="43.384075185538315" lon="12.3855675392165"><ele>379.0</ele><time>2026-04-29T12:43:01.001Z</time></trkpt><trkpt lat="43.38396887658899" lon="12.38539074933988"><ele>377.3333333333333</ele><time>2026-04-29T12:43:02.001Z</time></trkpt><trkpt lat="43.38383946002631" lon="12.385222518374805"><ele>375.6666666666667</ele><time>2026-04-29T12:43:03.001Z</time></trkpt><trkpt lat="43.38369618133974" lon="12.385062035641521"><ele>374.0</ele><time>2026-04-29T12:43:04.001Z</time></trkpt><trkpt lat="43.38354824743595" lon="12.384900242951828"><ele>374.0</ele><time>2026-04-29T12:43:05.001Z</time></trkpt><trkpt lat="43.38340496622642" lon="12.384736861658627"><ele>374.0</ele><time>2026-04-29T12:43:06.001Z</time></trkpt><trkpt lat="43.38327089277884" lon="12.384579047948623"><ele>374.0</ele><time>2026-04-29T12:43:07.001Z</time></trkpt><trkpt lat="43.38313861979606" lon="12.384427640593303"><ele>370.6666666666667</ele><time>2026-04-29T12:43:08.001Z</time></trkpt><trkpt lat="43.38300964692421" lon="12.384272480614607"><ele>367.3333333333333</ele><time>2026-04-29T12:43:09.001Z</time></trkpt><trkpt lat="43.38288526554391" lon="12.384115957524445"><ele>364.0</ele><time>2026-04-29T12:43:10.001Z</time></trkpt><trkpt lat="43.38276501750057" lon="12.383961180255488"><ele>365.66666666666663</ele><time>2026-04-29T12:43:11.001Z</time></trkpt><trkpt lat="43.38265400385177" lon="12.383812521778149"><ele>367.3333333333333</ele><time>2026-04-29T12:43:12.001Z</time></trkpt><trkpt lat="43.38255353869014" lon="12.383659633029138"><ele>369.0</ele><time>2026-04-29T12:43:13.001Z</time></trkpt><trkpt lat="43.38246454919026" lon="12.383485209186906"><ele>369.0</ele><time>2026-04-29T12:43:14.001Z</time></trkpt><trkpt lat="43.3823919924236" lon="12.383294267024409"><ele>369.0</ele><time>2026-04-29T12:43:15.001Z</time></trkpt><trkpt lat="43.38231830208509" lon="12.38310037288679"><ele>369.0</ele><time>2026-04-29T12:43:16.001Z</time></trkpt><trkpt lat="43.382244403587784" lon="12.382911874862316"><ele>365.6666666666667</ele><time>2026-04-29T12:43:17.001Z</time></trkpt><trkpt lat="43.38217430307067" lon="12.382728416515514"><ele>362.33333333333337</ele><time>2026-04-29T12:43:18.001Z</time></trkpt><trkpt lat="43.382114113013934" lon="12.382538667312652"><ele>359.0</ele><time>2026-04-29T12:43:19Z</time></trkpt><trkpt lat="43.38206713038194" lon="12.382343395410704"><ele>360.6666666666667</ele><time>2026-04-29T12:43:20Z</time></trkpt><trkpt lat="43.382023828024984" lon="12.38214463702421"><ele>362.3333333333333</ele><time>2026-04-29T12:43:21Z</time></trkpt><trkpt lat="43.381983250404076" lon="12.381947505003055"><ele>364.0</ele><time>2026-04-29T12:43:22Z</time></trkpt><trkpt lat="43.38194523308868" lon="12.381746557105863"><ele>364.0</ele><time>2026-04-29T12:43:23Z</time></trkpt><trkpt lat="43.38189635526474" lon="12.38154539812844"><ele>364.0</ele><time>2026-04-29T12:43:24Z</time></trkpt><trkpt lat="43.38183954471707" lon="12.381354508057798"><ele>364.0</ele><time>2026-04-29T12:43:25Z</time></trkpt><trkpt lat="43.381778778749265" lon="12.381168572726866"><ele>365.0</ele><time>2026-04-29T12:43:26Z</time></trkpt><trkpt lat="43.38171870122124" lon="12.380990482441954"><ele>366.0</ele><time>2026-04-29T12:43:27Z</time></trkpt><trkpt lat="43.38165115772213" lon="12.380833927371892"><ele>367.0</ele><time>2026-04-29T12:43:28Z</time></trkpt><trkpt lat="43.38156360720808" lon="12.380709695128735"><ele>368.0</ele><time>2026-04-29T12:43:29Z</time></trkpt><trkpt lat="43.38147225542731" lon="12.38059697362598"><ele>366.59999999999997</ele><time>2026-04-29T12:43:30Z</time></trkpt><trkpt lat="43.38139079959421" lon="12.380493581608194"><ele>365.2</ele><time>2026-04-29T12:43:31Z</time></trkpt><trkpt lat="43.381322266758254" lon="12.380383535657929"><ele>363.8</ele><time>2026-04-29T12:43:32Z</time></trkpt><trkpt lat="43.38125832071942" lon="12.380255246869401"><ele>362.4</ele><time>2026-04-29T12:43:33Z</time></trkpt><trkpt lat="43.381205022959854" lon="12.380113170238902"><ele>361.0</ele><time>2026-04-29T12:43:34Z</time></trkpt><trkpt lat="43.381176697007675" lon="12.379922144987793"><ele>361.0</ele><time>2026-04-29T12:43:35Z</time></trkpt><trkpt lat="43.381149752675704" lon="12.379722163114003"><ele>361.0</ele><time>2026-04-29T12:43:36Z</time></trkpt><trkpt lat="43.38111256302394" lon="12.379508433137117"><ele>361.0</ele><time>2026-04-29T12:43:37Z</time></trkpt><trkpt lat="43.38105971293667" lon="12.3792817132963"><ele>363.0</ele><time>2026-04-29T12:43:38Z</time></trkpt><trkpt lat="43.380995850261435" lon="12.37904194717083"><ele>365.0</ele><time>2026-04-29T12:43:39Z</time></trkpt><trkpt lat="43.380923564358596" lon="12.37878397202028"><ele>367.0</ele><time>2026-04-29T12:43:40Z</time></trkpt><trkpt lat="43.38085545225909" lon="12.378503087815949"><ele>368.0</ele><time>2026-04-29T12:43:41Z</time></trkpt><trkpt lat="43.380788277871424" lon="12.37820325969945"><ele>369.0</ele><time>2026-04-29T12:43:42Z</time></trkpt><trkpt lat="43.38071175311586" lon="12.377906260824608"><ele>366.6666666666667</ele><time>2026-04-29T12:43:43Z</time></trkpt><trkpt lat="43.380628795176506" lon="12.377624177392237"><ele>364.33333333333337</ele><time>2026-04-29T12:43:44Z</time></trkpt><trkpt lat="43.38054329515917" lon="12.377356088459509"><ele>362.0</ele><time>2026-04-29T12:43:45Z</time></trkpt><trkpt lat="43.38048160952006" lon="12.37708847532939"><ele>362.0</ele><time>2026-04-29T12:43:46Z</time></trkpt><trkpt lat="43.380440590150954" lon="12.376805231427891"><ele>362.0</ele><time>2026-04-29T12:43:47Z</time></trkpt><trkpt lat="43.380407160717745" lon="12.376528363316416"><ele>362.0</ele><time>2026-04-29T12:43:48Z</time></trkpt><trkpt lat="43.38037099624151" lon="12.376243213708191"><ele>365.0</ele><time>2026-04-29T12:43:49Z</time></trkpt><trkpt lat="43.38029299525325" lon="12.37598543995154"><ele>368.0</ele><time>2026-04-29T12:43:50Z</time></trkpt><trkpt lat="43.38017294155612" lon="12.375745995447314"><ele>371.0</ele><time>2026-04-29T12:43:51Z</time></trkpt><trkpt lat="43.3800392172823" lon="12.375512232832174"><ele>373.0</ele><time>2026-04-29T12:43:52Z</time></trkpt><trkpt lat="43.37990041015725" lon="12.375290429898405"><ele>375.0</ele><time>2026-04-29T12:43:53Z</time></trkpt><trkpt lat="43.37976003458679" lon="12.375109910254007"><ele>377.0</ele><time>2026-04-29T12:43:54Z</time></trkpt><trkpt lat="43.37961186219643" lon="12.374951124621743"><ele>371.6666666666667</ele><time>2026-04-29T12:43:55Z</time></trkpt><trkpt lat="43.37944091957762" lon="12.374835241548743"><ele>366.3333333333333</ele><time>2026-04-29T12:43:56Z</time></trkpt><trkpt lat="43.379281951642746" lon="12.374765466803618"><ele>361.0</ele><time>2026-04-29T12:43:57Z</time></trkpt><trkpt lat="43.37914918021016" lon="12.374704067709247"><ele>361.6</ele><time>2026-04-29T12:43:58Z</time></trkpt><trkpt lat="43.37905171482617" lon="12.374635522443988"><ele>362.20000000000005</ele><time>2026-04-29T12:43:59Z</time></trkpt><trkpt lat="43.3789996161737" lon="12.374552170421575"><ele>362.79999999999995</ele><time>2026-04-29T12:44:00Z</time></trkpt><trkpt lat="43.37900576291043" lon="12.374441660705985"><ele>363.4</ele><time>2026-04-29T12:44:01Z</time></trkpt><trkpt lat="43.37908150599255" lon="12.374347150008733"><ele>364.0</ele><time>2026-04-29T12:44:02Z</time></trkpt><trkpt lat="43.37920418306142" lon="12.374302756883722"><ele>364.0</ele><time>2026-04-29T12:44:03Z</time></trkpt><trkpt lat="43.379359753106684" lon="12.374266526785007"><ele>364.0</ele><time>2026-04-29T12:44:04Z</time></trkpt><trkpt lat="43.37952539955329" lon="12.374200895603678"><ele>364.0</ele><time>2026-04-29T12:44:05Z</time></trkpt><trkpt lat="43.37965230282435" lon="12.374123883635761"><ele>365.6</ele><time>2026-04-29T12:44:06Z</time></trkpt><trkpt lat="43.379732632700275" lon="12.37401778199185"><ele>367.2</ele><time>2026-04-29T12:44:07Z</time></trkpt><trkpt lat="43.37976249859544" lon="12.37387468758759"><ele>368.8</ele><time>2026-04-29T12:44:08Z</time></trkpt><trkpt lat="43.379722705981735" lon="12.37373831423519"><ele>370.40000000000003</ele><time>2026-04-29T12:44:09Z</time></trkpt><trkpt lat="43.379630337649786" lon="12.373652557248677"><ele>372.0</ele><time>2026-04-29T12:44:10Z</time></trkpt><trkpt lat="43.37943506419662" lon="12.37369691192123"><ele>373.6666666666667</ele><time>2026-04-29T12:44:11Z</time></trkpt><trkpt lat="43.37926748635341" lon="12.373720647108085"><ele>375.33333333333337</ele><time>2026-04-29T12:44:12Z</time></trkpt><trkpt lat="43.37909739358356" lon="12.373692138139662"><ele>377.0</ele><time>2026-04-29T12:44:13Z</time></trkpt><trkpt lat="43.37893411385607" lon="12.373594166022635"><ele>369.6666666666667</ele><time>2026-04-29T12:44:14Z</time></trkpt><trkpt lat="43.37877481803187" lon="12.37344940310991"><ele>362.3333333333333</ele><time>2026-04-29T12:44:15Z</time></trkpt><trkpt lat="43.37860112232764" lon="12.373296228432439"><ele>355.0</ele><time>2026-04-29T12:44:16Z</time></trkpt><trkpt lat="43.37842298645964" lon="12.373148738154491"><ele>357.66666666666663</ele><time>2026-04-29T12:44:17Z</time></trkpt><trkpt lat="43.37826142375687" lon="12.372999322862793"><ele>360.3333333333333</ele><time>2026-04-29T12:44:18Z</time></trkpt><trkpt lat="43.3781304809896" lon="12.372852544058581"><ele>363.0</ele><time>2026-04-29T12:44:19Z</time></trkpt><trkpt lat="43.37804448566208" lon="12.372684869249461"><ele>363.0</ele><time>2026-04-29T12:44:20Z</time></trkpt><trkpt lat="43.37802268206236" lon="12.372497361901422"><ele>363.0</ele><time>2026-04-29T12:44:21.001Z</time></trkpt><trkpt lat="43.37806386391917" lon="12.372303932950365"><ele>363.0</ele><time>2026-04-29T12:44:22.001Z</time></trkpt><trkpt lat="43.378135147946104" lon="12.372085340444567"><ele>362.3333333333333</ele><time>2026-04-29T12:44:23.001Z</time></trkpt><trkpt lat="43.37820129289929" lon="12.371830566602624"><ele>361.66666666666663</ele><time>2026-04-29T12:44:24.001Z</time></trkpt><trkpt lat="43.37826526532462" lon="12.371542375732231"><ele>361.0</ele><time>2026-04-29T12:44:25.001Z</time></trkpt><trkpt lat="43.378331095703864" lon="12.371231203731215"><ele>355.5</ele><time>2026-04-29T12:44:26.001Z</time></trkpt><trkpt lat="43.37840128085366" lon="12.370904747211865"><ele>350.0</ele><time>2026-04-29T12:44:27.001Z</time></trkpt><trkpt lat="43.378476096839144" lon="12.370578316878591"><ele>346.5</ele><time>2026-04-29T12:44:28.001Z</time></trkpt><trkpt lat="43.378555407200146" lon="12.370249548699395"><ele>343.0</ele><time>2026-04-29T12:44:29.001Z</time></trkpt><trkpt lat="43.37863809129308" lon="12.3699095303795"><ele>343.0</ele><time>2026-04-29T12:44:30.001Z</time></trkpt><trkpt lat="43.378718182210115" lon="12.369572631116013"><ele>343.0</ele><time>2026-04-29T12:44:31.001Z</time></trkpt><trkpt lat="43.37879345650671" lon="12.369230809909688"><ele>343.0</ele><time>2026-04-29T12:44:32.001Z</time></trkpt><trkpt lat="43.37884529711068" lon="12.368884921228709"><ele>343.0</ele><time>2026-04-29T12:44:33.001Z</time></trkpt><trkpt lat="43.37887457599229" lon="12.36853848165251"><ele>347.5</ele><time>2026-04-29T12:44:34.001Z</time></trkpt><trkpt lat="43.37889416853687" lon="12.368192532446596"><ele>352.0</ele><time>2026-04-29T12:44:35.001Z</time></trkpt><trkpt lat="43.37892033237051" lon="12.367852104275928"><ele>352.0</ele><time>2026-04-29T12:44:36.001Z</time></trkpt><trkpt lat="43.37895359188861" lon="12.367519276475399"><ele>352.0</ele><time>2026-04-29T12:44:37.001Z</time></trkpt><trkpt lat="43.37898950832291" lon="12.367187111649214"><ele>352.0</ele><time>2026-04-29T12:44:38.001Z</time></trkpt><trkpt lat="43.379027941226155" lon="12.366864619765114"><ele>352.0</ele><time>2026-04-29T12:44:39.001Z</time></trkpt><trkpt lat="43.37906571521715" lon="12.36655099024178"><ele>351.0</ele><time>2026-04-29T12:44:40.001Z</time></trkpt><trkpt lat="43.379118517212454" lon="12.366277211189331"><ele>350.0</ele><time>2026-04-29T12:44:41.001Z</time></trkpt><trkpt lat="43.37920354519912" lon="12.3660576185293"><ele>349.0</ele><time>2026-04-29T12:44:42.001Z</time></trkpt><trkpt lat="43.37928505142124" lon="12.365870649726268"><ele>349.0</ele><time>2026-04-29T12:44:43.001Z</time></trkpt><trkpt lat="43.37931863882365" lon="12.36568027003298"><ele>349.0</ele><time>2026-04-29T12:44:44.001Z</time></trkpt><trkpt lat="43.37929970988177" lon="12.365455619115544"><ele>349.0</ele><time>2026-04-29T12:44:45.001Z</time></trkpt><trkpt lat="43.37921831485571" lon="12.365202137970082"><ele>350.66666666666663</ele><time>2026-04-29T12:44:46.001Z</time></trkpt><trkpt lat="43.379119650360884" lon="12.364935211547401"><ele>352.3333333333333</ele><time>2026-04-29T12:44:47.001Z</time></trkpt><trkpt lat="43.37902753541936" lon="12.364649200228959"><ele>354.0</ele><time>2026-04-29T12:44:48.001Z</time></trkpt><trkpt lat="43.378947909994146" lon="12.36434623637471"><ele>352.6666666666667</ele><time>2026-04-29T12:44:49.001Z</time></trkpt><trkpt lat="43.37887385071076" lon="12.364057765188624"><ele>351.33333333333337</ele><time>2026-04-29T12:44:50.001Z</time></trkpt><trkpt lat="43.378792674587" lon="12.363795664188519"><ele>350.0</ele><time>2026-04-29T12:44:51.001Z</time></trkpt><trkpt lat="43.3786793426877" lon="12.36355063832739"><ele>350.0</ele><time>2026-04-29T12:44:52.001Z</time></trkpt><trkpt lat="43.37852750884643" lon="12.363315170135635"><ele>350.0</ele><time>2026-04-29T12:44:53.001Z</time></trkpt><trkpt lat="43.378362191563824" lon="12.36307157525275"><ele>364.0</ele><time>2026-04-29T12:44:54.001Z</time></trkpt><trkpt lat="43.37820835820772" lon="12.362821608614942"><ele>378.0</ele><time>2026-04-29T12:44:55.001Z</time></trkpt><trkpt lat="43.3780517409413" lon="12.362601651940826"><ele>364.0</ele><time>2026-04-29T12:44:56.001Z</time></trkpt><trkpt lat="43.37786968300433" lon="12.362413902450912"><ele>350.0</ele><time>2026-04-29T12:44:57.001Z</time></trkpt><trkpt lat="43.37766355159987" lon="12.362239218971895"><ele>367.5</ele><time>2026-04-29T12:44:58.001Z</time></trkpt><trkpt lat="43.37745653548039" lon="12.362071578288814"><ele>385.0</ele><time>2026-04-29T12:44:59.001Z</time></trkpt><trkpt lat="43.37728033675582" lon="12.36191108018338"><ele>374.6666666666667</ele><time>2026-04-29T12:45:00.001Z</time></trkpt><trkpt lat="43.37712439455916" lon="12.361785733972692"><ele>364.33333333333337</ele><time>2026-04-29T12:45:01.001Z</time></trkpt><trkpt lat="43.37696363173506" lon="12.361701735762223"><ele>354.0</ele><time>2026-04-29T12:45:02.001Z</time></trkpt><trkpt lat="43.37680627741417" lon="12.361663653764799"><ele>354.0</ele><time>2026-04-29T12:45:03.001Z</time></trkpt><trkpt lat="43.376664035117315" lon="12.361611950904779"><ele>354.0</ele><time>2026-04-29T12:45:04.001Z</time></trkpt><trkpt lat="43.37654704062459" lon="12.361488173273887"><ele>354.0</ele><time>2026-04-29T12:45:05.001Z</time></trkpt><trkpt lat="43.37643502488717" lon="12.36129308772279"><ele>350.6666666666667</ele><time>2026-04-29T12:45:06.001Z</time></trkpt><trkpt lat="43.376338475167174" lon="12.361068722213924"><ele>347.33333333333337</ele><time>2026-04-29T12:45:07.001Z</time></trkpt><trkpt lat="43.37628837728512" lon="12.360837678413382"><ele>344.0</ele><time>2026-04-29T12:45:08.001Z</time></trkpt><trkpt lat="43.376270066182954" lon="12.360571662119765"><ele>348.0</ele><time>2026-04-29T12:45:09.001Z</time></trkpt><trkpt lat="43.37623004052094" lon="12.360277891948643"><ele>352.0</ele><time>2026-04-29T12:45:10.001Z</time></trkpt><trkpt lat="43.37614638365641" lon="12.359980958950718"><ele>356.0</ele><time>2026-04-29T12:45:11.001Z</time></trkpt><trkpt lat="43.37604212663296" lon="12.359675986501978"><ele>363.0</ele><time>2026-04-29T12:45:12.001Z</time></trkpt><trkpt lat="43.37591622883575" lon="12.35936657716328"><ele>370.0</ele><time>2026-04-29T12:45:13.001Z</time></trkpt><trkpt lat="43.37577228538205" lon="12.359058506366791"><ele>363.5</ele><time>2026-04-29T12:45:14.001Z</time></trkpt><trkpt lat="43.37561772894421" lon="12.358773797538152"><ele>357.0</ele><time>2026-04-29T12:45:15.001Z</time></trkpt><trkpt lat="43.375469099496335" lon="12.35850205842976"><ele>357.0</ele><time>2026-04-29T12:45:16.001Z</time></trkpt><trkpt lat="43.37532314826158" lon="12.358260557609654"><ele>357.0</ele><time>2026-04-29T12:45:17.001Z</time></trkpt><trkpt lat="43.375164309993025" lon="12.358060627372161"><ele>357.0</ele><time>2026-04-29T12:45:18.001Z</time></trkpt><trkpt lat="43.37499239051628" lon="12.35791194682523"><ele>360.5</ele><time>2026-04-29T12:45:19.001Z</time></trkpt><trkpt lat="43.374828879121345" lon="12.357813214759654"><ele>364.0</ele><time>2026-04-29T12:45:20.001Z</time></trkpt><trkpt lat="43.37471918674901" lon="12.357721715295783"><ele>367.5</ele><time>2026-04-29T12:45:21.001Z</time></trkpt><trkpt lat="43.37467609403533" lon="12.357594137679495"><ele>371.0</ele><time>2026-04-29T12:45:22.001Z</time></trkpt><trkpt lat="43.374693541044834" lon="12.357431426742599"><ele>371.0</ele><time>2026-04-29T12:45:23.001Z</time></trkpt><trkpt lat="43.37476308092632" lon="12.357269703478263"><ele>371.0</ele><time>2026-04-29T12:45:24.001Z</time></trkpt><trkpt lat="43.374903242832396" lon="12.357140685870737"><ele>371.0</ele><time>2026-04-29T12:45:24.999Z</time></trkpt><trkpt lat="43.375067443633796" lon="12.357024290670493"><ele>366.6666666666667</ele><time>2026-04-29T12:45:25.999Z</time></trkpt><trkpt lat="43.375242109332014" lon="12.356871113879853"><ele>362.3333333333333</ele><time>2026-04-29T12:45:26.999Z</time></trkpt><trkpt lat="43.37540545902399" lon="12.356668454390444"><ele>358.0</ele><time>2026-04-29T12:45:27.999Z</time></trkpt><trkpt lat="43.37555779725137" lon="12.356438896659075"><ele>362.0</ele><time>2026-04-29T12:45:28.999Z</time></trkpt><trkpt lat="43.37569195897277" lon="12.35618479420588"><ele>366.0</ele><time>2026-04-29T12:45:29.999Z</time></trkpt><trkpt lat="43.37581984109066" lon="12.3559376702371"><ele>370.0</ele><time>2026-04-29T12:45:30.999Z</time></trkpt><trkpt lat="43.37593769788006" lon="12.355707382206385"><ele>369.3333333333333</ele><time>2026-04-29T12:45:31.999Z</time></trkpt><trkpt lat="43.376036379786164" lon="12.355505992104435"><ele>368.6666666666667</ele><time>2026-04-29T12:45:32.999Z</time></trkpt><trkpt lat="43.376120342724924" lon="12.355328045474641"><ele>368.0</ele><time>2026-04-29T12:45:33.999Z</time></trkpt><trkpt lat="43.37618879878721" lon="12.355154483119442"><ele>368.0</ele><time>2026-04-29T12:45:34.999Z</time></trkpt><trkpt lat="43.3762352966112" lon="12.35498771452344"><ele>368.0</ele><time>2026-04-29T12:45:35.999Z</time></trkpt><trkpt lat="43.376259798347334" lon="12.354832004071621"><ele>368.0</ele><time>2026-04-29T12:45:36.999Z</time></trkpt><trkpt lat="43.376237180110174" lon="12.354695590677995"><ele>368.0</ele><time>2026-04-29T12:45:37.999Z</time></trkpt><trkpt lat="43.37617003051658" lon="12.354591936573879"><ele>368.0</ele><time>2026-04-29T12:45:38.999Z</time></trkpt><trkpt lat="43.37606937364651" lon="12.354541887362961"><ele>373.25</ele><time>2026-04-29T12:45:39.999Z</time></trkpt><trkpt lat="43.3759551387979" lon="12.3545547101629"><ele>378.5</ele><time>2026-04-29T12:45:40.999Z</time></trkpt><trkpt lat="43.37583850202198" lon="12.354583172563123"><ele>383.75</ele><time>2026-04-29T12:45:41.999Z</time></trkpt><trkpt lat="43.375724256548594" lon="12.354574314815647"><ele>389.0</ele><time>2026-04-29T12:45:42.999Z</time></trkpt><trkpt lat="43.375618472770235" lon="12.354519651277284"><ele>383.2</ele><time>2026-04-29T12:45:43.999Z</time></trkpt><trkpt lat="43.37551464567088" lon="12.354441450251466"><ele>377.4</ele><time>2026-04-29T12:45:45Z</time></trkpt><trkpt lat="43.375426125458254" lon="12.354343332152041"><ele>371.6</ele><time>2026-04-29T12:45:46Z</time></trkpt><trkpt lat="43.375362015581054" lon="12.354223112063117"><ele>365.8</ele><time>2026-04-29T12:45:47Z</time></trkpt><trkpt lat="43.3753202015005" lon="12.354100425114929"><ele>360.0</ele><time>2026-04-29T12:45:48Z</time></trkpt><trkpt lat="43.37529677173862" lon="12.353970500663591"><ele>366.8</ele><time>2026-04-29T12:45:49Z</time></trkpt><trkpt lat="43.37524429510106" lon="12.353865264313637"><ele>373.6</ele><time>2026-04-29T12:45:50Z</time></trkpt><trkpt lat="43.375141344440166" lon="12.353800150370718"><ele>380.4</ele><time>2026-04-29T12:45:51Z</time></trkpt><trkpt lat="43.37502992286956" lon="12.353760318742847"><ele>387.2</ele><time>2026-04-29T12:45:52Z</time></trkpt><trkpt lat="43.37490811206661" lon="12.353725194306708"><ele>394.0</ele><time>2026-04-29T12:45:53Z</time></trkpt><trkpt lat="43.37479148936057" lon="12.353652145249429"><ele>379.6666666666667</ele><time>2026-04-29T12:45:54Z</time></trkpt><trkpt lat="43.37467363013853" lon="12.353536965093872"><ele>365.33333333333337</ele><time>2026-04-29T12:45:55Z</time></trkpt><trkpt lat="43.374549490079524" lon="12.353384866241019"><ele>351.0</ele><time>2026-04-29T12:45:56Z</time></trkpt><trkpt lat="43.37441859257144" lon="12.353228170279817"><ele>351.0</ele><time>2026-04-29T12:45:57Z</time></trkpt><trkpt lat="43.37427199019083" lon="12.353041339387177"><ele>351.0</ele><time>2026-04-29T12:45:58Z</time></trkpt><trkpt lat="43.374136593878795" lon="12.352838680817767"><ele>351.0</ele><time>2026-04-29T12:45:59Z</time></trkpt><trkpt lat="43.37401108619999" lon="12.352640903429867"><ele>350.6666666666667</ele><time>2026-04-29T12:46:00Z</time></trkpt><trkpt lat="43.373891529968276" lon="12.352428997227133"><ele>350.33333333333337</ele><time>2026-04-29T12:46:01Z</time></trkpt><trkpt lat="43.37381285036161" lon="12.35220530620455"><ele>350.0</ele><time>2026-04-29T12:46:02Z</time></trkpt><trkpt lat="43.37372720596148" lon="12.352000952636523"><ele>350.0</ele><time>2026-04-29T12:46:03Z</time></trkpt><trkpt lat="43.373578736051556" lon="12.351853310700445"><ele>350.0</ele><time>2026-04-29T12:46:04Z</time></trkpt><trkpt lat="43.3733836297718" lon="12.351696660598824"><ele>350.0</ele><time>2026-04-29T12:46:05Z</time></trkpt><trkpt lat="43.3731998186521" lon="12.351493085755914"><ele>352.33333333333337</ele><time>2026-04-29T12:46:06Z</time></trkpt><trkpt lat="43.373078512527826" lon="12.35130981500293"><ele>354.6666666666667</ele><time>2026-04-29T12:46:07Z</time></trkpt><trkpt lat="43.3729899919327" lon="12.351142660902727"><ele>357.0</ele><time>2026-04-29T12:46:08Z</time></trkpt><trkpt lat="43.372929054371895" lon="12.350970896953434"><ele>347.6666666666667</ele><time>2026-04-29T12:46:09Z</time></trkpt><trkpt lat="43.37291334461569" lon="12.350774206632334"><ele>338.33333333333337</ele><time>2026-04-29T12:46:10Z</time></trkpt><trkpt lat="43.37293055241255" lon="12.350563409144055"><ele>329.0</ele><time>2026-04-29T12:46:11Z</time></trkpt><trkpt lat="43.37299098161839" lon="12.350314680667228"><ele>327.6666666666667</ele><time>2026-04-29T12:46:12Z</time></trkpt><trkpt lat="43.37303208583979" lon="12.350036626158188"><ele>326.3333333333333</ele><time>2026-04-29T12:46:13Z</time></trkpt><trkpt lat="43.37302341336409" lon="12.34971756235008"><ele>325.0</ele><time>2026-04-29T12:46:14Z</time></trkpt><trkpt lat="43.37298314244912" lon="12.349387615195514"><ele>325.0</ele><time>2026-04-29T12:46:15Z</time></trkpt><trkpt lat="43.37292117941311" lon="12.349047007426671"><ele>325.0</ele><time>2026-04-29T12:46:16Z</time></trkpt><trkpt lat="43.3728602913449" lon="12.34868707905001"><ele>325.0</ele><time>2026-04-29T12:46:17Z</time></trkpt><trkpt lat="43.37279931996911" lon="12.34832221771928"><ele>325.0</ele><time>2026-04-29T12:46:18Z</time></trkpt><trkpt lat="43.37273795934366" lon="12.347962055266649"><ele>325.0</ele><time>2026-04-29T12:46:19Z</time></trkpt><trkpt lat="43.37268392135028" lon="12.34763396851693"><ele>325.0</ele><time>2026-04-29T12:46:20Z</time></trkpt><trkpt lat="43.3726326989492" lon="12.347340244486091"><ele>327.3333333333333</ele><time>2026-04-29T12:46:21Z</time></trkpt><trkpt lat="43.37256734130465" lon="12.34708700997893"><ele>329.6666666666667</ele><time>2026-04-29T12:46:22Z</time></trkpt><trkpt lat="43.3724681266611" lon="12.346872915872556"><ele>332.0</ele><time>2026-04-29T12:46:23Z</time></trkpt><trkpt lat="43.372334029912935" lon="12.346685014984436"><ele>332.0</ele><time>2026-04-29T12:46:24Z</time></trkpt><trkpt lat="43.372191655035614" lon="12.346555266110835"><ele>332.0</ele><time>2026-04-29T12:46:25Z</time></trkpt><trkpt lat="43.37204855665464" lon="12.34650371772303"><ele>332.0</ele><time>2026-04-29T12:46:26Z</time></trkpt><trkpt lat="43.37190304473471" lon="12.346552266306418"><ele>331.0</ele><time>2026-04-29T12:46:27Z</time></trkpt><trkpt lat="43.371760247141125" lon="12.346545108949877"><ele>330.0</ele><time>2026-04-29T12:46:28Z</time></trkpt><trkpt lat="43.37162410934578" lon="12.346454166107927"><ele>329.0</ele><time>2026-04-29T12:46:29Z</time></trkpt><trkpt lat="43.37148383763195" lon="12.346312783592126"><ele>324.0</ele><time>2026-04-29T12:46:30Z</time></trkpt><trkpt lat="43.37133867851024" lon="12.346140233299183"><ele>319.0</ele><time>2026-04-29T12:46:31Z</time></trkpt><trkpt lat="43.37121232900182" lon="12.345918249227857"><ele>314.0</ele><time>2026-04-29T12:46:32Z</time></trkpt><trkpt lat="43.371127461982674" lon="12.345690074193175"><ele>313.6666666666667</ele><time>2026-04-29T12:46:33Z</time></trkpt><trkpt lat="43.37108180462046" lon="12.345440548389291"><ele>313.3333333333333</ele><time>2026-04-29T12:46:34Z</time></trkpt><trkpt lat="43.371081609688325" lon="12.345150910603104"><ele>313.0</ele><time>2026-04-29T12:46:35Z</time></trkpt><trkpt lat="43.37108963419985" lon="12.34488102630644"><ele>312.66666666666663</ele><time>2026-04-29T12:46:36Z</time></trkpt><trkpt lat="43.37107776841416" lon="12.34466413362129"><ele>312.3333333333333</ele><time>2026-04-29T12:46:37Z</time></trkpt><trkpt lat="43.3710107904362" lon="12.34448583980818"><ele>312.0</ele><time>2026-04-29T12:46:38Z</time></trkpt><trkpt lat="43.3708883135338" lon="12.344328278877114"><ele>312.0</ele><time>2026-04-29T12:46:39Z</time></trkpt><trkpt lat="43.37072718020709" lon="12.344189841537476"><ele>312.0</ele><time>2026-04-29T12:46:40Z</time></trkpt><trkpt lat="43.370536136754914" lon="12.344046228723645"><ele>312.0</ele><time>2026-04-29T12:46:41Z</time></trkpt><trkpt lat="43.370367851743815" lon="12.343935732579586"><ele>310.5</ele><time>2026-04-29T12:46:42Z</time></trkpt><trkpt lat="43.37021453830427" lon="12.343836642485979"><ele>309.0</ele><time>2026-04-29T12:46:43Z</time></trkpt><trkpt lat="43.37007883577488" lon="12.343739357594606"><ele>307.5</ele><time>2026-04-29T12:46:44Z</time></trkpt><trkpt lat="43.369991190220226" lon="12.343659970607042"><ele>306.0</ele><time>2026-04-29T12:46:45Z</time></trkpt><trkpt lat="43.36994229116503" lon="12.343569185312449"><ele>306.0</ele><time>2026-04-29T12:46:46.001Z</time></trkpt><trkpt lat="43.36993153264166" lon="12.343460177786875"><ele>306.0</ele><time>2026-04-29T12:46:47.001Z</time></trkpt><trkpt lat="43.36996070382941" lon="12.343320317348919"><ele>306.0</ele><time>2026-04-29T12:46:48.001Z</time></trkpt><trkpt lat="43.37001625994765" lon="12.343156935778135"><ele>306.0</ele><time>2026-04-29T12:46:49.001Z</time></trkpt><trkpt lat="43.370087015806114" lon="12.342975846731122"><ele>304.6666666666667</ele><time>2026-04-29T12:46:50.001Z</time></trkpt><trkpt lat="43.370163812930386" lon="12.342771117892735"><ele>303.33333333333337</ele><time>2026-04-29T12:46:51.001Z</time></trkpt><trkpt lat="43.3702491575063" lon="12.34255550464583"><ele>302.0</ele><time>2026-04-29T12:46:52.001Z</time></trkpt><trkpt lat="43.370337683434244" lon="12.342329127759971"><ele>302.0</ele><time>2026-04-29T12:46:53.001Z</time></trkpt><trkpt lat="43.37042967560618" lon="12.34208504614978"><ele>302.0</ele><time>2026-04-29T12:46:54.001Z</time></trkpt><trkpt lat="43.37052323742362" lon="12.341832840737457"><ele>302.0</ele><time>2026-04-29T12:46:55.001Z</time></trkpt><trkpt lat="43.370616443924035" lon="12.341582451815528"><ele>302.0</ele><time>2026-04-29T12:46:56.001Z</time></trkpt><trkpt lat="43.37070924369015" lon="12.34133256007152"><ele>302.0</ele><time>2026-04-29T12:46:57.001Z</time></trkpt><trkpt lat="43.37080247563901" lon="12.341084259298293"><ele>302.0</ele><time>2026-04-29T12:46:58.001Z</time></trkpt><trkpt lat="43.370889567114446" lon="12.34085472785051"><ele>302.0</ele><time>2026-04-29T12:46:59.001Z</time></trkpt><trkpt lat="43.370967372111714" lon="12.340655507359429"><ele>302.0</ele><time>2026-04-29T12:47:00.001Z</time></trkpt><trkpt lat="43.371027038825495" lon="12.340482030394128"><ele>302.0</ele><time>2026-04-29T12:47:01.001Z</time></trkpt><trkpt lat="43.37106359222325" lon="12.340326128576399"><ele>302.0</ele><time>2026-04-29T12:47:02.001Z</time></trkpt><trkpt lat="43.37105957872207" lon="12.34017086828666"><ele>303.75</ele><time>2026-04-29T12:47:03.001Z</time></trkpt><trkpt lat="43.37100770004646" lon="12.340028516060444"><ele>305.5</ele><time>2026-04-29T12:47:04.001Z</time></trkpt><trkpt lat="43.370911894657574" lon="12.339899318841582"><ele>307.25</ele><time>2026-04-29T12:47:05.001Z</time></trkpt><trkpt lat="43.37078862314465" lon="12.339757688905532"><ele>309.0</ele><time>2026-04-29T12:47:06.001Z</time></trkpt><trkpt lat="43.370657477056724" lon="12.339596994651249"><ele>307.3333333333333</ele><time>2026-04-29T12:47:07.001Z</time></trkpt><trkpt lat="43.37052407444556" lon="12.339417891664665"><ele>305.66666666666663</ele><time>2026-04-29T12:47:08.001Z</time></trkpt><trkpt lat="43.3703825857318" lon="12.339225670509446"><ele>304.0</ele><time>2026-04-29T12:47:09.001Z</time></trkpt><trkpt lat="43.370232907891776" lon="12.339021028886192"><ele>308.3333333333333</ele><time>2026-04-29T12:47:10.001Z</time></trkpt><trkpt lat="43.37008294517641" lon="12.338809375544166"><ele>312.6666666666667</ele><time>2026-04-29T12:47:11.001Z</time></trkpt><trkpt lat="43.36993650148439" lon="12.338584066793926"><ele>317.0</ele><time>2026-04-29T12:47:12.001Z</time></trkpt><trkpt lat="43.369798450352505" lon="12.338348604419245"><ele>314.33333333333337</ele><time>2026-04-29T12:47:13.001Z</time></trkpt><trkpt lat="43.36968255201213" lon="12.338139432794431"><ele>311.6666666666667</ele><time>2026-04-29T12:47:14.001Z</time></trkpt><trkpt lat="43.369591276836545" lon="12.337942385225519"><ele>309.0</ele><time>2026-04-29T12:47:15.001Z</time></trkpt><trkpt lat="43.36954434865324" lon="12.33773043281428"><ele>309.0</ele><time>2026-04-29T12:47:16.001Z</time></trkpt><trkpt lat="43.36951973205882" lon="12.337514943143757"><ele>309.0</ele><time>2026-04-29T12:47:17.001Z</time></trkpt><trkpt lat="43.36946693752305" lon="12.33730703535292"><ele>309.0</ele><time>2026-04-29T12:47:18.001Z</time></trkpt><trkpt lat="43.3693640408806" lon="12.337116289355045"><ele>316.0</ele><time>2026-04-29T12:47:19.001Z</time></trkpt><trkpt lat="43.36922517822848" lon="12.336952980571395"><ele>323.0</ele><time>2026-04-29T12:47:20.001Z</time></trkpt><trkpt lat="43.3690600011177" lon="12.33679754771313"><ele>330.0</ele><time>2026-04-29T12:47:21.001Z</time></trkpt><trkpt lat="43.3688951691948" lon="12.336651939848071"><ele>327.3333333333333</ele><time>2026-04-29T12:47:22.001Z</time></trkpt><trkpt lat="43.368752441204705" lon="12.336513679101806"><ele>324.66666666666663</ele><time>2026-04-29T12:47:23.001Z</time></trkpt><trkpt lat="43.368637653368424" lon="12.336348770081061"><ele>322.0</ele><time>2026-04-29T12:47:24.001Z</time></trkpt><trkpt lat="43.36854382060808" lon="12.336151405373156"><ele>322.0</ele><time>2026-04-29T12:47:25.001Z</time></trkpt><trkpt lat="43.36844571424043" lon="12.335953017608817"><ele>322.0</ele><time>2026-04-29T12:47:26.001Z</time></trkpt><trkpt lat="43.36832816842423" lon="12.335752245268896"><ele>322.0</ele><time>2026-04-29T12:47:27.001Z</time></trkpt><trkpt lat="43.36821921380389" lon="12.33553767970153"><ele>327.66666666666663</ele><time>2026-04-29T12:47:28.001Z</time></trkpt><trkpt lat="43.36811541856361" lon="12.335301840795058"><ele>333.3333333333333</ele><time>2026-04-29T12:47:29.001Z</time></trkpt><trkpt lat="43.36802245912779" lon="12.335087111789838"><ele>339.0</ele><time>2026-04-29T12:47:30.001Z</time></trkpt><trkpt lat="43.36794414195503" lon="12.33490926183742"><ele>339.79999999999995</ele><time>2026-04-29T12:47:30.999Z</time></trkpt><trkpt lat="43.36789144593717" lon="12.334744448016473"><ele>340.59999999999997</ele><time>2026-04-29T12:47:31.999Z</time></trkpt><trkpt lat="43.36788446613183" lon="12.334602988240142"><ele>341.4</ele><time>2026-04-29T12:47:32.999Z</time></trkpt><trkpt lat="43.36793549737823" lon="12.334511663377603"><ele>342.2</ele><time>2026-04-29T12:47:33.999Z</time></trkpt><trkpt lat="43.36801975330067" lon="12.334419066671316"><ele>343.0</ele><time>2026-04-29T12:47:34.999Z</time></trkpt><trkpt lat="43.3680990629162" lon="12.3342699441475"><ele>343.0</ele><time>2026-04-29T12:47:35.999Z</time></trkpt><trkpt lat="43.36815287229238" lon="12.33406869786928"><ele>343.0</ele><time>2026-04-29T12:47:36.999Z</time></trkpt><trkpt lat="43.368189372857195" lon="12.3338306008112"><ele>343.0</ele><time>2026-04-29T12:47:37.999Z</time></trkpt><trkpt lat="43.368220764989815" lon="12.333577655519852"><ele>342.25</ele><time>2026-04-29T12:47:38.999Z</time></trkpt><trkpt lat="43.36826812877677" lon="12.333365270936634"><ele>341.5</ele><time>2026-04-29T12:47:39.999Z</time></trkpt><trkpt lat="43.36833595927781" lon="12.333217222115525"><ele>340.75</ele><time>2026-04-29T12:47:40.999Z</time></trkpt><trkpt lat="43.36842980034749" lon="12.33312557151497"><ele>340.0</ele><time>2026-04-29T12:47:41.999Z</time></trkpt><trkpt lat="43.36851145513511" lon="12.333045826631677"><ele>342.2</ele><time>2026-04-29T12:47:42.999Z</time></trkpt><trkpt lat="43.36853938737666" lon="12.33292876175277"><ele>344.4</ele><time>2026-04-29T12:47:43.999Z</time></trkpt><trkpt lat="43.36853043122538" lon="12.332771591999663"><ele>346.6</ele><time>2026-04-29T12:47:44.999Z</time></trkpt><trkpt lat="43.368492987295355" lon="12.33262482960774"><ele>348.8</ele><time>2026-04-29T12:47:45.999Z</time></trkpt><trkpt lat="43.3684403564624" lon="12.332529907798651"><ele>351.0</ele><time>2026-04-29T12:47:46.999Z</time></trkpt><trkpt lat="43.36834035281856" lon="12.332492750533499"><ele>351.0</ele><time>2026-04-29T12:47:47.999Z</time></trkpt><trkpt lat="43.36821936640424" lon="12.33248732392493"><ele>351.0</ele><time>2026-04-29T12:47:48.999Z</time></trkpt><trkpt lat="43.36808460992294" lon="12.332477910115879"><ele>351.0</ele><time>2026-04-29T12:47:49.999Z</time></trkpt><trkpt lat="43.36793907114886" lon="12.332478707695985"><ele>351.0</ele><time>2026-04-29T12:47:50.999Z</time></trkpt><trkpt lat="43.367793282388355" lon="12.332474277856827"><ele>349.25</ele><time>2026-04-29T12:47:51.999Z</time></trkpt><trkpt lat="43.36766836653474" lon="12.332431934332945"><ele>347.5</ele><time>2026-04-29T12:47:53Z</time></trkpt><trkpt lat="43.36755901493653" lon="12.332324034678471"><ele>345.75</ele><time>2026-04-29T12:47:54Z</time></trkpt><trkpt lat="43.367473199816324" lon="12.332178225147084"><ele>344.0</ele><time>2026-04-29T12:47:55Z</time></trkpt><trkpt lat="43.36739012180543" lon="12.332009923860083"><ele>345.33333333333337</ele><time>2026-04-29T12:47:56Z</time></trkpt><trkpt lat="43.367291735261986" lon="12.331851773856352"><ele>346.6666666666667</ele><time>2026-04-29T12:47:57Z</time></trkpt><trkpt lat="43.3671686488213" lon="12.331707458230813"><ele>348.0</ele><time>2026-04-29T12:47:58Z</time></trkpt><trkpt lat="43.36702540124901" lon="12.331574804099146"><ele>348.0</ele><time>2026-04-29T12:47:59Z</time></trkpt><trkpt lat="43.366889352436324" lon="12.331417225911478"><ele>348.0</ele><time>2026-04-29T12:48:00Z</time></trkpt><trkpt lat="43.36676026762003" lon="12.331236658592607"><ele>348.0</ele><time>2026-04-29T12:48:01Z</time></trkpt><trkpt lat="43.36662180119291" lon="12.331057650043181"><ele>350.3333333333333</ele><time>2026-04-29T12:48:02Z</time></trkpt><trkpt lat="43.36647409846016" lon="12.330903057775087"><ele>352.66666666666663</ele><time>2026-04-29T12:48:03Z</time></trkpt><trkpt lat="43.36633110736197" lon="12.330780675047212"><ele>355.0</ele><time>2026-04-29T12:48:04Z</time></trkpt><trkpt lat="43.366184379934886" lon="12.330686216881126"><ele>355.0</ele><time>2026-04-29T12:48:05Z</time></trkpt><trkpt lat="43.36602222453234" lon="12.330613031434721"><ele>355.0</ele><time>2026-04-29T12:48:06Z</time></trkpt><trkpt lat="43.365845867819985" lon="12.33056898103938"><ele>355.0</ele><time>2026-04-29T12:48:07Z</time></trkpt><trkpt lat="43.365661746826504" lon="12.33052658782811"><ele>364.3333333333333</ele><time>2026-04-29T12:48:08Z</time></trkpt><trkpt lat="43.36547160902866" lon="12.3304705053156"><ele>373.6666666666667</ele><time>2026-04-29T12:48:09Z</time></trkpt><trkpt lat="43.36527828354226" lon="12.330403746512026"><ele>383.0</ele><time>2026-04-29T12:48:10Z</time></trkpt><trkpt lat="43.36508204769272" lon="12.330332434534908"><ele>383.0</ele><time>2026-04-29T12:48:11Z</time></trkpt><trkpt lat="43.36488178769386" lon="12.330261373599411"><ele>383.0</ele><time>2026-04-29T12:48:12Z</time></trkpt><trkpt lat="43.36467811438081" lon="12.330196834987657"><ele>383.0</ele><time>2026-04-29T12:48:13Z</time></trkpt><trkpt lat="43.364474520867084" lon="12.330135745561902"><ele>382.0</ele><time>2026-04-29T12:48:14Z</time></trkpt><trkpt lat="43.36428644358223" lon="12.330061138006524"><ele>381.0</ele><time>2026-04-29T12:48:15Z</time></trkpt><trkpt lat="43.36411459370902" lon="12.329953101123639"><ele>380.0</ele><time>2026-04-29T12:48:16Z</time></trkpt><trkpt lat="43.363945913246134" lon="12.329859502737014"><ele>379.6666666666667</ele><time>2026-04-29T12:48:17Z</time></trkpt><trkpt lat="43.3637576232973" lon="12.329788653656767"><ele>379.3333333333333</ele><time>2026-04-29T12:48:18Z</time></trkpt><trkpt lat="43.363580989687286" lon="12.329780161611053"><ele>379.0</ele><time>2026-04-29T12:48:19Z</time></trkpt><trkpt lat="43.363415750676246" lon="12.329735987926872"><ele>385.0</ele><time>2026-04-29T12:48:20Z</time></trkpt><trkpt lat="43.36325074180437" lon="12.32966117298724"><ele>391.0</ele><time>2026-04-29T12:48:21Z</time></trkpt><trkpt lat="43.363095673597606" lon="12.329594694169126"><ele>397.0</ele><time>2026-04-29T12:48:22Z</time></trkpt><trkpt lat="43.362945340802554" lon="12.329579430544248"><ele>401.0</ele><time>2026-04-29T12:48:23Z</time></trkpt><trkpt lat="43.36278143378512" lon="12.329615652484238"><ele>405.0</ele><time>2026-04-29T12:48:24Z</time></trkpt><trkpt lat="43.36261332398037" lon="12.329694930561708"><ele>409.0</ele><time>2026-04-29T12:48:25Z</time></trkpt><trkpt lat="43.36246439980287" lon="12.32974709385689"><ele>409.0</ele><time>2026-04-29T12:48:26Z</time></trkpt><trkpt lat="43.36235764954532" lon="12.329808789581715"><ele>409.0</ele><time>2026-04-29T12:48:27Z</time></trkpt><trkpt lat="43.36227335415525" lon="12.329789732406587"><ele>409.0</ele><time>2026-04-29T12:48:28Z</time></trkpt><trkpt lat="43.36222337017301" lon="12.329702905098676"><ele>409.0</ele><time>2026-04-29T12:48:29Z</time></trkpt><trkpt lat="43.36221814947744" lon="12.329571889563853"><ele>409.0</ele><time>2026-04-29T12:48:30Z</time></trkpt><trkpt lat="43.36225865521149" lon="12.329432889767915"><ele>409.0</ele><time>2026-04-29T12:48:31Z</time></trkpt><trkpt lat="43.36235617700744" lon="12.329347693030448"><ele>409.0</ele><time>2026-04-29T12:48:32Z</time></trkpt><trkpt lat="43.36248597601654" lon="12.329261172911197"><ele>409.0</ele><time>2026-04-29T12:48:33Z</time></trkpt><trkpt lat="43.362636464966876" lon="12.329178756178838"><ele>409.0</ele><time>2026-04-29T12:48:34Z</time></trkpt><trkpt lat="43.3628033339658" lon="12.329087588612712"><ele>409.0</ele><time>2026-04-29T12:48:35Z</time></trkpt><trkpt lat="43.3629755244853" lon="12.328969716051612"><ele>409.0</ele><time>2026-04-29T12:48:36Z</time></trkpt><trkpt lat="43.36316489368191" lon="12.328868262859265"><ele>409.0</ele><time>2026-04-29T12:48:37Z</time></trkpt><trkpt lat="43.36335248577608" lon="12.328727655882508"><ele>409.33333333333337</ele><time>2026-04-29T12:48:38Z</time></trkpt><trkpt lat="43.36353589281983" lon="12.328572680653338"><ele>409.66666666666663</ele><time>2026-04-29T12:48:39Z</time></trkpt><trkpt lat="43.363702335332675" lon="12.328419204853612"><ele>410.0</ele><time>2026-04-29T12:48:40Z</time></trkpt><trkpt lat="43.36386756091477" lon="12.328319640750058"><ele>410.0</ele><time>2026-04-29T12:48:41Z</time></trkpt><trkpt lat="43.36401370531468" lon="12.328234942841158"><ele>410.0</ele><time>2026-04-29T12:48:42Z</time></trkpt><trkpt lat="43.36415791010289" lon="12.32817502063036"><ele>410.0</ele><time>2026-04-29T12:48:43Z</time></trkpt><trkpt lat="43.36429277286616" lon="12.328238314539563"><ele>410.0</ele><time>2026-04-29T12:48:44Z</time></trkpt><trkpt lat="43.3644342709748" lon="12.32830563657469"><ele>410.0</ele><time>2026-04-29T12:48:45Z</time></trkpt><trkpt lat="43.36458874373771" lon="12.328402967405689"><ele>410.0</ele><time>2026-04-29T12:48:46Z</time></trkpt><trkpt lat="43.36476752143058" lon="12.328516614639483"><ele>413.3333333333333</ele><time>2026-04-29T12:48:47Z</time></trkpt><trkpt lat="43.364945473638706" lon="12.328620664315094"><ele>416.66666666666663</ele><time>2026-04-29T12:48:48Z</time></trkpt><trkpt lat="43.36510012691441" lon="12.328690188521497"><ele>420.0</ele><time>2026-04-29T12:48:49Z</time></trkpt><trkpt lat="43.36525166230989" lon="12.328714913736277"><ele>420.0</ele><time>2026-04-29T12:48:50Z</time></trkpt><trkpt lat="43.365404205315734" lon="12.32871979042985"><ele>420.0</ele><time>2026-04-29T12:48:51Z</time></trkpt><trkpt lat="43.36555797804783" lon="12.32864146199903"><ele>420.0</ele><time>2026-04-29T12:48:52Z</time></trkpt><trkpt lat="43.36573679926687" lon="12.32858899544661"><ele>420.25</ele><time>2026-04-29T12:48:53Z</time></trkpt><trkpt lat="43.36589805344202" lon="12.328540735665342"><ele>420.5</ele><time>2026-04-29T12:48:54Z</time></trkpt><trkpt lat="43.366038025064924" lon="12.328528328876015"><ele>420.75</ele><time>2026-04-29T12:48:55.001Z</time></trkpt><trkpt lat="43.36616626001827" lon="12.328616502873437"><ele>421.0</ele><time>2026-04-29T12:48:56.001Z</time></trkpt><trkpt lat="43.366310054954226" lon="12.328700692796684"><ele>420.75</ele><time>2026-04-29T12:48:57.001Z</time></trkpt><trkpt lat="43.36645498334397" lon="12.328823794966437"><ele>420.5</ele><time>2026-04-29T12:48:58.001Z</time></trkpt><trkpt lat="43.36658071209089" lon="12.328917031602032"><ele>420.25</ele><time>2026-04-29T12:48:59.001Z</time></trkpt><trkpt lat="43.366681105467606" lon="12.328952065477708"><ele>420.0</ele><time>2026-04-29T12:49:00.001Z</time></trkpt><trkpt lat="43.36677891235757" lon="12.328926564981048"><ele>420.8</ele><time>2026-04-29T12:49:01.001Z</time></trkpt><trkpt lat="43.366866870331684" lon="12.328833868158775"><ele>421.6</ele><time>2026-04-29T12:49:02.001Z</time></trkpt><trkpt lat="43.36690937208044" lon="12.328691958343942"><ele>422.4</ele><time>2026-04-29T12:49:03.001Z</time></trkpt><trkpt lat="43.366891020001376" lon="12.328538179601226"><ele>423.2</ele><time>2026-04-29T12:49:04.001Z</time></trkpt><trkpt lat="43.36684786834902" lon="12.328395730845253"><ele>424.0</ele><time>2026-04-29T12:49:05.001Z</time></trkpt><trkpt lat="43.366738416648765" lon="12.32831134778593"><ele>424.0</ele><time>2026-04-29T12:49:06.001Z</time></trkpt><trkpt lat="43.366621050555935" lon="12.328239035507364"><ele>424.0</ele><time>2026-04-29T12:49:07.001Z</time></trkpt><trkpt lat="43.36649461844586" lon="12.328148147278316"><ele>424.0</ele><time>2026-04-29T12:49:08.001Z</time></trkpt><trkpt lat="43.36635580527762" lon="12.32805305908443"><ele>424.0</ele><time>2026-04-29T12:49:09.001Z</time></trkpt><trkpt lat="43.36620998185334" lon="12.327955145768371"><ele>424.33333333333337</ele><time>2026-04-29T12:49:10.001Z</time></trkpt><trkpt lat="43.366066085645464" lon="12.32782751573548"><ele>424.66666666666663</ele><time>2026-04-29T12:49:11.001Z</time></trkpt><trkpt lat="43.3659095896411" lon="12.327715322989457"><ele>425.0</ele><time>2026-04-29T12:49:12.001Z</time></trkpt><trkpt lat="43.36575089071173" lon="12.327601332747136"><ele>425.0</ele><time>2026-04-29T12:49:13.001Z</time></trkpt><trkpt lat="43.36560006036612" lon="12.327492106737383"><ele>425.0</ele><time>2026-04-29T12:49:14.001Z</time></trkpt><trkpt lat="43.36546302540413" lon="12.327390584246212"><ele>425.0</ele><time>2026-04-29T12:49:15.001Z</time></trkpt><trkpt lat="43.36533273748662" lon="12.327302087549304"><ele>428.25</ele><time>2026-04-29T12:49:16.001Z</time></trkpt><trkpt lat="43.36522218223244" lon="12.327171567392277"><ele>431.5</ele><time>2026-04-29T12:49:17.001Z</time></trkpt><trkpt lat="43.36512852372908" lon="12.327014898303498"><ele>434.75</ele><time>2026-04-29T12:49:18.001Z</time></trkpt><trkpt lat="43.36505834768228" lon="12.326832224426342"><ele>438.0</ele><time>2026-04-29T12:49:19.001Z</time></trkpt><trkpt lat="43.365016777549535" lon="12.326611787270512"><ele>437.0</ele><time>2026-04-29T12:49:20.001Z</time></trkpt><trkpt lat="43.364979961654534" lon="12.326380029413189"><ele>436.0</ele><time>2026-04-29T12:49:21.001Z</time></trkpt><trkpt lat="43.36495455066647" lon="12.326130408278487"><ele>435.0</ele><time>2026-04-29T12:49:22.001Z</time></trkpt><trkpt lat="43.364890889380575" lon="12.325887092624768"><ele>435.0</ele><time>2026-04-29T12:49:23.001Z</time></trkpt><trkpt lat="43.36483458069524" lon="12.325682784590178"><ele>435.0</ele><time>2026-04-29T12:49:24.001Z</time></trkpt><trkpt lat="43.36478075413383" lon="12.32550580848453"><ele>435.0</ele><time>2026-04-29T12:49:25.001Z</time></trkpt><trkpt lat="43.36473848576893" lon="12.325352398415308"><ele>435.0</ele><time>2026-04-29T12:49:26.001Z</time></trkpt><trkpt lat="43.36468442591848" lon="12.3252269098137"><ele>436.25</ele><time>2026-04-29T12:49:27.001Z</time></trkpt><trkpt lat="43.36458565454261" lon="12.325173962859353"><ele>437.5</ele><time>2026-04-29T12:49:28.001Z</time></trkpt><trkpt lat="43.364457796013035" lon="12.325188312102755"><ele>438.75</ele><time>2026-04-29T12:49:29.001Z</time></trkpt><trkpt lat="43.364323824876934" lon="12.325199481713478"><ele>440.0</ele><time>2026-04-29T12:49:30.001Z</time></trkpt><trkpt lat="43.3641822569145" lon="12.325206179958254"><ele>440.0</ele><time>2026-04-29T12:49:31.001Z</time></trkpt><trkpt lat="43.36404189601838" lon="12.325204713765066"><ele>440.0</ele><time>2026-04-29T12:49:32.001Z</time></trkpt><trkpt lat="43.363875288652565" lon="12.325221931734957"><ele>440.0</ele><time>2026-04-29T12:49:33.001Z</time></trkpt><trkpt lat="43.36373534443235" lon="12.325236064512922"><ele>440.0</ele><time>2026-04-29T12:49:34.001Z</time></trkpt><trkpt lat="43.36363714076984" lon="12.325243669147865"><ele>441.75</ele><time>2026-04-29T12:49:35.001Z</time></trkpt><trkpt lat="43.36345186491025" lon="12.325230884070246"><ele>443.5</ele><time>2026-04-29T12:49:37Z</time></trkpt><trkpt lat="43.363341384805246" lon="12.32518778342076"><ele>445.25</ele><time>2026-04-29T12:49:38Z</time></trkpt><trkpt lat="43.363253864584095" lon="12.325075609556684"><ele>447.0</ele><time>2026-04-29T12:49:39Z</time></trkpt><trkpt lat="43.363157820233525" lon="12.324942602241913"><ele>447.0</ele><time>2026-04-29T12:49:40Z</time></trkpt><trkpt lat="43.3630590573548" lon="12.324793118988046"><ele>447.0</ele><time>2026-04-29T12:49:41Z</time></trkpt><trkpt lat="43.362955194593866" lon="12.324635282603325"><ele>447.0</ele><time>2026-04-29T12:49:42Z</time></trkpt><trkpt lat="43.362844064871624" lon="12.324466402720546"><ele>446.33333333333337</ele><time>2026-04-29T12:49:43Z</time></trkpt><trkpt lat="43.36271885721561" lon="12.324300197357605"><ele>445.6666666666667</ele><time>2026-04-29T12:49:44Z</time></trkpt><trkpt lat="43.36259947737734" lon="12.324119182927824"><ele>445.0</ele><time>2026-04-29T12:49:45Z</time></trkpt><trkpt lat="43.36247668464156" lon="12.323926703552777"><ele>441.6666666666667</ele><time>2026-04-29T12:49:46Z</time></trkpt><trkpt lat="43.36235601181374" lon="12.323735585938419"><ele>438.33333333333337</ele><time>2026-04-29T12:49:47Z</time></trkpt><trkpt lat="43.362230951488236" lon="12.323537262706017"><ele>435.0</ele><time>2026-04-29T12:49:48Z</time></trkpt><trkpt lat="43.36211865251252" lon="12.323315951332773"><ele>435.0</ele><time>2026-04-29T12:49:49Z</time></trkpt><trkpt lat="43.36198264782622" lon="12.323120617500035"><ele>435.0</ele><time>2026-04-29T12:49:50Z</time></trkpt><trkpt lat="43.36185435861988" lon="12.322910236493929"><ele>435.0</ele><time>2026-04-29T12:49:51Z</time></trkpt><trkpt lat="43.36172430731505" lon="12.32270114174692"><ele>436.0</ele><time>2026-04-29T12:49:52Z</time></trkpt><trkpt lat="43.3615939904114" lon="12.322491193425883"><ele>437.0</ele><time>2026-04-29T12:49:53Z</time></trkpt><trkpt lat="43.36146292308728" lon="12.322274048368499"><ele>438.0</ele><time>2026-04-29T12:49:54Z</time></trkpt><trkpt lat="43.361330239845884" lon="12.322063584636728"><ele>439.33333333333337</ele><time>2026-04-29T12:49:55Z</time></trkpt><trkpt lat="43.36120217505551" lon="12.321845884790132"><ele>440.6666666666667</ele><time>2026-04-29T12:49:56Z</time></trkpt><trkpt lat="43.361087886281084" lon="12.321610132310877"><ele>442.0</ele><time>2026-04-29T12:49:57Z</time></trkpt><trkpt lat="43.360989732957364" lon="12.321350396191766"><ele>442.33333333333337</ele><time>2026-04-29T12:49:58Z</time></trkpt><trkpt lat="43.3609062642914" lon="12.321096369113429"><ele>442.66666666666663</ele><time>2026-04-29T12:49:59Z</time></trkpt><trkpt lat="43.3608160648567" lon="12.32083128717956"><ele>443.0</ele><time>2026-04-29T12:50:00Z</time></trkpt><trkpt lat="43.36072465924962" lon="12.320570202702744"><ele>441.66666666666663</ele><time>2026-04-29T12:50:01Z</time></trkpt><trkpt lat="43.36063363023094" lon="12.320305671872882"><ele>440.33333333333337</ele><time>2026-04-29T12:50:02Z</time></trkpt><trkpt lat="43.36054075945468" lon="12.320038557251806"><ele>439.0</ele><time>2026-04-29T12:50:03Z</time></trkpt><trkpt lat="43.360445581952554" lon="12.319763245526065"><ele>438.0</ele><time>2026-04-29T12:50:04Z</time></trkpt><trkpt lat="43.36035203883444" lon="12.319490865680855"><ele>437.0</ele><time>2026-04-29T12:50:05Z</time></trkpt><trkpt lat="43.3602557371309" lon="12.319209768891385"><ele>436.0</ele><time>2026-04-29T12:50:06Z</time></trkpt><trkpt lat="43.360174353807494" lon="12.318920558764262"><ele>432.5</ele><time>2026-04-29T12:50:07Z</time></trkpt><trkpt lat="43.36006448619187" lon="12.318646235246257"><ele>429.0</ele><time>2026-04-29T12:50:08Z</time></trkpt><trkpt lat="43.359972908666286" lon="12.318358332170593"><ele>423.0</ele><time>2026-04-29T12:50:09Z</time></trkpt><trkpt lat="43.35987886154276" lon="12.31806505977718"><ele>417.0</ele><time>2026-04-29T12:50:10Z</time></trkpt><trkpt lat="43.35978407029827" lon="12.317774261510557"><ele>423.5</ele><time>2026-04-29T12:50:11Z</time></trkpt><trkpt lat="43.35968168275022" lon="12.317480901266423"><ele>430.0</ele><time>2026-04-29T12:50:12Z</time></trkpt><trkpt lat="43.35956819719756" lon="12.317195299055355"><ele>430.0</ele><time>2026-04-29T12:50:13Z</time></trkpt><trkpt lat="43.35943871209471" lon="12.316916845843611"><ele>430.0</ele><time>2026-04-29T12:50:14Z</time></trkpt><trkpt lat="43.35928676003893" lon="12.316660608917706"><ele>430.0</ele><time>2026-04-29T12:50:15Z</time></trkpt><trkpt lat="43.35911554874802" lon="12.316425993064682"><ele>430.0</ele><time>2026-04-29T12:50:16Z</time></trkpt><trkpt lat="43.35893676728157" lon="12.316220818357914"><ele>428.33333333333337</ele><time>2026-04-29T12:50:17Z</time></trkpt><trkpt lat="43.358758219148484" lon="12.31605852851362"><ele>426.66666666666663</ele><time>2026-04-29T12:50:18Z</time></trkpt><trkpt lat="43.35858633558032" lon="12.31591954129927"><ele>425.0</ele><time>2026-04-29T12:50:19Z</time></trkpt><trkpt lat="43.358416110340386" lon="12.315809853901026"><ele>425.0</ele><time>2026-04-29T12:50:20Z</time></trkpt><trkpt lat="43.35823484472284" lon="12.315753061943019"><ele>425.0</ele><time>2026-04-29T12:50:21Z</time></trkpt><trkpt lat="43.35805449756565" lon="12.315756625994727"><ele>425.0</ele><time>2026-04-29T12:50:22Z</time></trkpt><trkpt lat="43.35787614679624" lon="12.315774467482465"><ele>426.66666666666663</ele><time>2026-04-29T12:50:23Z</time></trkpt><trkpt lat="43.357694348072144" lon="12.315794926914533"><ele>428.33333333333337</ele><time>2026-04-29T12:50:24Z</time></trkpt><trkpt lat="43.357513409946755" lon="12.315813054490437"><ele>430.0</ele><time>2026-04-29T12:50:25Z</time></trkpt><trkpt lat="43.357331618002576" lon="12.315818599722942"><ele>431.0</ele><time>2026-04-29T12:50:26Z</time></trkpt><trkpt lat="43.35714880086531" lon="12.315809812210368"><ele>432.0</ele><time>2026-04-29T12:50:27Z</time></trkpt><trkpt lat="43.356967458788475" lon="12.315769531703511"><ele>433.0</ele><time>2026-04-29T12:50:28Z</time></trkpt><trkpt lat="43.35679311495658" lon="12.315706840334677"><ele>433.0</ele><time>2026-04-29T12:50:29Z</time></trkpt><trkpt lat="43.35663178327961" lon="12.315617560424986"><ele>433.0</ele><time>2026-04-29T12:50:30Z</time></trkpt><trkpt lat="43.35649188489337" lon="12.315514150854407"><ele>433.0</ele><time>2026-04-29T12:50:31Z</time></trkpt><trkpt lat="43.356373400540036" lon="12.315404581300724"><ele>433.5</ele><time>2026-04-29T12:50:32Z</time></trkpt><trkpt lat="43.35627259038363" lon="12.31527252169381"><ele>434.0</ele><time>2026-04-29T12:50:33Z</time></trkpt><trkpt lat="43.35618387932726" lon="12.315103996885847"><ele>434.5</ele><time>2026-04-29T12:50:34Z</time></trkpt><trkpt lat="43.356135239642406" lon="12.314905187677999"><ele>435.0</ele><time>2026-04-29T12:50:35Z</time></trkpt><trkpt lat="43.35615773600661" lon="12.31469065974951"><ele>435.0</ele><time>2026-04-29T12:50:36Z</time></trkpt><trkpt lat="43.35618450272094" lon="12.314489726685004"><ele>435.0</ele><time>2026-04-29T12:50:37Z</time></trkpt><trkpt lat="43.35620528515249" lon="12.314301573167306"><ele>435.0</ele><time>2026-04-29T12:50:38Z</time></trkpt><trkpt lat="43.35624112818653" lon="12.314131111980851"><ele>435.0</ele><time>2026-04-29T12:50:39Z</time></trkpt><trkpt lat="43.35626414104968" lon="12.313968768441686"><ele>433.8</ele><time>2026-04-29T12:50:40Z</time></trkpt><trkpt lat="43.35628594118409" lon="12.31380921514574"><ele>432.6</ele><time>2026-04-29T12:50:41Z</time></trkpt><trkpt lat="43.356308483845694" lon="12.313663180222331"><ele>431.4</ele><time>2026-04-29T12:50:42Z</time></trkpt><trkpt lat="43.35632384034493" lon="12.313534148840937"><ele>430.2</ele><time>2026-04-29T12:50:43.001Z</time></trkpt><trkpt lat="43.35631364734839" lon="12.313425448700517"><ele>429.0</ele><time>2026-04-29T12:50:44.001Z</time></trkpt><trkpt lat="43.356282335110315" lon="12.313331762405353"><ele>429.0</ele><time>2026-04-29T12:50:45.001Z</time></trkpt><trkpt lat="43.35617324765326" lon="12.313294997729994"><ele>429.0</ele><time>2026-04-29T12:50:46.001Z</time></trkpt><trkpt lat="43.356052330482704" lon="12.313274803865877"><ele>429.0</ele><time>2026-04-29T12:50:47.001Z</time></trkpt><trkpt lat="43.355919845819095" lon="12.313244015326115"><ele>429.0</ele><time>2026-04-29T12:50:48.001Z</time></trkpt><trkpt lat="43.35579063134225" lon="12.313149583764169"><ele>426.25</ele><time>2026-04-29T12:50:49.001Z</time></trkpt><trkpt lat="43.35567576977482" lon="12.313006535499431"><ele>423.5</ele><time>2026-04-29T12:50:50.001Z</time></trkpt><trkpt lat="43.35558687559892" lon="12.31288135731849"><ele>420.75</ele><time>2026-04-29T12:50:51.001Z</time></trkpt><trkpt lat="43.35548088317139" lon="12.312822336230408"><ele>418.0</ele><time>2026-04-29T12:50:52.001Z</time></trkpt><trkpt lat="43.35536193556686" lon="12.312842482255046"><ele>416.83333333333337</ele><time>2026-04-29T12:50:53.001Z</time></trkpt><trkpt lat="43.35526513509032" lon="12.31286525005752"><ele>415.6666666666667</ele><time>2026-04-29T12:50:54.001Z</time></trkpt><trkpt lat="43.355206149370346" lon="12.312816625632104"><ele>414.5</ele><time>2026-04-29T12:50:55.001Z</time></trkpt><trkpt lat="43.35520754265959" lon="12.31271105016293"><ele>413.33333333333337</ele><time>2026-04-29T12:50:56.001Z</time></trkpt><trkpt lat="43.355271487332814" lon="12.312620917912527"><ele>412.1666666666667</ele><time>2026-04-29T12:50:57.001Z</time></trkpt><trkpt lat="43.355378068737174" lon="12.312600036863182"><ele>411.0</ele><time>2026-04-29T12:50:58.001Z</time></trkpt><trkpt lat="43.355497325596325" lon="12.312566137839083"><ele>412.75</ele><time>2026-04-29T12:50:59.001Z</time></trkpt><trkpt lat="43.35561716026717" lon="12.312572608751246"><ele>414.5</ele><time>2026-04-29T12:51:00.001Z</time></trkpt><trkpt lat="43.35572625549203" lon="12.312652571734203"><ele>416.25</ele><time>2026-04-29T12:51:01.001Z</time></trkpt><trkpt lat="43.3558599423569" lon="12.312713290511793"><ele>418.0</ele><time>2026-04-29T12:51:02.001Z</time></trkpt><trkpt lat="43.35597742054734" lon="12.31279020850847"><ele>418.0</ele><time>2026-04-29T12:51:03.001Z</time></trkpt><trkpt lat="43.35608321553" lon="12.31281471077477"><ele>418.0</ele><time>2026-04-29T12:51:04.001Z</time></trkpt><trkpt lat="43.35617900185153" lon="12.312783624701577"><ele>418.0</ele><time>2026-04-29T12:51:05.001Z</time></trkpt><trkpt lat="43.35625315399786" lon="12.31266474196482"><ele>418.0</ele><time>2026-04-29T12:51:06.001Z</time></trkpt><trkpt lat="43.356297596635464" lon="12.312483907886845"><ele>418.0</ele><time>2026-04-29T12:51:07.001Z</time></trkpt><trkpt lat="43.35633303010174" lon="12.312288529723244"><ele>418.0</ele><time>2026-04-29T12:51:08.001Z</time></trkpt><trkpt lat="43.356393693591684" lon="12.31208159791356"><ele>418.0</ele><time>2026-04-29T12:51:09.001Z</time></trkpt><trkpt lat="43.356433761107944" lon="12.311841934836771"><ele>412.0</ele><time>2026-04-29T12:51:10.001Z</time></trkpt><trkpt lat="43.356500443975484" lon="12.3116094608104"><ele>406.0</ele><time>2026-04-29T12:51:11.001Z</time></trkpt><trkpt lat="43.35654927811283" lon="12.311376057516007"><ele>400.0</ele><time>2026-04-29T12:51:12.001Z</time></trkpt><trkpt lat="43.356580040913386" lon="12.31116534673702"><ele>399.0</ele><time>2026-04-29T12:51:13.001Z</time></trkpt><trkpt lat="43.356573485744214" lon="12.31094810416995"><ele>398.0</ele><time>2026-04-29T12:51:14.001Z</time></trkpt><trkpt lat="43.356532532889645" lon="12.310719216449991"><ele>397.0</ele><time>2026-04-29T12:51:15.001Z</time></trkpt><trkpt lat="43.356480964669736" lon="12.310481467295869"><ele>395.33333333333337</ele><time>2026-04-29T12:51:16.001Z</time></trkpt><trkpt lat="43.35645245994491" lon="12.3102306677023"><ele>393.66666666666663</ele><time>2026-04-29T12:51:17.001Z</time></trkpt><trkpt lat="43.35641198123362" lon="12.310005636867356"><ele>392.0</ele><time>2026-04-29T12:51:18.001Z</time></trkpt><trkpt lat="43.35639396509604" lon="12.309809847934623"><ele>392.0</ele><time>2026-04-29T12:51:19.001Z</time></trkpt><trkpt lat="43.35640621639488" lon="12.30961238008926"><ele>392.0</ele><time>2026-04-29T12:51:20.001Z</time></trkpt><trkpt lat="43.35644966526448" lon="12.309394259586789"><ele>392.0</ele><time>2026-04-29T12:51:21.001Z</time></trkpt><trkpt lat="43.35649117026982" lon="12.309146558409596"><ele>390.0</ele><time>2026-04-29T12:51:22.001Z</time></trkpt><trkpt lat="43.356549588754085" lon="12.308907064451963"><ele>388.0</ele><time>2026-04-29T12:51:23.001Z</time></trkpt><trkpt lat="43.35660386904185" lon="12.308679366974358"><ele>386.0</ele><time>2026-04-29T12:51:24.001Z</time></trkpt><trkpt lat="43.35665408705082" lon="12.308484961215596"><ele>386.0</ele><time>2026-04-29T12:51:25.001Z</time></trkpt><trkpt lat="43.356688865327534" lon="12.308296074266838"><ele>386.0</ele><time>2026-04-29T12:51:26.001Z</time></trkpt><trkpt lat="43.35670437363969" lon="12.30809880557802"><ele>386.0</ele><time>2026-04-29T12:51:27.001Z</time></trkpt><trkpt lat="43.356694721361514" lon="12.307898034752402"><ele>386.0</ele><time>2026-04-29T12:51:28.001Z</time></trkpt><trkpt lat="43.35657805923931" lon="12.30771031654777"><ele>387.0</ele><time>2026-04-29T12:51:29.001Z</time></trkpt><trkpt lat="43.35649050399164" lon="12.307517520247854"><ele>388.0</ele><time>2026-04-29T12:51:30.001Z</time></trkpt><trkpt lat="43.356404327177614" lon="12.307311352565753"><ele>389.0</ele><time>2026-04-29T12:51:31.001Z</time></trkpt><trkpt lat="43.356316919301435" lon="12.30709651457235"><ele>384.0</ele><time>2026-04-29T12:51:32.001Z</time></trkpt><trkpt lat="43.35622929542032" lon="12.306878320894656"><ele>379.0</ele><time>2026-04-29T12:51:33.001Z</time></trkpt><trkpt lat="43.356154878626704" lon="12.306671706903368"><ele>374.0</ele><time>2026-04-29T12:51:34.001Z</time></trkpt><trkpt lat="43.35608544801102" lon="12.30647269742204"><ele>374.6666666666667</ele><time>2026-04-29T12:51:35.001Z</time></trkpt><trkpt lat="43.35603013361859" lon="12.30626476673503"><ele>375.3333333333333</ele><time>2026-04-29T12:51:36.001Z</time></trkpt><trkpt lat="43.35599610515594" lon="12.306055879780063"><ele>376.0</ele><time>2026-04-29T12:51:37.001Z</time></trkpt><trkpt lat="43.35598675473497" lon="12.305866608448602"><ele>376.0</ele><time>2026-04-29T12:51:38.001Z</time></trkpt><trkpt lat="43.35601098633156" lon="12.305699920429173"><ele>376.0</ele><time>2026-04-29T12:51:39.001Z</time></trkpt><trkpt lat="43.356106641937096" lon="12.305566368852753"><ele>376.0</ele><time>2026-04-29T12:51:40.001Z</time></trkpt><trkpt lat="43.3561834112825" lon="12.305400745879004"><ele>376.0</ele><time>2026-04-29T12:51:41.001Z</time></trkpt><trkpt lat="43.3562812299891" lon="12.305241085205285"><ele>375.5</ele><time>2026-04-29T12:51:42.001Z</time></trkpt><trkpt lat="43.356402783093394" lon="12.305115085795205"><ele>375.0</ele><time>2026-04-29T12:51:43Z</time></trkpt><trkpt lat="43.356526840502994" lon="12.305037145271353"><ele>374.5</ele><time>2026-04-29T12:51:44Z</time></trkpt><trkpt lat="43.35663587000097" lon="12.30498382126217"><ele>374.0</ele><time>2026-04-29T12:51:45Z</time></trkpt><trkpt lat="43.356721217232185" lon="12.304920624649364"><ele>374.0</ele><time>2026-04-29T12:51:46Z</time></trkpt><trkpt lat="43.35679787080403" lon="12.304864144486299"><ele>374.0</ele><time>2026-04-29T12:51:47Z</time></trkpt><trkpt lat="43.35680770089523" lon="12.304727037171443"><ele>374.0</ele><time>2026-04-29T12:51:48Z</time></trkpt><trkpt lat="43.35677721753823" lon="12.304622630891956"><ele>374.0</ele><time>2026-04-29T12:51:49Z</time></trkpt><trkpt lat="43.35671398567629" lon="12.304559371074282"><ele>374.0</ele><time>2026-04-29T12:51:50Z</time></trkpt><trkpt lat="43.356639308127384" lon="12.304562196704927"><ele>374.0</ele><time>2026-04-29T12:51:51Z</time></trkpt><trkpt lat="43.356551726843854" lon="12.304610099900398"><ele>372.5</ele><time>2026-04-29T12:51:52Z</time></trkpt><trkpt lat="43.356443784526384" lon="12.304691013563046"><ele>371.0</ele><time>2026-04-29T12:51:53Z</time></trkpt><trkpt lat="43.356321948926194" lon="12.304798956945556"><ele>369.5</ele><time>2026-04-29T12:51:54Z</time></trkpt><trkpt lat="43.35620582048016" lon="12.304920600286307"><ele>368.0</ele><time>2026-04-29T12:51:55Z</time></trkpt><trkpt lat="43.3561129562409" lon="12.30501423999664"><ele>368.0</ele><time>2026-04-29T12:51:56Z</time></trkpt><trkpt lat="43.35600706154775" lon="12.305049456602504"><ele>368.0</ele><time>2026-04-29T12:51:57Z</time></trkpt><trkpt lat="43.35590095212795" lon="12.305014673927891"><ele>368.0</ele><time>2026-04-29T12:51:58Z</time></trkpt><trkpt lat="43.355790151017345" lon="12.304922025855587"><ele>368.0</ele><time>2026-04-29T12:51:59Z</time></trkpt><trkpt lat="43.35566173533917" lon="12.304823289957458"><ele>363.33333333333337</ele><time>2026-04-29T12:52:00Z</time></trkpt><trkpt lat="43.35551803122693" lon="12.304729582483434"><ele>358.6666666666667</ele><time>2026-04-29T12:52:01Z</time></trkpt><trkpt lat="43.35536728250195" lon="12.304626098066501"><ele>354.0</ele><time>2026-04-29T12:52:02Z</time></trkpt><trkpt lat="43.35520869114834" lon="12.30451396218027"><ele>354.0</ele><time>2026-04-29T12:52:03Z</time></trkpt><trkpt lat="43.35505137527407" lon="12.304404200942546"><ele>354.0</ele><time>2026-04-29T12:52:04Z</time></trkpt><trkpt lat="43.3549009033095" lon="12.30430871769249"><ele>354.0</ele><time>2026-04-29T12:52:05Z</time></trkpt><trkpt lat="43.35477593338074" lon="12.304237885311071"><ele>353.6</ele><time>2026-04-29T12:52:06Z</time></trkpt><trkpt lat="43.35466839137477" lon="12.304170945047765"><ele>353.2</ele><time>2026-04-29T12:52:07Z</time></trkpt><trkpt lat="43.354573552496" lon="12.304095716706371"><ele>352.8</ele><time>2026-04-29T12:52:08Z</time></trkpt><trkpt lat="43.35452438503131" lon="12.303978806668175"><ele>352.40000000000003</ele><time>2026-04-29T12:52:09Z</time></trkpt><trkpt lat="43.35454586021054" lon="12.303834000236183"><ele>352.0</ele><time>2026-04-29T12:52:10Z</time></trkpt><trkpt lat="43.35458342850035" lon="12.30369956508325"><ele>350.25</ele><time>2026-04-29T12:52:11Z</time></trkpt><trkpt lat="43.35470378759922" lon="12.30363303278512"><ele>348.5</ele><time>2026-04-29T12:52:12Z</time></trkpt><trkpt lat="43.35483110804715" lon="12.303549386532108"><ele>346.75</ele><time>2026-04-29T12:52:13Z</time></trkpt><trkpt lat="43.35496675080147" lon="12.303441671791909"><ele>345.0</ele><time>2026-04-29T12:52:14Z</time></trkpt><trkpt lat="43.35512139368368" lon="12.303334440406415"><ele>345.0</ele><time>2026-04-29T12:52:15Z</time></trkpt><trkpt lat="43.355266152418054" lon="12.303221052034084"><ele>345.0</ele><time>2026-04-29T12:52:16Z</time></trkpt><trkpt lat="43.35539046422617" lon="12.303096730112564"><ele>345.0</ele><time>2026-04-29T12:52:17Z</time></trkpt><trkpt lat="43.355494241012444" lon="12.30294159796481"><ele>345.6666666666667</ele><time>2026-04-29T12:52:18Z</time></trkpt><trkpt lat="43.35556589414294" lon="12.302738161965742"><ele>346.33333333333337</ele><time>2026-04-29T12:52:19Z</time></trkpt><trkpt lat="43.35559991162226" lon="12.302517995079816"><ele>347.0</ele><time>2026-04-29T12:52:20Z</time></trkpt><trkpt lat="43.35559263633554" lon="12.30229381919097"><ele>342.6666666666667</ele><time>2026-04-29T12:52:21Z</time></trkpt><trkpt lat="43.35555098651983" lon="12.302081945147371"><ele>338.3333333333333</ele><time>2026-04-29T12:52:22Z</time></trkpt><trkpt lat="43.35549492820411" lon="12.301889915823018"><ele>334.0</ele><time>2026-04-29T12:52:23Z</time></trkpt><trkpt lat="43.355385812194" lon="12.301736852659458"><ele>334.0</ele><time>2026-04-29T12:52:24Z</time></trkpt><trkpt lat="43.355268051119054" lon="12.301572713958372"><ele>334.0</ele><time>2026-04-29T12:52:25Z</time></trkpt><trkpt lat="43.35514422706587" lon="12.301389769204697"><ele>334.0</ele><time>2026-04-29T12:52:26Z</time></trkpt><trkpt lat="43.35500455602911" lon="12.301199461826489"><ele>332.0</ele><time>2026-04-29T12:52:27Z</time></trkpt><trkpt lat="43.354850222527595" lon="12.300989176335614"><ele>330.0</ele><time>2026-04-29T12:52:28Z</time></trkpt><trkpt lat="43.354683831946794" lon="12.300779514824239"><ele>328.0</ele><time>2026-04-29T12:52:29Z</time></trkpt><trkpt lat="43.35453305369631" lon="12.300533443219216"><ele>328.0</ele><time>2026-04-29T12:52:30Z</time></trkpt><trkpt lat="43.354389348468715" lon="12.300298373070527"><ele>328.0</ele><time>2026-04-29T12:52:31Z</time></trkpt><trkpt lat="43.35424689412264" lon="12.300093405204045"><ele>328.0</ele><time>2026-04-29T12:52:32Z</time></trkpt><trkpt lat="43.35411781566926" lon="12.29992365093144"><ele>328.0</ele><time>2026-04-29T12:52:33.001Z</time></trkpt><trkpt lat="43.35400486963022" lon="12.299774640119193"><ele>328.0</ele><time>2026-04-29T12:52:34.001Z</time></trkpt><trkpt lat="43.353909639462" lon="12.299626146771645"><ele>328.0</ele><time>2026-04-29T12:52:35.001Z</time></trkpt><trkpt lat="43.353844132623294" lon="12.2994675326633"><ele>328.0</ele><time>2026-04-29T12:52:36.001Z</time></trkpt><trkpt lat="43.35381689932623" lon="12.299287179996158"><ele>328.5</ele><time>2026-04-29T12:52:37.001Z</time></trkpt><trkpt lat="43.35383504063659" lon="12.29912475694184"><ele>329.0</ele><time>2026-04-29T12:52:38.001Z</time></trkpt><trkpt lat="43.35389385861527" lon="12.298955433402151"><ele>329.5</ele><time>2026-04-29T12:52:39.001Z</time></trkpt><trkpt lat="43.35395901892134" lon="12.298787823731722"><ele>330.0</ele><time>2026-04-29T12:52:40.001Z</time></trkpt><trkpt lat="43.35398008162241" lon="12.298626183273896"><ele>331.0</ele><time>2026-04-29T12:52:41.001Z</time></trkpt><trkpt lat="43.35396559047299" lon="12.298467829835317"><ele>332.0</ele><time>2026-04-29T12:52:42.001Z</time></trkpt><trkpt lat="43.35386748957158" lon="12.298339825785728"><ele>333.0</ele><time>2026-04-29T12:52:43.001Z</time></trkpt><trkpt lat="43.35375217051407" lon="12.298199431269355"><ele>334.0</ele><time>2026-04-29T12:52:44.001Z</time></trkpt><trkpt lat="43.35366406130879" lon="12.298063346696507"><ele>331.79999999999995</ele><time>2026-04-29T12:52:45.001Z</time></trkpt><trkpt lat="43.353629507231176" lon="12.29793146936701"><ele>329.59999999999997</ele><time>2026-04-29T12:52:46.001Z</time></trkpt><trkpt lat="43.35366076132947" lon="12.297836800472602"><ele>327.4</ele><time>2026-04-29T12:52:47.001Z</time></trkpt><trkpt lat="43.35372367940959" lon="12.297805338098334"><ele>325.2</ele><time>2026-04-29T12:52:48.001Z</time></trkpt><trkpt lat="43.353813983374245" lon="12.297837839359655"><ele>323.0</ele><time>2026-04-29T12:52:49.001Z</time></trkpt><trkpt lat="43.35388689652519" lon="12.297971992380264"><ele>322.2</ele><time>2026-04-29T12:52:50.001Z</time></trkpt><trkpt lat="43.35397223765625" lon="12.298120018845239"><ele>321.4</ele><time>2026-04-29T12:52:51.001Z</time></trkpt><trkpt lat="43.35404924506979" lon="12.298251091574823"><ele>320.59999999999997</ele><time>2026-04-29T12:52:52.001Z</time></trkpt><trkpt lat="43.35411073977666" lon="12.29833562058196"><ele>319.79999999999995</ele><time>2026-04-29T12:52:53.001Z</time></trkpt><trkpt lat="43.35417627843192" lon="12.298367827934822"><ele>319.0</ele><time>2026-04-29T12:52:54.001Z</time></trkpt><trkpt lat="43.35424512992136" lon="12.29831482080737"><ele>319.0</ele><time>2026-04-29T12:52:55.001Z</time></trkpt><trkpt lat="43.354280001601154" lon="12.298182703135806"><ele>319.0</ele><time>2026-04-29T12:52:56.001Z</time></trkpt><trkpt lat="43.354222542192986" lon="12.298072712916225"><ele>319.0</ele><time>2026-04-29T12:52:57.001Z</time></trkpt><trkpt lat="43.35417274858189" lon="12.29797462670017"><ele>319.0</ele><time>2026-04-29T12:52:58.001Z</time></trkpt><trkpt lat="43.35409578310698" lon="12.297839660975816"><ele>319.0</ele><time>2026-04-29T12:52:59.001Z</time></trkpt><trkpt lat="43.353999767129885" lon="12.297673708547107"><ele>320.3333333333333</ele><time>2026-04-29T12:53:00.001Z</time></trkpt><trkpt lat="43.353894430761436" lon="12.297499734168348"><ele>321.6666666666667</ele><time>2026-04-29T12:53:01.001Z</time></trkpt><trkpt lat="43.35378567702464" lon="12.297324909147818"><ele>323.0</ele><time>2026-04-29T12:53:02.001Z</time></trkpt><trkpt lat="43.353677478875674" lon="12.297191188363641"><ele>320.5</ele><time>2026-04-29T12:53:03.001Z</time></trkpt><trkpt lat="43.35361374666598" lon="12.297080282138042"><ele>318.0</ele><time>2026-04-29T12:53:04.001Z</time></trkpt><trkpt lat="43.35359215467545" lon="12.296984349834572"><ele>315.5</ele><time>2026-04-29T12:53:05.001Z</time></trkpt><trkpt lat="43.35361877599836" lon="12.296894468553232"><ele>313.0</ele><time>2026-04-29T12:53:06.001Z</time></trkpt><trkpt lat="43.35368132621047" lon="12.296837608290788"><ele>310.5</ele><time>2026-04-29T12:53:07.001Z</time></trkpt><trkpt lat="43.35377309007602" lon="12.29684487722442"><ele>308.0</ele><time>2026-04-29T12:53:08.001Z</time></trkpt><trkpt lat="43.35387741994562" lon="12.297004814610915"><ele>308.0</ele><time>2026-04-29T12:53:09.001Z</time></trkpt><trkpt lat="43.35399481623062" lon="12.297107519735569"><ele>308.0</ele><time>2026-04-29T12:53:10.001Z</time></trkpt><trkpt lat="43.35412588478192" lon="12.29719631319967"><ele>308.0</ele><time>2026-04-29T12:53:11.001Z</time></trkpt><trkpt lat="43.354247310823" lon="12.29731604242896"><ele>308.0</ele><time>2026-04-29T12:53:12.001Z</time></trkpt><trkpt lat="43.35437564163372" lon="12.297433188545956"><ele>308.0</ele><time>2026-04-29T12:53:13.001Z</time></trkpt><trkpt lat="43.35449756132324" lon="12.297560270151282"><ele>308.0</ele><time>2026-04-29T12:53:14.001Z</time></trkpt><trkpt lat="43.354594185026656" lon="12.297660953035011"><ele>308.0</ele><time>2026-04-29T12:53:15.001Z</time></trkpt><trkpt lat="43.35466408899112" lon="12.297726829409584"><ele>308.0</ele><time>2026-04-29T12:53:16.001Z</time></trkpt><trkpt lat="43.35472659376688" lon="12.297749264964041"><ele>308.0</ele><time>2026-04-29T12:53:17.001Z</time></trkpt><trkpt lat="43.354786939956156" lon="12.297674789461865"><ele>308.0</ele><time>2026-04-29T12:53:18.001Z</time></trkpt><trkpt lat="43.35477460484968" lon="12.29755545989079"><ele>308.0</ele><time>2026-04-29T12:53:19.001Z</time></trkpt><trkpt lat="43.35470814510402" lon="12.297445732792019"><ele>308.0</ele><time>2026-04-29T12:53:20.001Z</time></trkpt><trkpt lat="43.35461024914707" lon="12.297336675856242"><ele>308.0</ele><time>2026-04-29T12:53:21.001Z</time></trkpt><trkpt lat="43.35449280264383" lon="12.297199361297153"><ele>302.0</ele><time>2026-04-29T12:53:22.001Z</time></trkpt><trkpt lat="43.35437972413979" lon="12.297000038226086"><ele>296.0</ele><time>2026-04-29T12:53:23.001Z</time></trkpt><trkpt lat="43.35424967204051" lon="12.296794041164912"><ele>290.0</ele><time>2026-04-29T12:53:24.001Z</time></trkpt><trkpt lat="43.35413085670011" lon="12.296551044195159"><ele>292.0</ele><time>2026-04-29T12:53:25.001Z</time></trkpt><trkpt lat="43.354004118608216" lon="12.296298413786644"><ele>294.0</ele><time>2026-04-29T12:53:26.001Z</time></trkpt><trkpt lat="43.35387098320995" lon="12.296056856879247"><ele>296.0</ele><time>2026-04-29T12:53:27.001Z</time></trkpt><trkpt lat="43.353744648804415" lon="12.295849755133878"><ele>296.0</ele><time>2026-04-29T12:53:28.001Z</time></trkpt><trkpt lat="43.35362900921435" lon="12.295674318374813"><ele>296.0</ele><time>2026-04-29T12:53:29.001Z</time></trkpt><trkpt lat="43.35352148974772" lon="12.29553183288276"><ele>296.0</ele><time>2026-04-29T12:53:30.001Z</time></trkpt><trkpt lat="43.35343609414156" lon="12.295436584196706"><ele>296.0</ele><time>2026-04-29T12:53:31.001Z</time></trkpt><trkpt lat="43.35339025036838" lon="12.29537582128108"><ele>293.0</ele><time>2026-04-29T12:53:32.001Z</time></trkpt><trkpt lat="43.35339492412589" lon="12.295232298339581"><ele>290.0</ele><time>2026-04-29T12:53:34.001Z</time></trkpt><trkpt lat="43.353453197705434" lon="12.29519540922074"><ele>287.0</ele><time>2026-04-29T12:53:35.001Z</time></trkpt><trkpt lat="43.353516107899495" lon="12.295224681942177"><ele>284.0</ele><time>2026-04-29T12:53:36.001Z</time></trkpt><trkpt lat="43.35358283892404" lon="12.295325950165298"><ele>281.0</ele><time>2026-04-29T12:53:37.001Z</time></trkpt><trkpt lat="43.353654099654335" lon="12.295456944400236"><ele>281.0</ele><time>2026-04-29T12:53:38.001Z</time></trkpt><trkpt lat="43.3537492331605" lon="12.295586707569523"><ele>281.0</ele><time>2026-04-29T12:53:39.001Z</time></trkpt><trkpt lat="43.35387281263196" lon="12.29569103420801"><ele>281.0</ele><time>2026-04-29T12:53:40.001Z</time></trkpt><trkpt lat="43.35399021025591" lon="12.295773185269134"><ele>281.0</ele><time>2026-04-29T12:53:41.001Z</time></trkpt><trkpt lat="43.35412090972098" lon="12.295770250227685"><ele>278.75</ele><time>2026-04-29T12:53:42.001Z</time></trkpt><trkpt lat="43.35424375661237" lon="12.295688001804132"><ele>276.5</ele><time>2026-04-29T12:53:43.001Z</time></trkpt><trkpt lat="43.3543589865834" lon="12.295579677288622"><ele>274.25</ele><time>2026-04-29T12:53:44.001Z</time></trkpt><trkpt lat="43.354445319029374" lon="12.29548367020967"><ele>272.0</ele><time>2026-04-29T12:53:45.002Z</time></trkpt><trkpt lat="43.3544931055496" lon="12.295341409895371"><ele>270.0</ele><time>2026-04-29T12:53:46.002Z</time></trkpt><trkpt lat="43.35445977397529" lon="12.29516025816981"><ele>268.0</ele><time>2026-04-29T12:53:47.002Z</time></trkpt><trkpt lat="43.35439957459537" lon="12.294991163522342"><ele>266.0</ele><time>2026-04-29T12:53:48.002Z</time></trkpt><trkpt lat="43.354322515082345" lon="12.294810232410292"><ele>264.0</ele><time>2026-04-29T12:53:49Z</time></trkpt><trkpt lat="43.35425445764268" lon="12.294597772383565"><ele>263.6666666666667</ele><time>2026-04-29T12:53:50Z</time></trkpt><trkpt lat="43.35417953269913" lon="12.294369790255415"><ele>263.33333333333337</ele><time>2026-04-29T12:53:51Z</time></trkpt><trkpt lat="43.35410032132571" lon="12.294134683299653"><ele>263.0</ele><time>2026-04-29T12:53:52Z</time></trkpt><trkpt lat="43.35403553211406" lon="12.29387660952175"><ele>262.6666666666667</ele><time>2026-04-29T12:53:53Z</time></trkpt><trkpt lat="43.35397446335375" lon="12.293610753472835"><ele>262.3333333333333</ele><time>2026-04-29T12:53:54Z</time></trkpt><trkpt lat="43.35392926790906" lon="12.293328001935008"><ele>262.0</ele><time>2026-04-29T12:53:55Z</time></trkpt><trkpt lat="43.35389159664568" lon="12.293073777036295"><ele>261.75</ele><time>2026-04-29T12:53:56Z</time></trkpt><trkpt lat="43.35386534080286" lon="12.292867252822408"><ele>261.5</ele><time>2026-04-29T12:53:57Z</time></trkpt><trkpt lat="43.35386038294128" lon="12.292675877483862"><ele>261.25</ele><time>2026-04-29T12:53:58Z</time></trkpt><trkpt lat="43.353900513131755" lon="12.2924931980895"><ele>261.0</ele><time>2026-04-29T12:53:59Z</time></trkpt><trkpt lat="43.353909538848384" lon="12.292304085102307"><ele>261.3333333333333</ele><time>2026-04-29T12:54:00Z</time></trkpt><trkpt lat="43.35386736923988" lon="12.292129665356407"><ele>261.66666666666663</ele><time>2026-04-29T12:54:01Z</time></trkpt><trkpt lat="43.35378504238494" lon="12.291936205221962"><ele>262.0</ele><time>2026-04-29T12:54:02Z</time></trkpt><trkpt lat="43.353694957506754" lon="12.291720186919477"><ele>262.0</ele><time>2026-04-29T12:54:03Z</time></trkpt><trkpt lat="43.35360178203159" lon="12.291489719854479"><ele>262.0</ele><time>2026-04-29T12:54:04Z</time></trkpt><trkpt lat="43.35350965085003" lon="12.291244172976473"><ele>262.0</ele><time>2026-04-29T12:54:05Z</time></trkpt><trkpt lat="43.35341444235201" lon="12.290992408572075"><ele>262.3333333333333</ele><time>2026-04-29T12:54:06Z</time></trkpt><trkpt lat="43.35331553901797" lon="12.290740870761189"><ele>262.6666666666667</ele><time>2026-04-29T12:54:07Z</time></trkpt><trkpt lat="43.353206037792624" lon="12.290484846036966"><ele>263.0</ele><time>2026-04-29T12:54:08Z</time></trkpt><trkpt lat="43.35308190001712" lon="12.290238275481983"><ele>263.33333333333337</ele><time>2026-04-29T12:54:09Z</time></trkpt><trkpt lat="43.35295134180048" lon="12.290002570712351"><ele>263.6666666666667</ele><time>2026-04-29T12:54:10Z</time></trkpt><trkpt lat="43.35282668241044" lon="12.289782030291873"><ele>264.0</ele><time>2026-04-29T12:54:11Z</time></trkpt><trkpt lat="43.3527208809686" lon="12.289596491577436"><ele>263.5</ele><time>2026-04-29T12:54:12Z</time></trkpt><trkpt lat="43.35263982918078" lon="12.28943984780162"><ele>263.0</ele><time>2026-04-29T12:54:13Z</time></trkpt><trkpt lat="43.35257837539818" lon="12.28928750651995"><ele>262.5</ele><time>2026-04-29T12:54:14Z</time></trkpt><trkpt lat="43.35253472394768" lon="12.289113831909644"><ele>262.0</ele><time>2026-04-29T12:54:15Z</time></trkpt><trkpt lat="43.352508770445375" lon="12.288904102512058"><ele>262.0</ele><time>2026-04-29T12:54:16Z</time></trkpt><trkpt lat="43.35248195698226" lon="12.288671798649053"><ele>262.0</ele><time>2026-04-29T12:54:17Z</time></trkpt><trkpt lat="43.35244439677317" lon="12.288425930940456"><ele>262.0</ele><time>2026-04-29T12:54:18Z</time></trkpt><trkpt lat="43.35239491573182" lon="12.288167180405262"><ele>260.66666666666663</ele><time>2026-04-29T12:54:19Z</time></trkpt><trkpt lat="43.35233693577827" lon="12.28789946150543"><ele>259.3333333333333</ele><time>2026-04-29T12:54:20Z</time></trkpt><trkpt lat="43.352276694503594" lon="12.287629325687783"><ele>258.0</ele><time>2026-04-29T12:54:21Z</time></trkpt><trkpt lat="43.352213365723124" lon="12.287345460578228"><ele>257.0</ele><time>2026-04-29T12:54:22Z</time></trkpt><trkpt lat="43.35214878969908" lon="12.287067387158206"><ele>256.0</ele><time>2026-04-29T12:54:23Z</time></trkpt><trkpt lat="43.35208918810534" lon="12.286785309452133"><ele>255.0</ele><time>2026-04-29T12:54:24Z</time></trkpt><trkpt lat="43.35203585331485" lon="12.28651479486178"><ele>253.66666666666669</ele><time>2026-04-29T12:54:25Z</time></trkpt><trkpt lat="43.35197684876772" lon="12.28628920491406"><ele>252.33333333333334</ele><time>2026-04-29T12:54:26Z</time></trkpt><trkpt lat="43.35194550063908" lon="12.28606818026953"><ele>251.0</ele><time>2026-04-29T12:54:27Z</time></trkpt><trkpt lat="43.35188673802777" lon="12.28585054564531"><ele>251.0</ele><time>2026-04-29T12:54:28Z</time></trkpt><trkpt lat="43.3518172949026" lon="12.285649867502949"><ele>251.0</ele><time>2026-04-29T12:54:29Z</time></trkpt><trkpt lat="43.35171287627901" lon="12.285485075818794"><ele>251.0</ele><time>2026-04-29T12:54:30Z</time></trkpt><trkpt lat="43.351602230913855" lon="12.285323233549551"><ele>250.75</ele><time>2026-04-29T12:54:31Z</time></trkpt><trkpt lat="43.3515009610924" lon="12.285192524345167"><ele>250.5</ele><time>2026-04-29T12:54:32Z</time></trkpt><trkpt lat="43.351413339571195" lon="12.285064657296878"><ele>250.25</ele><time>2026-04-29T12:54:33Z</time></trkpt><trkpt lat="43.35135146343986" lon="12.284939502984122"><ele>250.0</ele><time>2026-04-29T12:54:34Z</time></trkpt><trkpt lat="43.35131506576078" lon="12.284813606999688"><ele>250.75</ele><time>2026-04-29T12:54:35Z</time></trkpt><trkpt lat="43.35126179037359" lon="12.284708715498843"><ele>251.5</ele><time>2026-04-29T12:54:36.001Z</time></trkpt><trkpt lat="43.35116405604386" lon="12.284632889857113"><ele>252.25</ele><time>2026-04-29T12:54:37.001Z</time></trkpt><trkpt lat="43.35105574589944" lon="12.284549694174576"><ele>253.0</ele><time>2026-04-29T12:54:38.001Z</time></trkpt><trkpt lat="43.35094569421204" lon="12.284439288535323"><ele>253.0</ele><time>2026-04-29T12:54:39.001Z</time></trkpt><trkpt lat="43.350830635066764" lon="12.284310940350037"><ele>253.0</ele><time>2026-04-29T12:54:40.001Z</time></trkpt><trkpt lat="43.3507173257909" lon="12.284201681435455"><ele>253.0</ele><time>2026-04-29T12:54:41.001Z</time></trkpt><trkpt lat="43.35061538927156" lon="12.284121697698403"><ele>253.0</ele><time>2026-04-29T12:54:42.001Z</time></trkpt><trkpt lat="43.35053082879423" lon="12.284065037429624"><ele>252.4</ele><time>2026-04-29T12:54:43.001Z</time></trkpt><trkpt lat="43.35044972599785" lon="12.284029728221986"><ele>251.8</ele><time>2026-04-29T12:54:45.001Z</time></trkpt><trkpt lat="43.350374829334314" lon="12.283987541866699"><ele>251.2</ele><time>2026-04-29T12:54:47.001Z</time></trkpt><trkpt lat="43.350280438187" lon="12.284123485296908"><ele>250.6</ele><time>2026-04-29T12:54:48.001Z</time></trkpt><trkpt lat="43.35020170335194" lon="12.284216764926228"><ele>250.0</ele><time>2026-04-29T12:54:49.001Z</time></trkpt><trkpt lat="43.35010765472275" lon="12.284317631077748"><ele>250.0</ele><time>2026-04-29T12:54:50.001Z</time></trkpt><trkpt lat="43.35000522620381" lon="12.284422881449437"><ele>250.0</ele><time>2026-04-29T12:54:51.001Z</time></trkpt><trkpt lat="43.34989412993354" lon="12.284537007259313"><ele>250.0</ele><time>2026-04-29T12:54:52.001Z</time></trkpt><trkpt lat="43.34977503315699" lon="12.284660814479832"><ele>250.0</ele><time>2026-04-29T12:54:53.001Z</time></trkpt><trkpt lat="43.34964994668026" lon="12.284795932696825"><ele>250.33333333333331</ele><time>2026-04-29T12:54:54.001Z</time></trkpt><trkpt lat="43.34951687850949" lon="12.284941759242763"><ele>250.66666666666669</ele><time>2026-04-29T12:54:55.001Z</time></trkpt><trkpt lat="43.349378206708806" lon="12.285096168474109"><ele>251.0</ele><time>2026-04-29T12:54:56.001Z</time></trkpt><trkpt lat="43.34923458520901" lon="12.28525244244507"><ele>251.0</ele><time>2026-04-29T12:54:57.001Z</time></trkpt><trkpt lat="43.34908326405221" lon="12.2854122940928"><ele>251.0</ele><time>2026-04-29T12:54:58.001Z</time></trkpt><trkpt lat="43.34892912392167" lon="12.28557840254762"><ele>251.0</ele><time>2026-04-29T12:54:59.001Z</time></trkpt><trkpt lat="43.34876939591255" lon="12.285751132349292"><ele>250.33333333333334</ele><time>2026-04-29T12:55:00.001Z</time></trkpt><trkpt lat="43.34860662465963" lon="12.285927491103438"><ele>249.66666666666669</ele><time>2026-04-29T12:55:01.001Z</time></trkpt><trkpt lat="43.34844036919465" lon="12.286107683056176"><ele>249.0</ele><time>2026-04-29T12:55:02.001Z</time></trkpt><trkpt lat="43.34827216898378" lon="12.286291206438642"><ele>249.33333333333331</ele><time>2026-04-29T12:55:03.001Z</time></trkpt><trkpt lat="43.34810097689511" lon="12.286479492781996"><ele>249.66666666666666</ele><time>2026-04-29T12:55:04.001Z</time></trkpt><trkpt lat="43.34792843605275" lon="12.286668258049001"><ele>250.0</ele><time>2026-04-29T12:55:05.001Z</time></trkpt><trkpt lat="43.347753230549955" lon="12.286857443462248"><ele>250.0</ele><time>2026-04-29T12:55:06.001Z</time></trkpt><trkpt lat="43.347577086779566" lon="12.287046252661622"><ele>250.0</ele><time>2026-04-29T12:55:07.001Z</time></trkpt><trkpt lat="43.34739895277271" lon="12.287235400182556"><ele>250.0</ele><time>2026-04-29T12:55:08.001Z</time></trkpt><trkpt lat="43.34722096555652" lon="12.287426501519507"><ele>251.33333333333331</ele><time>2026-04-29T12:55:09.001Z</time></trkpt><trkpt lat="43.347044466589615" lon="12.287617648528672"><ele>252.66666666666669</ele><time>2026-04-29T12:55:10.001Z</time></trkpt><trkpt lat="43.346869124873486" lon="12.287803624495526"><ele>254.0</ele><time>2026-04-29T12:55:11.001Z</time></trkpt><trkpt lat="43.34668928266831" lon="12.287990351995452"><ele>257.0</ele><time>2026-04-29T12:55:12.001Z</time></trkpt><trkpt lat="43.3465110052121" lon="12.288180575368344"><ele>260.0</ele><time>2026-04-29T12:55:13.001Z</time></trkpt><trkpt lat="43.34633834654717" lon="12.288380559844136"><ele>260.5</ele><time>2026-04-29T12:55:14.001Z</time></trkpt><trkpt lat="43.34617600640928" lon="12.288597692305064"><ele>261.0</ele><time>2026-04-29T12:55:15.001Z</time></trkpt><trkpt lat="43.34602455375276" lon="12.288830285863229"><ele>261.0</ele><time>2026-04-29T12:55:16.001Z</time></trkpt><trkpt lat="43.34588545094443" lon="12.289078526768145"><ele>261.0</ele><time>2026-04-29T12:55:17.001Z</time></trkpt><trkpt lat="43.3457603987432" lon="12.28934146071284"><ele>261.0</ele><time>2026-04-29T12:55:18.001Z</time></trkpt><trkpt lat="43.34565144299734" lon="12.289616728912744"><ele>261.0</ele><time>2026-04-29T12:55:19.001Z</time></trkpt><trkpt lat="43.345551820355" lon="12.289899875183231"><ele>261.0</ele><time>2026-04-29T12:55:20.001Z</time></trkpt><trkpt lat="43.34545298927428" lon="12.290188092959141"><ele>261.0</ele><time>2026-04-29T12:55:21.001Z</time></trkpt><trkpt lat="43.345353617670185" lon="12.290479179301656"><ele>259.6666666666667</ele><time>2026-04-29T12:55:22.001Z</time></trkpt><trkpt lat="43.34525437455595" lon="12.290765117881126"><ele>258.33333333333337</ele><time>2026-04-29T12:55:23.001Z</time></trkpt><trkpt lat="43.345164423838476" lon="12.291025480140473"><ele>257.0</ele><time>2026-04-29T12:55:24.001Z</time></trkpt><trkpt lat="43.34507684705406" lon="12.291264301567896"><ele>256.33333333333337</ele><time>2026-04-29T12:55:25.001Z</time></trkpt><trkpt lat="43.34498680729394" lon="12.29147668861533"><ele>255.66666666666669</ele><time>2026-04-29T12:55:26.001Z</time></trkpt><trkpt lat="43.344877403297836" lon="12.291648398824913"><ele>255.0</ele><time>2026-04-29T12:55:27.001Z</time></trkpt><trkpt lat="43.344745022885434" lon="12.2917617712673"><ele>255.33333333333331</ele><time>2026-04-29T12:55:28.001Z</time></trkpt><trkpt lat="43.34458638920485" lon="12.291807651632027"><ele>255.66666666666666</ele><time>2026-04-29T12:55:29.001Z</time></trkpt><trkpt lat="43.34441739800396" lon="12.291838916693397"><ele>256.0</ele><time>2026-04-29T12:55:30.001Z</time></trkpt><trkpt lat="43.344241134289874" lon="12.291827224677489"><ele>256.0</ele><time>2026-04-29T12:55:31.001Z</time></trkpt><trkpt lat="43.344063400704734" lon="12.291823328219023"><ele>256.0</ele><time>2026-04-29T12:55:32.001Z</time></trkpt><trkpt lat="43.34387599610519" lon="12.291825723206788"><ele>256.0</ele><time>2026-04-29T12:55:33.001Z</time></trkpt><trkpt lat="43.34368354495673" lon="12.291828253380908"><ele>255.33333333333331</ele><time>2026-04-29T12:55:34.001Z</time></trkpt><trkpt lat="43.34348319912833" lon="12.291831223332013"><ele>254.66666666666669</ele><time>2026-04-29T12:55:35.001Z</time></trkpt><trkpt lat="43.343279307597456" lon="12.29183336354606"><ele>254.0</ele><time>2026-04-29T12:55:36.001Z</time></trkpt><trkpt lat="43.34306942397905" lon="12.291836123801827"><ele>255.33333333333334</ele><time>2026-04-29T12:55:37.001Z</time></trkpt><trkpt lat="43.34285361293145" lon="12.291839318963005"><ele>256.6666666666667</ele><time>2026-04-29T12:55:38.001Z</time></trkpt><trkpt lat="43.34265455608367" lon="12.291841505404268"><ele>258.0</ele><time>2026-04-29T12:55:39.001Z</time></trkpt><trkpt lat="43.34247470297943" lon="12.291845612561836"><ele>258.0</ele><time>2026-04-29T12:55:40.001Z</time></trkpt><trkpt lat="43.34230973916581" lon="12.291854941898203"><ele>258.0</ele><time>2026-04-29T12:55:41.001Z</time></trkpt><trkpt lat="43.34216622581282" lon="12.291865893780384"><ele>258.0</ele><time>2026-04-29T12:55:42.001Z</time></trkpt><trkpt lat="43.34204262293244" lon="12.291869837587567"><ele>258.0</ele><time>2026-04-29T12:55:43.001Z</time></trkpt><trkpt lat="43.34194718274594" lon="12.291849718004055"><ele>260.4</ele><time>2026-04-29T12:55:44.001Z</time></trkpt><trkpt lat="43.341876673138316" lon="12.29179182957541"><ele>262.8</ele><time>2026-04-29T12:55:45.001Z</time></trkpt><trkpt lat="43.3418397742408" lon="12.29168597619068"><ele>265.2</ele><time>2026-04-29T12:55:46.001Z</time></trkpt><trkpt lat="43.34182157028274" lon="12.29155713618008"><ele>267.6</ele><time>2026-04-29T12:55:47.001Z</time></trkpt><trkpt lat="43.34183695196951" lon="12.291416679593857"><ele>270.0</ele><time>2026-04-29T12:55:48.001Z</time></trkpt><trkpt lat="43.34188722405063" lon="12.29126003709677"><ele>271.75</ele><time>2026-04-29T12:55:49.001Z</time></trkpt><trkpt lat="43.34193803096359" lon="12.291095037036317"><ele>273.5</ele><time>2026-04-29T12:55:50.001Z</time></trkpt><trkpt lat="43.3419832656515" lon="12.290915588463575"><ele>275.25</ele><time>2026-04-29T12:55:51.001Z</time></trkpt><trkpt lat="43.34203596882647" lon="12.290710196043882"><ele>277.0</ele><time>2026-04-29T12:55:52.001Z</time></trkpt><trkpt lat="43.34209637318995" lon="12.290486492291217"><ele>279.3333333333333</ele><time>2026-04-29T12:55:53.001Z</time></trkpt><trkpt lat="43.34216199438363" lon="12.290254876637988"><ele>281.6666666666667</ele><time>2026-04-29T12:55:54.002Z</time></trkpt><trkpt lat="43.34223002009338" lon="12.290009419113417"><ele>284.0</ele><time>2026-04-29T12:55:55Z</time></trkpt><trkpt lat="43.34229929091793" lon="12.289755618257898"><ele>278.33333333333337</ele><time>2026-04-29T12:55:56Z</time></trkpt><trkpt lat="43.34236875418262" lon="12.28949484234946"><ele>272.6666666666667</ele><time>2026-04-29T12:55:57Z</time></trkpt><trkpt lat="43.34243901819396" lon="12.289231814132894"><ele>267.0</ele><time>2026-04-29T12:55:58Z</time></trkpt><trkpt lat="43.34251529349549" lon="12.288961463460023"><ele>269.0</ele><time>2026-04-29T12:55:59Z</time></trkpt><trkpt lat="43.342591990081026" lon="12.288694191744627"><ele>271.0</ele><time>2026-04-29T12:56:00Z</time></trkpt><trkpt lat="43.342654768087144" lon="12.288438076546555"><ele>273.0</ele><time>2026-04-29T12:56:01Z</time></trkpt><trkpt lat="43.342688391175095" lon="12.288183561713264"><ele>272.3333333333333</ele><time>2026-04-29T12:56:02Z</time></trkpt><trkpt lat="43.34268653337998" lon="12.287928711105552"><ele>271.66666666666663</ele><time>2026-04-29T12:56:03Z</time></trkpt><trkpt lat="43.34264751368627" lon="12.287675910809243"><ele>271.0</ele><time>2026-04-29T12:56:04Z</time></trkpt><trkpt lat="43.342580643513365" lon="12.287410702459137"><ele>269.66666666666663</ele><time>2026-04-29T12:56:05Z</time></trkpt><trkpt lat="43.34253819007271" lon="12.287123907103219"><ele>268.3333333333333</ele><time>2026-04-29T12:56:06Z</time></trkpt><trkpt lat="43.34247810874618" lon="12.28683888754463"><ele>267.0</ele><time>2026-04-29T12:56:07Z</time></trkpt><trkpt lat="43.342469201507235" lon="12.286541539098605"><ele>267.3333333333333</ele><time>2026-04-29T12:56:08Z</time></trkpt><trkpt lat="43.34250440680406" lon="12.286245929575854"><ele>267.66666666666663</ele><time>2026-04-29T12:56:09Z</time></trkpt><trkpt lat="43.34253211111745" lon="12.28593200541762"><ele>268.0</ele><time>2026-04-29T12:56:10Z</time></trkpt><trkpt lat="43.34257765341119" lon="12.285622933544596"><ele>269.3333333333333</ele><time>2026-04-29T12:56:11Z</time></trkpt><trkpt lat="43.342618952459915" lon="12.285335872728703"><ele>270.6666666666667</ele><time>2026-04-29T12:56:12Z</time></trkpt><trkpt lat="43.34267410253563" lon="12.28508733844089"><ele>272.0</ele><time>2026-04-29T12:56:13Z</time></trkpt><trkpt lat="43.34276552632769" lon="12.284866517236097"><ele>273.33333333333337</ele><time>2026-04-29T12:56:14Z</time></trkpt><trkpt lat="43.342914409614224" lon="12.284709962345625"><ele>274.6666666666667</ele><time>2026-04-29T12:56:15Z</time></trkpt><trkpt lat="43.34305250403146" lon="12.284538935699434"><ele>276.0</ele><time>2026-04-29T12:56:16Z</time></trkpt><trkpt lat="43.34318925377861" lon="12.284355839164764"><ele>274.6666666666667</ele><time>2026-04-29T12:56:17Z</time></trkpt><trkpt lat="43.34334163590105" lon="12.28417692998192"><ele>273.33333333333337</ele><time>2026-04-29T12:56:18Z</time></trkpt><trkpt lat="43.3434896033239" lon="12.283992172980442"><ele>272.0</ele><time>2026-04-29T12:56:19Z</time></trkpt><trkpt lat="43.34364862562095" lon="12.283802571375249"><ele>272.0</ele><time>2026-04-29T12:56:20Z</time></trkpt><trkpt lat="43.343832832100446" lon="12.283645284791502"><ele>272.0</ele><time>2026-04-29T12:56:21Z</time></trkpt><trkpt lat="43.344024376013145" lon="12.283482825339348"><ele>272.0</ele><time>2026-04-29T12:56:22Z</time></trkpt><trkpt lat="43.34421659073283" lon="12.283316218686403"><ele>270.0</ele><time>2026-04-29T12:56:23Z</time></trkpt><trkpt lat="43.344424068854124" lon="12.28316713249824"><ele>268.0</ele><time>2026-04-29T12:56:24Z</time></trkpt><trkpt lat="43.344632441327285" lon="12.283002056235095"><ele>265.5</ele><time>2026-04-29T12:56:25Z</time></trkpt><trkpt lat="43.34483728356593" lon="12.282820157609759"><ele>263.0</ele><time>2026-04-29T12:56:26Z</time></trkpt><trkpt lat="43.34504303824363" lon="12.282631454375371"><ele>263.0</ele><time>2026-04-29T12:56:27Z</time></trkpt><trkpt lat="43.34524868867899" lon="12.282423936170497"><ele>263.0</ele><time>2026-04-29T12:56:28Z</time></trkpt><trkpt lat="43.34544814405283" lon="12.282204641270221"><ele>262.5</ele><time>2026-04-29T12:56:29Z</time></trkpt><trkpt lat="43.34564273879768" lon="12.281968707875631"><ele>262.0</ele><time>2026-04-29T12:56:30Z</time></trkpt><trkpt lat="43.34583406676842" lon="12.281724416576678"><ele>262.0</ele><time>2026-04-29T12:56:31Z</time></trkpt><trkpt lat="43.3460200258962" lon="12.281478854555788"><ele>262.0</ele><time>2026-04-29T12:56:32Z</time></trkpt><trkpt lat="43.346203248089104" lon="12.281226031040411"><ele>259.5</ele><time>2026-04-29T12:56:33Z</time></trkpt><trkpt lat="43.34638735655812" lon="12.28097678197882"><ele>257.0</ele><time>2026-04-29T12:56:34Z</time></trkpt><trkpt lat="43.34657474152927" lon="12.280725575367706"><ele>259.5</ele><time>2026-04-29T12:56:35Z</time></trkpt><trkpt lat="43.34676026914214" lon="12.280472267714666"><ele>262.0</ele><time>2026-04-29T12:56:36Z</time></trkpt><trkpt lat="43.34693990887143" lon="12.280204308226386"><ele>262.0</ele><time>2026-04-29T12:56:37Z</time></trkpt><trkpt lat="43.34711970066572" lon="12.2799483389684"><ele>262.0</ele><time>2026-04-29T12:56:38Z</time></trkpt><trkpt lat="43.34726918381658" lon="12.279647111728769"><ele>259.5</ele><time>2026-04-29T12:56:39Z</time></trkpt><trkpt lat="43.347430732426076" lon="12.279361883262538"><ele>257.0</ele><time>2026-04-29T12:56:40Z</time></trkpt><trkpt lat="43.34760257727308" lon="12.279095488285478"><ele>261.0</ele><time>2026-04-29T12:56:41Z</time></trkpt><trkpt lat="43.34774026076762" lon="12.278788210358773"><ele>265.0</ele><time>2026-04-29T12:56:42Z</time></trkpt><trkpt lat="43.347872209914094" lon="12.278477739785094"><ele>265.0</ele><time>2026-04-29T12:56:43Z</time></trkpt><trkpt lat="43.3479830136065" lon="12.27815419612316"><ele>265.0</ele><time>2026-04-29T12:56:44Z</time></trkpt><trkpt lat="43.3480895218541" lon="12.277814940287032"><ele>261.0</ele><time>2026-04-29T12:56:45Z</time></trkpt><trkpt lat="43.34820121266599" lon="12.277476727605857"><ele>257.0</ele><time>2026-04-29T12:56:46Z</time></trkpt><trkpt lat="43.348317907319306" lon="12.277130383202703"><ele>257.0</ele><time>2026-04-29T12:56:47Z</time></trkpt><trkpt lat="43.34843772891461" lon="12.276781119776617"><ele>257.0</ele><time>2026-04-29T12:56:48Z</time></trkpt><trkpt lat="43.34855396710666" lon="12.276432560351475"><ele>261.5</ele><time>2026-04-29T12:56:49Z</time></trkpt><trkpt lat="43.34867208787806" lon="12.276078137621445"><ele>266.0</ele><time>2026-04-29T12:56:50Z</time></trkpt><trkpt lat="43.348788071499925" lon="12.275733724166766"><ele>259.0</ele><time>2026-04-29T12:56:51Z</time></trkpt><trkpt lat="43.34889800987835" lon="12.275406591616814"><ele>252.0</ele><time>2026-04-29T12:56:52.001Z</time></trkpt><trkpt lat="43.34899926592422" lon="12.275095766725297"><ele>252.0</ele><time>2026-04-29T12:56:53.001Z</time></trkpt><trkpt lat="43.34908492760733" lon="12.274797320960777"><ele>252.0</ele><time>2026-04-29T12:56:54.001Z</time></trkpt><trkpt lat="43.34914630526284" lon="12.27450039615946"><ele>254.5</ele><time>2026-04-29T12:56:55.001Z</time></trkpt><trkpt lat="43.349183301340744" lon="12.274187725745694"><ele>257.0</ele><time>2026-04-29T12:56:56.001Z</time></trkpt><trkpt lat="43.34921169416981" lon="12.273867108217372"><ele>257.0</ele><time>2026-04-29T12:56:57.001Z</time></trkpt><trkpt lat="43.349244410201976" lon="12.273540144056758"><ele>257.0</ele><time>2026-04-29T12:56:58.001Z</time></trkpt><trkpt lat="43.34927813131532" lon="12.273216562013129"><ele>257.5</ele><time>2026-04-29T12:56:59.001Z</time></trkpt><trkpt lat="43.3493191120632" lon="12.272884696603699"><ele>258.0</ele><time>2026-04-29T12:57:00.001Z</time></trkpt><trkpt lat="43.349375902350225" lon="12.272556957810936"><ele>259.0</ele><time>2026-04-29T12:57:01.001Z</time></trkpt><trkpt lat="43.34945318004768" lon="12.272241044306016"><ele>260.0</ele><time>2026-04-29T12:57:02.001Z</time></trkpt><trkpt lat="43.34954216554056" lon="12.271932741074744"><ele>260.0</ele><time>2026-04-29T12:57:03.001Z</time></trkpt><trkpt lat="43.34963576997998" lon="12.271624757385974"><ele>260.0</ele><time>2026-04-29T12:57:04.001Z</time></trkpt><trkpt lat="43.34972375812642" lon="12.27132014667538"><ele>259.0</ele><time>2026-04-29T12:57:05.001Z</time></trkpt><trkpt lat="43.34981803552643" lon="12.271034314292017"><ele>258.0</ele><time>2026-04-29T12:57:06.001Z</time></trkpt><trkpt lat="43.349901304661415" lon="12.270743277232615"><ele>257.5</ele><time>2026-04-29T12:57:07.001Z</time></trkpt><trkpt lat="43.34992407845933" lon="12.270424626548609"><ele>257.0</ele><time>2026-04-29T12:57:08.001Z</time></trkpt><trkpt lat="43.34997429825099" lon="12.270129676165068"><ele>257.0</ele><time>2026-04-29T12:57:09.001Z</time></trkpt><trkpt lat="43.35002308234705" lon="12.269847291530844"><ele>257.0</ele><time>2026-04-29T12:57:10.001Z</time></trkpt><trkpt lat="43.350069792672244" lon="12.269589723008494"><ele>257.0</ele><time>2026-04-29T12:57:11.001Z</time></trkpt><trkpt lat="43.350091071117575" lon="12.269359355220622"><ele>257.33333333333337</ele><time>2026-04-29T12:57:12.001Z</time></trkpt><trkpt lat="43.35006316373989" lon="12.269130242578408"><ele>257.6666666666667</ele><time>2026-04-29T12:57:13.001Z</time></trkpt><trkpt lat="43.34999878860087" lon="12.268912842897741"><ele>258.0</ele><time>2026-04-29T12:57:14.001Z</time></trkpt><trkpt lat="43.34991016029114" lon="12.268701635002301"><ele>258.0</ele><time>2026-04-29T12:57:15.001Z</time></trkpt><trkpt lat="43.34984618546253" lon="12.26850072899661"><ele>258.0</ele><time>2026-04-29T12:57:16.001Z</time></trkpt><trkpt lat="43.34981209101193" lon="12.26829580916248"><ele>258.0</ele><time>2026-04-29T12:57:17.001Z</time></trkpt><trkpt lat="43.34982114691316" lon="12.268102267542258"><ele>258.0</ele><time>2026-04-29T12:57:18.001Z</time></trkpt><trkpt lat="43.349900743687854" lon="12.26792008871958"><ele>258.0</ele><time>2026-04-29T12:57:19.001Z</time></trkpt><trkpt lat="43.34996765726114" lon="12.267695909317032"><ele>258.0</ele><time>2026-04-29T12:57:20.001Z</time></trkpt><trkpt lat="43.350061475786916" lon="12.267481059762398"><ele>258.6666666666667</ele><time>2026-04-29T12:57:21.001Z</time></trkpt><trkpt lat="43.350151893093084" lon="12.267241642644002"><ele>259.33333333333337</ele><time>2026-04-29T12:57:22.001Z</time></trkpt><trkpt lat="43.350223563735746" lon="12.266984860679113"><ele>260.0</ele><time>2026-04-29T12:57:23.001Z</time></trkpt><trkpt lat="43.35027465615132" lon="12.266705821706092"><ele>260.33333333333337</ele><time>2026-04-29T12:57:24.001Z</time></trkpt><trkpt lat="43.35030765253717" lon="12.266411734303261"><ele>260.6666666666667</ele><time>2026-04-29T12:57:25.001Z</time></trkpt><trkpt lat="43.350329247102906" lon="12.266106104362136"><ele>261.0</ele><time>2026-04-29T12:57:26.001Z</time></trkpt><trkpt lat="43.3503581318476" lon="12.265795243404371"><ele>260.5</ele><time>2026-04-29T12:57:27.001Z</time></trkpt><trkpt lat="43.35039151577839" lon="12.265479848521043"><ele>260.0</ele><time>2026-04-29T12:57:28.001Z</time></trkpt><trkpt lat="43.35042951948136" lon="12.265158667457277"><ele>260.0</ele><time>2026-04-29T12:57:29.001Z</time></trkpt><trkpt lat="43.35047067058527" lon="12.2648283874958"><ele>260.0</ele><time>2026-04-29T12:57:30.001Z</time></trkpt><trkpt lat="43.350506562928125" lon="12.264490234333248"><ele>258.0</ele><time>2026-04-29T12:57:31.001Z</time></trkpt><trkpt lat="43.35054564857059" lon="12.264147958427225"><ele>256.0</ele><time>2026-04-29T12:57:32.001Z</time></trkpt><trkpt lat="43.35058585486186" lon="12.263801404285395"><ele>255.5</ele><time>2026-04-29T12:57:33.001Z</time></trkpt><trkpt lat="43.350626399478685" lon="12.263448991980617"><ele>255.0</ele><time>2026-04-29T12:57:34.001Z</time></trkpt><trkpt lat="43.35066722992858" lon="12.263095285084372"><ele>254.5</ele><time>2026-04-29T12:57:35.001Z</time></trkpt><trkpt lat="43.35070652992446" lon="12.262742462016153"><ele>254.0</ele><time>2026-04-29T12:57:36.001Z</time></trkpt><trkpt lat="43.350745299697635" lon="12.26238890869134"><ele>255.0</ele><time>2026-04-29T12:57:37.001Z</time></trkpt><trkpt lat="43.350784786816526" lon="12.262033810953497"><ele>256.0</ele><time>2026-04-29T12:57:38.001Z</time></trkpt><trkpt lat="43.3508267097475" lon="12.261677236464097"><ele>257.0</ele><time>2026-04-29T12:57:39.001Z</time></trkpt><trkpt lat="43.35086789086155" lon="12.261319784522469"><ele>258.0</ele><time>2026-04-29T12:57:40.001Z</time></trkpt><trkpt lat="43.35091013837125" lon="12.260960894236879"><ele>259.0</ele><time>2026-04-29T12:57:41.001Z</time></trkpt><trkpt lat="43.35095197242448" lon="12.260602670111458"><ele>260.0</ele><time>2026-04-29T12:57:42.001Z</time></trkpt><trkpt lat="43.35099233692421" lon="12.260245666275047"><ele>260.0</ele><time>2026-04-29T12:57:43.001Z</time></trkpt><trkpt lat="43.3510306026887" lon="12.259891793255594"><ele>260.0</ele><time>2026-04-29T12:57:44.001Z</time></trkpt><trkpt lat="43.35107005921931" lon="12.259538067659639"><ele>260.5</ele><time>2026-04-29T12:57:45.001Z</time></trkpt><trkpt lat="43.35111072202082" lon="12.259180565263968"><ele>261.0</ele><time>2026-04-29T12:57:46.001Z</time></trkpt><trkpt lat="43.35115302469369" lon="12.258829557580599"><ele>262.5</ele><time>2026-04-29T12:57:47.001Z</time></trkpt><trkpt lat="43.35119552381893" lon="12.258480285339866"><ele>264.0</ele><time>2026-04-29T12:57:48.001Z</time></trkpt><trkpt lat="43.35123937899396" lon="12.258128787033042"><ele>264.5</ele><time>2026-04-29T12:57:49.001Z</time></trkpt><trkpt lat="43.351283833367546" lon="12.25777466849728"><ele>265.0</ele><time>2026-04-29T12:57:50.001Z</time></trkpt><trkpt lat="43.351334530852895" lon="12.257421622215851"><ele>262.5</ele><time>2026-04-29T12:57:51.001Z</time></trkpt><trkpt lat="43.3513983098301" lon="12.257073760088277"><ele>260.0</ele><time>2026-04-29T12:57:52.001Z</time></trkpt><trkpt lat="43.35146981904806" lon="12.256733982634803"><ele>259.5</ele><time>2026-04-29T12:57:53.001Z</time></trkpt><trkpt lat="43.3515439126697" lon="12.256395186538466"><ele>259.0</ele><time>2026-04-29T12:57:54.001Z</time></trkpt><trkpt lat="43.35161752426981" lon="12.256056927544838"><ele>259.0</ele><time>2026-04-29T12:57:55.001Z</time></trkpt><trkpt lat="43.35169431637672" lon="12.255712996761345"><ele>259.0</ele><time>2026-04-29T12:57:56.001Z</time></trkpt><trkpt lat="43.35177125862163" lon="12.255374703156992"><ele>260.0</ele><time>2026-04-29T12:57:57.001Z</time></trkpt><trkpt lat="43.35185093066817" lon="12.25503176362025"><ele>261.0</ele><time>2026-04-29T12:57:58.001Z</time></trkpt><trkpt lat="43.35192665467377" lon="12.254690362732573"><ele>262.5</ele><time>2026-04-29T12:57:59.001Z</time></trkpt><trkpt lat="43.351996454917774" lon="12.254347450550526"><ele>264.0</ele><time>2026-04-29T12:58:00.001Z</time></trkpt><trkpt lat="43.352040900061596" lon="12.254001491792774"><ele>265.0</ele><time>2026-04-29T12:58:01Z</time></trkpt><trkpt lat="43.3520692010629" lon="12.253650046932652"><ele>266.0</ele><time>2026-04-29T12:58:02Z</time></trkpt><trkpt lat="43.352084743876404" lon="12.25329961428802"><ele>267.0</ele><time>2026-04-29T12:58:03Z</time></trkpt><trkpt lat="43.35209133228606" lon="12.252950483555528"><ele>268.0</ele><time>2026-04-29T12:58:04Z</time></trkpt><trkpt lat="43.35210062441712" lon="12.252599171993047"><ele>268.5</ele><time>2026-04-29T12:58:05Z</time></trkpt><trkpt lat="43.35211132648849" lon="12.252249646431801"><ele>269.0</ele><time>2026-04-29T12:58:06Z</time></trkpt><trkpt lat="43.35212313321661" lon="12.251897632493318"><ele>269.0</ele><time>2026-04-29T12:58:07Z</time></trkpt><trkpt lat="43.35213469279415" lon="12.251548829723868"><ele>269.0</ele><time>2026-04-29T12:58:08Z</time></trkpt><trkpt lat="43.352144087101884" lon="12.251215542095213"><ele>269.0</ele><time>2026-04-29T12:58:09Z</time></trkpt><trkpt lat="43.35215579975143" lon="12.250888321473008"><ele>269.0</ele><time>2026-04-29T12:58:10Z</time></trkpt><trkpt lat="43.352171954539344" lon="12.250562169020922"><ele>269.0</ele><time>2026-04-29T12:58:11Z</time></trkpt><trkpt lat="43.3522008460154" lon="12.250235961488247"><ele>269.0</ele><time>2026-04-29T12:58:12Z</time></trkpt><trkpt lat="43.35224663152335" lon="12.24991082934465"><ele>266.0</ele><time>2026-04-29T12:58:13Z</time></trkpt><trkpt lat="43.35230107626305" lon="12.249583371287173"><ele>263.0</ele><time>2026-04-29T12:58:14Z</time></trkpt><trkpt lat="43.3523660478657" lon="12.249251400562054"><ele>264.0</ele><time>2026-04-29T12:58:15Z</time></trkpt><trkpt lat="43.35243554112762" lon="12.248917189667713"><ele>265.0</ele><time>2026-04-29T12:58:16Z</time></trkpt><trkpt lat="43.35250780896372" lon="12.248580059539997"><ele>265.0</ele><time>2026-04-29T12:58:17Z</time></trkpt><trkpt lat="43.35258111875676" lon="12.248239237429388"><ele>265.0</ele><time>2026-04-29T12:58:18Z</time></trkpt><trkpt lat="43.35265421440938" lon="12.247897888940713"><ele>265.5</ele><time>2026-04-29T12:58:19Z</time></trkpt><trkpt lat="43.352725408695306" lon="12.247556320826467"><ele>266.0</ele><time>2026-04-29T12:58:20Z</time></trkpt><trkpt lat="43.35279975271899" lon="12.247214087486682"><ele>267.0</ele><time>2026-04-29T12:58:21Z</time></trkpt><trkpt lat="43.352884413422856" lon="12.246876046132629"><ele>268.0</ele><time>2026-04-29T12:58:22Z</time></trkpt><trkpt lat="43.352982425009706" lon="12.2465441044363"><ele>265.5</ele><time>2026-04-29T12:58:23Z</time></trkpt><trkpt lat="43.35308862368869" lon="12.246215721001558"><ele>263.0</ele><time>2026-04-29T12:58:24Z</time></trkpt><trkpt lat="43.353194732085086" lon="12.245886309706497"><ele>265.0</ele><time>2026-04-29T12:58:25Z</time></trkpt><trkpt lat="43.35329993685784" lon="12.24556095435982"><ele>267.0</ele><time>2026-04-29T12:58:26Z</time></trkpt><trkpt lat="43.3534088553083" lon="12.245235463740219"><ele>267.0</ele><time>2026-04-29T12:58:27Z</time></trkpt><trkpt lat="43.35351905796601" lon="12.244908350042609"><ele>267.0</ele><time>2026-04-29T12:58:28Z</time></trkpt><trkpt lat="43.35361934413508" lon="12.244585063276276"><ele>271.5</ele><time>2026-04-29T12:58:29Z</time></trkpt><trkpt lat="43.35370382693937" lon="12.244254783029907"><ele>276.0</ele><time>2026-04-29T12:58:30Z</time></trkpt><trkpt lat="43.353775448583505" lon="12.243917853342872"><ele>278.0</ele><time>2026-04-29T12:58:31Z</time></trkpt><trkpt lat="43.353841958299704" lon="12.243577991838357"><ele>280.0</ele><time>2026-04-29T12:58:32Z</time></trkpt><trkpt lat="43.35389935760386" lon="12.243239817035647"><ele>272.5</ele><time>2026-04-29T12:58:33Z</time></trkpt><trkpt lat="43.35394526766665" lon="12.24290304977438"><ele>265.0</ele><time>2026-04-29T12:58:34Z</time></trkpt><trkpt lat="43.35398232299587" lon="12.242562920951542"><ele>265.5</ele><time>2026-04-29T12:58:35Z</time></trkpt><trkpt lat="43.354014478790326" lon="12.242225886121776"><ele>266.0</ele><time>2026-04-29T12:58:36Z</time></trkpt><trkpt lat="43.354047984385936" lon="12.24188713238001"><ele>266.0</ele><time>2026-04-29T12:58:37Z</time></trkpt><trkpt lat="43.354079400913314" lon="12.241564475198334"><ele>266.0</ele><time>2026-04-29T12:58:38Z</time></trkpt><trkpt lat="43.35411153915261" lon="12.241265174167967"><ele>266.0</ele><time>2026-04-29T12:58:39Z</time></trkpt><trkpt lat="43.3541456817813" lon="12.240982639487669"><ele>266.0</ele><time>2026-04-29T12:58:40Z</time></trkpt><trkpt lat="43.35417702388176" lon="12.240717485772752"><ele>266.0</ele><time>2026-04-29T12:58:41Z</time></trkpt><trkpt lat="43.354201569070106" lon="12.240465961852223"><ele>265.33333333333337</ele><time>2026-04-29T12:58:42Z</time></trkpt><trkpt lat="43.3542218949966" lon="12.240228079923872"><ele>264.6666666666667</ele><time>2026-04-29T12:58:43Z</time></trkpt><trkpt lat="43.354243214214286" lon="12.240006412930159"><ele>264.0</ele><time>2026-04-29T12:58:44Z</time></trkpt><trkpt lat="43.354258482876006" lon="12.239794474887507"><ele>264.0</ele><time>2026-04-29T12:58:45Z</time></trkpt><trkpt lat="43.35427330126137" lon="12.23958951360329"><ele>264.0</ele><time>2026-04-29T12:58:46Z</time></trkpt><trkpt lat="43.35428503006015" lon="12.239395507393935"><ele>264.0</ele><time>2026-04-29T12:58:47Z</time></trkpt><trkpt lat="43.35429688898372" lon="12.239205880613412"><ele>264.0</ele><time>2026-04-29T12:58:48Z</time></trkpt><trkpt lat="43.35435435100612" lon="12.239003533995408"><ele>265.0</ele><time>2026-04-29T12:58:49Z</time></trkpt><trkpt lat="43.354402784421204" lon="12.238798727050785"><ele>266.0</ele><time>2026-04-29T12:58:50Z</time></trkpt><trkpt lat="43.354471141713766" lon="12.238594334941396"><ele>267.0</ele><time>2026-04-29T12:58:51Z</time></trkpt><trkpt lat="43.35456180488745" lon="12.238395903740024"><ele>267.0</ele><time>2026-04-29T12:58:52Z</time></trkpt><trkpt lat="43.35467660178757" lon="12.238209898173448"><ele>267.0</ele><time>2026-04-29T12:58:53Z</time></trkpt><trkpt lat="43.35480213742975" lon="12.23804005704301"><ele>267.0</ele><time>2026-04-29T12:58:54Z</time></trkpt><trkpt lat="43.35493735143834" lon="12.23789992482874"><ele>265.0</ele><time>2026-04-29T12:58:55Z</time></trkpt><trkpt lat="43.3550862918077" lon="12.237788986210676"><ele>263.0</ele><time>2026-04-29T12:58:56Z</time></trkpt><trkpt lat="43.355245626105514" lon="12.23769704398531"><ele>261.0</ele><time>2026-04-29T12:58:57Z</time></trkpt><trkpt lat="43.35541220862233" lon="12.237626383339395"><ele>260.3333333333333</ele><time>2026-04-29T12:58:58Z</time></trkpt><trkpt lat="43.355587656229226" lon="12.23759137027331"><ele>259.66666666666663</ele><time>2026-04-29T12:58:59Z</time></trkpt><trkpt lat="43.35576969550988" lon="12.237567495479013"><ele>259.0</ele><time>2026-04-29T12:59:00Z</time></trkpt><trkpt lat="43.35595472838866" lon="12.237549259829409"><ele>259.0</ele><time>2026-04-29T12:59:01Z</time></trkpt><trkpt lat="43.35614238649503" lon="12.237528422465308"><ele>259.0</ele><time>2026-04-29T12:59:02Z</time></trkpt><trkpt lat="43.356334797314325" lon="12.237505997507991"><ele>259.0</ele><time>2026-04-29T12:59:03Z</time></trkpt><trkpt lat="43.35652491970325" lon="12.237483980691053"><ele>259.0</ele><time>2026-04-29T12:59:04Z</time></trkpt><trkpt lat="43.35672194817768" lon="12.237460298766038"><ele>259.0</ele><time>2026-04-29T12:59:05Z</time></trkpt><trkpt lat="43.35691946373509" lon="12.237435474173296"><ele>259.0</ele><time>2026-04-29T12:59:06.001Z</time></trkpt><trkpt lat="43.357119657341386" lon="12.23740916427385"><ele>259.0</ele><time>2026-04-29T12:59:07.001Z</time></trkpt><trkpt lat="43.35732032468049" lon="12.237379639184738"><ele>259.0</ele><time>2026-04-29T12:59:08.001Z</time></trkpt><trkpt lat="43.357522292285104" lon="12.237349551186567"><ele>259.0</ele><time>2026-04-29T12:59:09.001Z</time></trkpt><trkpt lat="43.35772561620275" lon="12.23731805168377"><ele>259.0</ele><time>2026-04-29T12:59:10.001Z</time></trkpt><trkpt lat="43.35792642170785" lon="12.237284479491036"><ele>259.0</ele><time>2026-04-29T12:59:11.001Z</time></trkpt><trkpt lat="43.35812635514796" lon="12.237251749468784"><ele>259.0</ele><time>2026-04-29T12:59:12.001Z</time></trkpt><trkpt lat="43.35831174425978" lon="12.237224226981215"><ele>259.0</ele><time>2026-04-29T12:59:13.001Z</time></trkpt><trkpt lat="43.35846618892107" lon="12.237203750268987"><ele>259.0</ele><time>2026-04-29T12:59:14.001Z</time></trkpt><trkpt lat="43.35860857169299" lon="12.237193732244172"><ele>259.0</ele><time>2026-04-29T12:59:15.001Z</time></trkpt><trkpt lat="43.35875162840976" lon="12.237202062717431"><ele>259.0</ele><time>2026-04-29T12:59:16.001Z</time></trkpt><trkpt lat="43.358893847043305" lon="12.237234234923376"><ele>259.0</ele><time>2026-04-29T12:59:17.001Z</time></trkpt><trkpt lat="43.359042139706595" lon="12.237271179070795"><ele>259.0</ele><time>2026-04-29T12:59:18.001Z</time></trkpt><trkpt lat="43.359196250293344" lon="12.237294316304528"><ele>259.0</ele><time>2026-04-29T12:59:19.001Z</time></trkpt><trkpt lat="43.35935159242104" lon="12.237320122475355"><ele>259.0</ele><time>2026-04-29T12:59:20.001Z</time></trkpt><trkpt lat="43.35950706212014" lon="12.237364140958173"><ele>259.0</ele><time>2026-04-29T12:59:21.001Z</time></trkpt><trkpt lat="43.359663346734976" lon="12.237427851202108"><ele>259.0</ele><time>2026-04-29T12:59:22.001Z</time></trkpt><trkpt lat="43.35981776458905" lon="12.237462668990451"><ele>259.0</ele><time>2026-04-29T12:59:23.001Z</time></trkpt><trkpt lat="43.35998259041099" lon="12.237530375525731"><ele>259.0</ele><time>2026-04-29T12:59:24.001Z</time></trkpt><trkpt lat="43.360145096604015" lon="12.237602185340416"><ele>259.0</ele><time>2026-04-29T12:59:25.001Z</time></trkpt><trkpt lat="43.36031342498003" lon="12.237675398324505"><ele>259.0</ele><time>2026-04-29T12:59:26.001Z</time></trkpt><trkpt lat="43.36048547032708" lon="12.237743370264862"><ele>259.0</ele><time>2026-04-29T12:59:27.001Z</time></trkpt><trkpt lat="43.36065876271887" lon="12.237795303080702"><ele>259.0</ele><time>2026-04-29T12:59:28.001Z</time></trkpt><trkpt lat="43.360832338478886" lon="12.23786140951627"><ele>258.66666666666663</ele><time>2026-04-29T12:59:29.001Z</time></trkpt><trkpt lat="43.36099447288905" lon="12.237916455888476"><ele>258.3333333333333</ele><time>2026-04-29T12:59:30.001Z</time></trkpt><trkpt lat="43.361143720578596" lon="12.23793424784073"><ele>258.0</ele><time>2026-04-29T12:59:31.001Z</time></trkpt><trkpt lat="43.36127662726905" lon="12.237909867703662"><ele>258.25</ele><time>2026-04-29T12:59:32.001Z</time></trkpt><trkpt lat="43.36140950796503" lon="12.237873697325309"><ele>258.5</ele><time>2026-04-29T12:59:33.001Z</time></trkpt><trkpt lat="43.361535861564654" lon="12.237854495638555"><ele>258.75</ele><time>2026-04-29T12:59:34.001Z</time></trkpt><trkpt lat="43.361656070443985" lon="12.237839298711169"><ele>259.0</ele><time>2026-04-29T12:59:35.001Z</time></trkpt><trkpt lat="43.36176819708458" lon="12.237825003738534"><ele>259.0</ele><time>2026-04-29T12:59:36.001Z</time></trkpt><trkpt lat="43.36187325870588" lon="12.23781021855934"><ele>259.0</ele><time>2026-04-29T12:59:37.001Z</time></trkpt><trkpt lat="43.36197437720366" lon="12.237794859203705"><ele>259.0</ele><time>2026-04-29T12:59:38.001Z</time></trkpt><trkpt lat="43.3620686920284" lon="12.237772012469339"><ele>259.0</ele><time>2026-04-29T12:59:39.001Z</time></trkpt><trkpt lat="43.362160271699445" lon="12.237751878570984"><ele>259.0</ele><time>2026-04-29T12:59:40.001Z</time></trkpt><trkpt lat="43.362248784960435" lon="12.237748178276997"><ele>259.0</ele><time>2026-04-29T12:59:41.001Z</time></trkpt><trkpt lat="43.36232874636147" lon="12.237749166653689"><ele>259.0</ele><time>2026-04-29T12:59:42.001Z</time></trkpt><trkpt lat="43.36238869165444" lon="12.237714620002436"><ele>259.0</ele><time>2026-04-29T12:59:43.001Z</time></trkpt><trkpt lat="43.36241653153721" lon="12.237636351600676"><ele>259.0</ele><time>2026-04-29T12:59:44.001Z</time></trkpt><trkpt lat="43.36240011525852" lon="12.237537347729287"><ele>259.0</ele><time>2026-04-29T12:59:45.001Z</time></trkpt><trkpt lat="43.36235699676151" lon="12.23744074711204"><ele>259.0</ele><time>2026-04-29T12:59:46.001Z</time></trkpt><trkpt lat="43.36233278227173" lon="12.237335569981882"><ele>259.0</ele><time>2026-04-29T12:59:47.001Z</time></trkpt><trkpt lat="43.36230246964831" lon="12.237222772097965"><ele>259.0</ele><time>2026-04-29T12:59:48.001Z</time></trkpt><trkpt lat="43.36231944933213" lon="12.237069848778606"><ele>259.0</ele><time>2026-04-29T12:59:49.001Z</time></trkpt><trkpt lat="43.362314443910705" lon="12.236920310890977"><ele>259.0</ele><time>2026-04-29T12:59:50.001Z</time></trkpt><trkpt lat="43.36231919179509" lon="12.236756612689941"><ele>259.0</ele><time>2026-04-29T12:59:51.001Z</time></trkpt><trkpt lat="43.36231963061059" lon="12.23658726274945"><ele>259.0</ele><time>2026-04-29T12:59:52.001Z</time></trkpt><trkpt lat="43.36231976015279" lon="12.236403484286452"><ele>259.0</ele><time>2026-04-29T12:59:53.001Z</time></trkpt><trkpt lat="43.36231363152871" lon="12.236206877311082"><ele>259.0</ele><time>2026-04-29T12:59:54.001Z</time></trkpt><trkpt lat="43.36230974155563" lon="12.236007104082436"><ele>259.0</ele><time>2026-04-29T12:59:55.001Z</time></trkpt><trkpt lat="43.3623012626743" lon="12.235799595890706"><ele>259.0</ele><time>2026-04-29T12:59:56.001Z</time></trkpt><trkpt lat="43.362291187223455" lon="12.235585198657855"><ele>259.0</ele><time>2026-04-29T12:59:57.001Z</time></trkpt><trkpt lat="43.36228065238592" lon="12.235361295630009"><ele>259.0</ele><time>2026-04-29T12:59:58.001Z</time></trkpt><trkpt lat="43.36227178122256" lon="12.235137901204313"><ele>259.0</ele><time>2026-04-29T12:59:59.001Z</time></trkpt><trkpt lat="43.36225843560724" lon="12.234905069373314"><ele>259.0</ele><time>2026-04-29T13:00:00.001Z</time></trkpt><trkpt lat="43.36224623579742" lon="12.23466643872076"><ele>259.0</ele><time>2026-04-29T13:00:01.001Z</time></trkpt><trkpt lat="43.36223834923103" lon="12.234425777114412"><ele>258.66666666666663</ele><time>2026-04-29T13:00:02.001Z</time></trkpt><trkpt lat="43.36223147433098" lon="12.234181661883477"><ele>258.3333333333333</ele><time>2026-04-29T13:00:03.001Z</time></trkpt><trkpt lat="43.36222011661078" lon="12.233936580493358"><ele>258.0</ele><time>2026-04-29T13:00:04.001Z</time></trkpt><trkpt lat="43.362208669371256" lon="12.233689716129783"><ele>257.6666666666667</ele><time>2026-04-29T13:00:05.001Z</time></trkpt><trkpt lat="43.362195479763194" lon="12.233440187157042"><ele>257.33333333333337</ele><time>2026-04-29T13:00:06.001Z</time></trkpt><trkpt lat="43.36218281590135" lon="12.233187181978161"><ele>257.0</ele><time>2026-04-29T13:00:07Z</time></trkpt><trkpt lat="43.36217114813592" lon="12.232934687074954"><ele>257.0</ele><time>2026-04-29T13:00:08Z</time></trkpt><trkpt lat="43.36215602909842" lon="12.232678284475496"><ele>257.0</ele><time>2026-04-29T13:00:09Z</time></trkpt><trkpt lat="43.362142908100914" lon="12.23242131416571"><ele>257.0</ele><time>2026-04-29T13:00:10Z</time></trkpt><trkpt lat="43.36213015093213" lon="12.232165646326596"><ele>257.0</ele><time>2026-04-29T13:00:11Z</time></trkpt><trkpt lat="43.36210599636495" lon="12.231670455011189"><ele>257.0</ele><time>2026-04-29T13:00:13Z</time></trkpt><trkpt lat="43.36209514244499" lon="12.231436808691452"><ele>256.6666666666667</ele><time>2026-04-29T13:00:14Z</time></trkpt><trkpt lat="43.36208264309644" lon="12.231206294676129"><ele>256.3333333333333</ele><time>2026-04-29T13:00:15Z</time></trkpt><trkpt lat="43.362066685545244" lon="12.230994353249935"><ele>256.0</ele><time>2026-04-29T13:00:16Z</time></trkpt><trkpt lat="43.3620424946666" lon="12.230575039911635"><ele>256.0</ele><time>2026-04-29T13:00:18Z</time></trkpt><trkpt lat="43.36203301437848" lon="12.230381310963045"><ele>256.0</ele><time>2026-04-29T13:00:19Z</time></trkpt><trkpt lat="43.3620197920787" lon="12.230192632314058"><ele>256.0</ele><time>2026-04-29T13:00:20Z</time></trkpt><trkpt lat="43.36200870710056" lon="12.23001222987872"><ele>256.0</ele><time>2026-04-29T13:00:21Z</time></trkpt><trkpt lat="43.36199827498814" lon="12.22984835795688"><ele>256.0</ele><time>2026-04-29T13:00:22Z</time></trkpt><trkpt lat="43.3619872062049" lon="12.229696828742474"><ele>256.0</ele><time>2026-04-29T13:00:23Z</time></trkpt><trkpt lat="43.361974727642085" lon="12.229553320246048"><ele>256.0</ele><time>2026-04-29T13:00:24Z</time></trkpt><trkpt lat="43.36195908877988" lon="12.229419869638726"><ele>256.0</ele><time>2026-04-29T13:00:25Z</time></trkpt><trkpt lat="43.36194710924351" lon="12.229295492179874"><ele>256.0</ele><time>2026-04-29T13:00:26Z</time></trkpt><trkpt lat="43.361945948938676" lon="12.22918038562605"><ele>256.0</ele><time>2026-04-29T13:00:27Z</time></trkpt><trkpt lat="43.3619567273618" lon="12.229073413000807"><ele>255.99999999999997</ele><time>2026-04-29T13:00:28Z</time></trkpt><trkpt lat="43.36198337098194" lon="12.228980762496214"><ele>256.0</ele><time>2026-04-29T13:00:29Z</time></trkpt><trkpt lat="43.36203256928099" lon="12.228912270866225"><ele>256.0</ele><time>2026-04-29T13:00:30Z</time></trkpt><trkpt lat="43.36208332775724" lon="12.228854674363735"><ele>255.99999999999997</ele><time>2026-04-29T13:00:31Z</time></trkpt><trkpt lat="43.3621230745794" lon="12.228784411403476"><ele>256.0</ele><time>2026-04-29T13:00:32Z</time></trkpt><trkpt lat="43.362144999635014" lon="12.22869573609737"><ele>256.0</ele><time>2026-04-29T13:00:33Z</time></trkpt><trkpt lat="43.36213976769192" lon="12.2285961864086"><ele>256.16666666666663</ele><time>2026-04-29T13:00:34Z</time></trkpt><trkpt lat="43.3621002175465" lon="12.228515632748287"><ele>256.3333333333333</ele><time>2026-04-29T13:00:35Z</time></trkpt><trkpt lat="43.36202774617505" lon="12.22845356071396"><ele>256.5</ele><time>2026-04-29T13:00:36Z</time></trkpt><trkpt lat="43.361940213519" lon="12.228432438582512"><ele>256.6666666666667</ele><time>2026-04-29T13:00:37Z</time></trkpt><trkpt lat="43.36185181193814" lon="12.228455382472736"><ele>256.83333333333337</ele><time>2026-04-29T13:00:38Z</time></trkpt><trkpt lat="43.361776139793676" lon="12.22854142344262"><ele>257.0</ele><time>2026-04-29T13:00:39Z</time></trkpt><trkpt lat="43.36174262655821" lon="12.22866343488942"><ele>257.0</ele><time>2026-04-29T13:00:40Z</time></trkpt><trkpt lat="43.36175144060563" lon="12.228803629657042"><ele>257.0</ele><time>2026-04-29T13:00:41Z</time></trkpt><trkpt lat="43.36181913241181" lon="12.228923236529166"><ele>257.0</ele><time>2026-04-29T13:00:42Z</time></trkpt><trkpt lat="43.36190886077" lon="12.228988042483422"><ele>257.0</ele><time>2026-04-29T13:00:43Z</time></trkpt><trkpt lat="43.36200888518198" lon="12.228979558449508"><ele>257.0</ele><time>2026-04-29T13:00:44Z</time></trkpt><trkpt lat="43.36208717476584" lon="12.228896760408213"><ele>257.0</ele><time>2026-04-29T13:00:45Z</time></trkpt><trkpt lat="43.362137918209235" lon="12.228786315962822"><ele>257.0</ele><time>2026-04-29T13:00:46Z</time></trkpt><trkpt lat="43.36219964792476" lon="12.228663208609234"><ele>257.0</ele><time>2026-04-29T13:00:47Z</time></trkpt><trkpt lat="43.36229908604653" lon="12.228560495684498"><ele>257.0</ele><time>2026-04-29T13:00:48Z</time></trkpt><trkpt lat="43.362411670726026" lon="12.228474554138018"><ele>257.25</ele><time>2026-04-29T13:00:49Z</time></trkpt><trkpt lat="43.36253061528967" lon="12.228401311545841"><ele>257.5</ele><time>2026-04-29T13:00:50Z</time></trkpt><trkpt lat="43.36265243886803" lon="12.228324892410209"><ele>257.75</ele><time>2026-04-29T13:00:51Z</time></trkpt><trkpt lat="43.3627733706989" lon="12.228248408183962"><ele>258.0</ele><time>2026-04-29T13:00:52Z</time></trkpt><trkpt lat="43.36290006672484" lon="12.228175013591382"><ele>257.5</ele><time>2026-04-29T13:00:53Z</time></trkpt><trkpt lat="43.3630264013842" lon="12.228101453240827"><ele>257.0</ele><time>2026-04-29T13:00:54Z</time></trkpt><trkpt lat="43.36315177080016" lon="12.228029001520678"><ele>256.5</ele><time>2026-04-29T13:00:55Z</time></trkpt><trkpt lat="43.3632790505183" lon="12.227957735290445"><ele>256.0</ele><time>2026-04-29T13:00:56Z</time></trkpt><trkpt lat="43.36340775617162" lon="12.227888018671608"><ele>257.0</ele><time>2026-04-29T13:00:57Z</time></trkpt><trkpt lat="43.36353638006125" lon="12.227820354619029"><ele>258.0</ele><time>2026-04-29T13:00:58Z</time></trkpt><trkpt lat="43.36366700243743" lon="12.227750670256569"><ele>259.0</ele><time>2026-04-29T13:00:59Z</time></trkpt><trkpt lat="43.36379715344396" lon="12.227680096727317"><ele>260.0</ele><time>2026-04-29T13:01:00Z</time></trkpt><trkpt lat="43.363922056184975" lon="12.227604928143137"><ele>260.5</ele><time>2026-04-29T13:01:01Z</time></trkpt><trkpt lat="43.36404974262497" lon="12.227526212373702"><ele>261.0</ele><time>2026-04-29T13:01:02Z</time></trkpt><trkpt lat="43.36418475897212" lon="12.2274412616615"><ele>261.5</ele><time>2026-04-29T13:01:03Z</time></trkpt><trkpt lat="43.364335433364424" lon="12.22736280283229"><ele>262.0</ele><time>2026-04-29T13:01:04Z</time></trkpt><trkpt lat="43.36448865570286" lon="12.227284950712601"><ele>262.66666666666663</ele><time>2026-04-29T13:01:05Z</time></trkpt><trkpt lat="43.36464385023609" lon="12.227202214208189"><ele>263.3333333333333</ele><time>2026-04-29T13:01:06Z</time></trkpt><trkpt lat="43.364806557537555" lon="12.227111998819536"><ele>264.0</ele><time>2026-04-29T13:01:07Z</time></trkpt><trkpt lat="43.36496819487825" lon="12.227024727365889"><ele>264.3333333333333</ele><time>2026-04-29T13:01:08Z</time></trkpt><trkpt lat="43.365131753670084" lon="12.226932283812491"><ele>264.66666666666663</ele><time>2026-04-29T13:01:09Z</time></trkpt><trkpt lat="43.36529788892114" lon="12.226838968042316"><ele>265.0</ele><time>2026-04-29T13:01:10Z</time></trkpt><trkpt lat="43.365469755857355" lon="12.22674371707925"><ele>265.3333333333333</ele><time>2026-04-29T13:01:11Z</time></trkpt><trkpt lat="43.36563913695135" lon="12.226651228827137"><ele>265.6666666666667</ele><time>2026-04-29T13:01:12Z</time></trkpt><trkpt lat="43.365815542207194" lon="12.226558994724476"><ele>266.0</ele><time>2026-04-29T13:01:13Z</time></trkpt><trkpt lat="43.365988345181144" lon="12.226461894440957"><ele>266.0</ele><time>2026-04-29T13:01:14Z</time></trkpt><trkpt lat="43.366164895229545" lon="12.226359046596427"><ele>266.0</ele><time>2026-04-29T13:01:15Z</time></trkpt><trkpt lat="43.36633689105165" lon="12.226254405943894"><ele>266.0</ele><time>2026-04-29T13:01:16Z</time></trkpt><trkpt lat="43.36650173182865" lon="12.226159038016528"><ele>265.75</ele><time>2026-04-29T13:01:17Z</time></trkpt><trkpt lat="43.36664490334755" lon="12.22608493829026"><ele>265.5</ele><time>2026-04-29T13:01:18Z</time></trkpt><trkpt lat="43.36677189044612" lon="12.226024472868597"><ele>265.25</ele><time>2026-04-29T13:01:19Z</time></trkpt><trkpt lat="43.36687294152925" lon="12.225984146320378"><ele>265.0</ele><time>2026-04-29T13:01:20Z</time></trkpt><trkpt lat="43.366950443027584" lon="12.225952933280055"><ele>265.0</ele><time>2026-04-29T13:01:21Z</time></trkpt><trkpt lat="43.36701512241539" lon="12.225909820158321"><ele>265.0</ele><time>2026-04-29T13:01:23Z</time></trkpt><trkpt lat="43.36700993872618" lon="12.225742477788563"><ele>265.0</ele><time>2026-04-29T13:01:25Z</time></trkpt><trkpt lat="43.36696879722414" lon="12.225602963548246"><ele>265.0</ele><time>2026-04-29T13:01:26Z</time></trkpt><trkpt lat="43.36691379031664" lon="12.225443196927431"><ele>265.0</ele><time>2026-04-29T13:01:27Z</time></trkpt><trkpt lat="43.36685646144894" lon="12.225283500215642"><ele>265.25</ele><time>2026-04-29T13:01:28Z</time></trkpt><trkpt lat="43.36679524296452" lon="12.225110056897407"><ele>265.5</ele><time>2026-04-29T13:01:29Z</time></trkpt><trkpt lat="43.366727592190834" lon="12.224929171125872"><ele>265.75</ele><time>2026-04-29T13:01:30Z</time></trkpt><trkpt lat="43.36665328465426" lon="12.224740258724006"><ele>266.0</ele><time>2026-04-29T13:01:31Z</time></trkpt><trkpt lat="43.36657046690522" lon="12.224543254140443"><ele>267.0</ele><time>2026-04-29T13:01:32Z</time></trkpt><trkpt lat="43.366484462665746" lon="12.224340264217597"><ele>268.0</ele><time>2026-04-29T13:01:33Z</time></trkpt><trkpt lat="43.36639601694841" lon="12.224128315105695"><ele>269.0</ele><time>2026-04-29T13:01:34.001Z</time></trkpt><trkpt lat="43.36629991580688" lon="12.223913140556885"><ele>269.0</ele><time>2026-04-29T13:01:35.001Z</time></trkpt><trkpt lat="43.36619598277228" lon="12.223700998655243"><ele>269.0</ele><time>2026-04-29T13:01:36.001Z</time></trkpt><trkpt lat="43.36608101690265" lon="12.223488638040866"><ele>269.0</ele><time>2026-04-29T13:01:37.001Z</time></trkpt><trkpt lat="43.36595974389999" lon="12.223276166522158"><ele>269.0</ele><time>2026-04-29T13:01:38.001Z</time></trkpt><trkpt lat="43.3658362064617" lon="12.223055937616971"><ele>269.0</ele><time>2026-04-29T13:01:39.001Z</time></trkpt><trkpt lat="43.36572470881725" lon="12.222817702623558"><ele>269.0</ele><time>2026-04-29T13:01:40.001Z</time></trkpt><trkpt lat="43.36564887324113" lon="12.222546754706508"><ele>270.0</ele><time>2026-04-29T13:01:41.001Z</time></trkpt><trkpt lat="43.3656371430358" lon="12.222251421656374"><ele>271.0</ele><time>2026-04-29T13:01:42.001Z</time></trkpt><trkpt lat="43.365640833767685" lon="12.221952520276037"><ele>272.0</ele><time>2026-04-29T13:01:43.001Z</time></trkpt><trkpt lat="43.3656448512573" lon="12.221639199599565"><ele>272.0</ele><time>2026-04-29T13:01:44.001Z</time></trkpt><trkpt lat="43.36566065655106" lon="12.221323200134"><ele>272.0</ele><time>2026-04-29T13:01:45.001Z</time></trkpt><trkpt lat="43.36567385134254" lon="12.220997848598975"><ele>272.0</ele><time>2026-04-29T13:01:46.001Z</time></trkpt><trkpt lat="43.36568684283124" lon="12.220663313456853"><ele>272.0</ele><time>2026-04-29T13:01:47.001Z</time></trkpt><trkpt lat="43.36570198611147" lon="12.220326068868218"><ele>271.0</ele><time>2026-04-29T13:01:48.001Z</time></trkpt><trkpt lat="43.3657293516717" lon="12.220000661313897"><ele>270.0</ele><time>2026-04-29T13:01:49.001Z</time></trkpt><trkpt lat="43.365787016045466" lon="12.219707404892576"><ele>269.3333333333333</ele><time>2026-04-29T13:01:50.001Z</time></trkpt><trkpt lat="43.36590462102214" lon="12.219459723412582"><ele>268.66666666666663</ele><time>2026-04-29T13:01:51.001Z</time></trkpt><trkpt lat="43.36602553255708" lon="12.21920208445924"><ele>268.0</ele><time>2026-04-29T13:01:52.001Z</time></trkpt><trkpt lat="43.3661700620066" lon="12.218959022781338"><ele>267.0</ele><time>2026-04-29T13:01:53.001Z</time></trkpt><trkpt lat="43.36631151805908" lon="12.218704925452899"><ele>266.0</ele><time>2026-04-29T13:01:54.001Z</time></trkpt><trkpt lat="43.36645162042794" lon="12.218447405112235"><ele>267.0</ele><time>2026-04-29T13:01:55.001Z</time></trkpt><trkpt lat="43.36659250055913" lon="12.218183791298742"><ele>268.0</ele><time>2026-04-29T13:01:56.001Z</time></trkpt><trkpt lat="43.36673407958996" lon="12.217914331202966"><ele>268.0</ele><time>2026-04-29T13:01:57.001Z</time></trkpt><trkpt lat="43.36687525759089" lon="12.217646316698216"><ele>268.0</ele><time>2026-04-29T13:01:58.001Z</time></trkpt><trkpt lat="43.367013846420214" lon="12.217382537379024"><ele>267.3333333333333</ele><time>2026-04-29T13:01:59.001Z</time></trkpt><trkpt lat="43.36714673202708" lon="12.217130065657232"><ele>266.6666666666667</ele><time>2026-04-29T13:02:00.001Z</time></trkpt><trkpt lat="43.3672786228207" lon="12.216884591572423"><ele>266.0</ele><time>2026-04-29T13:02:01.001Z</time></trkpt><trkpt lat="43.36740970840876" lon="12.216638204599535"><ele>266.6666666666667</ele><time>2026-04-29T13:02:02.001Z</time></trkpt><trkpt lat="43.367537748867015" lon="12.21640307484272"><ele>267.3333333333333</ele><time>2026-04-29T13:02:03.001Z</time></trkpt><trkpt lat="43.36765385131189" lon="12.21619011337612"><ele>268.0</ele><time>2026-04-29T13:02:04.001Z</time></trkpt><trkpt lat="43.36776549720678" lon="12.215987107975"><ele>268.0</ele><time>2026-04-29T13:02:05.001Z</time></trkpt><trkpt lat="43.36787090740855" lon="12.215793684761971"><ele>268.0</ele><time>2026-04-29T13:02:06.001Z</time></trkpt><trkpt lat="43.36796649611461" lon="12.215611482956573"><ele>268.0</ele><time>2026-04-29T13:02:07.001Z</time></trkpt><trkpt lat="43.3680538828244" lon="12.2154437843017"><ele>268.5</ele><time>2026-04-29T13:02:08.001Z</time></trkpt><trkpt lat="43.368139937855624" lon="12.215282166653465"><ele>269.0</ele><time>2026-04-29T13:02:09.001Z</time></trkpt><trkpt lat="43.368219427975525" lon="12.215130893488393"><ele>269.5</ele><time>2026-04-29T13:02:10.001Z</time></trkpt><trkpt lat="43.36830775527634" lon="12.214999862587677"><ele>270.0</ele><time>2026-04-29T13:02:11.001Z</time></trkpt><trkpt lat="43.36839372053721" lon="12.214840304571748"><ele>268.6666666666667</ele><time>2026-04-29T13:02:12.001Z</time></trkpt><trkpt lat="43.36848883875036" lon="12.214663758439325"><ele>267.33333333333337</ele><time>2026-04-29T13:02:12.999Z</time></trkpt><trkpt lat="43.36859270736101" lon="12.214471345638241"><ele>266.0</ele><time>2026-04-29T13:02:13.999Z</time></trkpt><trkpt lat="43.368708734161835" lon="12.21425811919957"><ele>266.0</ele><time>2026-04-29T13:02:14.999Z</time></trkpt><trkpt lat="43.36882982445991" lon="12.214035587460462"><ele>266.0</ele><time>2026-04-29T13:02:15.999Z</time></trkpt><trkpt lat="43.3689546402764" lon="12.2137987904333"><ele>266.0</ele><time>2026-04-29T13:02:16.999Z</time></trkpt><trkpt lat="43.369074141033956" lon="12.213541071352736"><ele>266.5</ele><time>2026-04-29T13:02:17.999Z</time></trkpt><trkpt lat="43.369210393001765" lon="12.213289446220877"><ele>267.0</ele><time>2026-04-29T13:02:18.999Z</time></trkpt><trkpt lat="43.369352001507025" lon="12.213030478713629"><ele>267.0</ele><time>2026-04-29T13:02:19.999Z</time></trkpt><trkpt lat="43.36949585495355" lon="12.212763984458194"><ele>267.0</ele><time>2026-04-29T13:02:20.999Z</time></trkpt><trkpt lat="43.36964303676454" lon="12.212492045701707"><ele>268.5</ele><time>2026-04-29T13:02:21.999Z</time></trkpt><trkpt lat="43.369791785562036" lon="12.212212479236005"><ele>270.0</ele><time>2026-04-29T13:02:22.999Z</time></trkpt><trkpt lat="43.36994088365553" lon="12.21193032397415"><ele>270.0</ele><time>2026-04-29T13:02:23.999Z</time></trkpt><trkpt lat="43.370092034745106" lon="12.211647212415707"><ele>270.0</ele><time>2026-04-29T13:02:24.999Z</time></trkpt><trkpt lat="43.370240909317175" lon="12.211367986394757"><ele>269.3333333333333</ele><time>2026-04-29T13:02:25.999Z</time></trkpt><trkpt lat="43.37038112538194" lon="12.211107933467774"><ele>268.66666666666663</ele><time>2026-04-29T13:02:26.999Z</time></trkpt><trkpt lat="43.37050853806032" lon="12.210877033808353"><ele>268.0</ele><time>2026-04-29T13:02:27.999Z</time></trkpt><trkpt lat="43.37062586988345" lon="12.210660376856076"><ele>270.0</ele><time>2026-04-29T13:02:28.999Z</time></trkpt><trkpt lat="43.37073188881623" lon="12.210460040156521"><ele>272.0</ele><time>2026-04-29T13:02:29.999Z</time></trkpt><trkpt lat="43.37083041401713" lon="12.210274204757107"><ele>274.0</ele><time>2026-04-29T13:02:30.999Z</time></trkpt><trkpt lat="43.370928203117444" lon="12.210093248176499"><ele>274.0</ele><time>2026-04-29T13:02:31.999Z</time></trkpt><trkpt lat="43.37102249561815" lon="12.209923416824104"><ele>274.0</ele><time>2026-04-29T13:02:32.999Z</time></trkpt><trkpt lat="43.37111180717118" lon="12.20975266615496"><ele>274.0</ele><time>2026-04-29T13:02:33.999Z</time></trkpt><trkpt lat="43.371197983318396" lon="12.209584107338525"><ele>273.5</ele><time>2026-04-29T13:02:34.999Z</time></trkpt><trkpt lat="43.37128821735205" lon="12.209418854827442"><ele>273.0</ele><time>2026-04-29T13:02:35.999Z</time></trkpt><trkpt lat="43.37137669741796" lon="12.209258620994218"><ele>272.5</ele><time>2026-04-29T13:02:36.999Z</time></trkpt><trkpt lat="43.37146210530769" lon="12.20910496328861"><ele>272.0</ele><time>2026-04-29T13:02:37.999Z</time></trkpt><trkpt lat="43.37154293652803" lon="12.208952990783727"><ele>272.0</ele><time>2026-04-29T13:02:39Z</time></trkpt><trkpt lat="43.371623600760024" lon="12.208805449707185"><ele>272.0</ele><time>2026-04-29T13:02:40Z</time></trkpt><trkpt lat="43.37170437426816" lon="12.208657196095032"><ele>272.0</ele><time>2026-04-29T13:02:41Z</time></trkpt><trkpt lat="43.37178662840177" lon="12.208509632110578"><ele>272.0</ele><time>2026-04-29T13:02:42Z</time></trkpt><trkpt lat="43.371865919514114" lon="12.208357384505295"><ele>272.0</ele><time>2026-04-29T13:02:43Z</time></trkpt><trkpt lat="43.371945867715795" lon="12.20820116690763"><ele>272.0</ele><time>2026-04-29T13:02:44Z</time></trkpt><trkpt lat="43.37202554829322" lon="12.2080469365144"><ele>272.0</ele><time>2026-04-29T13:02:45Z</time></trkpt><trkpt lat="43.37210863288788" lon="12.207894364948208"><ele>272.0</ele><time>2026-04-29T13:02:46Z</time></trkpt><trkpt lat="43.37219484381248" lon="12.207743738209949"><ele>271.75</ele><time>2026-04-29T13:02:47Z</time></trkpt><trkpt lat="43.372282477835576" lon="12.20759355770265"><ele>271.5</ele><time>2026-04-29T13:02:48Z</time></trkpt><trkpt lat="43.37236808560274" lon="12.207438959536931"><ele>271.25</ele><time>2026-04-29T13:02:49Z</time></trkpt><trkpt lat="43.372454461488346" lon="12.207281083968429"><ele>271.0</ele><time>2026-04-29T13:02:50Z</time></trkpt><trkpt lat="43.37253977410053" lon="12.207119138008087"><ele>271.0</ele><time>2026-04-29T13:02:51Z</time></trkpt><trkpt lat="43.37262543521416" lon="12.20695892831043"><ele>271.0</ele><time>2026-04-29T13:02:52Z</time></trkpt><trkpt lat="43.372711220832294" lon="12.206793060115151"><ele>271.0</ele><time>2026-04-29T13:02:53Z</time></trkpt><trkpt lat="43.372797399297625" lon="12.20662353485611"><ele>271.0</ele><time>2026-04-29T13:02:54Z</time></trkpt><trkpt lat="43.37288861434026" lon="12.206447446769795"><ele>271.3333333333333</ele><time>2026-04-29T13:02:55Z</time></trkpt><trkpt lat="43.37298570620972" lon="12.206262598128081"><ele>271.6666666666667</ele><time>2026-04-29T13:02:56Z</time></trkpt><trkpt lat="43.3730882906868" lon="12.206073065862075"><ele>272.0</ele><time>2026-04-29T13:02:57Z</time></trkpt><trkpt lat="43.373195341966195" lon="12.20587858727065"><ele>272.0</ele><time>2026-04-29T13:02:58Z</time></trkpt><trkpt lat="43.373306428314486" lon="12.20568170049113"><ele>272.0</ele><time>2026-04-29T13:02:59Z</time></trkpt><trkpt lat="43.373419437653965" lon="12.205477230707308"><ele>272.0</ele><time>2026-04-29T13:03:00Z</time></trkpt><trkpt lat="43.373534243163576" lon="12.20526415938576"><ele>271.6666666666667</ele><time>2026-04-29T13:03:01Z</time></trkpt><trkpt lat="43.37364912373003" lon="12.205044024945604"><ele>271.3333333333333</ele><time>2026-04-29T13:03:02Z</time></trkpt><trkpt lat="43.373768102922334" lon="12.204823796546963"><ele>271.0</ele><time>2026-04-29T13:03:03Z</time></trkpt><trkpt lat="43.37388883024461" lon="12.204599281790045"><ele>271.0</ele><time>2026-04-29T13:03:04Z</time></trkpt><trkpt lat="43.37400231674331" lon="12.204382628686918"><ele>271.0</ele><time>2026-04-29T13:03:05Z</time></trkpt><trkpt lat="43.37410477046463" lon="12.204181453995096"><ele>271.0</ele><time>2026-04-29T13:03:06Z</time></trkpt><trkpt lat="43.37418922336154" lon="12.203987070517572"><ele>272.0</ele><time>2026-04-29T13:03:07Z</time></trkpt><trkpt lat="43.374235625722086" lon="12.203778016744218"><ele>273.0</ele><time>2026-04-29T13:03:08Z</time></trkpt><trkpt lat="43.37424881919267" lon="12.203554528578566"><ele>274.0</ele><time>2026-04-29T13:03:09Z</time></trkpt><trkpt lat="43.374249242783" lon="12.203315044063137"><ele>274.0</ele><time>2026-04-29T13:03:10Z</time></trkpt><trkpt lat="43.374249904188225" lon="12.203058934803996"><ele>274.0</ele><time>2026-04-29T13:03:11Z</time></trkpt><trkpt lat="43.374251980534396" lon="12.202794704383551"><ele>274.0</ele><time>2026-04-29T13:03:12Z</time></trkpt><trkpt lat="43.374255880777895" lon="12.20251654497993"><ele>274.0</ele><time>2026-04-29T13:03:13Z</time></trkpt><trkpt lat="43.37426289745729" lon="12.202230231676673"><ele>274.0</ele><time>2026-04-29T13:03:14Z</time></trkpt><trkpt lat="43.37426770194463" lon="12.201934147667336"><ele>274.0</ele><time>2026-04-29T13:03:15Z</time></trkpt><trkpt lat="43.37427366189468" lon="12.20162844996153"><ele>274.5</ele><time>2026-04-29T13:03:16Z</time></trkpt><trkpt lat="43.374280885908554" lon="12.20131895074434"><ele>275.0</ele><time>2026-04-29T13:03:17Z</time></trkpt><trkpt lat="43.37428864188483" lon="12.201004207645582"><ele>275.0</ele><time>2026-04-29T13:03:18Z</time></trkpt><trkpt lat="43.37429462143801" lon="12.200680970753027"><ele>275.0</ele><time>2026-04-29T13:03:19Z</time></trkpt><trkpt lat="43.37429951758827" lon="12.200349505360975"><ele>274.0</ele><time>2026-04-29T13:03:20Z</time></trkpt><trkpt lat="43.374299502141284" lon="12.200016975831327"><ele>273.0</ele><time>2026-04-29T13:03:21Z</time></trkpt><trkpt lat="43.37429860513077" lon="12.199674794517932"><ele>272.0</ele><time>2026-04-29T13:03:22Z</time></trkpt><trkpt lat="43.37430151728951" lon="12.199331672949876"><ele>271.0</ele><time>2026-04-29T13:03:23Z</time></trkpt><trkpt lat="43.374307618659294" lon="12.198991582469812"><ele>271.0</ele><time>2026-04-29T13:03:24Z</time></trkpt><trkpt lat="43.37431467873654" lon="12.198649257607116"><ele>271.0</ele><time>2026-04-29T13:03:25Z</time></trkpt><trkpt lat="43.37431954618649" lon="12.198306510540844"><ele>270.0</ele><time>2026-04-29T13:03:26Z</time></trkpt><trkpt lat="43.374321802430124" lon="12.197961514691404"><ele>269.0</ele><time>2026-04-29T13:03:27Z</time></trkpt><trkpt lat="43.37432194181667" lon="12.19761386987696"><ele>269.5</ele><time>2026-04-29T13:03:28Z</time></trkpt><trkpt lat="43.37432452256825" lon="12.19726713445484"><ele>270.0</ele><time>2026-04-29T13:03:29Z</time></trkpt><trkpt lat="43.37433006716952" lon="12.196920574940005"><ele>270.0</ele><time>2026-04-29T13:03:30Z</time></trkpt><trkpt lat="43.37433630969276" lon="12.196570451152182"><ele>270.0</ele><time>2026-04-29T13:03:31Z</time></trkpt><trkpt lat="43.374340171243055" lon="12.196221338970602"><ele>270.0</ele><time>2026-04-29T13:03:32Z</time></trkpt><trkpt lat="43.3743441838887" lon="12.195871640030878"><ele>270.0</ele><time>2026-04-29T13:03:33Z</time></trkpt><trkpt lat="43.374346156531374" lon="12.1955204654058"><ele>271.0</ele><time>2026-04-29T13:03:34Z</time></trkpt><trkpt lat="43.374348740043615" lon="12.1951690414395"><ele>272.0</ele><time>2026-04-29T13:03:35Z</time></trkpt><trkpt lat="43.37435133844497" lon="12.194829043257062"><ele>272.5</ele><time>2026-04-29T13:03:36Z</time></trkpt><trkpt lat="43.37435589716257" lon="12.19449753476353"><ele>273.0</ele><time>2026-04-29T13:03:37Z</time></trkpt><trkpt lat="43.374359261503514" lon="12.194172080378314"><ele>272.0</ele><time>2026-04-29T13:03:38Z</time></trkpt><trkpt lat="43.37436386907712" lon="12.193810700327612"><ele>271.0</ele><time>2026-04-29T13:03:39Z</time></trkpt><trkpt lat="43.37436292157596" lon="12.193476144975063"><ele>271.0</ele><time>2026-04-29T13:03:40Z</time></trkpt><trkpt lat="43.37436453129503" lon="12.193135731759867"><ele>271.0</ele><time>2026-04-29T13:03:41Z</time></trkpt><trkpt lat="43.37436638463732" lon="12.192806029815383"><ele>271.0</ele><time>2026-04-29T13:03:42Z</time></trkpt><trkpt lat="43.3743707468352" lon="12.192466288390934"><ele>271.0</ele><time>2026-04-29T13:03:43Z</time></trkpt><trkpt lat="43.37437716503754" lon="12.192134376277105"><ele>272.0</ele><time>2026-04-29T13:03:44Z</time></trkpt><trkpt lat="43.3743836783339" lon="12.191796687913985"><ele>273.0</ele><time>2026-04-29T13:03:45.001Z</time></trkpt><trkpt lat="43.374390389748555" lon="12.191455595560104"><ele>273.5</ele><time>2026-04-29T13:03:46.001Z</time></trkpt><trkpt lat="43.37439455742005" lon="12.191115370295782"><ele>274.0</ele><time>2026-04-29T13:03:47.001Z</time></trkpt><trkpt lat="43.37439678224192" lon="12.190782478087042"><ele>274.0</ele><time>2026-04-29T13:03:48.001Z</time></trkpt><trkpt lat="43.37439967907011" lon="12.190448255584567"><ele>274.0</ele><time>2026-04-29T13:03:49.001Z</time></trkpt><trkpt lat="43.37440105892888" lon="12.190117564609071"><ele>274.5</ele><time>2026-04-29T13:03:50.001Z</time></trkpt><trkpt lat="43.37439965374855" lon="12.189787589160009"><ele>275.0</ele><time>2026-04-29T13:03:51.001Z</time></trkpt><trkpt lat="43.37438715553817" lon="12.189454712851264"><ele>275.0</ele><time>2026-04-29T13:03:52.001Z</time></trkpt><trkpt lat="43.37436514045964" lon="12.189121747801984"><ele>275.0</ele><time>2026-04-29T13:03:53.001Z</time></trkpt><trkpt lat="43.374344062385916" lon="12.188789668387022"><ele>274.5</ele><time>2026-04-29T13:03:54.001Z</time></trkpt><trkpt lat="43.37433113752988" lon="12.18845860427564"><ele>274.0</ele><time>2026-04-29T13:03:55.001Z</time></trkpt><trkpt lat="43.37433311574845" lon="12.188138305691748"><ele>274.0</ele><time>2026-04-29T13:03:56.001Z</time></trkpt><trkpt lat="43.374386395257496" lon="12.18784171388162"><ele>274.0</ele><time>2026-04-29T13:03:57.001Z</time></trkpt><trkpt lat="43.37444663107257" lon="12.187565874297158"><ele>274.0</ele><time>2026-04-29T13:03:58.001Z</time></trkpt><trkpt lat="43.374554528478704" lon="12.187316418902087"><ele>276.0</ele><time>2026-04-29T13:03:59.001Z</time></trkpt><trkpt lat="43.374708272342566" lon="12.187105177171649"><ele>278.0</ele><time>2026-04-29T13:04:00.001Z</time></trkpt><trkpt lat="43.37485959651078" lon="12.186896017087529"><ele>280.0</ele><time>2026-04-29T13:04:01.001Z</time></trkpt><trkpt lat="43.37500875301005" lon="12.186679850134128"><ele>278.0</ele><time>2026-04-29T13:04:02.001Z</time></trkpt><trkpt lat="43.375175510281956" lon="12.186474467524041"><ele>276.0</ele><time>2026-04-29T13:04:03.001Z</time></trkpt><trkpt lat="43.3753353921001" lon="12.186260035555534"><ele>274.0</ele><time>2026-04-29T13:04:04.001Z</time></trkpt><trkpt lat="43.375493997728135" lon="12.186040295187574"><ele>274.5</ele><time>2026-04-29T13:04:05.001Z</time></trkpt><trkpt lat="43.37566699021041" lon="12.185833501248828"><ele>275.0</ele><time>2026-04-29T13:04:06.001Z</time></trkpt><trkpt lat="43.37581567809734" lon="12.185601677241522"><ele>275.0</ele><time>2026-04-29T13:04:07.001Z</time></trkpt><trkpt lat="43.37597137644379" lon="12.185406391402738"><ele>275.0</ele><time>2026-04-29T13:04:08.001Z</time></trkpt><trkpt lat="43.376129276802985" lon="12.18524202489569"><ele>275.0</ele><time>2026-04-29T13:04:09.001Z</time></trkpt><trkpt lat="43.37631224684137" lon="12.185134526880368"><ele>275.0</ele><time>2026-04-29T13:04:10.001Z</time></trkpt><trkpt lat="43.37650390480261" lon="12.185038355046448"><ele>275.0</ele><time>2026-04-29T13:04:11.001Z</time></trkpt><trkpt lat="43.376709510327814" lon="12.184977769368754"><ele>275.0</ele><time>2026-04-29T13:04:12.001Z</time></trkpt><trkpt lat="43.376917739455685" lon="12.184901575530672"><ele>274.6666666666667</ele><time>2026-04-29T13:04:13.001Z</time></trkpt><trkpt lat="43.37712290657702" lon="12.184838731796843"><ele>274.3333333333333</ele><time>2026-04-29T13:04:14.001Z</time></trkpt><trkpt lat="43.37732062983555" lon="12.184734112928659"><ele>274.0</ele><time>2026-04-29T13:04:15.001Z</time></trkpt><trkpt lat="43.37749784724731" lon="12.18457418928223"><ele>274.0</ele><time>2026-04-29T13:04:16.001Z</time></trkpt><trkpt lat="43.37765491295144" lon="12.184365838835669"><ele>274.0</ele><time>2026-04-29T13:04:17.001Z</time></trkpt><trkpt lat="43.377794863676925" lon="12.184132592789185"><ele>274.0</ele><time>2026-04-29T13:04:18.001Z</time></trkpt><trkpt lat="43.37792837287808" lon="12.183871493375616"><ele>275.0</ele><time>2026-04-29T13:04:19Z</time></trkpt><trkpt lat="43.37805626541921" lon="12.183604129805182"><ele>276.0</ele><time>2026-04-29T13:04:20Z</time></trkpt><trkpt lat="43.37816953386942" lon="12.183329310749613"><ele>275.5</ele><time>2026-04-29T13:04:21Z</time></trkpt><trkpt lat="43.378273377496406" lon="12.183038501833106"><ele>275.0</ele><time>2026-04-29T13:04:22Z</time></trkpt><trkpt lat="43.378378235832045" lon="12.182743806465902"><ele>275.0</ele><time>2026-04-29T13:04:23Z</time></trkpt><trkpt lat="43.378481613595234" lon="12.182447642595806"><ele>275.0</ele><time>2026-04-29T13:04:24Z</time></trkpt><trkpt lat="43.37858611109852" lon="12.18215074728089"><ele>275.5</ele><time>2026-04-29T13:04:25Z</time></trkpt><trkpt lat="43.378690608256015" lon="12.181860461555182"><ele>276.0</ele><time>2026-04-29T13:04:26Z</time></trkpt><trkpt lat="43.3787943260861" lon="12.181570396657934"><ele>279.5</ele><time>2026-04-29T13:04:27Z</time></trkpt><trkpt lat="43.378896976503185" lon="12.1812812865116"><ele>283.0</ele><time>2026-04-29T13:04:28Z</time></trkpt><trkpt lat="43.378997208942216" lon="12.180997302043355"><ele>283.0</ele><time>2026-04-29T13:04:29Z</time></trkpt><trkpt lat="43.379094009926774" lon="12.180719607170928"><ele>283.0</ele><time>2026-04-29T13:04:30Z</time></trkpt><trkpt lat="43.37919655377139" lon="12.180453891334652"><ele>283.0</ele><time>2026-04-29T13:04:31Z</time></trkpt><trkpt lat="43.37928329989402" lon="12.180197514833962"><ele>282.0</ele><time>2026-04-29T13:04:32Z</time></trkpt><trkpt lat="43.379254788779505" lon="12.179889519591171"><ele>281.0</ele><time>2026-04-29T13:04:33Z</time></trkpt><trkpt lat="43.37925829952382" lon="12.179631525372466"><ele>280.0</ele><time>2026-04-29T13:04:34Z</time></trkpt><trkpt lat="43.37926826206812" lon="12.179379008272536"><ele>279.66666666666663</ele><time>2026-04-29T13:04:35Z</time></trkpt><trkpt lat="43.37931140476499" lon="12.179133363415698"><ele>279.3333333333333</ele><time>2026-04-29T13:04:36Z</time></trkpt><trkpt lat="43.37939601218481" lon="12.178908947486523"><ele>279.0</ele><time>2026-04-29T13:04:37Z</time></trkpt><trkpt lat="43.37950686870911" lon="12.178728912947056"><ele>279.6666666666667</ele><time>2026-04-29T13:04:38Z</time></trkpt><trkpt lat="43.37964868799103" lon="12.17859906554099"><ele>280.33333333333337</ele><time>2026-04-29T13:04:39Z</time></trkpt><trkpt lat="43.37979909085202" lon="12.178488256486924"><ele>281.0</ele><time>2026-04-29T13:04:40Z</time></trkpt><trkpt lat="43.37994791523127" lon="12.178371220307682"><ele>281.0</ele><time>2026-04-29T13:04:41Z</time></trkpt><trkpt lat="43.380080386588396" lon="12.178256210255274"><ele>281.0</ele><time>2026-04-29T13:04:42Z</time></trkpt><trkpt lat="43.38019223130462" lon="12.178148604000334"><ele>281.0</ele><time>2026-04-29T13:04:43Z</time></trkpt><trkpt lat="43.380280037589024" lon="12.178044978315535"><ele>281.0</ele><time>2026-04-29T13:04:44Z</time></trkpt><trkpt lat="43.38034042085305" lon="12.177949444118351"><ele>279.75</ele><time>2026-04-29T13:04:45Z</time></trkpt><trkpt lat="43.380336951488054" lon="12.177810233555224"><ele>278.5</ele><time>2026-04-29T13:04:47Z</time></trkpt><trkpt lat="43.3801958613959" lon="12.177727411976411"><ele>277.25</ele><time>2026-04-29T13:04:49Z</time></trkpt><trkpt lat="43.38009528175884" lon="12.1776714415766"><ele>276.0</ele><time>2026-04-29T13:04:50Z</time></trkpt><trkpt lat="43.37998293333797" lon="12.177610553697576"><ele>276.0</ele><time>2026-04-29T13:04:51Z</time></trkpt><trkpt lat="43.3798586737256" lon="12.177551370337664"><ele>276.0</ele><time>2026-04-29T13:04:52Z</time></trkpt><trkpt lat="43.37972651725473" lon="12.177491488065407"><ele>276.0</ele><time>2026-04-29T13:04:53Z</time></trkpt><trkpt lat="43.379589635253424" lon="12.177427861307404"><ele>276.0</ele><time>2026-04-29T13:04:54Z</time></trkpt><trkpt lat="43.379444574853416" lon="12.177361294197231"><ele>275.3333333333333</ele><time>2026-04-29T13:04:55Z</time></trkpt><trkpt lat="43.379293402258696" lon="12.177289390193122"><ele>274.66666666666663</ele><time>2026-04-29T13:04:56Z</time></trkpt><trkpt lat="43.37913838285907" lon="12.177211600525128"><ele>274.0</ele><time>2026-04-29T13:04:57Z</time></trkpt><trkpt lat="43.37898195261133" lon="12.177133234365114"><ele>274.0</ele><time>2026-04-29T13:04:58Z</time></trkpt><trkpt lat="43.378822914532634" lon="12.177054369900807"><ele>274.0</ele><time>2026-04-29T13:04:59Z</time></trkpt><trkpt lat="43.3786626048213" lon="12.176967796323094"><ele>274.0</ele><time>2026-04-29T13:05:00Z</time></trkpt><trkpt lat="43.37850209455731" lon="12.176871205955571"><ele>274.0</ele><time>2026-04-29T13:05:01Z</time></trkpt><trkpt lat="43.378339603631346" lon="12.176769803891387"><ele>274.0</ele><time>2026-04-29T13:05:02Z</time></trkpt><trkpt lat="43.37817765694052" lon="12.176651832964954"><ele>274.0</ele><time>2026-04-29T13:05:03Z</time></trkpt><trkpt lat="43.37802552413628" lon="12.17652196088885"><ele>273.66666666666663</ele><time>2026-04-29T13:05:04Z</time></trkpt><trkpt lat="43.37788392946402" lon="12.176377459949661"><ele>273.3333333333333</ele><time>2026-04-29T13:05:05Z</time></trkpt><trkpt lat="43.37774045399068" lon="12.176255522596103"><ele>273.0</ele><time>2026-04-29T13:05:06Z</time></trkpt><trkpt lat="43.37761261321492" lon="12.176161070418614"><ele>273.0</ele><time>2026-04-29T13:05:07Z</time></trkpt><trkpt lat="43.37751301282076" lon="12.176080582567499"><ele>273.0</ele><time>2026-04-29T13:05:08Z</time></trkpt><trkpt lat="43.377448149234176" lon="12.176004524245432"><ele>273.0</ele><time>2026-04-29T13:05:09Z</time></trkpt><trkpt lat="43.37741270108699" lon="12.17590950021862"><ele>273.0</ele><time>2026-04-29T13:05:10Z</time></trkpt><trkpt lat="43.37741293863433" lon="12.175808640386078"><ele>273.0</ele><time>2026-04-29T13:05:11Z</time></trkpt><trkpt lat="43.37743603706262" lon="12.175704067784618"><ele>273.0</ele><time>2026-04-29T13:05:12Z</time></trkpt><trkpt lat="43.3774382778302" lon="12.175571528740553"><ele>272.75</ele><time>2026-04-29T13:05:13Z</time></trkpt><trkpt lat="43.377400378190664" lon="12.175419686751567"><ele>272.5</ele><time>2026-04-29T13:05:14Z</time></trkpt><trkpt lat="43.37734349069595" lon="12.175245473559306"><ele>272.25</ele><time>2026-04-29T13:05:15Z</time></trkpt><trkpt lat="43.37728596319475" lon="12.175047739515842"><ele>272.0</ele><time>2026-04-29T13:05:16Z</time></trkpt><trkpt lat="43.37722429920365" lon="12.17483507643388"><ele>273.0</ele><time>2026-04-29T13:05:17Z</time></trkpt><trkpt lat="43.37715960980976" lon="12.174623423535191"><ele>274.0</ele><time>2026-04-29T13:05:18Z</time></trkpt><trkpt lat="43.377086193283354" lon="12.174426136117843"><ele>275.0</ele><time>2026-04-29T13:05:19Z</time></trkpt><trkpt lat="43.37699060315015" lon="12.174246376064772"><ele>275.0</ele><time>2026-04-29T13:05:20Z</time></trkpt><trkpt lat="43.376871123798615" lon="12.174073253942476"><ele>275.0</ele><time>2026-04-29T13:05:21Z</time></trkpt><trkpt lat="43.376748351697586" lon="12.1738934099748"><ele>275.0</ele><time>2026-04-29T13:05:22Z</time></trkpt><trkpt lat="43.37662600854906" lon="12.173711115220428"><ele>275.0</ele><time>2026-04-29T13:05:23Z</time></trkpt><trkpt lat="43.37651859066294" lon="12.1735455184457"><ele>275.0</ele><time>2026-04-29T13:05:24.001Z</time></trkpt><trkpt lat="43.376430238190224" lon="12.17340118744214"><ele>275.0</ele><time>2026-04-29T13:05:25.001Z</time></trkpt><trkpt lat="43.37637686335448" lon="12.173267096742723"><ele>275.0</ele><time>2026-04-29T13:05:26.001Z</time></trkpt><trkpt lat="43.37637559612221" lon="12.173130106592897"><ele>274.75</ele><time>2026-04-29T13:05:27.001Z</time></trkpt><trkpt lat="43.376402080224786" lon="12.172986266446207"><ele>274.5</ele><time>2026-04-29T13:05:28.001Z</time></trkpt><trkpt lat="43.37646085627564" lon="12.1728348899775"><ele>274.25</ele><time>2026-04-29T13:05:29.001Z</time></trkpt><trkpt lat="43.376535974327936" lon="12.172677933001202"><ele>274.0</ele><time>2026-04-29T13:05:30.001Z</time></trkpt><trkpt lat="43.37661709509002" lon="12.172494633516918"><ele>275.75</ele><time>2026-04-29T13:05:31.001Z</time></trkpt><trkpt lat="43.37669933648034" lon="12.172311328814121"><ele>277.5</ele><time>2026-04-29T13:05:32.001Z</time></trkpt><trkpt lat="43.37676322962939" lon="12.172149626563495"><ele>279.25</ele><time>2026-04-29T13:05:33.001Z</time></trkpt><trkpt lat="43.376797118502964" lon="12.171992964175743"><ele>281.0</ele><time>2026-04-29T13:05:34.001Z</time></trkpt><trkpt lat="43.37680106815085" lon="12.171822677434193"><ele>281.0</ele><time>2026-04-29T13:05:35.001Z</time></trkpt><trkpt lat="43.376776506836755" lon="12.171647176877759"><ele>281.0</ele><time>2026-04-29T13:05:36.001Z</time></trkpt><trkpt lat="43.37671844578752" lon="12.17149136796572"><ele>281.0</ele><time>2026-04-29T13:05:37.001Z</time></trkpt><trkpt lat="43.37664479710094" lon="12.171338549387208"><ele>281.0</ele><time>2026-04-29T13:05:38.001Z</time></trkpt><trkpt lat="43.376538614716445" lon="12.17120830098993"><ele>283.0</ele><time>2026-04-29T13:05:39.001Z</time></trkpt><trkpt lat="43.37643773035086" lon="12.17108003505323"><ele>285.0</ele><time>2026-04-29T13:05:40.001Z</time></trkpt><trkpt lat="43.37633863195863" lon="12.170950721583852"><ele>287.0</ele><time>2026-04-29T13:05:41.001Z</time></trkpt><trkpt lat="43.37624964629651" lon="12.170811497594217"><ele>289.0</ele><time>2026-04-29T13:05:42.001Z</time></trkpt><trkpt lat="43.37616061341081" lon="12.17066241261774"><ele>291.0</ele><time>2026-04-29T13:05:43.001Z</time></trkpt><trkpt lat="43.37609526323243" lon="12.170541600597582"><ele>293.0</ele><time>2026-04-29T13:05:44.001Z</time></trkpt><trkpt lat="43.37605328487258" lon="12.170434935444218"><ele>295.0</ele><time>2026-04-29T13:05:45.001Z</time></trkpt><trkpt lat="43.37606444667769" lon="12.170317372186247"><ele>297.0</ele><time>2026-04-29T13:05:46.001Z</time></trkpt><trkpt lat="43.37613060328154" lon="12.170225036495264"><ele>299.0</ele><time>2026-04-29T13:05:47.001Z</time></trkpt><trkpt lat="43.376174525936214" lon="12.170089904226614"><ele>299.0</ele><time>2026-04-29T13:05:48.001Z</time></trkpt><trkpt lat="43.37622992644531" lon="12.169958317267287"><ele>299.0</ele><time>2026-04-29T13:05:49.001Z</time></trkpt><trkpt lat="43.376240153733576" lon="12.169801038527712"><ele>299.0</ele><time>2026-04-29T13:05:50.001Z</time></trkpt><trkpt lat="43.37620168341862" lon="12.16965455050203"><ele>299.0</ele><time>2026-04-29T13:05:51.001Z</time></trkpt><trkpt lat="43.37616587395216" lon="12.16950413484578"><ele>301.0</ele><time>2026-04-29T13:05:52.001Z</time></trkpt><trkpt lat="43.37611388078357" lon="12.1693543933396"><ele>303.0</ele><time>2026-04-29T13:05:53.001Z</time></trkpt><trkpt lat="43.37603512995436" lon="12.169148423710428"><ele>305.0</ele><time>2026-04-29T13:05:54.001Z</time></trkpt><trkpt lat="43.3760214628125" lon="12.168940193279255"><ele>307.0</ele><time>2026-04-29T13:05:55.001Z</time></trkpt><trkpt lat="43.37601465084163" lon="12.168746375341783"><ele>309.0</ele><time>2026-04-29T13:05:56.001Z</time></trkpt><trkpt lat="43.37602832323814" lon="12.168558245600941"><ele>311.0</ele><time>2026-04-29T13:05:57.001Z</time></trkpt><trkpt lat="43.376051258104845" lon="12.16837145915047"><ele>313.0</ele><time>2026-04-29T13:05:58.001Z</time></trkpt><trkpt lat="43.3760768304774" lon="12.168192894288836"><ele>315.0</ele><time>2026-04-29T13:05:59.001Z</time></trkpt><trkpt lat="43.37610835190224" lon="12.168061638070048"><ele>317.4</ele><time>2026-04-29T13:06:00.001Z</time></trkpt><trkpt lat="43.37614187754778" lon="12.167972578139228"><ele>319.8</ele><time>2026-04-29T13:06:01.001Z</time></trkpt><trkpt lat="43.37624520515945" lon="12.167966226572029"><ele>322.20000000000005</ele><time>2026-04-29T13:06:02.001Z</time></trkpt><trkpt lat="43.376324293268084" lon="12.167886670913036"><ele>324.6</ele><time>2026-04-29T13:06:03.001Z</time></trkpt><trkpt lat="43.37640790047674" lon="12.167807850871705"><ele>327.0</ele><time>2026-04-29T13:06:04.001Z</time></trkpt><trkpt lat="43.3764943666634" lon="12.167728909802916"><ele>330.25</ele><time>2026-04-29T13:06:05.001Z</time></trkpt><trkpt lat="43.37659485021233" lon="12.167623786207944"><ele>333.5</ele><time>2026-04-29T13:06:06.001Z</time></trkpt><trkpt lat="43.37669724311306" lon="12.167514523579584"><ele>336.75</ele><time>2026-04-29T13:06:07.001Z</time></trkpt><trkpt lat="43.376811024092014" lon="12.167436410694592"><ele>340.0</ele><time>2026-04-29T13:06:08.001Z</time></trkpt><trkpt lat="43.376933725599294" lon="12.167373307240322"><ele>343.75</ele><time>2026-04-29T13:06:09.001Z</time></trkpt><trkpt lat="43.37706228454942" lon="12.16732703539004"><ele>347.5</ele><time>2026-04-29T13:06:10.001Z</time></trkpt><trkpt lat="43.37719468552512" lon="12.167271365223755"><ele>351.25</ele><time>2026-04-29T13:06:11.001Z</time></trkpt><trkpt lat="43.37730621651776" lon="12.167206153621464"><ele>355.0</ele><time>2026-04-29T13:06:12.001Z</time></trkpt><trkpt lat="43.3774280230149" lon="12.16719236881511"><ele>358.0</ele><time>2026-04-29T13:06:13.001Z</time></trkpt><trkpt lat="43.377541748905095" lon="12.167225814717387"><ele>361.0</ele><time>2026-04-29T13:06:14.001Z</time></trkpt><trkpt lat="43.377629116401145" lon="12.167204842319808"><ele>364.0</ele><time>2026-04-29T13:06:15.001Z</time></trkpt><trkpt lat="43.3776930151404" lon="12.167185876105822"><ele>367.0</ele><time>2026-04-29T13:06:16.001Z</time></trkpt><trkpt lat="43.37773275649089" lon="12.167009098448844"><ele>370.0</ele><time>2026-04-29T13:06:18.001Z</time></trkpt><trkpt lat="43.37770445573594" lon="12.166875927282405"><ele>370.0</ele><time>2026-04-29T13:06:19.001Z</time></trkpt><trkpt lat="43.377642971071616" lon="12.16677025036571"><ele>370.0</ele><time>2026-04-29T13:06:20.001Z</time></trkpt><trkpt lat="43.377539127984114" lon="12.166698816288788"><ele>370.0</ele><time>2026-04-29T13:06:21.001Z</time></trkpt><trkpt lat="43.37740237655523" lon="12.16666744990205"><ele>370.0</ele><time>2026-04-29T13:06:22.001Z</time></trkpt><trkpt lat="43.377258060666044" lon="12.166644889125699"><ele>368.8</ele><time>2026-04-29T13:06:23.001Z</time></trkpt><trkpt lat="43.37715316681794" lon="12.1665724929474"><ele>367.6</ele><time>2026-04-29T13:06:24.001Z</time></trkpt><trkpt lat="43.37714172081088" lon="12.166436663122548"><ele>366.4</ele><time>2026-04-29T13:06:25Z</time></trkpt><trkpt lat="43.377116983895235" lon="12.166338780051047"><ele>365.2</ele><time>2026-04-29T13:06:26Z</time></trkpt><trkpt lat="43.377091716067824" lon="12.166205345334967"><ele>364.0</ele><time>2026-04-29T13:06:27Z</time></trkpt><trkpt lat="43.37707693386057" lon="12.166066755135798"><ele>364.0</ele><time>2026-04-29T13:06:28Z</time></trkpt><trkpt lat="43.37708435328921" lon="12.165950447214483"><ele>364.0</ele><time>2026-04-29T13:06:29Z</time></trkpt><trkpt lat="43.37712037363807" lon="12.16586021391877"><ele>364.0</ele><time>2026-04-29T13:06:30Z</time></trkpt><trkpt lat="43.37716701575448" lon="12.16573077686074"><ele>364.0</ele><time>2026-04-29T13:06:32Z</time></trkpt><trkpt lat="43.37720071741004" lon="12.165653794852574"><ele>364.0</ele><time>2026-04-29T13:06:33Z</time></trkpt><trkpt lat="43.37724090667771" lon="12.165564976062049"><ele>364.0</ele><time>2026-04-29T13:06:34Z</time></trkpt><trkpt lat="43.37728209770531" lon="12.165477462351019"><ele>367.5</ele><time>2026-04-29T13:06:35Z</time></trkpt><trkpt lat="43.37732643068831" lon="12.165405537233614"><ele>371.0</ele><time>2026-04-29T13:06:36Z</time></trkpt><trkpt lat="43.3774140195592" lon="12.165409234764175"><ele>374.5</ele><time>2026-04-29T13:06:39Z</time></trkpt><trkpt lat="43.377497983446546" lon="12.165451586539128"><ele>378.0</ele><time>2026-04-29T13:06:41Z</time></trkpt><trkpt lat="43.377608984375655" lon="12.165527354082112"><ele>381.50000000000006</ele><time>2026-04-29T13:06:43Z</time></trkpt><trkpt lat="43.377678905561645" lon="12.165550712889264"><ele>385.0</ele><time>2026-04-29T13:06:44Z</time></trkpt><trkpt lat="43.377798259314105" lon="12.165624952036309"><ele>385.0</ele><time>2026-04-29T13:06:46Z</time></trkpt><trkpt lat="43.37788772939799" lon="12.16568796386914"><ele>385.0</ele><time>2026-04-29T13:06:48Z</time></trkpt><trkpt lat="43.3779799096329" lon="12.16568366431375"><ele>385.0</ele><time>2026-04-29T13:06:50Z</time></trkpt><trkpt lat="43.37805639494994" lon="12.165591625305815"><ele>385.0</ele><time>2026-04-29T13:06:52Z</time></trkpt><trkpt lat="43.37810457214492" lon="12.165459655142945"><ele>385.0</ele><time>2026-04-29T13:06:54Z</time></trkpt><trkpt lat="43.378171862923914" lon="12.165357948640654"><ele>387.1666666666667</ele><time>2026-04-29T13:06:56Z</time></trkpt><trkpt lat="43.37824729633483" lon="12.165330316363496"><ele>389.33333333333337</ele><time>2026-04-29T13:06:57Z</time></trkpt><trkpt lat="43.37829314947444" lon="12.165245231449891"><ele>391.5</ele><time>2026-04-29T13:06:58Z</time></trkpt><trkpt lat="43.3783404699368" lon="12.165155843475889"><ele>393.66666666666663</ele><time>2026-04-29T13:06:59Z</time></trkpt><trkpt lat="43.37837633286617" lon="12.165051643317863"><ele>395.8333333333333</ele><time>2026-04-29T13:07:00Z</time></trkpt><trkpt lat="43.37843276598859" lon="12.164972586395365"><ele>398.0</ele><time>2026-04-29T13:07:01Z</time></trkpt><trkpt lat="43.378475312190254" lon="12.164881782013525"><ele>398.8333333333333</ele><time>2026-04-29T13:07:02Z</time></trkpt><trkpt lat="43.37850233154938" lon="12.16479333063136"><ele>399.66666666666663</ele><time>2026-04-29T13:07:03Z</time></trkpt><trkpt lat="43.37851998496284" lon="12.164695526091803"><ele>400.5</ele><time>2026-04-29T13:07:04Z</time></trkpt><trkpt lat="43.37853115185327" lon="12.16458983509488"><ele>401.33333333333337</ele><time>2026-04-29T13:07:05Z</time></trkpt><trkpt lat="43.378547500370786" lon="12.164485777943403"><ele>402.1666666666667</ele><time>2026-04-29T13:07:06Z</time></trkpt><trkpt lat="43.378570883882155" lon="12.16437830019912"><ele>403.0</ele><time>2026-04-29T13:07:07Z</time></trkpt><trkpt lat="43.37860123105332" lon="12.164284124368852"><ele>403.0</ele><time>2026-04-29T13:07:08Z</time></trkpt><trkpt lat="43.378628507226466" lon="12.164196605129654"><ele>403.0</ele><time>2026-04-29T13:07:09Z</time></trkpt><trkpt lat="43.37867223240734" lon="12.16402194167334"><ele>403.0</ele><time>2026-04-29T13:07:11Z</time></trkpt><trkpt lat="43.3786750447969" lon="12.163898240363713"><ele>403.0</ele><time>2026-04-29T13:07:12Z</time></trkpt><trkpt lat="43.37872039930534" lon="12.1637876665196"><ele>403.0</ele><time>2026-04-29T13:07:13Z</time></trkpt><trkpt lat="43.37874768210307" lon="12.163694570153806"><ele>404.50000000000006</ele><time>2026-04-29T13:07:14Z</time></trkpt><trkpt lat="43.37879408992722" lon="12.163530714833566"><ele>406.0</ele><time>2026-04-29T13:07:16Z</time></trkpt><trkpt lat="43.37882852365447" lon="12.16342835549734"><ele>407.5</ele><time>2026-04-29T13:07:17Z</time></trkpt><trkpt lat="43.37886458195359" lon="12.163325469011468"><ele>409.0</ele><time>2026-04-29T13:07:18Z</time></trkpt><trkpt lat="43.378905968827084" lon="12.163249146642318"><ele>410.50000000000006</ele><time>2026-04-29T13:07:19Z</time></trkpt><trkpt lat="43.378933250822776" lon="12.163149589374306"><ele>412.0</ele><time>2026-04-29T13:07:20Z</time></trkpt><trkpt lat="43.37895087128999" lon="12.163065579888604"><ele>415.20000000000005</ele><time>2026-04-29T13:07:21.001Z</time></trkpt><trkpt lat="43.37895509468438" lon="12.162904471380335"><ele>418.4</ele><time>2026-04-29T13:07:23.001Z</time></trkpt><trkpt lat="43.378952949130635" lon="12.1627171991264"><ele>421.59999999999997</ele><time>2026-04-29T13:07:25.001Z</time></trkpt><trkpt lat="43.37894885229225" lon="12.162626025307649"><ele>424.79999999999995</ele><time>2026-04-29T13:07:26.001Z</time></trkpt><trkpt lat="43.378988641305" lon="12.162508872414703"><ele>428.0</ele><time>2026-04-29T13:07:27.001Z</time></trkpt><trkpt lat="43.37902399675335" lon="12.162392264162268"><ele>430.0</ele><time>2026-04-29T13:07:28.001Z</time></trkpt><trkpt lat="43.37904182147696" lon="12.162270748612933"><ele>431.99999999999994</ele><time>2026-04-29T13:07:29.001Z</time></trkpt><trkpt lat="43.37907104179795" lon="12.162176499746995"><ele>433.99999999999994</ele><time>2026-04-29T13:07:30.001Z</time></trkpt><trkpt lat="43.379082875993596" lon="12.16200559717185"><ele>436.0</ele><time>2026-04-29T13:07:32.001Z</time></trkpt><trkpt lat="43.37907201901379" lon="12.161824800385315"><ele>438.0</ele><time>2026-04-29T13:07:34.001Z</time></trkpt><trkpt lat="43.37908354072418" lon="12.16173461186224"><ele>438.0</ele><time>2026-04-29T13:07:35.001Z</time></trkpt><trkpt lat="43.37907415736504" lon="12.161634741176625"><ele>438.0</ele><time>2026-04-29T13:07:36.001Z</time></trkpt><trkpt lat="43.379056139734296" lon="12.161543381124602"><ele>438.0</ele><time>2026-04-29T13:07:37.001Z</time></trkpt><trkpt lat="43.37901972204387" lon="12.161464401570235"><ele>438.0</ele><time>2026-04-29T13:07:38.001Z</time></trkpt><trkpt lat="43.37898939498081" lon="12.161361678131122"><ele>438.0</ele><time>2026-04-29T13:07:39.001Z</time></trkpt><trkpt lat="43.37897872261834" lon="12.161247892370621"><ele>438.0</ele><time>2026-04-29T13:07:40.001Z</time></trkpt><trkpt lat="43.378979602173125" lon="12.161154902253744"><ele>438.0</ele><time>2026-04-29T13:07:41.001Z</time></trkpt><trkpt lat="43.3789887720807" lon="12.161058455393128"><ele>439.5</ele><time>2026-04-29T13:07:42.001Z</time></trkpt><trkpt lat="43.379003378753836" lon="12.160959743400857"><ele>441.0</ele><time>2026-04-29T13:07:43.001Z</time></trkpt><trkpt lat="43.3790194673628" lon="12.160865341122568"><ele>442.5</ele><time>2026-04-29T13:07:44.001Z</time></trkpt><trkpt lat="43.37902701473918" lon="12.160756122613021"><ele>444.0</ele><time>2026-04-29T13:07:45.001Z</time></trkpt><trkpt lat="43.379044979118135" lon="12.160651223030861"><ele>445.5</ele><time>2026-04-29T13:07:46.001Z</time></trkpt><trkpt lat="43.379046880004864" lon="12.160559048630496"><ele>447.0</ele><time>2026-04-29T13:07:47.001Z</time></trkpt><trkpt lat="43.378985832843206" lon="12.160407998576815"><ele>449.0</ele><time>2026-04-29T13:07:49.001Z</time></trkpt><trkpt lat="43.37894287344038" lon="12.160299303352257"><ele>451.0</ele><time>2026-04-29T13:07:50.001Z</time></trkpt><trkpt lat="43.37891617639355" lon="12.160216083861613"><ele>453.0</ele><time>2026-04-29T13:07:51.001Z</time></trkpt><trkpt lat="43.37884321456539" lon="12.160091640668508"><ele>455.0</ele><time>2026-04-29T13:07:53.001Z</time></trkpt><trkpt lat="43.37875595513376" lon="12.16007155861279"><ele>457.0</ele><time>2026-04-29T13:07:54.001Z</time></trkpt><trkpt lat="43.37871294328812" lon="12.159983089373757"><ele>459.0</ele><time>2026-04-29T13:07:55.001Z</time></trkpt><trkpt lat="43.37864336930521" lon="12.15991825211326"><ele>462.6</ele><time>2026-04-29T13:07:56.001Z</time></trkpt><trkpt lat="43.37859951922687" lon="12.15985364974836"><ele>466.2</ele><time>2026-04-29T13:07:57.001Z</time></trkpt><trkpt lat="43.37848152291753" lon="12.15982339868124"><ele>469.80000000000007</ele><time>2026-04-29T13:07:59.001Z</time></trkpt><trkpt lat="43.37841439305014" lon="12.159796426360087"><ele>473.40000000000003</ele><time>2026-04-29T13:08:00.001Z</time></trkpt><trkpt lat="43.378313358034085" lon="12.159763144258761"><ele>477.0</ele><time>2026-04-29T13:08:01.001Z</time></trkpt><trkpt lat="43.378239758812406" lon="12.159675185579298"><ele>477.0</ele><time>2026-04-29T13:08:02.001Z</time></trkpt><trkpt lat="43.37818085844891" lon="12.159600303825155"><ele>477.0</ele><time>2026-04-29T13:08:03.001Z</time></trkpt><trkpt lat="43.37811189363146" lon="12.15952281062891"><ele>477.0</ele><time>2026-04-29T13:08:04.001Z</time></trkpt><trkpt lat="43.37806210869841" lon="12.159430894723233"><ele>477.0</ele><time>2026-04-29T13:08:05.001Z</time></trkpt><trkpt lat="43.37802366795443" lon="12.15934800701315"><ele>477.0</ele><time>2026-04-29T13:08:06.001Z</time></trkpt><trkpt lat="43.377986002766555" lon="12.1592032941477"><ele>477.0</ele><time>2026-04-29T13:08:08.001Z</time></trkpt><trkpt lat="43.378004789313806" lon="12.159116780272768"><ele>475.40000000000003</ele><time>2026-04-29T13:08:09.001Z</time></trkpt><trkpt lat="43.37800031830426" lon="12.158987397475839"><ele>473.80000000000007</ele><time>2026-04-29T13:08:10.001Z</time></trkpt><trkpt lat="43.37800998785909" lon="12.15885649791741"><ele>472.2</ele><time>2026-04-29T13:08:11.001Z</time></trkpt><trkpt lat="43.37802995071751" lon="12.158765572201327"><ele>470.6</ele><time>2026-04-29T13:08:12.001Z</time></trkpt><trkpt lat="43.37812027649732" lon="12.158626445475257"><ele>469.0</ele><time>2026-04-29T13:08:14.001Z</time></trkpt><trkpt lat="43.37817330478608" lon="12.158525659849436"><ele>472.2</ele><time>2026-04-29T13:08:15.001Z</time></trkpt><trkpt lat="43.378229503471104" lon="12.158428508965773"><ele>475.4</ele><time>2026-04-29T13:08:16.001Z</time></trkpt><trkpt lat="43.37826962635823" lon="12.158354251268415"><ele>478.6</ele><time>2026-04-29T13:08:17.001Z</time></trkpt><trkpt lat="43.37826317203493" lon="12.15823083350977"><ele>481.8</ele><time>2026-04-29T13:08:20.001Z</time></trkpt><trkpt lat="43.37815234950736" lon="12.158136184041517"><ele>485.0</ele><time>2026-04-29T13:08:22.001Z</time></trkpt><trkpt lat="43.37807949283481" lon="12.15809847790616"><ele>487.0</ele><time>2026-04-29T13:08:23.001Z</time></trkpt><trkpt lat="43.37798568066752" lon="12.15805273197469"><ele>489.0</ele><time>2026-04-29T13:08:24.001Z</time></trkpt><trkpt lat="43.37787796746347" lon="12.157995012562601"><ele>491.0</ele><time>2026-04-29T13:08:25.001Z</time></trkpt><trkpt lat="43.37776805584406" lon="12.157924466650062"><ele>493.0</ele><time>2026-04-29T13:08:26.001Z</time></trkpt><trkpt lat="43.37765689651962" lon="12.157852172592793"><ele>493.0</ele><time>2026-04-29T13:08:27.001Z</time></trkpt><trkpt lat="43.37755251253912" lon="12.157797536749214"><ele>492.99999999999994</ele><time>2026-04-29T13:08:28.001Z</time></trkpt><trkpt lat="43.37744194786232" lon="12.157755293253924"><ele>492.99999999999994</ele><time>2026-04-29T13:08:29.001Z</time></trkpt><trkpt lat="43.37735133176428" lon="12.157678915394602"><ele>493.0</ele><time>2026-04-29T13:08:30.001Z</time></trkpt><trkpt lat="43.37726790187442" lon="12.15762547874463"><ele>493.0</ele><time>2026-04-29T13:08:31Z</time></trkpt><trkpt lat="43.37716624899573" lon="12.157577103527187"><ele>492.0</ele><time>2026-04-29T13:08:32Z</time></trkpt><trkpt lat="43.37709149106705" lon="12.157476004741802"><ele>490.99999999999994</ele><time>2026-04-29T13:08:33Z</time></trkpt><trkpt lat="43.377026320356634" lon="12.157388882224136"><ele>489.99999999999994</ele><time>2026-04-29T13:08:34Z</time></trkpt><trkpt lat="43.37697064599264" lon="12.157302620106016"><ele>489.0</ele><time>2026-04-29T13:08:35Z</time></trkpt><trkpt lat="43.37691653122702" lon="12.157204871846004"><ele>488.0</ele><time>2026-04-29T13:08:36Z</time></trkpt><trkpt lat="43.37685259394956" lon="12.15708897792609"><ele>488.0</ele><time>2026-04-29T13:08:37Z</time></trkpt><trkpt lat="43.37681367589297" lon="12.156931295016477"><ele>487.99999999999994</ele><time>2026-04-29T13:08:38Z</time></trkpt><trkpt lat="43.37676917859169" lon="12.156799904503028"><ele>487.99999999999994</ele><time>2026-04-29T13:08:39Z</time></trkpt><trkpt lat="43.3767414990284" lon="12.156693639813613"><ele>488.0</ele><time>2026-04-29T13:08:40Z</time></trkpt><trkpt lat="43.37673966568105" lon="12.156590982273626"><ele>488.0</ele><time>2026-04-29T13:08:41Z</time></trkpt><trkpt lat="43.37675831663798" lon="12.156474592534263"><ele>487.49999999999994</ele><time>2026-04-29T13:08:42Z</time></trkpt><trkpt lat="43.37675369462661" lon="12.156347935650905"><ele>487.0</ele><time>2026-04-29T13:08:43Z</time></trkpt><trkpt lat="43.37676796033204" lon="12.156248840341346"><ele>486.5</ele><time>2026-04-29T13:08:44Z</time></trkpt><trkpt lat="43.37675622606214" lon="12.156084370476046"><ele>486.0</ele><time>2026-04-29T13:08:46Z</time></trkpt><trkpt lat="43.37675303976339" lon="12.155996579966633"><ele>485.49999999999994</ele><time>2026-04-29T13:08:47Z</time></trkpt><trkpt lat="43.37674731198342" lon="12.155904313220907"><ele>485.0</ele><time>2026-04-29T13:08:48Z</time></trkpt><trkpt lat="43.37674942976087" lon="12.155815820643333"><ele>485.0</ele><time>2026-04-29T13:08:49Z</time></trkpt><trkpt lat="43.376771134910015" lon="12.155710605651729"><ele>485.0</ele><time>2026-04-29T13:08:50Z</time></trkpt><trkpt lat="43.3767793249786" lon="12.155599678901218"><ele>485.0</ele><time>2026-04-29T13:08:51Z</time></trkpt><trkpt lat="43.37678474862415" lon="12.155466902502953"><ele>485.0</ele><time>2026-04-29T13:08:52Z</time></trkpt><trkpt lat="43.37680732155332" lon="12.155321250537671"><ele>485.0</ele><time>2026-04-29T13:08:53Z</time></trkpt><trkpt lat="43.376830253054365" lon="12.155176265897888"><ele>483.8</ele><time>2026-04-29T13:08:54Z</time></trkpt><trkpt lat="43.37685140879418" lon="12.155033101952027"><ele>482.6</ele><time>2026-04-29T13:08:55Z</time></trkpt><trkpt lat="43.376869477445894" lon="12.154907116776085"><ele>481.4</ele><time>2026-04-29T13:08:56Z</time></trkpt><trkpt lat="43.3768870979344" lon="12.154773757621237"><ele>480.2</ele><time>2026-04-29T13:08:57Z</time></trkpt><trkpt lat="43.376889691859304" lon="12.154642246959996"><ele>479.0</ele><time>2026-04-29T13:08:58Z</time></trkpt><trkpt lat="43.376885470425755" lon="12.154502212649227"><ele>478.99999999999994</ele><time>2026-04-29T13:08:59Z</time></trkpt><trkpt lat="43.37687748327037" lon="12.154365411376093"><ele>479.0</ele><time>2026-04-29T13:09:00Z</time></trkpt><trkpt lat="43.37687984785281" lon="12.15423537198414"><ele>479.0</ele><time>2026-04-29T13:09:01Z</time></trkpt><trkpt lat="43.37686972425899" lon="12.154114767896328"><ele>479.0</ele><time>2026-04-29T13:09:02Z</time></trkpt><trkpt lat="43.3768436833101" lon="12.154016816094842"><ele>478.99999999999994</ele><time>2026-04-29T13:09:03Z</time></trkpt><trkpt lat="43.37680250779822" lon="12.153930023950858"><ele>479.0</ele><time>2026-04-29T13:09:04Z</time></trkpt><trkpt lat="43.37675169268587" lon="12.153856639988911"><ele>481.6</ele><time>2026-04-29T13:09:05Z</time></trkpt><trkpt lat="43.37668167868634" lon="12.153783018654078"><ele>484.2</ele><time>2026-04-29T13:09:06Z</time></trkpt><trkpt lat="43.376599740889446" lon="12.153694311484552"><ele>486.80000000000007</ele><time>2026-04-29T13:09:07Z</time></trkpt><trkpt lat="43.37650887318561" lon="12.153607735798145"><ele>489.40000000000003</ele><time>2026-04-29T13:09:08.001Z</time></trkpt><trkpt lat="43.37641008285851" lon="12.153531212991828"><ele>492.0</ele><time>2026-04-29T13:09:09.001Z</time></trkpt><trkpt lat="43.376340221851514" lon="12.153453316245507"><ele>492.0</ele><time>2026-04-29T13:09:10.001Z</time></trkpt><trkpt lat="43.37626546543218" lon="12.153414514978468"><ele>492.0</ele><time>2026-04-29T13:09:11.001Z</time></trkpt><trkpt lat="43.37618444777143" lon="12.153401506603029"><ele>492.0</ele><time>2026-04-29T13:09:12.001Z</time></trkpt><trkpt lat="43.37611145924613" lon="12.153395119925557"><ele>492.0</ele><time>2026-04-29T13:09:13.001Z</time></trkpt><trkpt lat="43.3760427395353" lon="12.153394949655496"><ele>492.0</ele><time>2026-04-29T13:09:14.001Z</time></trkpt><trkpt lat="43.375934013813264" lon="12.153354035954411"><ele>492.0</ele><time>2026-04-29T13:09:16.001Z</time></trkpt><trkpt lat="43.375865730063154" lon="12.153340786926325"><ele>492.0</ele><time>2026-04-29T13:09:17.001Z</time></trkpt><trkpt lat="43.37577372444912" lon="12.153301722719712"><ele>492.00000000000006</ele><time>2026-04-29T13:09:18.001Z</time></trkpt><trkpt lat="43.37567550945423" lon="12.153260600349515"><ele>492.00000000000006</ele><time>2026-04-29T13:09:19.001Z</time></trkpt><trkpt lat="43.3755615988349" lon="12.153208105224676"><ele>492.0</ele><time>2026-04-29T13:09:20.001Z</time></trkpt><trkpt lat="43.375455725452944" lon="12.153171099535614"><ele>492.0</ele><time>2026-04-29T13:09:21.001Z</time></trkpt><trkpt lat="43.375389616702556" lon="12.153133179786247"><ele>492.3333333333333</ele><time>2026-04-29T13:09:22.001Z</time></trkpt><trkpt lat="43.37530390711921" lon="12.153038348803808"><ele>492.66666666666663</ele><time>2026-04-29T13:09:24.001Z</time></trkpt><trkpt lat="43.37528056733351" lon="12.1529540508216"><ele>493.0</ele><time>2026-04-29T13:09:25.001Z</time></trkpt><trkpt lat="43.37524292916771" lon="12.152869888574799"><ele>493.3333333333333</ele><time>2026-04-29T13:09:26.001Z</time></trkpt><trkpt lat="43.375203602402955" lon="12.152783402463614"><ele>493.66666666666663</ele><time>2026-04-29T13:09:27.001Z</time></trkpt><trkpt lat="43.37521853485923" lon="12.152688095687457"><ele>494.0</ele><time>2026-04-29T13:09:28.001Z</time></trkpt><trkpt lat="43.375255422777165" lon="12.152581056959015"><ele>494.0</ele><time>2026-04-29T13:09:30.001Z</time></trkpt><trkpt lat="43.37534093020174" lon="12.152483038681106"><ele>494.0</ele><time>2026-04-29T13:09:32.001Z</time></trkpt><trkpt lat="43.375443820301626" lon="12.152423059547555"><ele>494.0</ele><time>2026-04-29T13:09:34.001Z</time></trkpt><trkpt lat="43.3755283324304" lon="12.152381835154968"><ele>494.0</ele><time>2026-04-29T13:09:36.001Z</time></trkpt><trkpt lat="43.37562262933171" lon="12.15243208251966"><ele>494.0</ele><time>2026-04-29T13:09:38.001Z</time></trkpt><trkpt lat="43.375682457104496" lon="12.15246599486864"><ele>496.14285714285717</ele><time>2026-04-29T13:09:39.001Z</time></trkpt><trkpt lat="43.37572087163047" lon="12.152538793869635"><ele>498.2857142857142</ele><time>2026-04-29T13:09:40.001Z</time></trkpt><trkpt lat="43.37577835517575" lon="12.152574792679882"><ele>500.4285714285714</ele><time>2026-04-29T13:09:41.001Z</time></trkpt><trkpt lat="43.375874132596216" lon="12.152587027186575"><ele>502.57142857142856</ele><time>2026-04-29T13:09:43.001Z</time></trkpt><trkpt lat="43.37594320812418" lon="12.152573283432986"><ele>504.71428571428567</ele><time>2026-04-29T13:09:44.001Z</time></trkpt><trkpt lat="43.37601501879061" lon="12.152552370996816"><ele>506.8571428571428</ele><time>2026-04-29T13:09:45.001Z</time></trkpt><trkpt lat="43.37609009580551" lon="12.152546979766244"><ele>508.99999999999994</ele><time>2026-04-29T13:09:46.001Z</time></trkpt><trkpt lat="43.376183277032595" lon="12.152529077393222"><ele>509.0</ele><time>2026-04-29T13:09:47.001Z</time></trkpt><trkpt lat="43.37626701736152" lon="12.15251482325126"><ele>509.0</ele><time>2026-04-29T13:09:48.001Z</time></trkpt><trkpt lat="43.376358067142405" lon="12.152487604048654"><ele>509.0</ele><time>2026-04-29T13:09:49.001Z</time></trkpt><trkpt lat="43.3764504261506" lon="12.152470751587352"><ele>509.0</ele><time>2026-04-29T13:09:50.001Z</time></trkpt><trkpt lat="43.37652568155365" lon="12.152465700753067"><ele>509.0</ele><time>2026-04-29T13:09:51.001Z</time></trkpt><trkpt lat="43.3766305009437" lon="12.152452976047131"><ele>511.66666666666663</ele><time>2026-04-29T13:09:53.001Z</time></trkpt><trkpt lat="43.376711402482115" lon="12.152465415032388"><ele>514.3333333333333</ele><time>2026-04-29T13:09:55.001Z</time></trkpt><trkpt lat="43.37672725992268" lon="12.1523078366928"><ele>517.0</ele><time>2026-04-29T13:09:58.001Z</time></trkpt><trkpt lat="43.37669638754047" lon="12.152212115675768"><ele>519.6666666666666</ele><time>2026-04-29T13:10:00.001Z</time></trkpt><trkpt lat="43.376669001208256" lon="12.152125693299778"><ele>522.3333333333334</ele><time>2026-04-29T13:10:01.001Z</time></trkpt><trkpt lat="43.37663662624208" lon="12.152018017853662"><ele>525.0</ele><time>2026-04-29T13:10:02.001Z</time></trkpt><trkpt lat="43.37659127712636" lon="12.151918236125685"><ele>525.8333333333334</ele><time>2026-04-29T13:10:03.001Z</time></trkpt><trkpt lat="43.37657615913522" lon="12.151801213341871"><ele>526.6666666666666</ele><time>2026-04-29T13:10:04.001Z</time></trkpt><trkpt lat="43.376550335995795" lon="12.151693109262187"><ele>527.5</ele><time>2026-04-29T13:10:05.001Z</time></trkpt><trkpt lat="43.37652981061244" lon="12.151592157214338"><ele>528.3333333333333</ele><time>2026-04-29T13:10:06.001Z</time></trkpt><trkpt lat="43.37649872169262" lon="12.151492282067565"><ele>529.1666666666666</ele><time>2026-04-29T13:10:07.001Z</time></trkpt><trkpt lat="43.376474796897966" lon="12.151397077440249"><ele>530.0</ele><time>2026-04-29T13:10:08.001Z</time></trkpt><trkpt lat="43.37645148242599" lon="12.151267316419545"><ele>528.0</ele><time>2026-04-29T13:10:10.001Z</time></trkpt><trkpt lat="43.37642852715153" lon="12.151151377325403"><ele>526.0</ele><time>2026-04-29T13:10:13.001Z</time></trkpt><trkpt lat="43.37639346145735" lon="12.151040514406526"><ele>524.0</ele><time>2026-04-29T13:10:16.001Z</time></trkpt><trkpt lat="43.37637251535487" lon="12.150938738786628"><ele>522.0</ele><time>2026-04-29T13:10:18.001Z</time></trkpt><trkpt lat="43.37636617594256" lon="12.150808706266796"><ele>520.0</ele><time>2026-04-29T13:10:20.001Z</time></trkpt><trkpt lat="43.37636759061234" lon="12.150673049118945"><ele>518.0</ele><time>2026-04-29T13:10:22.001Z</time></trkpt><trkpt lat="43.376377201856165" lon="12.150529830822684"><ele>515.6666666666666</ele><time>2026-04-29T13:10:24.001Z</time></trkpt><trkpt lat="43.37640535810329" lon="12.150414534822973"><ele>513.3333333333333</ele><time>2026-04-29T13:10:26.001Z</time></trkpt><trkpt lat="43.376490796832606" lon="12.150360216157997"><ele>511.0</ele><time>2026-04-29T13:10:28.001Z</time></trkpt><trkpt lat="43.376553469302706" lon="12.15034500274718"><ele>508.66666666666663</ele><time>2026-04-29T13:10:29.001Z</time></trkpt><trkpt lat="43.37664640932554" lon="12.15032863402301"><ele>506.3333333333333</ele><time>2026-04-29T13:10:30.001Z</time></trkpt><trkpt lat="43.376739953070164" lon="12.15031259838322"><ele>504.0</ele><time>2026-04-29T13:10:31.001Z</time></trkpt><trkpt lat="43.376818184359784" lon="12.150302207744135"><ele>504.0</ele><time>2026-04-29T13:10:32.001Z</time></trkpt><trkpt lat="43.37688254035618" lon="12.150295770922153"><ele>504.0</ele><time>2026-04-29T13:10:33.002Z</time></trkpt><trkpt lat="43.37694598141423" lon="12.150293481310179"><ele>504.0</ele><time>2026-04-29T13:10:34.002Z</time></trkpt><trkpt lat="43.37706920478971" lon="12.150288044621725"><ele>504.0</ele><time>2026-04-29T13:10:36.001Z</time></trkpt><trkpt lat="43.377171045199844" lon="12.15020770909469"><ele>504.0</ele><time>2026-04-29T13:10:38.001Z</time></trkpt><trkpt lat="43.37722796167741" lon="12.150159482935813"><ele>504.0</ele><time>2026-04-29T13:10:39.001Z</time></trkpt><trkpt lat="43.37727241695462" lon="12.150083408724976"><ele>504.0</ele><time>2026-04-29T13:10:40.001Z</time></trkpt><trkpt lat="43.37733175435448" lon="12.149939729786814"><ele>504.0</ele><time>2026-04-29T13:10:42.001Z</time></trkpt><trkpt lat="43.37741389421296" lon="12.149841019464775"><ele>504.0</ele><time>2026-04-29T13:10:44.001Z</time></trkpt><trkpt lat="43.377517001879426" lon="12.149750035159132"><ele>504.0</ele><time>2026-04-29T13:10:46.001Z</time></trkpt><trkpt lat="43.377574458235145" lon="12.149708401065173"><ele>504.0</ele><time>2026-04-29T13:10:47.001Z</time></trkpt><trkpt lat="43.377636986311124" lon="12.149666025902535"><ele>501.3333333333333</ele><time>2026-04-29T13:10:48.001Z</time></trkpt><trkpt lat="43.37771173230277" lon="12.149657647749105"><ele>498.66666666666663</ele><time>2026-04-29T13:10:49.001Z</time></trkpt><trkpt lat="43.37776262436858" lon="12.14959236765122"><ele>496.0</ele><time>2026-04-29T13:10:50.001Z</time></trkpt><trkpt lat="43.377827647436625" lon="12.149576501448287"><ele>493.3333333333333</ele><time>2026-04-29T13:10:51.001Z</time></trkpt><trkpt lat="43.377959289022186" lon="12.149563834958897"><ele>490.66666666666663</ele><time>2026-04-29T13:10:53.001Z</time></trkpt><trkpt lat="43.37802656556844" lon="12.149561271362604"><ele>488.0</ele><time>2026-04-29T13:10:54.001Z</time></trkpt><trkpt lat="43.37809024392145" lon="12.149558844874033"><ele>486.3333333333333</ele><time>2026-04-29T13:10:55.001Z</time></trkpt><trkpt lat="43.37815771327233" lon="12.149535260986553"><ele>484.66666666666663</ele><time>2026-04-29T13:10:56.001Z</time></trkpt><trkpt lat="43.37823388890656" lon="12.149551554137338"><ele>483.0</ele><time>2026-04-29T13:10:57.001Z</time></trkpt><trkpt lat="43.3783132686125" lon="12.14955222653245"><ele>481.33333333333337</ele><time>2026-04-29T13:10:58.001Z</time></trkpt><trkpt lat="43.37838504888155" lon="12.149559935224767"><ele>479.6666666666667</ele><time>2026-04-29T13:10:59.001Z</time></trkpt><trkpt lat="43.37846420782735" lon="12.149550243007226"><ele>478.0</ele><time>2026-04-29T13:11:00.001Z</time></trkpt><trkpt lat="43.37854113441381" lon="12.14957745010217"><ele>478.00000000000006</ele><time>2026-04-29T13:11:01.001Z</time></trkpt><trkpt lat="43.378618165929794" lon="12.149585131320455"><ele>478.0</ele><time>2026-04-29T13:11:02.001Z</time></trkpt><trkpt lat="43.37868451083535" lon="12.149601932628773"><ele>478.0</ele><time>2026-04-29T13:11:03.001Z</time></trkpt><trkpt lat="43.37875236459357" lon="12.149620469572806"><ele>478.0</ele><time>2026-04-29T13:11:04.001Z</time></trkpt><trkpt lat="43.37885737514154" lon="12.149600525508674"><ele>478.00000000000006</ele><time>2026-04-29T13:11:06.001Z</time></trkpt><trkpt lat="43.378891168066446" lon="12.149448981312043"><ele>478.0</ele><time>2026-04-29T13:11:08.001Z</time></trkpt><trkpt lat="43.37890527349165" lon="12.14932908662983"><ele>478.0</ele><time>2026-04-29T13:11:11.001Z</time></trkpt><trkpt lat="43.37864954154096" lon="12.14916377794859"><ele>478.0</ele><time>2026-04-29T13:11:14.001Z</time></trkpt><trkpt lat="43.378584546564575" lon="12.149112827779538"><ele>478.0</ele><time>2026-04-29T13:11:15.001Z</time></trkpt><trkpt lat="43.37852246124843" lon="12.149057432325172"><ele>478.0</ele><time>2026-04-29T13:11:16.001Z</time></trkpt><trkpt lat="43.37845336133924" lon="12.149006520838748"><ele>475.83333333333337</ele><time>2026-04-29T13:11:17.001Z</time></trkpt><trkpt lat="43.37838472433207" lon="12.148968788594491"><ele>473.6666666666667</ele><time>2026-04-29T13:11:18.001Z</time></trkpt><trkpt lat="43.378320336557096" lon="12.14892154055345"><ele>471.5</ele><time>2026-04-29T13:11:19.001Z</time></trkpt><trkpt lat="43.37825897730934" lon="12.14885824385613"><ele>469.33333333333337</ele><time>2026-04-29T13:11:20.001Z</time></trkpt><trkpt lat="43.3782037353814" lon="12.148784131890272"><ele>467.1666666666667</ele><time>2026-04-29T13:11:21.001Z</time></trkpt><trkpt lat="43.37814649233019" lon="12.148705830787721"><ele>465.0</ele><time>2026-04-29T13:11:22.001Z</time></trkpt><trkpt lat="43.37808037145556" lon="12.148622796119012"><ele>465.6</ele><time>2026-04-29T13:11:23.001Z</time></trkpt><trkpt lat="43.37800569000943" lon="12.148537484841071"><ele>466.2</ele><time>2026-04-29T13:11:24.001Z</time></trkpt><trkpt lat="43.37792974465973" lon="12.148441568953757"><ele>466.79999999999995</ele><time>2026-04-29T13:11:25.001Z</time></trkpt><trkpt lat="43.37786095722296" lon="12.148345093753775"><ele>467.4</ele><time>2026-04-29T13:11:26.001Z</time></trkpt><trkpt lat="43.377808118970044" lon="12.14825351338524"><ele>468.0</ele><time>2026-04-29T13:11:27.001Z</time></trkpt><trkpt lat="43.37776455575633" lon="12.148180782671497"><ele>465.2</ele><time>2026-04-29T13:11:28.001Z</time></trkpt><trkpt lat="43.377677522842895" lon="12.148080915339687"><ele>462.4</ele><time>2026-04-29T13:11:30.001Z</time></trkpt><trkpt lat="43.377548359593234" lon="12.148082980903512"><ele>459.59999999999997</ele><time>2026-04-29T13:11:32.001Z</time></trkpt><trkpt lat="43.37746403546505" lon="12.148114010551868"><ele>456.79999999999995</ele><time>2026-04-29T13:11:33.001Z</time></trkpt><trkpt lat="43.37738476643296" lon="12.148151143567818"><ele>454.0</ele><time>2026-04-29T13:11:34.001Z</time></trkpt><trkpt lat="43.3773185471392" lon="12.148166336462765"><ele>454.00000000000006</ele><time>2026-04-29T13:11:35.001Z</time></trkpt><trkpt lat="43.37725663661924" lon="12.148140480855362"><ele>454.0</ele><time>2026-04-29T13:11:36.001Z</time></trkpt><trkpt lat="43.37720763685243" lon="12.148085755347669"><ele>454.0</ele><time>2026-04-29T13:11:37.001Z</time></trkpt><trkpt lat="43.37716150023018" lon="12.148017420300445"><ele>454.0</ele><time>2026-04-29T13:11:38.001Z</time></trkpt><trkpt lat="43.377124568110816" lon="12.147933474426816"><ele>454.00000000000006</ele><time>2026-04-29T13:11:39.001Z</time></trkpt><trkpt lat="43.37710690602392" lon="12.147838607506953"><ele>454.0</ele><time>2026-04-29T13:11:40.001Z</time></trkpt><trkpt lat="43.37713503823425" lon="12.147665471009821"><ele>454.00000000000006</ele><time>2026-04-29T13:11:42.001Z</time></trkpt><trkpt lat="43.37716138587908" lon="12.147557545858996"><ele>454.0</ele><time>2026-04-29T13:11:43.001Z</time></trkpt><trkpt lat="43.37716972780486" lon="12.147447415003723"><ele>454.0</ele><time>2026-04-29T13:11:44.001Z</time></trkpt><trkpt lat="43.37716107974001" lon="12.147354105463199"><ele>454.0</ele><time>2026-04-29T13:11:45.001Z</time></trkpt><trkpt lat="43.377137025043666" lon="12.14725917372525"><ele>454.00000000000006</ele><time>2026-04-29T13:11:46.001Z</time></trkpt><trkpt lat="43.377096191345515" lon="12.147162804149811"><ele>454.0</ele><time>2026-04-29T13:11:47.001Z</time></trkpt><trkpt lat="43.37704811013216" lon="12.147071815489968"><ele>454.0</ele><time>2026-04-29T13:11:48.001Z</time></trkpt><trkpt lat="43.377003982810656" lon="12.147009036089795"><ele>454.0</ele><time>2026-04-29T13:11:49.001Z</time></trkpt><trkpt lat="43.37689194105003" lon="12.146978751070876"><ele>454.0</ele><time>2026-04-29T13:11:51.001Z</time></trkpt><trkpt lat="43.376811115471774" lon="12.146979956391851"><ele>454.0</ele><time>2026-04-29T13:11:52.001Z</time></trkpt><trkpt lat="43.376709417717244" lon="12.14696793805907"><ele>454.0</ele><time>2026-04-29T13:11:53.001Z</time></trkpt><trkpt lat="43.37662085364254" lon="12.146927947362402"><ele>454.00000000000006</ele><time>2026-04-29T13:11:54.001Z</time></trkpt><trkpt lat="43.376544264394546" lon="12.146869921609916"><ele>454.0</ele><time>2026-04-29T13:11:55.001Z</time></trkpt><trkpt lat="43.37648294795288" lon="12.146802721521235"><ele>454.0</ele><time>2026-04-29T13:11:56.001Z</time></trkpt><trkpt lat="43.37644097637902" lon="12.146730739382567"><ele>454.0</ele><time>2026-04-29T13:11:57.001Z</time></trkpt><trkpt lat="43.376412870133784" lon="12.14664076637034"><ele>454.00000000000006</ele><time>2026-04-29T13:11:58.001Z</time></trkpt><trkpt lat="43.376396526515464" lon="12.146531460386209"><ele>454.0</ele><time>2026-04-29T13:11:59.001Z</time></trkpt><trkpt lat="43.37637077365857" lon="12.146394844081648"><ele>454.50000000000006</ele><time>2026-04-29T13:12:00.001Z</time></trkpt><trkpt lat="43.37633988240125" lon="12.1462703596831"><ele>455.0</ele><time>2026-04-29T13:12:01.001Z</time></trkpt><trkpt lat="43.37630867526937" lon="12.146168871740084"><ele>455.5</ele><time>2026-04-29T13:12:02.001Z</time></trkpt><trkpt lat="43.376332810898376" lon="12.146026005948661"><ele>456.0</ele><time>2026-04-29T13:12:04.001Z</time></trkpt><trkpt lat="43.37635895802186" lon="12.145925982340763"><ele>456.50000000000006</ele><time>2026-04-29T13:12:05.001Z</time></trkpt><trkpt lat="43.37636831655828" lon="12.145833904878138"><ele>457.0</ele><time>2026-04-29T13:12:06.001Z</time></trkpt><trkpt lat="43.37632195684698" lon="12.145709915931928"><ele>457.0</ele><time>2026-04-29T13:12:08.001Z</time></trkpt><trkpt lat="43.37620776426861" lon="12.145678152019979"><ele>457.00000000000006</ele><time>2026-04-29T13:12:10.001Z</time></trkpt><trkpt lat="43.37611643384563" lon="12.145658306639831"><ele>457.00000000000006</ele><time>2026-04-29T13:12:11.001Z</time></trkpt><trkpt lat="43.37601068628076" lon="12.14561483665571"><ele>457.0</ele><time>2026-04-29T13:12:12.001Z</time></trkpt><trkpt lat="43.37591334746037" lon="12.145573632065256"><ele>457.0</ele><time>2026-04-29T13:12:13.001Z</time></trkpt><trkpt lat="43.3758280526885" lon="12.145549252540745"><ele>457.00000000000006</ele><time>2026-04-29T13:12:14.001Z</time></trkpt><trkpt lat="43.375752236469744" lon="12.14554487710085"><ele>457.0</ele><time>2026-04-29T13:12:15.001Z</time></trkpt><trkpt lat="43.37568872289171" lon="12.145544470383852"><ele>457.0</ele><time>2026-04-29T13:12:16.001Z</time></trkpt><trkpt lat="43.37566174880817" lon="12.145463305714339"><ele>457.0</ele><time>2026-04-29T13:12:18.001Z</time></trkpt><trkpt lat="43.37570702645048" lon="12.145359062997143"><ele>457.00000000000006</ele><time>2026-04-29T13:12:20.001Z</time></trkpt><trkpt lat="43.375828391797846" lon="12.145238290318488"><ele>457.0</ele><time>2026-04-29T13:12:22.001Z</time></trkpt><trkpt lat="43.375892020499585" lon="12.145180944913207"><ele>457.0</ele><time>2026-04-29T13:12:23.001Z</time></trkpt><trkpt lat="43.37597553874956" lon="12.145115229728026"><ele>457.00000000000006</ele><time>2026-04-29T13:12:24.001Z</time></trkpt><trkpt lat="43.37606510087346" lon="12.145033344391619"><ele>457.00000000000006</ele><time>2026-04-29T13:12:25.001Z</time></trkpt><trkpt lat="43.376146637204116" lon="12.144960970309267"><ele>457.0</ele><time>2026-04-29T13:12:26.001Z</time></trkpt><trkpt lat="43.3761979450273" lon="12.144881231025385"><ele>457.0</ele><time>2026-04-29T13:12:27.001Z</time></trkpt><trkpt lat="43.37625657997434" lon="12.144816077761401"><ele>457.50000000000006</ele><time>2026-04-29T13:12:28.001Z</time></trkpt><trkpt lat="43.376307398092486" lon="12.144763460270061"><ele>458.0</ele><time>2026-04-29T13:12:29.001Z</time></trkpt><trkpt lat="43.37634562104779" lon="12.144687654920828"><ele>458.5</ele><time>2026-04-29T13:12:32.001Z</time></trkpt><trkpt lat="43.37636625000772" lon="12.144549455127436"><ele>459.0</ele><time>2026-04-29T13:12:34.001Z</time></trkpt><trkpt lat="43.376393226526254" lon="12.144447858305133"><ele>459.50000000000006</ele><time>2026-04-29T13:12:35.001Z</time></trkpt><trkpt lat="43.376417698454006" lon="12.144315857522583"><ele>460.0</ele><time>2026-04-29T13:12:36.001Z</time></trkpt><trkpt lat="43.376440775250124" lon="12.14419746766727"><ele>453.83333333333337</ele><time>2026-04-29T13:12:37.001Z</time></trkpt><trkpt lat="43.37647433666829" lon="12.144083062914834"><ele>447.6666666666667</ele><time>2026-04-29T13:12:38.001Z</time></trkpt><trkpt lat="43.376512446001634" lon="12.143977462317467"><ele>441.5</ele><time>2026-04-29T13:12:39.001Z</time></trkpt><trkpt lat="43.37655391274828" lon="12.143889321330064"><ele>435.33333333333337</ele><time>2026-04-29T13:12:40.001Z</time></trkpt><trkpt lat="43.37659777278105" lon="12.14381273233873"><ele>429.1666666666667</ele><time>2026-04-29T13:12:41.002Z</time></trkpt><trkpt lat="43.37667238122933" lon="12.14368210356496"><ele>423.0</ele><time>2026-04-29T13:12:43.001Z</time></trkpt><trkpt lat="43.37671706717051" lon="12.143530808083101"><ele>422.4</ele><time>2026-04-29T13:12:45.001Z</time></trkpt><trkpt lat="43.37674371119581" lon="12.143385506773955"><ele>421.79999999999995</ele><time>2026-04-29T13:12:47.001Z</time></trkpt><trkpt lat="43.376728578626874" lon="12.143267174028567"><ele>421.2</ele><time>2026-04-29T13:12:49.001Z</time></trkpt><trkpt lat="43.37668315810171" lon="12.143159914812717"><ele>420.6</ele><time>2026-04-29T13:12:51.001Z</time></trkpt><trkpt lat="43.37661316438042" lon="12.143051681632656"><ele>420.0</ele><time>2026-04-29T13:12:53.001Z</time></trkpt><trkpt lat="43.37656175930844" lon="12.143000888688956"><ele>421.8333333333333</ele><time>2026-04-29T13:12:54.001Z</time></trkpt><trkpt lat="43.376503997840956" lon="12.142946070591535"><ele>423.66666666666663</ele><time>2026-04-29T13:12:55.001Z</time></trkpt><trkpt lat="43.37644321348635" lon="12.14289093083786"><ele>425.5</ele><time>2026-04-29T13:12:56.001Z</time></trkpt><trkpt lat="43.37638947749719" lon="12.142833742828165"><ele>427.3333333333333</ele><time>2026-04-29T13:12:57.001Z</time></trkpt><trkpt lat="43.3763267401557" lon="12.142710719924443"><ele>429.16666666666663</ele><time>2026-04-29T13:12:59.001Z</time></trkpt><trkpt lat="43.37629797679645" lon="12.142632143338684"><ele>431.0</ele><time>2026-04-29T13:13:00.001Z</time></trkpt><trkpt lat="43.37627922316705" lon="12.14247213842867"><ele>427.4</ele><time>2026-04-29T13:13:02.001Z</time></trkpt><trkpt lat="43.37630065686453" lon="12.14230523814644"><ele>423.8</ele><time>2026-04-29T13:13:04.001Z</time></trkpt><trkpt lat="43.376328594400796" lon="12.142137813378103"><ele>420.2</ele><time>2026-04-29T13:13:06.001Z</time></trkpt><trkpt lat="43.376341932213826" lon="12.142049868893508"><ele>416.59999999999997</ele><time>2026-04-29T13:13:07.001Z</time></trkpt><trkpt lat="43.37638402196217" lon="12.141890400681913"><ele>413.0</ele><time>2026-04-29T13:13:09.001Z</time></trkpt><trkpt lat="43.376470840059234" lon="12.141789925782824"><ele>410.79999999999995</ele><time>2026-04-29T13:13:11.001Z</time></trkpt><trkpt lat="43.37653943503706" lon="12.141678034955785"><ele>408.6</ele><time>2026-04-29T13:13:13.001Z</time></trkpt><trkpt lat="43.3765977101089" lon="12.141532706449146"><ele>406.4</ele><time>2026-04-29T13:13:15.001Z</time></trkpt><trkpt lat="43.37664571978424" lon="12.141365325537466"><ele>404.20000000000005</ele><time>2026-04-29T13:13:17.001Z</time></trkpt><trkpt lat="43.376664017310844" lon="12.141277932202634"><ele>402.0</ele><time>2026-04-29T13:13:18.001Z</time></trkpt><trkpt lat="43.37668387556481" lon="12.141191590024958"><ele>400.7142857142857</ele><time>2026-04-29T13:13:19.001Z</time></trkpt><trkpt lat="43.376709205099644" lon="12.141096412507007"><ele>399.42857142857144</ele><time>2026-04-29T13:13:20.001Z</time></trkpt><trkpt lat="43.37673005930936" lon="12.140999069845057"><ele>398.14285714285717</ele><time>2026-04-29T13:13:21.001Z</time></trkpt><trkpt lat="43.3767539746518" lon="12.140901789641594"><ele>396.8571428571429</ele><time>2026-04-29T13:13:22.001Z</time></trkpt><trkpt lat="43.37676943803123" lon="12.140800197481767"><ele>395.57142857142856</ele><time>2026-04-29T13:13:23.001Z</time></trkpt><trkpt lat="43.37677247665369" lon="12.140699731811026"><ele>394.28571428571433</ele><time>2026-04-29T13:13:24.001Z</time></trkpt><trkpt lat="43.37677608094662" lon="12.140612100288756"><ele>393.0</ele><time>2026-04-29T13:13:25.001Z</time></trkpt><trkpt lat="43.37675169750897" lon="12.14044829209818"><ele>392.6666666666667</ele><time>2026-04-29T13:13:27.001Z</time></trkpt><trkpt lat="43.37668074455916" lon="12.140318156028245"><ele>392.33333333333337</ele><time>2026-04-29T13:13:29.001Z</time></trkpt><trkpt lat="43.37663005025044" lon="12.140262360602007"><ele>392.0</ele><time>2026-04-29T13:13:30.001Z</time></trkpt><trkpt lat="43.376574506857615" lon="12.140206123769332"><ele>391.6666666666667</ele><time>2026-04-29T13:13:31.001Z</time></trkpt><trkpt lat="43.37652239279275" lon="12.140152436504849"><ele>391.33333333333337</ele><time>2026-04-29T13:13:32.001Z</time></trkpt><trkpt lat="43.376431511989864" lon="12.140086982364295"><ele>391.0</ele><time>2026-04-29T13:13:34.001Z</time></trkpt><trkpt lat="43.37634017310433" lon="12.140078953387647"><ele>391.00000000000006</ele><time>2026-04-29T13:13:36.001Z</time></trkpt><trkpt lat="43.37622951070062" lon="12.140114534753875"><ele>391.0</ele><time>2026-04-29T13:13:38.001Z</time></trkpt><trkpt lat="43.376166312196126" lon="12.140148217084699"><ele>391.0</ele><time>2026-04-29T13:13:39.001Z</time></trkpt><trkpt lat="43.37610845044524" lon="12.14018939062182"><ele>391.0</ele><time>2026-04-29T13:13:40.001Z</time></trkpt><trkpt lat="43.37601255195278" lon="12.140234724016008"><ele>391.00000000000006</ele><time>2026-04-29T13:13:42.001Z</time></trkpt><trkpt lat="43.375948101054234" lon="12.140182095212303"><ele>391.0</ele><time>2026-04-29T13:13:44.001Z</time></trkpt><trkpt lat="43.37595458571251" lon="12.140062999013075"><ele>391.00000000000006</ele><time>2026-04-29T13:13:46.001Z</time></trkpt><trkpt lat="43.376018162708" lon="12.139939093851932"><ele>391.0</ele><time>2026-04-29T13:13:48.001Z</time></trkpt><trkpt lat="43.3760606644735" lon="12.139871819596879"><ele>391.0</ele><time>2026-04-29T13:13:49.001Z</time></trkpt><trkpt lat="43.376105669405845" lon="12.13979784399475"><ele>391.0</ele><time>2026-04-29T13:13:50.001Z</time></trkpt><trkpt lat="43.3761411719436" lon="12.139718730225255"><ele>391.00000000000006</ele><time>2026-04-29T13:13:51.001Z</time></trkpt><trkpt lat="43.376181349483936" lon="12.139556792606443"><ele>391.0</ele><time>2026-04-29T13:13:53.001Z</time></trkpt><trkpt lat="43.3761223794314" lon="12.139405168934612"><ele>389.50000000000006</ele><time>2026-04-29T13:13:55.001Z</time></trkpt><trkpt lat="43.37611257928002" lon="12.139313114292042"><ele>388.0</ele><time>2026-04-29T13:13:56.001Z</time></trkpt><trkpt lat="43.376104785779475" lon="12.139213599658197"><ele>386.5</ele><time>2026-04-29T13:13:57.001Z</time></trkpt><trkpt lat="43.376099953513474" lon="12.139104236744183"><ele>385.0</ele><time>2026-04-29T13:13:58.001Z</time></trkpt><trkpt lat="43.37611444363467" lon="12.138997124495559"><ele>383.5</ele><time>2026-04-29T13:13:59.001Z</time></trkpt><trkpt lat="43.37614354318911" lon="12.138901527810464"><ele>382.0</ele><time>2026-04-29T13:14:00.001Z</time></trkpt><trkpt lat="43.37617100442731" lon="12.13880528235323"><ele>380.0</ele><time>2026-04-29T13:14:01.001Z</time></trkpt><trkpt lat="43.376179874131054" lon="12.13863744057037"><ele>378.0</ele><time>2026-04-29T13:14:03.001Z</time></trkpt><trkpt lat="43.37617067226878" lon="12.138481552065457"><ele>376.0</ele><time>2026-04-29T13:14:05.001Z</time></trkpt><trkpt lat="43.37621919704344" lon="12.138361139943191"><ele>374.0</ele><time>2026-04-29T13:14:07.001Z</time></trkpt><trkpt lat="43.376307789414525" lon="12.138363788085037"><ele>372.0</ele><time>2026-04-29T13:14:09.001Z</time></trkpt><trkpt lat="43.37638825669664" lon="12.13845456439561"><ele>368.1666666666667</ele><time>2026-04-29T13:14:11.001Z</time></trkpt><trkpt lat="43.37642410919558" lon="12.13853361066179"><ele>364.3333333333333</ele><time>2026-04-29T13:14:12.001Z</time></trkpt><trkpt lat="43.376457502766975" lon="12.138616566483705"><ele>360.5</ele><time>2026-04-29T13:14:13.001Z</time></trkpt><trkpt lat="43.37649352414134" lon="12.138691558543588"><ele>356.66666666666663</ele><time>2026-04-29T13:14:14.001Z</time></trkpt><trkpt lat="43.37652912100192" lon="12.138767219305656"><ele>352.8333333333333</ele><time>2026-04-29T13:14:15.001Z</time></trkpt><trkpt lat="43.3765943131057" lon="12.138912417025711"><ele>349.0</ele><time>2026-04-29T13:14:17.001Z</time></trkpt><trkpt lat="43.376635737251014" lon="12.139040325761302"><ele>349.0</ele><time>2026-04-29T13:14:19.001Z</time></trkpt><trkpt lat="43.376710197985496" lon="12.139097304462819"><ele>349.0</ele><time>2026-04-29T13:14:21.001Z</time></trkpt><trkpt lat="43.37681192842461" lon="12.13899812990695"><ele>349.0</ele><time>2026-04-29T13:14:23.001Z</time></trkpt><trkpt lat="43.37686896976831" lon="12.138915889450265"><ele>349.0</ele><time>2026-04-29T13:14:24.001Z</time></trkpt><trkpt lat="43.37692972614739" lon="12.138837461602556"><ele>349.0</ele><time>2026-04-29T13:14:25.001Z</time></trkpt><trkpt lat="43.376990211303685" lon="12.138755910094664"><ele>349.0</ele><time>2026-04-29T13:14:26.001Z</time></trkpt><trkpt lat="43.37705761197312" lon="12.138671511249337"><ele>349.0</ele><time>2026-04-29T13:14:27.001Z</time></trkpt><trkpt lat="43.37711936052618" lon="12.138594690478126"><ele>349.0</ele><time>2026-04-29T13:14:28.001Z</time></trkpt><trkpt lat="43.37717768428223" lon="12.138515982396834"><ele>349.0</ele><time>2026-04-29T13:14:29.001Z</time></trkpt><trkpt lat="43.37724265954579" lon="12.138442306117334"><ele>349.0</ele><time>2026-04-29T13:14:30.001Z</time></trkpt><trkpt lat="43.37731183356394" lon="12.138389114497478"><ele>349.0</ele><time>2026-04-29T13:14:31.001Z</time></trkpt><trkpt lat="43.377380981709024" lon="12.13836118807269"><ele>347.5</ele><time>2026-04-29T13:14:32.001Z</time></trkpt><trkpt lat="43.37745276654576" lon="12.138361908836583"><ele>346.0</ele><time>2026-04-29T13:14:33.001Z</time></trkpt><trkpt lat="43.377534425473144" lon="12.138382589003138"><ele>344.5</ele><time>2026-04-29T13:14:34.001Z</time></trkpt><trkpt lat="43.37761907945437" lon="12.138411392960732"><ele>343.0</ele><time>2026-04-29T13:14:35.001Z</time></trkpt><trkpt lat="43.37770340054598" lon="12.138433864491708"><ele>341.5</ele><time>2026-04-29T13:14:36.001Z</time></trkpt><trkpt lat="43.377789214396465" lon="12.13843854138272"><ele>340.0</ele><time>2026-04-29T13:14:37.001Z</time></trkpt><trkpt lat="43.37788464462497" lon="12.138420274826439"><ele>340.0</ele><time>2026-04-29T13:14:38.001Z</time></trkpt><trkpt lat="43.377985767105336" lon="12.138407624097464"><ele>340.0</ele><time>2026-04-29T13:14:39.001Z</time></trkpt><trkpt lat="43.378088380649345" lon="12.138410287732883"><ele>340.0</ele><time>2026-04-29T13:14:40.001Z</time></trkpt><trkpt lat="43.37818205496393" lon="12.138406926100775"><ele>340.0</ele><time>2026-04-29T13:14:41.001Z</time></trkpt><trkpt lat="43.37827644967705" lon="12.138401000267354"><ele>340.0</ele><time>2026-04-29T13:14:42.001Z</time></trkpt><trkpt lat="43.37836916928463" lon="12.1383920420697"><ele>338.6</ele><time>2026-04-29T13:14:43.001Z</time></trkpt><trkpt lat="43.37845700328047" lon="12.138365599761503"><ele>337.2</ele><time>2026-04-29T13:14:44.001Z</time></trkpt><trkpt lat="43.3785440161128" lon="12.138316333540864"><ele>335.79999999999995</ele><time>2026-04-29T13:14:45.001Z</time></trkpt><trkpt lat="43.37862229260218" lon="12.138250142821265"><ele>334.4</ele><time>2026-04-29T13:14:46.001Z</time></trkpt><trkpt lat="43.378685822028565" lon="12.138165829088893"><ele>333.0</ele><time>2026-04-29T13:14:47.001Z</time></trkpt><trkpt lat="43.37874652791134" lon="12.138059044112714"><ele>332.75</ele><time>2026-04-29T13:14:48.001Z</time></trkpt><trkpt lat="43.378809938834195" lon="12.137932316385411"><ele>332.5</ele><time>2026-04-29T13:14:49.001Z</time></trkpt><trkpt lat="43.37889080486268" lon="12.137803438600368"><ele>332.25</ele><time>2026-04-29T13:14:50.001Z</time></trkpt><trkpt lat="43.378991104202456" lon="12.137693173222441"><ele>332.0</ele><time>2026-04-29T13:14:51.001Z</time></trkpt><trkpt lat="43.379077258579926" lon="12.137598758334558"><ele>332.0</ele><time>2026-04-29T13:14:52.001Z</time></trkpt><trkpt lat="43.37915470147643" lon="12.137528077329561"><ele>332.0</ele><time>2026-04-29T13:14:53.001Z</time></trkpt><trkpt lat="43.379228624729784" lon="12.137462727511162"><ele>332.0</ele><time>2026-04-29T13:14:54.001Z</time></trkpt><trkpt lat="43.37929472597332" lon="12.137417719167498"><ele>332.0</ele><time>2026-04-29T13:14:55.001Z</time></trkpt><trkpt lat="43.37936543234739" lon="12.13739391001819"><ele>332.0</ele><time>2026-04-29T13:14:56.001Z</time></trkpt><trkpt lat="43.37945477341777" lon="12.137380587851625"><ele>332.0</ele><time>2026-04-29T13:14:57.001Z</time></trkpt><trkpt lat="43.37955088289751" lon="12.13737805361695"><ele>331.40000000000003</ele><time>2026-04-29T13:14:58.001Z</time></trkpt><trkpt lat="43.379652877638854" lon="12.137378708240515"><ele>330.8</ele><time>2026-04-29T13:14:59.001Z</time></trkpt><trkpt lat="43.37975895026585" lon="12.137370225239204"><ele>330.2</ele><time>2026-04-29T13:15:00.001Z</time></trkpt><trkpt lat="43.3798641168352" lon="12.137361579251609"><ele>329.6</ele><time>2026-04-29T13:15:01.001Z</time></trkpt><trkpt lat="43.37995348897661" lon="12.137350440116267"><ele>329.0</ele><time>2026-04-29T13:15:02.001Z</time></trkpt><trkpt lat="43.38002465842427" lon="12.137336194409345"><ele>326.59999999999997</ele><time>2026-04-29T13:15:03.001Z</time></trkpt><trkpt lat="43.38010779975994" lon="12.137258811735494"><ele>324.2</ele><time>2026-04-29T13:15:05.001Z</time></trkpt><trkpt lat="43.380114211049786" lon="12.137107333678292"><ele>321.79999999999995</ele><time>2026-04-29T13:15:07.001Z</time></trkpt><trkpt lat="43.3800872882988" lon="12.137021838328577"><ele>319.4</ele><time>2026-04-29T13:15:08.001Z</time></trkpt><trkpt lat="43.38004146886341" lon="12.136925445594443"><ele>317.0</ele><time>2026-04-29T13:15:09.001Z</time></trkpt><trkpt lat="43.379986609153086" lon="12.136826707936015"><ele>317.0</ele><time>2026-04-29T13:15:10.001Z</time></trkpt><trkpt lat="43.37992403907729" lon="12.136722860081319"><ele>317.0</ele><time>2026-04-29T13:15:11.001Z</time></trkpt><trkpt lat="43.37985121678029" lon="12.136593657198002"><ele>317.0</ele><time>2026-04-29T13:15:12.001Z</time></trkpt><trkpt lat="43.37977600508144" lon="12.136466047477754"><ele>317.0</ele><time>2026-04-29T13:15:13.001Z</time></trkpt><trkpt lat="43.379707394092044" lon="12.136333528711909"><ele>317.6</ele><time>2026-04-29T13:15:14.001Z</time></trkpt><trkpt lat="43.37964166063992" lon="12.13621075217077"><ele>318.2</ele><time>2026-04-29T13:15:15.001Z</time></trkpt><trkpt lat="43.37958125419873" lon="12.136092722570012"><ele>318.8</ele><time>2026-04-29T13:15:16.001Z</time></trkpt><trkpt lat="43.379526365014556" lon="12.135973097224449"><ele>319.4</ele><time>2026-04-29T13:15:17.001Z</time></trkpt><trkpt lat="43.37949039965814" lon="12.13586251205708"><ele>320.0</ele><time>2026-04-29T13:15:18.001Z</time></trkpt><trkpt lat="43.37946159182063" lon="12.135721631337162"><ele>319.33333333333337</ele><time>2026-04-29T13:15:20.001Z</time></trkpt><trkpt lat="43.37954131733471" lon="12.135581522146033"><ele>318.6666666666667</ele><time>2026-04-29T13:15:22.001Z</time></trkpt><trkpt lat="43.379609058147174" lon="12.135497663398269"><ele>318.0</ele><time>2026-04-29T13:15:23.001Z</time></trkpt><trkpt lat="43.379648345970324" lon="12.13541648311291"><ele>317.3333333333333</ele><time>2026-04-29T13:15:24.001Z</time></trkpt><trkpt lat="43.37968085581334" lon="12.135314084930123"><ele>316.66666666666663</ele><time>2026-04-29T13:15:25.001Z</time></trkpt><trkpt lat="43.37970585983926" lon="12.135215830593094"><ele>316.0</ele><time>2026-04-29T13:15:26.001Z</time></trkpt><trkpt lat="43.37970683101349" lon="12.13511136019018"><ele>315.66666666666663</ele><time>2026-04-29T13:15:27.001Z</time></trkpt><trkpt lat="43.3796949612081" lon="12.13499654196959"><ele>315.3333333333333</ele><time>2026-04-29T13:15:28.001Z</time></trkpt><trkpt lat="43.37968213209051" lon="12.13488140283919"><ele>315.0</ele><time>2026-04-29T13:15:29.001Z</time></trkpt><trkpt lat="43.37968615166213" lon="12.134794333825216"><ele>314.6666666666667</ele><time>2026-04-29T13:15:30.001Z</time></trkpt><trkpt lat="43.37968833361406" lon="12.13470463086524"><ele>314.33333333333337</ele><time>2026-04-29T13:15:31.001Z</time></trkpt><trkpt lat="43.37977497633684" lon="12.134609674803384"><ele>314.0</ele><time>2026-04-29T13:15:33.001Z</time></trkpt><trkpt lat="43.3798449276393" lon="12.134606495860508"><ele>312.1666666666667</ele><time>2026-04-29T13:15:34.001Z</time></trkpt><trkpt lat="43.379925266783005" lon="12.134631488513984"><ele>310.33333333333337</ele><time>2026-04-29T13:15:35.001Z</time></trkpt><trkpt lat="43.37999622096142" lon="12.13465129725032"><ele>308.5</ele><time>2026-04-29T13:15:36.001Z</time></trkpt><trkpt lat="43.38008618901839" lon="12.13465417714547"><ele>306.6666666666667</ele><time>2026-04-29T13:15:37.001Z</time></trkpt><trkpt lat="43.38016981698071" lon="12.134634839867848"><ele>304.8333333333333</ele><time>2026-04-29T13:15:38.001Z</time></trkpt><trkpt lat="43.38023582654939" lon="12.134599524023567"><ele>303.0</ele><time>2026-04-29T13:15:39.001Z</time></trkpt><trkpt lat="43.38029558137382" lon="12.134549704201396"><ele>303.0</ele><time>2026-04-29T13:15:40.001Z</time></trkpt><trkpt lat="43.380340583975325" lon="12.134383125002783"><ele>303.0</ele><time>2026-04-29T13:15:42.001Z</time></trkpt><trkpt lat="43.38032392059126" lon="12.1342797937245"><ele>303.0</ele><time>2026-04-29T13:15:43.001Z</time></trkpt><trkpt lat="43.38029643831266" lon="12.13416637908545"><ele>303.0</ele><time>2026-04-29T13:15:44.001Z</time></trkpt><trkpt lat="43.38026644230453" lon="12.134052287774187"><ele>303.0</ele><time>2026-04-29T13:15:45.001Z</time></trkpt><trkpt lat="43.38023320446478" lon="12.133938760416136"><ele>301.1666666666667</ele><time>2026-04-29T13:15:46.001Z</time></trkpt><trkpt lat="43.380200172773584" lon="12.1338340626612"><ele>299.3333333333333</ele><time>2026-04-29T13:15:47.001Z</time></trkpt><trkpt lat="43.380170333312776" lon="12.13374095673829"><ele>297.5</ele><time>2026-04-29T13:15:48.001Z</time></trkpt><trkpt lat="43.38014034124535" lon="12.133648666687561"><ele>295.66666666666663</ele><time>2026-04-29T13:15:49.001Z</time></trkpt><trkpt lat="43.380056089554046" lon="12.13351178555169"><ele>293.8333333333333</ele><time>2026-04-29T13:15:51.001Z</time></trkpt><trkpt lat="43.3799936019396" lon="12.133461437161328"><ele>292.0</ele><time>2026-04-29T13:15:52.001Z</time></trkpt><trkpt lat="43.37990856064235" lon="12.133406141019645"><ele>292.0</ele><time>2026-04-29T13:15:53.001Z</time></trkpt><trkpt lat="43.37982474845743" lon="12.13334994146969"><ele>292.0</ele><time>2026-04-29T13:15:54.001Z</time></trkpt><trkpt lat="43.37973773031114" lon="12.133273001876365"><ele>292.0</ele><time>2026-04-29T13:15:55.001Z</time></trkpt><trkpt lat="43.37965685139213" lon="12.133177361116276"><ele>292.0</ele><time>2026-04-29T13:15:56.001Z</time></trkpt><trkpt lat="43.37958329963749" lon="12.133073038272777"><ele>292.0</ele><time>2026-04-29T13:15:57.001Z</time></trkpt><trkpt lat="43.37951287906786" lon="12.13297149655152"><ele>292.8</ele><time>2026-04-29T13:15:58.001Z</time></trkpt><trkpt lat="43.37944813418449" lon="12.132862645770922"><ele>293.6</ele><time>2026-04-29T13:15:59.001Z</time></trkpt><trkpt lat="43.379391955000855" lon="12.132754897369619"><ele>294.40000000000003</ele><time>2026-04-29T13:16:00.001Z</time></trkpt><trkpt lat="43.3793422899965" lon="12.132630971592555"><ele>295.2</ele><time>2026-04-29T13:16:01.001Z</time></trkpt><trkpt lat="43.37928033775143" lon="12.132516307162097"><ele>296.0</ele><time>2026-04-29T13:16:02.001Z</time></trkpt><trkpt lat="43.37920999830213" lon="12.1324203792366"><ele>296.0</ele><time>2026-04-29T13:16:03.001Z</time></trkpt><trkpt lat="43.379128970804594" lon="12.132335014078834"><ele>296.0</ele><time>2026-04-29T13:16:04.001Z</time></trkpt><trkpt lat="43.37904503613803" lon="12.132270250333878"><ele>296.0</ele><time>2026-04-29T13:16:05.001Z</time></trkpt><trkpt lat="43.37895884930236" lon="12.132215041789276"><ele>296.0</ele><time>2026-04-29T13:16:06.001Z</time></trkpt><trkpt lat="43.37886431262033" lon="12.132188539590958"><ele>296.0</ele><time>2026-04-29T13:16:07.001Z</time></trkpt><trkpt lat="43.378760405425616" lon="12.132171629984146"><ele>296.0</ele><time>2026-04-29T13:16:08.001Z</time></trkpt><trkpt lat="43.37866342462891" lon="12.132155777660238"><ele>296.0</ele><time>2026-04-29T13:16:09.001Z</time></trkpt><trkpt lat="43.378579265959694" lon="12.132125364548118"><ele>296.0</ele><time>2026-04-29T13:16:10.001Z</time></trkpt><trkpt lat="43.37851723039721" lon="12.132058534706172"><ele>296.0</ele><time>2026-04-29T13:16:11.001Z</time></trkpt><trkpt lat="43.378472119015456" lon="12.13196585190101"><ele>296.0</ele><time>2026-04-29T13:16:12.001Z</time></trkpt><trkpt lat="43.378441727741226" lon="12.131853558686371"><ele>296.0</ele><time>2026-04-29T13:16:13.001Z</time></trkpt><trkpt lat="43.37841506656106" lon="12.131721750322763"><ele>296.0</ele><time>2026-04-29T13:16:14.001Z</time></trkpt><trkpt lat="43.378403784845965" lon="12.131572716109638"><ele>296.0</ele><time>2026-04-29T13:16:15.001Z</time></trkpt><trkpt lat="43.37841081146373" lon="12.131417107240246"><ele>296.0</ele><time>2026-04-29T13:16:16.001Z</time></trkpt><trkpt lat="43.37842850235934" lon="12.131256240844356"><ele>296.0</ele><time>2026-04-29T13:16:17.001Z</time></trkpt><trkpt lat="43.378431889492916" lon="12.131088075920278"><ele>295.40000000000003</ele><time>2026-04-29T13:16:18.001Z</time></trkpt><trkpt lat="43.37842565811945" lon="12.13091648961259"><ele>294.8</ele><time>2026-04-29T13:16:19.001Z</time></trkpt><trkpt lat="43.37842280444882" lon="12.130757614564978"><ele>294.20000000000005</ele><time>2026-04-29T13:16:20.001Z</time></trkpt><trkpt lat="43.378422768176236" lon="12.130616522978118"><ele>293.6</ele><time>2026-04-29T13:16:21.001Z</time></trkpt><trkpt lat="43.37841356073494" lon="12.130484950147128"><ele>293.0</ele><time>2026-04-29T13:16:22.001Z</time></trkpt><trkpt lat="43.378391885003126" lon="12.130363878797562"><ele>292.0</ele><time>2026-04-29T13:16:23.001Z</time></trkpt><trkpt lat="43.378349464292086" lon="12.130263361641218"><ele>291.0</ele><time>2026-04-29T13:16:24.001Z</time></trkpt><trkpt lat="43.3782942853666" lon="12.130180789819475"><ele>290.0</ele><time>2026-04-29T13:16:25.001Z</time></trkpt><trkpt lat="43.3782139082927" lon="12.13011423159901"><ele>289.0</ele><time>2026-04-29T13:16:26.001Z</time></trkpt><trkpt lat="43.378121825962424" lon="12.130065243860438"><ele>288.0</ele><time>2026-04-29T13:16:27.001Z</time></trkpt><trkpt lat="43.37803178612223" lon="12.130003124773184"><ele>290.2</ele><time>2026-04-29T13:16:28.001Z</time></trkpt><trkpt lat="43.37794835984828" lon="12.12991915568251"><ele>292.4</ele><time>2026-04-29T13:16:29.001Z</time></trkpt><trkpt lat="43.37786613570032" lon="12.129809214881478"><ele>294.59999999999997</ele><time>2026-04-29T13:16:30.001Z</time></trkpt><trkpt lat="43.377800118768306" lon="12.12968865322201"><ele>296.8</ele><time>2026-04-29T13:16:31.001Z</time></trkpt><trkpt lat="43.37774887105386" lon="12.129555557606935"><ele>299.0</ele><time>2026-04-29T13:16:32.001Z</time></trkpt><trkpt lat="43.37772143536153" lon="12.129408623092809"><ele>299.0</ele><time>2026-04-29T13:16:33.001Z</time></trkpt><trkpt lat="43.37770366023953" lon="12.129238374173955"><ele>299.0</ele><time>2026-04-29T13:16:34.001Z</time></trkpt><trkpt lat="43.37768051922967" lon="12.129057540584078"><ele>299.0</ele><time>2026-04-29T13:16:35.001Z</time></trkpt><trkpt lat="43.37765128255947" lon="12.128884211506769"><ele>299.0</ele><time>2026-04-29T13:16:36.001Z</time></trkpt><trkpt lat="43.37761900225879" lon="12.128707720697278"><ele>298.25</ele><time>2026-04-29T13:16:37.001Z</time></trkpt><trkpt lat="43.37757674768795" lon="12.128523303406693"><ele>297.5</ele><time>2026-04-29T13:16:38.001Z</time></trkpt><trkpt lat="43.37753868471317" lon="12.128337280526312"><ele>296.75</ele><time>2026-04-29T13:16:39.001Z</time></trkpt><trkpt lat="43.37749940547245" lon="12.128166701688066"><ele>296.0</ele><time>2026-04-29T13:16:40.001Z</time></trkpt><trkpt lat="43.37744946138483" lon="12.128006990440616"><ele>294.8</ele><time>2026-04-29T13:16:41.001Z</time></trkpt><trkpt lat="43.37738875708125" lon="12.127858514008086"><ele>293.6</ele><time>2026-04-29T13:16:42.001Z</time></trkpt><trkpt lat="43.37733215950473" lon="12.127731268787727"><ele>292.4</ele><time>2026-04-29T13:16:43.001Z</time></trkpt><trkpt lat="43.37728874453723" lon="12.127606131467568"><ele>291.2</ele><time>2026-04-29T13:16:44.001Z</time></trkpt><trkpt lat="43.37725918583116" lon="12.127486459073934"><ele>290.0</ele><time>2026-04-29T13:16:45.001Z</time></trkpt><trkpt lat="43.377237617473746" lon="12.127369308901649"><ele>289.6</ele><time>2026-04-29T13:16:46.001Z</time></trkpt><trkpt lat="43.37723686701924" lon="12.127260289565767"><ele>289.2</ele><time>2026-04-29T13:16:47.001Z</time></trkpt><trkpt lat="43.37725036611053" lon="12.127141477310003"><ele>288.8</ele><time>2026-04-29T13:16:48.001Z</time></trkpt><trkpt lat="43.37727068427948" lon="12.12699954155697"><ele>288.4</ele><time>2026-04-29T13:16:49.001Z</time></trkpt><trkpt lat="43.377276404361396" lon="12.126841156358921"><ele>288.0</ele><time>2026-04-29T13:16:50.001Z</time></trkpt><trkpt lat="43.37726922600768" lon="12.126668709930751"><ele>288.0</ele><time>2026-04-29T13:16:51.001Z</time></trkpt><trkpt lat="43.377253913961944" lon="12.126486531285385"><ele>288.0</ele><time>2026-04-29T13:16:52.001Z</time></trkpt><trkpt lat="43.377237003545936" lon="12.126301418258372"><ele>288.0</ele><time>2026-04-29T13:16:53.001Z</time></trkpt><trkpt lat="43.37721790928055" lon="12.126107377690223"><ele>288.0</ele><time>2026-04-29T13:16:54.001Z</time></trkpt><trkpt lat="43.37719911447237" lon="12.125912948066237"><ele>288.0</ele><time>2026-04-29T13:16:55.001Z</time></trkpt><trkpt lat="43.37718237677064" lon="12.125728898417059"><ele>288.0</ele><time>2026-04-29T13:16:56.001Z</time></trkpt><trkpt lat="43.37717013460637" lon="12.125556498162718"><ele>288.0</ele><time>2026-04-29T13:16:57.001Z</time></trkpt><trkpt lat="43.37715644695137" lon="12.125405007172091"><ele>288.0</ele><time>2026-04-29T13:16:58.001Z</time></trkpt><trkpt lat="43.37714374939794" lon="12.12527362353492"><ele>288.2</ele><time>2026-04-29T13:16:59.001Z</time></trkpt><trkpt lat="43.37714439331895" lon="12.125171632520177"><ele>288.4</ele><time>2026-04-29T13:17:00.001Z</time></trkpt><trkpt lat="43.37716345597492" lon="12.12508642965139"><ele>288.59999999999997</ele><time>2026-04-29T13:17:01.001Z</time></trkpt><trkpt lat="43.377274606288665" lon="12.124998816785148"><ele>288.8</ele><time>2026-04-29T13:17:03.001Z</time></trkpt><trkpt lat="43.377369350124006" lon="12.124967818446613"><ele>289.0</ele><time>2026-04-29T13:17:04.001Z</time></trkpt><trkpt lat="43.37747500135713" lon="12.124911656368006"><ele>289.5</ele><time>2026-04-29T13:17:05.001Z</time></trkpt><trkpt lat="43.37759112469453" lon="12.124842972882044"><ele>290.0</ele><time>2026-04-29T13:17:06.001Z</time></trkpt><trkpt lat="43.377717941021" lon="12.124765461831037"><ele>290.5</ele><time>2026-04-29T13:17:07.001Z</time></trkpt><trkpt lat="43.37785187695489" lon="12.124682431743997"><ele>291.0</ele><time>2026-04-29T13:17:08.001Z</time></trkpt><trkpt lat="43.37798803403512" lon="12.124600750246906"><ele>290.6666666666667</ele><time>2026-04-29T13:17:09.001Z</time></trkpt><trkpt lat="43.37812201599545" lon="12.124519135317914"><ele>290.33333333333337</ele><time>2026-04-29T13:17:10.001Z</time></trkpt><trkpt lat="43.37826439035109" lon="12.124430152151156"><ele>290.0</ele><time>2026-04-29T13:17:11.001Z</time></trkpt><trkpt lat="43.37841248592927" lon="12.124334411773326"><ele>290.0</ele><time>2026-04-29T13:17:12.001Z</time></trkpt><trkpt lat="43.378564092353805" lon="12.124236340900229"><ele>290.0</ele><time>2026-04-29T13:17:13.001Z</time></trkpt><trkpt lat="43.37871913045026" lon="12.12413392172878"><ele>290.0</ele><time>2026-04-29T13:17:14.001Z</time></trkpt><trkpt lat="43.37887491512303" lon="12.124027679507835"><ele>289.6666666666667</ele><time>2026-04-29T13:17:15.001Z</time></trkpt><trkpt lat="43.379028239649976" lon="12.123905269846798"><ele>289.3333333333333</ele><time>2026-04-29T13:17:16.001Z</time></trkpt><trkpt lat="43.379166574996525" lon="12.1237596519738"><ele>289.0</ele><time>2026-04-29T13:17:17.001Z</time></trkpt><trkpt lat="43.37929634834001" lon="12.123595839502501"><ele>289.0</ele><time>2026-04-29T13:17:18.001Z</time></trkpt><trkpt lat="43.3794200103336" lon="12.123432197534074"><ele>289.0</ele><time>2026-04-29T13:17:19.001Z</time></trkpt><trkpt lat="43.37954756653956" lon="12.12328073441817"><ele>289.0</ele><time>2026-04-29T13:17:20.001Z</time></trkpt><trkpt lat="43.37967779357822" lon="12.123140151944728"><ele>289.66666666666663</ele><time>2026-04-29T13:17:21.001Z</time></trkpt><trkpt lat="43.37981069823366" lon="12.123005048858632"><ele>290.3333333333333</ele><time>2026-04-29T13:17:22.001Z</time></trkpt><trkpt lat="43.37994094979073" lon="12.122870234737281"><ele>291.0</ele><time>2026-04-29T13:17:23.001Z</time></trkpt><trkpt lat="43.38005948409525" lon="12.122746111913118"><ele>291.0</ele><time>2026-04-29T13:17:24.001Z</time></trkpt><trkpt lat="43.38016313682962" lon="12.122635379185443"><ele>291.0</ele><time>2026-04-29T13:17:25.001Z</time></trkpt><trkpt lat="43.38025942555899" lon="12.122540267552466"><ele>291.0</ele><time>2026-04-29T13:17:26.001Z</time></trkpt><trkpt lat="43.380340334063376" lon="12.122465156027042"><ele>291.0</ele><time>2026-04-29T13:17:27.001Z</time></trkpt><trkpt lat="43.38040034284833" lon="12.122408889534857"><ele>291.0</ele><time>2026-04-29T13:17:28.001Z</time></trkpt><trkpt lat="43.38044046966356" lon="12.122328801819625"><ele>291.6</ele><time>2026-04-29T13:17:30.001Z</time></trkpt><trkpt lat="43.38040346324934" lon="12.12216549488273"><ele>292.20000000000005</ele><time>2026-04-29T13:17:32.001Z</time></trkpt><trkpt lat="43.38034904199815" lon="12.122066880458632"><ele>292.79999999999995</ele><time>2026-04-29T13:17:33.001Z</time></trkpt><trkpt lat="43.380291826773814" lon="12.12194073882375"><ele>293.4</ele><time>2026-04-29T13:17:34.001Z</time></trkpt><trkpt lat="43.380236781406694" lon="12.121784315218328"><ele>294.0</ele><time>2026-04-29T13:17:35.001Z</time></trkpt><trkpt lat="43.38018591358887" lon="12.121599816087427"><ele>294.6666666666667</ele><time>2026-04-29T13:17:36.001Z</time></trkpt><trkpt lat="43.38014210366948" lon="12.121393423210932"><ele>295.33333333333337</ele><time>2026-04-29T13:17:37.001Z</time></trkpt><trkpt lat="43.380102118904695" lon="12.121171285241122"><ele>296.0</ele><time>2026-04-29T13:17:38.001Z</time></trkpt><trkpt lat="43.380054674499746" lon="12.120939485392643"><ele>295.6666666666667</ele><time>2026-04-29T13:17:39.001Z</time></trkpt><trkpt lat="43.38000416457799" lon="12.120699775345534"><ele>295.3333333333333</ele><time>2026-04-29T13:17:40.001Z</time></trkpt><trkpt lat="43.379953476134844" lon="12.120447000435128"><ele>295.0</ele><time>2026-04-29T13:17:41.001Z</time></trkpt><trkpt lat="43.379902799147324" lon="12.120186228929393"><ele>295.0</ele><time>2026-04-29T13:17:42.001Z</time></trkpt><trkpt lat="43.379849360452" lon="12.11992109002956"><ele>295.0</ele><time>2026-04-29T13:17:43.001Z</time></trkpt><trkpt lat="43.379795522205576" lon="12.119645673858452"><ele>295.0</ele><time>2026-04-29T13:17:44.001Z</time></trkpt><trkpt lat="43.37974106325423" lon="12.119366951309667"><ele>295.3333333333333</ele><time>2026-04-29T13:17:45.001Z</time></trkpt><trkpt lat="43.379686152258216" lon="12.11908250552611"><ele>295.6666666666667</ele><time>2026-04-29T13:17:46.001Z</time></trkpt><trkpt lat="43.37962857148339" lon="12.11879785972158"><ele>296.0</ele><time>2026-04-29T13:17:47.001Z</time></trkpt><trkpt lat="43.37956878260043" lon="12.118512812949088"><ele>295.6666666666667</ele><time>2026-04-29T13:17:48.001Z</time></trkpt><trkpt lat="43.379508451948674" lon="12.118223632328242"><ele>295.3333333333333</ele><time>2026-04-29T13:17:49.001Z</time></trkpt><trkpt lat="43.37944535668427" lon="12.117933672363975"><ele>295.0</ele><time>2026-04-29T13:17:50.001Z</time></trkpt><trkpt lat="43.37938187648236" lon="12.117642146051658"><ele>296.0</ele><time>2026-04-29T13:17:51.001Z</time></trkpt><trkpt lat="43.37932314677597" lon="12.11734619917264"><ele>297.0</ele><time>2026-04-29T13:17:52.001Z</time></trkpt><trkpt lat="43.37927019921682" lon="12.117046482857765"><ele>298.0</ele><time>2026-04-29T13:17:53.001Z</time></trkpt><trkpt lat="43.379225880166096" lon="12.116744245016294"><ele>299.0</ele><time>2026-04-29T13:17:54.001Z</time></trkpt><trkpt lat="43.37918791331911" lon="12.116439442050371"><ele>300.0</ele><time>2026-04-29T13:17:55.001Z</time></trkpt><trkpt lat="43.37915665756458" lon="12.116133040111668"><ele>300.0</ele><time>2026-04-29T13:17:56.001Z</time></trkpt><trkpt lat="43.37912558419594" lon="12.115848708016546"><ele>300.0</ele><time>2026-04-29T13:17:57.001Z</time></trkpt><trkpt lat="43.379082092042324" lon="12.11559299454327"><ele>300.0</ele><time>2026-04-29T13:17:58.001Z</time></trkpt><trkpt lat="43.379018496467886" lon="12.115361743908045"><ele>300.6666666666667</ele><time>2026-04-29T13:17:59.001Z</time></trkpt><trkpt lat="43.37892867455635" lon="12.115142391940134"><ele>301.33333333333337</ele><time>2026-04-29T13:18:00.001Z</time></trkpt><trkpt lat="43.37880132628861" lon="12.114942918162878"><ele>302.0</ele><time>2026-04-29T13:18:01.001Z</time></trkpt><trkpt lat="43.37864753626425" lon="12.114749581037286"><ele>304.0</ele><time>2026-04-29T13:18:02.001Z</time></trkpt><trkpt lat="43.37848275282842" lon="12.114548688782516"><ele>306.0</ele><time>2026-04-29T13:18:03.001Z</time></trkpt><trkpt lat="43.37831158958417" lon="12.114331924879902"><ele>306.0</ele><time>2026-04-29T13:18:04.001Z</time></trkpt><trkpt lat="43.378144781089745" lon="12.114092652657964"><ele>306.0</ele><time>2026-04-29T13:18:05.001Z</time></trkpt><trkpt lat="43.37798164283697" lon="12.113832718622364"><ele>303.0</ele><time>2026-04-29T13:18:06.001Z</time></trkpt><trkpt lat="43.37782621375092" lon="12.113553485716606"><ele>300.0</ele><time>2026-04-29T13:18:07.001Z</time></trkpt><trkpt lat="43.377676996104164" lon="12.113264373434154"><ele>307.0</ele><time>2026-04-29T13:18:08.001Z</time></trkpt><trkpt lat="43.377526528388636" lon="12.112973341544066"><ele>314.0</ele><time>2026-04-29T13:18:09.001Z</time></trkpt><trkpt lat="43.37737076276853" lon="12.112680865954086"><ele>321.0</ele><time>2026-04-29T13:18:10.001Z</time></trkpt><trkpt lat="43.37720906050076" lon="12.112388908090661"><ele>328.0</ele><time>2026-04-29T13:18:11.001Z</time></trkpt><trkpt lat="43.377044108330324" lon="12.11209069580265"><ele>319.0</ele><time>2026-04-29T13:18:12.001Z</time></trkpt><trkpt lat="43.37688389353851" lon="12.111791760692041"><ele>310.0</ele><time>2026-04-29T13:18:13.001Z</time></trkpt><trkpt lat="43.37672304520524" lon="12.111490200121107"><ele>310.0</ele><time>2026-04-29T13:18:14.001Z</time></trkpt><trkpt lat="43.376554218633835" lon="12.111195024656224"><ele>310.0</ele><time>2026-04-29T13:18:15.001Z</time></trkpt><trkpt lat="43.376373022042664" lon="12.11091736289042"><ele>310.0</ele><time>2026-04-29T13:18:16.001Z</time></trkpt><trkpt lat="43.37617893211869" lon="12.110656684017309"><ele>310.0</ele><time>2026-04-29T13:18:17.001Z</time></trkpt><trkpt lat="43.37597451115754" lon="12.110410221765783"><ele>310.0</ele><time>2026-04-29T13:18:18.001Z</time></trkpt><trkpt lat="43.37576932434227" lon="12.110172397801701"><ele>310.0</ele><time>2026-04-29T13:18:19.001Z</time></trkpt><trkpt lat="43.375575916205435" lon="12.109925845351999"><ele>304.0</ele><time>2026-04-29T13:18:20.001Z</time></trkpt><trkpt lat="43.37540000422841" lon="12.109658167622614"><ele>298.0</ele><time>2026-04-29T13:18:21.001Z</time></trkpt><trkpt lat="43.37524877320704" lon="12.109368707735621"><ele>299.5</ele><time>2026-04-29T13:18:22.001Z</time></trkpt><trkpt lat="43.375118681441165" lon="12.109048628357515"><ele>301.0</ele><time>2026-04-29T13:18:23.001Z</time></trkpt><trkpt lat="43.37500575151148" lon="12.108711596206005"><ele>301.0</ele><time>2026-04-29T13:18:24.001Z</time></trkpt><trkpt lat="43.37490940959963" lon="12.10836277655975"><ele>301.0</ele><time>2026-04-29T13:18:25.001Z</time></trkpt><trkpt lat="43.37482671651271" lon="12.10799659688697"><ele>300.5</ele><time>2026-04-29T13:18:26.001Z</time></trkpt><trkpt lat="43.37474436262252" lon="12.107620566218076"><ele>300.0</ele><time>2026-04-29T13:18:27.001Z</time></trkpt><trkpt lat="43.374659704388094" lon="12.107244695488786"><ele>299.0</ele><time>2026-04-29T13:18:28.001Z</time></trkpt><trkpt lat="43.37457040559605" lon="12.106864469736307"><ele>298.0</ele><time>2026-04-29T13:18:29.001Z</time></trkpt><trkpt lat="43.37448028068933" lon="12.10648184018549"><ele>298.0</ele><time>2026-04-29T13:18:30.001Z</time></trkpt><trkpt lat="43.374388883698956" lon="12.106103593664908"><ele>298.0</ele><time>2026-04-29T13:18:31.001Z</time></trkpt><trkpt lat="43.374291386343245" lon="12.105728029543272"><ele>301.5</ele><time>2026-04-29T13:18:32.001Z</time></trkpt><trkpt lat="43.374185754406234" lon="12.10535735392452"><ele>305.0</ele><time>2026-04-29T13:18:33.001Z</time></trkpt><trkpt lat="43.37406979535292" lon="12.104991944590028"><ele>302.5</ele><time>2026-04-29T13:18:34.001Z</time></trkpt><trkpt lat="43.37393820945231" lon="12.104634618880148"><ele>300.0</ele><time>2026-04-29T13:18:35.001Z</time></trkpt><trkpt lat="43.37379918608829" lon="12.104281915949803"><ele>302.5</ele><time>2026-04-29T13:18:36.001Z</time></trkpt><trkpt lat="43.37366995297381" lon="12.10392536546143"><ele>305.0</ele><time>2026-04-29T13:18:37.001Z</time></trkpt><trkpt lat="43.37356135480527" lon="12.103560231843435"><ele>305.0</ele><time>2026-04-29T13:18:38.001Z</time></trkpt><trkpt lat="43.37346552660613" lon="12.103178965321401"><ele>305.0</ele><time>2026-04-29T13:18:39.001Z</time></trkpt><trkpt lat="43.373371363998544" lon="12.102802144443098"><ele>305.0</ele><time>2026-04-29T13:18:40.001Z</time></trkpt><trkpt lat="43.37328367228723" lon="12.102418172434959"><ele>305.0</ele><time>2026-04-29T13:18:41.001Z</time></trkpt><trkpt lat="43.37320370228881" lon="12.102038022301194"><ele>305.5</ele><time>2026-04-29T13:18:42.001Z</time></trkpt><trkpt lat="43.373125493359474" lon="12.101657432407785"><ele>306.0</ele><time>2026-04-29T13:18:43.001Z</time></trkpt><trkpt lat="43.37304273203692" lon="12.101278588672017"><ele>304.5</ele><time>2026-04-29T13:18:44.001Z</time></trkpt><trkpt lat="43.37294703116505" lon="12.100901936670352"><ele>303.0</ele><time>2026-04-29T13:18:45.001Z</time></trkpt><trkpt lat="43.372838059780236" lon="12.100532490454542"><ele>303.0</ele><time>2026-04-29T13:18:46.001Z</time></trkpt><trkpt lat="43.37271834678037" lon="12.100160298913996"><ele>303.0</ele><time>2026-04-29T13:18:47.001Z</time></trkpt><trkpt lat="43.372596806078526" lon="12.099787208992552"><ele>305.0</ele><time>2026-04-29T13:18:48.001Z</time></trkpt><trkpt lat="43.37247736530359" lon="12.099410907917592"><ele>307.0</ele><time>2026-04-29T13:18:49.001Z</time></trkpt><trkpt lat="43.3723586380868" lon="12.09904233272933"><ele>304.5</ele><time>2026-04-29T13:18:50.001Z</time></trkpt><trkpt lat="43.37223138552372" lon="12.09868248905032"><ele>302.0</ele><time>2026-04-29T13:18:51.001Z</time></trkpt><trkpt lat="43.372077884050654" lon="12.098352333845147"><ele>303.5</ele><time>2026-04-29T13:18:52.001Z</time></trkpt><trkpt lat="43.371899534792405" lon="12.098049732524085"><ele>305.0</ele><time>2026-04-29T13:18:53.001Z</time></trkpt><trkpt lat="43.37170354802288" lon="12.0977536650773"><ele>305.0</ele><time>2026-04-29T13:18:54.001Z</time></trkpt><trkpt lat="43.371501518983486" lon="12.097459586907485"><ele>305.0</ele><time>2026-04-29T13:18:55.001Z</time></trkpt><trkpt lat="43.37130344395155" lon="12.097154694948618"><ele>306.5</ele><time>2026-04-29T13:18:56.001Z</time></trkpt><trkpt lat="43.3711030673553" lon="12.09685611485315"><ele>308.0</ele><time>2026-04-29T13:18:57.001Z</time></trkpt><trkpt lat="43.37090500137001" lon="12.096560071613323"><ele>307.0</ele><time>2026-04-29T13:18:58.001Z</time></trkpt><trkpt lat="43.37070469119188" lon="12.09626073901922"><ele>306.0</ele><time>2026-04-29T13:18:59.001Z</time></trkpt><trkpt lat="43.37050463876891" lon="12.095962134705157"><ele>311.5</ele><time>2026-04-29T13:19:00Z</time></trkpt><trkpt lat="43.37030830324802" lon="12.095666828962932"><ele>317.0</ele><time>2026-04-29T13:19:01Z</time></trkpt><trkpt lat="43.370112601904005" lon="12.095373698897797"><ele>317.0</ele><time>2026-04-29T13:19:02Z</time></trkpt><trkpt lat="43.3699161658757" lon="12.095083465300778"><ele>317.0</ele><time>2026-04-29T13:19:03Z</time></trkpt><trkpt lat="43.369722327140764" lon="12.094797613998606"><ele>313.0</ele><time>2026-04-29T13:19:04Z</time></trkpt><trkpt lat="43.36953531744502" lon="12.09451167748407"><ele>309.0</ele><time>2026-04-29T13:19:05Z</time></trkpt><trkpt lat="43.369359748664564" lon="12.094222350658494"><ele>311.5</ele><time>2026-04-29T13:19:06Z</time></trkpt><trkpt lat="43.36920554963332" lon="12.09391942807704"><ele>314.0</ele><time>2026-04-29T13:19:07Z</time></trkpt><trkpt lat="43.36907378089204" lon="12.093602395310855"><ele>314.0</ele><time>2026-04-29T13:19:08Z</time></trkpt><trkpt lat="43.368961213240276" lon="12.093270119957714"><ele>314.0</ele><time>2026-04-29T13:19:09Z</time></trkpt><trkpt lat="43.368869513741394" lon="12.09293040016843"><ele>312.0</ele><time>2026-04-29T13:19:10Z</time></trkpt><trkpt lat="43.36877184770972" lon="12.09259201199985"><ele>310.0</ele><time>2026-04-29T13:19:11Z</time></trkpt><trkpt lat="43.368668471144225" lon="12.092248918787412"><ele>310.0</ele><time>2026-04-29T13:19:12Z</time></trkpt><trkpt lat="43.36856006603344" lon="12.091904146245497"><ele>310.0</ele><time>2026-04-29T13:19:13Z</time></trkpt><trkpt lat="43.368448508127976" lon="12.091557215046823"><ele>310.0</ele><time>2026-04-29T13:19:14Z</time></trkpt><trkpt lat="43.36833873086136" lon="12.0912103258601"><ele>310.0</ele><time>2026-04-29T13:19:15Z</time></trkpt><trkpt lat="43.36822902345525" lon="12.090862121153885"><ele>309.5</ele><time>2026-04-29T13:19:16Z</time></trkpt><trkpt lat="43.36812305963464" lon="12.090509229339446"><ele>309.0</ele><time>2026-04-29T13:19:17Z</time></trkpt><trkpt lat="43.368015747611956" lon="12.090158791639332"><ele>309.5</ele><time>2026-04-29T13:19:18Z</time></trkpt><trkpt lat="43.36790794230412" lon="12.089807486866583"><ele>310.0</ele><time>2026-04-29T13:19:19Z</time></trkpt><trkpt lat="43.36780134069219" lon="12.089456513912376"><ele>310.0</ele><time>2026-04-29T13:19:20Z</time></trkpt><trkpt lat="43.3676983132079" lon="12.089108029186443"><ele>310.0</ele><time>2026-04-29T13:19:21Z</time></trkpt><trkpt lat="43.36760114351409" lon="12.088750121443645"><ele>314.0</ele><time>2026-04-29T13:19:22Z</time></trkpt><trkpt lat="43.36752788113576" lon="12.088387639111748"><ele>318.0</ele><time>2026-04-29T13:19:23Z</time></trkpt><trkpt lat="43.367477836353565" lon="12.088021811283088"><ele>322.0</ele><time>2026-04-29T13:19:24Z</time></trkpt><trkpt lat="43.36743470229368" lon="12.08765363754963"><ele>326.0</ele><time>2026-04-29T13:19:25Z</time></trkpt><trkpt lat="43.36739308717645" lon="12.08729046977129"><ele>327.5</ele><time>2026-04-29T13:19:26Z</time></trkpt><trkpt lat="43.36734908559218" lon="12.086927954893083"><ele>329.0</ele><time>2026-04-29T13:19:27Z</time></trkpt><trkpt lat="43.367294915656785" lon="12.086565385204695"><ele>333.5</ele><time>2026-04-29T13:19:28Z</time></trkpt><trkpt lat="43.36722437006135" lon="12.086207295188633"><ele>338.0</ele><time>2026-04-29T13:19:29Z</time></trkpt><trkpt lat="43.36712569100615" lon="12.085863763836226"><ele>326.5</ele><time>2026-04-29T13:19:30Z</time></trkpt><trkpt lat="43.36701499406966" lon="12.085539990539214"><ele>315.0</ele><time>2026-04-29T13:19:31Z</time></trkpt><trkpt lat="43.36692974022057" lon="12.085236290366462"><ele>317.5</ele><time>2026-04-29T13:19:32Z</time></trkpt><trkpt lat="43.36688754488081" lon="12.084923300064446"><ele>320.0</ele><time>2026-04-29T13:19:33Z</time></trkpt><trkpt lat="43.366883317727066" lon="12.084591848693385"><ele>320.0</ele><time>2026-04-29T13:19:34Z</time></trkpt><trkpt lat="43.36691583055442" lon="12.084268987270688"><ele>320.0</ele><time>2026-04-29T13:19:35Z</time></trkpt><trkpt lat="43.366984803453995" lon="12.083960133353044"><ele>319.0</ele><time>2026-04-29T13:19:36Z</time></trkpt><trkpt lat="43.367023351529475" lon="12.083653679151329"><ele>318.0</ele><time>2026-04-29T13:19:37Z</time></trkpt><trkpt lat="43.36702355083144" lon="12.083317818677173"><ele>318.0</ele><time>2026-04-29T13:19:38Z</time></trkpt><trkpt lat="43.36698873855809" lon="12.082968789820654"><ele>318.0</ele><time>2026-04-29T13:19:39Z</time></trkpt><trkpt lat="43.3669285400224" lon="12.08261534460858"><ele>323.5</ele><time>2026-04-29T13:19:40Z</time></trkpt><trkpt lat="43.366838220889285" lon="12.082264083990527"><ele>329.0</ele><time>2026-04-29T13:19:41Z</time></trkpt><trkpt lat="43.36672067203968" lon="12.081918932830975"><ele>337.0</ele><time>2026-04-29T13:19:42Z</time></trkpt><trkpt lat="43.36658349201266" lon="12.08157777776172"><ele>345.0</ele><time>2026-04-29T13:19:43Z</time></trkpt><trkpt lat="43.36644162115492" lon="12.081238391981694"><ele>332.5</ele><time>2026-04-29T13:19:44Z</time></trkpt><trkpt lat="43.36629446318832" lon="12.080892908824671"><ele>320.0</ele><time>2026-04-29T13:19:45Z</time></trkpt><trkpt lat="43.366155892473955" lon="12.080561059715071"><ele>320.0</ele><time>2026-04-29T13:19:46Z</time></trkpt><trkpt lat="43.36604504325072" lon="12.0802741045207"><ele>320.0</ele><time>2026-04-29T13:19:47Z</time></trkpt><trkpt lat="43.36596531374038" lon="12.08001175950837"><ele>320.0</ele><time>2026-04-29T13:19:48Z</time></trkpt><trkpt lat="43.365925857907364" lon="12.079749962650666"><ele>320.6666666666667</ele><time>2026-04-29T13:19:49Z</time></trkpt><trkpt lat="43.36593356856029" lon="12.079467617568344"><ele>321.3333333333333</ele><time>2026-04-29T13:19:50Z</time></trkpt><trkpt lat="43.36595080313711" lon="12.079191956557029"><ele>322.0</ele><time>2026-04-29T13:19:51Z</time></trkpt><trkpt lat="43.36594572947017" lon="12.078908791055362"><ele>323.3333333333333</ele><time>2026-04-29T13:19:52Z</time></trkpt><trkpt lat="43.365906748046754" lon="12.078610249267632"><ele>324.6666666666667</ele><time>2026-04-29T13:19:53Z</time></trkpt><trkpt lat="43.3658369063019" lon="12.078316148551346"><ele>326.0</ele><time>2026-04-29T13:19:54Z</time></trkpt><trkpt lat="43.365778781581604" lon="12.078040821532648"><ele>327.33333333333337</ele><time>2026-04-29T13:19:55Z</time></trkpt><trkpt lat="43.36576221687303" lon="12.077788081779849"><ele>328.6666666666667</ele><time>2026-04-29T13:19:56Z</time></trkpt><trkpt lat="43.36579865445257" lon="12.07756462913786"><ele>330.0</ele><time>2026-04-29T13:19:57Z</time></trkpt><trkpt lat="43.36583725714313" lon="12.077342380299223"><ele>333.6666666666667</ele><time>2026-04-29T13:19:58Z</time></trkpt><trkpt lat="43.36581538931325" lon="12.077113108221823"><ele>337.33333333333337</ele><time>2026-04-29T13:19:59Z</time></trkpt><trkpt lat="43.36574744104056" lon="12.07689257822969"><ele>341.0</ele><time>2026-04-29T13:20:00Z</time></trkpt><trkpt lat="43.36563900195272" lon="12.076661775851836"><ele>336.6666666666667</ele><time>2026-04-29T13:20:01Z</time></trkpt><trkpt lat="43.365514779160854" lon="12.076423479530039"><ele>332.3333333333333</ele><time>2026-04-29T13:20:02Z</time></trkpt><trkpt lat="43.36538302788605" lon="12.076183990768628"><ele>328.0</ele><time>2026-04-29T13:20:03Z</time></trkpt><trkpt lat="43.365250755182544" lon="12.075971854572865"><ele>328.0</ele><time>2026-04-29T13:20:04Z</time></trkpt><trkpt lat="43.36509937838933" lon="12.075795629540032"><ele>328.0</ele><time>2026-04-29T13:20:05Z</time></trkpt><trkpt lat="43.36492515782537" lon="12.075660404126294"><ele>328.0</ele><time>2026-04-29T13:20:06Z</time></trkpt><trkpt lat="43.36473020926884" lon="12.075533404179254"><ele>329.0</ele><time>2026-04-29T13:20:07Z</time></trkpt><trkpt lat="43.36453966275162" lon="12.075375249402219"><ele>330.0</ele><time>2026-04-29T13:20:08Z</time></trkpt><trkpt lat="43.36434259617013" lon="12.075193765563121"><ele>330.0</ele><time>2026-04-29T13:20:09Z</time></trkpt><trkpt lat="43.36419064227352" lon="12.07502165545184"><ele>330.0</ele><time>2026-04-29T13:20:10.001Z</time></trkpt><trkpt lat="43.364059388331825" lon="12.074838903795756"><ele>330.0</ele><time>2026-04-29T13:20:11.001Z</time></trkpt><trkpt lat="43.363954630624455" lon="12.074641179375822"><ele>328.0</ele><time>2026-04-29T13:20:12.001Z</time></trkpt><trkpt lat="43.363895604366924" lon="12.074420835451747"><ele>326.0</ele><time>2026-04-29T13:20:13.001Z</time></trkpt><trkpt lat="43.363866586882" lon="12.074181176379776"><ele>324.0</ele><time>2026-04-29T13:20:14.001Z</time></trkpt><trkpt lat="43.36383618536931" lon="12.073921195064264"><ele>324.0</ele><time>2026-04-29T13:20:15.001Z</time></trkpt><trkpt lat="43.36379700779575" lon="12.07363893088758"><ele>324.0</ele><time>2026-04-29T13:20:16.001Z</time></trkpt><trkpt lat="43.36375068293052" lon="12.073352312565175"><ele>324.0</ele><time>2026-04-29T13:20:17.001Z</time></trkpt><trkpt lat="43.36369808144339" lon="12.073085134086416"><ele>328.0</ele><time>2026-04-29T13:20:18.001Z</time></trkpt><trkpt lat="43.36360936620212" lon="12.072832934166597"><ele>332.0</ele><time>2026-04-29T13:20:19.001Z</time></trkpt><trkpt lat="43.36348727988072" lon="12.07258881197348"><ele>336.0</ele><time>2026-04-29T13:20:20.001Z</time></trkpt><trkpt lat="43.36334732533651" lon="12.072367672604695"><ele>333.6666666666667</ele><time>2026-04-29T13:20:21.001Z</time></trkpt><trkpt lat="43.36320112057215" lon="12.072188511254158"><ele>331.33333333333337</ele><time>2026-04-29T13:20:22.001Z</time></trkpt><trkpt lat="43.363091326941976" lon="12.071976658106047"><ele>329.0</ele><time>2026-04-29T13:20:23.001Z</time></trkpt><trkpt lat="43.363014458138046" lon="12.071774197785075"><ele>328.6666666666667</ele><time>2026-04-29T13:20:24.001Z</time></trkpt><trkpt lat="43.362938298679964" lon="12.071475400602198"><ele>328.3333333333333</ele><time>2026-04-29T13:20:25.001Z</time></trkpt><trkpt lat="43.36294830630012" lon="12.071210944479056"><ele>328.0</ele><time>2026-04-29T13:20:26.001Z</time></trkpt><trkpt lat="43.36294741803013" lon="12.070923645816947"><ele>329.0</ele><time>2026-04-29T13:20:27.001Z</time></trkpt><trkpt lat="43.362938446004286" lon="12.070625246627078"><ele>330.0</ele><time>2026-04-29T13:20:28.001Z</time></trkpt><trkpt lat="43.36294147327538" lon="12.07033310110375"><ele>331.0</ele><time>2026-04-29T13:20:29.001Z</time></trkpt><trkpt lat="43.36286619172344" lon="12.069785638801873"><ele>334.66666666666663</ele><time>2026-04-29T13:20:31.001Z</time></trkpt><trkpt lat="43.362784436669266" lon="12.069511091130835"><ele>338.3333333333333</ele><time>2026-04-29T13:20:32.001Z</time></trkpt><trkpt lat="43.36268161726736" lon="12.069223884931372"><ele>342.0</ele><time>2026-04-29T13:20:33.001Z</time></trkpt><trkpt lat="43.36256019406971" lon="12.068939128120515"><ele>349.5</ele><time>2026-04-29T13:20:34.001Z</time></trkpt><trkpt lat="43.36241569790276" lon="12.068653330422421"><ele>357.0</ele><time>2026-04-29T13:20:35.001Z</time></trkpt><trkpt lat="43.362246198507975" lon="12.068353309938882"><ele>352.5</ele><time>2026-04-29T13:20:36.001Z</time></trkpt><trkpt lat="43.3620647468505" lon="12.068044368416531"><ele>348.0</ele><time>2026-04-29T13:20:37.001Z</time></trkpt><trkpt lat="43.36188952522519" lon="12.067717940352168"><ele>354.5</ele><time>2026-04-29T13:20:38.001Z</time></trkpt><trkpt lat="43.36170474678053" lon="12.06738611200133"><ele>361.0</ele><time>2026-04-29T13:20:39.001Z</time></trkpt><trkpt lat="43.36152232438367" lon="12.06706577626331"><ele>354.5</ele><time>2026-04-29T13:20:40.001Z</time></trkpt><trkpt lat="43.36135606971838" lon="12.066783117437575"><ele>348.0</ele><time>2026-04-29T13:20:41.001Z</time></trkpt><trkpt lat="43.36121722392997" lon="12.066531072035517"><ele>348.0</ele><time>2026-04-29T13:20:42.001Z</time></trkpt><trkpt lat="43.36109652463859" lon="12.06630016862633"><ele>348.0</ele><time>2026-04-29T13:20:43.001Z</time></trkpt><trkpt lat="43.36100041404364" lon="12.066073877173784"><ele>348.0</ele><time>2026-04-29T13:20:44.001Z</time></trkpt><trkpt lat="43.360952049829365" lon="12.065836361480493"><ele>347.0</ele><time>2026-04-29T13:20:45.001Z</time></trkpt><trkpt lat="43.36093894903194" lon="12.06560633189604"><ele>346.0</ele><time>2026-04-29T13:20:46.001Z</time></trkpt><trkpt lat="43.3609775068277" lon="12.065359165966857"><ele>345.0</ele><time>2026-04-29T13:20:47.001Z</time></trkpt><trkpt lat="43.36104656884817" lon="12.06507931724081"><ele>345.0</ele><time>2026-04-29T13:20:48.001Z</time></trkpt><trkpt lat="43.361112374697285" lon="12.064782623225875"><ele>345.0</ele><time>2026-04-29T13:20:49.001Z</time></trkpt><trkpt lat="43.36115046899485" lon="12.064506302788773"><ele>345.0</ele><time>2026-04-29T13:20:50.001Z</time></trkpt><trkpt lat="43.361154568469914" lon="12.06424457906122"><ele>346.0</ele><time>2026-04-29T13:20:51.001Z</time></trkpt><trkpt lat="43.361114171884154" lon="12.063995342681274"><ele>347.0</ele><time>2026-04-29T13:20:52.001Z</time></trkpt><trkpt lat="43.361021673238405" lon="12.063777076679957"><ele>348.0</ele><time>2026-04-29T13:20:53.001Z</time></trkpt><trkpt lat="43.36086578052739" lon="12.0635784419781"><ele>348.0</ele><time>2026-04-29T13:20:54.001Z</time></trkpt><trkpt lat="43.360729871686125" lon="12.06335327855071"><ele>348.0</ele><time>2026-04-29T13:20:55.001Z</time></trkpt><trkpt lat="43.36059365913756" lon="12.063111705692211"><ele>348.0</ele><time>2026-04-29T13:20:56.001Z</time></trkpt><trkpt lat="43.36045245427299" lon="12.062855749531527"><ele>343.5</ele><time>2026-04-29T13:20:57.001Z</time></trkpt><trkpt lat="43.36030660228734" lon="12.06259283114162"><ele>339.0</ele><time>2026-04-29T13:20:58.001Z</time></trkpt><trkpt lat="43.36015515365152" lon="12.062327759351346"><ele>339.0</ele><time>2026-04-29T13:20:59.001Z</time></trkpt><trkpt lat="43.35999938179648" lon="12.062055615812609"><ele>339.0</ele><time>2026-04-29T13:21:00.001Z</time></trkpt><trkpt lat="43.359840491944205" lon="12.061776525673354"><ele>339.0</ele><time>2026-04-29T13:21:01.001Z</time></trkpt><trkpt lat="43.359680026246345" lon="12.061490215778164"><ele>339.0</ele><time>2026-04-29T13:21:02.001Z</time></trkpt><trkpt lat="43.35952516513766" lon="12.061196767804137"><ele>339.0</ele><time>2026-04-29T13:21:03.001Z</time></trkpt><trkpt lat="43.35939624306202" lon="12.060883828745977"><ele>339.0</ele><time>2026-04-29T13:21:04.001Z</time></trkpt><trkpt lat="43.359285897011596" lon="12.060542484830581"><ele>342.0</ele><time>2026-04-29T13:21:05.001Z</time></trkpt><trkpt lat="43.35917924431589" lon="12.0601911778722"><ele>345.0</ele><time>2026-04-29T13:21:06Z</time></trkpt><trkpt lat="43.359071539849616" lon="12.059835385683405"><ele>350.0</ele><time>2026-04-29T13:21:07Z</time></trkpt><trkpt lat="43.35896885907676" lon="12.059515334123445"><ele>355.0</ele><time>2026-04-29T13:21:08Z</time></trkpt><trkpt lat="43.35888001801689" lon="12.059231024368263"><ele>351.0</ele><time>2026-04-29T13:21:09Z</time></trkpt><trkpt lat="43.358818116908694" lon="12.058975562128818"><ele>347.0</ele><time>2026-04-29T13:21:10Z</time></trkpt><trkpt lat="43.35879211450864" lon="12.058720461207958"><ele>343.0</ele><time>2026-04-29T13:21:11Z</time></trkpt><trkpt lat="43.358809941666266" lon="12.058447088769782"><ele>344.66666666666663</ele><time>2026-04-29T13:21:12Z</time></trkpt><trkpt lat="43.35883726062405" lon="12.058168817775572"><ele>346.3333333333333</ele><time>2026-04-29T13:21:13Z</time></trkpt><trkpt lat="43.358848637816" lon="12.057921906654718"><ele>348.0</ele><time>2026-04-29T13:21:14Z</time></trkpt><trkpt lat="43.358843262447216" lon="12.057690203446214"><ele>348.0</ele><time>2026-04-29T13:21:15Z</time></trkpt><trkpt lat="43.35881499359173" lon="12.057464227862685"><ele>348.0</ele><time>2026-04-29T13:21:16Z</time></trkpt><trkpt lat="43.358749616675965" lon="12.05724921786421"><ele>348.0</ele><time>2026-04-29T13:21:17Z</time></trkpt><trkpt lat="43.358636003772396" lon="12.057055132375185"><ele>351.6666666666667</ele><time>2026-04-29T13:21:18Z</time></trkpt><trkpt lat="43.35847182751709" lon="12.056890486000626"><ele>355.33333333333337</ele><time>2026-04-29T13:21:19Z</time></trkpt><trkpt lat="43.35828222300098" lon="12.056758786697259"><ele>359.0</ele><time>2026-04-29T13:21:20Z</time></trkpt><trkpt lat="43.358059741956176" lon="12.056645490863291"><ele>366.0</ele><time>2026-04-29T13:21:21Z</time></trkpt><trkpt lat="43.357828231262005" lon="12.056520110356454"><ele>373.0</ele><time>2026-04-29T13:21:22Z</time></trkpt><trkpt lat="43.35759856645073" lon="12.056384487098054"><ele>373.0</ele><time>2026-04-29T13:21:23Z</time></trkpt><trkpt lat="43.3574009974159" lon="12.05626453039292"><ele>373.0</ele><time>2026-04-29T13:21:24Z</time></trkpt><trkpt lat="43.35724591223379" lon="12.056160099470361"><ele>373.0</ele><time>2026-04-29T13:21:25Z</time></trkpt><trkpt lat="43.35713381967167" lon="12.056056080947899"><ele>370.0</ele><time>2026-04-29T13:21:26Z</time></trkpt><trkpt lat="43.35703693781801" lon="12.055903898637563"><ele>367.0</ele><time>2026-04-29T13:21:27Z</time></trkpt><trkpt lat="43.35696104278961" lon="12.05570277996323"><ele>364.0</ele><time>2026-04-29T13:21:28Z</time></trkpt><trkpt lat="43.35691535873434" lon="12.055448901298865"><ele>364.0</ele><time>2026-04-29T13:21:29Z</time></trkpt><trkpt lat="43.356875235823836" lon="12.055195910563752"><ele>364.0</ele><time>2026-04-29T13:21:30Z</time></trkpt><trkpt lat="43.35680455824694" lon="12.054969120602454"><ele>364.0</ele><time>2026-04-29T13:21:31Z</time></trkpt><trkpt lat="43.356678598245196" lon="12.054775826001054"><ele>368.66666666666663</ele><time>2026-04-29T13:21:32Z</time></trkpt><trkpt lat="43.35651662532177" lon="12.054616443325951"><ele>373.3333333333333</ele><time>2026-04-29T13:21:33Z</time></trkpt><trkpt lat="43.356337371567406" lon="12.054511973662773"><ele>378.0</ele><time>2026-04-29T13:21:34Z</time></trkpt><trkpt lat="43.356136306841464" lon="12.054466770154042"><ele>378.0</ele><time>2026-04-29T13:21:35Z</time></trkpt><trkpt lat="43.35592423085641" lon="12.054431722410218"><ele>378.0</ele><time>2026-04-29T13:21:36Z</time></trkpt><trkpt lat="43.355705831392335" lon="12.054385427992665"><ele>378.0</ele><time>2026-04-29T13:21:37Z</time></trkpt><trkpt lat="43.35549567690964" lon="12.054318593734509"><ele>375.0</ele><time>2026-04-29T13:21:38Z</time></trkpt><trkpt lat="43.35530113137715" lon="12.054229056960594"><ele>372.0</ele><time>2026-04-29T13:21:39Z</time></trkpt><trkpt lat="43.3551448258239" lon="12.054091284016584"><ele>369.0</ele><time>2026-04-29T13:21:40Z</time></trkpt><trkpt lat="43.35502720338133" lon="12.053921294439517"><ele>369.0</ele><time>2026-04-29T13:21:41Z</time></trkpt><trkpt lat="43.35496995263785" lon="12.053740940853384"><ele>369.0</ele><time>2026-04-29T13:21:42Z</time></trkpt><trkpt lat="43.35497082095572" lon="12.053538924142835"><ele>369.0</ele><time>2026-04-29T13:21:43Z</time></trkpt><trkpt lat="43.355002359278636" lon="12.05330178382976"><ele>369.6666666666667</ele><time>2026-04-29T13:21:44Z</time></trkpt><trkpt lat="43.35503267081386" lon="12.05304565998613"><ele>370.33333333333337</ele><time>2026-04-29T13:21:45Z</time></trkpt><trkpt lat="43.35505546241194" lon="12.052768284040694"><ele>371.0</ele><time>2026-04-29T13:21:46Z</time></trkpt><trkpt lat="43.35507191896416" lon="12.05246942865244"><ele>369.5</ele><time>2026-04-29T13:21:47Z</time></trkpt><trkpt lat="43.355090200094935" lon="12.052156494481926"><ele>368.0</ele><time>2026-04-29T13:21:48Z</time></trkpt><trkpt lat="43.355112500122274" lon="12.051817261122636"><ele>366.5</ele><time>2026-04-29T13:21:49Z</time></trkpt><trkpt lat="43.355139748747476" lon="12.051468425018541"><ele>365.0</ele><time>2026-04-29T13:21:50Z</time></trkpt><trkpt lat="43.35516906594484" lon="12.051107803421125"><ele>364.5</ele><time>2026-04-29T13:21:51Z</time></trkpt><trkpt lat="43.35519943444073" lon="12.05073965445335"><ele>364.0</ele><time>2026-04-29T13:21:52Z</time></trkpt><trkpt lat="43.355229238676756" lon="12.05039492708033"><ele>364.0</ele><time>2026-04-29T13:21:53Z</time></trkpt><trkpt lat="43.35524864894245" lon="12.050106896735839"><ele>364.0</ele><time>2026-04-29T13:21:54Z</time></trkpt><trkpt lat="43.3552626782683" lon="12.049817311079236"><ele>364.0</ele><time>2026-04-29T13:21:55Z</time></trkpt><trkpt lat="43.355248478647646" lon="12.04955153291016"><ele>368.3333333333333</ele><time>2026-04-29T13:21:56Z</time></trkpt><trkpt lat="43.35518399742566" lon="12.049295803838778"><ele>372.6666666666667</ele><time>2026-04-29T13:21:57Z</time></trkpt><trkpt lat="43.355063200252985" lon="12.049079441030786"><ele>377.0</ele><time>2026-04-29T13:21:58Z</time></trkpt><trkpt lat="43.35491058295093" lon="12.048895093503301"><ele>377.0</ele><time>2026-04-29T13:21:59Z</time></trkpt><trkpt lat="43.35472549806525" lon="12.048740895578316"><ele>377.0</ele><time>2026-04-29T13:22:00Z</time></trkpt><trkpt lat="43.35456343693725" lon="12.04858346514868"><ele>377.0</ele><time>2026-04-29T13:22:01Z</time></trkpt><trkpt lat="43.354449983045335" lon="12.048409791323905"><ele>381.0</ele><time>2026-04-29T13:22:02Z</time></trkpt><trkpt lat="43.35436615332144" lon="12.0482001745901"><ele>385.0</ele><time>2026-04-29T13:22:03Z</time></trkpt><trkpt lat="43.35430616867178" lon="12.047941717049806"><ele>389.0</ele><time>2026-04-29T13:22:04Z</time></trkpt><trkpt lat="43.354253362151674" lon="12.04765871607202"><ele>396.3333333333333</ele><time>2026-04-29T13:22:05Z</time></trkpt><trkpt lat="43.35420198500109" lon="12.04737134966699"><ele>403.66666666666663</ele><time>2026-04-29T13:22:06Z</time></trkpt><trkpt lat="43.354130301424135" lon="12.047117462781"><ele>411.0</ele><time>2026-04-29T13:22:07Z</time></trkpt><trkpt lat="43.35402392744979" lon="12.04687267802864"><ele>411.0</ele><time>2026-04-29T13:22:08Z</time></trkpt><trkpt lat="43.35388410727648" lon="12.04664137987781"><ele>411.0</ele><time>2026-04-29T13:22:09Z</time></trkpt><trkpt lat="43.35371412829503" lon="12.046396209416242"><ele>407.5</ele><time>2026-04-29T13:22:10Z</time></trkpt><trkpt lat="43.353533411385" lon="12.046149562153278"><ele>404.0</ele><time>2026-04-29T13:22:11Z</time></trkpt><trkpt lat="43.353338875580306" lon="12.045910719852648"><ele>405.0</ele><time>2026-04-29T13:22:12Z</time></trkpt><trkpt lat="43.35313223177501" lon="12.045695970745747"><ele>406.0</ele><time>2026-04-29T13:22:13Z</time></trkpt><trkpt lat="43.35291729708954" lon="12.045514528260746"><ele>406.0</ele><time>2026-04-29T13:22:14Z</time></trkpt><trkpt lat="43.35268767747943" lon="12.045394342922636"><ele>406.0</ele><time>2026-04-29T13:22:15Z</time></trkpt><trkpt lat="43.35246236676634" lon="12.045301145897206"><ele>406.0</ele><time>2026-04-29T13:22:16Z</time></trkpt><trkpt lat="43.35227676347445" lon="12.045190602848077"><ele>406.0</ele><time>2026-04-29T13:22:17Z</time></trkpt><trkpt lat="43.35215902963354" lon="12.045023761362266"><ele>406.0</ele><time>2026-04-29T13:22:18Z</time></trkpt><trkpt lat="43.35205559419204" lon="12.044826651037209"><ele>401.33333333333337</ele><time>2026-04-29T13:22:19Z</time></trkpt><trkpt lat="43.35192598026488" lon="12.044597725136006"><ele>396.66666666666663</ele><time>2026-04-29T13:22:20Z</time></trkpt><trkpt lat="43.35180039485407" lon="12.04433651137098"><ele>392.0</ele><time>2026-04-29T13:22:21Z</time></trkpt><trkpt lat="43.35163184705516" lon="12.044092893723676"><ele>392.0</ele><time>2026-04-29T13:22:22Z</time></trkpt><trkpt lat="43.351428573374676" lon="12.043871761682867"><ele>392.0</ele><time>2026-04-29T13:22:23Z</time></trkpt><trkpt lat="43.35121056742589" lon="12.043674682123735"><ele>388.5</ele><time>2026-04-29T13:22:24Z</time></trkpt><trkpt lat="43.35101824220315" lon="12.043489034562981"><ele>385.0</ele><time>2026-04-29T13:22:25Z</time></trkpt><trkpt lat="43.35085444147013" lon="12.043280783973566"><ele>395.0</ele><time>2026-04-29T13:22:26Z</time></trkpt><trkpt lat="43.35073140520427" lon="12.043003241909787"><ele>405.0</ele><time>2026-04-29T13:22:27Z</time></trkpt><trkpt lat="43.35059181407529" lon="12.042723520346327"><ele>399.0</ele><time>2026-04-29T13:22:28Z</time></trkpt><trkpt lat="43.350472140647106" lon="12.042421376298163"><ele>393.0</ele><time>2026-04-29T13:22:29Z</time></trkpt><trkpt lat="43.350356217869816" lon="12.042132339622125"><ele>393.0</ele><time>2026-04-29T13:22:30Z</time></trkpt><trkpt lat="43.35025316822124" lon="12.041883481830311"><ele>393.0</ele><time>2026-04-29T13:22:31Z</time></trkpt><trkpt lat="43.35013094955281" lon="12.041674557625537"><ele>393.0</ele><time>2026-04-29T13:22:32Z</time></trkpt><trkpt lat="43.34997358015284" lon="12.041491374428684"><ele>395.0</ele><time>2026-04-29T13:22:33Z</time></trkpt><trkpt lat="43.349772112610054" lon="12.041325925563815"><ele>397.0</ele><time>2026-04-29T13:22:34Z</time></trkpt><trkpt lat="43.349550611644915" lon="12.041166152862745"><ele>397.0</ele><time>2026-04-29T13:22:35Z</time></trkpt><trkpt lat="43.34932701169538" lon="12.04098956454376"><ele>397.0</ele><time>2026-04-29T13:22:36Z</time></trkpt><trkpt lat="43.34910032111105" lon="12.040808728858751"><ele>396.5</ele><time>2026-04-29T13:22:37Z</time></trkpt><trkpt lat="43.34887430657404" lon="12.040632382677384"><ele>396.0</ele><time>2026-04-29T13:22:38Z</time></trkpt><trkpt lat="43.34867286972387" lon="12.040476266347492"><ele>396.0</ele><time>2026-04-29T13:22:39Z</time></trkpt><trkpt lat="43.348496173834036" lon="12.040341293776022"><ele>396.0</ele><time>2026-04-29T13:22:40Z</time></trkpt><trkpt lat="43.34834543214632" lon="12.040218536885344"><ele>396.0</ele><time>2026-04-29T13:22:41Z</time></trkpt><trkpt lat="43.34823512855858" lon="12.040066159337615"><ele>398.0</ele><time>2026-04-29T13:22:42.001Z</time></trkpt><trkpt lat="43.348142169339226" lon="12.039899903795423"><ele>400.0</ele><time>2026-04-29T13:22:43.001Z</time></trkpt><trkpt lat="43.348120640859904" lon="12.039667177454467"><ele>402.0</ele><time>2026-04-29T13:22:44.001Z</time></trkpt><trkpt lat="43.34807773092073" lon="12.03940075644235"><ele>404.0</ele><time>2026-04-29T13:22:45.001Z</time></trkpt><trkpt lat="43.3480529920097" lon="12.039109754717575"><ele>406.0</ele><time>2026-04-29T13:22:46.001Z</time></trkpt><trkpt lat="43.3480187526857" lon="12.038801295977922"><ele>408.0</ele><time>2026-04-29T13:22:47.001Z</time></trkpt><trkpt lat="43.34796786668385" lon="12.038483660185122"><ele>402.5</ele><time>2026-04-29T13:22:48.001Z</time></trkpt><trkpt lat="43.347903442822705" lon="12.03815787841634"><ele>397.0</ele><time>2026-04-29T13:22:49.001Z</time></trkpt><trkpt lat="43.34781919278597" lon="12.0378268576908"><ele>397.0</ele><time>2026-04-29T13:22:50.001Z</time></trkpt><trkpt lat="43.34772021745965" lon="12.037491623521992"><ele>397.0</ele><time>2026-04-29T13:22:51.001Z</time></trkpt><trkpt lat="43.347614568978265" lon="12.037166286106089"><ele>400.0</ele><time>2026-04-29T13:22:52.001Z</time></trkpt><trkpt lat="43.34750497433385" lon="12.036866572354551"><ele>403.0</ele><time>2026-04-29T13:22:53.001Z</time></trkpt><trkpt lat="43.347374923737924" lon="12.036586626211852"><ele>401.0</ele><time>2026-04-29T13:22:54.001Z</time></trkpt><trkpt lat="43.34721025899283" lon="12.036341698718905"><ele>399.0</ele><time>2026-04-29T13:22:55.001Z</time></trkpt><trkpt lat="43.34703904999192" lon="12.036118535442387"><ele>399.0</ele><time>2026-04-29T13:22:56.001Z</time></trkpt><trkpt lat="43.34689415274684" lon="12.035914419464007"><ele>399.0</ele><time>2026-04-29T13:22:57.001Z</time></trkpt><trkpt lat="43.34679015349887" lon="12.0356697998181"><ele>399.0</ele><time>2026-04-29T13:22:58.001Z</time></trkpt><trkpt lat="43.34675004899709" lon="12.03536459384574"><ele>403.5</ele><time>2026-04-29T13:22:59.001Z</time></trkpt><trkpt lat="43.34671035005625" lon="12.035008988973967"><ele>408.0</ele><time>2026-04-29T13:23:00.001Z</time></trkpt><trkpt lat="43.34665094916477" lon="12.034634005970315"><ele>409.5</ele><time>2026-04-29T13:23:01.001Z</time></trkpt><trkpt lat="43.34661064370146" lon="12.034254168915961"><ele>411.0</ele><time>2026-04-29T13:23:02.001Z</time></trkpt><trkpt lat="43.34656252057282" lon="12.033914322970032"><ele>412.66666666666663</ele><time>2026-04-29T13:23:03.001Z</time></trkpt><trkpt lat="43.346540081240164" lon="12.033616187779941"><ele>414.3333333333333</ele><time>2026-04-29T13:23:04.001Z</time></trkpt><trkpt lat="43.346490019368986" lon="12.03335098456749"><ele>416.0</ele><time>2026-04-29T13:23:05.001Z</time></trkpt><trkpt lat="43.34647530831333" lon="12.033072661430808"><ele>416.66666666666663</ele><time>2026-04-29T13:23:06.001Z</time></trkpt><trkpt lat="43.34651789235543" lon="12.032811157988597"><ele>417.33333333333337</ele><time>2026-04-29T13:23:07.001Z</time></trkpt><trkpt lat="43.34658557069683" lon="12.032552697079659"><ele>418.0</ele><time>2026-04-29T13:23:08.001Z</time></trkpt><trkpt lat="43.34665980099777" lon="12.03229774329211"><ele>418.0</ele><time>2026-04-29T13:23:09.001Z</time></trkpt><trkpt lat="43.34669336091398" lon="12.03206730973919"><ele>418.0</ele><time>2026-04-29T13:23:10.001Z</time></trkpt><trkpt lat="43.346698725728025" lon="12.031849358076702"><ele>418.0</ele><time>2026-04-29T13:23:11.001Z</time></trkpt><trkpt lat="43.34664029031061" lon="12.031627693275572"><ele>420.33333333333337</ele><time>2026-04-29T13:23:12Z</time></trkpt><trkpt lat="43.346552571946155" lon="12.031384067965497"><ele>422.66666666666663</ele><time>2026-04-29T13:23:13Z</time></trkpt><trkpt lat="43.34643787268589" lon="12.031098559546468"><ele>425.0</ele><time>2026-04-29T13:23:14Z</time></trkpt><trkpt lat="43.34632241900992" lon="12.03078232617009"><ele>425.0</ele><time>2026-04-29T13:23:15Z</time></trkpt><trkpt lat="43.34621345789353" lon="12.03045281146419"><ele>425.0</ele><time>2026-04-29T13:23:16Z</time></trkpt><trkpt lat="43.34610025346069" lon="12.030107770025367"><ele>436.0</ele><time>2026-04-29T13:23:17Z</time></trkpt><trkpt lat="43.34597394376019" lon="12.02975228584487"><ele>447.0</ele><time>2026-04-29T13:23:18Z</time></trkpt><trkpt lat="43.345845647561944" lon="12.029399259228033"><ele>455.5</ele><time>2026-04-29T13:23:19Z</time></trkpt><trkpt lat="43.34572612885462" lon="12.029059267471604"><ele>464.0</ele><time>2026-04-29T13:23:20Z</time></trkpt><trkpt lat="43.345617315790236" lon="12.028731546911416"><ele>458.66666666666663</ele><time>2026-04-29T13:23:21Z</time></trkpt><trkpt lat="43.34551692534834" lon="12.028431791589707"><ele>453.33333333333337</ele><time>2026-04-29T13:23:22Z</time></trkpt><trkpt lat="43.345424735622835" lon="12.028175441709642"><ele>448.0</ele><time>2026-04-29T13:23:23Z</time></trkpt><trkpt lat="43.34533013412082" lon="12.027951646019797"><ele>448.0</ele><time>2026-04-29T13:23:24Z</time></trkpt><trkpt lat="43.345212995572254" lon="12.027758176895668"><ele>448.0</ele><time>2026-04-29T13:23:25Z</time></trkpt><trkpt lat="43.34506916004202" lon="12.027581134359275"><ele>448.0</ele><time>2026-04-29T13:23:26Z</time></trkpt><trkpt lat="43.344920248955724" lon="12.027429823491616"><ele>452.6666666666667</ele><time>2026-04-29T13:23:27Z</time></trkpt><trkpt lat="43.34480163100839" lon="12.027282586913639"><ele>457.33333333333337</ele><time>2026-04-29T13:23:28Z</time></trkpt><trkpt lat="43.34470429984165" lon="12.027108180164767"><ele>462.0</ele><time>2026-04-29T13:23:29Z</time></trkpt><trkpt lat="43.3446397293663" lon="12.026899792163842"><ele>450.0</ele><time>2026-04-29T13:23:30Z</time></trkpt><trkpt lat="43.34461226341822" lon="12.026665130293598"><ele>438.0</ele><time>2026-04-29T13:23:31Z</time></trkpt><trkpt lat="43.34463458627066" lon="12.026438284343136"><ele>426.0</ele><time>2026-04-29T13:23:32Z</time></trkpt><trkpt lat="43.34470787157227" lon="12.026234045039562"><ele>432.66666666666663</ele><time>2026-04-29T13:23:33Z</time></trkpt><trkpt lat="43.3448107463225" lon="12.02602894325573"><ele>439.3333333333333</ele><time>2026-04-29T13:23:34Z</time></trkpt><trkpt lat="43.34491739878858" lon="12.025796609889152"><ele>446.0</ele><time>2026-04-29T13:23:35Z</time></trkpt><trkpt lat="43.34502303954363" lon="12.02554882623123"><ele>446.0</ele><time>2026-04-29T13:23:36Z</time></trkpt><trkpt lat="43.34512213796855" lon="12.025307567698304"><ele>446.0</ele><time>2026-04-29T13:23:37Z</time></trkpt><trkpt lat="43.34520219548863" lon="12.025099577518487"><ele>446.0</ele><time>2026-04-29T13:23:38Z</time></trkpt><trkpt lat="43.34525001150303" lon="12.024899620858783"><ele>447.3333333333333</ele><time>2026-04-29T13:23:39Z</time></trkpt><trkpt lat="43.34525234509664" lon="12.024681217824822"><ele>448.66666666666663</ele><time>2026-04-29T13:23:40Z</time></trkpt><trkpt lat="43.34521119447852" lon="12.024454613886183"><ele>450.0</ele><time>2026-04-29T13:23:41Z</time></trkpt><trkpt lat="43.34511912159591" lon="12.02421519400719"><ele>452.0</ele><time>2026-04-29T13:23:42Z</time></trkpt><trkpt lat="43.34499838846995" lon="12.02398235103105"><ele>454.0</ele><time>2026-04-29T13:23:43Z</time></trkpt><trkpt lat="43.344861782330035" lon="12.023751638418382"><ele>456.0</ele><time>2026-04-29T13:23:44Z</time></trkpt><trkpt lat="43.34471120454634" lon="12.023521122100219"><ele>466.0</ele><time>2026-04-29T13:23:45Z</time></trkpt><trkpt lat="43.34455051841732" lon="12.023291778780413"><ele>476.0</ele><time>2026-04-29T13:23:46Z</time></trkpt><trkpt lat="43.34438544437358" lon="12.02306413526188"><ele>476.0</ele><time>2026-04-29T13:23:47Z</time></trkpt><trkpt lat="43.34422289645266" lon="12.02285246461797"><ele>476.0</ele><time>2026-04-29T13:23:48Z</time></trkpt><trkpt lat="43.344070655062694" lon="12.022667976880301"><ele>476.0</ele><time>2026-04-29T13:23:49Z</time></trkpt><trkpt lat="43.34394029947359" lon="12.022522657360868"><ele>474.0</ele><time>2026-04-29T13:23:50Z</time></trkpt><trkpt lat="43.343820619481214" lon="12.022425023436874"><ele>472.0</ele><time>2026-04-29T13:23:51Z</time></trkpt><trkpt lat="43.34368633847536" lon="12.02238826627246"><ele>470.0</ele><time>2026-04-29T13:23:52Z</time></trkpt><trkpt lat="43.34353111048496" lon="12.022411684205935"><ele>468.0</ele><time>2026-04-29T13:23:53Z</time></trkpt><trkpt lat="43.34335813187882" lon="12.022487559845288"><ele>468.0</ele><time>2026-04-29T13:23:54Z</time></trkpt><trkpt lat="43.34319633563341" lon="12.022533916475298"><ele>468.0</ele><time>2026-04-29T13:23:55Z</time></trkpt><trkpt lat="43.34304471843478" lon="12.022504154262068"><ele>468.0</ele><time>2026-04-29T13:23:56Z</time></trkpt><trkpt lat="43.34290945073792" lon="12.022394843138386"><ele>471.66666666666663</ele><time>2026-04-29T13:23:57Z</time></trkpt><trkpt lat="43.34278555901953" lon="12.022229177527318"><ele>475.3333333333333</ele><time>2026-04-29T13:23:58Z</time></trkpt><trkpt lat="43.34268063810153" lon="12.022026029435114"><ele>479.0</ele><time>2026-04-29T13:23:59Z</time></trkpt><trkpt lat="43.34259779649997" lon="12.021794827937011"><ele>485.0</ele><time>2026-04-29T13:24:00Z</time></trkpt><trkpt lat="43.342545649296625" lon="12.02153136464054"><ele>491.0</ele><time>2026-04-29T13:24:01Z</time></trkpt><trkpt lat="43.34249153877005" lon="12.021239911139537"><ele>497.0</ele><time>2026-04-29T13:24:02Z</time></trkpt><trkpt lat="43.34242456341288" lon="12.02093792445905"><ele>504.5</ele><time>2026-04-29T13:24:03Z</time></trkpt><trkpt lat="43.34235036702399" lon="12.020629275875493"><ele>512.0</ele><time>2026-04-29T13:24:04Z</time></trkpt><trkpt lat="43.34227494669831" lon="12.0203049550752"><ele>498.3333333333333</ele><time>2026-04-29T13:24:05Z</time></trkpt><trkpt lat="43.34220400924584" lon="12.019998982383282"><ele>484.66666666666663</ele><time>2026-04-29T13:24:06Z</time></trkpt><trkpt lat="43.34214405960858" lon="12.01973117157847"><ele>471.0</ele><time>2026-04-29T13:24:07Z</time></trkpt><trkpt lat="43.342100021327525" lon="12.019512258465426"><ele>471.0</ele><time>2026-04-29T13:24:08Z</time></trkpt><trkpt lat="43.34208700348237" lon="12.01932107647186"><ele>471.0</ele><time>2026-04-29T13:24:09Z</time></trkpt><trkpt lat="43.34212649752085" lon="12.01913665627949"><ele>471.0</ele><time>2026-04-29T13:24:10Z</time></trkpt><trkpt lat="43.34221950143602" lon="12.018972234553935"><ele>471.0</ele><time>2026-04-29T13:24:11Z</time></trkpt><trkpt lat="43.34236321287055" lon="12.0188486157074"><ele>479.33333333333337</ele><time>2026-04-29T13:24:12Z</time></trkpt><trkpt lat="43.342519023172564" lon="12.01873132506795"><ele>487.6666666666667</ele><time>2026-04-29T13:24:13Z</time></trkpt><trkpt lat="43.342665934411656" lon="12.018594940473365"><ele>496.0</ele><time>2026-04-29T13:24:14Z</time></trkpt><trkpt lat="43.342765547168696" lon="12.018427867858128"><ele>499.25</ele><time>2026-04-29T13:24:15Z</time></trkpt><trkpt lat="43.34280266900457" lon="12.018238745043767"><ele>502.5</ele><time>2026-04-29T13:24:16Z</time></trkpt><trkpt lat="43.342783583912905" lon="12.018042910501398"><ele>505.75</ele><time>2026-04-29T13:24:17Z</time></trkpt><trkpt lat="43.342702625347705" lon="12.017850253725356"><ele>509.0</ele><time>2026-04-29T13:24:18Z</time></trkpt><trkpt lat="43.34259015747752" lon="12.017645610125154"><ele>514.3333333333333</ele><time>2026-04-29T13:24:19Z</time></trkpt><trkpt lat="43.34247439762072" lon="12.017412306713824"><ele>519.6666666666666</ele><time>2026-04-29T13:24:20Z</time></trkpt><trkpt lat="43.342380195410044" lon="12.017141384019716"><ele>525.0</ele><time>2026-04-29T13:24:21Z</time></trkpt><trkpt lat="43.34231806324999" lon="12.016846896423576"><ele>523.0</ele><time>2026-04-29T13:24:22Z</time></trkpt><trkpt lat="43.34228184829765" lon="12.016576373755209"><ele>521.0</ele><time>2026-04-29T13:24:23Z</time></trkpt><trkpt lat="43.34226083278655" lon="12.016357743390781"><ele>519.0</ele><time>2026-04-29T13:24:24Z</time></trkpt><trkpt lat="43.34227220773173" lon="12.01617730405581"><ele>519.0</ele><time>2026-04-29T13:24:25Z</time></trkpt><trkpt lat="43.34235703450867" lon="12.016023951385932"><ele>519.0</ele><time>2026-04-29T13:24:26Z</time></trkpt><trkpt lat="43.34247350305651" lon="12.015928657806585"><ele>519.0</ele><time>2026-04-29T13:24:27Z</time></trkpt><trkpt lat="43.34260424426204" lon="12.015856979713092"><ele>519.0</ele><time>2026-04-29T13:24:28Z</time></trkpt><trkpt lat="43.342757364401756" lon="12.015836040771418"><ele>516.5</ele><time>2026-04-29T13:24:29Z</time></trkpt><trkpt lat="43.34290822500924" lon="12.015792241647173"><ele>514.0</ele><time>2026-04-29T13:24:30Z</time></trkpt><trkpt lat="43.34302671405678" lon="12.015719010018879"><ele>511.5</ele><time>2026-04-29T13:24:31Z</time></trkpt><trkpt lat="43.34308148957784" lon="12.015580782580514"><ele>509.0</ele><time>2026-04-29T13:24:32Z</time></trkpt><trkpt lat="43.343120993827604" lon="12.015388963020854"><ele>519.6666666666666</ele><time>2026-04-29T13:24:33Z</time></trkpt><trkpt lat="43.34316324978561" lon="12.015149297079798"><ele>530.3333333333334</ele><time>2026-04-29T13:24:34Z</time></trkpt><trkpt lat="43.343220853299904" lon="12.014908373082802"><ele>541.0</ele><time>2026-04-29T13:24:35Z</time></trkpt><trkpt lat="43.3432838562079" lon="12.01465410120526"><ele>541.6666666666667</ele><time>2026-04-29T13:24:36Z</time></trkpt><trkpt lat="43.34334999333114" lon="12.014399329224767"><ele>542.3333333333334</ele><time>2026-04-29T13:24:37Z</time></trkpt><trkpt lat="43.34340437267413" lon="12.01418449047903"><ele>543.0</ele><time>2026-04-29T13:24:38Z</time></trkpt><trkpt lat="43.34342085239963" lon="12.014033415227086"><ele>547.0</ele><time>2026-04-29T13:24:39Z</time></trkpt><trkpt lat="43.34339789247748" lon="12.01390725184073"><ele>551.0</ele><time>2026-04-29T13:24:40Z</time></trkpt><trkpt lat="43.34333707709487" lon="12.013814790424483"><ele>555.0</ele><time>2026-04-29T13:24:41Z</time></trkpt><trkpt lat="43.34321806312761" lon="12.013753884848638"><ele>559.0</ele><time>2026-04-29T13:24:42Z</time></trkpt><trkpt lat="43.34309976895567" lon="12.013785415319095"><ele>563.0</ele><time>2026-04-29T13:24:43Z</time></trkpt><trkpt lat="43.34299532436058" lon="12.01388042654843"><ele>563.6666666666666</ele><time>2026-04-29T13:24:44Z</time></trkpt><trkpt lat="43.34287323736054" lon="12.013995062172656"><ele>564.3333333333334</ele><time>2026-04-29T13:24:45Z</time></trkpt><trkpt lat="43.34272360587719" lon="12.014068681330468"><ele>565.0</ele><time>2026-04-29T13:24:46Z</time></trkpt><trkpt lat="43.342548484064906" lon="12.014093959489998"><ele>565.0</ele><time>2026-04-29T13:24:47Z</time></trkpt><trkpt lat="43.34237401613874" lon="12.01403484285443"><ele>565.0</ele><time>2026-04-29T13:24:48Z</time></trkpt><trkpt lat="43.3422012820527" lon="12.01396746215616"><ele>565.0</ele><time>2026-04-29T13:24:49Z</time></trkpt><trkpt lat="43.3420565162365" lon="12.013895195759687"><ele>556.75</ele><time>2026-04-29T13:24:50Z</time></trkpt><trkpt lat="43.34196874309872" lon="12.013742465119607"><ele>548.5</ele><time>2026-04-29T13:24:51Z</time></trkpt><trkpt lat="43.34191465768032" lon="12.013580595418627"><ele>540.25</ele><time>2026-04-29T13:24:52Z</time></trkpt><trkpt lat="43.34195373089293" lon="12.013376996260986"><ele>532.0</ele><time>2026-04-29T13:24:53Z</time></trkpt><trkpt lat="43.34196669066601" lon="12.013149527560962"><ele>532.0</ele><time>2026-04-29T13:24:54Z</time></trkpt><trkpt lat="43.34199420232198" lon="12.01291545553284"><ele>532.0</ele><time>2026-04-29T13:24:55Z</time></trkpt><trkpt lat="43.34201299031134" lon="12.01266950364428"><ele>532.0</ele><time>2026-04-29T13:24:56Z</time></trkpt><trkpt lat="43.34203528940063" lon="12.012427880923047"><ele>537.6666666666667</ele><time>2026-04-29T13:24:57Z</time></trkpt><trkpt lat="43.34205312101086" lon="12.012197696348375"><ele>543.3333333333334</ele><time>2026-04-29T13:24:58Z</time></trkpt><trkpt lat="43.34206570049677" lon="12.011996448080518"><ele>549.0</ele><time>2026-04-29T13:24:59Z</time></trkpt><trkpt lat="43.34207117861345" lon="12.011810920429463"><ele>554.25</ele><time>2026-04-29T13:25:00Z</time></trkpt><trkpt lat="43.342046485276306" lon="12.011650016297814"><ele>559.5</ele><time>2026-04-29T13:25:01.001Z</time></trkpt><trkpt lat="43.34196870310055" lon="12.011537302962122"><ele>564.75</ele><time>2026-04-29T13:25:02.001Z</time></trkpt><trkpt lat="43.34187115611532" lon="12.0114619856937"><ele>570.0</ele><time>2026-04-29T13:25:03.001Z</time></trkpt><trkpt lat="43.34175422630435" lon="12.011415553533055"><ele>570.0</ele><time>2026-04-29T13:25:04.001Z</time></trkpt><trkpt lat="43.34162645603041" lon="12.0113555072788"><ele>570.0</ele><time>2026-04-29T13:25:05.001Z</time></trkpt><trkpt lat="43.34151177416245" lon="12.011257359095982"><ele>570.0</ele><time>2026-04-29T13:25:06.001Z</time></trkpt><trkpt lat="43.34145349599271" lon="12.011095983170078"><ele>570.0</ele><time>2026-04-29T13:25:07.001Z</time></trkpt><trkpt lat="43.34148067099092" lon="12.010893724983463"><ele>572.6666666666666</ele><time>2026-04-29T13:25:08.001Z</time></trkpt><trkpt lat="43.34149719261296" lon="12.010624875812995"><ele>575.3333333333333</ele><time>2026-04-29T13:25:09.001Z</time></trkpt><trkpt lat="43.341506812737094" lon="12.010325812160254"><ele>578.0</ele><time>2026-04-29T13:25:10.001Z</time></trkpt><trkpt lat="43.34152836236226" lon="12.010025830959195"><ele>581.0</ele><time>2026-04-29T13:25:11.001Z</time></trkpt><trkpt lat="43.34154059982181" lon="12.009765694063084"><ele>584.0</ele><time>2026-04-29T13:25:12.001Z</time></trkpt><trkpt lat="43.34152878491242" lon="12.0095512789354"><ele>587.0</ele><time>2026-04-29T13:25:13.001Z</time></trkpt><trkpt lat="43.341473442021446" lon="12.009336677916922"><ele>579.6666666666666</ele><time>2026-04-29T13:25:14.001Z</time></trkpt><trkpt lat="43.34134066316852" lon="12.009149822971322"><ele>572.3333333333334</ele><time>2026-04-29T13:25:15.001Z</time></trkpt><trkpt lat="43.341199876601394" lon="12.008961000169574"><ele>565.0</ele><time>2026-04-29T13:25:16.001Z</time></trkpt><trkpt lat="43.34108114162005" lon="12.008766184469403"><ele>565.0</ele><time>2026-04-29T13:25:17Z</time></trkpt><trkpt lat="43.34099826345578" lon="12.008498709899158"><ele>565.0</ele><time>2026-04-29T13:25:18Z</time></trkpt><trkpt lat="43.34094800974269" lon="12.008200630552935"><ele>565.0</ele><time>2026-04-29T13:25:19Z</time></trkpt><trkpt lat="43.340976310172756" lon="12.007913502832112"><ele>565.0</ele><time>2026-04-29T13:25:20Z</time></trkpt><trkpt lat="43.34101598130344" lon="12.007597773092353"><ele>565.0</ele><time>2026-04-29T13:25:21Z</time></trkpt><trkpt lat="43.341047397405625" lon="12.007243752458795"><ele>565.5</ele><time>2026-04-29T13:25:22Z</time></trkpt><trkpt lat="43.34110206684609" lon="12.006855783855448"><ele>566.0</ele><time>2026-04-29T13:25:23Z</time></trkpt><trkpt lat="43.34115569894212" lon="12.006466589444369"><ele>566.0</ele><time>2026-04-29T13:25:24Z</time></trkpt><trkpt lat="43.34120120976401" lon="12.006134945769325"><ele>566.0</ele><time>2026-04-29T13:25:25Z</time></trkpt><trkpt lat="43.34123977183039" lon="12.005859750631414"><ele>566.0</ele><time>2026-04-29T13:25:26Z</time></trkpt><trkpt lat="43.34125854075571" lon="12.00565426570844"><ele>572.25</ele><time>2026-04-29T13:25:27Z</time></trkpt><trkpt lat="43.34125305286284" lon="12.005469726826393"><ele>578.5</ele><time>2026-04-29T13:25:28Z</time></trkpt><trkpt lat="43.34119793752217" lon="12.005315912519263"><ele>584.75</ele><time>2026-04-29T13:25:29Z</time></trkpt><trkpt lat="43.3410849218012" lon="12.005219478726325"><ele>591.0</ele><time>2026-04-29T13:25:30Z</time></trkpt><trkpt lat="43.340934563676704" lon="12.005177004281135"><ele>591.0</ele><time>2026-04-29T13:25:31Z</time></trkpt><trkpt lat="43.340749992841005" lon="12.005165647190513"><ele>591.0</ele><time>2026-04-29T13:25:32Z</time></trkpt><trkpt lat="43.340547411176814" lon="12.005168527737569"><ele>591.0</ele><time>2026-04-29T13:25:33Z</time></trkpt><trkpt lat="43.34040360873623" lon="12.005109708828865"><ele>586.5</ele><time>2026-04-29T13:25:34Z</time></trkpt><trkpt lat="43.34029700051499" lon="12.005025518917783"><ele>582.0</ele><time>2026-04-29T13:25:35Z</time></trkpt><trkpt lat="43.34023399820636" lon="12.00484640812835"><ele>577.5</ele><time>2026-04-29T13:25:36Z</time></trkpt><trkpt lat="43.34019457520843" lon="12.00460830850749"><ele>573.0</ele><time>2026-04-29T13:25:37Z</time></trkpt><trkpt lat="43.340188606311" lon="12.004334677350576"><ele>572.0</ele><time>2026-04-29T13:25:38Z</time></trkpt><trkpt lat="43.34024537955857" lon="12.004074435750875"><ele>571.0</ele><time>2026-04-29T13:25:39Z</time></trkpt><trkpt lat="43.34032497431226" lon="12.003767787835628"><ele>570.0</ele><time>2026-04-29T13:25:40Z</time></trkpt><trkpt lat="43.34041725658036" lon="12.003407695524697"><ele>575.0</ele><time>2026-04-29T13:25:41Z</time></trkpt><trkpt lat="43.3404961695014" lon="12.00303392872892"><ele>580.0</ele><time>2026-04-29T13:25:42Z</time></trkpt><trkpt lat="43.340568611814525" lon="12.002717766142863"><ele>579.0</ele><time>2026-04-29T13:25:43Z</time></trkpt><trkpt lat="43.3406137706959" lon="12.002420977215582"><ele>578.0</ele><time>2026-04-29T13:25:44Z</time></trkpt><trkpt lat="43.34062422664576" lon="12.00213819732756"><ele>577.0</ele><time>2026-04-29T13:25:45Z</time></trkpt><trkpt lat="43.34060801484979" lon="12.001853709272178"><ele>573.3333333333334</ele><time>2026-04-29T13:25:46Z</time></trkpt><trkpt lat="43.34056296643559" lon="12.001577133433788"><ele>569.6666666666666</ele><time>2026-04-29T13:25:47Z</time></trkpt><trkpt lat="43.34050629296542" lon="12.001334647752666"><ele>566.0</ele><time>2026-04-29T13:25:48Z</time></trkpt><trkpt lat="43.34041519606417" lon="12.00110340223001"><ele>574.3333333333333</ele><time>2026-04-29T13:25:49Z</time></trkpt><trkpt lat="43.340314616528275" lon="12.000865056387957"><ele>582.6666666666666</ele><time>2026-04-29T13:25:50Z</time></trkpt><trkpt lat="43.34027166420016" lon="12.000640214924276"><ele>591.0</ele><time>2026-04-29T13:25:51Z</time></trkpt><trkpt lat="43.34025097989852" lon="12.000404436602379"><ele>591.0</ele><time>2026-04-29T13:25:52Z</time></trkpt><trkpt lat="43.34027757273051" lon="12.000170049671608"><ele>591.0</ele><time>2026-04-29T13:25:53Z</time></trkpt><trkpt lat="43.34034702276743" lon="11.999936865181434"><ele>591.0</ele><time>2026-04-29T13:25:54Z</time></trkpt><trkpt lat="43.34045264290772" lon="11.99970758188198"><ele>582.6666666666666</ele><time>2026-04-29T13:25:55Z</time></trkpt><trkpt lat="43.340573274431804" lon="11.999493807734732"><ele>574.3333333333333</ele><time>2026-04-29T13:25:56Z</time></trkpt><trkpt lat="43.34067955465344" lon="11.999239623033539"><ele>566.0</ele><time>2026-04-29T13:25:57Z</time></trkpt><trkpt lat="43.34075207909612" lon="11.998964844869578"><ele>566.0</ele><time>2026-04-29T13:25:58Z</time></trkpt><trkpt lat="43.34080209488802" lon="11.998700556389595"><ele>566.0</ele><time>2026-04-29T13:25:59Z</time></trkpt><trkpt lat="43.34083403712847" lon="11.998445218586678"><ele>566.0</ele><time>2026-04-29T13:26:00Z</time></trkpt><trkpt lat="43.34083752636725" lon="11.998216069434756"><ele>566.0</ele><time>2026-04-29T13:26:01Z</time></trkpt><trkpt lat="43.340806026634446" lon="11.998032400623957"><ele>566.0</ele><time>2026-04-29T13:26:02Z</time></trkpt><trkpt lat="43.34080123936195" lon="11.997834678776286"><ele>566.0</ele><time>2026-04-29T13:26:03Z</time></trkpt><trkpt lat="43.34077707626902" lon="11.997609533969616"><ele>566.0</ele><time>2026-04-29T13:26:04Z</time></trkpt><trkpt lat="43.3404524998094" lon="11.99739137583354"><ele>571.5</ele><time>2026-04-29T13:26:05Z</time></trkpt><trkpt lat="43.34030367987871" lon="11.997118373146636"><ele>577.0</ele><time>2026-04-29T13:26:06Z</time></trkpt><trkpt lat="43.34014776516571" lon="11.996834828375498"><ele>569.0</ele><time>2026-04-29T13:26:07Z</time></trkpt><trkpt lat="43.33999097638237" lon="11.99654434625266"><ele>561.0</ele><time>2026-04-29T13:26:08Z</time></trkpt><trkpt lat="43.33984136539781" lon="11.996264024770424"><ele>562.5</ele><time>2026-04-29T13:26:09Z</time></trkpt><trkpt lat="43.339697292754785" lon="11.995998447202563"><ele>564.0</ele><time>2026-04-29T13:26:10Z</time></trkpt><trkpt lat="43.33956643247767" lon="11.995751790255609"><ele>564.0</ele><time>2026-04-29T13:26:11Z</time></trkpt><trkpt lat="43.339458317336884" lon="11.995548317765165"><ele>564.0</ele><time>2026-04-29T13:26:12Z</time></trkpt><trkpt lat="43.33936327677014" lon="11.995409144382247"><ele>564.0</ele><time>2026-04-29T13:26:13Z</time></trkpt><trkpt lat="43.33926854444704" lon="11.99529198786707"><ele>564.0</ele><time>2026-04-29T13:26:14Z</time></trkpt><trkpt lat="43.33913444262354" lon="11.995229906915325"><ele>564.0</ele><time>2026-04-29T13:26:15Z</time></trkpt><trkpt lat="43.338989871677896" lon="11.995199342501373"><ele>564.0</ele><time>2026-04-29T13:26:16Z</time></trkpt><trkpt lat="43.33887594006002" lon="11.99509199056669"><ele>564.0</ele><time>2026-04-29T13:26:17Z</time></trkpt><trkpt lat="43.338812044935835" lon="11.994894785149835"><ele>564.3333333333334</ele><time>2026-04-29T13:26:18Z</time></trkpt><trkpt lat="43.338807530567976" lon="11.994661341413167"><ele>564.6666666666667</ele><time>2026-04-29T13:26:19Z</time></trkpt><trkpt lat="43.33881530671716" lon="11.99444482721277"><ele>565.0</ele><time>2026-04-29T13:26:20Z</time></trkpt><trkpt lat="43.338738877841294" lon="11.994259409921815"><ele>560.0</ele><time>2026-04-29T13:26:21Z</time></trkpt><trkpt lat="43.33861003896821" lon="11.994142948058327"><ele>555.0</ele><time>2026-04-29T13:26:22Z</time></trkpt><trkpt lat="43.33847269919392" lon="11.994100900976122"><ele>550.0</ele><time>2026-04-29T13:26:23Z</time></trkpt><trkpt lat="43.338327922454866" lon="11.99412698264493"><ele>545.0</ele><time>2026-04-29T13:26:24Z</time></trkpt><trkpt lat="43.33816369168105" lon="11.994159486872885"><ele>553.0</ele><time>2026-04-29T13:26:25Z</time></trkpt><trkpt lat="43.33800014902508" lon="11.994107259697284"><ele>561.0</ele><time>2026-04-29T13:26:26Z</time></trkpt><trkpt lat="43.33786640147549" lon="11.994004249080628"><ele>569.0</ele><time>2026-04-29T13:26:27Z</time></trkpt><trkpt lat="43.33777069402029" lon="11.993854651705494"><ele>569.0</ele><time>2026-04-29T13:26:28Z</time></trkpt><trkpt lat="43.33769059174029" lon="11.993667664403691"><ele>569.0</ele><time>2026-04-29T13:26:29Z</time></trkpt><trkpt lat="43.33762966637931" lon="11.99343235902847"><ele>569.0</ele><time>2026-04-29T13:26:30Z</time></trkpt><trkpt lat="43.33758473485448" lon="11.99318206574475"><ele>563.3333333333333</ele><time>2026-04-29T13:26:31Z</time></trkpt><trkpt lat="43.33757782646391" lon="11.992901499360949"><ele>557.6666666666666</ele><time>2026-04-29T13:26:32Z</time></trkpt><trkpt lat="43.337555696844014" lon="11.992626423686016"><ele>552.0</ele><time>2026-04-29T13:26:33Z</time></trkpt><trkpt lat="43.33749674201217" lon="11.99235580091542"><ele>543.5</ele><time>2026-04-29T13:26:34Z</time></trkpt><trkpt lat="43.337386632030395" lon="11.99208357951381"><ele>535.0</ele><time>2026-04-29T13:26:35Z</time></trkpt><trkpt lat="43.337251568898445" lon="11.991822014908442"><ele>539.6666666666667</ele><time>2026-04-29T13:26:36Z</time></trkpt><trkpt lat="43.337100861613166" lon="11.991565733682561"><ele>544.3333333333334</ele><time>2026-04-29T13:26:37Z</time></trkpt><trkpt lat="43.33697454762488" lon="11.99134148294841"><ele>549.0</ele><time>2026-04-29T13:26:38Z</time></trkpt><trkpt lat="43.336872514242216" lon="11.991129040631664"><ele>549.0</ele><time>2026-04-29T13:26:39Z</time></trkpt><trkpt lat="43.33679511913075" lon="11.99092896821076"><ele>549.0</ele><time>2026-04-29T13:26:40Z</time></trkpt><trkpt lat="43.33674497563777" lon="11.990736956437962"><ele>549.0</ele><time>2026-04-29T13:26:41Z</time></trkpt><trkpt lat="43.33673163096233" lon="11.990557530343755"><ele>549.0</ele><time>2026-04-29T13:26:42Z</time></trkpt><trkpt lat="43.336761351759456" lon="11.990394095659168"><ele>544.5</ele><time>2026-04-29T13:26:43Z</time></trkpt><trkpt lat="43.33683825519766" lon="11.990258994594805"><ele>540.0</ele><time>2026-04-29T13:26:44Z</time></trkpt><trkpt lat="43.33695414146194" lon="11.990177460237094"><ele>535.5</ele><time>2026-04-29T13:26:45Z</time></trkpt><trkpt lat="43.33708316561256" lon="11.990134047094703"><ele>531.0</ele><time>2026-04-29T13:26:46Z</time></trkpt><trkpt lat="43.33721756617876" lon="11.990156355001247"><ele>525.75</ele><time>2026-04-29T13:26:47Z</time></trkpt><trkpt lat="43.33733729438386" lon="11.990232094936488"><ele>520.5</ele><time>2026-04-29T13:26:48Z</time></trkpt><trkpt lat="43.337427463811295" lon="11.990367560714182"><ele>515.25</ele><time>2026-04-29T13:26:49Z</time></trkpt><trkpt lat="43.337478917189905" lon="11.990555265650073"><ele>510.0</ele><time>2026-04-29T13:26:50Z</time></trkpt><trkpt lat="43.337536161124554" lon="11.990776050377002"><ele>513.3333333333334</ele><time>2026-04-29T13:26:51Z</time></trkpt><trkpt lat="43.33760790606912" lon="11.991013904767545"><ele>516.6666666666667</ele><time>2026-04-29T13:26:52Z</time></trkpt><trkpt lat="43.33769450414842" lon="11.991275268302276"><ele>520.0</ele><time>2026-04-29T13:26:53Z</time></trkpt><trkpt lat="43.33778675848579" lon="11.991553105058667"><ele>525.0</ele><time>2026-04-29T13:26:54Z</time></trkpt><trkpt lat="43.33788220104713" lon="11.991837368248008"><ele>530.0</ele><time>2026-04-29T13:26:55Z</time></trkpt><trkpt lat="43.337969497198294" lon="11.992097995492108"><ele>535.0</ele><time>2026-04-29T13:26:56Z</time></trkpt><trkpt lat="43.33805471568288" lon="11.992318001666362"><ele>531.0</ele><time>2026-04-29T13:26:57Z</time></trkpt><trkpt lat="43.33816053320571" lon="11.992516747554761"><ele>527.0</ele><time>2026-04-29T13:26:58Z</time></trkpt><trkpt lat="43.33830364253674" lon="11.992698573346896"><ele>523.0</ele><time>2026-04-29T13:26:59Z</time></trkpt><trkpt lat="43.338443792824954" lon="11.992847486898505"><ele>523.0</ele><time>2026-04-29T13:27:00Z</time></trkpt><trkpt lat="43.33856123127121" lon="11.992963435395374"><ele>523.0</ele><time>2026-04-29T13:27:01Z</time></trkpt><trkpt lat="43.33865932593979" lon="11.993011754661108"><ele>523.0</ele><time>2026-04-29T13:27:02Z</time></trkpt><trkpt lat="43.33878006986859" lon="11.993011499943385"><ele>523.0</ele><time>2026-04-29T13:27:03Z</time></trkpt><trkpt lat="43.3389251354737" lon="11.992930295950506"><ele>519.3333333333334</ele><time>2026-04-29T13:27:04Z</time></trkpt><trkpt lat="43.339084853892196" lon="11.992846381221636"><ele>515.6666666666666</ele><time>2026-04-29T13:27:05Z</time></trkpt><trkpt lat="43.33921709259067" lon="11.992840769310572"><ele>512.0</ele><time>2026-04-29T13:27:06Z</time></trkpt><trkpt lat="43.33934133273805" lon="11.992955808290139"><ele>512.0</ele><time>2026-04-29T13:27:07Z</time></trkpt><trkpt lat="43.33940622273204" lon="11.993077106684455"><ele>512.0</ele><time>2026-04-29T13:27:08Z</time></trkpt><trkpt lat="43.33947993925921" lon="11.993213232283475"><ele>512.0</ele><time>2026-04-29T13:27:09Z</time></trkpt><trkpt lat="43.339570428963384" lon="11.993343148724616"><ele>512.0</ele><time>2026-04-29T13:27:10Z</time></trkpt><trkpt lat="43.33969002048745" lon="11.993434745873587"><ele>512.5</ele><time>2026-04-29T13:27:11Z</time></trkpt><trkpt lat="43.33982550783937" lon="11.993454504706023"><ele>513.0</ele><time>2026-04-29T13:27:12Z</time></trkpt><trkpt lat="43.33995365385821" lon="11.993393397805882"><ele>513.5</ele><time>2026-04-29T13:27:13Z</time></trkpt><trkpt lat="43.34007579951234" lon="11.993252141959681"><ele>514.0</ele><time>2026-04-29T13:27:14Z</time></trkpt><trkpt lat="43.34018906728617" lon="11.993059151619944"><ele>508.33333333333337</ele><time>2026-04-29T13:27:15Z</time></trkpt><trkpt lat="43.3403065087752" lon="11.992821283491923"><ele>502.66666666666663</ele><time>2026-04-29T13:27:16Z</time></trkpt><trkpt lat="43.34043758354316" lon="11.992601150012607"><ele>497.0</ele><time>2026-04-29T13:27:17.001Z</time></trkpt><trkpt lat="43.34055036456017" lon="11.992419283568408"><ele>495.0</ele><time>2026-04-29T13:27:18.001Z</time></trkpt><trkpt lat="43.340665440202294" lon="11.992302455986437"><ele>493.0</ele><time>2026-04-29T13:27:19.001Z</time></trkpt><trkpt lat="43.34079702625981" lon="11.992248459691867"><ele>491.0</ele><time>2026-04-29T13:27:20.001Z</time></trkpt><trkpt lat="43.34094427805983" lon="11.992253586881878"><ele>489.0</ele><time>2026-04-29T13:27:21.001Z</time></trkpt><trkpt lat="43.341122587158125" lon="11.992307457259278"><ele>489.0</ele><time>2026-04-29T13:27:22.001Z</time></trkpt><trkpt lat="43.34131374446809" lon="11.992364375324234"><ele>489.0</ele><time>2026-04-29T13:27:23Z</time></trkpt><trkpt lat="43.34150603807425" lon="11.99242399112617"><ele>489.0</ele><time>2026-04-29T13:27:24Z</time></trkpt><trkpt lat="43.34166409078547" lon="11.992493932195815"><ele>490.66666666666663</ele><time>2026-04-29T13:27:25Z</time></trkpt><trkpt lat="43.341779095038746" lon="11.992629856089103"><ele>492.3333333333333</ele><time>2026-04-29T13:27:26Z</time></trkpt><trkpt lat="43.34188999220125" lon="11.992821873877807"><ele>494.0</ele><time>2026-04-29T13:27:27Z</time></trkpt><trkpt lat="43.34200784588915" lon="11.993047621844456"><ele>494.0</ele><time>2026-04-29T13:27:28Z</time></trkpt><trkpt lat="43.34210964933635" lon="11.993297421955535"><ele>494.0</ele><time>2026-04-29T13:27:29Z</time></trkpt><trkpt lat="43.342192684534616" lon="11.993549601388425"><ele>494.0</ele><time>2026-04-29T13:27:30Z</time></trkpt><trkpt lat="43.34222682137226" lon="11.993790364811009"><ele>499.66666666666663</ele><time>2026-04-29T13:27:31Z</time></trkpt><trkpt lat="43.34221736345643" lon="11.994041867737172"><ele>505.33333333333337</ele><time>2026-04-29T13:27:32Z</time></trkpt><trkpt lat="43.34220134371421" lon="11.994295719755263"><ele>511.0</ele><time>2026-04-29T13:27:33Z</time></trkpt><trkpt lat="43.34220885774517" lon="11.994513412148974"><ele>501.6666666666667</ele><time>2026-04-29T13:27:34Z</time></trkpt><trkpt lat="43.3422461736189" lon="11.994726492203972"><ele>492.33333333333337</ele><time>2026-04-29T13:27:35Z</time></trkpt><trkpt lat="43.342341147822125" lon="11.994964055146514"><ele>483.0</ele><time>2026-04-29T13:27:36Z</time></trkpt><trkpt lat="43.34244019101464" lon="11.995221776497432"><ele>483.0</ele><time>2026-04-29T13:27:37Z</time></trkpt><trkpt lat="43.342528245274465" lon="11.99545382034103"><ele>483.0</ele><time>2026-04-29T13:27:38Z</time></trkpt><trkpt lat="43.34261215330522" lon="11.995650642895725"><ele>483.0</ele><time>2026-04-29T13:27:39Z</time></trkpt><trkpt lat="43.342702713637316" lon="11.995824533141825"><ele>486.66666666666663</ele><time>2026-04-29T13:27:40Z</time></trkpt><trkpt lat="43.34284007896028" lon="11.995948924077036"><ele>490.3333333333333</ele><time>2026-04-29T13:27:41Z</time></trkpt><trkpt lat="43.34301418739118" lon="11.996031871079188"><ele>494.0</ele><time>2026-04-29T13:27:42Z</time></trkpt><trkpt lat="43.343146868401355" lon="11.996132076745475"><ele>485.0</ele><time>2026-04-29T13:27:43Z</time></trkpt><trkpt lat="43.3432525704432" lon="11.996257693832815"><ele>476.0</ele><time>2026-04-29T13:27:44Z</time></trkpt><trkpt lat="43.34329006270239" lon="11.996422362345477"><ele>467.0</ele><time>2026-04-29T13:27:45Z</time></trkpt><trkpt lat="43.34326215690969" lon="11.996607832826896"><ele>458.0</ele><time>2026-04-29T13:27:46Z</time></trkpt><trkpt lat="43.343198581859504" lon="11.996798014625794"><ele>457.3333333333333</ele><time>2026-04-29T13:27:47Z</time></trkpt><trkpt lat="43.34310908165436" lon="11.996994644128321"><ele>456.66666666666663</ele><time>2026-04-29T13:27:48Z</time></trkpt><trkpt lat="43.34302701380544" lon="11.997218898656847"><ele>456.0</ele><time>2026-04-29T13:27:49Z</time></trkpt><trkpt lat="43.34297478034368" lon="11.997404247050905"><ele>459.75</ele><time>2026-04-29T13:27:50Z</time></trkpt><trkpt lat="43.34295240458525" lon="11.997569001209113"><ele>463.5</ele><time>2026-04-29T13:27:51Z</time></trkpt><trkpt lat="43.34297991157281" lon="11.997724362851994"><ele>467.25</ele><time>2026-04-29T13:27:52Z</time></trkpt><trkpt lat="43.343069652454794" lon="11.997825313929656"><ele>471.0</ele><time>2026-04-29T13:27:53Z</time></trkpt><trkpt lat="43.34318110734306" lon="11.997843049225274"><ele>471.0</ele><time>2026-04-29T13:27:54Z</time></trkpt><trkpt lat="43.34332106267996" lon="11.997831386969546"><ele>471.0</ele><time>2026-04-29T13:27:55Z</time></trkpt><trkpt lat="43.343490349453106" lon="11.997819481151803"><ele>471.0</ele><time>2026-04-29T13:27:56Z</time></trkpt><trkpt lat="43.34366783155738" lon="11.997815089701854"><ele>471.0</ele><time>2026-04-29T13:27:57Z</time></trkpt><trkpt lat="43.34383827379414" lon="11.99789595300096"><ele>471.0</ele><time>2026-04-29T13:27:58Z</time></trkpt><trkpt lat="43.343985377597136" lon="11.998034227616166"><ele>471.0</ele><time>2026-04-29T13:27:59Z</time></trkpt><trkpt lat="43.34409580273374" lon="11.998181665876823"><ele>469.33333333333337</ele><time>2026-04-29T13:28:00Z</time></trkpt><trkpt lat="43.34418807891918" lon="11.998371009151368"><ele>467.6666666666667</ele><time>2026-04-29T13:28:01Z</time></trkpt><trkpt lat="43.34428807427524" lon="11.998551086564374"><ele>466.0</ele><time>2026-04-29T13:28:02Z</time></trkpt><trkpt lat="43.34438951101059" lon="11.998732127145232"><ele>466.0</ele><time>2026-04-29T13:28:03Z</time></trkpt><trkpt lat="43.344520647225295" lon="11.998853672367108"><ele>466.0</ele><time>2026-04-29T13:28:04Z</time></trkpt><trkpt lat="43.34468346840003" lon="11.99892869180331"><ele>466.0</ele><time>2026-04-29T13:28:05Z</time></trkpt><trkpt lat="43.34484977173281" lon="11.999033933270168"><ele>462.6666666666667</ele><time>2026-04-29T13:28:06Z</time></trkpt><trkpt lat="43.344962462662146" lon="11.999227297665806"><ele>459.33333333333337</ele><time>2026-04-29T13:28:07Z</time></trkpt><trkpt lat="43.345097974775044" lon="11.999443122306138"><ele>456.0</ele><time>2026-04-29T13:28:08Z</time></trkpt><trkpt lat="43.34525245937662" lon="11.999664566474982"><ele>456.0</ele><time>2026-04-29T13:28:09Z</time></trkpt><trkpt lat="43.345400321725386" lon="11.999907595049608"><ele>456.0</ele><time>2026-04-29T13:28:10Z</time></trkpt><trkpt lat="43.34554759835745" lon="12.00014357618661"><ele>452.33333333333337</ele><time>2026-04-29T13:28:11Z</time></trkpt><trkpt lat="43.34567149873347" lon="12.000343374541048"><ele>448.6666666666667</ele><time>2026-04-29T13:28:12Z</time></trkpt><trkpt lat="43.34577911761197" lon="12.000529174718592"><ele>445.0</ele><time>2026-04-29T13:28:13Z</time></trkpt><trkpt lat="43.34585918643623" lon="12.000721049033535"><ele>447.25</ele><time>2026-04-29T13:28:14Z</time></trkpt><trkpt lat="43.34589392649482" lon="12.000922609514022"><ele>449.5</ele><time>2026-04-29T13:28:15Z</time></trkpt><trkpt lat="43.34591256414276" lon="12.001084390771906"><ele>451.75</ele><time>2026-04-29T13:28:16Z</time></trkpt><trkpt lat="43.34597212917949" lon="12.001194885337354"><ele>454.0</ele><time>2026-04-29T13:28:17Z</time></trkpt><trkpt lat="43.34606380827729" lon="12.001237482632147"><ele>454.0</ele><time>2026-04-29T13:28:18Z</time></trkpt><trkpt lat="43.34619120655459" lon="12.001193090137168"><ele>454.0</ele><time>2026-04-29T13:28:19Z</time></trkpt><trkpt lat="43.34633052680887" lon="12.001139828994013"><ele>454.0</ele><time>2026-04-29T13:28:20Z</time></trkpt><trkpt lat="43.34649722576315" lon="12.00115291772954"><ele>454.0</ele><time>2026-04-29T13:28:21Z</time></trkpt><trkpt lat="43.34666551606936" lon="12.001211833594686"><ele>450.5</ele><time>2026-04-29T13:28:22Z</time></trkpt><trkpt lat="43.346822667933644" lon="12.001265656838138"><ele>447.0</ele><time>2026-04-29T13:28:23Z</time></trkpt><trkpt lat="43.3469562203057" lon="12.001286551651926"><ele>443.5</ele><time>2026-04-29T13:28:24Z</time></trkpt><trkpt lat="43.34708100494515" lon="12.001280657411685"><ele>440.0</ele><time>2026-04-29T13:28:25Z</time></trkpt><trkpt lat="43.347194078701285" lon="12.001213013567368"><ele>442.0</ele><time>2026-04-29T13:28:26Z</time></trkpt><trkpt lat="43.347272676657674" lon="12.001028100150945"><ele>444.0</ele><time>2026-04-29T13:28:27Z</time></trkpt><trkpt lat="43.34732960151534" lon="12.000831009618473"><ele>446.0</ele><time>2026-04-29T13:28:28Z</time></trkpt><trkpt lat="43.34742140065208" lon="12.000661507716586"><ele>441.25</ele><time>2026-04-29T13:28:29Z</time></trkpt><trkpt lat="43.347538957320914" lon="12.00052339910018"><ele>436.5</ele><time>2026-04-29T13:28:30Z</time></trkpt><trkpt lat="43.347634361914544" lon="12.000395549710479"><ele>431.75</ele><time>2026-04-29T13:28:31Z</time></trkpt><trkpt lat="43.347668457287085" lon="12.000195816010757"><ele>427.0</ele><time>2026-04-29T13:28:32Z</time></trkpt><trkpt lat="43.34767118682023" lon="11.999974420802667"><ele>427.0</ele><time>2026-04-29T13:28:33Z</time></trkpt><trkpt lat="43.34771483560573" lon="11.999754745490545"><ele>427.0</ele><time>2026-04-29T13:28:34Z</time></trkpt><trkpt lat="43.347790772910784" lon="11.999523050178368"><ele>427.0</ele><time>2026-04-29T13:28:35Z</time></trkpt><trkpt lat="43.347875346314744" lon="11.999267707406858"><ele>426.33333333333337</ele><time>2026-04-29T13:28:36Z</time></trkpt><trkpt lat="43.347964764422436" lon="11.99900532701339"><ele>425.66666666666663</ele><time>2026-04-29T13:28:37Z</time></trkpt><trkpt lat="43.34805267389524" lon="11.998757850322574"><ele>425.0</ele><time>2026-04-29T13:28:38Z</time></trkpt><trkpt lat="43.3481337208036" lon="11.998554825615253"><ele>425.0</ele><time>2026-04-29T13:28:39Z</time></trkpt><trkpt lat="43.348207566851634" lon="11.998391956221017"><ele>425.0</ele><time>2026-04-29T13:28:40Z</time></trkpt><trkpt lat="43.34830655783819" lon="11.998324039264865"><ele>425.0</ele><time>2026-04-29T13:28:41Z</time></trkpt><trkpt lat="43.348401203896366" lon="11.998346461974293"><ele>425.0</ele><time>2026-04-29T13:28:42Z</time></trkpt><trkpt lat="43.34848866671771" lon="11.998451928678051"><ele>425.0</ele><time>2026-04-29T13:28:43Z</time></trkpt><trkpt lat="43.34859317449394" lon="11.998619286367553"><ele>425.0</ele><time>2026-04-29T13:28:44Z</time></trkpt><trkpt lat="43.348718420477816" lon="11.998813542092194"><ele>425.0</ele><time>2026-04-29T13:28:45Z</time></trkpt><trkpt lat="43.348846645531815" lon="11.998999620049506"><ele>422.0</ele><time>2026-04-29T13:28:46Z</time></trkpt><trkpt lat="43.348983990427875" lon="11.999156070912033"><ele>419.0</ele><time>2026-04-29T13:28:47Z</time></trkpt><trkpt lat="43.34914580614964" lon="11.999239805373987"><ele>416.0</ele><time>2026-04-29T13:28:48Z</time></trkpt><trkpt lat="43.34930327389633" lon="11.99928269544408"><ele>416.0</ele><time>2026-04-29T13:28:49Z</time></trkpt><trkpt lat="43.34938792580925" lon="11.9993517267212"><ele>416.0</ele><time>2026-04-29T13:28:50Z</time></trkpt><trkpt lat="43.34939256099333" lon="11.999502392363585"><ele>416.0</ele><time>2026-04-29T13:28:51Z</time></trkpt><trkpt lat="43.34943271144035" lon="11.999692438054376"><ele>416.0</ele><time>2026-04-29T13:28:52Z</time></trkpt><trkpt lat="43.34948454819067" lon="11.999916722155954"><ele>416.0</ele><time>2026-04-29T13:28:53Z</time></trkpt><trkpt lat="43.34945366242838" lon="12.000121212565615"><ele>416.0</ele><time>2026-04-29T13:28:54Z</time></trkpt><trkpt lat="43.34942291347435" lon="12.00033236930361"><ele>416.0</ele><time>2026-04-29T13:28:55Z</time></trkpt><trkpt lat="43.34939616123899" lon="12.00054805761235"><ele>416.0</ele><time>2026-04-29T13:28:56Z</time></trkpt><trkpt lat="43.34940136712021" lon="12.000731649185855"><ele>416.0</ele><time>2026-04-29T13:28:57Z</time></trkpt><trkpt lat="43.34946961534846" lon="12.00088964431876"><ele>416.0</ele><time>2026-04-29T13:28:58Z</time></trkpt><trkpt lat="43.34957994746819" lon="12.001018100310501"><ele>416.0</ele><time>2026-04-29T13:28:59Z</time></trkpt><trkpt lat="43.3497280196628" lon="12.001098140214552"><ele>410.0</ele><time>2026-04-29T13:29:00Z</time></trkpt><trkpt lat="43.349898556114994" lon="12.001143333831171"><ele>404.0</ele><time>2026-04-29T13:29:01Z</time></trkpt><trkpt lat="43.350023283411076" lon="12.001229095652782"><ele>398.0</ele><time>2026-04-29T13:29:02Z</time></trkpt><trkpt lat="43.35009065738712" lon="12.001311293069383"><ele>392.0</ele><time>2026-04-29T13:29:03Z</time></trkpt><trkpt lat="43.350111630163106" lon="12.001439034335984"><ele>392.0</ele><time>2026-04-29T13:29:04Z</time></trkpt><trkpt lat="43.35008085192876" lon="12.00162679379504"><ele>392.0</ele><time>2026-04-29T13:29:05Z</time></trkpt><trkpt lat="43.35003774359533" lon="12.001863580684846"><ele>392.0</ele><time>2026-04-29T13:29:06Z</time></trkpt><trkpt lat="43.3499754962904" lon="12.002118364526948"><ele>393.0</ele><time>2026-04-29T13:29:07Z</time></trkpt><trkpt lat="43.34993886026062" lon="12.002332867552827"><ele>394.0</ele><time>2026-04-29T13:29:08Z</time></trkpt><trkpt lat="43.34992595269172" lon="12.002540161761207"><ele>395.0</ele><time>2026-04-29T13:29:09Z</time></trkpt><trkpt lat="43.349922418821365" lon="12.002709026263108"><ele>396.0</ele><time>2026-04-29T13:29:10Z</time></trkpt><trkpt lat="43.34993739427187" lon="12.002810413259764"><ele>396.0</ele><time>2026-04-29T13:29:11Z</time></trkpt><trkpt lat="43.34998192341219" lon="12.002875031120052"><ele>396.0</ele><time>2026-04-29T13:29:12Z</time></trkpt><trkpt lat="43.35006148989444" lon="12.002960176355652"><ele>396.0</ele><time>2026-04-29T13:29:13Z</time></trkpt><trkpt lat="43.35018148353135" lon="12.002996391658968"><ele>396.0</ele><time>2026-04-29T13:29:14Z</time></trkpt><trkpt lat="43.35030008883256" lon="12.002965198313442"><ele>396.0</ele><time>2026-04-29T13:29:15Z</time></trkpt><trkpt lat="43.35040405624048" lon="12.0028552700479"><ele>396.0</ele><time>2026-04-29T13:29:16.001Z</time></trkpt><trkpt lat="43.35050701857782" lon="12.00274886323413"><ele>396.0</ele><time>2026-04-29T13:29:17.001Z</time></trkpt><trkpt lat="43.350613343524785" lon="12.00270167208879"><ele>396.0</ele><time>2026-04-29T13:29:18.001Z</time></trkpt><trkpt lat="43.350703211019585" lon="12.002780140615759"><ele>396.0</ele><time>2026-04-29T13:29:19.001Z</time></trkpt><trkpt lat="43.35078391706547" lon="12.00291051228517"><ele>394.5</ele><time>2026-04-29T13:29:20.001Z</time></trkpt><trkpt lat="43.35093947462929" lon="12.003024276393894"><ele>393.0</ele><time>2026-04-29T13:29:21.001Z</time></trkpt><trkpt lat="43.35105687404105" lon="12.00310324181074"><ele>391.5</ele><time>2026-04-29T13:29:22.001Z</time></trkpt><trkpt lat="43.351122595319154" lon="12.003195609696407"><ele>390.0</ele><time>2026-04-29T13:29:23.001Z</time></trkpt><trkpt lat="43.351138978470956" lon="12.003348812130119"><ele>390.0</ele><time>2026-04-29T13:29:24.001Z</time></trkpt><trkpt lat="43.35108692452826" lon="12.003553113125223"><ele>390.0</ele><time>2026-04-29T13:29:25.001Z</time></trkpt><trkpt lat="43.35110014781549" lon="12.003719843651119"><ele>390.0</ele><time>2026-04-29T13:29:26.001Z</time></trkpt><trkpt lat="43.351155243610606" lon="12.003842754813741"><ele>390.0</ele><time>2026-04-29T13:29:27.001Z</time></trkpt><trkpt lat="43.351260108109614" lon="12.003911267375997"><ele>386.25</ele><time>2026-04-29T13:29:28.001Z</time></trkpt><trkpt lat="43.3513804714219" lon="12.00390616355934"><ele>382.5</ele><time>2026-04-29T13:29:29Z</time></trkpt><trkpt lat="43.35147846118398" lon="12.003808453217777"><ele>378.75</ele><time>2026-04-29T13:29:30Z</time></trkpt><trkpt lat="43.351572068082554" lon="12.003667164216639"><ele>375.0</ele><time>2026-04-29T13:29:31Z</time></trkpt><trkpt lat="43.35168583331609" lon="12.003520493309265"><ele>375.0</ele><time>2026-04-29T13:29:32Z</time></trkpt><trkpt lat="43.35183953870219" lon="12.003391306678727"><ele>375.0</ele><time>2026-04-29T13:29:33Z</time></trkpt><trkpt lat="43.35198650179534" lon="12.003263485581694"><ele>375.0</ele><time>2026-04-29T13:29:34Z</time></trkpt><trkpt lat="43.35209574090408" lon="12.003107325507742"><ele>372.3333333333333</ele><time>2026-04-29T13:29:35Z</time></trkpt><trkpt lat="43.35218307991004" lon="12.002932401524951"><ele>369.66666666666663</ele><time>2026-04-29T13:29:36Z</time></trkpt><trkpt lat="43.35226053536432" lon="12.002753910615434"><ele>367.0</ele><time>2026-04-29T13:29:37Z</time></trkpt><trkpt lat="43.352399434468836" lon="12.002661960819028"><ele>367.0</ele><time>2026-04-29T13:29:38Z</time></trkpt><trkpt lat="43.35254809551731" lon="12.002550756762199"><ele>367.0</ele><time>2026-04-29T13:29:39Z</time></trkpt><trkpt lat="43.35269194186409" lon="12.00242632842767"><ele>367.0</ele><time>2026-04-29T13:29:40Z</time></trkpt><trkpt lat="43.352805037529194" lon="12.002289587500083"><ele>366.0</ele><time>2026-04-29T13:29:41Z</time></trkpt><trkpt lat="43.3528925109144" lon="12.002116331227956"><ele>365.0</ele><time>2026-04-29T13:29:42Z</time></trkpt><trkpt lat="43.35297562697537" lon="12.001925980784955"><ele>364.0</ele><time>2026-04-29T13:29:43Z</time></trkpt><trkpt lat="43.35310525685729" lon="12.001807487739322"><ele>364.0</ele><time>2026-04-29T13:29:44Z</time></trkpt><trkpt lat="43.353245909939844" lon="12.00169750909404"><ele>364.0</ele><time>2026-04-29T13:29:45Z</time></trkpt><trkpt lat="43.35337025552213" lon="12.001539455396394"><ele>364.0</ele><time>2026-04-29T13:29:46Z</time></trkpt><trkpt lat="43.35349164035131" lon="12.00134978381076"><ele>360.0</ele><time>2026-04-29T13:29:47Z</time></trkpt><trkpt lat="43.3535974856014" lon="12.001124899306872"><ele>356.0</ele><time>2026-04-29T13:29:48Z</time></trkpt><trkpt lat="43.35369275317145" lon="12.000885556735794"><ele>352.0</ele><time>2026-04-29T13:29:49Z</time></trkpt><trkpt lat="43.35377347248186" lon="12.000636247882632"><ele>352.66666666666663</ele><time>2026-04-29T13:29:50Z</time></trkpt><trkpt lat="43.35384394791582" lon="12.000418729830933"><ele>353.3333333333333</ele><time>2026-04-29T13:29:51Z</time></trkpt><trkpt lat="43.3539434036704" lon="12.000250119899903"><ele>354.0</ele><time>2026-04-29T13:29:52Z</time></trkpt><trkpt lat="43.35405572789991" lon="12.000086899540484"><ele>354.0</ele><time>2026-04-29T13:29:53Z</time></trkpt><trkpt lat="43.354195725462816" lon="11.99991823718592"><ele>354.0</ele><time>2026-04-29T13:29:54Z</time></trkpt><trkpt lat="43.35433432531315" lon="11.999728269367512"><ele>354.0</ele><time>2026-04-29T13:29:55Z</time></trkpt><trkpt lat="43.35449122206388" lon="11.999579141511465"><ele>354.0</ele><time>2026-04-29T13:29:56Z</time></trkpt><trkpt lat="43.3546302578507" lon="11.999439668616576"><ele>354.0</ele><time>2026-04-29T13:29:57Z</time></trkpt><trkpt lat="43.354778951319574" lon="11.999343728930546"><ele>354.0</ele><time>2026-04-29T13:29:58Z</time></trkpt><trkpt lat="43.354953310938946" lon="11.999261418273958"><ele>354.75</ele><time>2026-04-29T13:29:59Z</time></trkpt><trkpt lat="43.35511272793912" lon="11.999199024059374"><ele>355.5</ele><time>2026-04-29T13:30:00Z</time></trkpt><trkpt lat="43.355219699430066" lon="11.999147694475951"><ele>356.25</ele><time>2026-04-29T13:30:01Z</time></trkpt><trkpt lat="43.355302665344645" lon="11.999182752111633"><ele>357.0</ele><time>2026-04-29T13:30:02Z</time></trkpt><trkpt lat="43.35538443511102" lon="11.999212109678824"><ele>357.0</ele><time>2026-04-29T13:30:03Z</time></trkpt><trkpt lat="43.355446943898706" lon="11.999338711167011"><ele>357.0</ele><time>2026-04-29T13:30:04Z</time></trkpt><trkpt lat="43.35547985449389" lon="11.999496480656886"><ele>357.0</ele><time>2026-04-29T13:30:05Z</time></trkpt><trkpt lat="43.355465527106865" lon="11.999683182941137"><ele>357.0</ele><time>2026-04-29T13:30:06Z</time></trkpt><trkpt lat="43.355454041027734" lon="11.999896182877732"><ele>357.0</ele><time>2026-04-29T13:30:07Z</time></trkpt><trkpt lat="43.355447481880525" lon="12.000138808526678"><ele>357.0</ele><time>2026-04-29T13:30:08Z</time></trkpt><trkpt lat="43.35543846386054" lon="12.000388558596526"><ele>357.0</ele><time>2026-04-29T13:30:09Z</time></trkpt><trkpt lat="43.35539510003231" lon="12.000619312506519"><ele>357.0</ele><time>2026-04-29T13:30:10Z</time></trkpt><trkpt lat="43.3553407615696" lon="12.000828345301468"><ele>357.0</ele><time>2026-04-29T13:30:11Z</time></trkpt><trkpt lat="43.355312115230184" lon="12.001019995915117"><ele>357.0</ele><time>2026-04-29T13:30:12Z</time></trkpt><trkpt lat="43.35528188356208" lon="12.001199092402112"><ele>357.0</ele><time>2026-04-29T13:30:13Z</time></trkpt><trkpt lat="43.35528064988331" lon="12.001379229598925"><ele>357.75</ele><time>2026-04-29T13:30:14Z</time></trkpt><trkpt lat="43.35532725685956" lon="12.00155421978234"><ele>358.5</ele><time>2026-04-29T13:30:15Z</time></trkpt><trkpt lat="43.35538359393277" lon="12.001732716824273"><ele>359.25</ele><time>2026-04-29T13:30:16Z</time></trkpt><trkpt lat="43.35546553217542" lon="12.001930568787541"><ele>360.0</ele><time>2026-04-29T13:30:17Z</time></trkpt><trkpt lat="43.35555668077183" lon="12.00212900965562"><ele>353.25</ele><time>2026-04-29T13:30:18Z</time></trkpt><trkpt lat="43.35564135568323" lon="12.002289756816378"><ele>346.5</ele><time>2026-04-29T13:30:19Z</time></trkpt><trkpt lat="43.35571983356679" lon="12.002391244595147"><ele>339.75</ele><time>2026-04-29T13:30:20Z</time></trkpt><trkpt lat="43.35580653156439" lon="12.002442030091435"><ele>333.0</ele><time>2026-04-29T13:30:21Z</time></trkpt><trkpt lat="43.35591259860631" lon="12.002429905062018"><ele>333.0</ele><time>2026-04-29T13:30:22Z</time></trkpt><trkpt lat="43.35602502849765" lon="12.002369409131719"><ele>333.0</ele><time>2026-04-29T13:30:23Z</time></trkpt><trkpt lat="43.3561404313236" lon="12.002277019911913"><ele>333.0</ele><time>2026-04-29T13:30:24Z</time></trkpt><trkpt lat="43.35624320939263" lon="12.002301910718483"><ele>333.0</ele><time>2026-04-29T13:30:25Z</time></trkpt><trkpt lat="43.356316743735924" lon="12.002384948150574"><ele>331.25</ele><time>2026-04-29T13:30:26Z</time></trkpt><trkpt lat="43.35637973557452" lon="12.002508584183905"><ele>329.5</ele><time>2026-04-29T13:30:27Z</time></trkpt><trkpt lat="43.356342331423285" lon="12.002701491099192"><ele>327.75</ele><time>2026-04-29T13:30:28Z</time></trkpt><trkpt lat="43.35633520167087" lon="12.002939089275072"><ele>326.0</ele><time>2026-04-29T13:30:29Z</time></trkpt><trkpt lat="43.356331940642576" lon="12.003164893634155"><ele>327.25</ele><time>2026-04-29T13:30:30Z</time></trkpt><trkpt lat="43.356347204403534" lon="12.003341161313747"><ele>328.5</ele><time>2026-04-29T13:30:31Z</time></trkpt><trkpt lat="43.356405674832146" lon="12.003487767976596"><ele>329.75</ele><time>2026-04-29T13:30:32Z</time></trkpt><trkpt lat="43.35651039227126" lon="12.003619336163165"><ele>331.0</ele><time>2026-04-29T13:30:33Z</time></trkpt><trkpt lat="43.35664755960613" lon="12.003714120192491"><ele>331.0</ele><time>2026-04-29T13:30:34Z</time></trkpt><trkpt lat="43.35679796553272" lon="12.003776668807456"><ele>331.0</ele><time>2026-04-29T13:30:35Z</time></trkpt><trkpt lat="43.35695152579755" lon="12.003794700903027"><ele>331.0</ele><time>2026-04-29T13:30:36Z</time></trkpt><trkpt lat="43.3571191448209" lon="12.003782450823742"><ele>330.3333333333333</ele><time>2026-04-29T13:30:37Z</time></trkpt><trkpt lat="43.357310973492915" lon="12.003778141621348"><ele>329.6666666666667</ele><time>2026-04-29T13:30:38Z</time></trkpt><trkpt lat="43.357496494168664" lon="12.003772924216573"><ele>329.0</ele><time>2026-04-29T13:30:39Z</time></trkpt><trkpt lat="43.35766893166846" lon="12.003738075748242"><ele>329.0</ele><time>2026-04-29T13:30:40Z</time></trkpt><trkpt lat="43.35781774345541" lon="12.003694298522724"><ele>329.0</ele><time>2026-04-29T13:30:41Z</time></trkpt><trkpt lat="43.35792990507516" lon="12.003589247311789"><ele>329.0</ele><time>2026-04-29T13:30:42Z</time></trkpt><trkpt lat="43.358004414471374" lon="12.003441795737519"><ele>329.0</ele><time>2026-04-29T13:30:43Z</time></trkpt><trkpt lat="43.35804249137048" lon="12.003260280642806"><ele>328.25</ele><time>2026-04-29T13:30:44Z</time></trkpt><trkpt lat="43.35805811782602" lon="12.003062027204724"><ele>327.5</ele><time>2026-04-29T13:30:45Z</time></trkpt><trkpt lat="43.35806488315106" lon="12.002856028621583"><ele>326.75</ele><time>2026-04-29T13:30:46Z</time></trkpt><trkpt lat="43.358029962740275" lon="12.002662467241532"><ele>326.0</ele><time>2026-04-29T13:30:47Z</time></trkpt><trkpt lat="43.35795643808352" lon="12.002504804656752"><ele>326.33333333333337</ele><time>2026-04-29T13:30:48Z</time></trkpt><trkpt lat="43.357852895515826" lon="12.002389938458386"><ele>326.6666666666667</ele><time>2026-04-29T13:30:49Z</time></trkpt><trkpt lat="43.35774880378917" lon="12.002214254616833"><ele>327.0</ele><time>2026-04-29T13:30:50Z</time></trkpt><trkpt lat="43.3576577120736" lon="12.001977924704748"><ele>327.0</ele><time>2026-04-29T13:30:51Z</time></trkpt><trkpt lat="43.35760472207197" lon="12.001690707766258"><ele>327.0</ele><time>2026-04-29T13:30:52Z</time></trkpt><trkpt lat="43.357540416253066" lon="12.001382974436742"><ele>327.0</ele><time>2026-04-29T13:30:53Z</time></trkpt><trkpt lat="43.357460061400204" lon="12.001085987574703"><ele>325.0</ele><time>2026-04-29T13:30:54Z</time></trkpt><trkpt lat="43.357411718221464" lon="12.000807934717404"><ele>323.0</ele><time>2026-04-29T13:30:55Z</time></trkpt><trkpt lat="43.3574177148303" lon="12.000546632214608"><ele>321.0</ele><time>2026-04-29T13:30:56Z</time></trkpt><trkpt lat="43.357467054285884" lon="12.000326712256172"><ele>321.0</ele><time>2026-04-29T13:30:57Z</time></trkpt><trkpt lat="43.35754355450352" lon="12.000099512367678"><ele>321.0</ele><time>2026-04-29T13:30:58Z</time></trkpt><trkpt lat="43.35762524296257" lon="11.99985245169143"><ele>321.0</ele><time>2026-04-29T13:30:59Z</time></trkpt><trkpt lat="43.35769901888813" lon="11.999585776200975"><ele>321.0</ele><time>2026-04-29T13:31:00Z</time></trkpt><trkpt lat="43.35776923991016" lon="11.999296747222552"><ele>321.0</ele><time>2026-04-29T13:31:01Z</time></trkpt><trkpt lat="43.35780373001861" lon="11.999018136484294"><ele>321.0</ele><time>2026-04-29T13:31:02Z</time></trkpt><trkpt lat="43.357797181625465" lon="11.998734098563434"><ele>320.0</ele><time>2026-04-29T13:31:03Z</time></trkpt><trkpt lat="43.35776928438782" lon="11.998434325664974"><ele>319.0</ele><time>2026-04-29T13:31:04Z</time></trkpt><trkpt lat="43.35774076589541" lon="11.998115464670839"><ele>319.0</ele><time>2026-04-29T13:31:05Z</time></trkpt><trkpt lat="43.35771939227158" lon="11.997784807740786"><ele>319.0</ele><time>2026-04-29T13:31:06Z</time></trkpt><trkpt lat="43.357698839801365" lon="11.9974434530401"><ele>317.5</ele><time>2026-04-29T13:31:07Z</time></trkpt><trkpt lat="43.357674490518335" lon="11.99709680734766"><ele>316.0</ele><time>2026-04-29T13:31:08Z</time></trkpt><trkpt lat="43.35763996733822" lon="11.99674702308234"><ele>315.0</ele><time>2026-04-29T13:31:09Z</time></trkpt><trkpt lat="43.357595815307135" lon="11.996390513182508"><ele>314.0</ele><time>2026-04-29T13:31:10.001Z</time></trkpt><trkpt lat="43.35754314901686" lon="11.996029004994698"><ele>314.0</ele><time>2026-04-29T13:31:11.001Z</time></trkpt><trkpt lat="43.35749118165203" lon="11.995670577777174"><ele>314.0</ele><time>2026-04-29T13:31:12.001Z</time></trkpt><trkpt lat="43.35744272553973" lon="11.995301552583914"><ele>312.0</ele><time>2026-04-29T13:31:13.001Z</time></trkpt><trkpt lat="43.35740086837261" lon="11.994940363308546"><ele>310.0</ele><time>2026-04-29T13:31:14.001Z</time></trkpt><trkpt lat="43.35736416157071" lon="11.994608160761226"><ele>310.0</ele><time>2026-04-29T13:31:15.001Z</time></trkpt><trkpt lat="43.35732837496202" lon="11.994318052387277"><ele>310.0</ele><time>2026-04-29T13:31:16.001Z</time></trkpt><trkpt lat="43.3572823170637" lon="11.994065482090054"><ele>310.0</ele><time>2026-04-29T13:31:17.001Z</time></trkpt><trkpt lat="43.35721264763491" lon="11.993857754194417"><ele>308.0</ele><time>2026-04-29T13:31:18.001Z</time></trkpt><trkpt lat="43.357106498622294" lon="11.993671374244661"><ele>306.0</ele><time>2026-04-29T13:31:19.001Z</time></trkpt><trkpt lat="43.35695853875043" lon="11.993483353064969"><ele>304.0</ele><time>2026-04-29T13:31:20.001Z</time></trkpt><trkpt lat="43.3567727672465" lon="11.993311939138422"><ele>304.0</ele><time>2026-04-29T13:31:21.001Z</time></trkpt><trkpt lat="43.35657655254181" lon="11.99313749814504"><ele>304.0</ele><time>2026-04-29T13:31:22.001Z</time></trkpt><trkpt lat="43.35638604086984" lon="11.992952880318965"><ele>303.0</ele><time>2026-04-29T13:31:23.001Z</time></trkpt><trkpt lat="43.35623594874688" lon="11.992772718613393"><ele>302.0</ele><time>2026-04-29T13:31:24.001Z</time></trkpt><trkpt lat="43.35612215792555" lon="11.992576637146444"><ele>301.0</ele><time>2026-04-29T13:31:25.001Z</time></trkpt><trkpt lat="43.35603151549445" lon="11.99233384885551"><ele>301.0</ele><time>2026-04-29T13:31:26.001Z</time></trkpt><trkpt lat="43.35597741103964" lon="11.99207247596257"><ele>301.0</ele><time>2026-04-29T13:31:27.001Z</time></trkpt><trkpt lat="43.35594712189822" lon="11.991816358472121"><ele>301.0</ele><time>2026-04-29T13:31:28.001Z</time></trkpt><trkpt lat="43.35591657463301" lon="11.99154173491341"><ele>301.0</ele><time>2026-04-29T13:31:29.001Z</time></trkpt><trkpt lat="43.35588159962735" lon="11.991248610270727"><ele>301.0</ele><time>2026-04-29T13:31:30.001Z</time></trkpt><trkpt lat="43.355840487171065" lon="11.990933128581759"><ele>301.0</ele><time>2026-04-29T13:31:31.001Z</time></trkpt><trkpt lat="43.355781110563925" lon="11.990602542056548"><ele>301.0</ele><time>2026-04-29T13:31:32.001Z</time></trkpt><trkpt lat="43.35571424859334" lon="11.990264868332401"><ele>301.0</ele><time>2026-04-29T13:31:33.001Z</time></trkpt><trkpt lat="43.355644090525466" lon="11.989926667092767"><ele>300.5</ele><time>2026-04-29T13:31:34.001Z</time></trkpt><trkpt lat="43.35557054746343" lon="11.989598765872685"><ele>300.0</ele><time>2026-04-29T13:31:34.999Z</time></trkpt><trkpt lat="43.35549387206247" lon="11.989289388101314"><ele>299.3333333333333</ele><time>2026-04-29T13:31:35.999Z</time></trkpt><trkpt lat="43.355416208039635" lon="11.989000467113918"><ele>298.66666666666663</ele><time>2026-04-29T13:31:36.999Z</time></trkpt><trkpt lat="43.35536356076364" lon="11.98872064438771"><ele>298.0</ele><time>2026-04-29T13:31:37.999Z</time></trkpt><trkpt lat="43.35531175610922" lon="11.988431491354413"><ele>296.5</ele><time>2026-04-29T13:31:38.999Z</time></trkpt><trkpt lat="43.35526428634894" lon="11.98812872400364"><ele>295.0</ele><time>2026-04-29T13:31:39.999Z</time></trkpt><trkpt lat="43.35521574600302" lon="11.987819128456254"><ele>295.0</ele><time>2026-04-29T13:31:40.999Z</time></trkpt><trkpt lat="43.355184367094616" lon="11.98752282916176"><ele>295.0</ele><time>2026-04-29T13:31:41.999Z</time></trkpt><trkpt lat="43.35517759603775" lon="11.987234780216307"><ele>295.0</ele><time>2026-04-29T13:31:42.999Z</time></trkpt><trkpt lat="43.35514491804793" lon="11.986941911331026"><ele>294.5</ele><time>2026-04-29T13:31:43.999Z</time></trkpt><trkpt lat="43.35507817591164" lon="11.98663832615549"><ele>294.0</ele><time>2026-04-29T13:31:44.999Z</time></trkpt><trkpt lat="43.35498167659762" lon="11.986318955614207"><ele>294.0</ele><time>2026-04-29T13:31:45.999Z</time></trkpt><trkpt lat="43.35487287890812" lon="11.986006976513979"><ele>294.0</ele><time>2026-04-29T13:31:46.999Z</time></trkpt><trkpt lat="43.3547575674353" lon="11.985717652016092"><ele>293.0</ele><time>2026-04-29T13:31:47.999Z</time></trkpt><trkpt lat="43.35466740269099" lon="11.985410404338767"><ele>292.0</ele><time>2026-04-29T13:31:49Z</time></trkpt><trkpt lat="43.35459754293778" lon="11.985067823512495"><ele>291.0</ele><time>2026-04-29T13:31:50Z</time></trkpt><trkpt lat="43.35453484951379" lon="11.984735776632395"><ele>290.0</ele><time>2026-04-29T13:31:51Z</time></trkpt><trkpt lat="43.35447450053484" lon="11.984377978974111"><ele>290.5</ele><time>2026-04-29T13:31:52Z</time></trkpt><trkpt lat="43.35440837520845" lon="11.984025178461259"><ele>291.0</ele><time>2026-04-29T13:31:53Z</time></trkpt><trkpt lat="43.3543459156361" lon="11.983697840854157"><ele>291.0</ele><time>2026-04-29T13:31:54Z</time></trkpt><trkpt lat="43.3543079391416" lon="11.983389504877152"><ele>291.0</ele><time>2026-04-29T13:31:55Z</time></trkpt><trkpt lat="43.35429312462253" lon="11.983084537751065"><ele>290.5</ele><time>2026-04-29T13:31:56Z</time></trkpt><trkpt lat="43.35430191090205" lon="11.982762627807933"><ele>290.0</ele><time>2026-04-29T13:31:57Z</time></trkpt><trkpt lat="43.354321569597005" lon="11.982439903615617"><ele>290.6666666666667</ele><time>2026-04-29T13:31:58Z</time></trkpt><trkpt lat="43.354338767307304" lon="11.982114243943048"><ele>291.3333333333333</ele><time>2026-04-29T13:31:59Z</time></trkpt><trkpt lat="43.35435201279849" lon="11.981843912376288"><ele>292.0</ele><time>2026-04-29T13:32:00Z</time></trkpt><trkpt lat="43.35436325161749" lon="11.981586197867475"><ele>292.66666666666663</ele><time>2026-04-29T13:32:01Z</time></trkpt><trkpt lat="43.35437457837961" lon="11.981288535412709"><ele>293.3333333333333</ele><time>2026-04-29T13:32:02Z</time></trkpt><trkpt lat="43.35438695067933" lon="11.980993600784924"><ele>294.0</ele><time>2026-04-29T13:32:03Z</time></trkpt><trkpt lat="43.354403147513324" lon="11.980735382231256"><ele>292.6666666666667</ele><time>2026-04-29T13:32:04Z</time></trkpt><trkpt lat="43.354416435505264" lon="11.980494469661068"><ele>291.33333333333337</ele><time>2026-04-29T13:32:05Z</time></trkpt><trkpt lat="43.35442348278429" lon="11.980272105520244"><ele>290.0</ele><time>2026-04-29T13:32:06Z</time></trkpt><trkpt lat="43.354421446133415" lon="11.980066906777388"><ele>290.0</ele><time>2026-04-29T13:32:07Z</time></trkpt><trkpt lat="43.35439298456278" lon="11.979880047044501"><ele>290.0</ele><time>2026-04-29T13:32:08Z</time></trkpt><trkpt lat="43.35432336666717" lon="11.979708936578023"><ele>290.0</ele><time>2026-04-29T13:32:09Z</time></trkpt><trkpt lat="43.35421086552814" lon="11.979563330070626"><ele>290.0</ele><time>2026-04-29T13:32:10Z</time></trkpt><trkpt lat="43.354069496417786" lon="11.979445499889787"><ele>290.0</ele><time>2026-04-29T13:32:11Z</time></trkpt><trkpt lat="43.35392388392648" lon="11.979317767678666"><ele>290.0</ele><time>2026-04-29T13:32:12Z</time></trkpt><trkpt lat="43.35380749524823" lon="11.97914659579577"><ele>290.0</ele><time>2026-04-29T13:32:13Z</time></trkpt><trkpt lat="43.35372638624825" lon="11.978952244913929"><ele>290.0</ele><time>2026-04-29T13:32:14Z</time></trkpt><trkpt lat="43.35366703571481" lon="11.978735820362282"><ele>290.0</ele><time>2026-04-29T13:32:15Z</time></trkpt><trkpt lat="43.353596207979116" lon="11.978511287834353"><ele>290.0</ele><time>2026-04-29T13:32:16Z</time></trkpt><trkpt lat="43.35350850299036" lon="11.978278904390207"><ele>290.0</ele><time>2026-04-29T13:32:17Z</time></trkpt><trkpt lat="43.35342520821632" lon="11.978029883681161"><ele>290.0</ele><time>2026-04-29T13:32:18Z</time></trkpt><trkpt lat="43.35336196108788" lon="11.977766206491742"><ele>290.0</ele><time>2026-04-29T13:32:19Z</time></trkpt><trkpt lat="43.353310165919794" lon="11.97752223369453"><ele>290.6666666666667</ele><time>2026-04-29T13:32:20Z</time></trkpt><trkpt lat="43.35328324972545" lon="11.977315562109302"><ele>291.3333333333333</ele><time>2026-04-29T13:32:21Z</time></trkpt><trkpt lat="43.35326677792497" lon="11.97711489452221"><ele>292.0</ele><time>2026-04-29T13:32:22Z</time></trkpt><trkpt lat="43.353251043241286" lon="11.976891416742918"><ele>291.3333333333333</ele><time>2026-04-29T13:32:23Z</time></trkpt><trkpt lat="43.35322987711857" lon="11.976639018881608"><ele>290.6666666666667</ele><time>2026-04-29T13:32:24Z</time></trkpt><trkpt lat="43.35320753666568" lon="11.976366595232841"><ele>290.0</ele><time>2026-04-29T13:32:25Z</time></trkpt><trkpt lat="43.353178022585574" lon="11.976084317613013"><ele>288.6666666666667</ele><time>2026-04-29T13:32:26Z</time></trkpt><trkpt lat="43.35313186275956" lon="11.975797414585047"><ele>287.3333333333333</ele><time>2026-04-29T13:32:27Z</time></trkpt><trkpt lat="43.353061631044476" lon="11.975508947596522"><ele>286.0</ele><time>2026-04-29T13:32:28Z</time></trkpt><trkpt lat="43.35296887220646" lon="11.97522550718674"><ele>285.0</ele><time>2026-04-29T13:32:29Z</time></trkpt><trkpt lat="43.35287233969789" lon="11.974946979563333"><ele>284.0</ele><time>2026-04-29T13:32:30Z</time></trkpt><trkpt lat="43.3527920432666" lon="11.974682903521794"><ele>283.0</ele><time>2026-04-29T13:32:31Z</time></trkpt><trkpt lat="43.352736992438054" lon="11.974406526394336"><ele>282.3333333333333</ele><time>2026-04-29T13:32:32Z</time></trkpt><trkpt lat="43.352703256454205" lon="11.974114923160862"><ele>281.6666666666667</ele><time>2026-04-29T13:32:33Z</time></trkpt><trkpt lat="43.35269310270567" lon="11.973815119554532"><ele>281.0</ele><time>2026-04-29T13:32:34Z</time></trkpt><trkpt lat="43.35268950642302" lon="11.973502980353055"><ele>281.0</ele><time>2026-04-29T13:32:35Z</time></trkpt><trkpt lat="43.35268344235996" lon="11.97319524290899"><ele>281.0</ele><time>2026-04-29T13:32:36Z</time></trkpt><trkpt lat="43.35267547558095" lon="11.97288374274879"><ele>281.0</ele><time>2026-04-29T13:32:37Z</time></trkpt><trkpt lat="43.35266656868598" lon="11.97256883043672"><ele>281.0</ele><time>2026-04-29T13:32:38Z</time></trkpt><trkpt lat="43.35265574721031" lon="11.972245693334846"><ele>281.0</ele><time>2026-04-29T13:32:39Z</time></trkpt><trkpt lat="43.352643105221325" lon="11.97194247539996"><ele>281.0</ele><time>2026-04-29T13:32:40Z</time></trkpt><trkpt lat="43.35262031505257" lon="11.971655316619392"><ele>281.0</ele><time>2026-04-29T13:32:41Z</time></trkpt><trkpt lat="43.35257131509368" lon="11.971380023461911"><ele>281.0</ele><time>2026-04-29T13:32:42Z</time></trkpt><trkpt lat="43.35248933403107" lon="11.971112523980347"><ele>281.0</ele><time>2026-04-29T13:32:43Z</time></trkpt><trkpt lat="43.35239323741612" lon="11.970843987279792"><ele>281.0</ele><time>2026-04-29T13:32:44Z</time></trkpt><trkpt lat="43.35229691729168" lon="11.970565959311434"><ele>280.5</ele><time>2026-04-29T13:32:45Z</time></trkpt><trkpt lat="43.35219879914805" lon="11.970284013108238"><ele>280.0</ele><time>2026-04-29T13:32:46Z</time></trkpt><trkpt lat="43.35210066437061" lon="11.970000444158238"><ele>280.0</ele><time>2026-04-29T13:32:47Z</time></trkpt><trkpt lat="43.35201861168571" lon="11.969749014060563"><ele>280.0</ele><time>2026-04-29T13:32:48Z</time></trkpt><trkpt lat="43.351939298585506" lon="11.969510282303132"><ele>280.0</ele><time>2026-04-29T13:32:49Z</time></trkpt><trkpt lat="43.35185285469057" lon="11.969259906742009"><ele>279.66666666666663</ele><time>2026-04-29T13:32:50Z</time></trkpt><trkpt lat="43.35176160664474" lon="11.969005055917977"><ele>279.3333333333333</ele><time>2026-04-29T13:32:51Z</time></trkpt><trkpt lat="43.35166735561438" lon="11.968744852482764"><ele>279.0</ele><time>2026-04-29T13:32:52Z</time></trkpt><trkpt lat="43.35157459311718" lon="11.96848005314454"><ele>279.3333333333333</ele><time>2026-04-29T13:32:53Z</time></trkpt><trkpt lat="43.35147967384039" lon="11.9682089332986"><ele>279.66666666666663</ele><time>2026-04-29T13:32:54Z</time></trkpt><trkpt lat="43.351385990920484" lon="11.967932096732715"><ele>280.0</ele><time>2026-04-29T13:32:55Z</time></trkpt><trkpt lat="43.35129214841234" lon="11.967652987505149"><ele>279.3333333333333</ele><time>2026-04-29T13:32:56Z</time></trkpt><trkpt lat="43.351206848278544" lon="11.9673718243872"><ele>278.6666666666667</ele><time>2026-04-29T13:32:57Z</time></trkpt><trkpt lat="43.35114751387664" lon="11.967092054321563"><ele>278.0</ele><time>2026-04-29T13:32:58Z</time></trkpt><trkpt lat="43.35114722571833" lon="11.966813700475031"><ele>278.0</ele><time>2026-04-29T13:32:59Z</time></trkpt><trkpt lat="43.351153207121996" lon="11.966548593193133"><ele>278.0</ele><time>2026-04-29T13:33:00Z</time></trkpt><trkpt lat="43.35116215673346" lon="11.966314761847137"><ele>278.0</ele><time>2026-04-29T13:33:01Z</time></trkpt><trkpt lat="43.35115684356418" lon="11.966115085045306"><ele>278.0</ele><time>2026-04-29T13:33:02Z</time></trkpt><trkpt lat="43.35118185248385" lon="11.965919424967407"><ele>278.0</ele><time>2026-04-29T13:33:03Z</time></trkpt><trkpt lat="43.351247871146626" lon="11.965718831814296"><ele>278.0</ele><time>2026-04-29T13:33:04Z</time></trkpt><trkpt lat="43.351321946067344" lon="11.96550272466178"><ele>279.6666666666667</ele><time>2026-04-29T13:33:05Z</time></trkpt><trkpt lat="43.351398131197286" lon="11.965279031243346"><ele>281.3333333333333</ele><time>2026-04-29T13:33:06Z</time></trkpt><trkpt lat="43.351457346628" lon="11.965027036367173"><ele>283.0</ele><time>2026-04-29T13:33:07Z</time></trkpt><trkpt lat="43.35147593189993" lon="11.964747978423341"><ele>283.0</ele><time>2026-04-29T13:33:08Z</time></trkpt><trkpt lat="43.35145585165544" lon="11.964462061540626"><ele>283.0</ele><time>2026-04-29T13:33:09Z</time></trkpt><trkpt lat="43.3514408444954" lon="11.964167818485052"><ele>283.0</ele><time>2026-04-29T13:33:10Z</time></trkpt><trkpt lat="43.35141468131962" lon="11.963865433619794"><ele>282.0</ele><time>2026-04-29T13:33:11.001Z</time></trkpt><trkpt lat="43.351370251738174" lon="11.963560712024288"><ele>281.0</ele><time>2026-04-29T13:33:12.001Z</time></trkpt><trkpt lat="43.351300218547706" lon="11.963259156852102"><ele>281.0</ele><time>2026-04-29T13:33:13.001Z</time></trkpt><trkpt lat="43.351208579771104" lon="11.962961839150436"><ele>281.0</ele><time>2026-04-29T13:33:14.001Z</time></trkpt><trkpt lat="43.351119959017" lon="11.962661622610478"><ele>281.0</ele><time>2026-04-29T13:33:15.001Z</time></trkpt><trkpt lat="43.35104365465249" lon="11.962355391912897"><ele>281.0</ele><time>2026-04-29T13:33:16.001Z</time></trkpt><trkpt lat="43.35097291480348" lon="11.962046559178237"><ele>281.0</ele><time>2026-04-29T13:33:17.001Z</time></trkpt><trkpt lat="43.35090574341395" lon="11.961761781896255"><ele>281.0</ele><time>2026-04-29T13:33:18.001Z</time></trkpt><trkpt lat="43.350846896741515" lon="11.961502385212784"><ele>281.0</ele><time>2026-04-29T13:33:19.001Z</time></trkpt><trkpt lat="43.350789720688944" lon="11.961265905091333"><ele>281.6666666666667</ele><time>2026-04-29T13:33:20.001Z</time></trkpt><trkpt lat="43.35072716114518" lon="11.961051037709291"><ele>282.3333333333333</ele><time>2026-04-29T13:33:21.001Z</time></trkpt><trkpt lat="43.3506677661139" lon="11.960848759806092"><ele>283.0</ele><time>2026-04-29T13:33:22.001Z</time></trkpt><trkpt lat="43.35055380218916" lon="11.960671876404184"><ele>282.3333333333333</ele><time>2026-04-29T13:33:23.001Z</time></trkpt><trkpt lat="43.350426203763526" lon="11.960499987750273"><ele>281.6666666666667</ele><time>2026-04-29T13:33:24.001Z</time></trkpt><trkpt lat="43.350278075274865" lon="11.960328710923301"><ele>281.0</ele><time>2026-04-29T13:33:25.001Z</time></trkpt><trkpt lat="43.35012455780045" lon="11.960145807255035"><ele>281.0</ele><time>2026-04-29T13:33:26.001Z</time></trkpt><trkpt lat="43.349969243033584" lon="11.959948541550851"><ele>281.0</ele><time>2026-04-29T13:33:27.001Z</time></trkpt><trkpt lat="43.34982587001194" lon="11.959721888537862"><ele>281.0</ele><time>2026-04-29T13:33:28.001Z</time></trkpt><trkpt lat="43.34967573847826" lon="11.959494176818394"><ele>280.0</ele><time>2026-04-29T13:33:29.001Z</time></trkpt><trkpt lat="43.34952509923355" lon="11.95925573185954"><ele>279.0</ele><time>2026-04-29T13:33:30.001Z</time></trkpt><trkpt lat="43.349401214955485" lon="11.9589819902386"><ele>276.0</ele><time>2026-04-29T13:33:31.001Z</time></trkpt><trkpt lat="43.349286917056055" lon="11.958695856130406"><ele>273.0</ele><time>2026-04-29T13:33:32.001Z</time></trkpt><trkpt lat="43.349174237329315" lon="11.95840253604763"><ele>273.0</ele><time>2026-04-29T13:33:33.001Z</time></trkpt><trkpt lat="43.34906117313216" lon="11.95809877667708"><ele>273.0</ele><time>2026-04-29T13:33:34.001Z</time></trkpt><trkpt lat="43.34894841036683" lon="11.957792938249355"><ele>272.0</ele><time>2026-04-29T13:33:35.001Z</time></trkpt><trkpt lat="43.348830741931714" lon="11.95748292845528"><ele>271.0</ele><time>2026-04-29T13:33:36.001Z</time></trkpt><trkpt lat="43.348701620098986" lon="11.957173596273208"><ele>271.0</ele><time>2026-04-29T13:33:37.001Z</time></trkpt><trkpt lat="43.348565199725115" lon="11.956866017688816"><ele>271.0</ele><time>2026-04-29T13:33:38.001Z</time></trkpt><trkpt lat="43.34842181810398" lon="11.956562930527273"><ele>270.5</ele><time>2026-04-29T13:33:39.001Z</time></trkpt><trkpt lat="43.34826967360482" lon="11.956263503046783"><ele>270.0</ele><time>2026-04-29T13:33:40.001Z</time></trkpt><trkpt lat="43.34811049668365" lon="11.955966329672538"><ele>270.0</ele><time>2026-04-29T13:33:40.999Z</time></trkpt><trkpt lat="43.34795371164038" lon="11.955667400614526"><ele>270.0</ele><time>2026-04-29T13:33:41.999Z</time></trkpt><trkpt lat="43.34779881040782" lon="11.955364268908632"><ele>270.0</ele><time>2026-04-29T13:33:42.999Z</time></trkpt><trkpt lat="43.34764534538279" lon="11.95506758096234"><ele>270.0</ele><time>2026-04-29T13:33:43.999Z</time></trkpt><trkpt lat="43.34749794942229" lon="11.954773050932545"><ele>270.5</ele><time>2026-04-29T13:33:44.999Z</time></trkpt><trkpt lat="43.347358250093365" lon="11.954475504711443"><ele>271.0</ele><time>2026-04-29T13:33:45.999Z</time></trkpt><trkpt lat="43.34722486907564" lon="11.954165903438161"><ele>269.0</ele><time>2026-04-29T13:33:46.999Z</time></trkpt><trkpt lat="43.3471073664326" lon="11.953846564696276"><ele>267.0</ele><time>2026-04-29T13:33:47.999Z</time></trkpt><trkpt lat="43.34698314118217" lon="11.953533695545392"><ele>266.5</ele><time>2026-04-29T13:33:48.999Z</time></trkpt><trkpt lat="43.3468553751954" lon="11.953237786066843"><ele>266.0</ele><time>2026-04-29T13:33:49.999Z</time></trkpt><trkpt lat="43.3468324846604" lon="11.952857572619743"><ele>267.0</ele><time>2026-04-29T13:33:50.999Z</time></trkpt><trkpt lat="43.34677257097467" lon="11.9525243224894"><ele>268.0</ele><time>2026-04-29T13:33:52Z</time></trkpt><trkpt lat="43.34673112830569" lon="11.95220167728165"><ele>268.0</ele><time>2026-04-29T13:33:53Z</time></trkpt><trkpt lat="43.346701241511425" lon="11.951885323788792"><ele>268.0</ele><time>2026-04-29T13:33:54Z</time></trkpt><trkpt lat="43.34668412600987" lon="11.951578734126864"><ele>269.0</ele><time>2026-04-29T13:33:55Z</time></trkpt><trkpt lat="43.34668602805466" lon="11.951291106577864"><ele>270.0</ele><time>2026-04-29T13:33:56Z</time></trkpt><trkpt lat="43.34670207070149" lon="11.951025027602784"><ele>271.0</ele><time>2026-04-29T13:33:57Z</time></trkpt><trkpt lat="43.34672188056635" lon="11.95076967678308"><ele>271.0</ele><time>2026-04-29T13:33:58Z</time></trkpt><trkpt lat="43.34674441716457" lon="11.950502693582608"><ele>271.0</ele><time>2026-04-29T13:33:59Z</time></trkpt><trkpt lat="43.346771316730795" lon="11.950210494959379"><ele>271.0</ele><time>2026-04-29T13:34:00Z</time></trkpt><trkpt lat="43.346804491865214" lon="11.949869039785671"><ele>271.0</ele><time>2026-04-29T13:34:01Z</time></trkpt><trkpt lat="43.34683494846234" lon="11.949509079949717"><ele>271.0</ele><time>2026-04-29T13:34:02Z</time></trkpt><trkpt lat="43.346859480518965" lon="11.949190034403456"><ele>270.3333333333333</ele><time>2026-04-29T13:34:03Z</time></trkpt><trkpt lat="43.34687147392199" lon="11.948903606661903"><ele>269.6666666666667</ele><time>2026-04-29T13:34:04Z</time></trkpt><trkpt lat="43.346861365612874" lon="11.94861387788699"><ele>269.0</ele><time>2026-04-29T13:34:05Z</time></trkpt><trkpt lat="43.34681296013352" lon="11.948333026258261"><ele>269.0</ele><time>2026-04-29T13:34:06Z</time></trkpt><trkpt lat="43.346773793599304" lon="11.948005938125013"><ele>269.0</ele><time>2026-04-29T13:34:07Z</time></trkpt><trkpt lat="43.34673051146862" lon="11.947678594669469"><ele>270.0</ele><time>2026-04-29T13:34:08Z</time></trkpt><trkpt lat="43.346691018053555" lon="11.947342202093823"><ele>271.0</ele><time>2026-04-29T13:34:09Z</time></trkpt><trkpt lat="43.346656041479555" lon="11.947003887765643"><ele>271.0</ele><time>2026-04-29T13:34:10Z</time></trkpt><trkpt lat="43.34661572510984" lon="11.946671129690118"><ele>271.0</ele><time>2026-04-29T13:34:11Z</time></trkpt><trkpt lat="43.34656076466393" lon="11.946343823247467"><ele>271.0</ele><time>2026-04-29T13:34:12Z</time></trkpt><trkpt lat="43.346472710680175" lon="11.946032942537999"><ele>271.0</ele><time>2026-04-29T13:34:13Z</time></trkpt><trkpt lat="43.34635996861346" lon="11.945733332646023"><ele>270.5</ele><time>2026-04-29T13:34:14Z</time></trkpt><trkpt lat="43.34624082577043" lon="11.945444868124605"><ele>270.0</ele><time>2026-04-29T13:34:15Z</time></trkpt><trkpt lat="43.34612074816677" lon="11.945170663420775"><ele>271.0</ele><time>2026-04-29T13:34:16Z</time></trkpt><trkpt lat="43.346005222277334" lon="11.944920678023022"><ele>272.0</ele><time>2026-04-29T13:34:17Z</time></trkpt><trkpt lat="43.34590125110405" lon="11.944692186739545"><ele>273.0</ele><time>2026-04-29T13:34:18Z</time></trkpt><trkpt lat="43.34581336958117" lon="11.944456296159801"><ele>273.3333333333333</ele><time>2026-04-29T13:34:19Z</time></trkpt><trkpt lat="43.34575092679935" lon="11.944209802377378"><ele>273.66666666666663</ele><time>2026-04-29T13:34:20Z</time></trkpt><trkpt lat="43.34571938234272" lon="11.943956315682447"><ele>274.0</ele><time>2026-04-29T13:34:21Z</time></trkpt><trkpt lat="43.34571157491155" lon="11.9436968041992"><ele>274.0</ele><time>2026-04-29T13:34:22Z</time></trkpt><trkpt lat="43.345716952992696" lon="11.943430767566097"><ele>274.0</ele><time>2026-04-29T13:34:23Z</time></trkpt><trkpt lat="43.34572304139328" lon="11.943152948617607"><ele>274.0</ele><time>2026-04-29T13:34:24Z</time></trkpt><trkpt lat="43.345726553953966" lon="11.942891418320395"><ele>274.3333333333333</ele><time>2026-04-29T13:34:25Z</time></trkpt><trkpt lat="43.34572687752029" lon="11.942677472818033"><ele>274.6666666666667</ele><time>2026-04-29T13:34:26Z</time></trkpt><trkpt lat="43.345714948818234" lon="11.942464484948795"><ele>275.0</ele><time>2026-04-29T13:34:27Z</time></trkpt><trkpt lat="43.345681773112844" lon="11.942198047692568"><ele>275.6666666666667</ele><time>2026-04-29T13:34:28Z</time></trkpt><trkpt lat="43.345616760633625" lon="11.941942436610294"><ele>276.3333333333333</ele><time>2026-04-29T13:34:29Z</time></trkpt><trkpt lat="43.34555498502982" lon="11.941735858339314"><ele>277.0</ele><time>2026-04-29T13:34:30Z</time></trkpt><trkpt lat="43.34549761434736" lon="11.94156531381767"><ele>276.2</ele><time>2026-04-29T13:34:31Z</time></trkpt><trkpt lat="43.34544979980909" lon="11.94142281774596"><ele>275.4</ele><time>2026-04-29T13:34:32Z</time></trkpt><trkpt lat="43.34541221410874" lon="11.941310651353282"><ele>274.6</ele><time>2026-04-29T13:34:33Z</time></trkpt><trkpt lat="43.34538138628689" lon="11.941215354828834"><ele>273.8</ele><time>2026-04-29T13:34:34Z</time></trkpt><trkpt lat="43.345338451177" lon="11.94107858741096"><ele>273.0</ele><time>2026-04-29T13:34:36Z</time></trkpt><trkpt lat="43.34530288953348" lon="11.94097977656656"><ele>273.0</ele><time>2026-04-29T13:34:39Z</time></trkpt><trkpt lat="43.345250593949274" lon="11.940853933349645"><ele>273.0</ele><time>2026-04-29T13:34:56Z</time></trkpt><trkpt lat="43.34520703551471" lon="11.940759962678838"><ele>273.0</ele><time>2026-04-29T13:34:57Z</time></trkpt><trkpt lat="43.345195146236435" lon="11.940619495826196"><ele>273.0</ele><time>2026-04-29T13:34:58Z</time></trkpt><trkpt lat="43.34515127851151" lon="11.940491126295736"><ele>273.0</ele><time>2026-04-29T13:34:59Z</time></trkpt><trkpt lat="43.345101971505905" lon="11.940351098872824"><ele>273.0</ele><time>2026-04-29T13:35:00Z</time></trkpt><trkpt lat="43.34505344682211" lon="11.940199570374029"><ele>273.0</ele><time>2026-04-29T13:35:01Z</time></trkpt><trkpt lat="43.345006353476386" lon="11.940033283991308"><ele>273.0</ele><time>2026-04-29T13:35:02Z</time></trkpt><trkpt lat="43.34495097815837" lon="11.939860524045741"><ele>273.0</ele><time>2026-04-29T13:35:03Z</time></trkpt><trkpt lat="43.34491194401278" lon="11.939670943027712"><ele>273.0</ele><time>2026-04-29T13:35:04Z</time></trkpt><trkpt lat="43.34486893567898" lon="11.93948033654566"><ele>273.0</ele><time>2026-04-29T13:35:05Z</time></trkpt><trkpt lat="43.34482011886035" lon="11.939286336985184"><ele>273.0</ele><time>2026-04-29T13:35:06Z</time></trkpt><trkpt lat="43.344777682877705" lon="11.939080890729247"><ele>272.6666666666667</ele><time>2026-04-29T13:35:07Z</time></trkpt><trkpt lat="43.344698394733946" lon="11.93888308378065"><ele>272.33333333333337</ele><time>2026-04-29T13:35:08Z</time></trkpt><trkpt lat="43.34459550262877" lon="11.9386973147491"><ele>272.0</ele><time>2026-04-29T13:35:09.001Z</time></trkpt><trkpt lat="43.34449868589049" lon="11.9384856679161"><ele>272.0</ele><time>2026-04-29T13:35:10.001Z</time></trkpt><trkpt lat="43.34440976755005" lon="11.938252653505263"><ele>272.0</ele><time>2026-04-29T13:35:11.001Z</time></trkpt><trkpt lat="43.3443245462009" lon="11.938001832911233"><ele>272.0</ele><time>2026-04-29T13:35:12.001Z</time></trkpt><trkpt lat="43.34424066513609" lon="11.937740989372674"><ele>272.0</ele><time>2026-04-29T13:35:13.001Z</time></trkpt><trkpt lat="43.34417350294946" lon="11.937463770455732"><ele>272.0</ele><time>2026-04-29T13:35:14.001Z</time></trkpt><trkpt lat="43.34409337549799" lon="11.937185190650288"><ele>272.0</ele><time>2026-04-29T13:35:15.001Z</time></trkpt><trkpt lat="43.34401137448676" lon="11.936898557476585"><ele>272.0</ele><time>2026-04-29T13:35:16.001Z</time></trkpt><trkpt lat="43.343931570235426" lon="11.936618715379348"><ele>272.0</ele><time>2026-04-29T13:35:17.001Z</time></trkpt><trkpt lat="43.34385000890937" lon="11.93632596520958"><ele>272.0</ele><time>2026-04-29T13:35:18.001Z</time></trkpt><trkpt lat="43.34377072507326" lon="11.936036040851237"><ele>271.33333333333337</ele><time>2026-04-29T13:35:19.001Z</time></trkpt><trkpt lat="43.34370389615287" lon="11.935772979989773"><ele>270.6666666666667</ele><time>2026-04-29T13:35:20.001Z</time></trkpt><trkpt lat="43.34366242971151" lon="11.935525158267835"><ele>270.0</ele><time>2026-04-29T13:35:21.001Z</time></trkpt><trkpt lat="43.34366613861001" lon="11.935301689807343"><ele>270.0</ele><time>2026-04-29T13:35:22.001Z</time></trkpt><trkpt lat="43.34369775834855" lon="11.935085370392047"><ele>270.0</ele><time>2026-04-29T13:35:23.001Z</time></trkpt><trkpt lat="43.34373449166361" lon="11.934846740081285"><ele>270.0</ele><time>2026-04-29T13:35:24.001Z</time></trkpt><trkpt lat="43.34377058167799" lon="11.934599816237062"><ele>269.0</ele><time>2026-04-29T13:35:25.001Z</time></trkpt><trkpt lat="43.34378413874674" lon="11.934338006669309"><ele>268.0</ele><time>2026-04-29T13:35:26.001Z</time></trkpt><trkpt lat="43.34380847564736" lon="11.93407128972179"><ele>267.0</ele><time>2026-04-29T13:35:27.001Z</time></trkpt><trkpt lat="43.343819985242455" lon="11.933797243045976"><ele>266.6666666666667</ele><time>2026-04-29T13:35:28.001Z</time></trkpt><trkpt lat="43.34381506407349" lon="11.933514277031435"><ele>266.33333333333337</ele><time>2026-04-29T13:35:29.001Z</time></trkpt><trkpt lat="43.34378861400959" lon="11.933237763937568"><ele>266.0</ele><time>2026-04-29T13:35:30.001Z</time></trkpt><trkpt lat="43.34374520185263" lon="11.932965613859347"><ele>266.0</ele><time>2026-04-29T13:35:31.001Z</time></trkpt><trkpt lat="43.34373809686239" lon="11.932700266448602"><ele>266.0</ele><time>2026-04-29T13:35:32.001Z</time></trkpt><trkpt lat="43.34373807576217" lon="11.932437691513993"><ele>266.0</ele><time>2026-04-29T13:35:33.001Z</time></trkpt><trkpt lat="43.343764115529645" lon="11.93216721933788"><ele>266.33333333333337</ele><time>2026-04-29T13:35:34.001Z</time></trkpt><trkpt lat="43.34377984743915" lon="11.931889412350067"><ele>266.6666666666667</ele><time>2026-04-29T13:35:35.001Z</time></trkpt><trkpt lat="43.34382477061195" lon="11.931622329073324"><ele>267.0</ele><time>2026-04-29T13:35:36.001Z</time></trkpt><trkpt lat="43.3438593539536" lon="11.931378706468855"><ele>268.6666666666667</ele><time>2026-04-29T13:35:37.001Z</time></trkpt><trkpt lat="43.34391837995071" lon="11.931176034510786"><ele>270.33333333333337</ele><time>2026-04-29T13:35:38.001Z</time></trkpt><trkpt lat="43.34400682696545" lon="11.931000678773458"><ele>272.0</ele><time>2026-04-29T13:35:39.001Z</time></trkpt><trkpt lat="43.34407961922083" lon="11.930821544521253"><ele>272.0</ele><time>2026-04-29T13:35:40.001Z</time></trkpt><trkpt lat="43.34416154539607" lon="11.930675945403852"><ele>272.0</ele><time>2026-04-29T13:35:41.001Z</time></trkpt><trkpt lat="43.34421181965967" lon="11.930521446731719"><ele>272.0</ele><time>2026-04-29T13:35:42.001Z</time></trkpt><trkpt lat="43.34421999042376" lon="11.930348847614338"><ele>272.0</ele><time>2026-04-29T13:35:43.001Z</time></trkpt><trkpt lat="43.3441800618512" lon="11.93017464764325"><ele>271.6666666666667</ele><time>2026-04-29T13:35:44.001Z</time></trkpt><trkpt lat="43.344100747484504" lon="11.92999774056551"><ele>271.3333333333333</ele><time>2026-04-29T13:35:45.001Z</time></trkpt><trkpt lat="43.34401529903121" lon="11.929812783916041"><ele>271.0</ele><time>2026-04-29T13:35:46.001Z</time></trkpt><trkpt lat="43.34392952049529" lon="11.929619208252065"><ele>270.3333333333333</ele><time>2026-04-29T13:35:46.999Z</time></trkpt><trkpt lat="43.34383509932918" lon="11.929415899993327"><ele>269.6666666666667</ele><time>2026-04-29T13:35:47.999Z</time></trkpt><trkpt lat="43.34372928233879" lon="11.929209430515257"><ele>269.0</ele><time>2026-04-29T13:35:48.999Z</time></trkpt><trkpt lat="43.34361105246785" lon="11.929003706084742"><ele>269.0</ele><time>2026-04-29T13:35:49.999Z</time></trkpt><trkpt lat="43.343475218310736" lon="11.928797773002431"><ele>269.0</ele><time>2026-04-29T13:35:50.999Z</time></trkpt><trkpt lat="43.34334041943762" lon="11.928593262018047"><ele>269.0</ele><time>2026-04-29T13:35:51.999Z</time></trkpt><trkpt lat="43.34319989701375" lon="11.928379964636353"><ele>268.6666666666667</ele><time>2026-04-29T13:35:52.999Z</time></trkpt><trkpt lat="43.3430699250971" lon="11.928165096385861"><ele>268.3333333333333</ele><time>2026-04-29T13:35:53.999Z</time></trkpt><trkpt lat="43.34294125222443" lon="11.92796172822977"><ele>268.0</ele><time>2026-04-29T13:35:54.999Z</time></trkpt><trkpt lat="43.34280387504105" lon="11.92776330535216"><ele>268.0</ele><time>2026-04-29T13:35:55.999Z</time></trkpt><trkpt lat="43.34268307551495" lon="11.927584003622098"><ele>268.0</ele><time>2026-04-29T13:35:56.999Z</time></trkpt><trkpt lat="43.342574319652215" lon="11.927415759750552"><ele>268.0</ele><time>2026-04-29T13:35:58Z</time></trkpt><trkpt lat="43.34248533053196" lon="11.927248567463721"><ele>269.25</ele><time>2026-04-29T13:35:59Z</time></trkpt><trkpt lat="43.34239331369289" lon="11.927096415431748"><ele>270.5</ele><time>2026-04-29T13:36:00Z</time></trkpt><trkpt lat="43.342294622948764" lon="11.926973107235131"><ele>271.75</ele><time>2026-04-29T13:36:01Z</time></trkpt><trkpt lat="43.342236037319665" lon="11.926842251519181"><ele>273.0</ele><time>2026-04-29T13:36:02Z</time></trkpt><trkpt lat="43.34220638602877" lon="11.926695782199804"><ele>273.5</ele><time>2026-04-29T13:36:03Z</time></trkpt><trkpt lat="43.34220615464022" lon="11.926525084007979"><ele>274.0</ele><time>2026-04-29T13:36:04Z</time></trkpt><trkpt lat="43.34223681031326" lon="11.926349170861235"><ele>274.5</ele><time>2026-04-29T13:36:05Z</time></trkpt><trkpt lat="43.34227865106472" lon="11.926169545536153"><ele>275.0</ele><time>2026-04-29T13:36:06Z</time></trkpt><trkpt lat="43.34232285520323" lon="11.925973227433142"><ele>276.6666666666667</ele><time>2026-04-29T13:36:07Z</time></trkpt><trkpt lat="43.34237079985913" lon="11.925762838249902"><ele>278.3333333333333</ele><time>2026-04-29T13:36:08Z</time></trkpt><trkpt lat="43.3424252318784" lon="11.92554663376075"><ele>280.0</ele><time>2026-04-29T13:36:09Z</time></trkpt><trkpt lat="43.34248437447254" lon="11.925328738824543"><ele>280.0</ele><time>2026-04-29T13:36:10Z</time></trkpt><trkpt lat="43.342557641302164" lon="11.925124426097494"><ele>280.0</ele><time>2026-04-29T13:36:11Z</time></trkpt><trkpt lat="43.34266521251875" lon="11.924963394729152"><ele>280.0</ele><time>2026-04-29T13:36:12Z</time></trkpt><trkpt lat="43.34279839041811" lon="11.92485915748821"><ele>283.3333333333333</ele><time>2026-04-29T13:36:13Z</time></trkpt><trkpt lat="43.342953675725646" lon="11.924785998931052"><ele>286.6666666666667</ele><time>2026-04-29T13:36:14Z</time></trkpt><trkpt lat="43.343128254706464" lon="11.924727375832951"><ele>290.0</ele><time>2026-04-29T13:36:15Z</time></trkpt><trkpt lat="43.343310757006634" lon="11.924665875411687"><ele>290.0</ele><time>2026-04-29T13:36:16Z</time></trkpt><trkpt lat="43.34349911809572" lon="11.924601553649493"><ele>290.0</ele><time>2026-04-29T13:36:17Z</time></trkpt><trkpt lat="43.34369795741778" lon="11.92453460486008"><ele>290.0</ele><time>2026-04-29T13:36:18Z</time></trkpt><trkpt lat="43.343898649396955" lon="11.924461773454292"><ele>291.6666666666667</ele><time>2026-04-29T13:36:19Z</time></trkpt><trkpt lat="43.34410041492841" lon="11.924382582747752"><ele>293.3333333333333</ele><time>2026-04-29T13:36:20Z</time></trkpt><trkpt lat="43.34427836575577" lon="11.924306835017221"><ele>295.0</ele><time>2026-04-29T13:36:21Z</time></trkpt><trkpt lat="43.34442564935261" lon="11.924238147372805"><ele>297.75</ele><time>2026-04-29T13:36:22Z</time></trkpt><trkpt lat="43.344538421920724" lon="11.924162407826394"><ele>300.5</ele><time>2026-04-29T13:36:23Z</time></trkpt><trkpt lat="43.34462969346886" lon="11.924065113487453"><ele>303.25</ele><time>2026-04-29T13:36:24Z</time></trkpt><trkpt lat="43.34465058486388" lon="11.923910403512785"><ele>306.0</ele><time>2026-04-29T13:36:25Z</time></trkpt><trkpt lat="43.344629548842555" lon="11.9237666199557"><ele>306.0</ele><time>2026-04-29T13:36:26Z</time></trkpt><trkpt lat="43.34458211802391" lon="11.92363386649141"><ele>306.0</ele><time>2026-04-29T13:36:27Z</time></trkpt><trkpt lat="43.34447956507233" lon="11.923555603311378"><ele>306.0</ele><time>2026-04-29T13:36:28Z</time></trkpt><trkpt lat="43.34437148679596" lon="11.923494918635628"><ele>306.0</ele><time>2026-04-29T13:36:29Z</time></trkpt><trkpt lat="43.344265707672804" lon="11.923457963637496"><ele>306.0</ele><time>2026-04-29T13:36:30Z</time></trkpt><trkpt lat="43.34417521751296" lon="11.92343634120485"><ele>306.0</ele><time>2026-04-29T13:36:31Z</time></trkpt><trkpt lat="43.34410244915822" lon="11.923415316161591"><ele>306.0</ele><time>2026-04-29T13:36:32Z</time></trkpt><trkpt lat="43.34402792790356" lon="11.923353206895092"><ele>306.0</ele><time>2026-04-29T13:36:34Z</time></trkpt><trkpt lat="43.34401815559738" lon="11.92326731877504"><ele>306.0</ele><time>2026-04-29T13:36:36Z</time></trkpt><trkpt lat="43.34411903117331" lon="11.923204989365498"><ele>306.0</ele><time>2026-04-29T13:36:38Z</time></trkpt><trkpt lat="43.34419438208677" lon="11.923144756423397"><ele>308.3333333333333</ele><time>2026-04-29T13:36:39Z</time></trkpt><trkpt lat="43.34427759088268" lon="11.923114494514431"><ele>310.6666666666667</ele><time>2026-04-29T13:36:40Z</time></trkpt><trkpt lat="43.344345134381044" lon="11.923049318723784"><ele>313.0</ele><time>2026-04-29T13:36:41Z</time></trkpt><trkpt lat="43.34440061091497" lon="11.922970650119009"><ele>315.33333333333337</ele><time>2026-04-29T13:36:42Z</time></trkpt><trkpt lat="43.34444962334123" lon="11.922915255411057"><ele>317.6666666666667</ele><time>2026-04-29T13:36:43Z</time></trkpt><trkpt lat="43.34451559492651" lon="11.922833783833639"><ele>320.0</ele><time>2026-04-29T13:36:45Z</time></trkpt><trkpt lat="43.344468305788695" lon="11.922592816650065"><ele>320.6</ele><time>2026-04-29T13:36:48Z</time></trkpt><trkpt lat="43.344414338881705" lon="11.922471128334031"><ele>321.2</ele><time>2026-04-29T13:36:49Z</time></trkpt><trkpt lat="43.344357115834484" lon="11.922347262179276"><ele>321.79999999999995</ele><time>2026-04-29T13:36:50Z</time></trkpt><trkpt lat="43.34430130235518" lon="11.922231083025537"><ele>322.4</ele><time>2026-04-29T13:36:51Z</time></trkpt><trkpt lat="43.34425060425024" lon="11.922125477666244"><ele>323.0</ele><time>2026-04-29T13:36:52Z</time></trkpt><trkpt lat="43.34420891773696" lon="11.922033235756558"><ele>323.0</ele><time>2026-04-29T13:36:53Z</time></trkpt><trkpt lat="43.34415011575472" lon="11.921905793870382"><ele>323.0</ele><time>2026-04-29T13:36:55Z</time></trkpt><trkpt lat="43.34410428902317" lon="11.921806800147408"><ele>323.0</ele><time>2026-04-29T13:36:57Z</time></trkpt><trkpt lat="43.344063872408256" lon="11.92170757833535"><ele>323.0</ele><time>2026-04-29T13:36:59Z</time></trkpt><trkpt lat="43.34400519111604" lon="11.92158845541624"><ele>323.0</ele><time>2026-04-29T13:37:01Z</time></trkpt><trkpt lat="43.34395898528941" lon="11.921491592857269"><ele>322.5</ele><time>2026-04-29T13:37:03Z</time></trkpt><trkpt lat="43.34392183260039" lon="11.9213916854513"><ele>322.0</ele><time>2026-04-29T13:37:06.001Z</time></trkpt><trkpt lat="43.343910748010956" lon="11.92129011472858"><ele>321.5</ele><time>2026-04-29T13:37:14.001Z</time></trkpt><trkpt lat="43.34391926514736" lon="11.921181262890363"><ele>321.0</ele><time>2026-04-29T13:37:16.001Z</time></trkpt><trkpt lat="43.34398663035256" lon="11.921101521499883"><ele>320.5</ele><time>2026-04-29T13:37:18.001Z</time></trkpt><trkpt lat="43.34406114591209" lon="11.921005223027407"><ele>320.0</ele><time>2026-04-29T13:37:20.001Z</time></trkpt><trkpt lat="43.34412937804496" lon="11.920882004785806"><ele>318.6666666666667</ele><time>2026-04-29T13:37:22.001Z</time></trkpt><trkpt lat="43.34418398661834" lon="11.920747750903598"><ele>317.33333333333337</ele><time>2026-04-29T13:37:24.001Z</time></trkpt><trkpt lat="43.34420083950718" lon="11.920659402727189"><ele>316.0</ele><time>2026-04-29T13:37:25.001Z</time></trkpt><trkpt lat="43.34421956451343" lon="11.920563102144264"><ele>314.6666666666667</ele><time>2026-04-29T13:37:26.001Z</time></trkpt><trkpt lat="43.34423977797517" lon="11.920452672749413"><ele>313.3333333333333</ele><time>2026-04-29T13:37:27.001Z</time></trkpt><trkpt lat="43.34426540826133" lon="11.920341185259783"><ele>312.0</ele><time>2026-04-29T13:37:28.001Z</time></trkpt><trkpt lat="43.3442890038275" lon="11.920223344751472"><ele>312.0</ele><time>2026-04-29T13:37:29.001Z</time></trkpt><trkpt lat="43.34433059989205" lon="11.920102263601215"><ele>312.0</ele><time>2026-04-29T13:37:30.001Z</time></trkpt><trkpt lat="43.344359797580275" lon="11.91997028722627"><ele>312.0</ele><time>2026-04-29T13:37:31.001Z</time></trkpt><trkpt lat="43.34437831544708" lon="11.91982873873832"><ele>312.0</ele><time>2026-04-29T13:37:32.001Z</time></trkpt><trkpt lat="43.34441140324569" lon="11.91969387343315"><ele>312.0</ele><time>2026-04-29T13:37:33.001Z</time></trkpt><trkpt lat="43.344441324883974" lon="11.91955351350213"><ele>310.0</ele><time>2026-04-29T13:37:34.001Z</time></trkpt><trkpt lat="43.344472933362006" lon="11.919413986785248"><ele>308.0</ele><time>2026-04-29T13:37:35.001Z</time></trkpt><trkpt lat="43.34450823847943" lon="11.919276454905209"><ele>306.0</ele><time>2026-04-29T13:37:36.001Z</time></trkpt><trkpt lat="43.34454729025462" lon="11.919147667007367"><ele>304.0</ele><time>2026-04-29T13:37:37.001Z</time></trkpt><trkpt lat="43.34458776641294" lon="11.91902752110612"><ele>302.0</ele><time>2026-04-29T13:37:38.001Z</time></trkpt><trkpt lat="43.34463389437575" lon="11.91891351064071"><ele>303.0</ele><time>2026-04-29T13:37:39.001Z</time></trkpt><trkpt lat="43.3446812075182" lon="11.918800531729655"><ele>304.0</ele><time>2026-04-29T13:37:40.001Z</time></trkpt><trkpt lat="43.3447293510907" lon="11.918685439278294"><ele>305.0</ele><time>2026-04-29T13:37:41.001Z</time></trkpt><trkpt lat="43.34477981710092" lon="11.918572833425062"><ele>306.0</ele><time>2026-04-29T13:37:42.001Z</time></trkpt><trkpt lat="43.344837908145045" lon="11.918467839016913"><ele>307.0</ele><time>2026-04-29T13:37:43.001Z</time></trkpt><trkpt lat="43.344900555053634" lon="11.918367209665993"><ele>304.2</ele><time>2026-04-29T13:37:44.001Z</time></trkpt><trkpt lat="43.34496513411027" lon="11.918268859714688"><ele>301.4</ele><time>2026-04-29T13:37:45.001Z</time></trkpt><trkpt lat="43.345030321250746" lon="11.918177436121619"><ele>298.6</ele><time>2026-04-29T13:37:46.001Z</time></trkpt><trkpt lat="43.3450999542512" lon="11.91808515893991"><ele>295.8</ele><time>2026-04-29T13:37:47.001Z</time></trkpt><trkpt lat="43.34516452819699" lon="11.917991381936046"><ele>293.0</ele><time>2026-04-29T13:37:48.001Z</time></trkpt><trkpt lat="43.34522996711213" lon="11.917904499661399"><ele>293.0</ele><time>2026-04-29T13:37:49.001Z</time></trkpt><trkpt lat="43.34529704602563" lon="11.917815688022008"><ele>293.0</ele><time>2026-04-29T13:37:50.001Z</time></trkpt><trkpt lat="43.345366929590924" lon="11.917723051336537"><ele>293.0</ele><time>2026-04-29T13:37:51.001Z</time></trkpt><trkpt lat="43.34544269445243" lon="11.917623642037212"><ele>293.0</ele><time>2026-04-29T13:37:52.001Z</time></trkpt><trkpt lat="43.34552960044222" lon="11.91752103151392"><ele>293.0</ele><time>2026-04-29T13:37:52.999Z</time></trkpt><trkpt lat="43.34562068341441" lon="11.917405542857162"><ele>293.0</ele><time>2026-04-29T13:37:53.999Z</time></trkpt><trkpt lat="43.34571008298437" lon="11.917280159557965"><ele>293.0</ele><time>2026-04-29T13:37:54.999Z</time></trkpt><trkpt lat="43.34580875347186" lon="11.917143645187805"><ele>293.0</ele><time>2026-04-29T13:37:55.999Z</time></trkpt><trkpt lat="43.3459023677525" lon="11.917007137685152"><ele>293.0</ele><time>2026-04-29T13:37:56.999Z</time></trkpt><trkpt lat="43.345998274276916" lon="11.916864131487026"><ele>292.5</ele><time>2026-04-29T13:37:57.999Z</time></trkpt><trkpt lat="43.34609362826245" lon="11.916712449360162"><ele>292.0</ele><time>2026-04-29T13:37:58.999Z</time></trkpt><trkpt lat="43.34618292625783" lon="11.916562606615974"><ele>291.5</ele><time>2026-04-29T13:37:59.999Z</time></trkpt><trkpt lat="43.34627071831684" lon="11.91641156607657"><ele>291.0</ele><time>2026-04-29T13:38:00.999Z</time></trkpt><trkpt lat="43.34636029943577" lon="11.91626587145984"><ele>292.75</ele><time>2026-04-29T13:38:01.999Z</time></trkpt><trkpt lat="43.34645004004448" lon="11.916117939254669"><ele>294.5</ele><time>2026-04-29T13:38:02.999Z</time></trkpt><trkpt lat="43.34652947495798" lon="11.915987525304981"><ele>296.25</ele><time>2026-04-29T13:38:03.999Z</time></trkpt><trkpt lat="43.3466031602144" lon="11.915843495513467"><ele>298.0</ele><time>2026-04-29T13:38:04.999Z</time></trkpt><trkpt lat="43.34665513671846" lon="11.915679224277055"><ele>298.0</ele><time>2026-04-29T13:38:05.999Z</time></trkpt><trkpt lat="43.346685042300216" lon="11.915504908037772"><ele>298.0</ele><time>2026-04-29T13:38:06.999Z</time></trkpt><trkpt lat="43.34670462635736" lon="11.915361540836226"><ele>298.0</ele><time>2026-04-29T13:38:08Z</time></trkpt><trkpt lat="43.34671302598337" lon="11.915218993578383"><ele>298.0</ele><time>2026-04-29T13:38:09Z</time></trkpt><trkpt lat="43.34669114411634" lon="11.915056243464944"><ele>297.5</ele><time>2026-04-29T13:38:10Z</time></trkpt><trkpt lat="43.34665646978024" lon="11.914882404017881"><ele>297.0</ele><time>2026-04-29T13:38:11Z</time></trkpt><trkpt lat="43.34661882306937" lon="11.914694772381836"><ele>296.5</ele><time>2026-04-29T13:38:12Z</time></trkpt><trkpt lat="43.34659386428347" lon="11.914493745368281"><ele>296.0</ele><time>2026-04-29T13:38:13Z</time></trkpt><trkpt lat="43.34660025900478" lon="11.914286873696534"><ele>297.0</ele><time>2026-04-29T13:38:14Z</time></trkpt><trkpt lat="43.34663136970618" lon="11.914083529466167"><ele>298.0</ele><time>2026-04-29T13:38:15Z</time></trkpt><trkpt lat="43.34667085132627" lon="11.913884043190766"><ele>299.0</ele><time>2026-04-29T13:38:16Z</time></trkpt><trkpt lat="43.34672017525607" lon="11.913683514390751"><ele>299.0</ele><time>2026-04-29T13:38:17Z</time></trkpt><trkpt lat="43.346774483601095" lon="11.913482763769943"><ele>299.0</ele><time>2026-04-29T13:38:18Z</time></trkpt><trkpt lat="43.346829494353216" lon="11.913303449889964"><ele>299.0</ele><time>2026-04-29T13:38:19Z</time></trkpt><trkpt lat="43.34689372151974" lon="11.91313443741641"><ele>299.0</ele><time>2026-04-29T13:38:20Z</time></trkpt><trkpt lat="43.34696885975147" lon="11.912988143782595"><ele>299.5</ele><time>2026-04-29T13:38:21Z</time></trkpt><trkpt lat="43.34705587362351" lon="11.912864261861245"><ele>300.0</ele><time>2026-04-29T13:38:22Z</time></trkpt><trkpt lat="43.34715344733318" lon="11.912740234612844"><ele>300.5</ele><time>2026-04-29T13:38:23Z</time></trkpt><trkpt lat="43.347256378798335" lon="11.91261334471057"><ele>301.0</ele><time>2026-04-29T13:38:24Z</time></trkpt><trkpt lat="43.347369543439086" lon="11.912493655719675"><ele>298.0</ele><time>2026-04-29T13:38:25Z</time></trkpt><trkpt lat="43.347493976450984" lon="11.912376421466519"><ele>295.0</ele><time>2026-04-29T13:38:26Z</time></trkpt><trkpt lat="43.347616116595034" lon="11.91225776335982"><ele>292.0</ele><time>2026-04-29T13:38:27Z</time></trkpt><trkpt lat="43.347729046519454" lon="11.91213620510089"><ele>289.0</ele><time>2026-04-29T13:38:28Z</time></trkpt><trkpt lat="43.34783091237929" lon="11.912006496489683"><ele>289.0</ele><time>2026-04-29T13:38:29Z</time></trkpt><trkpt lat="43.34792224108099" lon="11.911869934746004"><ele>289.0</ele><time>2026-04-29T13:38:30Z</time></trkpt><trkpt lat="43.34800542539558" lon="11.91172996733981"><ele>289.0</ele><time>2026-04-29T13:38:31Z</time></trkpt><trkpt lat="43.348089770167924" lon="11.911595235241036"><ele>289.0</ele><time>2026-04-29T13:38:32Z</time></trkpt><trkpt lat="43.34817537111099" lon="11.911462135586726"><ele>287.25</ele><time>2026-04-29T13:38:33Z</time></trkpt><trkpt lat="43.34825673637859" lon="11.911338225092416"><ele>285.5</ele><time>2026-04-29T13:38:34Z</time></trkpt><trkpt lat="43.34833134175122" lon="11.911222316900323"><ele>283.75</ele><time>2026-04-29T13:38:35Z</time></trkpt><trkpt lat="43.34840447352779" lon="11.911104603497238"><ele>282.0</ele><time>2026-04-29T13:38:36Z</time></trkpt><trkpt lat="43.34848818364612" lon="11.910967030732785"><ele>281.0</ele><time>2026-04-29T13:38:37Z</time></trkpt><trkpt lat="43.34858136335062" lon="11.910821294737532"><ele>280.0</ele><time>2026-04-29T13:38:38Z</time></trkpt><trkpt lat="43.34866832202999" lon="11.910689872954265"><ele>279.0</ele><time>2026-04-29T13:38:39Z</time></trkpt><trkpt lat="43.34875280287019" lon="11.910562215916288"><ele>278.0</ele><time>2026-04-29T13:38:40Z</time></trkpt><trkpt lat="43.34883678496284" lon="11.91043110273681"><ele>278.0</ele><time>2026-04-29T13:38:41Z</time></trkpt><trkpt lat="43.34892093072319" lon="11.910301737900745"><ele>278.0</ele><time>2026-04-29T13:38:42Z</time></trkpt><trkpt lat="43.34900549829294" lon="11.91016909548065"><ele>278.0</ele><time>2026-04-29T13:38:43Z</time></trkpt><trkpt lat="43.34909187391532" lon="11.910032797697916"><ele>278.0</ele><time>2026-04-29T13:38:44Z</time></trkpt><trkpt lat="43.349173623933225" lon="11.90990579437797"><ele>278.0</ele><time>2026-04-29T13:38:45Z</time></trkpt><trkpt lat="43.34924909738014" lon="11.909792659610734"><ele>278.0</ele><time>2026-04-29T13:38:46Z</time></trkpt><trkpt lat="43.3493223036275" lon="11.909680860999995"><ele>278.0</ele><time>2026-04-29T13:38:47Z</time></trkpt><trkpt lat="43.34939148968805" lon="11.909573984495342"><ele>278.0</ele><time>2026-04-29T13:38:48Z</time></trkpt><trkpt lat="43.34945394627025" lon="11.909474844783459"><ele>278.0</ele><time>2026-04-29T13:38:49Z</time></trkpt><trkpt lat="43.349510764213974" lon="11.909384616830504"><ele>278.0</ele><time>2026-04-29T13:38:50Z</time></trkpt><trkpt lat="43.34955533484557" lon="11.909311813308353"><ele>278.0</ele><time>2026-04-29T13:38:51Z</time></trkpt><trkpt lat="43.349619477783015" lon="11.90921155797803"><ele>278.0</ele><time>2026-04-29T13:38:53Z</time></trkpt><trkpt lat="43.3496747762619" lon="11.90912696608698"><ele>278.0</ele><time>2026-04-29T13:38:58Z</time></trkpt><trkpt lat="43.34974076763364" lon="11.909066577940465"><ele>278.0</ele><time>2026-04-29T13:39:00Z</time></trkpt><trkpt lat="43.34982766073061" lon="11.909017726597805"><ele>278.0</ele><time>2026-04-29T13:39:02Z</time></trkpt><trkpt lat="43.349891927065464" lon="11.908918851682502"><ele>278.0</ele><time>2026-04-29T13:39:04Z</time></trkpt><trkpt lat="43.349932639720855" lon="11.90875600986916"><ele>278.0</ele><time>2026-04-29T13:39:06Z</time></trkpt><trkpt lat="43.349982680483095" lon="11.908657457467937"><ele>278.0</ele><time>2026-04-29T13:39:07Z</time></trkpt><trkpt lat="43.35004491204231" lon="11.908556390513619"><ele>278.0</ele><time>2026-04-29T13:39:08.001Z</time></trkpt><trkpt lat="43.350113045974055" lon="11.908455275132535"><ele>278.0</ele><time>2026-04-29T13:39:09.001Z</time></trkpt><trkpt lat="43.35018135585433" lon="11.908349617080457"><ele>277.8</ele><time>2026-04-29T13:39:10.001Z</time></trkpt><trkpt lat="43.35025062019976" lon="11.90824190990159"><ele>277.6</ele><time>2026-04-29T13:39:11.001Z</time></trkpt><trkpt lat="43.35031597561196" lon="11.908131850074069"><ele>277.4</ele><time>2026-04-29T13:39:12.001Z</time></trkpt><trkpt lat="43.35038773676232" lon="11.908049034307037"><ele>277.2</ele><time>2026-04-29T13:39:13.001Z</time></trkpt><trkpt lat="43.350413440453224" lon="11.907928734954012"><ele>277.0</ele><time>2026-04-29T13:39:14.001Z</time></trkpt><trkpt lat="43.35042352193276" lon="11.90783897472486"><ele>277.0</ele><time>2026-04-29T13:39:15.001Z</time></trkpt><trkpt lat="43.35043142358672" lon="11.90772897436188"><ele>277.0</ele><time>2026-04-29T13:39:17.001Z</time></trkpt><trkpt lat="43.35054347501691" lon="11.907808585043696"><ele>277.0</ele><time>2026-04-29T13:39:18.001Z</time></trkpt><trkpt lat="43.35032393854614" lon="11.907721120064329"><ele>277.0</ele><time>2026-04-29T13:39:23.001Z</time></trkpt><trkpt lat="43.35046880741907" lon="11.90757857403445"><ele>277.0</ele><time>2026-04-29T13:42:40.001Z</time></trkpt><trkpt lat="43.35038269486104" lon="11.907546420943373"><ele>277.0</ele><time>2026-04-29T13:42:47.001Z</time></trkpt><trkpt lat="43.350390034289944" lon="11.907657077247459"><ele>277.0</ele><time>2026-04-29T13:42:49.001Z</time></trkpt><trkpt lat="43.35024572617521" lon="11.90757201644557"><ele>277.0</ele><time>2026-04-29T13:42:50.001Z</time></trkpt><trkpt lat="43.350307460769024" lon="11.90762117877377"><ele>277.0</ele><time>2026-04-29T13:43:04.001Z</time></trkpt><trkpt lat="43.350279753254576" lon="11.907431016170786"><ele>277.0</ele><time>2026-04-29T13:43:30.001Z</time></trkpt><trkpt lat="43.35034252199955" lon="11.907418920996292"><ele>277.0</ele><time>2026-04-29T13:43:53.002Z</time></trkpt><trkpt lat="43.35045964048974" lon="11.907425551974635"><ele>277.0</ele><time>2026-04-29T13:43:54.002Z</time></trkpt><trkpt lat="43.35052752278402" lon="11.907429777972707"><ele>277.0</ele><time>2026-04-29T13:43:56.002Z</time></trkpt><trkpt lat="43.35059353182771" lon="11.90746222441485"><ele>277.0</ele><time>2026-04-29T13:43:59.002Z</time></trkpt><trkpt lat="43.350665643347064" lon="11.907513450225315"><ele>277.0</ele><time>2026-04-29T13:44:02.002Z</time></trkpt><trkpt lat="43.35072863458773" lon="11.90757721663617"><ele>277.0</ele><time>2026-04-29T13:44:05.002Z</time></trkpt><trkpt lat="43.35068256939791" lon="11.907645532275074"><ele>277.0</ele><time>2026-04-29T13:44:08.002Z</time></trkpt><trkpt lat="43.35062152710995" lon="11.907537172345021"><ele>277.0</ele><time>2026-04-29T13:44:14Z</time></trkpt><trkpt lat="43.350540204144046" lon="11.907619193919395"><ele>277.0</ele><time>2026-04-29T13:44:22Z</time></trkpt><trkpt lat="43.35047443367153" lon="11.907620015780054"><ele>277.0</ele><time>2026-04-29T13:44:25Z</time></trkpt><trkpt lat="43.35041021083084" lon="11.907629231150342"><ele>277.0</ele><time>2026-04-29T13:44:28Z</time></trkpt><trkpt lat="43.350346036960474" lon="11.90764516174555"><ele>277.0</ele><time>2026-04-29T13:44:47.001Z</time></trkpt><trkpt lat="43.350338636007834" lon="11.90755547760309"><ele>277.0</ele><time>2026-04-29T13:45:09.001Z</time></trkpt><trkpt lat="43.35035765631856" lon="11.907463848812581"><ele>277.0</ele><time>2026-04-29T13:45:29.001Z</time></trkpt><trkpt lat="43.35037654967961" lon="11.9075569127829"><ele>277.0</ele><time>2026-04-29T13:45:48.001Z</time></trkpt><trkpt lat="43.35026380266115" lon="11.90748604784677"><ele>277.0</ele><time>2026-04-29T13:47:38.001Z</time></trkpt><trkpt lat="43.350331976526434" lon="11.907548492587349"><ele>277.0</ele><time>2026-04-29T13:47:53.002Z</time></trkpt><trkpt lat="43.35041104128097" lon="11.90760794531123"><ele>277.0</ele><time>2026-04-29T13:48:01.002Z</time></trkpt><trkpt lat="43.35035052921368" lon="11.907634934643566"><ele>277.0</ele><time>2026-04-29T13:48:24.001Z</time></trkpt><trkpt lat="43.35040986606426" lon="11.907666600247587"><ele>277.0</ele><time>2026-04-29T13:54:51.999Z</time></trkpt><trkpt lat="43.35033887687567" lon="11.907601690467532"><ele>277.0</ele><time>2026-04-29T13:57:52Z</time></trkpt><trkpt lat="43.35040342605545" lon="11.907611599021367"><ele>277.0</ele><time>2026-04-29T14:00:29.001Z</time></trkpt><trkpt lat="43.3503137120257" lon="11.90761355194229"><ele>277.0</ele><time>2026-04-29T14:04:19.001Z</time></trkpt></trkseg><trkseg><trkpt lat="43.3504220545391" lon="11.90778858777582"><ele>277.0</ele><time>2026-04-29T14:24:44.725Z</time></trkpt><trkpt lat="43.35036934770219" lon="11.907699900259423"><ele>277.0</ele><time>2026-04-29T14:24:48.012Z</time></trkpt><trkpt lat="43.350369668299265" lon="11.907840114733515"><ele>277.0</ele><time>2026-04-29T14:25:14.003Z</time></trkpt><trkpt lat="43.350379921612635" lon="11.907931723774194"><ele>277.0</ele><time>2026-04-29T14:25:15.002Z</time></trkpt><trkpt lat="43.35037544442826" lon="11.908050259505366"><ele>277.0</ele><time>2026-04-29T14:25:17.002Z</time></trkpt><trkpt lat="43.350327092468" lon="11.90814842827237"><ele>277.0</ele><time>2026-04-29T14:25:18.002Z</time></trkpt><trkpt lat="43.3502271134602" lon="11.908228274599656"><ele>277.0</ele><time>2026-04-29T14:25:19.002Z</time></trkpt><trkpt lat="43.350152616318276" lon="11.908374374030577"><ele>277.0</ele><time>2026-04-29T14:25:20.002Z</time></trkpt><trkpt lat="43.350057792750455" lon="11.908501166845742"><ele>277.0</ele><time>2026-04-29T14:25:21.002Z</time></trkpt><trkpt lat="43.34997954749338" lon="11.908621905973744"><ele>277.0</ele><time>2026-04-29T14:25:22.002Z</time></trkpt><trkpt lat="43.349919122456775" lon="11.908712827029126"><ele>277.16666666666663</ele><time>2026-04-29T14:25:23.002Z</time></trkpt><trkpt lat="43.34984544023837" lon="11.90878747189228"><ele>277.3333333333333</ele><time>2026-04-29T14:25:25.001Z</time></trkpt><trkpt lat="43.34977916307304" lon="11.908804462951162"><ele>277.5</ele><time>2026-04-29T14:25:27.001Z</time></trkpt><trkpt lat="43.34972705081162" lon="11.90886426012663"><ele>277.6666666666667</ele><time>2026-04-29T14:25:29.001Z</time></trkpt><trkpt lat="43.34970175796673" lon="11.90896554982075"><ele>277.83333333333337</ele><time>2026-04-29T14:25:31.001Z</time></trkpt><trkpt lat="43.349646927645296" lon="11.909118188485182"><ele>278.0</ele><time>2026-04-29T14:25:33.001Z</time></trkpt><trkpt lat="43.34958078304981" lon="11.909240471585552"><ele>278.0</ele><time>2026-04-29T14:25:35.001Z</time></trkpt><trkpt lat="43.34953080244744" lon="11.90931556763768"><ele>278.0</ele><time>2026-04-29T14:25:36.001Z</time></trkpt><trkpt lat="43.34947141209137" lon="11.909405027667455"><ele>278.0</ele><time>2026-04-29T14:25:37.001Z</time></trkpt><trkpt lat="43.34940658434604" lon="11.909503157333216"><ele>278.0</ele><time>2026-04-29T14:25:38.001Z</time></trkpt><trkpt lat="43.349337034797905" lon="11.909612653227038"><ele>278.0</ele><time>2026-04-29T14:25:39.001Z</time></trkpt><trkpt lat="43.34926470939367" lon="11.909736295162512"><ele>278.0</ele><time>2026-04-29T14:25:40.001Z</time></trkpt><trkpt lat="43.34918137146384" lon="11.909854887538563"><ele>278.0</ele><time>2026-04-29T14:25:41.001Z</time></trkpt><trkpt lat="43.3490932340583" lon="11.90999006956144"><ele>278.0</ele><time>2026-04-29T14:25:42.001Z</time></trkpt><trkpt lat="43.34900394198049" lon="11.910131021617241"><ele>278.0</ele><time>2026-04-29T14:25:43.001Z</time></trkpt><trkpt lat="43.348914518169565" lon="11.910269951810232"><ele>278.0</ele><time>2026-04-29T14:25:44.001Z</time></trkpt><trkpt lat="43.34883120738261" lon="11.910399522303303"><ele>278.0</ele><time>2026-04-29T14:25:45.001Z</time></trkpt><trkpt lat="43.348758848965566" lon="11.910509364526229"><ele>278.0</ele><time>2026-04-29T14:25:46.001Z</time></trkpt><trkpt lat="43.34868637169074" lon="11.910616326242808"><ele>278.0</ele><time>2026-04-29T14:25:47.001Z</time></trkpt><trkpt lat="43.34861367209403" lon="11.910718618414364"><ele>278.0</ele><time>2026-04-29T14:25:48.001Z</time></trkpt><trkpt lat="43.348532869229146" lon="11.910819003475838"><ele>278.8</ele><time>2026-04-29T14:25:49.001Z</time></trkpt><trkpt lat="43.34845026380708" lon="11.910926077858585"><ele>279.6</ele><time>2026-04-29T14:25:50.001Z</time></trkpt><trkpt lat="43.348366408986436" lon="11.911024541727192"><ele>280.4</ele><time>2026-04-29T14:25:51.001Z</time></trkpt><trkpt lat="43.34827919116474" lon="11.911102804758542"><ele>281.2</ele><time>2026-04-29T14:25:52.001Z</time></trkpt><trkpt lat="43.3481894712777" lon="11.91117833110419"><ele>282.0</ele><time>2026-04-29T14:25:53.001Z</time></trkpt><trkpt lat="43.34808819413614" lon="11.911248077790518"><ele>281.5</ele><time>2026-04-29T14:25:54.001Z</time></trkpt><trkpt lat="43.34797380321976" lon="11.911310598913767"><ele>281.0</ele><time>2026-04-29T14:25:55.001Z</time></trkpt><trkpt lat="43.34785341998338" lon="11.911370246917842"><ele>280.5</ele><time>2026-04-29T14:25:56.001Z</time></trkpt><trkpt lat="43.34773180212631" lon="11.91141681678289"><ele>280.0</ele><time>2026-04-29T14:25:57.001Z</time></trkpt><trkpt lat="43.347613087997836" lon="11.911462654134866"><ele>280.0</ele><time>2026-04-29T14:25:58.001Z</time></trkpt><trkpt lat="43.3475095409749" lon="11.911492597567571"><ele>280.0</ele><time>2026-04-29T14:25:59.001Z</time></trkpt><trkpt lat="43.34741249183803" lon="11.911507544387772"><ele>280.0</ele><time>2026-04-29T14:26:00.001Z</time></trkpt><trkpt lat="43.34735184011246" lon="11.91146418877418"><ele>280.0</ele><time>2026-04-29T14:26:02.001Z</time></trkpt><trkpt lat="43.347330268113" lon="11.911290808589456"><ele>280.0</ele><time>2026-04-29T14:26:03.001Z</time></trkpt><trkpt lat="43.347349276173986" lon="11.91119584594561"><ele>280.0</ele><time>2026-04-29T14:26:04.001Z</time></trkpt><trkpt lat="43.3473756240722" lon="11.911102674251064"><ele>280.0</ele><time>2026-04-29T14:26:05.001Z</time></trkpt><trkpt lat="43.34743040752029" lon="11.91102432558297"><ele>280.0</ele><time>2026-04-29T14:26:07.001Z</time></trkpt><trkpt lat="43.347393518623115" lon="11.911112238010382"><ele>280.0</ele><time>2026-04-29T14:26:11.001Z</time></trkpt><trkpt lat="43.34773341360661" lon="11.910902790411308"><ele>280.0</ele><time>2026-04-29T14:26:12.001Z</time></trkpt><trkpt lat="43.34734020160288" lon="11.911469298436373"><ele>280.0</ele><time>2026-04-29T14:26:13.001Z</time></trkpt><trkpt lat="43.34723446105656" lon="11.91152369796442"><ele>280.0</ele><time>2026-04-29T14:26:15.001Z</time></trkpt><trkpt lat="43.34718964573328" lon="11.911592011604764"><ele>280.0</ele><time>2026-04-29T14:26:18.001Z</time></trkpt><trkpt lat="43.34705617523295" lon="11.911690469749145"><ele>280.0</ele><time>2026-04-29T14:26:20.001Z</time></trkpt><trkpt lat="43.34693230719437" lon="11.911728399466885"><ele>279.8</ele><time>2026-04-29T14:26:21.001Z</time></trkpt><trkpt lat="43.34681948507422" lon="11.91173595594371"><ele>279.6</ele><time>2026-04-29T14:26:22.001Z</time></trkpt><trkpt lat="43.3467287420165" lon="11.911696489181658"><ele>279.4</ele><time>2026-04-29T14:26:23.001Z</time></trkpt><trkpt lat="43.3466494115548" lon="11.911619453096916"><ele>279.2</ele><time>2026-04-29T14:26:24.001Z</time></trkpt><trkpt lat="43.3465829117917" lon="11.911529285561608"><ele>279.0</ele><time>2026-04-29T14:26:25.001Z</time></trkpt><trkpt lat="43.34651875543118" lon="11.911439768437248"><ele>279.0</ele><time>2026-04-29T14:26:26.001Z</time></trkpt><trkpt lat="43.34644542625558" lon="11.911350926765175"><ele>279.0</ele><time>2026-04-29T14:26:27.001Z</time></trkpt><trkpt lat="43.346352361286534" lon="11.911250563159156"><ele>279.0</ele><time>2026-04-29T14:26:28.001Z</time></trkpt><trkpt lat="43.34624364417996" lon="11.911113083130049"><ele>279.0</ele><time>2026-04-29T14:26:29.001Z</time></trkpt><trkpt lat="43.346103600575525" lon="11.910951284422008"><ele>276.0</ele><time>2026-04-29T14:26:30.001Z</time></trkpt><trkpt lat="43.345951922034985" lon="11.91079448008008"><ele>273.0</ele><time>2026-04-29T14:26:31.001Z</time></trkpt><trkpt lat="43.345815486682476" lon="11.910616854010255"><ele>270.0</ele><time>2026-04-29T14:26:32.001Z</time></trkpt><trkpt lat="43.34567512399461" lon="11.910452392955408"><ele>269.6666666666667</ele><time>2026-04-29T14:26:33.001Z</time></trkpt><trkpt lat="43.34554422274489" lon="11.910289438957353"><ele>269.33333333333337</ele><time>2026-04-29T14:26:34.001Z</time></trkpt><trkpt lat="43.345417137654444" lon="11.910122074416744"><ele>269.0</ele><time>2026-04-29T14:26:35.001Z</time></trkpt><trkpt lat="43.34529828947935" lon="11.909961237791764"><ele>268.33333333333337</ele><time>2026-04-29T14:26:36.001Z</time></trkpt><trkpt lat="43.34518125465368" lon="11.9098051630832"><ele>267.6666666666667</ele><time>2026-04-29T14:26:37.001Z</time></trkpt><trkpt lat="43.3450663861806" lon="11.909652579088354"><ele>267.0</ele><time>2026-04-29T14:26:38.001Z</time></trkpt><trkpt lat="43.344951746897415" lon="11.909498764360025"><ele>267.0</ele><time>2026-04-29T14:26:39.001Z</time></trkpt><trkpt lat="43.344838249592215" lon="11.909346014770318"><ele>267.0</ele><time>2026-04-29T14:26:40.001Z</time></trkpt><trkpt lat="43.344722308664004" lon="11.909195568078827"><ele>267.0</ele><time>2026-04-29T14:26:41.001Z</time></trkpt><trkpt lat="43.34460740478723" lon="11.909048617966313"><ele>266.3333333333333</ele><time>2026-04-29T14:26:42.001Z</time></trkpt><trkpt lat="43.344492693014914" lon="11.908897680534942"><ele>265.66666666666663</ele><time>2026-04-29T14:26:43.001Z</time></trkpt><trkpt lat="43.34437847155547" lon="11.908747599323886"><ele>265.0</ele><time>2026-04-29T14:26:44.001Z</time></trkpt><trkpt lat="43.344272701134706" lon="11.90861139824955"><ele>265.0</ele><time>2026-04-29T14:26:45.001Z</time></trkpt><trkpt lat="43.344190187115196" lon="11.908495274609281"><ele>265.0</ele><time>2026-04-29T14:26:46.001Z</time></trkpt><trkpt lat="43.34413847123308" lon="11.90841054872351"><ele>265.0</ele><time>2026-04-29T14:26:47.002Z</time></trkpt><trkpt lat="43.34412041991695" lon="11.90832158836646"><ele>265.0</ele><time>2026-04-29T14:26:48.002Z</time></trkpt><trkpt lat="43.34419086326789" lon="11.908084394280737"><ele>264.75</ele><time>2026-04-29T14:26:50.002Z</time></trkpt><trkpt lat="43.34426410942642" lon="11.907950936550955"><ele>264.5</ele><time>2026-04-29T14:26:51.002Z</time></trkpt><trkpt lat="43.34435117764205" lon="11.907804735901719"><ele>264.25</ele><time>2026-04-29T14:26:52.002Z</time></trkpt><trkpt lat="43.34444286402582" lon="11.907637701902889"><ele>264.0</ele><time>2026-04-29T14:26:53.002Z</time></trkpt><trkpt lat="43.34453557867868" lon="11.907458593697328"><ele>263.6666666666667</ele><time>2026-04-29T14:26:53.999Z</time></trkpt><trkpt lat="43.344633046588605" lon="11.907273551436562"><ele>263.33333333333337</ele><time>2026-04-29T14:26:54.999Z</time></trkpt><trkpt lat="43.34472636210701" lon="11.907094379901707"><ele>263.0</ele><time>2026-04-29T14:26:55.999Z</time></trkpt><trkpt lat="43.34480469511751" lon="11.906924557287363"><ele>263.0</ele><time>2026-04-29T14:26:56.999Z</time></trkpt><trkpt lat="43.34485721448435" lon="11.906767216620121"><ele>263.0</ele><time>2026-04-29T14:26:57.999Z</time></trkpt><trkpt lat="43.34489038758262" lon="11.90661597997115"><ele>263.0</ele><time>2026-04-29T14:26:58.999Z</time></trkpt><trkpt lat="43.34494279946784" lon="11.906488375554112"><ele>263.0</ele><time>2026-04-29T14:26:59.999Z</time></trkpt><trkpt lat="43.345022671652096" lon="11.906381416875323"><ele>262.8</ele><time>2026-04-29T14:27:00.999Z</time></trkpt><trkpt lat="43.345087275966335" lon="11.906264553962998"><ele>262.6</ele><time>2026-04-29T14:27:01.999Z</time></trkpt><trkpt lat="43.34510724266645" lon="11.906133420333454"><ele>262.4</ele><time>2026-04-29T14:27:02.999Z</time></trkpt><trkpt lat="43.34507988935714" lon="11.906010546623518"><ele>262.2</ele><time>2026-04-29T14:27:03.999Z</time></trkpt><trkpt lat="43.34501335150479" lon="11.905909293540974"><ele>262.0</ele><time>2026-04-29T14:27:04.999Z</time></trkpt><trkpt lat="43.344922914297044" lon="11.905843715727608"><ele>262.0</ele><time>2026-04-29T14:27:05.999Z</time></trkpt><trkpt lat="43.34481965350085" lon="11.90583938775663"><ele>262.0</ele><time>2026-04-29T14:27:06.999Z</time></trkpt><trkpt lat="43.34472692922812" lon="11.905895114571951"><ele>262.0</ele><time>2026-04-29T14:27:07.999Z</time></trkpt><trkpt lat="43.34465501139938" lon="11.905995818906785"><ele>262.0</ele><time>2026-04-29T14:27:08.999Z</time></trkpt><trkpt lat="43.34459142382342" lon="11.906126165904903"><ele>262.0</ele><time>2026-04-29T14:27:09.999Z</time></trkpt><trkpt lat="43.344502572177106" lon="11.906217899393974"><ele>262.0</ele><time>2026-04-29T14:27:10.999Z</time></trkpt><trkpt lat="43.34438462010639" lon="11.906247134619004"><ele>262.0</ele><time>2026-04-29T14:27:11.999Z</time></trkpt><trkpt lat="43.344263382376255" lon="11.906170963129117"><ele>262.0</ele><time>2026-04-29T14:27:12.999Z</time></trkpt><trkpt lat="43.34412352738823" lon="11.906106493127304"><ele>262.0</ele><time>2026-04-29T14:27:13.999Z</time></trkpt><trkpt lat="43.343982457029796" lon="11.906054591035316"><ele>261.3333333333333</ele><time>2026-04-29T14:27:14.999Z</time></trkpt><trkpt lat="43.343839423413584" lon="11.905986069664078"><ele>260.6666666666667</ele><time>2026-04-29T14:27:15.999Z</time></trkpt><trkpt lat="43.34369161739792" lon="11.905918266129225"><ele>260.0</ele><time>2026-04-29T14:27:16.999Z</time></trkpt><trkpt lat="43.343538401468884" lon="11.905850308616406"><ele>260.0</ele><time>2026-04-29T14:27:17.999Z</time></trkpt><trkpt lat="43.34338704318229" lon="11.90577998427776"><ele>260.0</ele><time>2026-04-29T14:27:18.999Z</time></trkpt><trkpt lat="43.34324598405234" lon="11.905717199239321"><ele>260.0</ele><time>2026-04-29T14:27:20Z</time></trkpt><trkpt lat="43.343117412224025" lon="11.905669515104636"><ele>260.0</ele><time>2026-04-29T14:27:21Z</time></trkpt><trkpt lat="43.3429954565524" lon="11.905624329470545"><ele>260.0</ele><time>2026-04-29T14:27:22Z</time></trkpt><trkpt lat="43.34287841203167" lon="11.905551920096903"><ele>260.0</ele><time>2026-04-29T14:27:23Z</time></trkpt><trkpt lat="43.34274800556442" lon="11.90548980936092"><ele>260.0</ele><time>2026-04-29T14:27:24Z</time></trkpt><trkpt lat="43.34261088692592" lon="11.905403636712707"><ele>260.0</ele><time>2026-04-29T14:27:25Z</time></trkpt><trkpt lat="43.342482610708096" lon="11.905289365659442"><ele>260.0</ele><time>2026-04-29T14:27:26Z</time></trkpt><trkpt lat="43.34236895675474" lon="11.90515459282389"><ele>260.0</ele><time>2026-04-29T14:27:27Z</time></trkpt><trkpt lat="43.342261928376075" lon="11.905012768806886"><ele>260.0</ele><time>2026-04-29T14:27:28Z</time></trkpt><trkpt lat="43.34218925457419" lon="11.904852748311457"><ele>260.0</ele><time>2026-04-29T14:27:29Z</time></trkpt><trkpt lat="43.34212253243298" lon="11.904712777411167"><ele>259.25</ele><time>2026-04-29T14:27:30Z</time></trkpt><trkpt lat="43.342048313251425" lon="11.904591260859377"><ele>258.5</ele><time>2026-04-29T14:27:31Z</time></trkpt><trkpt lat="43.34195778503883" lon="11.904488707493526"><ele>257.75</ele><time>2026-04-29T14:27:32Z</time></trkpt><trkpt lat="43.34185834700214" lon="11.904408042553033"><ele>257.0</ele><time>2026-04-29T14:27:33Z</time></trkpt><trkpt lat="43.34176570456143" lon="11.90434699058429"><ele>257.0</ele><time>2026-04-29T14:27:34Z</time></trkpt><trkpt lat="43.341680497393114" lon="11.904300039592426"><ele>257.0</ele><time>2026-04-29T14:27:35Z</time></trkpt><trkpt lat="43.34159751639397" lon="11.904260606869887"><ele>257.0</ele><time>2026-04-29T14:27:36Z</time></trkpt><trkpt lat="43.34152072990631" lon="11.904224450510434"><ele>257.0</ele><time>2026-04-29T14:27:37Z</time></trkpt><trkpt lat="43.34145158142594" lon="11.904152473887443"><ele>257.0</ele><time>2026-04-29T14:27:38Z</time></trkpt><trkpt lat="43.34141171588839" lon="11.904031786406037"><ele>257.0</ele><time>2026-04-29T14:27:39Z</time></trkpt><trkpt lat="43.34140733125016" lon="11.903882315011229"><ele>257.0</ele><time>2026-04-29T14:27:40Z</time></trkpt><trkpt lat="43.3414212615876" lon="11.903722278792394"><ele>257.0</ele><time>2026-04-29T14:27:41Z</time></trkpt><trkpt lat="43.341435584142395" lon="11.903564403544172"><ele>257.0</ele><time>2026-04-29T14:27:42Z</time></trkpt><trkpt lat="43.34144217063689" lon="11.903411085713898"><ele>257.0</ele><time>2026-04-29T14:27:43Z</time></trkpt><trkpt lat="43.34143123416889" lon="11.903266467564848"><ele>256.75</ele><time>2026-04-29T14:27:44Z</time></trkpt><trkpt lat="43.34140694463812" lon="11.903124272971905"><ele>256.5</ele><time>2026-04-29T14:27:45Z</time></trkpt><trkpt lat="43.341365143369906" lon="11.902977766180664"><ele>256.25</ele><time>2026-04-29T14:27:46Z</time></trkpt><trkpt lat="43.34129781255368" lon="11.902829231593998"><ele>256.0</ele><time>2026-04-29T14:27:47Z</time></trkpt><trkpt lat="43.34119551129715" lon="11.902659758429397"><ele>255.66666666666666</ele><time>2026-04-29T14:27:48Z</time></trkpt><trkpt lat="43.34109811508992" lon="11.902467599791345"><ele>255.33333333333331</ele><time>2026-04-29T14:27:49Z</time></trkpt><trkpt lat="43.34099231558599" lon="11.90231064581672"><ele>255.0</ele><time>2026-04-29T14:27:50Z</time></trkpt><trkpt lat="43.34090425881164" lon="11.902157620796398"><ele>255.0</ele><time>2026-04-29T14:27:51Z</time></trkpt><trkpt lat="43.34081105931452" lon="11.902008418095425"><ele>255.0</ele><time>2026-04-29T14:27:52Z</time></trkpt><trkpt lat="43.34071672706524" lon="11.90182251676875"><ele>255.0</ele><time>2026-04-29T14:27:53Z</time></trkpt><trkpt lat="43.34059979153278" lon="11.90162392547412"><ele>254.33333333333331</ele><time>2026-04-29T14:27:54Z</time></trkpt><trkpt lat="43.34046442457404" lon="11.901429237325868"><ele>253.66666666666666</ele><time>2026-04-29T14:27:55Z</time></trkpt><trkpt lat="43.34034001917583" lon="11.90120686211109"><ele>253.0</ele><time>2026-04-29T14:27:56.001Z</time></trkpt><trkpt lat="43.34020756446025" lon="11.900978442396498"><ele>253.33333333333331</ele><time>2026-04-29T14:27:57.001Z</time></trkpt><trkpt lat="43.340069046049315" lon="11.90074863607711"><ele>253.66666666666669</ele><time>2026-04-29T14:27:58.001Z</time></trkpt><trkpt lat="43.339944225047844" lon="11.900502335426246"><ele>254.0</ele><time>2026-04-29T14:27:59.001Z</time></trkpt><trkpt lat="43.339808053366994" lon="11.900261545323191"><ele>253.5</ele><time>2026-04-29T14:28:00.001Z</time></trkpt><trkpt lat="43.33966040509431" lon="11.900028070188576"><ele>253.0</ele><time>2026-04-29T14:28:01.001Z</time></trkpt><trkpt lat="43.33953236519643" lon="11.899772193489573"><ele>253.0</ele><time>2026-04-29T14:28:02.001Z</time></trkpt><trkpt lat="43.33940272198245" lon="11.899509070344477"><ele>253.0</ele><time>2026-04-29T14:28:03.001Z</time></trkpt><trkpt lat="43.33927679457186" lon="11.899242216382163"><ele>253.5</ele><time>2026-04-29T14:28:04.001Z</time></trkpt><trkpt lat="43.33916200380577" lon="11.898962433273788"><ele>254.0</ele><time>2026-04-29T14:28:05.001Z</time></trkpt><trkpt lat="43.339065389982345" lon="11.89867164965406"><ele>253.5</ele><time>2026-04-29T14:28:06.001Z</time></trkpt><trkpt lat="43.33899176132685" lon="11.8983605600573"><ele>253.0</ele><time>2026-04-29T14:28:07.001Z</time></trkpt><trkpt lat="43.3389324354308" lon="11.898062540121995"><ele>252.66666666666666</ele><time>2026-04-29T14:28:08.001Z</time></trkpt><trkpt lat="43.338875710130964" lon="11.897772021378318"><ele>252.33333333333331</ele><time>2026-04-29T14:28:09.001Z</time></trkpt><trkpt lat="43.33881886577615" lon="11.897495633713374"><ele>252.0</ele><time>2026-04-29T14:28:10.001Z</time></trkpt><trkpt lat="43.338755855403235" lon="11.897229624526608"><ele>252.0</ele><time>2026-04-29T14:28:11.001Z</time></trkpt><trkpt lat="43.33868968993426" lon="11.896965097039475"><ele>252.0</ele><time>2026-04-29T14:28:12.001Z</time></trkpt><trkpt lat="43.3386070631632" lon="11.896711898635942"><ele>252.0</ele><time>2026-04-29T14:28:13.001Z</time></trkpt><trkpt lat="43.33850835170344" lon="11.896464037149217"><ele>252.0</ele><time>2026-04-29T14:28:14.001Z</time></trkpt><trkpt lat="43.33840311084595" lon="11.896222075618633"><ele>252.0</ele><time>2026-04-29T14:28:15.001Z</time></trkpt><trkpt lat="43.33829711202061" lon="11.89597433711442"><ele>252.0</ele><time>2026-04-29T14:28:16.001Z</time></trkpt><trkpt lat="43.338191746193985" lon="11.895719637973265"><ele>252.33333333333331</ele><time>2026-04-29T14:28:17.001Z</time></trkpt><trkpt lat="43.33809025534228" lon="11.895460826715965"><ele>252.66666666666666</ele><time>2026-04-29T14:28:18.001Z</time></trkpt><trkpt lat="43.33799309784304" lon="11.89519355938353"><ele>253.0</ele><time>2026-04-29T14:28:19.001Z</time></trkpt><trkpt lat="43.337903861936965" lon="11.894917408594626"><ele>253.0</ele><time>2026-04-29T14:28:20.001Z</time></trkpt><trkpt lat="43.33782718558518" lon="11.894633936579053"><ele>253.0</ele><time>2026-04-29T14:28:21.001Z</time></trkpt><trkpt lat="43.33776372700435" lon="11.894343804284498"><ele>253.0</ele><time>2026-04-29T14:28:22.001Z</time></trkpt><trkpt lat="43.33769888166295" lon="11.894051370863886"><ele>253.0</ele><time>2026-04-29T14:28:23.001Z</time></trkpt><trkpt lat="43.33763127001508" lon="11.893762260522102"><ele>253.0</ele><time>2026-04-29T14:28:24.001Z</time></trkpt><trkpt lat="43.337560285345795" lon="11.893473663144128"><ele>253.0</ele><time>2026-04-29T14:28:25.001Z</time></trkpt><trkpt lat="43.337489128315156" lon="11.893185817522534"><ele>253.0</ele><time>2026-04-29T14:28:26.001Z</time></trkpt><trkpt lat="43.33742125780466" lon="11.892897540034372"><ele>253.0</ele><time>2026-04-29T14:28:27.001Z</time></trkpt><trkpt lat="43.337355407427744" lon="11.892607024497412"><ele>253.0</ele><time>2026-04-29T14:28:28.001Z</time></trkpt><trkpt lat="43.33728920177018" lon="11.892327165152214"><ele>252.66666666666666</ele><time>2026-04-29T14:28:29.001Z</time></trkpt><trkpt lat="43.33722502055734" lon="11.892058589045694"><ele>252.33333333333331</ele><time>2026-04-29T14:28:30.001Z</time></trkpt><trkpt lat="43.33717238781972" lon="11.891792736055837"><ele>252.0</ele><time>2026-04-29T14:28:31.001Z</time></trkpt><trkpt lat="43.33713357629284" lon="11.891527652088943"><ele>251.66666666666669</ele><time>2026-04-29T14:28:32.001Z</time></trkpt><trkpt lat="43.337100358836494" lon="11.891253064068895"><ele>251.33333333333334</ele><time>2026-04-29T14:28:33.001Z</time></trkpt><trkpt lat="43.33707191520838" lon="11.890972670196952"><ele>251.0</ele><time>2026-04-29T14:28:34.001Z</time></trkpt><trkpt lat="43.33705215218225" lon="11.89071865169789"><ele>251.0</ele><time>2026-04-29T14:28:35.001Z</time></trkpt><trkpt lat="43.337026114368754" lon="11.890484301924477"><ele>251.0</ele><time>2026-04-29T14:28:36.001Z</time></trkpt><trkpt lat="43.33697555227676" lon="11.890266655579564"><ele>251.0</ele><time>2026-04-29T14:28:37.001Z</time></trkpt><trkpt lat="43.33690421798455" lon="11.890053562052048"><ele>251.0</ele><time>2026-04-29T14:28:38.001Z</time></trkpt><trkpt lat="43.336816970184415" lon="11.889842060986428"><ele>251.0</ele><time>2026-04-29T14:28:39.001Z</time></trkpt><trkpt lat="43.33672555058159" lon="11.889644369402458"><ele>251.0</ele><time>2026-04-29T14:28:40.001Z</time></trkpt><trkpt lat="43.33663710705014" lon="11.889454989984472"><ele>251.0</ele><time>2026-04-29T14:28:41.001Z</time></trkpt><trkpt lat="43.33655812870351" lon="11.88928368811018"><ele>251.0</ele><time>2026-04-29T14:28:42.001Z</time></trkpt><trkpt lat="43.33648825022183" lon="11.889123798640577"><ele>251.0</ele><time>2026-04-29T14:28:43.001Z</time></trkpt><trkpt lat="43.33642136251855" lon="11.888964937898514"><ele>251.0</ele><time>2026-04-29T14:28:44.001Z</time></trkpt><trkpt lat="43.336354062932394" lon="11.888807182206502"><ele>250.75</ele><time>2026-04-29T14:28:45.001Z</time></trkpt><trkpt lat="43.336288918430355" lon="11.88864536909193"><ele>250.5</ele><time>2026-04-29T14:28:46.001Z</time></trkpt><trkpt lat="43.336211175309565" lon="11.888494215588794"><ele>250.25</ele><time>2026-04-29T14:28:47.002Z</time></trkpt><trkpt lat="43.33614300830107" lon="11.888338405798574"><ele>250.0</ele><time>2026-04-29T14:28:48.002Z</time></trkpt><trkpt lat="43.3360764080192" lon="11.888178783746643"><ele>250.0</ele><time>2026-04-29T14:28:49.002Z</time></trkpt><trkpt lat="43.33600995424361" lon="11.888013619027078"><ele>250.0</ele><time>2026-04-29T14:28:50.002Z</time></trkpt><trkpt lat="43.335966646538395" lon="11.887816907505302"><ele>250.0</ele><time>2026-04-29T14:28:51.002Z</time></trkpt><trkpt lat="43.335920404469455" lon="11.887621494963424"><ele>250.0</ele><time>2026-04-29T14:28:52.002Z</time></trkpt><trkpt lat="43.33587311822019" lon="11.887412920476983"><ele>250.0</ele><time>2026-04-29T14:28:53.002Z</time></trkpt><trkpt lat="43.335842772752464" lon="11.887182476955017"><ele>250.0</ele><time>2026-04-29T14:28:54.002Z</time></trkpt><trkpt lat="43.33581202803356" lon="11.886933174067464"><ele>250.0</ele><time>2026-04-29T14:28:55.002Z</time></trkpt><trkpt lat="43.33577568637866" lon="11.886661094323658"><ele>250.0</ele><time>2026-04-29T14:28:56.002Z</time></trkpt><trkpt lat="43.335740063811556" lon="11.88636857462978"><ele>250.0</ele><time>2026-04-29T14:28:57.002Z</time></trkpt><trkpt lat="43.33570391472727" lon="11.886067554379231"><ele>250.0</ele><time>2026-04-29T14:28:58.002Z</time></trkpt><trkpt lat="43.33567931652343" lon="11.885776868191327"><ele>250.33333333333331</ele><time>2026-04-29T14:28:59.002Z</time></trkpt><trkpt lat="43.3356528439394" lon="11.885481958214699"><ele>250.66666666666669</ele><time>2026-04-29T14:28:59.999Z</time></trkpt><trkpt lat="43.33563012439058" lon="11.885184819401665"><ele>251.0</ele><time>2026-04-29T14:29:00.999Z</time></trkpt><trkpt lat="43.33560785964452" lon="11.884894796446243"><ele>251.0</ele><time>2026-04-29T14:29:01.999Z</time></trkpt><trkpt lat="43.3355830274846" lon="11.884610383059783"><ele>251.0</ele><time>2026-04-29T14:29:02.999Z</time></trkpt><trkpt lat="43.335550808697896" lon="11.884337920896964"><ele>251.0</ele><time>2026-04-29T14:29:03.999Z</time></trkpt><trkpt lat="43.3355170481409" lon="11.884066540682495"><ele>251.33333333333334</ele><time>2026-04-29T14:29:04.999Z</time></trkpt><trkpt lat="43.33548457545082" lon="11.883801926229415"><ele>251.66666666666669</ele><time>2026-04-29T14:29:05.999Z</time></trkpt><trkpt lat="43.33545563555165" lon="11.883543559541703"><ele>252.0</ele><time>2026-04-29T14:29:06.999Z</time></trkpt><trkpt lat="43.335427549502185" lon="11.88329687927114"><ele>252.0</ele><time>2026-04-29T14:29:07.999Z</time></trkpt><trkpt lat="43.335404525423975" lon="11.883074970380957"><ele>252.0</ele><time>2026-04-29T14:29:08.999Z</time></trkpt><trkpt lat="43.33539120142148" lon="11.882909716464976"><ele>252.0</ele><time>2026-04-29T14:29:09.999Z</time></trkpt><trkpt lat="43.335377520221435" lon="11.882735823644317"><ele>252.0</ele><time>2026-04-29T14:29:10.999Z</time></trkpt><trkpt lat="43.33536337853712" lon="11.882584882476118"><ele>252.6</ele><time>2026-04-29T14:29:11.999Z</time></trkpt><trkpt lat="43.3353429788907" lon="11.88244891551266"><ele>253.2</ele><time>2026-04-29T14:29:12.999Z</time></trkpt><trkpt lat="43.33533389987156" lon="11.882335240966098"><ele>253.8</ele><time>2026-04-29T14:29:13.999Z</time></trkpt><trkpt lat="43.33533390968399" lon="11.882202902607204"><ele>254.4</ele><time>2026-04-29T14:29:15.999Z</time></trkpt><trkpt lat="43.33533628981598" lon="11.882076579257935"><ele>255.0</ele><time>2026-04-29T14:29:37Z</time></trkpt><trkpt lat="43.33533628593664" lon="11.881959655278738"><ele>255.0</ele><time>2026-04-29T14:29:38Z</time></trkpt><trkpt lat="43.33532047206367" lon="11.881814747436776"><ele>255.0</ele><time>2026-04-29T14:29:39Z</time></trkpt><trkpt lat="43.335291274218896" lon="11.881653663782588"><ele>255.0</ele><time>2026-04-29T14:29:40Z</time></trkpt><trkpt lat="43.3352493767316" lon="11.88148134904919"><ele>255.0</ele><time>2026-04-29T14:29:41Z</time></trkpt><trkpt lat="43.33520276084956" lon="11.881290119346746"><ele>255.0</ele><time>2026-04-29T14:29:42Z</time></trkpt><trkpt lat="43.3351636925524" lon="11.881086659887801"><ele>255.0</ele><time>2026-04-29T14:29:43Z</time></trkpt><trkpt lat="43.335132360706346" lon="11.88085693079402"><ele>255.0</ele><time>2026-04-29T14:29:44Z</time></trkpt><trkpt lat="43.33511336158867" lon="11.880623862450927"><ele>255.0</ele><time>2026-04-29T14:29:45Z</time></trkpt><trkpt lat="43.3351060474478" lon="11.880371368646442"><ele>255.0</ele><time>2026-04-29T14:29:46Z</time></trkpt><trkpt lat="43.335101938496265" lon="11.880111884955424"><ele>255.0</ele><time>2026-04-29T14:29:47Z</time></trkpt><trkpt lat="43.33510449821652" lon="11.879841912637"><ele>255.0</ele><time>2026-04-29T14:29:48Z</time></trkpt><trkpt lat="43.335104900060706" lon="11.8795605858207"><ele>255.0</ele><time>2026-04-29T14:29:49Z</time></trkpt><trkpt lat="43.33509966197718" lon="11.879264566991298"><ele>255.0</ele><time>2026-04-29T14:29:50Z</time></trkpt><trkpt lat="43.33509459531677" lon="11.878964487570878"><ele>255.0</ele><time>2026-04-29T14:29:51Z</time></trkpt><trkpt lat="43.335089168019444" lon="11.878659590748365"><ele>255.0</ele><time>2026-04-29T14:29:52Z</time></trkpt><trkpt lat="43.33508332741441" lon="11.878353188220075"><ele>255.0</ele><time>2026-04-29T14:29:53.001Z</time></trkpt><trkpt lat="43.33507645347959" lon="11.878046435633097"><ele>254.5</ele><time>2026-04-29T14:29:54.001Z</time></trkpt><trkpt lat="43.3350699115127" lon="11.877739081027192"><ele>254.0</ele><time>2026-04-29T14:29:55.001Z</time></trkpt><trkpt lat="43.33506287703285" lon="11.877426801585145"><ele>254.0</ele><time>2026-04-29T14:29:56.001Z</time></trkpt><trkpt lat="43.33505551987964" lon="11.877114608142575"><ele>254.0</ele><time>2026-04-29T14:29:57.001Z</time></trkpt><trkpt lat="43.33504985164392" lon="11.876800833197017"><ele>254.5</ele><time>2026-04-29T14:29:58.001Z</time></trkpt><trkpt lat="43.33504291546324" lon="11.87648071407396"><ele>255.0</ele><time>2026-04-29T14:29:59.001Z</time></trkpt><trkpt lat="43.33503859104269" lon="11.876165597699783"><ele>255.0</ele><time>2026-04-29T14:30:00.001Z</time></trkpt><trkpt lat="43.335038331795715" lon="11.875863760655356"><ele>255.0</ele><time>2026-04-29T14:30:01.001Z</time></trkpt><trkpt lat="43.335036102608434" lon="11.875578649527574"><ele>255.0</ele><time>2026-04-29T14:30:02.001Z</time></trkpt><trkpt lat="43.335038371028595" lon="11.875299458000448"><ele>254.33333333333331</ele><time>2026-04-29T14:30:03.001Z</time></trkpt><trkpt lat="43.33504438067644" lon="11.875035038351776"><ele>253.66666666666666</ele><time>2026-04-29T14:30:04.001Z</time></trkpt><trkpt lat="43.335059765687355" lon="11.874777696434194"><ele>253.0</ele><time>2026-04-29T14:30:05.001Z</time></trkpt><trkpt lat="43.335086515704546" lon="11.874538728294123"><ele>253.0</ele><time>2026-04-29T14:30:06.001Z</time></trkpt><trkpt lat="43.335115388718016" lon="11.874297465853711"><ele>253.0</ele><time>2026-04-29T14:30:07.001Z</time></trkpt><trkpt lat="43.33514573535177" lon="11.874058591851064"><ele>253.0</ele><time>2026-04-29T14:30:08.001Z</time></trkpt><trkpt lat="43.33517329238407" lon="11.87381834437271"><ele>253.0</ele><time>2026-04-29T14:30:09.001Z</time></trkpt><trkpt lat="43.33520072218078" lon="11.873571840569918"><ele>253.0</ele><time>2026-04-29T14:30:10.001Z</time></trkpt><trkpt lat="43.33522950406494" lon="11.873314900939661"><ele>253.0</ele><time>2026-04-29T14:30:11.001Z</time></trkpt><trkpt lat="43.33525619941297" lon="11.873054418512002"><ele>253.33333333333331</ele><time>2026-04-29T14:30:12.001Z</time></trkpt><trkpt lat="43.3352730244184" lon="11.872784917444806"><ele>253.66666666666669</ele><time>2026-04-29T14:30:13.001Z</time></trkpt><trkpt lat="43.33526422683453" lon="11.87251009584766"><ele>254.0</ele><time>2026-04-29T14:30:14.001Z</time></trkpt><trkpt lat="43.33522324746977" lon="11.87222508169677"><ele>254.66666666666669</ele><time>2026-04-29T14:30:15.001Z</time></trkpt><trkpt lat="43.3351584882848" lon="11.871935690124172"><ele>255.33333333333331</ele><time>2026-04-29T14:30:16.001Z</time></trkpt><trkpt lat="43.335087156941555" lon="11.871651029033709"><ele>256.0</ele><time>2026-04-29T14:30:17.001Z</time></trkpt><trkpt lat="43.33501677321839" lon="11.871355812112613"><ele>256.0</ele><time>2026-04-29T14:30:18.001Z</time></trkpt><trkpt lat="43.334943265107576" lon="11.871056089759977"><ele>256.0</ele><time>2026-04-29T14:30:19.001Z</time></trkpt><trkpt lat="43.334861162986094" lon="11.870752124468678"><ele>255.5</ele><time>2026-04-29T14:30:20.001Z</time></trkpt><trkpt lat="43.33476925399192" lon="11.870451787799201"><ele>255.0</ele><time>2026-04-29T14:30:21.001Z</time></trkpt><trkpt lat="43.33466459061436" lon="11.870155182513031"><ele>256.0</ele><time>2026-04-29T14:30:22.001Z</time></trkpt><trkpt lat="43.3345527316144" lon="11.869853666907689"><ele>257.0</ele><time>2026-04-29T14:30:23.001Z</time></trkpt><trkpt lat="43.33444445916877" lon="11.869555780823957"><ele>256.5</ele><time>2026-04-29T14:30:24.001Z</time></trkpt><trkpt lat="43.334336331221955" lon="11.869252632502114"><ele>256.0</ele><time>2026-04-29T14:30:25.001Z</time></trkpt><trkpt lat="43.334226212458844" lon="11.868945949628895"><ele>256.0</ele><time>2026-04-29T14:30:26.001Z</time></trkpt><trkpt lat="43.334117854798535" lon="11.868644772803307"><ele>256.0</ele><time>2026-04-29T14:30:27.001Z</time></trkpt><trkpt lat="43.334008410969126" lon="11.868340555492729"><ele>256.0</ele><time>2026-04-29T14:30:28.001Z</time></trkpt><trkpt lat="43.33389976806519" lon="11.868040667240958"><ele>256.0</ele><time>2026-04-29T14:30:29.001Z</time></trkpt><trkpt lat="43.333791369366324" lon="11.86773652251715"><ele>257.5</ele><time>2026-04-29T14:30:30.001Z</time></trkpt><trkpt lat="43.33368357120635" lon="11.867439836968812"><ele>259.0</ele><time>2026-04-29T14:30:31.001Z</time></trkpt><trkpt lat="43.3335750256596" lon="11.86714418645393"><ele>259.0</ele><time>2026-04-29T14:30:32.001Z</time></trkpt><trkpt lat="43.33346563912098" lon="11.866842403621423"><ele>259.0</ele><time>2026-04-29T14:30:33.001Z</time></trkpt><trkpt lat="43.33335791527693" lon="11.8665439724832"><ele>259.5</ele><time>2026-04-29T14:30:34.001Z</time></trkpt><trkpt lat="43.33324842962799" lon="11.866243955821679"><ele>260.0</ele><time>2026-04-29T14:30:35.002Z</time></trkpt><trkpt lat="43.33313945584102" lon="11.865944642049552"><ele>259.5</ele><time>2026-04-29T14:30:36.002Z</time></trkpt><trkpt lat="43.33303076178705" lon="11.865644399328943"><ele>259.0</ele><time>2026-04-29T14:30:37.002Z</time></trkpt><trkpt lat="43.33292147495676" lon="11.865344068142688"><ele>259.0</ele><time>2026-04-29T14:30:38.002Z</time></trkpt><trkpt lat="43.33281282127052" lon="11.865042368652201"><ele>259.0</ele><time>2026-04-29T14:30:39.002Z</time></trkpt><trkpt lat="43.33270470712502" lon="11.864744788479943"><ele>259.0</ele><time>2026-04-29T14:30:40.002Z</time></trkpt><trkpt lat="43.33259383669381" lon="11.864442997272347"><ele>259.0</ele><time>2026-04-29T14:30:41.002Z</time></trkpt><trkpt lat="43.33248240951862" lon="11.864145851135538"><ele>259.5</ele><time>2026-04-29T14:30:42.002Z</time></trkpt><trkpt lat="43.33236999225467" lon="11.863849870882287"><ele>260.0</ele><time>2026-04-29T14:30:43.002Z</time></trkpt><trkpt lat="43.33225760788412" lon="11.863550068819418"><ele>260.0</ele><time>2026-04-29T14:30:44.002Z</time></trkpt><trkpt lat="43.3321442264891" lon="11.863254729600309"><ele>260.0</ele><time>2026-04-29T14:30:45.002Z</time></trkpt><trkpt lat="43.332030451689675" lon="11.862957985391056"><ele>260.0</ele><time>2026-04-29T14:30:46.002Z</time></trkpt><trkpt lat="43.331914189353256" lon="11.862660102376324"><ele>260.0</ele><time>2026-04-29T14:30:47.002Z</time></trkpt><trkpt lat="43.33179939331458" lon="11.862364318250707"><ele>260.0</ele><time>2026-04-29T14:30:48.002Z</time></trkpt><trkpt lat="43.33168587055595" lon="11.862070153054487"><ele>260.0</ele><time>2026-04-29T14:30:49.002Z</time></trkpt><trkpt lat="43.33157172517132" lon="11.861770853704147"><ele>260.0</ele><time>2026-04-29T14:30:50.002Z</time></trkpt><trkpt lat="43.331454359809" lon="11.861474595752227"><ele>260.0</ele><time>2026-04-29T14:30:51.002Z</time></trkpt><trkpt lat="43.33133898611992" lon="11.861175708259504"><ele>260.5</ele><time>2026-04-29T14:30:52.002Z</time></trkpt><trkpt lat="43.331223473489466" lon="11.860884556660046"><ele>261.0</ele><time>2026-04-29T14:30:53.002Z</time></trkpt><trkpt lat="43.33110775786007" lon="11.86058112745157"><ele>261.0</ele><time>2026-04-29T14:30:54.002Z</time></trkpt><trkpt lat="43.33099259297111" lon="11.860284573211011"><ele>261.0</ele><time>2026-04-29T14:30:55.002Z</time></trkpt><trkpt lat="43.330878239547914" lon="11.85998655561217"><ele>261.0</ele><time>2026-04-29T14:30:56.002Z</time></trkpt><trkpt lat="43.330762046657846" lon="11.859687333303834"><ele>261.0</ele><time>2026-04-29T14:30:57.002Z</time></trkpt><trkpt lat="43.3306449317006" lon="11.85939072161631"><ele>261.5</ele><time>2026-04-29T14:30:58.002Z</time></trkpt><trkpt lat="43.33052743982453" lon="11.859092864975564"><ele>262.0</ele><time>2026-04-29T14:30:59.002Z</time></trkpt><trkpt lat="43.330413073978924" lon="11.858796198466887"><ele>262.0</ele><time>2026-04-29T14:31:00.002Z</time></trkpt><trkpt lat="43.33029817676373" lon="11.858502001906304"><ele>262.0</ele><time>2026-04-29T14:31:01.002Z</time></trkpt><trkpt lat="43.33018357703031" lon="11.858195495559798"><ele>262.0</ele><time>2026-04-29T14:31:02.002Z</time></trkpt><trkpt lat="43.330070066199234" lon="11.85789755417754"><ele>262.0</ele><time>2026-04-29T14:31:03.002Z</time></trkpt><trkpt lat="43.329956903900154" lon="11.85760338257221"><ele>263.5</ele><time>2026-04-29T14:31:04.002Z</time></trkpt><trkpt lat="43.32984544035766" lon="11.857307931385368"><ele>265.0</ele><time>2026-04-29T14:31:05.002Z</time></trkpt><trkpt lat="43.32973124811334" lon="11.857013911541323"><ele>265.0</ele><time>2026-04-29T14:31:06Z</time></trkpt><trkpt lat="43.32961967190654" lon="11.85671981219084"><ele>265.0</ele><time>2026-04-29T14:31:07Z</time></trkpt><trkpt lat="43.32950972006254" lon="11.856424262373773"><ele>265.0</ele><time>2026-04-29T14:31:08Z</time></trkpt><trkpt lat="43.32939831424206" lon="11.856133087408498"><ele>265.0</ele><time>2026-04-29T14:31:09Z</time></trkpt><trkpt lat="43.32928891852446" lon="11.85584166843341"><ele>265.5</ele><time>2026-04-29T14:31:10Z</time></trkpt><trkpt lat="43.329179284667795" lon="11.855545102353377"><ele>266.0</ele><time>2026-04-29T14:31:11Z</time></trkpt><trkpt lat="43.32906862105011" lon="11.855253247890216"><ele>266.5</ele><time>2026-04-29T14:31:12Z</time></trkpt><trkpt lat="43.32895815491487" lon="11.85496033757345"><ele>267.0</ele><time>2026-04-29T14:31:13Z</time></trkpt><trkpt lat="43.32884751792497" lon="11.854670645660017"><ele>266.0</ele><time>2026-04-29T14:31:14Z</time></trkpt><trkpt lat="43.3287397917651" lon="11.854374989799393"><ele>265.0</ele><time>2026-04-29T14:31:15Z</time></trkpt><trkpt lat="43.32862730509723" lon="11.854085868781079"><ele>265.0</ele><time>2026-04-29T14:31:16Z</time></trkpt><trkpt lat="43.328516747554254" lon="11.853785646833574"><ele>265.0</ele><time>2026-04-29T14:31:17Z</time></trkpt><trkpt lat="43.32840621028458" lon="11.853488251184704"><ele>265.0</ele><time>2026-04-29T14:31:18Z</time></trkpt><trkpt lat="43.328294844625546" lon="11.853188964495413"><ele>265.0</ele><time>2026-04-29T14:31:19Z</time></trkpt><trkpt lat="43.32818224919454" lon="11.85289290515838"><ele>265.5</ele><time>2026-04-29T14:31:20Z</time></trkpt><trkpt lat="43.32807420808295" lon="11.852597416281451"><ele>266.0</ele><time>2026-04-29T14:31:21Z</time></trkpt><trkpt lat="43.327966290046994" lon="11.852290221832828"><ele>266.0</ele><time>2026-04-29T14:31:22Z</time></trkpt><trkpt lat="43.32785919848732" lon="11.851993191387253"><ele>266.0</ele><time>2026-04-29T14:31:23Z</time></trkpt><trkpt lat="43.32775448655784" lon="11.851689309755743"><ele>266.0</ele><time>2026-04-29T14:31:24Z</time></trkpt><trkpt lat="43.32765227336366" lon="11.851386915447227"><ele>266.0</ele><time>2026-04-29T14:31:25Z</time></trkpt><trkpt lat="43.3275508388267" lon="11.851082782272643"><ele>266.5</ele><time>2026-04-29T14:31:26Z</time></trkpt><trkpt lat="43.32744877463745" lon="11.850779347859678"><ele>267.0</ele><time>2026-04-29T14:31:27Z</time></trkpt><trkpt lat="43.32734780194257" lon="11.850476024144797"><ele>267.0</ele><time>2026-04-29T14:31:28Z</time></trkpt><trkpt lat="43.32725482023675" lon="11.850197719415782"><ele>267.0</ele><time>2026-04-29T14:31:29Z</time></trkpt><trkpt lat="43.32716606910578" lon="11.849926684557918"><ele>267.0</ele><time>2026-04-29T14:31:30.001Z</time></trkpt><trkpt lat="43.32706693144654" lon="11.849689936681957"><ele>267.0</ele><time>2026-04-29T14:31:31.001Z</time></trkpt><trkpt lat="43.32694306668874" lon="11.849473926444306"><ele>267.0</ele><time>2026-04-29T14:31:32.001Z</time></trkpt><trkpt lat="43.32679696125202" lon="11.84928819034779"><ele>267.0</ele><time>2026-04-29T14:31:33.001Z</time></trkpt><trkpt lat="43.32662815329953" lon="11.849119063029978"><ele>266.6666666666667</ele><time>2026-04-29T14:31:34.001Z</time></trkpt><trkpt lat="43.32644266873072" lon="11.848964673585467"><ele>266.33333333333337</ele><time>2026-04-29T14:31:35.001Z</time></trkpt><trkpt lat="43.32624678266759" lon="11.848809108225085"><ele>266.0</ele><time>2026-04-29T14:31:36.001Z</time></trkpt><trkpt lat="43.32605846836478" lon="11.848637674671016"><ele>266.0</ele><time>2026-04-29T14:31:37.001Z</time></trkpt><trkpt lat="43.325851041816335" lon="11.848471193253049"><ele>266.0</ele><time>2026-04-29T14:31:38.001Z</time></trkpt><trkpt lat="43.32563834723937" lon="11.848300418813327"><ele>262.5</ele><time>2026-04-29T14:31:39.001Z</time></trkpt><trkpt lat="43.32541657343958" lon="11.848126773259688"><ele>259.0</ele><time>2026-04-29T14:31:40.001Z</time></trkpt><trkpt lat="43.32520042628195" lon="11.847943669920474"><ele>259.0</ele><time>2026-04-29T14:31:41.001Z</time></trkpt><trkpt lat="43.32498410395702" lon="11.847757938634395"><ele>259.0</ele><time>2026-04-29T14:31:42.001Z</time></trkpt><trkpt lat="43.32476271703814" lon="11.847576076573928"><ele>253.5</ele><time>2026-04-29T14:31:43.001Z</time></trkpt><trkpt lat="43.3245486511512" lon="11.847397699886324"><ele>248.0</ele><time>2026-04-29T14:31:44.001Z</time></trkpt><trkpt lat="43.32435215459717" lon="11.8472350152191"><ele>248.0</ele><time>2026-04-29T14:31:45.001Z</time></trkpt><trkpt lat="43.32417162098226" lon="11.84708103201457"><ele>248.0</ele><time>2026-04-29T14:31:46.001Z</time></trkpt><trkpt lat="43.32403314688278" lon="11.846878656040587"><ele>248.0</ele><time>2026-04-29T14:31:47.001Z</time></trkpt><trkpt lat="43.32389914245182" lon="11.846653500049912"><ele>247.0</ele><time>2026-04-29T14:31:48.001Z</time></trkpt><trkpt lat="43.32378526054001" lon="11.846401552056001"><ele>246.0</ele><time>2026-04-29T14:31:49.001Z</time></trkpt><trkpt lat="43.3236940924218" lon="11.846124771263336"><ele>245.0</ele><time>2026-04-29T14:31:50.001Z</time></trkpt><trkpt lat="43.32361058073142" lon="11.84583183367522"><ele>243.5</ele><time>2026-04-29T14:31:51.001Z</time></trkpt><trkpt lat="43.32352953075664" lon="11.84553722323867"><ele>242.0</ele><time>2026-04-29T14:31:52.001Z</time></trkpt><trkpt lat="43.32344181228611" lon="11.845240747919783"><ele>241.5</ele><time>2026-04-29T14:31:53.001Z</time></trkpt><trkpt lat="43.32336356698794" lon="11.844935046815376"><ele>241.0</ele><time>2026-04-29T14:31:54.001Z</time></trkpt><trkpt lat="43.32328412900547" lon="11.8446338378901"><ele>241.0</ele><time>2026-04-29T14:31:55.001Z</time></trkpt><trkpt lat="43.32320386024514" lon="11.844327367712939"><ele>241.0</ele><time>2026-04-29T14:31:56.001Z</time></trkpt><trkpt lat="43.323123649588226" lon="11.844023816158309"><ele>240.5</ele><time>2026-04-29T14:31:57.001Z</time></trkpt><trkpt lat="43.32303855221546" lon="11.843721826639563"><ele>240.0</ele><time>2026-04-29T14:31:58.001Z</time></trkpt><trkpt lat="43.322954947705014" lon="11.843414082219097"><ele>240.0</ele><time>2026-04-29T14:31:59.001Z</time></trkpt><trkpt lat="43.32286930216823" lon="11.843107454472245"><ele>240.0</ele><time>2026-04-29T14:32:00.001Z</time></trkpt><trkpt lat="43.3227827642074" lon="11.842799320000552"><ele>240.5</ele><time>2026-04-29T14:32:01.001Z</time></trkpt><trkpt lat="43.32269300824591" lon="11.842486810847975"><ele>241.0</ele><time>2026-04-29T14:32:02.001Z</time></trkpt><trkpt lat="43.322605681542086" lon="11.842176124803846"><ele>241.0</ele><time>2026-04-29T14:32:03.001Z</time></trkpt><trkpt lat="43.3225197269466" lon="11.841857732628911"><ele>241.0</ele><time>2026-04-29T14:32:04.001Z</time></trkpt><trkpt lat="43.322427812693356" lon="11.84153967209886"><ele>241.5</ele><time>2026-04-29T14:32:05.001Z</time></trkpt><trkpt lat="43.32234215116272" lon="11.841225752031745"><ele>242.0</ele><time>2026-04-29T14:32:06.001Z</time></trkpt><trkpt lat="43.32225324495084" lon="11.840911266841868"><ele>241.5</ele><time>2026-04-29T14:32:07.001Z</time></trkpt><trkpt lat="43.322150602268685" lon="11.840602177057052"><ele>241.0</ele><time>2026-04-29T14:32:08.001Z</time></trkpt><trkpt lat="43.32203907144936" lon="11.840302143853176"><ele>240.5</ele><time>2026-04-29T14:32:09.001Z</time></trkpt><trkpt lat="43.32191314535951" lon="11.840016423921945"><ele>240.0</ele><time>2026-04-29T14:32:10.001Z</time></trkpt><trkpt lat="43.321803644735574" lon="11.839766208891605"><ele>240.0</ele><time>2026-04-29T14:32:11.001Z</time></trkpt><trkpt lat="43.32170582476882" lon="11.839526621233812"><ele>240.0</ele><time>2026-04-29T14:32:12.001Z</time></trkpt><trkpt lat="43.32161244498695" lon="11.83930117637633"><ele>240.0</ele><time>2026-04-29T14:32:13.001Z</time></trkpt><trkpt lat="43.321524644110916" lon="11.839082115823615"><ele>240.0</ele><time>2026-04-29T14:32:14.001Z</time></trkpt><trkpt lat="43.32144572502349" lon="11.838876859251018"><ele>240.0</ele><time>2026-04-29T14:32:15.001Z</time></trkpt><trkpt lat="43.321367282515496" lon="11.838679899767296"><ele>240.0</ele><time>2026-04-29T14:32:16.001Z</time></trkpt><trkpt lat="43.321302529751335" lon="11.838503937636192"><ele>240.25</ele><time>2026-04-29T14:32:17.002Z</time></trkpt><trkpt lat="43.32123413107143" lon="11.838330859571052"><ele>240.5</ele><time>2026-04-29T14:32:18.002Z</time></trkpt><trkpt lat="43.32117010795592" lon="11.83816674096328"><ele>240.75</ele><time>2026-04-29T14:32:19.002Z</time></trkpt><trkpt lat="43.321109183425946" lon="11.838014088842742"><ele>241.0</ele><time>2026-04-29T14:32:20.002Z</time></trkpt><trkpt lat="43.32104987978765" lon="11.83787266418702"><ele>241.0</ele><time>2026-04-29T14:32:21.002Z</time></trkpt><trkpt lat="43.32099642921206" lon="11.837736911473357"><ele>241.00000000000003</ele><time>2026-04-29T14:32:22.002Z</time></trkpt><trkpt lat="43.32094831012967" lon="11.837614350891352"><ele>241.00000000000003</ele><time>2026-04-29T14:32:23.002Z</time></trkpt><trkpt lat="43.32089805000985" lon="11.837500107297878"><ele>241.0</ele><time>2026-04-29T14:32:24.002Z</time></trkpt><trkpt lat="43.3208573003532" lon="11.83740248196422"><ele>241.0</ele><time>2026-04-29T14:32:25.002Z</time></trkpt><trkpt lat="43.32082351070856" lon="11.837321651301163"><ele>241.16666666666666</ele><time>2026-04-29T14:32:26.002Z</time></trkpt><trkpt lat="43.32079015274005" lon="11.83723765284782"><ele>241.33333333333331</ele><time>2026-04-29T14:32:27.002Z</time></trkpt><trkpt lat="43.3207582781476" lon="11.837158305585689"><ele>241.5</ele><time>2026-04-29T14:32:28.002Z</time></trkpt><trkpt lat="43.320704401784106" lon="11.837029017666325"><ele>241.66666666666669</ele><time>2026-04-29T14:32:30.002Z</time></trkpt><trkpt lat="43.320656856571084" lon="11.836913789642741"><ele>241.83333333333334</ele><time>2026-04-29T14:32:32.002Z</time></trkpt><trkpt lat="43.320619860107726" lon="11.836828362822414"><ele>242.0</ele><time>2026-04-29T14:32:34.002Z</time></trkpt><trkpt lat="43.32058799303301" lon="11.836742952732022"><ele>241.83333333333334</ele><time>2026-04-29T14:32:36.002Z</time></trkpt><trkpt lat="43.320552360113865" lon="11.836651710434372"><ele>241.66666666666669</ele><time>2026-04-29T14:32:39.002Z</time></trkpt><trkpt lat="43.32053632992928" lon="11.836566273641257"><ele>241.5</ele><time>2026-04-29T14:33:02.002Z</time></trkpt><trkpt lat="43.32049937524252" lon="11.836464751005968"><ele>241.33333333333331</ele><time>2026-04-29T14:33:04.003Z</time></trkpt><trkpt lat="43.32045153476539" lon="11.836318425692303"><ele>241.16666666666666</ele><time>2026-04-29T14:34:13.001Z</time></trkpt><trkpt lat="43.32042189873228" lon="11.8362076103841"><ele>241.0</ele><time>2026-04-29T14:34:14.001Z</time></trkpt><trkpt lat="43.32038843772591" lon="11.836077428156608"><ele>241.0</ele><time>2026-04-29T14:34:15.001Z</time></trkpt><trkpt lat="43.3203523203836" lon="11.835935140371946"><ele>241.0</ele><time>2026-04-29T14:34:16.001Z</time></trkpt><trkpt lat="43.320296231780574" lon="11.835790597126165"><ele>241.0</ele><time>2026-04-29T14:34:17.001Z</time></trkpt><trkpt lat="43.320249167015355" lon="11.835633933586028"><ele>241.0</ele><time>2026-04-29T14:34:18.001Z</time></trkpt><trkpt lat="43.320200140354856" lon="11.835463104654217"><ele>241.0</ele><time>2026-04-29T14:34:19.002Z</time></trkpt><trkpt lat="43.32009544160182" lon="11.835321632318648"><ele>241.0</ele><time>2026-04-29T14:34:20.002Z</time></trkpt><trkpt lat="43.31999130607663" lon="11.835165836256454"><ele>241.0</ele><time>2026-04-29T14:34:21.002Z</time></trkpt><trkpt lat="43.31988074690203" lon="11.835000754887885"><ele>241.66666666666666</ele><time>2026-04-29T14:34:22.002Z</time></trkpt><trkpt lat="43.3197634971387" lon="11.83482607656883"><ele>242.33333333333331</ele><time>2026-04-29T14:34:23.002Z</time></trkpt><trkpt lat="43.31964774473946" lon="11.83464528384888"><ele>243.0</ele><time>2026-04-29T14:34:24.002Z</time></trkpt><trkpt lat="43.3195253388448" lon="11.834455493442626"><ele>243.0</ele><time>2026-04-29T14:34:25.002Z</time></trkpt><trkpt lat="43.319404011957246" lon="11.834260816815622"><ele>243.0</ele><time>2026-04-29T14:34:26.002Z</time></trkpt><trkpt lat="43.31928554594162" lon="11.834052263398057"><ele>243.0</ele><time>2026-04-29T14:34:27.002Z</time></trkpt><trkpt lat="43.31916805109375" lon="11.833842937816579"><ele>243.0</ele><time>2026-04-29T14:34:28.002Z</time></trkpt><trkpt lat="43.31905204691478" lon="11.833629183184113"><ele>243.0</ele><time>2026-04-29T14:34:29.002Z</time></trkpt><trkpt lat="43.31893558067526" lon="11.833404990702325"><ele>243.0</ele><time>2026-04-29T14:34:30.002Z</time></trkpt><trkpt lat="43.31881951681734" lon="11.83318107623955"><ele>243.0</ele><time>2026-04-29T14:34:31.002Z</time></trkpt><trkpt lat="43.31870246195585" lon="11.832955879047876"><ele>243.0</ele><time>2026-04-29T14:34:32.002Z</time></trkpt><trkpt lat="43.318584537974125" lon="11.832739749720638"><ele>243.0</ele><time>2026-04-29T14:34:33.002Z</time></trkpt><trkpt lat="43.31846867247071" lon="11.832517442597855"><ele>243.0</ele><time>2026-04-29T14:34:34.002Z</time></trkpt><trkpt lat="43.31835835274212" lon="11.832285375220064"><ele>243.0</ele><time>2026-04-29T14:34:35.002Z</time></trkpt><trkpt lat="43.31826742514222" lon="11.832054983577631"><ele>243.0</ele><time>2026-04-29T14:34:36.002Z</time></trkpt><trkpt lat="43.3181871977889" lon="11.83180730745961"><ele>243.0</ele><time>2026-04-29T14:34:37.002Z</time></trkpt><trkpt lat="43.31814685792391" lon="11.831541835513065"><ele>243.0</ele><time>2026-04-29T14:34:38.002Z</time></trkpt><trkpt lat="43.3181372722872" lon="11.831271609472997"><ele>243.0</ele><time>2026-04-29T14:34:39.002Z</time></trkpt><trkpt lat="43.31814623020433" lon="11.830994852658533"><ele>242.66666666666669</ele><time>2026-04-29T14:34:40.002Z</time></trkpt><trkpt lat="43.3181650146442" lon="11.830710974388843"><ele>242.33333333333334</ele><time>2026-04-29T14:34:41.002Z</time></trkpt><trkpt lat="43.3181898299729" lon="11.830423592485205"><ele>242.0</ele><time>2026-04-29T14:34:42.002Z</time></trkpt><trkpt lat="43.31821967162507" lon="11.83013189184112"><ele>243.0</ele><time>2026-04-29T14:34:43.002Z</time></trkpt><trkpt lat="43.31824888697422" lon="11.829836685053113"><ele>244.0</ele><time>2026-04-29T14:34:44.002Z</time></trkpt><trkpt lat="43.31827403958626" lon="11.829539335349269"><ele>245.0</ele><time>2026-04-29T14:34:45.002Z</time></trkpt><trkpt lat="43.31829685642007" lon="11.82923826256536"><ele>245.0</ele><time>2026-04-29T14:34:46.002Z</time></trkpt><trkpt lat="43.31832141284998" lon="11.82893286005012"><ele>245.0</ele><time>2026-04-29T14:34:47.002Z</time></trkpt><trkpt lat="43.31835033963891" lon="11.828626166339006"><ele>245.0</ele><time>2026-04-29T14:34:48.002Z</time></trkpt><trkpt lat="43.31838241372194" lon="11.828318677277764"><ele>244.5</ele><time>2026-04-29T14:34:49.002Z</time></trkpt><trkpt lat="43.318416194634636" lon="11.828011147329049"><ele>244.0</ele><time>2026-04-29T14:34:50.002Z</time></trkpt><trkpt lat="43.31845067049523" lon="11.827703999440429"><ele>244.5</ele><time>2026-04-29T14:34:51.002Z</time></trkpt><trkpt lat="43.3184827107857" lon="11.827391818159073"><ele>245.0</ele><time>2026-04-29T14:34:52.002Z</time></trkpt><trkpt lat="43.318510427495546" lon="11.827081406779651"><ele>244.5</ele><time>2026-04-29T14:34:53.002Z</time></trkpt><trkpt lat="43.31853786088311" lon="11.826764822601964"><ele>244.0</ele><time>2026-04-29T14:34:54.002Z</time></trkpt><trkpt lat="43.318567103001705" lon="11.826448479389645"><ele>244.0</ele><time>2026-04-29T14:34:55.002Z</time></trkpt><trkpt lat="43.31859557569934" lon="11.82613194476308"><ele>244.0</ele><time>2026-04-29T14:34:56.002Z</time></trkpt><trkpt lat="43.31862379816048" lon="11.825816636343353"><ele>244.0</ele><time>2026-04-29T14:34:57.002Z</time></trkpt><trkpt lat="43.318650071828245" lon="11.825500795926237"><ele>244.0</ele><time>2026-04-29T14:34:58.002Z</time></trkpt><trkpt lat="43.31869400659122" lon="11.825183400938693"><ele>243.5</ele><time>2026-04-29T14:34:59.002Z</time></trkpt><trkpt lat="43.31872472504971" lon="11.824868810629152"><ele>243.0</ele><time>2026-04-29T14:35:00.002Z</time></trkpt><trkpt lat="43.31874367367838" lon="11.824545033861838"><ele>244.0</ele><time>2026-04-29T14:35:01.002Z</time></trkpt><trkpt lat="43.31878391288365" lon="11.824224844490955"><ele>245.0</ele><time>2026-04-29T14:35:02.002Z</time></trkpt><trkpt lat="43.318823450925265" lon="11.82390243751653"><ele>245.0</ele><time>2026-04-29T14:35:03.002Z</time></trkpt><trkpt lat="43.3188596967883" lon="11.82358008048248"><ele>245.0</ele><time>2026-04-29T14:35:04.002Z</time></trkpt><trkpt lat="43.318891312054845" lon="11.82325401589502"><ele>245.0</ele><time>2026-04-29T14:35:05.002Z</time></trkpt><trkpt lat="43.31891908332038" lon="11.822923264395385"><ele>245.0</ele><time>2026-04-29T14:35:06.003Z</time></trkpt><trkpt lat="43.31894904190132" lon="11.822595400637038"><ele>245.0</ele><time>2026-04-29T14:35:07.003Z</time></trkpt><trkpt lat="43.31898059824575" lon="11.822264714181582"><ele>245.0</ele><time>2026-04-29T14:35:08.003Z</time></trkpt><trkpt lat="43.31901238083375" lon="11.821934998115461"><ele>244.5</ele><time>2026-04-29T14:35:09.003Z</time></trkpt><trkpt lat="43.31904476430896" lon="11.821604729018487"><ele>244.0</ele><time>2026-04-29T14:35:10.003Z</time></trkpt><trkpt lat="43.319078561287" lon="11.821274201306904"><ele>245.0</ele><time>2026-04-29T14:35:11.003Z</time></trkpt><trkpt lat="43.31911069851872" lon="11.820940798374924"><ele>246.0</ele><time>2026-04-29T14:35:12.003Z</time></trkpt><trkpt lat="43.3191413781775" lon="11.820608889534853"><ele>246.0</ele><time>2026-04-29T14:35:13.003Z</time></trkpt><trkpt lat="43.319171245582766" lon="11.820277896997874"><ele>246.0</ele><time>2026-04-29T14:35:14.003Z</time></trkpt><trkpt lat="43.319200082608965" lon="11.819944631443242"><ele>246.0</ele><time>2026-04-29T14:35:15.003Z</time></trkpt><trkpt lat="43.31922955778894" lon="11.819613861224934"><ele>246.0</ele><time>2026-04-29T14:35:16.003Z</time></trkpt><trkpt lat="43.31926077802489" lon="11.819282863185146"><ele>246.0</ele><time>2026-04-29T14:35:17.003Z</time></trkpt><trkpt lat="43.31929222821601" lon="11.818954917341182"><ele>246.0</ele><time>2026-04-29T14:35:18.001Z</time></trkpt><trkpt lat="43.3193247789361" lon="11.818626863310811"><ele>245.0</ele><time>2026-04-29T14:35:19.001Z</time></trkpt><trkpt lat="43.31935789800983" lon="11.81829913172178"><ele>244.0</ele><time>2026-04-29T14:35:20.001Z</time></trkpt><trkpt lat="43.319391521833374" lon="11.817973437120617"><ele>244.5</ele><time>2026-04-29T14:35:21.001Z</time></trkpt><trkpt lat="43.31942544944409" lon="11.817648717094649"><ele>245.0</ele><time>2026-04-29T14:35:22.001Z</time></trkpt><trkpt lat="43.31946114384296" lon="11.81731917914504"><ele>245.0</ele><time>2026-04-29T14:35:23.001Z</time></trkpt><trkpt lat="43.319497914015045" lon="11.816990479428034"><ele>245.0</ele><time>2026-04-29T14:35:24.001Z</time></trkpt><trkpt lat="43.31953458671801" lon="11.81666258365886"><ele>245.0</ele><time>2026-04-29T14:35:25.001Z</time></trkpt><trkpt lat="43.319571788521316" lon="11.816348768988384"><ele>245.0</ele><time>2026-04-29T14:35:26.001Z</time></trkpt><trkpt lat="43.31960477393095" lon="11.816054754899813"><ele>245.0</ele><time>2026-04-29T14:35:27.001Z</time></trkpt><trkpt lat="43.31962328536893" lon="11.815776712908685"><ele>245.0</ele><time>2026-04-29T14:35:28.001Z</time></trkpt><trkpt lat="43.31960879881643" lon="11.815512343890779"><ele>245.0</ele><time>2026-04-29T14:35:29.001Z</time></trkpt><trkpt lat="43.31955607363165" lon="11.815264930852663"><ele>245.0</ele><time>2026-04-29T14:35:30.001Z</time></trkpt><trkpt lat="43.31947657067948" lon="11.815023751773559"><ele>245.0</ele><time>2026-04-29T14:35:31.001Z</time></trkpt><trkpt lat="43.31936803018174" lon="11.814795678782701"><ele>245.0</ele><time>2026-04-29T14:35:32.001Z</time></trkpt><trkpt lat="43.31923732388492" lon="11.814588475749526"><ele>245.0</ele><time>2026-04-29T14:35:33.001Z</time></trkpt><trkpt lat="43.319090101892264" lon="11.814385067003442"><ele>245.0</ele><time>2026-04-29T14:35:34.001Z</time></trkpt><trkpt lat="43.31893879793207" lon="11.81417288193438"><ele>245.0</ele><time>2026-04-29T14:35:35.001Z</time></trkpt><trkpt lat="43.318788579920934" lon="11.81395926521773"><ele>245.0</ele><time>2026-04-29T14:35:36.001Z</time></trkpt><trkpt lat="43.318645757604926" lon="11.81375889351213"><ele>245.33333333333334</ele><time>2026-04-29T14:35:37.001Z</time></trkpt><trkpt lat="43.3185132148038" lon="11.81357157197431"><ele>245.66666666666669</ele><time>2026-04-29T14:35:38.001Z</time></trkpt><trkpt lat="43.31839249883454" lon="11.813397530716282"><ele>246.0</ele><time>2026-04-29T14:35:39.001Z</time></trkpt><trkpt lat="43.31828349501394" lon="11.81323702355949"><ele>246.25</ele><time>2026-04-29T14:35:40.001Z</time></trkpt><trkpt lat="43.31818846389686" lon="11.81310008413154"><ele>246.5</ele><time>2026-04-29T14:35:41.001Z</time></trkpt><trkpt lat="43.318114755160934" lon="11.812969919510286"><ele>246.75</ele><time>2026-04-29T14:35:42.001Z</time></trkpt><trkpt lat="43.31807468100044" lon="11.812839485316019"><ele>247.0</ele><time>2026-04-29T14:35:43.001Z</time></trkpt><trkpt lat="43.31806522155688" lon="11.812714175063658"><ele>247.39999999999998</ele><time>2026-04-29T14:35:44.001Z</time></trkpt><trkpt lat="43.31804552483981" lon="11.812599051755617"><ele>247.79999999999998</ele><time>2026-04-29T14:35:45.001Z</time></trkpt><trkpt lat="43.318001452557574" lon="11.812511241141134"><ele>248.2</ele><time>2026-04-29T14:35:46.001Z</time></trkpt><trkpt lat="43.31791474914729" lon="11.812452596791417"><ele>248.6</ele><time>2026-04-29T14:35:47.001Z</time></trkpt><trkpt lat="43.31781968504745" lon="11.812422438997048"><ele>249.0</ele><time>2026-04-29T14:35:48.001Z</time></trkpt><trkpt lat="43.31772275304202" lon="11.812374461805204"><ele>249.0</ele><time>2026-04-29T14:35:49.001Z</time></trkpt><trkpt lat="43.31762761264947" lon="11.812295797011277"><ele>249.0</ele><time>2026-04-29T14:35:50.001Z</time></trkpt><trkpt lat="43.3175440038603" lon="11.812184105562592"><ele>249.0</ele><time>2026-04-29T14:35:51.001Z</time></trkpt><trkpt lat="43.31746292324244" lon="11.812064630290406"><ele>249.0</ele><time>2026-04-29T14:35:52.001Z</time></trkpt><trkpt lat="43.317367055097336" lon="11.811947530830306"><ele>249.0</ele><time>2026-04-29T14:35:53.001Z</time></trkpt><trkpt lat="43.31725986915353" lon="11.811811789084897"><ele>249.0</ele><time>2026-04-29T14:35:54.001Z</time></trkpt><trkpt lat="43.3171525809794" lon="11.811654256191828"><ele>249.0</ele><time>2026-04-29T14:35:55.001Z</time></trkpt><trkpt lat="43.31704258611187" lon="11.811484847901651"><ele>249.0</ele><time>2026-04-29T14:35:56.001Z</time></trkpt><trkpt lat="43.31692288936033" lon="11.811309981351652"><ele>249.0</ele><time>2026-04-29T14:35:57.001Z</time></trkpt><trkpt lat="43.316797604564286" lon="11.811132908719648"><ele>249.0</ele><time>2026-04-29T14:35:58.001Z</time></trkpt><trkpt lat="43.31667040720062" lon="11.810953568239986"><ele>249.0</ele><time>2026-04-29T14:35:59.001Z</time></trkpt><trkpt lat="43.31654422912565" lon="11.810774767129866"><ele>249.0</ele><time>2026-04-29T14:36:00.001Z</time></trkpt><trkpt lat="43.31642072915531" lon="11.810598176782513"><ele>249.0</ele><time>2026-04-29T14:36:01.001Z</time></trkpt><trkpt lat="43.316300871611155" lon="11.810426615200376"><ele>249.25</ele><time>2026-04-29T14:36:02.001Z</time></trkpt><trkpt lat="43.31618673149003" lon="11.81026781907966"><ele>249.5</ele><time>2026-04-29T14:36:03.002Z</time></trkpt><trkpt lat="43.31608486453361" lon="11.810123431567979"><ele>249.75</ele><time>2026-04-29T14:36:04.002Z</time></trkpt><trkpt lat="43.31599254243778" lon="11.809986009683982"><ele>250.0</ele><time>2026-04-29T14:36:05.002Z</time></trkpt><trkpt lat="43.315908050626895" lon="11.809859882376527"><ele>250.5</ele><time>2026-04-29T14:36:06.002Z</time></trkpt><trkpt lat="43.31582716940417" lon="11.809737073209902"><ele>251.0</ele><time>2026-04-29T14:36:07.002Z</time></trkpt><trkpt lat="43.315749915167885" lon="11.809618017181043"><ele>251.5</ele><time>2026-04-29T14:36:08.002Z</time></trkpt><trkpt lat="43.315676716908136" lon="11.809501903234485"><ele>252.0</ele><time>2026-04-29T14:36:09.002Z</time></trkpt><trkpt lat="43.315604108866786" lon="11.809385503487713"><ele>252.16666666666666</ele><time>2026-04-29T14:36:10.002Z</time></trkpt><trkpt lat="43.315529637340234" lon="11.809271092987133"><ele>252.33333333333331</ele><time>2026-04-29T14:36:11.002Z</time></trkpt><trkpt lat="43.31546525841715" lon="11.809165591055224"><ele>252.5</ele><time>2026-04-29T14:36:12.002Z</time></trkpt><trkpt lat="43.315438253722874" lon="11.80906398676529"><ele>252.66666666666666</ele><time>2026-04-29T14:36:13.002Z</time></trkpt><trkpt lat="43.315456220299424" lon="11.808966954717729"><ele>252.83333333333331</ele><time>2026-04-29T14:36:14.002Z</time></trkpt><trkpt lat="43.31551212916699" lon="11.808883026738787"><ele>253.0</ele><time>2026-04-29T14:36:15.002Z</time></trkpt><trkpt lat="43.31558574307187" lon="11.808804103939625"><ele>252.99999999999997</ele><time>2026-04-29T14:36:16.002Z</time></trkpt><trkpt lat="43.31566515280716" lon="11.808715095081348"><ele>253.0</ele><time>2026-04-29T14:36:17.002Z</time></trkpt><trkpt lat="43.315734359829676" lon="11.808624406916481"><ele>253.0</ele><time>2026-04-29T14:36:18.002Z</time></trkpt><trkpt lat="43.31577208997358" lon="11.808529530295537"><ele>253.0</ele><time>2026-04-29T14:36:19.002Z</time></trkpt><trkpt lat="43.315775948088316" lon="11.808415115673313"><ele>252.99999999999997</ele><time>2026-04-29T14:36:20.002Z</time></trkpt><trkpt lat="43.31573997898419" lon="11.808307637847644"><ele>253.0</ele><time>2026-04-29T14:36:21.002Z</time></trkpt><trkpt lat="43.31567848846878" lon="11.808203337145217"><ele>253.60000000000002</ele><time>2026-04-29T14:36:22.002Z</time></trkpt><trkpt lat="43.31560849481692" lon="11.808096595096579"><ele>254.20000000000002</ele><time>2026-04-29T14:36:23.002Z</time></trkpt><trkpt lat="43.3155329452618" lon="11.807984303244933"><ele>254.8</ele><time>2026-04-29T14:36:24.002Z</time></trkpt><trkpt lat="43.31547056274057" lon="11.807883376189684"><ele>255.4</ele><time>2026-04-29T14:36:25.002Z</time></trkpt><trkpt lat="43.315425718234565" lon="11.80779882460766"><ele>256.0</ele><time>2026-04-29T14:36:26.002Z</time></trkpt><trkpt lat="43.3154765050541" lon="11.807675679914231"><ele>257.16666666666663</ele><time>2026-04-29T14:36:28.002Z</time></trkpt><trkpt lat="43.315519279133774" lon="11.807575987038378"><ele>258.3333333333333</ele><time>2026-04-29T14:36:29.002Z</time></trkpt><trkpt lat="43.3155849481889" lon="11.807489155508017"><ele>259.5</ele><time>2026-04-29T14:36:30.002Z</time></trkpt><trkpt lat="43.31565132900538" lon="11.807390041015418"><ele>260.6666666666667</ele><time>2026-04-29T14:36:31.002Z</time></trkpt><trkpt lat="43.315694369344044" lon="11.807308927346513"><ele>261.83333333333337</ele><time>2026-04-29T14:36:32.002Z</time></trkpt><trkpt lat="43.315747115363116" lon="11.807254652809007"><ele>263.0</ele><time>2026-04-29T14:36:34.002Z</time></trkpt><trkpt lat="43.31568651969525" lon="11.807141546807143"><ele>263.0</ele><time>2026-04-29T14:36:35.002Z</time></trkpt><trkpt lat="43.315620772342854" lon="11.807063664051876"><ele>263.0</ele><time>2026-04-29T14:36:36.002Z</time></trkpt><trkpt lat="43.31556085356765" lon="11.806986048233497"><ele>263.0</ele><time>2026-04-29T14:36:37.002Z</time></trkpt><trkpt lat="43.31550185271118" lon="11.806864793282525"><ele>263.0</ele><time>2026-04-29T14:36:39.002Z</time></trkpt><trkpt lat="43.31557342087998" lon="11.80661854442802"><ele>264.5</ele><time>2026-04-29T14:36:42.002Z</time></trkpt><trkpt lat="43.31564094193068" lon="11.806507605793122"><ele>266.0</ele><time>2026-04-29T14:36:43.002Z</time></trkpt><trkpt lat="43.31571380473291" lon="11.806378153509929"><ele>267.5</ele><time>2026-04-29T14:36:44.002Z</time></trkpt><trkpt lat="43.315790035752535" lon="11.806236872682522"><ele>269.0</ele><time>2026-04-29T14:36:45.002Z</time></trkpt><trkpt lat="43.31587248304376" lon="11.806082962275427"><ele>270.0</ele><time>2026-04-29T14:36:46.002Z</time></trkpt><trkpt lat="43.315959648523986" lon="11.805922618196783"><ele>271.0</ele><time>2026-04-29T14:36:47.002Z</time></trkpt><trkpt lat="43.31605288110193" lon="11.805755459685235"><ele>272.0</ele><time>2026-04-29T14:36:48.002Z</time></trkpt><trkpt lat="43.316148068757066" lon="11.805578196710984"><ele>272.0</ele><time>2026-04-29T14:36:49.002Z</time></trkpt><trkpt lat="43.3162452041032" lon="11.80539384686244"><ele>272.0</ele><time>2026-04-29T14:36:50.002Z</time></trkpt><trkpt lat="43.31634742870583" lon="11.805201921312745"><ele>272.0</ele><time>2026-04-29T14:36:51.002Z</time></trkpt><trkpt lat="43.316452567244184" lon="11.805005349922363"><ele>273.0</ele><time>2026-04-29T14:36:52.002Z</time></trkpt><trkpt lat="43.31655988225635" lon="11.804806994597781"><ele>274.0</ele><time>2026-04-29T14:36:53.002Z</time></trkpt><trkpt lat="43.316671297284266" lon="11.804600333667079"><ele>275.0</ele><time>2026-04-29T14:36:54.002Z</time></trkpt><trkpt lat="43.31678539960787" lon="11.804386493271362"><ele>275.6666666666667</ele><time>2026-04-29T14:36:55.002Z</time></trkpt><trkpt lat="43.31690164867534" lon="11.804166743097852"><ele>276.3333333333333</ele><time>2026-04-29T14:36:56.002Z</time></trkpt><trkpt lat="43.31702222427174" lon="11.803944198338014"><ele>277.0</ele><time>2026-04-29T14:36:57.002Z</time></trkpt><trkpt lat="43.317144430436976" lon="11.80371743595641"><ele>278.0</ele><time>2026-04-29T14:36:58.003Z</time></trkpt><trkpt lat="43.31726789371309" lon="11.80348760572738"><ele>279.0</ele><time>2026-04-29T14:36:59.003Z</time></trkpt><trkpt lat="43.31739238065357" lon="11.803253943134658"><ele>280.0</ele><time>2026-04-29T14:37:00.003Z</time></trkpt><trkpt lat="43.317518015135505" lon="11.803019308917849"><ele>280.0</ele><time>2026-04-29T14:37:01.003Z</time></trkpt><trkpt lat="43.317642624179086" lon="11.802784039626424"><ele>280.0</ele><time>2026-04-29T14:37:02.003Z</time></trkpt><trkpt lat="43.31776590205465" lon="11.802548128310752"><ele>280.0</ele><time>2026-04-29T14:37:03.003Z</time></trkpt><trkpt lat="43.31789023873655" lon="11.80230584138161"><ele>281.3333333333333</ele><time>2026-04-29T14:37:04.003Z</time></trkpt><trkpt lat="43.318011397162145" lon="11.802059430503496"><ele>282.6666666666667</ele><time>2026-04-29T14:37:05.003Z</time></trkpt><trkpt lat="43.31813080914944" lon="11.801812771153278"><ele>284.0</ele><time>2026-04-29T14:37:06.003Z</time></trkpt><trkpt lat="43.318251336217784" lon="11.801562953434379"><ele>284.0</ele><time>2026-04-29T14:37:07.003Z</time></trkpt><trkpt lat="43.31837460967649" lon="11.801309793002018"><ele>284.0</ele><time>2026-04-29T14:37:08.003Z</time></trkpt><trkpt lat="43.31849777115078" lon="11.801057830074587"><ele>284.0</ele><time>2026-04-29T14:37:09.003Z</time></trkpt><trkpt lat="43.31862056649816" lon="11.800800305818548"><ele>285.0</ele><time>2026-04-29T14:37:10.003Z</time></trkpt><trkpt lat="43.3187462978304" lon="11.80054064613349"><ele>286.0</ele><time>2026-04-29T14:37:11.003Z</time></trkpt><trkpt lat="43.31887127772003" lon="11.8002819407826"><ele>282.5</ele><time>2026-04-29T14:37:12.003Z</time></trkpt><trkpt lat="43.31899619752343" lon="11.800023645922945"><ele>279.0</ele><time>2026-04-29T14:37:13.003Z</time></trkpt><trkpt lat="43.31912257528225" lon="11.799764560721556"><ele>279.0</ele><time>2026-04-29T14:37:14.003Z</time></trkpt><trkpt lat="43.31924905009714" lon="11.799499530632165"><ele>279.0</ele><time>2026-04-29T14:37:15.003Z</time></trkpt><trkpt lat="43.319372975862606" lon="11.799235322436827"><ele>280.0</ele><time>2026-04-29T14:37:16.003Z</time></trkpt><trkpt lat="43.31949596922988" lon="11.798967476636639"><ele>281.0</ele><time>2026-04-29T14:37:17.003Z</time></trkpt><trkpt lat="43.319616219989186" lon="11.798694720754506"><ele>280.0</ele><time>2026-04-29T14:37:18.003Z</time></trkpt><trkpt lat="43.319735364186585" lon="11.798415484911683"><ele>279.0</ele><time>2026-04-29T14:37:19.003Z</time></trkpt><trkpt lat="43.31984959281222" lon="11.798132973097035"><ele>279.0</ele><time>2026-04-29T14:37:20.003Z</time></trkpt><trkpt lat="43.31997741291315" lon="11.797865413235902"><ele>279.0</ele><time>2026-04-29T14:37:21.003Z</time></trkpt><trkpt lat="43.32008209517087" lon="11.797570747639712"><ele>280.0</ele><time>2026-04-29T14:37:22.003Z</time></trkpt><trkpt lat="43.3202033975018" lon="11.797290977123822"><ele>281.0</ele><time>2026-04-29T14:37:23.003Z</time></trkpt><trkpt lat="43.32032485973635" lon="11.797011319143166"><ele>281.5</ele><time>2026-04-29T14:37:24.001Z</time></trkpt><trkpt lat="43.320444544292066" lon="11.79672502517316"><ele>282.0</ele><time>2026-04-29T14:37:25.001Z</time></trkpt><trkpt lat="43.32056233428789" lon="11.796438633507897"><ele>280.5</ele><time>2026-04-29T14:37:26.001Z</time></trkpt><trkpt lat="43.32066963605063" lon="11.796149987754335"><ele>279.0</ele><time>2026-04-29T14:37:27.001Z</time></trkpt><trkpt lat="43.32075978615901" lon="11.795842894188812"><ele>279.0</ele><time>2026-04-29T14:37:28.001Z</time></trkpt><trkpt lat="43.32081682576235" lon="11.795527346297007"><ele>279.0</ele><time>2026-04-29T14:37:29.001Z</time></trkpt><trkpt lat="43.3208603110799" lon="11.795205584188379"><ele>280.0</ele><time>2026-04-29T14:37:30.001Z</time></trkpt><trkpt lat="43.32088114501888" lon="11.794884379619205"><ele>281.0</ele><time>2026-04-29T14:37:31.001Z</time></trkpt><trkpt lat="43.320899065723154" lon="11.794560888242975"><ele>281.0</ele><time>2026-04-29T14:37:32.001Z</time></trkpt><trkpt lat="43.32093539542629" lon="11.794233055828414"><ele>281.0</ele><time>2026-04-29T14:37:33.001Z</time></trkpt><trkpt lat="43.32096334435299" lon="11.79390234814005"><ele>281.0</ele><time>2026-04-29T14:37:34.001Z</time></trkpt><trkpt lat="43.32099112447812" lon="11.793572287850493"><ele>281.0</ele><time>2026-04-29T14:37:35.001Z</time></trkpt><trkpt lat="43.32102006872795" lon="11.793239518847047"><ele>282.5</ele><time>2026-04-29T14:37:36.001Z</time></trkpt><trkpt lat="43.321033216595794" lon="11.792901620726116"><ele>284.0</ele><time>2026-04-29T14:37:37.001Z</time></trkpt><trkpt lat="43.32106307621888" lon="11.79256860829982"><ele>285.5</ele><time>2026-04-29T14:37:38.001Z</time></trkpt><trkpt lat="43.32109590803146" lon="11.792232772501585"><ele>287.0</ele><time>2026-04-29T14:37:39.001Z</time></trkpt><trkpt lat="43.32112789856082" lon="11.79190578208098"><ele>289.5</ele><time>2026-04-29T14:37:40.001Z</time></trkpt><trkpt lat="43.321155875533115" lon="11.791580208662866"><ele>292.0</ele><time>2026-04-29T14:37:41.001Z</time></trkpt><trkpt lat="43.32118404421244" lon="11.791249906465646"><ele>294.0</ele><time>2026-04-29T14:37:42.001Z</time></trkpt><trkpt lat="43.32121812190726" lon="11.79093222452709"><ele>296.0</ele><time>2026-04-29T14:37:43.001Z</time></trkpt><trkpt lat="43.321264040223774" lon="11.790619755984599"><ele>296.0</ele><time>2026-04-29T14:37:44.001Z</time></trkpt><trkpt lat="43.32132085687305" lon="11.790312457189113"><ele>296.0</ele><time>2026-04-29T14:37:45.001Z</time></trkpt><trkpt lat="43.321384883384134" lon="11.790007045183057"><ele>297.0</ele><time>2026-04-29T14:37:46.001Z</time></trkpt><trkpt lat="43.32145504724371" lon="11.789700558187857"><ele>298.0</ele><time>2026-04-29T14:37:47.001Z</time></trkpt><trkpt lat="43.321523518615926" lon="11.789399462848134"><ele>299.5</ele><time>2026-04-29T14:37:48.001Z</time></trkpt><trkpt lat="43.32159729044172" lon="11.789099916235788"><ele>301.0</ele><time>2026-04-29T14:37:49.001Z</time></trkpt><trkpt lat="43.32168000116069" lon="11.788796896190739"><ele>299.0</ele><time>2026-04-29T14:37:50.001Z</time></trkpt><trkpt lat="43.321769380140694" lon="11.788497098279088"><ele>297.0</ele><time>2026-04-29T14:37:51.001Z</time></trkpt><trkpt lat="43.32186332131686" lon="11.788195593137145"><ele>297.0</ele><time>2026-04-29T14:37:52.001Z</time></trkpt><trkpt lat="43.32195692189439" lon="11.787885204600935"><ele>297.0</ele><time>2026-04-29T14:37:53.001Z</time></trkpt><trkpt lat="43.32204959657961" lon="11.78757760991673"><ele>295.5</ele><time>2026-04-29T14:37:54.001Z</time></trkpt><trkpt lat="43.32214163162422" lon="11.787267656436601"><ele>294.0</ele><time>2026-04-29T14:37:55.001Z</time></trkpt><trkpt lat="43.32223659670001" lon="11.786959268641713"><ele>294.0</ele><time>2026-04-29T14:37:56.001Z</time></trkpt><trkpt lat="43.32233150693298" lon="11.786646854193151"><ele>294.0</ele><time>2026-04-29T14:37:57.001Z</time></trkpt><trkpt lat="43.322425899836766" lon="11.786336335147196"><ele>294.0</ele><time>2026-04-29T14:37:58.001Z</time></trkpt><trkpt lat="43.32251802695175" lon="11.786027008173422"><ele>294.0</ele><time>2026-04-29T14:37:59.001Z</time></trkpt><trkpt lat="43.32260885035949" lon="11.785736818814794"><ele>295.0</ele><time>2026-04-29T14:38:00.001Z</time></trkpt><trkpt lat="43.322694039039895" lon="11.785480394832746"><ele>296.0</ele><time>2026-04-29T14:38:01.001Z</time></trkpt><trkpt lat="43.3227892577355" lon="11.785236831489655"><ele>297.0</ele><time>2026-04-29T14:38:02.001Z</time></trkpt><trkpt lat="43.322898192521556" lon="11.784993868361363"><ele>297.3333333333333</ele><time>2026-04-29T14:38:03.001Z</time></trkpt><trkpt lat="43.32301528127374" lon="11.784757795913698"><ele>297.66666666666663</ele><time>2026-04-29T14:38:04.001Z</time></trkpt><trkpt lat="43.323135388002925" lon="11.784522322911135"><ele>298.0</ele><time>2026-04-29T14:38:05.001Z</time></trkpt><trkpt lat="43.32325647256178" lon="11.78428149127106"><ele>296.3333333333333</ele><time>2026-04-29T14:38:06.001Z</time></trkpt><trkpt lat="43.323379777193004" lon="11.784035034432506"><ele>294.6666666666667</ele><time>2026-04-29T14:38:07.001Z</time></trkpt><trkpt lat="43.323505278851904" lon="11.7837827652506"><ele>293.0</ele><time>2026-04-29T14:38:08.001Z</time></trkpt><trkpt lat="43.323631149108174" lon="11.783532226250756"><ele>292.6666666666667</ele><time>2026-04-29T14:38:09.001Z</time></trkpt><trkpt lat="43.32375971335747" lon="11.783282038855763"><ele>292.3333333333333</ele><time>2026-04-29T14:38:10.001Z</time></trkpt><trkpt lat="43.32389015363034" lon="11.783031528255778"><ele>292.0</ele><time>2026-04-29T14:38:11.001Z</time></trkpt><trkpt lat="43.32402234589774" lon="11.782774141247195"><ele>291.0</ele><time>2026-04-29T14:38:12.001Z</time></trkpt><trkpt lat="43.32415484711355" lon="11.782513589440159"><ele>290.0</ele><time>2026-04-29T14:38:13.001Z</time></trkpt><trkpt lat="43.324279197881445" lon="11.782267649066217"><ele>289.0</ele><time>2026-04-29T14:38:14.001Z</time></trkpt><trkpt lat="43.324386944980546" lon="11.782064287552496"><ele>289.0</ele><time>2026-04-29T14:38:15.001Z</time></trkpt><trkpt lat="43.32447842887591" lon="11.781900643224839"><ele>289.0</ele><time>2026-04-29T14:38:16.002Z</time></trkpt><trkpt lat="43.324556550127426" lon="11.781757878139949"><ele>289.0</ele><time>2026-04-29T14:38:17.002Z</time></trkpt><trkpt lat="43.32463443225513" lon="11.78161075784447"><ele>289.0</ele><time>2026-04-29T14:38:18.002Z</time></trkpt><trkpt lat="43.32471791227704" lon="11.781445474523144"><ele>289.0</ele><time>2026-04-29T14:38:19.002Z</time></trkpt><trkpt lat="43.32480691617645" lon="11.781268958457284"><ele>289.0</ele><time>2026-04-29T14:38:20.002Z</time></trkpt><trkpt lat="43.324899466039334" lon="11.781085207060965"><ele>289.0</ele><time>2026-04-29T14:38:21.002Z</time></trkpt><trkpt lat="43.32499852064665" lon="11.780892060041342"><ele>288.0</ele><time>2026-04-29T14:38:22.002Z</time></trkpt><trkpt lat="43.32510236018059" lon="11.7806941045664"><ele>287.0</ele><time>2026-04-29T14:38:23.002Z</time></trkpt><trkpt lat="43.32520700092905" lon="11.78049322339711"><ele>286.0</ele><time>2026-04-29T14:38:24.002Z</time></trkpt><trkpt lat="43.325310276234994" lon="11.780282952335083"><ele>284.66666666666663</ele><time>2026-04-29T14:38:25.002Z</time></trkpt><trkpt lat="43.32540975237883" lon="11.78005651002158"><ele>283.3333333333333</ele><time>2026-04-29T14:38:26.002Z</time></trkpt><trkpt lat="43.32549406471643" lon="11.779821926155089"><ele>282.0</ele><time>2026-04-29T14:38:27.002Z</time></trkpt><trkpt lat="43.32555594779129" lon="11.779577843417055"><ele>282.6666666666667</ele><time>2026-04-29T14:38:28.002Z</time></trkpt><trkpt lat="43.32559712784512" lon="11.779318595807315"><ele>283.33333333333337</ele><time>2026-04-29T14:38:29.002Z</time></trkpt><trkpt lat="43.32561858559813" lon="11.779049784695614"><ele>284.0</ele><time>2026-04-29T14:38:30.002Z</time></trkpt><trkpt lat="43.32561963718446" lon="11.778775799628779"><ele>282.6666666666667</ele><time>2026-04-29T14:38:31.002Z</time></trkpt><trkpt lat="43.325598790231524" lon="11.778500010905526"><ele>281.3333333333333</ele><time>2026-04-29T14:38:32.002Z</time></trkpt><trkpt lat="43.325561859563436" lon="11.778226499094686"><ele>280.0</ele><time>2026-04-29T14:38:33.002Z</time></trkpt><trkpt lat="43.32551582499059" lon="11.777950852618707"><ele>277.0</ele><time>2026-04-29T14:38:34.002Z</time></trkpt><trkpt lat="43.32546515806843" lon="11.777664251081216"><ele>274.0</ele><time>2026-04-29T14:38:35.002Z</time></trkpt><trkpt lat="43.32541693321626" lon="11.777379843216556"><ele>271.0</ele><time>2026-04-29T14:38:36.002Z</time></trkpt><trkpt lat="43.325373242150135" lon="11.777081106703822"><ele>270.66666666666663</ele><time>2026-04-29T14:38:37.002Z</time></trkpt><trkpt lat="43.325345769515884" lon="11.776785098645352"><ele>270.3333333333333</ele><time>2026-04-29T14:38:38.002Z</time></trkpt><trkpt lat="43.32533822141117" lon="11.776495585415072"><ele>270.0</ele><time>2026-04-29T14:38:39.002Z</time></trkpt><trkpt lat="43.32534198188343" lon="11.776209891942258"><ele>269.3333333333333</ele><time>2026-04-29T14:38:40.002Z</time></trkpt><trkpt lat="43.32535066368728" lon="11.77592521563317"><ele>268.66666666666663</ele><time>2026-04-29T14:38:41.002Z</time></trkpt><trkpt lat="43.32535519954373" lon="11.775641498710309"><ele>268.0</ele><time>2026-04-29T14:38:42.002Z</time></trkpt><trkpt lat="43.325357983212086" lon="11.77536214649669"><ele>266.66666666666663</ele><time>2026-04-29T14:38:43.002Z</time></trkpt><trkpt lat="43.32536164445421" lon="11.775071930642898"><ele>265.3333333333333</ele><time>2026-04-29T14:38:44.002Z</time></trkpt><trkpt lat="43.32536607860981" lon="11.774779536097975"><ele>264.0</ele><time>2026-04-29T14:38:45.002Z</time></trkpt><trkpt lat="43.325368641326065" lon="11.774484075837215"><ele>263.0</ele><time>2026-04-29T14:38:46.002Z</time></trkpt><trkpt lat="43.32536492482897" lon="11.774183669150501"><ele>262.0</ele><time>2026-04-29T14:38:47.002Z</time></trkpt><trkpt lat="43.325349116001554" lon="11.773885977943543"><ele>261.0</ele><time>2026-04-29T14:38:48.002Z</time></trkpt><trkpt lat="43.32531896473814" lon="11.773592749640269"><ele>260.6666666666667</ele><time>2026-04-29T14:38:49.002Z</time></trkpt><trkpt lat="43.325272731724034" lon="11.773318657709897"><ele>260.33333333333337</ele><time>2026-04-29T14:38:50.002Z</time></trkpt><trkpt lat="43.3252148929041" lon="11.773033453797686"><ele>260.0</ele><time>2026-04-29T14:38:51.002Z</time></trkpt><trkpt lat="43.32515119067531" lon="11.77274591659318"><ele>260.0</ele><time>2026-04-29T14:38:52.002Z</time></trkpt><trkpt lat="43.32508794348551" lon="11.772454999133222"><ele>260.0</ele><time>2026-04-29T14:38:53.002Z</time></trkpt><trkpt lat="43.32502083366357" lon="11.77215876698654"><ele>260.0</ele><time>2026-04-29T14:38:54.002Z</time></trkpt><trkpt lat="43.32495437971718" lon="11.771865760872021"><ele>259.0</ele><time>2026-04-29T14:38:55.002Z</time></trkpt><trkpt lat="43.32489196698518" lon="11.77156773269505"><ele>258.0</ele><time>2026-04-29T14:38:56.002Z</time></trkpt><trkpt lat="43.324840289461044" lon="11.771268191057546"><ele>257.5</ele><time>2026-04-29T14:38:57.002Z</time></trkpt><trkpt lat="43.32480382096581" lon="11.770960492402237"><ele>257.0</ele><time>2026-04-29T14:38:58.002Z</time></trkpt><trkpt lat="43.32479072641603" lon="11.770649053224783"><ele>257.0</ele><time>2026-04-29T14:38:59.002Z</time></trkpt><trkpt lat="43.32480157860169" lon="11.770336821149687"><ele>257.0</ele><time>2026-04-29T14:39:00.002Z</time></trkpt><trkpt lat="43.32483781174275" lon="11.770032212530623"><ele>256.5</ele><time>2026-04-29T14:39:01.002Z</time></trkpt><trkpt lat="43.32489917857751" lon="11.769733933814802"><ele>256.0</ele><time>2026-04-29T14:39:02.002Z</time></trkpt><trkpt lat="43.32497138824238" lon="11.769436436668743"><ele>258.0</ele><time>2026-04-29T14:39:03.002Z</time></trkpt><trkpt lat="43.325051402009024" lon="11.769140911043722"><ele>260.0</ele><time>2026-04-29T14:39:04.002Z</time></trkpt><trkpt lat="43.32514595199359" lon="11.768851540857929"><ele>260.0</ele><time>2026-04-29T14:39:05.002Z</time></trkpt><trkpt lat="43.32525802003638" lon="11.76857329133075"><ele>260.0</ele><time>2026-04-29T14:39:06.002Z</time></trkpt><trkpt lat="43.32537497922451" lon="11.768305499541508"><ele>260.5</ele><time>2026-04-29T14:39:07.002Z</time></trkpt><trkpt lat="43.32548414175681" lon="11.768029472828"><ele>261.0</ele><time>2026-04-29T14:39:08.002Z</time></trkpt><trkpt lat="43.325578790709244" lon="11.767749434032677"><ele>260.5</ele><time>2026-04-29T14:39:09.002Z</time></trkpt><trkpt lat="43.32566618852676" lon="11.767462596795122"><ele>260.0</ele><time>2026-04-29T14:39:10.002Z</time></trkpt><trkpt lat="43.325748978274355" lon="11.7671708619374"><ele>260.0</ele><time>2026-04-29T14:39:11.002Z</time></trkpt><trkpt lat="43.325827875050145" lon="11.766877190693384"><ele>260.0</ele><time>2026-04-29T14:39:12.002Z</time></trkpt><trkpt lat="43.32590369440662" lon="11.766588313047771"><ele>259.0</ele><time>2026-04-29T14:39:13.002Z</time></trkpt><trkpt lat="43.32598728737563" lon="11.766305236904637"><ele>258.0</ele><time>2026-04-29T14:39:14.002Z</time></trkpt><trkpt lat="43.326087390511496" lon="11.766034192776864"><ele>257.0</ele><time>2026-04-29T14:39:15.003Z</time></trkpt><trkpt lat="43.32620481703529" lon="11.765776996975985"><ele>257.0</ele><time>2026-04-29T14:39:16.003Z</time></trkpt><trkpt lat="43.32633176182605" lon="11.765526950896458"><ele>257.0</ele><time>2026-04-29T14:39:17.003Z</time></trkpt><trkpt lat="43.32646253746241" lon="11.765285683998894"><ele>257.0</ele><time>2026-04-29T14:39:18.003Z</time></trkpt><trkpt lat="43.32659417084678" lon="11.765042461196082"><ele>257.6666666666667</ele><time>2026-04-29T14:39:19.003Z</time></trkpt><trkpt lat="43.32672652773897" lon="11.764804737969518"><ele>258.3333333333333</ele><time>2026-04-29T14:39:20.003Z</time></trkpt><trkpt lat="43.32685604154446" lon="11.76456631296214"><ele>259.0</ele><time>2026-04-29T14:39:21.003Z</time></trkpt><trkpt lat="43.326973726707436" lon="11.764323708635944"><ele>259.3333333333333</ele><time>2026-04-29T14:39:22.003Z</time></trkpt><trkpt lat="43.32706492434849" lon="11.764069338496483"><ele>259.6666666666667</ele><time>2026-04-29T14:39:23.003Z</time></trkpt><trkpt lat="43.32712470644278" lon="11.76381380635297"><ele>260.0</ele><time>2026-04-29T14:39:24.003Z</time></trkpt><trkpt lat="43.32716221581168" lon="11.763552156843552"><ele>260.6666666666667</ele><time>2026-04-29T14:39:25.003Z</time></trkpt><trkpt lat="43.327183092975076" lon="11.763294352980571"><ele>261.3333333333333</ele><time>2026-04-29T14:39:26.003Z</time></trkpt><trkpt lat="43.327190693924926" lon="11.76304339641975"><ele>262.0</ele><time>2026-04-29T14:39:27.003Z</time></trkpt><trkpt lat="43.32719721718921" lon="11.762820306324976"><ele>262.66666666666663</ele><time>2026-04-29T14:39:28.003Z</time></trkpt><trkpt lat="43.32720650295099" lon="11.762605729651353"><ele>263.3333333333333</ele><time>2026-04-29T14:39:29.003Z</time></trkpt><trkpt lat="43.32721410641274" lon="11.762399093783309"><ele>264.0</ele><time>2026-04-29T14:39:30.001Z</time></trkpt><trkpt lat="43.32722271348888" lon="11.762194705967461"><ele>263.3333333333333</ele><time>2026-04-29T14:39:31.001Z</time></trkpt><trkpt lat="43.32723585007748" lon="11.76198306294313"><ele>262.66666666666663</ele><time>2026-04-29T14:39:32.001Z</time></trkpt><trkpt lat="43.32725227570845" lon="11.761776166489003"><ele>262.0</ele><time>2026-04-29T14:39:33.001Z</time></trkpt><trkpt lat="43.32727295184935" lon="11.761570238836187"><ele>263.0</ele><time>2026-04-29T14:39:34.001Z</time></trkpt><trkpt lat="43.327321923805556" lon="11.7614011745964"><ele>264.0</ele><time>2026-04-29T14:39:35.001Z</time></trkpt><trkpt lat="43.32738772530037" lon="11.761223440042274"><ele>265.0</ele><time>2026-04-29T14:39:36.001Z</time></trkpt><trkpt lat="43.32747067004551" lon="11.761062822243597"><ele>266.0</ele><time>2026-04-29T14:39:37.001Z</time></trkpt><trkpt lat="43.32755553691546" lon="11.760916370191229"><ele>266.2</ele><time>2026-04-29T14:39:38.001Z</time></trkpt><trkpt lat="43.327622095642596" lon="11.76078755063105"><ele>266.40000000000003</ele><time>2026-04-29T14:39:39.001Z</time></trkpt><trkpt lat="43.327668399576574" lon="11.760672195269455"><ele>266.6</ele><time>2026-04-29T14:39:40.001Z</time></trkpt><trkpt lat="43.3277267438443" lon="11.760558052658824"><ele>266.8</ele><time>2026-04-29T14:39:41.001Z</time></trkpt><trkpt lat="43.327759924374895" lon="11.760446206109734"><ele>267.0</ele><time>2026-04-29T14:39:42.001Z</time></trkpt><trkpt lat="43.32779032013127" lon="11.76031701165724"><ele>267.5</ele><time>2026-04-29T14:39:43.001Z</time></trkpt><trkpt lat="43.32780583020227" lon="11.76017309377521"><ele>268.0</ele><time>2026-04-29T14:39:44.001Z</time></trkpt><trkpt lat="43.32783944850394" lon="11.76002055864964"><ele>268.5</ele><time>2026-04-29T14:39:45.001Z</time></trkpt><trkpt lat="43.327893129100396" lon="11.759857084316055"><ele>269.0</ele><time>2026-04-29T14:39:46.001Z</time></trkpt><trkpt lat="43.32793450137477" lon="11.759672162374676"><ele>269.0</ele><time>2026-04-29T14:39:47.001Z</time></trkpt><trkpt lat="43.32797867356622" lon="11.759471555404959"><ele>269.0</ele><time>2026-04-29T14:39:48.001Z</time></trkpt><trkpt lat="43.32801164435884" lon="11.759256232653424"><ele>269.0</ele><time>2026-04-29T14:39:49.001Z</time></trkpt><trkpt lat="43.32807265744541" lon="11.759033699042254"><ele>270.0</ele><time>2026-04-29T14:39:50.001Z</time></trkpt><trkpt lat="43.32812458648345" lon="11.758797901477651"><ele>271.0</ele><time>2026-04-29T14:39:51.001Z</time></trkpt><trkpt lat="43.328179985297105" lon="11.758551219466314"><ele>272.0</ele><time>2026-04-29T14:39:52.001Z</time></trkpt><trkpt lat="43.32823618185646" lon="11.758293255496003"><ele>272.0</ele><time>2026-04-29T14:39:53.001Z</time></trkpt><trkpt lat="43.32829550746096" lon="11.75802878434313"><ele>272.0</ele><time>2026-04-29T14:39:54.001Z</time></trkpt><trkpt lat="43.32835828517917" lon="11.75775763403671"><ele>272.0</ele><time>2026-04-29T14:39:55.001Z</time></trkpt><trkpt lat="43.32842571442509" lon="11.757479365096987"><ele>272.0</ele><time>2026-04-29T14:39:56.001Z</time></trkpt><trkpt lat="43.32848348445571" lon="11.75722084625984"><ele>272.0</ele><time>2026-04-29T14:39:57.001Z</time></trkpt><trkpt lat="43.328532608730264" lon="11.75699998820192"><ele>272.0</ele><time>2026-04-29T14:39:58.001Z</time></trkpt><trkpt lat="43.328569534272596" lon="11.75681034265101"><ele>272.33333333333337</ele><time>2026-04-29T14:39:59.001Z</time></trkpt><trkpt lat="43.328595138520704" lon="11.756674273453712"><ele>272.6666666666667</ele><time>2026-04-29T14:40:00.001Z</time></trkpt><trkpt lat="43.328613153857084" lon="11.756586826601435"><ele>273.0</ele><time>2026-04-29T14:40:01.001Z</time></trkpt><trkpt lat="43.32865980985864" lon="11.756524101587988"><ele>273.3333333333333</ele><time>2026-04-29T14:40:12.001Z</time></trkpt><trkpt lat="43.32868115533761" lon="11.756440419338302"><ele>273.66666666666663</ele><time>2026-04-29T14:40:30.002Z</time></trkpt><trkpt lat="43.328704959931784" lon="11.756352036301847"><ele>274.0</ele><time>2026-04-29T14:40:32.002Z</time></trkpt><trkpt lat="43.32873362401274" lon="11.75619510948409"><ele>274.0</ele><time>2026-04-29T14:40:34.002Z</time></trkpt><trkpt lat="43.32875125363645" lon="11.756066597735513"><ele>274.0</ele><time>2026-04-29T14:40:35.002Z</time></trkpt><trkpt lat="43.32878255874439" lon="11.755930497554456"><ele>274.0</ele><time>2026-04-29T14:40:36.002Z</time></trkpt><trkpt lat="43.328816556862044" lon="11.755778772204986"><ele>274.0</ele><time>2026-04-29T14:40:37.002Z</time></trkpt><trkpt lat="43.32885638855831" lon="11.755623872491189"><ele>274.0</ele><time>2026-04-29T14:40:38.002Z</time></trkpt><trkpt lat="43.32889594879664" lon="11.755461191041267"><ele>275.5</ele><time>2026-04-29T14:40:39.002Z</time></trkpt><trkpt lat="43.32893439688175" lon="11.755288339673188"><ele>277.0</ele><time>2026-04-29T14:40:40.002Z</time></trkpt><trkpt lat="43.3289775727167" lon="11.75510753834327"><ele>278.5</ele><time>2026-04-29T14:40:41.002Z</time></trkpt><trkpt lat="43.329027093433396" lon="11.754922668592151"><ele>280.0</ele><time>2026-04-29T14:40:42.002Z</time></trkpt><trkpt lat="43.32907782422767" lon="11.754732051665316"><ele>282.0</ele><time>2026-04-29T14:40:43.002Z</time></trkpt><trkpt lat="43.32910622627927" lon="11.754528043654895"><ele>284.0</ele><time>2026-04-29T14:40:44.002Z</time></trkpt><trkpt lat="43.329103616322115" lon="11.75431785546008"><ele>286.0</ele><time>2026-04-29T14:40:45.002Z</time></trkpt><trkpt lat="43.32906866294805" lon="11.754103428470392"><ele>286.66666666666663</ele><time>2026-04-29T14:40:46.002Z</time></trkpt><trkpt lat="43.328999135897035" lon="11.753901822838657"><ele>287.3333333333333</ele><time>2026-04-29T14:40:47.002Z</time></trkpt><trkpt lat="43.32890111846217" lon="11.753717990362262"><ele>288.0</ele><time>2026-04-29T14:40:48.002Z</time></trkpt><trkpt lat="43.328794827769435" lon="11.753553355617154"><ele>287.0</ele><time>2026-04-29T14:40:49.002Z</time></trkpt><trkpt lat="43.32872704586321" lon="11.753376935147115"><ele>286.0</ele><time>2026-04-29T14:40:50.002Z</time></trkpt><trkpt lat="43.32873325104717" lon="11.753163344018725"><ele>285.0</ele><time>2026-04-29T14:40:51.002Z</time></trkpt><trkpt lat="43.32876710865755" lon="11.752923836286984"><ele>286.3333333333333</ele><time>2026-04-29T14:40:52.002Z</time></trkpt><trkpt lat="43.32883149444862" lon="11.752670142225965"><ele>287.66666666666663</ele><time>2026-04-29T14:40:53.002Z</time></trkpt><trkpt lat="43.3288888003585" lon="11.752406190017789"><ele>289.0</ele><time>2026-04-29T14:40:54.002Z</time></trkpt><trkpt lat="43.32896147074267" lon="11.752131697214791"><ele>284.5</ele><time>2026-04-29T14:40:55.002Z</time></trkpt><trkpt lat="43.32903525759663" lon="11.751838860321724"><ele>280.0</ele><time>2026-04-29T14:40:56.002Z</time></trkpt><trkpt lat="43.329108305740114" lon="11.751540160586542"><ele>280.0</ele><time>2026-04-29T14:40:57.002Z</time></trkpt><trkpt lat="43.32918705744531" lon="11.751233248937169"><ele>280.0</ele><time>2026-04-29T14:40:58.002Z</time></trkpt><trkpt lat="43.32926102946028" lon="11.75092854738791"><ele>277.66666666666663</ele><time>2026-04-29T14:40:59.002Z</time></trkpt><trkpt lat="43.32932591148156" lon="11.750628704043091"><ele>275.3333333333333</ele><time>2026-04-29T14:41:00.002Z</time></trkpt><trkpt lat="43.32938363052411" lon="11.750335625473886"><ele>273.0</ele><time>2026-04-29T14:41:01.002Z</time></trkpt><trkpt lat="43.32942491345385" lon="11.750047266515402"><ele>270.3333333333333</ele><time>2026-04-29T14:41:02.002Z</time></trkpt><trkpt lat="43.32943452450653" lon="11.749747542097053"><ele>267.66666666666663</ele><time>2026-04-29T14:41:03.002Z</time></trkpt><trkpt lat="43.329423521687204" lon="11.749451507510129"><ele>265.0</ele><time>2026-04-29T14:41:04.002Z</time></trkpt><trkpt lat="43.32939140347896" lon="11.749166022876818"><ele>264.0</ele><time>2026-04-29T14:41:05.002Z</time></trkpt><trkpt lat="43.329340825228684" lon="11.748898371201374"><ele>263.0</ele><time>2026-04-29T14:41:06.002Z</time></trkpt><trkpt lat="43.32929283477255" lon="11.748640049058022"><ele>262.0</ele><time>2026-04-29T14:41:07.002Z</time></trkpt><trkpt lat="43.329254528708816" lon="11.748387616747076"><ele>262.0</ele><time>2026-04-29T14:41:08.002Z</time></trkpt><trkpt lat="43.32922176093119" lon="11.748124900132154"><ele>262.0</ele><time>2026-04-29T14:41:09.002Z</time></trkpt><trkpt lat="43.3291929465959" lon="11.747859028393478"><ele>262.0</ele><time>2026-04-29T14:41:10.002Z</time></trkpt><trkpt lat="43.32916131307413" lon="11.747590178588908"><ele>261.66666666666663</ele><time>2026-04-29T14:41:11.002Z</time></trkpt><trkpt lat="43.32913776626757" lon="11.747324585691501"><ele>261.3333333333333</ele><time>2026-04-29T14:41:12.002Z</time></trkpt><trkpt lat="43.32909448735907" lon="11.747057182952007"><ele>261.0</ele><time>2026-04-29T14:41:13.002Z</time></trkpt><trkpt lat="43.329067482915164" lon="11.746808322004277"><ele>261.0</ele><time>2026-04-29T14:41:14.002Z</time></trkpt><trkpt lat="43.32903915436373" lon="11.746550419756733"><ele>261.0</ele><time>2026-04-29T14:41:15.002Z</time></trkpt><trkpt lat="43.32900867482574" lon="11.746294392454216"><ele>261.0</ele><time>2026-04-29T14:41:16.002Z</time></trkpt><trkpt lat="43.32897108629709" lon="11.746037875819923"><ele>260.6666666666667</ele><time>2026-04-29T14:41:17.002Z</time></trkpt><trkpt lat="43.328926133718" lon="11.745780467128299"><ele>260.33333333333337</ele><time>2026-04-29T14:41:18.002Z</time></trkpt><trkpt lat="43.32887230803431" lon="11.745526824717459"><ele>260.0</ele><time>2026-04-29T14:41:19.002Z</time></trkpt><trkpt lat="43.32881309720916" lon="11.74527833769449"><ele>260.0</ele><time>2026-04-29T14:41:20.002Z</time></trkpt><trkpt lat="43.3287511097965" lon="11.745019188385093"><ele>260.0</ele><time>2026-04-29T14:41:21.002Z</time></trkpt><trkpt lat="43.32868674287859" lon="11.744762247046179"><ele>260.0</ele><time>2026-04-29T14:41:22.002Z</time></trkpt><trkpt lat="43.32862134922961" lon="11.744505349192368"><ele>260.0</ele><time>2026-04-29T14:41:23.002Z</time></trkpt><trkpt lat="43.32855743290476" lon="11.744248720413069"><ele>260.0</ele><time>2026-04-29T14:41:24.002Z</time></trkpt><trkpt lat="43.32849379513408" lon="11.743995016100856"><ele>260.0</ele><time>2026-04-29T14:41:25.002Z</time></trkpt><trkpt lat="43.32843223704494" lon="11.743745243318278"><ele>260.0</ele><time>2026-04-29T14:41:26.002Z</time></trkpt><trkpt lat="43.328379001404315" lon="11.743525527362827"><ele>260.0</ele><time>2026-04-29T14:41:27.002Z</time></trkpt><trkpt lat="43.32834349992754" lon="11.743309447323334"><ele>260.0</ele><time>2026-04-29T14:41:28.002Z</time></trkpt><trkpt lat="43.328279572659106" lon="11.74310531299629"><ele>260.0</ele><time>2026-04-29T14:41:29.002Z</time></trkpt><trkpt lat="43.32823056110463" lon="11.74287754864435"><ele>260.0</ele><time>2026-04-29T14:41:30.002Z</time></trkpt><trkpt lat="43.32817662235453" lon="11.742647579219247"><ele>260.0</ele><time>2026-04-29T14:41:31.003Z</time></trkpt><trkpt lat="43.328117896483455" lon="11.742404872744007"><ele>260.33333333333337</ele><time>2026-04-29T14:41:32.003Z</time></trkpt><trkpt lat="43.328059486458955" lon="11.742163739187667"><ele>260.6666666666667</ele><time>2026-04-29T14:41:33.003Z</time></trkpt><trkpt lat="43.32800209080436" lon="11.741927130665488"><ele>261.0</ele><time>2026-04-29T14:41:34.003Z</time></trkpt><trkpt lat="43.32794355648364" lon="11.741690795417739"><ele>261.0</ele><time>2026-04-29T14:41:35.003Z</time></trkpt><trkpt lat="43.32788146153434" lon="11.741450901159999"><ele>261.0</ele><time>2026-04-29T14:41:36.001Z</time></trkpt><trkpt lat="43.32781975042787" lon="11.741205226897268"><ele>261.0</ele><time>2026-04-29T14:41:37.001Z</time></trkpt><trkpt lat="43.32776105928181" lon="11.740950982477305"><ele>261.3333333333333</ele><time>2026-04-29T14:41:38.001Z</time></trkpt><trkpt lat="43.32770501534013" lon="11.740696330452682"><ele>261.66666666666663</ele><time>2026-04-29T14:41:39.001Z</time></trkpt><trkpt lat="43.327648297607205" lon="11.740432665487038"><ele>262.0</ele><time>2026-04-29T14:41:40.001Z</time></trkpt><trkpt lat="43.32759260022116" lon="11.740169623890324"><ele>262.3333333333333</ele><time>2026-04-29T14:41:41.001Z</time></trkpt><trkpt lat="43.327538499600564" lon="11.739906641882545"><ele>262.6666666666667</ele><time>2026-04-29T14:41:42.001Z</time></trkpt><trkpt lat="43.32749238004202" lon="11.73966440964664"><ele>263.0</ele><time>2026-04-29T14:41:43.001Z</time></trkpt><trkpt lat="43.32747459217023" lon="11.739442057460941"><ele>263.0</ele><time>2026-04-29T14:41:44.001Z</time></trkpt><trkpt lat="43.32751541540797" lon="11.739228731087705"><ele>263.0</ele><time>2026-04-29T14:41:45.001Z</time></trkpt><trkpt lat="43.32756804979873" lon="11.739000173763994"><ele>263.0</ele><time>2026-04-29T14:41:46.001Z</time></trkpt><trkpt lat="43.32763010175318" lon="11.7387636051788"><ele>263.0</ele><time>2026-04-29T14:41:47.001Z</time></trkpt><trkpt lat="43.32768538901768" lon="11.73851958878579"><ele>263.0</ele><time>2026-04-29T14:41:48.001Z</time></trkpt><trkpt lat="43.32776390267227" lon="11.738275321826489"><ele>263.0</ele><time>2026-04-29T14:41:49.001Z</time></trkpt><trkpt lat="43.32783656305838" lon="11.738031050590383"><ele>263.0</ele><time>2026-04-29T14:41:50.001Z</time></trkpt><trkpt lat="43.32791267952989" lon="11.737779426137992"><ele>263.0</ele><time>2026-04-29T14:41:51.001Z</time></trkpt><trkpt lat="43.32799555644486" lon="11.737525760628191"><ele>263.0</ele><time>2026-04-29T14:41:52.001Z</time></trkpt><trkpt lat="43.3280852296082" lon="11.737278467909496"><ele>263.6666666666667</ele><time>2026-04-29T14:41:53.001Z</time></trkpt><trkpt lat="43.328188745370355" lon="11.737037521967661"><ele>264.3333333333333</ele><time>2026-04-29T14:41:54.001Z</time></trkpt><trkpt lat="43.32829739312691" lon="11.736795445052591"><ele>265.0</ele><time>2026-04-29T14:41:55.001Z</time></trkpt><trkpt lat="43.32840371477939" lon="11.736556407287258"><ele>265.0</ele><time>2026-04-29T14:41:56.001Z</time></trkpt><trkpt lat="43.32850853174161" lon="11.736305131986551"><ele>265.0</ele><time>2026-04-29T14:41:57.001Z</time></trkpt><trkpt lat="43.32861067932858" lon="11.73605733188811"><ele>265.0</ele><time>2026-04-29T14:41:58.001Z</time></trkpt><trkpt lat="43.32871702843331" lon="11.735814122957308"><ele>264.3333333333333</ele><time>2026-04-29T14:41:59.001Z</time></trkpt><trkpt lat="43.328838216839486" lon="11.73558166352954"><ele>263.6666666666667</ele><time>2026-04-29T14:42:00.001Z</time></trkpt><trkpt lat="43.32898032605881" lon="11.735372611482235"><ele>263.0</ele><time>2026-04-29T14:42:01.001Z</time></trkpt><trkpt lat="43.32913948249455" lon="11.735181586161282"><ele>262.6666666666667</ele><time>2026-04-29T14:42:02.001Z</time></trkpt><trkpt lat="43.329306081372486" lon="11.73499972058335"><ele>262.3333333333333</ele><time>2026-04-29T14:42:03.001Z</time></trkpt><trkpt lat="43.329468891702646" lon="11.734815692629057"><ele>262.0</ele><time>2026-04-29T14:42:04.001Z</time></trkpt><trkpt lat="43.32962739459915" lon="11.734629722367536"><ele>262.3333333333333</ele><time>2026-04-29T14:42:05.001Z</time></trkpt><trkpt lat="43.32978130753034" lon="11.734443860880633"><ele>262.6666666666667</ele><time>2026-04-29T14:42:06.001Z</time></trkpt><trkpt lat="43.32991798945763" lon="11.734270421294132"><ele>263.0</ele><time>2026-04-29T14:42:07.001Z</time></trkpt><trkpt lat="43.33001840204145" lon="11.734092079533436"><ele>263.33333333333337</ele><time>2026-04-29T14:42:08.001Z</time></trkpt><trkpt lat="43.33009248258054" lon="11.733883988144456"><ele>263.6666666666667</ele><time>2026-04-29T14:42:09.001Z</time></trkpt><trkpt lat="43.330138419012506" lon="11.733655727256147"><ele>264.0</ele><time>2026-04-29T14:42:10.001Z</time></trkpt><trkpt lat="43.33015275301317" lon="11.73341115237976"><ele>264.0</ele><time>2026-04-29T14:42:11.001Z</time></trkpt><trkpt lat="43.330144557025775" lon="11.733173322002049"><ele>264.0</ele><time>2026-04-29T14:42:12.001Z</time></trkpt><trkpt lat="43.3301414814129" lon="11.732935107382147"><ele>264.0</ele><time>2026-04-29T14:42:13.001Z</time></trkpt><trkpt lat="43.33017674773542" lon="11.73273619988466"><ele>264.75</ele><time>2026-04-29T14:42:14.001Z</time></trkpt><trkpt lat="43.33021353372303" lon="11.732554652257914"><ele>265.5</ele><time>2026-04-29T14:42:15.001Z</time></trkpt><trkpt lat="43.33024900050935" lon="11.732373067787606"><ele>266.25</ele><time>2026-04-29T14:42:16.001Z</time></trkpt><trkpt lat="43.33032361693244" lon="11.73221127797998"><ele>267.0</ele><time>2026-04-29T14:42:17.001Z</time></trkpt><trkpt lat="43.33039664979152" lon="11.732055471938512"><ele>267.0</ele><time>2026-04-29T14:42:18.001Z</time></trkpt><trkpt lat="43.33044120914071" lon="11.73193433098203"><ele>267.0</ele><time>2026-04-29T14:42:19.001Z</time></trkpt><trkpt lat="43.33050636366583" lon="11.731860008657572"><ele>267.0</ele><time>2026-04-29T14:42:20.001Z</time></trkpt><trkpt lat="43.33057273571934" lon="11.731778753595957"><ele>267.0</ele><time>2026-04-29T14:42:21.001Z</time></trkpt><trkpt lat="43.330639218728685" lon="11.731680389749492"><ele>267.0</ele><time>2026-04-29T14:42:22.001Z</time></trkpt><trkpt lat="43.330708996391216" lon="11.731586406244856"><ele>266.8333333333333</ele><time>2026-04-29T14:42:23.001Z</time></trkpt><trkpt lat="43.33077970402622" lon="11.731500488140107"><ele>266.6666666666667</ele><time>2026-04-29T14:42:24.001Z</time></trkpt><trkpt lat="43.33085203750752" lon="11.731428593135126"><ele>266.5</ele><time>2026-04-29T14:42:25.001Z</time></trkpt><trkpt lat="43.330922669563336" lon="11.731373373048653"><ele>266.33333333333337</ele><time>2026-04-29T14:42:26.001Z</time></trkpt><trkpt lat="43.33098744226061" lon="11.731330274201802"><ele>266.1666666666667</ele><time>2026-04-29T14:42:27.001Z</time></trkpt><trkpt lat="43.331083532202115" lon="11.731277356577577"><ele>266.0</ele><time>2026-04-29T14:42:29.001Z</time></trkpt><trkpt lat="43.33104446931745" lon="11.731053987526318"><ele>267.0</ele><time>2026-04-29T14:42:32.001Z</time></trkpt><trkpt lat="43.33093819439783" lon="11.730981539533113"><ele>268.0</ele><time>2026-04-29T14:42:34.001Z</time></trkpt><trkpt lat="43.33084895906086" lon="11.730968237027229"><ele>269.0</ele><time>2026-04-29T14:42:35.001Z</time></trkpt><trkpt lat="43.3307462614214" lon="11.730958171863389"><ele>270.0</ele><time>2026-04-29T14:42:36.001Z</time></trkpt><trkpt lat="43.33062986545725" lon="11.73096159506657"><ele>271.0</ele><time>2026-04-29T14:42:37.001Z</time></trkpt><trkpt lat="43.33052152997159" lon="11.730979050393902"><ele>270.40000000000003</ele><time>2026-04-29T14:42:38.001Z</time></trkpt><trkpt lat="43.330417127689834" lon="11.731020634759085"><ele>269.8</ele><time>2026-04-29T14:42:39.001Z</time></trkpt><trkpt lat="43.330314005006116" lon="11.731071239524937"><ele>269.20000000000005</ele><time>2026-04-29T14:42:40.001Z</time></trkpt><trkpt lat="43.330214463372485" lon="11.731128147374765"><ele>268.6</ele><time>2026-04-29T14:42:41.001Z</time></trkpt><trkpt lat="43.33012344381681" lon="11.731177798119797"><ele>268.0</ele><time>2026-04-29T14:42:42.001Z</time></trkpt><trkpt lat="43.33003983648993" lon="11.731218408232772"><ele>268.0</ele><time>2026-04-29T14:42:43.001Z</time></trkpt><trkpt lat="43.32996945251748" lon="11.731242060741598"><ele>268.0</ele><time>2026-04-29T14:42:44.002Z</time></trkpt><trkpt lat="43.329875177299414" lon="11.731215740723657"><ele>268.0</ele><time>2026-04-29T14:42:46.002Z</time></trkpt><trkpt lat="43.329844599026515" lon="11.73103447833446"><ele>268.0</ele><time>2026-04-29T14:42:49.002Z</time></trkpt><trkpt lat="43.32986157542504" lon="11.730916038103757"><ele>268.0</ele><time>2026-04-29T14:42:50.002Z</time></trkpt><trkpt lat="43.32989288457391" lon="11.730809645502744"><ele>269.4</ele><time>2026-04-29T14:42:51.002Z</time></trkpt><trkpt lat="43.32992628410718" lon="11.730694145968892"><ele>270.8</ele><time>2026-04-29T14:42:52.002Z</time></trkpt><trkpt lat="43.329950615107855" lon="11.73058361943792"><ele>272.2</ele><time>2026-04-29T14:42:53.002Z</time></trkpt><trkpt lat="43.329975047046354" lon="11.73047083987258"><ele>273.6</ele><time>2026-04-29T14:42:54.002Z</time></trkpt><trkpt lat="43.33000857315798" lon="11.73034975220198"><ele>275.0</ele><time>2026-04-29T14:42:55.002Z</time></trkpt><trkpt lat="43.33004968077974" lon="11.73022517096455"><ele>276.2</ele><time>2026-04-29T14:42:56.002Z</time></trkpt><trkpt lat="43.33010140188989" lon="11.730111035411976"><ele>277.4</ele><time>2026-04-29T14:42:57.002Z</time></trkpt><trkpt lat="43.33016633133112" lon="11.730018126125936"><ele>278.6</ele><time>2026-04-29T14:42:58.002Z</time></trkpt><trkpt lat="43.33024163170983" lon="11.729934747568391"><ele>279.8</ele><time>2026-04-29T14:42:59.002Z</time></trkpt><trkpt lat="43.33032024729399" lon="11.729865947687179"><ele>281.0</ele><time>2026-04-29T14:43:00.002Z</time></trkpt><trkpt lat="43.33040772513075" lon="11.729808904667829"><ele>281.0</ele><time>2026-04-29T14:43:01.002Z</time></trkpt><trkpt lat="43.33050180800464" lon="11.729770317716762"><ele>281.0</ele><time>2026-04-29T14:43:02.002Z</time></trkpt><trkpt lat="43.33060314011323" lon="11.729747582793355"><ele>281.0</ele><time>2026-04-29T14:43:03.002Z</time></trkpt><trkpt lat="43.33069893426924" lon="11.729738958823061"><ele>281.0</ele><time>2026-04-29T14:43:04.002Z</time></trkpt><trkpt lat="43.3307908693559" lon="11.729726614081708"><ele>281.0</ele><time>2026-04-29T14:43:05.002Z</time></trkpt><trkpt lat="43.33088134151038" lon="11.729704510679534"><ele>280.6</ele><time>2026-04-29T14:43:06.002Z</time></trkpt><trkpt lat="43.33096992904297" lon="11.729671700819338"><ele>280.20000000000005</ele><time>2026-04-29T14:43:07.002Z</time></trkpt><trkpt lat="43.33105169674176" lon="11.729617678662617"><ele>279.79999999999995</ele><time>2026-04-29T14:43:08.002Z</time></trkpt><trkpt lat="43.33112119599739" lon="11.729536293415121"><ele>279.4</ele><time>2026-04-29T14:43:09.002Z</time></trkpt><trkpt lat="43.33117289840745" lon="11.729435009625531"><ele>279.0</ele><time>2026-04-29T14:43:10.002Z</time></trkpt><trkpt lat="43.33122097845422" lon="11.72933431717376"><ele>279.0</ele><time>2026-04-29T14:43:11.002Z</time></trkpt><trkpt lat="43.331266368646304" lon="11.72923089503738"><ele>279.0</ele><time>2026-04-29T14:43:12.002Z</time></trkpt><trkpt lat="43.331317155927145" lon="11.729120078561204"><ele>279.0</ele><time>2026-04-29T14:43:13.002Z</time></trkpt><trkpt lat="43.3313711584382" lon="11.729002560168924"><ele>279.0</ele><time>2026-04-29T14:43:14.002Z</time></trkpt><trkpt lat="43.331442593228566" lon="11.728884383184198"><ele>279.0</ele><time>2026-04-29T14:43:15.002Z</time></trkpt><trkpt lat="43.33151644275563" lon="11.728739631766578"><ele>279.0</ele><time>2026-04-29T14:43:16.002Z</time></trkpt><trkpt lat="43.33159832716114" lon="11.728585687286118"><ele>279.0</ele><time>2026-04-29T14:43:17.002Z</time></trkpt><trkpt lat="43.33167989578094" lon="11.728411438131356"><ele>279.0</ele><time>2026-04-29T14:43:18.002Z</time></trkpt><trkpt lat="43.331779614381716" lon="11.728248375848064"><ele>279.0</ele><time>2026-04-29T14:43:19.002Z</time></trkpt><trkpt lat="43.33187020565542" lon="11.728074435829146"><ele>281.0</ele><time>2026-04-29T14:43:20.002Z</time></trkpt><trkpt lat="43.331937847999896" lon="11.72791211234985"><ele>283.0</ele><time>2026-04-29T14:43:21.002Z</time></trkpt><trkpt lat="43.3319676831448" lon="11.727776442848192"><ele>285.0</ele><time>2026-04-29T14:43:22.002Z</time></trkpt><trkpt lat="43.33196464420214" lon="11.727685771167085"><ele>287.0</ele><time>2026-04-29T14:43:23.002Z</time></trkpt><trkpt lat="43.331930265794135" lon="11.727597666772333"><ele>289.0</ele><time>2026-04-29T14:43:27.002Z</time></trkpt><trkpt lat="43.331799031791654" lon="11.727727219039284"><ele>289.0</ele><time>2026-04-29T14:43:29.002Z</time></trkpt><trkpt lat="43.33174584969825" lon="11.72784475366057"><ele>289.0</ele><time>2026-04-29T14:43:30.002Z</time></trkpt><trkpt lat="43.33166835905251" lon="11.727951998008557"><ele>289.0</ele><time>2026-04-29T14:43:31.002Z</time></trkpt><trkpt lat="43.33157399243729" lon="11.728050491414386"><ele>289.0</ele><time>2026-04-29T14:43:32.002Z</time></trkpt><trkpt lat="43.33146370902991" lon="11.728139955099897"><ele>292.25</ele><time>2026-04-29T14:43:33.002Z</time></trkpt><trkpt lat="43.331342034053876" lon="11.728223139322466"><ele>295.5</ele><time>2026-04-29T14:43:34.002Z</time></trkpt><trkpt lat="43.331207671606464" lon="11.728289748105018"><ele>298.75</ele><time>2026-04-29T14:43:35.002Z</time></trkpt><trkpt lat="43.33106298731223" lon="11.728329386265903"><ele>302.0</ele><time>2026-04-29T14:43:36.002Z</time></trkpt><trkpt lat="43.33091360983188" lon="11.728354374722336"><ele>302.0</ele><time>2026-04-29T14:43:37.002Z</time></trkpt><trkpt lat="43.33076946007524" lon="11.72835661809948"><ele>302.0</ele><time>2026-04-29T14:43:38.002Z</time></trkpt><trkpt lat="43.330625275767936" lon="11.7283239408181"><ele>302.0</ele><time>2026-04-29T14:43:39.002Z</time></trkpt><trkpt lat="43.330486749958865" lon="11.728262718516616"><ele>302.0</ele><time>2026-04-29T14:43:40.002Z</time></trkpt><trkpt lat="43.330346738438664" lon="11.728193188286468"><ele>302.6666666666667</ele><time>2026-04-29T14:43:41.002Z</time></trkpt><trkpt lat="43.3302072965619" lon="11.728132197678338"><ele>303.3333333333333</ele><time>2026-04-29T14:43:42.001Z</time></trkpt><trkpt lat="43.33006143077474" lon="11.728077761142337"><ele>304.0</ele><time>2026-04-29T14:43:43.001Z</time></trkpt><trkpt lat="43.32991270301321" lon="11.728029282307485"><ele>304.0</ele><time>2026-04-29T14:43:44.001Z</time></trkpt><trkpt lat="43.3297768797161" lon="11.727978207577332"><ele>304.0</ele><time>2026-04-29T14:43:45.001Z</time></trkpt><trkpt lat="43.32965615218307" lon="11.727919608709275"><ele>304.0</ele><time>2026-04-29T14:43:46.001Z</time></trkpt><trkpt lat="43.32955513974186" lon="11.727843586625035"><ele>304.0</ele><time>2026-04-29T14:43:47.001Z</time></trkpt><trkpt lat="43.32948512913543" lon="11.727745935966016"><ele>304.4</ele><time>2026-04-29T14:43:48.001Z</time></trkpt><trkpt lat="43.32945389567927" lon="11.727633224389905"><ele>304.79999999999995</ele><time>2026-04-29T14:43:49.001Z</time></trkpt><trkpt lat="43.32946124047451" lon="11.727491550653045"><ele>305.20000000000005</ele><time>2026-04-29T14:43:50.001Z</time></trkpt><trkpt lat="43.3294794026594" lon="11.727327893788976"><ele>305.6</ele><time>2026-04-29T14:43:51.001Z</time></trkpt><trkpt lat="43.32950436147292" lon="11.727146554473217"><ele>306.0</ele><time>2026-04-29T14:43:52.001Z</time></trkpt><trkpt lat="43.329532870669105" lon="11.72694764992752"><ele>306.0</ele><time>2026-04-29T14:43:53.001Z</time></trkpt><trkpt lat="43.32956719759433" lon="11.726739198058135"><ele>306.0</ele><time>2026-04-29T14:43:54.001Z</time></trkpt><trkpt lat="43.32961348640134" lon="11.726530373316432"><ele>306.0</ele><time>2026-04-29T14:43:55.001Z</time></trkpt><trkpt lat="43.32967325517501" lon="11.726324616707911"><ele>310.3333333333333</ele><time>2026-04-29T14:43:56.001Z</time></trkpt><trkpt lat="43.3297476872766" lon="11.72612425387236"><ele>314.66666666666663</ele><time>2026-04-29T14:43:57Z</time></trkpt><trkpt lat="43.32983910412319" lon="11.725920993845087"><ele>319.0</ele><time>2026-04-29T14:43:58Z</time></trkpt><trkpt lat="43.32994039987243" lon="11.725710473737529"><ele>319.0</ele><time>2026-04-29T14:43:59Z</time></trkpt><trkpt lat="43.33004713707281" lon="11.725496645707114"><ele>319.0</ele><time>2026-04-29T14:44:00Z</time></trkpt><trkpt lat="43.33015888640095" lon="11.725280496638016"><ele>319.0</ele><time>2026-04-29T14:44:01Z</time></trkpt><trkpt lat="43.330273109090236" lon="11.725059120468659"><ele>319.3333333333333</ele><time>2026-04-29T14:44:02Z</time></trkpt><trkpt lat="43.330392421076596" lon="11.7248361634252"><ele>319.6666666666667</ele><time>2026-04-29T14:44:03Z</time></trkpt><trkpt lat="43.33051097801335" lon="11.724607589692159"><ele>320.0</ele><time>2026-04-29T14:44:04Z</time></trkpt><trkpt lat="43.33063038885489" lon="11.724378721228575"><ele>320.0</ele><time>2026-04-29T14:44:05Z</time></trkpt><trkpt lat="43.33074061635283" lon="11.724167032258988"><ele>320.0</ele><time>2026-04-29T14:44:06Z</time></trkpt><trkpt lat="43.33084037982266" lon="11.723997591220359"><ele>320.0</ele><time>2026-04-29T14:44:07Z</time></trkpt><trkpt lat="43.3309477482133" lon="11.723871581078974"><ele>320.0</ele><time>2026-04-29T14:44:08Z</time></trkpt><trkpt lat="43.331076544408454" lon="11.723804613348397"><ele>320.0</ele><time>2026-04-29T14:44:09Z</time></trkpt><trkpt lat="43.331222426265555" lon="11.723752713088963"><ele>320.0</ele><time>2026-04-29T14:44:10Z</time></trkpt><trkpt lat="43.331361188323875" lon="11.7237109879677"><ele>320.0</ele><time>2026-04-29T14:44:11Z</time></trkpt><trkpt lat="43.33148280300352" lon="11.723673914397734"><ele>320.5</ele><time>2026-04-29T14:44:12Z</time></trkpt><trkpt lat="43.33159229902111" lon="11.723634672759442"><ele>321.0</ele><time>2026-04-29T14:44:13Z</time></trkpt><trkpt lat="43.33167940930102" lon="11.723600787227014"><ele>321.5</ele><time>2026-04-29T14:44:14Z</time></trkpt><trkpt lat="43.33175288537209" lon="11.723571540521483"><ele>322.0</ele><time>2026-04-29T14:44:15Z</time></trkpt><trkpt lat="43.33182298385932" lon="11.72353059486522"><ele>322.5</ele><time>2026-04-29T14:44:16Z</time></trkpt><trkpt lat="43.33189159841102" lon="11.723458342431272"><ele>323.0</ele><time>2026-04-29T14:44:17Z</time></trkpt><trkpt lat="43.33195776281695" lon="11.723364859466475"><ele>323.0</ele><time>2026-04-29T14:44:18Z</time></trkpt><trkpt lat="43.33202528653643" lon="11.723257515248287"><ele>323.0</ele><time>2026-04-29T14:44:19Z</time></trkpt><trkpt lat="43.33209170140057" lon="11.723152525741328"><ele>323.0</ele><time>2026-04-29T14:44:20Z</time></trkpt><trkpt lat="43.332169242298015" lon="11.723033070948183"><ele>323.0</ele><time>2026-04-29T14:44:21Z</time></trkpt><trkpt lat="43.33225097128231" lon="11.72290289867551"><ele>323.0</ele><time>2026-04-29T14:44:22Z</time></trkpt><trkpt lat="43.33233625868066" lon="11.722761111447223"><ele>322.5</ele><time>2026-04-29T14:44:23Z</time></trkpt><trkpt lat="43.33241766397913" lon="11.722601763759304"><ele>322.0</ele><time>2026-04-29T14:44:24Z</time></trkpt><trkpt lat="43.33250242407351" lon="11.722439972483631"><ele>321.5</ele><time>2026-04-29T14:44:25Z</time></trkpt><trkpt lat="43.332595375551236" lon="11.722277087047262"><ele>321.0</ele><time>2026-04-29T14:44:26Z</time></trkpt><trkpt lat="43.33268329152924" lon="11.722105971579833"><ele>321.0</ele><time>2026-04-29T14:44:27Z</time></trkpt><trkpt lat="43.33275367999502" lon="11.721923090696738"><ele>321.0</ele><time>2026-04-29T14:44:28Z</time></trkpt><trkpt lat="43.33279668417614" lon="11.721723861127264"><ele>321.0</ele><time>2026-04-29T14:44:29Z</time></trkpt><trkpt lat="43.33281262627767" lon="11.72150855421101"><ele>321.0</ele><time>2026-04-29T14:44:30Z</time></trkpt><trkpt lat="43.332817574325055" lon="11.721291674121195"><ele>321.0</ele><time>2026-04-29T14:44:31Z</time></trkpt><trkpt lat="43.33281840896829" lon="11.72107286726817"><ele>321.0</ele><time>2026-04-29T14:44:32Z</time></trkpt><trkpt lat="43.332820357181866" lon="11.720849827352358"><ele>322.3333333333333</ele><time>2026-04-29T14:44:33Z</time></trkpt><trkpt lat="43.332822154372" lon="11.720626777897115"><ele>323.66666666666663</ele><time>2026-04-29T14:44:34Z</time></trkpt><trkpt lat="43.33282145600208" lon="11.720403874367399"><ele>325.0</ele><time>2026-04-29T14:44:35Z</time></trkpt><trkpt lat="43.332820598039596" lon="11.72018583820784"><ele>326.25</ele><time>2026-04-29T14:44:36Z</time></trkpt><trkpt lat="43.332814686228055" lon="11.71997992807066"><ele>327.5</ele><time>2026-04-29T14:44:37Z</time></trkpt><trkpt lat="43.332804459692255" lon="11.71978232999693"><ele>328.75</ele><time>2026-04-29T14:44:38Z</time></trkpt><trkpt lat="43.332787941007055" lon="11.719588911870517"><ele>330.0</ele><time>2026-04-29T14:44:39Z</time></trkpt><trkpt lat="43.332763726897106" lon="11.719404603058798"><ele>331.0</ele><time>2026-04-29T14:44:40Z</time></trkpt><trkpt lat="43.3327383886562" lon="11.719224154921104"><ele>332.0</ele><time>2026-04-29T14:44:41Z</time></trkpt><trkpt lat="43.332698847741845" lon="11.719049346029335"><ele>333.0</ele><time>2026-04-29T14:44:42Z</time></trkpt><trkpt lat="43.332645587492905" lon="11.718884002578099"><ele>334.0</ele><time>2026-04-29T14:44:43Z</time></trkpt><trkpt lat="43.332568671256155" lon="11.718741607793666"><ele>334.0</ele><time>2026-04-29T14:44:44Z</time></trkpt><trkpt lat="43.332477960368166" lon="11.718615253802135"><ele>334.0</ele><time>2026-04-29T14:44:45Z</time></trkpt><trkpt lat="43.33237699113032" lon="11.718501005046361"><ele>334.0</ele><time>2026-04-29T14:44:46Z</time></trkpt><trkpt lat="43.33227484766324" lon="11.718387074445625"><ele>334.0</ele><time>2026-04-29T14:44:47Z</time></trkpt><trkpt lat="43.33217374876478" lon="11.718279201054365"><ele>335.0</ele><time>2026-04-29T14:44:48Z</time></trkpt><trkpt lat="43.332072800572014" lon="11.718170459556708"><ele>336.0</ele><time>2026-04-29T14:44:49Z</time></trkpt><trkpt lat="43.331972254438774" lon="11.718064165689944"><ele>337.0</ele><time>2026-04-29T14:44:50Z</time></trkpt><trkpt lat="43.331869242829534" lon="11.717958888473852"><ele>338.0</ele><time>2026-04-29T14:44:51Z</time></trkpt><trkpt lat="43.33176755846645" lon="11.717851696439064"><ele>338.0</ele><time>2026-04-29T14:44:52.001Z</time></trkpt><trkpt lat="43.331664986008654" lon="11.71774045740959"><ele>338.0</ele><time>2026-04-29T14:44:53.001Z</time></trkpt><trkpt lat="43.33156266059269" lon="11.717627796977927"><ele>338.0</ele><time>2026-04-29T14:44:54.001Z</time></trkpt><trkpt lat="43.33146198262252" lon="11.717510381572914"><ele>338.0</ele><time>2026-04-29T14:44:55.001Z</time></trkpt><trkpt lat="43.331364896531944" lon="11.717383065608225"><ele>338.0</ele><time>2026-04-29T14:44:56.001Z</time></trkpt><trkpt lat="43.33126929713167" lon="11.717251272280672"><ele>338.0</ele><time>2026-04-29T14:44:57.001Z</time></trkpt><trkpt lat="43.33117524368173" lon="11.717110542478789"><ele>338.0</ele><time>2026-04-29T14:44:58.001Z</time></trkpt><trkpt lat="43.33108421013222" lon="11.716965281994018"><ele>338.0</ele><time>2026-04-29T14:44:59.001Z</time></trkpt><trkpt lat="43.3310000890834" lon="11.716815727276217"><ele>337.75</ele><time>2026-04-29T14:45:00.001Z</time></trkpt><trkpt lat="43.33092161983934" lon="11.716659805389346"><ele>337.5</ele><time>2026-04-29T14:45:01.001Z</time></trkpt><trkpt lat="43.33085136774091" lon="11.716502379240278"><ele>337.25</ele><time>2026-04-29T14:45:02.001Z</time></trkpt><trkpt lat="43.33078268787401" lon="11.716340480965087"><ele>337.0</ele><time>2026-04-29T14:45:03.001Z</time></trkpt><trkpt lat="43.33071520364028" lon="11.716182425117927"><ele>338.0</ele><time>2026-04-29T14:45:04.001Z</time></trkpt><trkpt lat="43.33064841812082" lon="11.716028873359694"><ele>339.0</ele><time>2026-04-29T14:45:05.001Z</time></trkpt><trkpt lat="43.330580400636734" lon="11.715878838321991"><ele>340.0</ele><time>2026-04-29T14:45:06.001Z</time></trkpt><trkpt lat="43.33050557999034" lon="11.715740890417763"><ele>341.0</ele><time>2026-04-29T14:45:07.001Z</time></trkpt><trkpt lat="43.330414375084764" lon="11.715616344947042"><ele>341.0</ele><time>2026-04-29T14:45:08.001Z</time></trkpt><trkpt lat="43.330306472888765" lon="11.715511550904116"><ele>341.0</ele><time>2026-04-29T14:45:09.001Z</time></trkpt><trkpt lat="43.33019331430427" lon="11.715406733055598"><ele>341.0</ele><time>2026-04-29T14:45:10.001Z</time></trkpt><trkpt lat="43.33005790951419" lon="11.715329899754943"><ele>341.0</ele><time>2026-04-29T14:45:11.001Z</time></trkpt><trkpt lat="43.32991420394241" lon="11.715285863896899"><ele>341.75</ele><time>2026-04-29T14:45:12.001Z</time></trkpt><trkpt lat="43.32977499498801" lon="11.715213852335419"><ele>342.5</ele><time>2026-04-29T14:45:13.001Z</time></trkpt><trkpt lat="43.329634180627814" lon="11.71513638443982"><ele>343.25</ele><time>2026-04-29T14:45:14.001Z</time></trkpt><trkpt lat="43.329502671235126" lon="11.715043559479597"><ele>344.0</ele><time>2026-04-29T14:45:15.001Z</time></trkpt><trkpt lat="43.32938635942323" lon="11.714934234841671"><ele>344.0</ele><time>2026-04-29T14:45:16.001Z</time></trkpt><trkpt lat="43.329307810291226" lon="11.714804185781585"><ele>344.0</ele><time>2026-04-29T14:45:17.001Z</time></trkpt><trkpt lat="43.32929019556926" lon="11.714677395995638"><ele>344.0</ele><time>2026-04-29T14:45:18.001Z</time></trkpt><trkpt lat="43.32931785684934" lon="11.714531959237732"><ele>344.0</ele><time>2026-04-29T14:45:19.001Z</time></trkpt><trkpt lat="43.32937072556933" lon="11.71436953985376"><ele>345.0</ele><time>2026-04-29T14:45:20.001Z</time></trkpt><trkpt lat="43.32942160130893" lon="11.714194263362218"><ele>346.0</ele><time>2026-04-29T14:45:21.001Z</time></trkpt><trkpt lat="43.329474037489156" lon="11.714004101115643"><ele>347.0</ele><time>2026-04-29T14:45:22.001Z</time></trkpt><trkpt lat="43.32952458469504" lon="11.713804253745975"><ele>348.0</ele><time>2026-04-29T14:45:23.001Z</time></trkpt><trkpt lat="43.329563318953596" lon="11.713598707446717"><ele>349.6666666666667</ele><time>2026-04-29T14:45:24.001Z</time></trkpt><trkpt lat="43.32956847904996" lon="11.713391101930435"><ele>351.33333333333337</ele><time>2026-04-29T14:45:25.001Z</time></trkpt><trkpt lat="43.329527354431306" lon="11.713193010485819"><ele>353.0</ele><time>2026-04-29T14:45:26.001Z</time></trkpt><trkpt lat="43.32944831043809" lon="11.71301613525564"><ele>353.0</ele><time>2026-04-29T14:45:27.001Z</time></trkpt><trkpt lat="43.32933983837766" lon="11.712857898479667"><ele>353.0</ele><time>2026-04-29T14:45:28.001Z</time></trkpt><trkpt lat="43.329208164985644" lon="11.712718013271644"><ele>353.0</ele><time>2026-04-29T14:45:29.001Z</time></trkpt><trkpt lat="43.329068174843414" lon="11.712582731979557"><ele>353.6666666666667</ele><time>2026-04-29T14:45:30.001Z</time></trkpt><trkpt lat="43.32892105817311" lon="11.712447009759655"><ele>354.3333333333333</ele><time>2026-04-29T14:45:31.001Z</time></trkpt><trkpt lat="43.32876643833566" lon="11.712322180931727"><ele>355.0</ele><time>2026-04-29T14:45:32.001Z</time></trkpt><trkpt lat="43.32860077269526" lon="11.71221606546578"><ele>356.0</ele><time>2026-04-29T14:45:33.001Z</time></trkpt><trkpt lat="43.32842430721204" lon="11.712139652416033"><ele>357.0</ele><time>2026-04-29T14:45:34.001Z</time></trkpt><trkpt lat="43.32824963065529" lon="11.712098518547359"><ele>358.0</ele><time>2026-04-29T14:45:35.001Z</time></trkpt><trkpt lat="43.32809304796012" lon="11.712079075154067"><ele>359.0</ele><time>2026-04-29T14:45:36.001Z</time></trkpt><trkpt lat="43.327947080988025" lon="11.712055214106028"><ele>360.0</ele><time>2026-04-29T14:45:37.001Z</time></trkpt><trkpt lat="43.327816716027556" lon="11.712007792851507"><ele>361.0</ele><time>2026-04-29T14:45:38.001Z</time></trkpt><trkpt lat="43.32770223368622" lon="11.711919669455742"><ele>362.0</ele><time>2026-04-29T14:45:39.001Z</time></trkpt><trkpt lat="43.3276036335002" lon="11.711795107844402"><ele>364.25</ele><time>2026-04-29T14:45:40.001Z</time></trkpt><trkpt lat="43.32751885706779" lon="11.711659471935713"><ele>366.5</ele><time>2026-04-29T14:45:41.001Z</time></trkpt><trkpt lat="43.32742828341277" lon="11.711530076625078"><ele>368.75</ele><time>2026-04-29T14:45:42.001Z</time></trkpt><trkpt lat="43.32732251208652" lon="11.711419777653585"><ele>371.0</ele><time>2026-04-29T14:45:43.001Z</time></trkpt><trkpt lat="43.327202431739316" lon="11.711351046529053"><ele>373.0</ele><time>2026-04-29T14:45:44.001Z</time></trkpt><trkpt lat="43.32706609028903" lon="11.711340816105492"><ele>375.0</ele><time>2026-04-29T14:45:45.001Z</time></trkpt><trkpt lat="43.32693116664523" lon="11.711389619341672"><ele>377.0</ele><time>2026-04-29T14:45:46.001Z</time></trkpt><trkpt lat="43.32680203519668" lon="11.711477239683079"><ele>379.0</ele><time>2026-04-29T14:45:47.001Z</time></trkpt><trkpt lat="43.32668125765566" lon="11.711569479469231"><ele>379.0</ele><time>2026-04-29T14:45:48Z</time></trkpt><trkpt lat="43.326554602038904" lon="11.711629281543198"><ele>379.0</ele><time>2026-04-29T14:45:49Z</time></trkpt><trkpt lat="43.326445629396865" lon="11.711721070284062"><ele>379.0</ele><time>2026-04-29T14:45:50Z</time></trkpt><trkpt lat="43.32633122996651" lon="11.711788287328627"><ele>379.0</ele><time>2026-04-29T14:45:51Z</time></trkpt><trkpt lat="43.32621752297118" lon="11.71184524988353"><ele>380.2</ele><time>2026-04-29T14:45:52Z</time></trkpt><trkpt lat="43.3261134895733" lon="11.711874478274064"><ele>381.4</ele><time>2026-04-29T14:45:53Z</time></trkpt><trkpt lat="43.326017313766776" lon="11.711864869590766"><ele>382.6</ele><time>2026-04-29T14:45:54Z</time></trkpt><trkpt lat="43.325940493920896" lon="11.711812635790201"><ele>383.8</ele><time>2026-04-29T14:45:55Z</time></trkpt><trkpt lat="43.32590404856103" lon="11.711709824840455"><ele>385.0</ele><time>2026-04-29T14:45:56Z</time></trkpt><trkpt lat="43.325912972941076" lon="11.711600899224253"><ele>385.0</ele><time>2026-04-29T14:45:57Z</time></trkpt><trkpt lat="43.325955321757654" lon="11.711498195595459"><ele>385.0</ele><time>2026-04-29T14:45:58Z</time></trkpt><trkpt lat="43.326016831560565" lon="11.711406593042355"><ele>385.0</ele><time>2026-04-29T14:45:59Z</time></trkpt><trkpt lat="43.32609042220208" lon="11.711315960312946"><ele>385.0</ele><time>2026-04-29T14:46:00Z</time></trkpt><trkpt lat="43.32617769826634" lon="11.71121896494319"><ele>385.0</ele><time>2026-04-29T14:46:01Z</time></trkpt><trkpt lat="43.3262690082319" lon="11.711116040367859"><ele>386.0</ele><time>2026-04-29T14:46:02Z</time></trkpt><trkpt lat="43.3263618291405" lon="11.711007982681423"><ele>387.0</ele><time>2026-04-29T14:46:03Z</time></trkpt><trkpt lat="43.32645893591137" lon="11.710900046430636"><ele>388.0</ele><time>2026-04-29T14:46:04Z</time></trkpt><trkpt lat="43.32655942240139" lon="11.710791549595656"><ele>389.0</ele><time>2026-04-29T14:46:05Z</time></trkpt><trkpt lat="43.32665123629923" lon="11.710692399639447"><ele>389.0</ele><time>2026-04-29T14:46:06Z</time></trkpt><trkpt lat="43.32674005583411" lon="11.710591613708598"><ele>389.0</ele><time>2026-04-29T14:46:07Z</time></trkpt><trkpt lat="43.32682162576102" lon="11.710476531039417"><ele>389.0</ele><time>2026-04-29T14:46:08Z</time></trkpt><trkpt lat="43.326891049309744" lon="11.710339929860618"><ele>389.0</ele><time>2026-04-29T14:46:09Z</time></trkpt><trkpt lat="43.326939289378814" lon="11.710183784006798"><ele>389.6</ele><time>2026-04-29T14:46:10Z</time></trkpt><trkpt lat="43.32697141925377" lon="11.71001655142039"><ele>390.2</ele><time>2026-04-29T14:46:11Z</time></trkpt><trkpt lat="43.32697778090903" lon="11.709856686200407"><ele>390.8</ele><time>2026-04-29T14:46:12Z</time></trkpt><trkpt lat="43.32696678642802" lon="11.709712139872304"><ele>391.40000000000003</ele><time>2026-04-29T14:46:13.001Z</time></trkpt><trkpt lat="43.32695218207852" lon="11.709585698908883"><ele>392.0</ele><time>2026-04-29T14:46:14.001Z</time></trkpt><trkpt lat="43.32693783276606" lon="11.709450902194389"><ele>391.25</ele><time>2026-04-29T14:46:15.001Z</time></trkpt><trkpt lat="43.326926397504685" lon="11.709294448328336"><ele>390.5</ele><time>2026-04-29T14:46:16.001Z</time></trkpt><trkpt lat="43.32692000092746" lon="11.709124281864378"><ele>389.75</ele><time>2026-04-29T14:46:17.001Z</time></trkpt><trkpt lat="43.32692084319287" lon="11.708942353117713"><ele>389.0</ele><time>2026-04-29T14:46:18.001Z</time></trkpt><trkpt lat="43.32692428756203" lon="11.708749678724693"><ele>389.3333333333333</ele><time>2026-04-29T14:46:19.001Z</time></trkpt><trkpt lat="43.32691707217462" lon="11.708547952366363"><ele>389.66666666666663</ele><time>2026-04-29T14:46:20.001Z</time></trkpt><trkpt lat="43.326889831193796" lon="11.708341383269945"><ele>390.0</ele><time>2026-04-29T14:46:21.001Z</time></trkpt><trkpt lat="43.32684347244732" lon="11.708134198311981"><ele>390.0</ele><time>2026-04-29T14:46:22.001Z</time></trkpt><trkpt lat="43.32677198977762" lon="11.707934462808845"><ele>390.0</ele><time>2026-04-29T14:46:23.001Z</time></trkpt><trkpt lat="43.32667110568584" lon="11.70774971307447"><ele>390.0</ele><time>2026-04-29T14:46:24.001Z</time></trkpt><trkpt lat="43.32654500121739" lon="11.70759095906041"><ele>391.33333333333337</ele><time>2026-04-29T14:46:25.001Z</time></trkpt><trkpt lat="43.32640019052128" lon="11.707443594846474"><ele>392.6666666666667</ele><time>2026-04-29T14:46:26.001Z</time></trkpt><trkpt lat="43.32623915128555" lon="11.70731691142364"><ele>394.0</ele><time>2026-04-29T14:46:27.001Z</time></trkpt><trkpt lat="43.32606047035623" lon="11.707217545806115"><ele>394.0</ele><time>2026-04-29T14:46:28.001Z</time></trkpt><trkpt lat="43.32587562056033" lon="11.707138638585253"><ele>394.0</ele><time>2026-04-29T14:46:29.001Z</time></trkpt><trkpt lat="43.325703281731016" lon="11.707041977461284"><ele>394.0</ele><time>2026-04-29T14:46:30.001Z</time></trkpt><trkpt lat="43.32555021968963" lon="11.70690464443958"><ele>395.33333333333337</ele><time>2026-04-29T14:46:31.001Z</time></trkpt><trkpt lat="43.32541586907203" lon="11.706740497055847"><ele>396.66666666666663</ele><time>2026-04-29T14:46:32.001Z</time></trkpt><trkpt lat="43.325314933693335" lon="11.706568742794236"><ele>398.0</ele><time>2026-04-29T14:46:33.001Z</time></trkpt><trkpt lat="43.325253199036304" lon="11.706391808133665"><ele>398.0</ele><time>2026-04-29T14:46:34.001Z</time></trkpt><trkpt lat="43.325235945002916" lon="11.706202963048256"><ele>398.0</ele><time>2026-04-29T14:46:35.001Z</time></trkpt><trkpt lat="43.3252596654216" lon="11.705990691214318"><ele>398.0</ele><time>2026-04-29T14:46:36.001Z</time></trkpt><trkpt lat="43.325310881601176" lon="11.70577632426014"><ele>399.0</ele><time>2026-04-29T14:46:37.001Z</time></trkpt><trkpt lat="43.3253972539985" lon="11.705582621708018"><ele>400.0</ele><time>2026-04-29T14:46:38.001Z</time></trkpt><trkpt lat="43.32551521423151" lon="11.705417451963912"><ele>401.0</ele><time>2026-04-29T14:46:39.001Z</time></trkpt><trkpt lat="43.32565920019113" lon="11.705283183401429"><ele>405.0</ele><time>2026-04-29T14:46:40.001Z</time></trkpt><trkpt lat="43.3258261323118" lon="11.705209941717772"><ele>409.0</ele><time>2026-04-29T14:46:41.001Z</time></trkpt><trkpt lat="43.32597483551038" lon="11.70512274417404"><ele>413.0</ele><time>2026-04-29T14:46:42.001Z</time></trkpt><trkpt lat="43.32611614677326" lon="11.705019778715211"><ele>413.0</ele><time>2026-04-29T14:46:43.001Z</time></trkpt><trkpt lat="43.32622157793486" lon="11.704849779511443"><ele>413.0</ele><time>2026-04-29T14:46:44.001Z</time></trkpt><trkpt lat="43.32629250619169" lon="11.704656882494268"><ele>413.0</ele><time>2026-04-29T14:46:45.001Z</time></trkpt><trkpt lat="43.32632683618993" lon="11.70445223793759"><ele>412.0</ele><time>2026-04-29T14:46:46.001Z</time></trkpt><trkpt lat="43.326327900502875" lon="11.704260499008287"><ele>411.0</ele><time>2026-04-29T14:46:47.001Z</time></trkpt><trkpt lat="43.32635031490306" lon="11.704090665511254"><ele>410.0</ele><time>2026-04-29T14:46:48.001Z</time></trkpt><trkpt lat="43.32642203749994" lon="11.703950101467349"><ele>409.0</ele><time>2026-04-29T14:46:49.001Z</time></trkpt><trkpt lat="43.326521048855206" lon="11.703840851444765"><ele>411.0</ele><time>2026-04-29T14:46:50.001Z</time></trkpt><trkpt lat="43.326616143822314" lon="11.703755323901014"><ele>413.0</ele><time>2026-04-29T14:46:51.001Z</time></trkpt><trkpt lat="43.326700664537974" lon="11.703671338952473"><ele>415.0</ele><time>2026-04-29T14:46:52.001Z</time></trkpt><trkpt lat="43.326779834361176" lon="11.703579207690673"><ele>417.0</ele><time>2026-04-29T14:46:53.001Z</time></trkpt><trkpt lat="43.326852271298606" lon="11.703480510012028"><ele>419.0</ele><time>2026-04-29T14:46:54.001Z</time></trkpt><trkpt lat="43.32691236157101" lon="11.703361683961923"><ele>419.0</ele><time>2026-04-29T14:46:55.001Z</time></trkpt><trkpt lat="43.326951214637724" lon="11.703221178832512"><ele>419.0</ele><time>2026-04-29T14:46:56.001Z</time></trkpt><trkpt lat="43.32696945731756" lon="11.703066423248007"><ele>419.0</ele><time>2026-04-29T14:46:57.001Z</time></trkpt><trkpt lat="43.32696815526947" lon="11.702906027329927"><ele>419.0</ele><time>2026-04-29T14:46:58.001Z</time></trkpt><trkpt lat="43.32693944195921" lon="11.702752860113607"><ele>420.2</ele><time>2026-04-29T14:46:59.001Z</time></trkpt><trkpt lat="43.32687572844365" lon="11.702615264953296"><ele>421.4</ele><time>2026-04-29T14:47:00.001Z</time></trkpt><trkpt lat="43.32678941389833" lon="11.702513315970315"><ele>422.6</ele><time>2026-04-29T14:47:01.001Z</time></trkpt><trkpt lat="43.32670230230209" lon="11.7024324654629"><ele>423.8</ele><time>2026-04-29T14:47:02.001Z</time></trkpt><trkpt lat="43.32662759587454" lon="11.702352226331461"><ele>425.0</ele><time>2026-04-29T14:47:03.001Z</time></trkpt><trkpt lat="43.32656410794429" lon="11.702272298826966"><ele>425.0</ele><time>2026-04-29T14:47:04.001Z</time></trkpt><trkpt lat="43.3265050963035" lon="11.702202412685894"><ele>425.0</ele><time>2026-04-29T14:47:05.001Z</time></trkpt><trkpt lat="43.32644885385573" lon="11.702137148035789"><ele>425.0</ele><time>2026-04-29T14:47:06.001Z</time></trkpt><trkpt lat="43.32639940746158" lon="11.702069092321008"><ele>425.0</ele><time>2026-04-29T14:47:07.001Z</time></trkpt><trkpt lat="43.32636435761239" lon="11.701989738611163"><ele>425.0</ele><time>2026-04-29T14:47:08.001Z</time></trkpt><trkpt lat="43.326365061371035" lon="11.701899552527339"><ele>425.0</ele><time>2026-04-29T14:47:09.001Z</time></trkpt><trkpt lat="43.326408568304345" lon="11.701820360682323"><ele>425.0</ele><time>2026-04-29T14:47:10.001Z</time></trkpt><trkpt lat="43.32647870209561" lon="11.701783861850748"><ele>425.49999999999994</ele><time>2026-04-29T14:47:11.001Z</time></trkpt><trkpt lat="43.32655781565695" lon="11.701781734595574"><ele>426.0</ele><time>2026-04-29T14:47:12.001Z</time></trkpt><trkpt lat="43.32663304947949" lon="11.701800122255895"><ele>426.5</ele><time>2026-04-29T14:47:13.001Z</time></trkpt><trkpt lat="43.32670932944902" lon="11.70181915258934"><ele>427.0</ele><time>2026-04-29T14:47:14.001Z</time></trkpt><trkpt lat="43.32679386220796" lon="11.701832646613012"><ele>427.49999999999994</ele><time>2026-04-29T14:47:15.001Z</time></trkpt><trkpt lat="43.32688687725084" lon="11.70182212808771"><ele>428.0</ele><time>2026-04-29T14:47:16.001Z</time></trkpt><trkpt lat="43.327010917889766" lon="11.701808362170091"><ele>428.0</ele><time>2026-04-29T14:47:17.001Z</time></trkpt><trkpt lat="43.32718519831082" lon="11.701742504276114"><ele>428.0</ele><time>2026-04-29T14:47:18.002Z</time></trkpt><trkpt lat="43.32737902646907" lon="11.70165240880955"><ele>428.0</ele><time>2026-04-29T14:47:19.002Z</time></trkpt><trkpt lat="43.3275791976527" lon="11.701542685234605"><ele>429.66666666666663</ele><time>2026-04-29T14:47:20.002Z</time></trkpt><trkpt lat="43.32776468737644" lon="11.701465892133765"><ele>431.33333333333337</ele><time>2026-04-29T14:47:21.002Z</time></trkpt><trkpt lat="43.32792771503288" lon="11.701368777304427"><ele>433.0</ele><time>2026-04-29T14:47:22.002Z</time></trkpt><trkpt lat="43.32805863549436" lon="11.701227464058288"><ele>434.25</ele><time>2026-04-29T14:47:23.002Z</time></trkpt><trkpt lat="43.32815984765142" lon="11.701042554902292"><ele>435.5</ele><time>2026-04-29T14:47:24.002Z</time></trkpt><trkpt lat="43.32824073866103" lon="11.70087478728249"><ele>436.75</ele><time>2026-04-29T14:47:25.002Z</time></trkpt><trkpt lat="43.32832887214534" lon="11.700743891252628"><ele>438.0</ele><time>2026-04-29T14:47:26.002Z</time></trkpt><trkpt lat="43.328452451671204" lon="11.700631812412466"><ele>438.0</ele><time>2026-04-29T14:47:27.002Z</time></trkpt><trkpt lat="43.32858810645934" lon="11.700511961207834"><ele>438.0</ele><time>2026-04-29T14:47:28.002Z</time></trkpt><trkpt lat="43.32873727554612" lon="11.700366456830398"><ele>438.0</ele><time>2026-04-29T14:47:29.002Z</time></trkpt><trkpt lat="43.328896883973215" lon="11.70019089488384"><ele>439.66666666666663</ele><time>2026-04-29T14:47:30.002Z</time></trkpt><trkpt lat="43.32906992934337" lon="11.699999441538884"><ele>441.3333333333333</ele><time>2026-04-29T14:47:31.002Z</time></trkpt><trkpt lat="43.329233670571625" lon="11.699813796764019"><ele>443.0</ele><time>2026-04-29T14:47:32.002Z</time></trkpt><trkpt lat="43.329378312329425" lon="11.699655330205388"><ele>443.0</ele><time>2026-04-29T14:47:33.002Z</time></trkpt><trkpt lat="43.329508992478" lon="11.699506699154226"><ele>443.0</ele><time>2026-04-29T14:47:34.002Z</time></trkpt><trkpt lat="43.32961344526067" lon="11.699356722376537"><ele>443.0</ele><time>2026-04-29T14:47:35.002Z</time></trkpt><trkpt lat="43.329686508365704" lon="11.699182024222733"><ele>441.75</ele><time>2026-04-29T14:47:36.002Z</time></trkpt><trkpt lat="43.32972246153814" lon="11.698986119027808"><ele>440.5</ele><time>2026-04-29T14:47:37.002Z</time></trkpt><trkpt lat="43.32971454302129" lon="11.698783671975143"><ele>439.25</ele><time>2026-04-29T14:47:38.002Z</time></trkpt><trkpt lat="43.32970291968408" lon="11.69857611122026"><ele>438.0</ele><time>2026-04-29T14:47:39.002Z</time></trkpt><trkpt lat="43.32973015709174" lon="11.698366191909022"><ele>445.0</ele><time>2026-04-29T14:47:40.002Z</time></trkpt><trkpt lat="43.32978997941535" lon="11.698152469716309"><ele>452.0</ele><time>2026-04-29T14:47:41.002Z</time></trkpt><trkpt lat="43.32986123460726" lon="11.69792727865714"><ele>459.0</ele><time>2026-04-29T14:47:42.002Z</time></trkpt><trkpt lat="43.32994116298563" lon="11.697691558880985"><ele>459.0</ele><time>2026-04-29T14:47:43.002Z</time></trkpt><trkpt lat="43.33002858161192" lon="11.69745021293207"><ele>459.0</ele><time>2026-04-29T14:47:44.002Z</time></trkpt><trkpt lat="43.330119516613806" lon="11.697206063651247"><ele>459.0</ele><time>2026-04-29T14:47:45.002Z</time></trkpt><trkpt lat="43.33020323519628" lon="11.69697753737423"><ele>458.0</ele><time>2026-04-29T14:47:46.002Z</time></trkpt><trkpt lat="43.330266675037834" lon="11.696754794895021"><ele>457.0</ele><time>2026-04-29T14:47:47.002Z</time></trkpt><trkpt lat="43.33029747602625" lon="11.696515687233603"><ele>456.0</ele><time>2026-04-29T14:47:48.002Z</time></trkpt><trkpt lat="43.330298705367085" lon="11.696263671836913"><ele>456.0</ele><time>2026-04-29T14:47:49.002Z</time></trkpt><trkpt lat="43.330295433288725" lon="11.696008885537768"><ele>456.0</ele><time>2026-04-29T14:47:50.002Z</time></trkpt><trkpt lat="43.3303202666802" lon="11.695759412946934"><ele>456.0</ele><time>2026-04-29T14:47:51.002Z</time></trkpt><trkpt lat="43.33037384861939" lon="11.695522268399376"><ele>456.0</ele><time>2026-04-29T14:47:52.002Z</time></trkpt><trkpt lat="43.33044359538881" lon="11.695287722086574"><ele>456.0</ele><time>2026-04-29T14:47:53.002Z</time></trkpt><trkpt lat="43.330531052752754" lon="11.695065538404714"><ele>456.0</ele><time>2026-04-29T14:47:54.001Z</time></trkpt><trkpt lat="43.3306342469898" lon="11.6948512650347"><ele>461.0</ele><time>2026-04-29T14:47:55.001Z</time></trkpt><trkpt lat="43.3307475078228" lon="11.694653385436796"><ele>466.0</ele><time>2026-04-29T14:47:56.001Z</time></trkpt><trkpt lat="43.330878807160815" lon="11.694474488791306"><ele>471.0</ele><time>2026-04-29T14:47:57.001Z</time></trkpt><trkpt lat="43.33102840667954" lon="11.694318880892695"><ele>471.0</ele><time>2026-04-29T14:47:58.001Z</time></trkpt><trkpt lat="43.331188638706735" lon="11.694173711448418"><ele>471.0</ele><time>2026-04-29T14:47:59.001Z</time></trkpt><trkpt lat="43.33135165624099" lon="11.694019777748446"><ele>471.0</ele><time>2026-04-29T14:48:00.001Z</time></trkpt><trkpt lat="43.331512318464625" lon="11.693847672300002"><ele>474.66666666666663</ele><time>2026-04-29T14:48:01.001Z</time></trkpt><trkpt lat="43.33163589190504" lon="11.693682959870571"><ele>478.3333333333333</ele><time>2026-04-29T14:48:02.001Z</time></trkpt><trkpt lat="43.33175408420448" lon="11.693471072336857"><ele>482.0</ele><time>2026-04-29T14:48:03.001Z</time></trkpt><trkpt lat="43.33184990509693" lon="11.693232079219346"><ele>482.0</ele><time>2026-04-29T14:48:04.001Z</time></trkpt><trkpt lat="43.33193246056362" lon="11.692984068913445"><ele>482.0</ele><time>2026-04-29T14:48:05.001Z</time></trkpt><trkpt lat="43.332008114505705" lon="11.692753341582373"><ele>482.0</ele><time>2026-04-29T14:48:06.001Z</time></trkpt><trkpt lat="43.33207068336396" lon="11.69255947587363"><ele>483.40000000000003</ele><time>2026-04-29T14:48:07.001Z</time></trkpt><trkpt lat="43.33212442431052" lon="11.692393998435813"><ele>484.80000000000007</ele><time>2026-04-29T14:48:08.001Z</time></trkpt><trkpt lat="43.3321517790488" lon="11.692248064556741"><ele>486.2</ele><time>2026-04-29T14:48:09.001Z</time></trkpt><trkpt lat="43.332148033588396" lon="11.69210839408722"><ele>487.6</ele><time>2026-04-29T14:48:10.001Z</time></trkpt><trkpt lat="43.332088980826484" lon="11.691991301252102"><ele>489.0</ele><time>2026-04-29T14:48:11.001Z</time></trkpt><trkpt lat="43.3319935668554" lon="11.691930441566447"><ele>489.0</ele><time>2026-04-29T14:48:12.001Z</time></trkpt><trkpt lat="43.331886409862435" lon="11.69194133356093"><ele>489.0</ele><time>2026-04-29T14:48:13.001Z</time></trkpt><trkpt lat="43.331787664647294" lon="11.692040070977017"><ele>489.0</ele><time>2026-04-29T14:48:14.001Z</time></trkpt><trkpt lat="43.33168857036525" lon="11.69216783807256"><ele>489.0</ele><time>2026-04-29T14:48:15.001Z</time></trkpt><trkpt lat="43.33156575105919" lon="11.69228023090808"><ele>489.0</ele><time>2026-04-29T14:48:16.001Z</time></trkpt><trkpt lat="43.33143251646696" lon="11.69239100292461"><ele>489.0</ele><time>2026-04-29T14:48:17.001Z</time></trkpt><trkpt lat="43.33130591172072" lon="11.692496765633306"><ele>489.0</ele><time>2026-04-29T14:48:18.001Z</time></trkpt><trkpt lat="43.3311983567442" lon="11.692583544800764"><ele>489.0</ele><time>2026-04-29T14:48:19.001Z</time></trkpt><trkpt lat="43.33110861771685" lon="11.692652709550677"><ele>490.6666666666667</ele><time>2026-04-29T14:48:20.001Z</time></trkpt><trkpt lat="43.33103963226224" lon="11.692692764294227"><ele>492.33333333333337</ele><time>2026-04-29T14:48:21.001Z</time></trkpt><trkpt lat="43.33097174492542" lon="11.692658958021347"><ele>494.0</ele><time>2026-04-29T14:48:22.001Z</time></trkpt><trkpt lat="43.33093773822773" lon="11.692558011115137"><ele>495.6666666666667</ele><time>2026-04-29T14:48:23.001Z</time></trkpt><trkpt lat="43.330973620753696" lon="11.692457505613602"><ele>497.33333333333337</ele><time>2026-04-29T14:48:24.001Z</time></trkpt><trkpt lat="43.33109153143477" lon="11.692381219038703"><ele>499.0</ele><time>2026-04-29T14:48:25.001Z</time></trkpt><trkpt lat="43.331194485684" lon="11.692310033200055"><ele>499.0</ele><time>2026-04-29T14:48:26.001Z</time></trkpt><trkpt lat="43.33130521248912" lon="11.692212541860213"><ele>499.0</ele><time>2026-04-29T14:48:27.001Z</time></trkpt><trkpt lat="43.33141432588799" lon="11.692083925060476"><ele>499.0</ele><time>2026-04-29T14:48:28.001Z</time></trkpt><trkpt lat="43.33150981950419" lon="11.691918993204457"><ele>499.0</ele><time>2026-04-29T14:48:29.001Z</time></trkpt><trkpt lat="43.33159341669087" lon="11.691724006137207"><ele>499.6666666666667</ele><time>2026-04-29T14:48:30.001Z</time></trkpt><trkpt lat="43.33168019241193" lon="11.69151726408928"><ele>500.33333333333337</ele><time>2026-04-29T14:48:31.001Z</time></trkpt><trkpt lat="43.33176904186196" lon="11.691304164881663"><ele>501.0</ele><time>2026-04-29T14:48:32.001Z</time></trkpt><trkpt lat="43.33185760207061" lon="11.69108864136283"><ele>505.33333333333337</ele><time>2026-04-29T14:48:33.001Z</time></trkpt><trkpt lat="43.33193718387561" lon="11.690878097229074"><ele>509.6666666666667</ele><time>2026-04-29T14:48:34.001Z</time></trkpt><trkpt lat="43.331995266897096" lon="11.690675680022153"><ele>514.0</ele><time>2026-04-29T14:48:35.001Z</time></trkpt><trkpt lat="43.33202518441001" lon="11.69047762661762"><ele>514.0</ele><time>2026-04-29T14:48:36.001Z</time></trkpt><trkpt lat="43.332014411043524" lon="11.690291678259268"><ele>514.0</ele><time>2026-04-29T14:48:37.001Z</time></trkpt><trkpt lat="43.33200983152308" lon="11.690124725323182"><ele>514.0</ele><time>2026-04-29T14:48:38.001Z</time></trkpt><trkpt lat="43.33206150311006" lon="11.69000250753519"><ele>514.0</ele><time>2026-04-29T14:48:39.001Z</time></trkpt><trkpt lat="43.332155237765" lon="11.689945690289859"><ele>514.25</ele><time>2026-04-29T14:48:40.001Z</time></trkpt><trkpt lat="43.332260492795164" lon="11.689968898816163"><ele>514.5</ele><time>2026-04-29T14:48:41.001Z</time></trkpt><trkpt lat="43.33236328666193" lon="11.690064967048535"><ele>514.75</ele><time>2026-04-29T14:48:42.001Z</time></trkpt><trkpt lat="43.332499971770034" lon="11.690118989737519"><ele>515.0</ele><time>2026-04-29T14:48:43.001Z</time></trkpt><trkpt lat="43.332645602299344" lon="11.690188992455475"><ele>515.0</ele><time>2026-04-29T14:48:44.001Z</time></trkpt><trkpt lat="43.33280730236508" lon="11.690255804127132"><ele>515.0</ele><time>2026-04-29T14:48:45.001Z</time></trkpt><trkpt lat="43.332978203129905" lon="11.690321809181173"><ele>515.0</ele><time>2026-04-29T14:48:46.001Z</time></trkpt><trkpt lat="43.33313524429907" lon="11.690368919255052"><ele>514.5</ele><time>2026-04-29T14:48:47.001Z</time></trkpt><trkpt lat="43.33327109188924" lon="11.690380582681374"><ele>514.0</ele><time>2026-04-29T14:48:48.001Z</time></trkpt><trkpt lat="43.33337464765236" lon="11.69032023541044"><ele>513.5</ele><time>2026-04-29T14:48:49.001Z</time></trkpt><trkpt lat="43.33345359205417" lon="11.690198585943232"><ele>513.0</ele><time>2026-04-29T14:48:50.001Z</time></trkpt><trkpt lat="43.333513599044316" lon="11.690017400590152"><ele>514.3333333333334</ele><time>2026-04-29T14:48:51.001Z</time></trkpt><trkpt lat="43.33356213397749" lon="11.689781178700304"><ele>515.6666666666667</ele><time>2026-04-29T14:48:52.001Z</time></trkpt><trkpt lat="43.33358853158504" lon="11.689516871147587"><ele>517.0</ele><time>2026-04-29T14:48:53.001Z</time></trkpt><trkpt lat="43.33358200108781" lon="11.689284204357207"><ele>519.0</ele><time>2026-04-29T14:48:54.001Z</time></trkpt><trkpt lat="43.33357005254774" lon="11.689086769789794"><ele>521.0</ele><time>2026-04-29T14:48:55.001Z</time></trkpt><trkpt lat="43.33361455422772" lon="11.68893660977385"><ele>523.0</ele><time>2026-04-29T14:48:56.001Z</time></trkpt><trkpt lat="43.333724926605676" lon="11.688837458065686"><ele>525.0</ele><time>2026-04-29T14:48:57.001Z</time></trkpt><trkpt lat="43.333808709051866" lon="11.688699035122625"><ele>525.25</ele><time>2026-04-29T14:48:58.001Z</time></trkpt><trkpt lat="43.333856064878255" lon="11.68854462698199"><ele>525.5</ele><time>2026-04-29T14:48:59.001Z</time></trkpt><trkpt lat="43.3338412201352" lon="11.68834440125069"><ele>525.75</ele><time>2026-04-29T14:49:00.001Z</time></trkpt><trkpt lat="43.33377985287973" lon="11.688126387160251"><ele>526.0</ele><time>2026-04-29T14:49:01.001Z</time></trkpt><trkpt lat="43.33370013118748" lon="11.687899781436597"><ele>525.0</ele><time>2026-04-29T14:49:02.001Z</time></trkpt><trkpt lat="43.33360151602956" lon="11.68765872280276"><ele>524.0</ele><time>2026-04-29T14:49:03.001Z</time></trkpt><trkpt lat="43.333506228668384" lon="11.687409450246031"><ele>523.0</ele><time>2026-04-29T14:49:04.001Z</time></trkpt><trkpt lat="43.33344994014543" lon="11.687141145855149"><ele>523.0</ele><time>2026-04-29T14:49:05.001Z</time></trkpt><trkpt lat="43.33340484489425" lon="11.686874066036733"><ele>523.0</ele><time>2026-04-29T14:49:06.001Z</time></trkpt><trkpt lat="43.33335403601982" lon="11.68661657069684"><ele>523.0</ele><time>2026-04-29T14:49:07.001Z</time></trkpt><trkpt lat="43.33333120346082" lon="11.686372243612343"><ele>523.0</ele><time>2026-04-29T14:49:08.001Z</time></trkpt><trkpt lat="43.33332788992117" lon="11.686141781671935"><ele>523.0</ele><time>2026-04-29T14:49:09.001Z</time></trkpt><trkpt lat="43.333342956912624" lon="11.685891953423823"><ele>523.0</ele><time>2026-04-29T14:49:10.001Z</time></trkpt><trkpt lat="43.33336970611641" lon="11.685636825386108"><ele>523.6666666666667</ele><time>2026-04-29T14:49:11.001Z</time></trkpt><trkpt lat="43.33338830974179" lon="11.685376837749034"><ele>524.3333333333334</ele><time>2026-04-29T14:49:12.001Z</time></trkpt><trkpt lat="43.333410177803415" lon="11.685116459787075"><ele>525.0</ele><time>2026-04-29T14:49:13.001Z</time></trkpt><trkpt lat="43.33343262882152" lon="11.68485465419055"><ele>525.0</ele><time>2026-04-29T14:49:14.001Z</time></trkpt><trkpt lat="43.33344139409275" lon="11.684589350150143"><ele>525.0</ele><time>2026-04-29T14:49:15.001Z</time></trkpt><trkpt lat="43.33342555024603" lon="11.684324104335793"><ele>525.0</ele><time>2026-04-29T14:49:16.001Z</time></trkpt><trkpt lat="43.333382174290286" lon="11.684066037850076"><ele>527.0</ele><time>2026-04-29T14:49:17.001Z</time></trkpt><trkpt lat="43.333332431068825" lon="11.683821798252"><ele>529.0</ele><time>2026-04-29T14:49:18.001Z</time></trkpt><trkpt lat="43.33330640879143" lon="11.683603902737548"><ele>531.0</ele><time>2026-04-29T14:49:19.001Z</time></trkpt><trkpt lat="43.333313253490175" lon="11.68340718542126"><ele>531.0</ele><time>2026-04-29T14:49:20.001Z</time></trkpt><trkpt lat="43.333353304880205" lon="11.683209731673823"><ele>531.0</ele><time>2026-04-29T14:49:21.001Z</time></trkpt><trkpt lat="43.33340781322445" lon="11.682998750837218"><ele>531.0</ele><time>2026-04-29T14:49:22.001Z</time></trkpt><trkpt lat="43.333446528635406" lon="11.682765135571461"><ele>531.3333333333334</ele><time>2026-04-29T14:49:23.001Z</time></trkpt><trkpt lat="43.33346170680381" lon="11.682515700509533"><ele>531.6666666666667</ele><time>2026-04-29T14:49:24.001Z</time></trkpt><trkpt lat="43.333467505905375" lon="11.682247166256484"><ele>532.0</ele><time>2026-04-29T14:49:25.001Z</time></trkpt><trkpt lat="43.333466772244975" lon="11.681966298265387"><ele>533.6666666666667</ele><time>2026-04-29T14:49:26.002Z</time></trkpt><trkpt lat="43.333468018320964" lon="11.681676284405722"><ele>535.3333333333334</ele><time>2026-04-29T14:49:27.002Z</time></trkpt><trkpt lat="43.333473624326444" lon="11.68137378707497"><ele>537.0</ele><time>2026-04-29T14:49:28.002Z</time></trkpt><trkpt lat="43.33348054798008" lon="11.681064289574955"><ele>537.0</ele><time>2026-04-29T14:49:29.002Z</time></trkpt><trkpt lat="43.333486826818834" lon="11.680743023940977"><ele>537.0</ele><time>2026-04-29T14:49:30.002Z</time></trkpt><trkpt lat="43.33349317288585" lon="11.68041509219286"><ele>535.5</ele><time>2026-04-29T14:49:31.002Z</time></trkpt><trkpt lat="43.33350034890128" lon="11.680078798658368"><ele>534.0</ele><time>2026-04-29T14:49:32.002Z</time></trkpt><trkpt lat="43.33350551975838" lon="11.679740436938612"><ele>533.5</ele><time>2026-04-29T14:49:33.002Z</time></trkpt><trkpt lat="43.3335097658437" lon="11.679403652436465"><ele>533.0</ele><time>2026-04-29T14:49:34.002Z</time></trkpt><trkpt lat="43.33351749880905" lon="11.67905997166054"><ele>533.0</ele><time>2026-04-29T14:49:35.002Z</time></trkpt><trkpt lat="43.33352435460876" lon="11.678712797680102"><ele>533.0</ele><time>2026-04-29T14:49:36.002Z</time></trkpt><trkpt lat="43.33353267967517" lon="11.678361084156107"><ele>531.5</ele><time>2026-04-29T14:49:37.002Z</time></trkpt><trkpt lat="43.33353748360834" lon="11.678008189889288"><ele>530.0</ele><time>2026-04-29T14:49:38.002Z</time></trkpt><trkpt lat="43.33354030854289" lon="11.677652896599144"><ele>527.0</ele><time>2026-04-29T14:49:39.002Z</time></trkpt><trkpt lat="43.33354309406742" lon="11.67729615239299"><ele>524.0</ele><time>2026-04-29T14:49:40.002Z</time></trkpt><trkpt lat="43.33354577833924" lon="11.676942193341226"><ele>523.5</ele><time>2026-04-29T14:49:41.002Z</time></trkpt><trkpt lat="43.33354946475609" lon="11.676584519608973"><ele>523.0</ele><time>2026-04-29T14:49:42.002Z</time></trkpt><trkpt lat="43.333558527401934" lon="11.676227689648648"><ele>525.0</ele><time>2026-04-29T14:49:43.002Z</time></trkpt><trkpt lat="43.33356693414908" lon="11.675883558533473"><ele>527.0</ele><time>2026-04-29T14:49:44.002Z</time></trkpt><trkpt lat="43.33357152764927" lon="11.675591180925256"><ele>527.0</ele><time>2026-04-29T14:49:45.002Z</time></trkpt><trkpt lat="43.333577262683065" lon="11.675334686998793"><ele>527.0</ele><time>2026-04-29T14:49:46.002Z</time></trkpt><trkpt lat="43.33359556508043" lon="11.675120491251285"><ele>527.0</ele><time>2026-04-29T14:49:47.002Z</time></trkpt><trkpt lat="43.33365077341936" lon="11.674943314415259"><ele>528.0</ele><time>2026-04-29T14:49:48.002Z</time></trkpt><trkpt lat="43.33376857519019" lon="11.67481484606969"><ele>529.0</ele><time>2026-04-29T14:49:49.002Z</time></trkpt><trkpt lat="43.33389499130504" lon="11.67465908855767"><ele>530.0</ele><time>2026-04-29T14:49:50.002Z</time></trkpt><trkpt lat="43.33402030141686" lon="11.674487321127671"><ele>532.6666666666666</ele><time>2026-04-29T14:49:51.002Z</time></trkpt><trkpt lat="43.33416671995922" lon="11.674320250994377"><ele>535.3333333333334</ele><time>2026-04-29T14:49:52.002Z</time></trkpt><trkpt lat="43.334315318837476" lon="11.674140852523612"><ele>538.0</ele><time>2026-04-29T14:49:53.002Z</time></trkpt><trkpt lat="43.33447090973774" lon="11.673955018135015"><ele>538.0</ele><time>2026-04-29T14:49:54.002Z</time></trkpt><trkpt lat="43.33461977475102" lon="11.673777520836047"><ele>538.0</ele><time>2026-04-29T14:49:55.002Z</time></trkpt><trkpt lat="43.334746674833475" lon="11.67361611170263"><ele>538.0</ele><time>2026-04-29T14:49:56.002Z</time></trkpt><trkpt lat="43.334840492935534" lon="11.673444323454007"><ele>540.0</ele><time>2026-04-29T14:49:57.002Z</time></trkpt><trkpt lat="43.33490294555688" lon="11.673227562512373"><ele>542.0</ele><time>2026-04-29T14:49:58.002Z</time></trkpt><trkpt lat="43.33494856844301" lon="11.672965210156052"><ele>544.0</ele><time>2026-04-29T14:49:59.002Z</time></trkpt><trkpt lat="43.33498892313164" lon="11.672675615752544"><ele>545.5</ele><time>2026-04-29T14:50:00Z</time></trkpt><trkpt lat="43.33503212265159" lon="11.672357738018833"><ele>547.0</ele><time>2026-04-29T14:50:01Z</time></trkpt><trkpt lat="43.335083364919576" lon="11.672025563757824"><ele>549.0</ele><time>2026-04-29T14:50:02Z</time></trkpt><trkpt lat="43.335137790288044" lon="11.671679419641686"><ele>551.0</ele><time>2026-04-29T14:50:03Z</time></trkpt><trkpt lat="43.33519171548089" lon="11.671369670645557"><ele>551.0</ele><time>2026-04-29T14:50:04Z</time></trkpt><trkpt lat="43.335248265765046" lon="11.67112795123336"><ele>551.0</ele><time>2026-04-29T14:50:05Z</time></trkpt><trkpt lat="43.335325636838476" lon="11.67090238478056"><ele>551.0</ele><time>2026-04-29T14:50:06Z</time></trkpt><trkpt lat="43.335435864344575" lon="11.670668254871504"><ele>551.0</ele><time>2026-04-29T14:50:07Z</time></trkpt><trkpt lat="43.33555297734775" lon="11.67042946232181"><ele>551.0</ele><time>2026-04-29T14:50:08Z</time></trkpt><trkpt lat="43.335673822510344" lon="11.670179868642991"><ele>551.0</ele><time>2026-04-29T14:50:09Z</time></trkpt><trkpt lat="43.33578464934769" lon="11.669923121370429"><ele>551.0</ele><time>2026-04-29T14:50:10Z</time></trkpt><trkpt lat="43.33590187368217" lon="11.66966149674769"><ele>551.0</ele><time>2026-04-29T14:50:11Z</time></trkpt><trkpt lat="43.336022453418074" lon="11.669396513766964"><ele>554.0</ele><time>2026-04-29T14:50:12Z</time></trkpt><trkpt lat="43.33614562264182" lon="11.669127851323408"><ele>557.0</ele><time>2026-04-29T14:50:13Z</time></trkpt><trkpt lat="43.336269515144615" lon="11.668851799140135"><ele>556.0</ele><time>2026-04-29T14:50:14Z</time></trkpt><trkpt lat="43.33639743141219" lon="11.668575439802787"><ele>555.0</ele><time>2026-04-29T14:50:15Z</time></trkpt><trkpt lat="43.33652944475332" lon="11.66828720142954"><ele>555.0</ele><time>2026-04-29T14:50:16Z</time></trkpt><trkpt lat="43.33666328299805" lon="11.667996105310523"><ele>555.0</ele><time>2026-04-29T14:50:17Z</time></trkpt><trkpt lat="43.33679937045598" lon="11.6676970591119"><ele>556.0</ele><time>2026-04-29T14:50:18.001Z</time></trkpt><trkpt lat="43.33693088867894" lon="11.667401023475852"><ele>557.0</ele><time>2026-04-29T14:50:19.001Z</time></trkpt><trkpt lat="43.337049993262646" lon="11.66713419418985"><ele>558.3333333333333</ele><time>2026-04-29T14:50:20.001Z</time></trkpt><trkpt lat="43.33715839047673" lon="11.666897437238843"><ele>559.6666666666666</ele><time>2026-04-29T14:50:21.001Z</time></trkpt><trkpt lat="43.33725346958769" lon="11.666697344421157"><ele>561.0</ele><time>2026-04-29T14:50:22.001Z</time></trkpt><trkpt lat="43.33734601196039" lon="11.666511319849878"><ele>561.0</ele><time>2026-04-29T14:50:23.001Z</time></trkpt><trkpt lat="43.337427603453435" lon="11.666340105630036"><ele>561.0</ele><time>2026-04-29T14:50:24.001Z</time></trkpt><trkpt lat="43.337497975556154" lon="11.666171825804847"><ele>561.0</ele><time>2026-04-29T14:50:25.001Z</time></trkpt><trkpt lat="43.33754637258603" lon="11.665996250340031"><ele>561.0</ele><time>2026-04-29T14:50:26.001Z</time></trkpt><trkpt lat="43.3375502888846" lon="11.665805552400052"><ele>561.25</ele><time>2026-04-29T14:50:27.001Z</time></trkpt><trkpt lat="43.337499820793184" lon="11.665609554584767"><ele>561.5</ele><time>2026-04-29T14:50:28.001Z</time></trkpt><trkpt lat="43.33743631095702" lon="11.665418074633727"><ele>561.75</ele><time>2026-04-29T14:50:29.001Z</time></trkpt><trkpt lat="43.337388022571275" lon="11.66524969675678"><ele>562.0</ele><time>2026-04-29T14:50:30.001Z</time></trkpt><trkpt lat="43.337390172625405" lon="11.665089919314369"><ele>562.0</ele><time>2026-04-29T14:50:31.001Z</time></trkpt><trkpt lat="43.337444439666385" lon="11.664933304065656"><ele>562.0</ele><time>2026-04-29T14:50:32.001Z</time></trkpt><trkpt lat="43.33754635514782" lon="11.664797449538653"><ele>562.0</ele><time>2026-04-29T14:50:33.001Z</time></trkpt><trkpt lat="43.33767987671692" lon="11.664706370262094"><ele>562.0</ele><time>2026-04-29T14:50:34.001Z</time></trkpt><trkpt lat="43.33784089316446" lon="11.664684160000293"><ele>562.0</ele><time>2026-04-29T14:50:35.001Z</time></trkpt><trkpt lat="43.33799734385405" lon="11.664674270292858"><ele>562.0</ele><time>2026-04-29T14:50:36.001Z</time></trkpt><trkpt lat="43.338131943450925" lon="11.664658362804932"><ele>562.0</ele><time>2026-04-29T14:50:37.001Z</time></trkpt><trkpt lat="43.338246488883016" lon="11.664679630686324"><ele>562.0</ele><time>2026-04-29T14:50:38.001Z</time></trkpt><trkpt lat="43.33834259457072" lon="11.664759008145614"><ele>565.3333333333334</ele><time>2026-04-29T14:50:39.001Z</time></trkpt><trkpt lat="43.33842464404554" lon="11.664905804653458"><ele>568.6666666666666</ele><time>2026-04-29T14:50:40.001Z</time></trkpt><trkpt lat="43.33851089156856" lon="11.665077441042513"><ele>572.0</ele><time>2026-04-29T14:50:41.001Z</time></trkpt><trkpt lat="43.33861107912391" lon="11.665266519076125"><ele>572.6666666666666</ele><time>2026-04-29T14:50:42.001Z</time></trkpt><trkpt lat="43.33872198924024" lon="11.665470931008118"><ele>573.3333333333334</ele><time>2026-04-29T14:50:43.001Z</time></trkpt><trkpt lat="43.33883228328823" lon="11.665686919485498"><ele>574.0</ele><time>2026-04-29T14:50:44.001Z</time></trkpt><trkpt lat="43.33893780141646" lon="11.665865825254091"><ele>574.0</ele><time>2026-04-29T14:50:45.001Z</time></trkpt><trkpt lat="43.3390532383729" lon="11.666007545015917"><ele>574.0</ele><time>2026-04-29T14:50:46.001Z</time></trkpt><trkpt lat="43.339191392603816" lon="11.66609378886962"><ele>574.0</ele><time>2026-04-29T14:50:47.001Z</time></trkpt><trkpt lat="43.33933275630119" lon="11.666095056170185"><ele>574.0</ele><time>2026-04-29T14:50:48.001Z</time></trkpt><trkpt lat="43.33946126639977" lon="11.666035552429799"><ele>574.0</ele><time>2026-04-29T14:50:49.001Z</time></trkpt><trkpt lat="43.33958514611847" lon="11.665905831811743"><ele>574.0</ele><time>2026-04-29T14:50:50.001Z</time></trkpt><trkpt lat="43.33972214115087" lon="11.665755614171859"><ele>574.0</ele><time>2026-04-29T14:50:51.001Z</time></trkpt><trkpt lat="43.339850411549584" lon="11.66561627385562"><ele>575.6666666666667</ele><time>2026-04-29T14:50:52.001Z</time></trkpt><trkpt lat="43.33994932300172" lon="11.66546680140252"><ele>577.3333333333334</ele><time>2026-04-29T14:50:53.001Z</time></trkpt><trkpt lat="43.34001226453852" lon="11.665285552684393"><ele>579.0</ele><time>2026-04-29T14:50:54.001Z</time></trkpt><trkpt lat="43.340053813229126" lon="11.665060467765812"><ele>579.0</ele><time>2026-04-29T14:50:55.001Z</time></trkpt><trkpt lat="43.34008106767337" lon="11.664814790779452"><ele>579.0</ele><time>2026-04-29T14:50:56.001Z</time></trkpt><trkpt lat="43.34010032320501" lon="11.664590383789495"><ele>579.0</ele><time>2026-04-29T14:50:57.001Z</time></trkpt><trkpt lat="43.34013276167017" lon="11.664396374151163"><ele>578.0</ele><time>2026-04-29T14:50:58.001Z</time></trkpt><trkpt lat="43.34019573260709" lon="11.664249722574908"><ele>577.0</ele><time>2026-04-29T14:50:59.001Z</time></trkpt><trkpt lat="43.340285156538656" lon="11.66415143484952"><ele>576.0</ele><time>2026-04-29T14:51:00.001Z</time></trkpt><trkpt lat="43.34040615938294" lon="11.664105169587325"><ele>575.0</ele><time>2026-04-29T14:51:01.001Z</time></trkpt><trkpt lat="43.34054627513508" lon="11.664097802642573"><ele>578.0</ele><time>2026-04-29T14:51:02.001Z</time></trkpt><trkpt lat="43.34070608197181" lon="11.664111216857588"><ele>581.0</ele><time>2026-04-29T14:51:03.001Z</time></trkpt><trkpt lat="43.340887971896144" lon="11.664112250845058"><ele>584.0</ele><time>2026-04-29T14:51:04.001Z</time></trkpt><trkpt lat="43.34108810540768" lon="11.664102880989434"><ele>584.0</ele><time>2026-04-29T14:51:05.001Z</time></trkpt><trkpt lat="43.34130754883094" lon="11.664100907590791"><ele>584.0</ele><time>2026-04-29T14:51:06.001Z</time></trkpt><trkpt lat="43.34152372109594" lon="11.664093616601683"><ele>584.0</ele><time>2026-04-29T14:51:07.001Z</time></trkpt><trkpt lat="43.34172271436805" lon="11.664066437372325"><ele>583.0</ele><time>2026-04-29T14:51:08.001Z</time></trkpt><trkpt lat="43.34190833361606" lon="11.66400968182173"><ele>582.0</ele><time>2026-04-29T14:51:09.001Z</time></trkpt><trkpt lat="43.34208541992959" lon="11.66391399943202"><ele>581.0</ele><time>2026-04-29T14:51:10.001Z</time></trkpt><trkpt lat="43.34224116302411" lon="11.663773808933605"><ele>582.6666666666666</ele><time>2026-04-29T14:51:11.001Z</time></trkpt><trkpt lat="43.342375778421406" lon="11.663610121904773"><ele>584.3333333333334</ele><time>2026-04-29T14:51:12.001Z</time></trkpt><trkpt lat="43.34249078842622" lon="11.66346288090223"><ele>586.0</ele><time>2026-04-29T14:51:13.001Z</time></trkpt><trkpt lat="43.34261876967668" lon="11.663365757119527"><ele>586.0</ele><time>2026-04-29T14:51:14.001Z</time></trkpt><trkpt lat="43.34277069124189" lon="11.663311284298254"><ele>586.0</ele><time>2026-04-29T14:51:15.001Z</time></trkpt><trkpt lat="43.34293392966192" lon="11.66330775276864"><ele>586.0</ele><time>2026-04-29T14:51:16.001Z</time></trkpt><trkpt lat="43.343099043052554" lon="11.663352537658518"><ele>587.0</ele><time>2026-04-29T14:51:17.001Z</time></trkpt><trkpt lat="43.34326474234776" lon="11.66342571222553"><ele>588.0</ele><time>2026-04-29T14:51:18.001Z</time></trkpt><trkpt lat="43.34340964487094" lon="11.66346730557425"><ele>589.0</ele><time>2026-04-29T14:51:19.001Z</time></trkpt><trkpt lat="43.343531904675416" lon="11.663476589266171"><ele>590.0</ele><time>2026-04-29T14:51:20.001Z</time></trkpt><trkpt lat="43.343637568581826" lon="11.66343962291201"><ele>590.0</ele><time>2026-04-29T14:51:21.001Z</time></trkpt><trkpt lat="43.343726411228495" lon="11.663344025873014"><ele>590.0</ele><time>2026-04-29T14:51:22.001Z</time></trkpt><trkpt lat="43.343814803737125" lon="11.663192254199183"><ele>590.0</ele><time>2026-04-29T14:51:23.001Z</time></trkpt><trkpt lat="43.34391025193799" lon="11.662995858394426"><ele>590.0</ele><time>2026-04-29T14:51:24.001Z</time></trkpt><trkpt lat="43.344019939553505" lon="11.66277769161649"><ele>589.3333333333333</ele><time>2026-04-29T14:51:25.001Z</time></trkpt><trkpt lat="43.34414295228363" lon="11.662542881067841"><ele>588.6666666666666</ele><time>2026-04-29T14:51:26.001Z</time></trkpt><trkpt lat="43.3442757253411" lon="11.66229135282527"><ele>588.0</ele><time>2026-04-29T14:51:27.001Z</time></trkpt><trkpt lat="43.34441373682434" lon="11.66202884074445"><ele>588.0</ele><time>2026-04-29T14:51:28.001Z</time></trkpt><trkpt lat="43.34455466997999" lon="11.661756027045652"><ele>588.0</ele><time>2026-04-29T14:51:29.001Z</time></trkpt><trkpt lat="43.34468731722767" lon="11.661498388068582"><ele>588.0</ele><time>2026-04-29T14:51:30.001Z</time></trkpt><trkpt lat="43.34480552039323" lon="11.661273119971389"><ele>588.0</ele><time>2026-04-29T14:51:31.001Z</time></trkpt><trkpt lat="43.344905955660565" lon="11.661075246606211"><ele>588.0</ele><time>2026-04-29T14:51:32.001Z</time></trkpt><trkpt lat="43.34499134356354" lon="11.660876705229343"><ele>587.6666666666666</ele><time>2026-04-29T14:51:33.001Z</time></trkpt><trkpt lat="43.345048152669904" lon="11.660655746898634"><ele>587.3333333333333</ele><time>2026-04-29T14:51:34.001Z</time></trkpt><trkpt lat="43.345067055735576" lon="11.660425563482416"><ele>587.0</ele><time>2026-04-29T14:51:35.002Z</time></trkpt><trkpt lat="43.34504479338756" lon="11.660186349230505"><ele>588.0</ele><time>2026-04-29T14:51:36.002Z</time></trkpt><trkpt lat="43.34499672049273" lon="11.659935565928132"><ele>589.0</ele><time>2026-04-29T14:51:37.002Z</time></trkpt><trkpt lat="43.34493506116475" lon="11.659675503547241"><ele>590.0</ele><time>2026-04-29T14:51:38.002Z</time></trkpt><trkpt lat="43.34486757043902" lon="11.659401201507583"><ele>592.0</ele><time>2026-04-29T14:51:39.002Z</time></trkpt><trkpt lat="43.34479990140376" lon="11.659111920297592"><ele>594.0</ele><time>2026-04-29T14:51:40.002Z</time></trkpt><trkpt lat="43.34473276632364" lon="11.658817998783224"><ele>596.0</ele><time>2026-04-29T14:51:41.002Z</time></trkpt><trkpt lat="43.34466164394216" lon="11.65851693798928"><ele>585.5</ele><time>2026-04-29T14:51:42.002Z</time></trkpt><trkpt lat="43.344587842653475" lon="11.658213621913415"><ele>575.0</ele><time>2026-04-29T14:51:43.002Z</time></trkpt><trkpt lat="43.34450965847895" lon="11.657912097054616"><ele>577.3333333333333</ele><time>2026-04-29T14:51:44.002Z</time></trkpt><trkpt lat="43.344432050496074" lon="11.657632389755817"><ele>579.6666666666666</ele><time>2026-04-29T14:51:45.002Z</time></trkpt><trkpt lat="43.3443651196243" lon="11.657390887133772"><ele>582.0</ele><time>2026-04-29T14:51:46.002Z</time></trkpt><trkpt lat="43.344318789982836" lon="11.657187750656933"><ele>582.0</ele><time>2026-04-29T14:51:47.002Z</time></trkpt><trkpt lat="43.34429933172649" lon="11.656991951053879"><ele>582.0</ele><time>2026-04-29T14:51:48.002Z</time></trkpt><trkpt lat="43.3443213375183" lon="11.65679535193147"><ele>582.0</ele><time>2026-04-29T14:51:49.002Z</time></trkpt><trkpt lat="43.34438399852148" lon="11.656593139525446"><ele>582.0</ele><time>2026-04-29T14:51:50.002Z</time></trkpt><trkpt lat="43.3444712598784" lon="11.65637640569542"><ele>582.3333333333334</ele><time>2026-04-29T14:51:51.002Z</time></trkpt><trkpt lat="43.34457162501497" lon="11.656165928278021"><ele>582.6666666666667</ele><time>2026-04-29T14:51:52.002Z</time></trkpt><trkpt lat="43.344695072017835" lon="11.655978050085029"><ele>583.0</ele><time>2026-04-29T14:51:53.002Z</time></trkpt><trkpt lat="43.34484936424029" lon="11.65581767431465"><ele>585.6666666666667</ele><time>2026-04-29T14:51:54.002Z</time></trkpt><trkpt lat="43.34500964634588" lon="11.655651205042053"><ele>588.3333333333334</ele><time>2026-04-29T14:51:55.002Z</time></trkpt><trkpt lat="43.34517357193995" lon="11.655475487329312"><ele>591.0</ele><time>2026-04-29T14:51:56.002Z</time></trkpt><trkpt lat="43.345340447502565" lon="11.655295375921058"><ele>589.6666666666666</ele><time>2026-04-29T14:51:57.002Z</time></trkpt><trkpt lat="43.34551175528147" lon="11.655113742566787"><ele>588.3333333333333</ele><time>2026-04-29T14:51:58.002Z</time></trkpt><trkpt lat="43.34568217217477" lon="11.654935619807686"><ele>587.0</ele><time>2026-04-29T14:51:59.002Z</time></trkpt><trkpt lat="43.34585152653376" lon="11.654755744312316"><ele>587.0</ele><time>2026-04-29T14:52:00.002Z</time></trkpt><trkpt lat="43.34601457726565" lon="11.65459651576005"><ele>587.0</ele><time>2026-04-29T14:52:01.002Z</time></trkpt><trkpt lat="43.346181251564964" lon="11.654473926577134"><ele>587.0</ele><time>2026-04-29T14:52:02.002Z</time></trkpt><trkpt lat="43.3463664075987" lon="11.654376820545906"><ele>584.6666666666666</ele><time>2026-04-29T14:52:03.002Z</time></trkpt><trkpt lat="43.346558227099635" lon="11.654286034007715"><ele>582.3333333333334</ele><time>2026-04-29T14:52:04.002Z</time></trkpt><trkpt lat="43.346749158496436" lon="11.654192267367193"><ele>580.0</ele><time>2026-04-29T14:52:05.002Z</time></trkpt><trkpt lat="43.34692471651465" lon="11.654100587336181"><ele>580.0</ele><time>2026-04-29T14:52:06.001Z</time></trkpt><trkpt lat="43.347081774714574" lon="11.65402037300481"><ele>580.0</ele><time>2026-04-29T14:52:07.001Z</time></trkpt><trkpt lat="43.34722438466546" lon="11.653941686103568"><ele>580.0</ele><time>2026-04-29T14:52:08.001Z</time></trkpt><trkpt lat="43.34735089691247" lon="11.65384951976291"><ele>580.0</ele><time>2026-04-29T14:52:09.001Z</time></trkpt><trkpt lat="43.34745763180597" lon="11.653713278918902"><ele>580.0</ele><time>2026-04-29T14:52:10.001Z</time></trkpt><trkpt lat="43.34753036487384" lon="11.653520657020866"><ele>580.0</ele><time>2026-04-29T14:52:11.001Z</time></trkpt><trkpt lat="43.34756251798909" lon="11.653280894816598"><ele>580.0</ele><time>2026-04-29T14:52:12.001Z</time></trkpt><trkpt lat="43.34757220024227" lon="11.653011432836296"><ele>580.0</ele><time>2026-04-29T14:52:13.001Z</time></trkpt><trkpt lat="43.34758903930387" lon="11.652724255306579"><ele>580.0</ele><time>2026-04-29T14:52:14.001Z</time></trkpt><trkpt lat="43.34761484064769" lon="11.652446596006587"><ele>580.0</ele><time>2026-04-29T14:52:15.001Z</time></trkpt><trkpt lat="43.34764172533858" lon="11.652204809823447"><ele>580.0</ele><time>2026-04-29T14:52:16.001Z</time></trkpt><trkpt lat="43.3476638933159" lon="11.652001272445093"><ele>580.0</ele><time>2026-04-29T14:52:17.001Z</time></trkpt><trkpt lat="43.34770405475568" lon="11.651838534794788"><ele>581.0</ele><time>2026-04-29T14:52:18.001Z</time></trkpt><trkpt lat="43.34777969876602" lon="11.651705327441814"><ele>582.0</ele><time>2026-04-29T14:52:19.001Z</time></trkpt><trkpt lat="43.347889165542696" lon="11.651612119159362"><ele>583.0</ele><time>2026-04-29T14:52:20.001Z</time></trkpt><trkpt lat="43.34801884783715" lon="11.651595437927986"><ele>584.0</ele><time>2026-04-29T14:52:21.001Z</time></trkpt><trkpt lat="43.34815705622345" lon="11.651615481719734"><ele>584.0</ele><time>2026-04-29T14:52:22.001Z</time></trkpt><trkpt lat="43.34831471557499" lon="11.65166003764651"><ele>584.0</ele><time>2026-04-29T14:52:23.001Z</time></trkpt><trkpt lat="43.348487205411715" lon="11.651689447949854"><ele>584.0</ele><time>2026-04-29T14:52:24.001Z</time></trkpt><trkpt lat="43.34866912628609" lon="11.651716513774645"><ele>584.0</ele><time>2026-04-29T14:52:25.001Z</time></trkpt><trkpt lat="43.34886146798595" lon="11.651749926545126"><ele>584.0</ele><time>2026-04-29T14:52:26.001Z</time></trkpt><trkpt lat="43.349042681683564" lon="11.651783210726059"><ele>584.0</ele><time>2026-04-29T14:52:27.001Z</time></trkpt><trkpt lat="43.3491922977635" lon="11.651836225569006"><ele>584.0</ele><time>2026-04-29T14:52:28.001Z</time></trkpt><trkpt lat="43.34932100791116" lon="11.65192681826776"><ele>584.0</ele><time>2026-04-29T14:52:29.001Z</time></trkpt><trkpt lat="43.34938939122567" lon="11.652098233629308"><ele>584.0</ele><time>2026-04-29T14:52:30.001Z</time></trkpt><trkpt lat="43.34944426641023" lon="11.65229132864097"><ele>584.0</ele><time>2026-04-29T14:52:31.001Z</time></trkpt><trkpt lat="43.349472049871046" lon="11.65251040515622"><ele>586.5</ele><time>2026-04-29T14:52:32.001Z</time></trkpt><trkpt lat="43.34949059185731" lon="11.652702881792726"><ele>589.0</ele><time>2026-04-29T14:52:33.001Z</time></trkpt><trkpt lat="43.3495178724713" lon="11.652863317166464"><ele>591.5</ele><time>2026-04-29T14:52:34.001Z</time></trkpt><trkpt lat="43.3495688363281" lon="11.652989387447255"><ele>594.0</ele><time>2026-04-29T14:52:35.001Z</time></trkpt><trkpt lat="43.349648222526476" lon="11.653063762101082"><ele>593.25</ele><time>2026-04-29T14:52:36.001Z</time></trkpt><trkpt lat="43.349743185622906" lon="11.653065324788725"><ele>592.5</ele><time>2026-04-29T14:52:37.001Z</time></trkpt><trkpt lat="43.34985108009961" lon="11.652989683231606"><ele>591.75</ele><time>2026-04-29T14:52:38.001Z</time></trkpt><trkpt lat="43.34994872110894" lon="11.65284906526164"><ele>591.0</ele><time>2026-04-29T14:52:39.001Z</time></trkpt><trkpt lat="43.350044574883" lon="11.652658467413497"><ele>588.3333333333334</ele><time>2026-04-29T14:52:40.001Z</time></trkpt><trkpt lat="43.350159196888434" lon="11.65246315895999"><ele>585.6666666666667</ele><time>2026-04-29T14:52:41.001Z</time></trkpt><trkpt lat="43.35029283437949" lon="11.652288461825078"><ele>583.0</ele><time>2026-04-29T14:52:42.001Z</time></trkpt><trkpt lat="43.35041349641915" lon="11.652174744892166"><ele>583.0</ele><time>2026-04-29T14:52:43.001Z</time></trkpt><trkpt lat="43.350541618104344" lon="11.652110770883272"><ele>583.0</ele><time>2026-04-29T14:52:44.001Z</time></trkpt><trkpt lat="43.35069326409885" lon="11.652095596244195"><ele>583.0</ele><time>2026-04-29T14:52:45.001Z</time></trkpt><trkpt lat="43.35085730831777" lon="11.65214202256909"><ele>583.0</ele><time>2026-04-29T14:52:46.001Z</time></trkpt><trkpt lat="43.35100280163778" lon="11.652240967035311"><ele>583.0</ele><time>2026-04-29T14:52:47.001Z</time></trkpt><trkpt lat="43.3511238065702" lon="11.652368359092057"><ele>583.0</ele><time>2026-04-29T14:52:48.001Z</time></trkpt><trkpt lat="43.351241755910316" lon="11.652463305517225"><ele>583.0</ele><time>2026-04-29T14:52:49.001Z</time></trkpt><trkpt lat="43.35136625310339" lon="11.652488112353751"><ele>583.0</ele><time>2026-04-29T14:52:50.001Z</time></trkpt><trkpt lat="43.35148538431559" lon="11.652422014489357"><ele>583.0</ele><time>2026-04-29T14:52:51.001Z</time></trkpt><trkpt lat="43.35155135367079" lon="11.652222637292871"><ele>583.0</ele><time>2026-04-29T14:52:52.001Z</time></trkpt><trkpt lat="43.351594525048284" lon="11.652024087856175"><ele>580.0</ele><time>2026-04-29T14:52:53.001Z</time></trkpt><trkpt lat="43.3516201744863" lon="11.651809059413566"><ele>577.0</ele><time>2026-04-29T14:52:54.001Z</time></trkpt><trkpt lat="43.3516597286978" lon="11.65162615712815"><ele>574.0</ele><time>2026-04-29T14:52:55.001Z</time></trkpt><trkpt lat="43.35174643586893" lon="11.65148458368929"><ele>571.0</ele><time>2026-04-29T14:52:56.001Z</time></trkpt><trkpt lat="43.35188402557586" lon="11.651394244598752"><ele>571.0</ele><time>2026-04-29T14:52:57.001Z</time></trkpt><trkpt lat="43.352036207015" lon="11.651340256441946"><ele>571.0</ele><time>2026-04-29T14:52:58.001Z</time></trkpt><trkpt lat="43.35219446543896" lon="11.651280117885248"><ele>571.0</ele><time>2026-04-29T14:52:59.001Z</time></trkpt><trkpt lat="43.352358244018276" lon="11.651199170619481"><ele>571.0</ele><time>2026-04-29T14:53:00.001Z</time></trkpt><trkpt lat="43.35252672855984" lon="11.651136399290275"><ele>571.0</ele><time>2026-04-29T14:53:01.001Z</time></trkpt><trkpt lat="43.35269469899809" lon="11.65098615927526"><ele>571.0</ele><time>2026-04-29T14:53:02.001Z</time></trkpt><trkpt lat="43.352869659396674" lon="11.650878398365219"><ele>572.3333333333334</ele><time>2026-04-29T14:53:03.001Z</time></trkpt><trkpt lat="43.35303705091239" lon="11.65074231198474"><ele>573.6666666666666</ele><time>2026-04-29T14:53:04.001Z</time></trkpt><trkpt lat="43.35320134733884" lon="11.65058796400821"><ele>575.0</ele><time>2026-04-29T14:53:05.001Z</time></trkpt><trkpt lat="43.35337481337649" lon="11.650427073742147"><ele>573.6666666666666</ele><time>2026-04-29T14:53:06.001Z</time></trkpt><trkpt lat="43.353548719163534" lon="11.650261117882694"><ele>572.3333333333334</ele><time>2026-04-29T14:53:07.001Z</time></trkpt><trkpt lat="43.35370357493995" lon="11.650108031291145"><ele>571.0</ele><time>2026-04-29T14:53:08.001Z</time></trkpt><trkpt lat="43.35383691041071" lon="11.649961393393774"><ele>571.5</ele><time>2026-04-29T14:53:09.001Z</time></trkpt><trkpt lat="43.3539443125261" lon="11.649806278760492"><ele>572.0</ele><time>2026-04-29T14:53:10.001Z</time></trkpt><trkpt lat="43.35401743188795" lon="11.649639907658091"><ele>572.5</ele><time>2026-04-29T14:53:11.001Z</time></trkpt><trkpt lat="43.35404991555555" lon="11.649463489101516"><ele>573.0</ele><time>2026-04-29T14:53:12.001Z</time></trkpt><trkpt lat="43.354023555910054" lon="11.649284652375123"><ele>570.6666666666666</ele><time>2026-04-29T14:53:13.001Z</time></trkpt><trkpt lat="43.353945081433274" lon="11.649097176569116"><ele>568.3333333333333</ele><time>2026-04-29T14:53:14.001Z</time></trkpt><trkpt lat="43.35383476321644" lon="11.648900974380055"><ele>566.0</ele><time>2026-04-29T14:53:15.001Z</time></trkpt><trkpt lat="43.353728511581274" lon="11.6486981373393"><ele>568.0</ele><time>2026-04-29T14:53:16.001Z</time></trkpt><trkpt lat="43.353665958124154" lon="11.648481591395951"><ele>570.0</ele><time>2026-04-29T14:53:17.001Z</time></trkpt><trkpt lat="43.353646429335384" lon="11.648276119780697"><ele>572.0</ele><time>2026-04-29T14:53:18.001Z</time></trkpt><trkpt lat="43.35365847113165" lon="11.648082468319812"><ele>572.0</ele><time>2026-04-29T14:53:19.001Z</time></trkpt><trkpt lat="43.3537012928709" lon="11.647886057597853"><ele>572.0</ele><time>2026-04-29T14:53:20.001Z</time></trkpt><trkpt lat="43.35377799785138" lon="11.647700020965669"><ele>572.0</ele><time>2026-04-29T14:53:21.001Z</time></trkpt><trkpt lat="43.353866296619806" lon="11.647516697657908"><ele>576.6666666666666</ele><time>2026-04-29T14:53:22.001Z</time></trkpt><trkpt lat="43.35395266160506" lon="11.647319095377396"><ele>581.3333333333334</ele><time>2026-04-29T14:53:23.001Z</time></trkpt><trkpt lat="43.354064200085475" lon="11.647134001087517"><ele>586.0</ele><time>2026-04-29T14:53:24.001Z</time></trkpt><trkpt lat="43.35418927236947" lon="11.646963794752885"><ele>584.3333333333334</ele><time>2026-04-29T14:53:25.001Z</time></trkpt><trkpt lat="43.35432323396082" lon="11.646795793002623"><ele>582.6666666666666</ele><time>2026-04-29T14:53:26.001Z</time></trkpt><trkpt lat="43.35445700858447" lon="11.646618230803401"><ele>581.0</ele><time>2026-04-29T14:53:27.001Z</time></trkpt><trkpt lat="43.35457878076741" lon="11.646436822030047"><ele>581.0</ele><time>2026-04-29T14:53:28.001Z</time></trkpt><trkpt lat="43.354692024629166" lon="11.646259324367078"><ele>581.0</ele><time>2026-04-29T14:53:29.001Z</time></trkpt><trkpt lat="43.35480485560611" lon="11.646069847026158"><ele>581.0</ele><time>2026-04-29T14:53:30.002Z</time></trkpt><trkpt lat="43.354913640106545" lon="11.645858530220254"><ele>580.3333333333333</ele><time>2026-04-29T14:53:31.002Z</time></trkpt><trkpt lat="43.355013337994556" lon="11.645631446771219"><ele>579.6666666666666</ele><time>2026-04-29T14:53:32.002Z</time></trkpt><trkpt lat="43.35510171648042" lon="11.645390629715907"><ele>579.0</ele><time>2026-04-29T14:53:33.002Z</time></trkpt><trkpt lat="43.35517962091135" lon="11.645147796770502"><ele>578.0</ele><time>2026-04-29T14:53:34.002Z</time></trkpt><trkpt lat="43.35525045044428" lon="11.644919866092405"><ele>577.0</ele><time>2026-04-29T14:53:35.002Z</time></trkpt><trkpt lat="43.35532074177275" lon="11.644724324922572"><ele>576.0</ele><time>2026-04-29T14:53:36.002Z</time></trkpt><trkpt lat="43.35537583217392" lon="11.64454692126898"><ele>575.75</ele><time>2026-04-29T14:53:37.002Z</time></trkpt><trkpt lat="43.35540594152744" lon="11.64438794946711"><ele>575.5</ele><time>2026-04-29T14:53:38.002Z</time></trkpt><trkpt lat="43.3554042551505" lon="11.644220237059406"><ele>575.25</ele><time>2026-04-29T14:53:39.002Z</time></trkpt><trkpt lat="43.35536040012111" lon="11.644061616283432"><ele>575.0</ele><time>2026-04-29T14:53:40.002Z</time></trkpt><trkpt lat="43.355275418657655" lon="11.643921227697653"><ele>575.0</ele><time>2026-04-29T14:53:41.002Z</time></trkpt><trkpt lat="43.355167951354844" lon="11.643806554318028"><ele>575.0</ele><time>2026-04-29T14:53:42.002Z</time></trkpt><trkpt lat="43.35504237054833" lon="11.643696578479277"><ele>575.0</ele><time>2026-04-29T14:53:43.002Z</time></trkpt><trkpt lat="43.354919588871184" lon="11.643563100076847"><ele>575.0</ele><time>2026-04-29T14:53:44.002Z</time></trkpt><trkpt lat="43.35480223108609" lon="11.643414466824211"><ele>571.0</ele><time>2026-04-29T14:53:45.002Z</time></trkpt><trkpt lat="43.35468403482992" lon="11.643279268861304"><ele>567.0</ele><time>2026-04-29T14:53:46.002Z</time></trkpt><trkpt lat="43.35454903224418" lon="11.643185387951506"><ele>563.0</ele><time>2026-04-29T14:53:47.002Z</time></trkpt><trkpt lat="43.35439488861368" lon="11.643140872448448"><ele>563.0</ele><time>2026-04-29T14:53:48.002Z</time></trkpt><trkpt lat="43.354222793634555" lon="11.643139669189603"><ele>563.0</ele><time>2026-04-29T14:53:49.002Z</time></trkpt><trkpt lat="43.354037357033434" lon="11.643160766471741"><ele>563.0</ele><time>2026-04-29T14:53:50.002Z</time></trkpt><trkpt lat="43.35385615085604" lon="11.643208677622043"><ele>559.3333333333333</ele><time>2026-04-29T14:53:51.002Z</time></trkpt><trkpt lat="43.35371324060287" lon="11.643296405580072"><ele>555.6666666666666</ele><time>2026-04-29T14:53:52.002Z</time></trkpt><trkpt lat="43.35360746911054" lon="11.643441948512084"><ele>552.0</ele><time>2026-04-29T14:53:53.002Z</time></trkpt><trkpt lat="43.353516122277036" lon="11.643627117529723"><ele>552.6666666666666</ele><time>2026-04-29T14:53:54.002Z</time></trkpt><trkpt lat="43.353414664600805" lon="11.643827370931211"><ele>553.3333333333333</ele><time>2026-04-29T14:53:55.002Z</time></trkpt><trkpt lat="43.353258760836376" lon="11.643934413891698"><ele>554.0</ele><time>2026-04-29T14:53:56.002Z</time></trkpt><trkpt lat="43.35308213940194" lon="11.644006481418517"><ele>554.3333333333333</ele><time>2026-04-29T14:53:57.002Z</time></trkpt><trkpt lat="43.35288978857075" lon="11.644044601309332"><ele>554.6666666666666</ele><time>2026-04-29T14:53:58.002Z</time></trkpt><trkpt lat="43.35268801398689" lon="11.644072105043898"><ele>555.0</ele><time>2026-04-29T14:53:59.002Z</time></trkpt><trkpt lat="43.352513429082805" lon="11.644097978351407"><ele>555.0</ele><time>2026-04-29T14:54:00.002Z</time></trkpt><trkpt lat="43.35234343644313" lon="11.644131922369207"><ele>555.0</ele><time>2026-04-29T14:54:01.002Z</time></trkpt><trkpt lat="43.35216775063774" lon="11.644226967276854"><ele>555.0</ele><time>2026-04-29T14:54:02.002Z</time></trkpt><trkpt lat="43.351995319963876" lon="11.644334370909807"><ele>554.0</ele><time>2026-04-29T14:54:03.002Z</time></trkpt><trkpt lat="43.351840002693244" lon="11.644412717626887"><ele>553.0</ele><time>2026-04-29T14:54:04.002Z</time></trkpt><trkpt lat="43.351694792144066" lon="11.64442772662105"><ele>552.0</ele><time>2026-04-29T14:54:05.002Z</time></trkpt><trkpt lat="43.351542009203726" lon="11.644387009769687"><ele>552.0</ele><time>2026-04-29T14:54:06.002Z</time></trkpt><trkpt lat="43.35139015692213" lon="11.644291528006443"><ele>552.0</ele><time>2026-04-29T14:54:07.002Z</time></trkpt><trkpt lat="43.35125093034754" lon="11.644152894962392"><ele>552.0</ele><time>2026-04-29T14:54:08.002Z</time></trkpt><trkpt lat="43.351125657138276" lon="11.643975840407276"><ele>551.3333333333334</ele><time>2026-04-29T14:54:09.002Z</time></trkpt><trkpt lat="43.351008510829146" lon="11.64377660503619"><ele>550.6666666666667</ele><time>2026-04-29T14:54:10.002Z</time></trkpt><trkpt lat="43.35088605632723" lon="11.643585338492937"><ele>550.0</ele><time>2026-04-29T14:54:11.002Z</time></trkpt><trkpt lat="43.35075751666369" lon="11.643393658184657"><ele>551.6666666666667</ele><time>2026-04-29T14:54:12.001Z</time></trkpt><trkpt lat="43.35062408864786" lon="11.643198141638445"><ele>553.3333333333334</ele><time>2026-04-29T14:54:13.001Z</time></trkpt><trkpt lat="43.35048967041828" lon="11.643011077376766"><ele>555.0</ele><time>2026-04-29T14:54:14.001Z</time></trkpt><trkpt lat="43.35034620475767" lon="11.642841477584636"><ele>557.3333333333334</ele><time>2026-04-29T14:54:15.001Z</time></trkpt><trkpt lat="43.35018567138995" lon="11.642701026821472"><ele>559.6666666666667</ele><time>2026-04-29T14:54:16.001Z</time></trkpt><trkpt lat="43.35001248945407" lon="11.642581721854807"><ele>562.0</ele><time>2026-04-29T14:54:17.001Z</time></trkpt><trkpt lat="43.349839280510054" lon="11.64246143398347"><ele>565.25</ele><time>2026-04-29T14:54:18.001Z</time></trkpt><trkpt lat="43.34968451370295" lon="11.642343897919336"><ele>568.5</ele><time>2026-04-29T14:54:19.001Z</time></trkpt><trkpt lat="43.34956197586945" lon="11.6422481360362"><ele>571.75</ele><time>2026-04-29T14:54:20.001Z</time></trkpt><trkpt lat="43.34946856719986" lon="11.642162323296864"><ele>575.0</ele><time>2026-04-29T14:54:21.001Z</time></trkpt><trkpt lat="43.34939924013486" lon="11.642051220270318"><ele>575.25</ele><time>2026-04-29T14:54:22.001Z</time></trkpt><trkpt lat="43.34935575260959" lon="11.64190282565471"><ele>575.5</ele><time>2026-04-29T14:54:23.001Z</time></trkpt><trkpt lat="43.34934846026488" lon="11.64172895579777"><ele>575.75</ele><time>2026-04-29T14:54:24.001Z</time></trkpt><trkpt lat="43.349394146983315" lon="11.641546048810815"><ele>576.0</ele><time>2026-04-29T14:54:25.001Z</time></trkpt><trkpt lat="43.34942603533402" lon="11.641374478722511"><ele>576.0</ele><time>2026-04-29T14:54:26.001Z</time></trkpt><trkpt lat="43.34939035617415" lon="11.64121140126711"><ele>576.0</ele><time>2026-04-29T14:54:27.001Z</time></trkpt><trkpt lat="43.34929641851064" lon="11.641069019327437"><ele>576.0</ele><time>2026-04-29T14:54:28.001Z</time></trkpt><trkpt lat="43.349171588822536" lon="11.640979597368778"><ele>576.0</ele><time>2026-04-29T14:54:29.001Z</time></trkpt><trkpt lat="43.34901458303287" lon="11.640913126802072"><ele>577.3333333333334</ele><time>2026-04-29T14:54:30.001Z</time></trkpt><trkpt lat="43.348858030807456" lon="11.640805489888528"><ele>578.6666666666667</ele><time>2026-04-29T14:54:31.001Z</time></trkpt><trkpt lat="43.34870530333237" lon="11.640651363486851"><ele>580.0</ele><time>2026-04-29T14:54:32.001Z</time></trkpt><trkpt lat="43.34856782659774" lon="11.640487538652897"><ele>580.0</ele><time>2026-04-29T14:54:33.001Z</time></trkpt><trkpt lat="43.34842907476904" lon="11.640346592312499"><ele>580.0</ele><time>2026-04-29T14:54:34.001Z</time></trkpt><trkpt lat="43.34826429104745" lon="11.640249906669032"><ele>580.0</ele><time>2026-04-29T14:54:35.001Z</time></trkpt><trkpt lat="43.348071016945" lon="11.640177061325568"><ele>577.3333333333334</ele><time>2026-04-29T14:54:36.001Z</time></trkpt><trkpt lat="43.34786628653281" lon="11.640103641621941"><ele>574.6666666666666</ele><time>2026-04-29T14:54:37.001Z</time></trkpt><trkpt lat="43.34764325298231" lon="11.640022994319413"><ele>572.0</ele><time>2026-04-29T14:54:38.001Z</time></trkpt><trkpt lat="43.34742680343467" lon="11.639946603525937"><ele>572.0</ele><time>2026-04-29T14:54:39.001Z</time></trkpt><trkpt lat="43.34721696329432" lon="11.63986553702134"><ele>572.0</ele><time>2026-04-29T14:54:40.001Z</time></trkpt><trkpt lat="43.34703936325875" lon="11.639784393611402"><ele>572.0</ele><time>2026-04-29T14:54:41.001Z</time></trkpt><trkpt lat="43.3468854061058" lon="11.639683142269899"><ele>571.3333333333333</ele><time>2026-04-29T14:54:42.001Z</time></trkpt><trkpt lat="43.34676444626354" lon="11.639508496462424"><ele>570.6666666666666</ele><time>2026-04-29T14:54:43.001Z</time></trkpt><trkpt lat="43.346642021177956" lon="11.63931472531349"><ele>570.0</ele><time>2026-04-29T14:54:44.001Z</time></trkpt><trkpt lat="43.34651054631341" lon="11.639106538113442"><ele>569.0</ele><time>2026-04-29T14:54:45.001Z</time></trkpt><trkpt lat="43.34639946600195" lon="11.638879167262704"><ele>568.0</ele><time>2026-04-29T14:54:46.001Z</time></trkpt><trkpt lat="43.346279016131845" lon="11.63866970362222"><ele>567.0</ele><time>2026-04-29T14:54:47.001Z</time></trkpt><trkpt lat="43.346135251917794" lon="11.638494323756861"><ele>565.3333333333334</ele><time>2026-04-29T14:54:48.001Z</time></trkpt><trkpt lat="43.34596546562888" lon="11.638344692796561"><ele>563.6666666666667</ele><time>2026-04-29T14:54:49.001Z</time></trkpt><trkpt lat="43.34577682404918" lon="11.638208321442823"><ele>562.0</ele><time>2026-04-29T14:54:50.001Z</time></trkpt><trkpt lat="43.345580439724166" lon="11.638063563326781"><ele>560.0</ele><time>2026-04-29T14:54:51.001Z</time></trkpt><trkpt lat="43.34538238127747" lon="11.637910781524642"><ele>558.0</ele><time>2026-04-29T14:54:52.001Z</time></trkpt><trkpt lat="43.34519006433263" lon="11.637763477060856"><ele>556.0</ele><time>2026-04-29T14:54:53.001Z</time></trkpt><trkpt lat="43.34501038530802" lon="11.637630330812732"><ele>555.6666666666667</ele><time>2026-04-29T14:54:54.001Z</time></trkpt><trkpt lat="43.34483877953873" lon="11.637508458913732"><ele>555.3333333333334</ele><time>2026-04-29T14:54:55.001Z</time></trkpt><trkpt lat="43.344663797756965" lon="11.63740662236057"><ele>555.0</ele><time>2026-04-29T14:54:56.001Z</time></trkpt><trkpt lat="43.34447104620986" lon="11.63733165437513"><ele>553.6666666666666</ele><time>2026-04-29T14:54:57.001Z</time></trkpt><trkpt lat="43.344276122059995" lon="11.637283834515706"><ele>552.3333333333333</ele><time>2026-04-29T14:54:58.001Z</time></trkpt><trkpt lat="43.34410570351167" lon="11.637245157929717"><ele>551.0</ele><time>2026-04-29T14:54:59.001Z</time></trkpt><trkpt lat="43.34396337510752" lon="11.637187884240692"><ele>549.0</ele><time>2026-04-29T14:55:00.001Z</time></trkpt><trkpt lat="43.34384697659797" lon="11.637096424457773"><ele>547.0</ele><time>2026-04-29T14:55:01.001Z</time></trkpt><trkpt lat="43.3437660377893" lon="11.636948812638584"><ele>545.0</ele><time>2026-04-29T14:55:02.001Z</time></trkpt><trkpt lat="43.34370796891387" lon="11.6367449615132"><ele>543.0</ele><time>2026-04-29T14:55:03.001Z</time></trkpt><trkpt lat="43.34367714970173" lon="11.636514236245969"><ele>543.0</ele><time>2026-04-29T14:55:04.001Z</time></trkpt><trkpt lat="43.343713586185835" lon="11.636302827422702"><ele>543.0</ele><time>2026-04-29T14:55:05.001Z</time></trkpt><trkpt lat="43.343785473463" lon="11.63613570821288"><ele>543.0</ele><time>2026-04-29T14:55:06.001Z</time></trkpt><trkpt lat="43.34389292917201" lon="11.636007443158338"><ele>543.0</ele><time>2026-04-29T14:55:07.001Z</time></trkpt><trkpt lat="43.34400940601204" lon="11.635831667725869"><ele>544.6666666666666</ele><time>2026-04-29T14:55:08.001Z</time></trkpt><trkpt lat="43.34416061193779" lon="11.635673928020616"><ele>546.3333333333333</ele><time>2026-04-29T14:55:09.001Z</time></trkpt><trkpt lat="43.34430093943643" lon="11.635503012383994"><ele>548.0</ele><time>2026-04-29T14:55:10.001Z</time></trkpt><trkpt lat="43.34441652893395" lon="11.635350357909038"><ele>546.25</ele><time>2026-04-29T14:55:11.001Z</time></trkpt><trkpt lat="43.344503881004265" lon="11.635204780339269"><ele>544.5</ele><time>2026-04-29T14:55:12.001Z</time></trkpt><trkpt lat="43.34454284417494" lon="11.635038276631885"><ele>542.75</ele><time>2026-04-29T14:55:13.001Z</time></trkpt><trkpt lat="43.34452894491555" lon="11.634842336089353"><ele>541.0</ele><time>2026-04-29T14:55:14.001Z</time></trkpt><trkpt lat="43.344443411858734" lon="11.634637098305523"><ele>539.0</ele><time>2026-04-29T14:55:15.001Z</time></trkpt><trkpt lat="43.344337048006246" lon="11.634439134473002"><ele>537.0</ele><time>2026-04-29T14:55:16.001Z</time></trkpt><trkpt lat="43.344246175032794" lon="11.634216271800081"><ele>535.0</ele><time>2026-04-29T14:55:17.001Z</time></trkpt><trkpt lat="43.3441915449419" lon="11.633961906190148"><ele>535.0</ele><time>2026-04-29T14:55:18.001Z</time></trkpt><trkpt lat="43.34416640520669" lon="11.633718020751157"><ele>535.0</ele><time>2026-04-29T14:55:19.001Z</time></trkpt><trkpt lat="43.34416658195731" lon="11.633479274871483"><ele>535.0</ele><time>2026-04-29T14:55:20.001Z</time></trkpt><trkpt lat="43.34419867956677" lon="11.633222775383578"><ele>533.0</ele><time>2026-04-29T14:55:21.001Z</time></trkpt><trkpt lat="43.344251339804075" lon="11.632956326729099"><ele>531.0</ele><time>2026-04-29T14:55:22.001Z</time></trkpt><trkpt lat="43.344311212915954" lon="11.632674314214942"><ele>529.0</ele><time>2026-04-29T14:55:23.001Z</time></trkpt><trkpt lat="43.34436793261434" lon="11.632381342587735"><ele>528.0</ele><time>2026-04-29T14:55:24.001Z</time></trkpt><trkpt lat="43.34442611190503" lon="11.632074290423391"><ele>527.0</ele><time>2026-04-29T14:55:25.001Z</time></trkpt><trkpt lat="43.344489184363134" lon="11.631757427941746"><ele>526.6666666666666</ele><time>2026-04-29T14:55:26.001Z</time></trkpt><trkpt lat="43.34454954100418" lon="11.631458130033371"><ele>526.3333333333334</ele><time>2026-04-29T14:55:27.001Z</time></trkpt><trkpt lat="43.3446043447256" lon="11.63119107124531"><ele>526.0</ele><time>2026-04-29T14:55:28.001Z</time></trkpt><trkpt lat="43.344659042866006" lon="11.630954064283406"><ele>523.6666666666667</ele><time>2026-04-29T14:55:29.001Z</time></trkpt><trkpt lat="43.34472978943029" lon="11.630739852381147"><ele>521.3333333333334</ele><time>2026-04-29T14:55:30.001Z</time></trkpt><trkpt lat="43.34485656476649" lon="11.630551246181719"><ele>519.0</ele><time>2026-04-29T14:55:31.001Z</time></trkpt><trkpt lat="43.34497889915366" lon="11.63033097957402"><ele>518.0</ele><time>2026-04-29T14:55:32.001Z</time></trkpt><trkpt lat="43.3451295814643" lon="11.630122404669994"><ele>517.0</ele><time>2026-04-29T14:55:33.001Z</time></trkpt><trkpt lat="43.34527510560337" lon="11.629898602428154"><ele>516.0</ele><time>2026-04-29T14:55:34.001Z</time></trkpt><trkpt lat="43.345402418665856" lon="11.62969132230041"><ele>516.0</ele><time>2026-04-29T14:55:35.001Z</time></trkpt><trkpt lat="43.34551954772539" lon="11.629501976505068"><ele>516.0</ele><time>2026-04-29T14:55:36.001Z</time></trkpt><trkpt lat="43.34563077035349" lon="11.629312748487697"><ele>516.0</ele><time>2026-04-29T14:55:37.001Z</time></trkpt><trkpt lat="43.34572350654547" lon="11.629131596566484"><ele>516.0</ele><time>2026-04-29T14:55:38.001Z</time></trkpt><trkpt lat="43.34578510675834" lon="11.62892995539619"><ele>516.0</ele><time>2026-04-29T14:55:39.001Z</time></trkpt><trkpt lat="43.345812788777486" lon="11.628705686413094"><ele>516.0</ele><time>2026-04-29T14:55:40.001Z</time></trkpt><trkpt lat="43.34582777853092" lon="11.628477279227472"><ele>517.25</ele><time>2026-04-29T14:55:41.001Z</time></trkpt><trkpt lat="43.34585808942324" lon="11.628272681707497"><ele>518.5</ele><time>2026-04-29T14:55:42.001Z</time></trkpt><trkpt lat="43.34592966763384" lon="11.628110744751316"><ele>519.75</ele><time>2026-04-29T14:55:43.001Z</time></trkpt><trkpt lat="43.346030493415626" lon="11.62800129998955"><ele>521.0</ele><time>2026-04-29T14:55:44.001Z</time></trkpt><trkpt lat="43.34613287129079" lon="11.627931778111622"><ele>521.0</ele><time>2026-04-29T14:55:45.001Z</time></trkpt><trkpt lat="43.34621895113287" lon="11.627881328326756"><ele>521.0</ele><time>2026-04-29T14:55:46.001Z</time></trkpt><trkpt lat="43.34631238988902" lon="11.627831046916548"><ele>521.0</ele><time>2026-04-29T14:55:47.001Z</time></trkpt><trkpt lat="43.34643024721226" lon="11.62775269134006"><ele>521.0</ele><time>2026-04-29T14:55:48.001Z</time></trkpt><trkpt lat="43.34655525598768" lon="11.627647675171918"><ele>518.6666666666666</ele><time>2026-04-29T14:55:49.002Z</time></trkpt><trkpt lat="43.34669077589879" lon="11.6275251037363"><ele>516.3333333333334</ele><time>2026-04-29T14:55:50.002Z</time></trkpt><trkpt lat="43.34683197985684" lon="11.62735948519947"><ele>514.0</ele><time>2026-04-29T14:55:51.002Z</time></trkpt><trkpt lat="43.346964644049784" lon="11.627189773824282"><ele>514.0</ele><time>2026-04-29T14:55:52.002Z</time></trkpt><trkpt lat="43.34708189550105" lon="11.627019270842847"><ele>514.0</ele><time>2026-04-29T14:55:53.002Z</time></trkpt><trkpt lat="43.34717240435841" lon="11.626831128034942"><ele>514.0</ele><time>2026-04-29T14:55:54.002Z</time></trkpt><trkpt lat="43.34722981611565" lon="11.626634419339341"><ele>513.75</ele><time>2026-04-29T14:55:55.002Z</time></trkpt><trkpt lat="43.34729833188568" lon="11.626472252194931"><ele>513.5</ele><time>2026-04-29T14:55:56.002Z</time></trkpt><trkpt lat="43.34740889141248" lon="11.626343201390565"><ele>513.25</ele><time>2026-04-29T14:55:57.002Z</time></trkpt><trkpt lat="43.34754845542951" lon="11.6262488391808"><ele>513.0</ele><time>2026-04-29T14:55:58.002Z</time></trkpt><trkpt lat="43.347693410799046" lon="11.62614550738806"><ele>510.66666666666663</ele><time>2026-04-29T14:55:59.002Z</time></trkpt><trkpt lat="43.34784512047655" lon="11.626034835067621"><ele>508.3333333333333</ele><time>2026-04-29T14:56:00.002Z</time></trkpt><trkpt lat="43.3479994338655" lon="11.625918530823173"><ele>506.0</ele><time>2026-04-29T14:56:01.002Z</time></trkpt><trkpt lat="43.34816202748941" lon="11.62579994780282"><ele>506.0</ele><time>2026-04-29T14:56:02.002Z</time></trkpt><trkpt lat="43.34832826258298" lon="11.625684426127473"><ele>506.0</ele><time>2026-04-29T14:56:03.002Z</time></trkpt><trkpt lat="43.34848489355556" lon="11.625577735136496"><ele>506.0</ele><time>2026-04-29T14:56:04.002Z</time></trkpt><trkpt lat="43.34862733404202" lon="11.625472169374016"><ele>506.0</ele><time>2026-04-29T14:56:05.002Z</time></trkpt><trkpt lat="43.3487482226194" lon="11.6253516688232"><ele>506.0</ele><time>2026-04-29T14:56:06.002Z</time></trkpt><trkpt lat="43.34883447621152" lon="11.625194583120665"><ele>506.0</ele><time>2026-04-29T14:56:07.002Z</time></trkpt><trkpt lat="43.348886254288864" lon="11.62500834875591"><ele>506.0</ele><time>2026-04-29T14:56:08.002Z</time></trkpt><trkpt lat="43.34889395510222" lon="11.624797809234186"><ele>502.3333333333333</ele><time>2026-04-29T14:56:09.002Z</time></trkpt><trkpt lat="43.348888885623595" lon="11.624565076760698"><ele>498.66666666666663</ele><time>2026-04-29T14:56:10.002Z</time></trkpt><trkpt lat="43.34892974722283" lon="11.62432771098405"><ele>495.0</ele><time>2026-04-29T14:56:11.002Z</time></trkpt><trkpt lat="43.34901360748593" lon="11.624122536887105"><ele>495.0</ele><time>2026-04-29T14:56:12.002Z</time></trkpt><trkpt lat="43.34913262057941" lon="11.623943104161631"><ele>495.0</ele><time>2026-04-29T14:56:13.002Z</time></trkpt><trkpt lat="43.349255266586574" lon="11.623781926318062"><ele>495.0</ele><time>2026-04-29T14:56:14.002Z</time></trkpt><trkpt lat="43.34934688287676" lon="11.623599445538504"><ele>494.0</ele><time>2026-04-29T14:56:15.002Z</time></trkpt><trkpt lat="43.34940561355264" lon="11.623361992361117"><ele>493.0</ele><time>2026-04-29T14:56:16.002Z</time></trkpt><trkpt lat="43.34943799259271" lon="11.623103149981574"><ele>492.0</ele><time>2026-04-29T14:56:17.002Z</time></trkpt><trkpt lat="43.34945913741244" lon="11.622825104320347"><ele>489.66666666666663</ele><time>2026-04-29T14:56:18.001Z</time></trkpt><trkpt lat="43.349484968356805" lon="11.622533281112673"><ele>487.3333333333333</ele><time>2026-04-29T14:56:19.001Z</time></trkpt><trkpt lat="43.349517819122" lon="11.622234280145156"><ele>485.0</ele><time>2026-04-29T14:56:20.001Z</time></trkpt><trkpt lat="43.34954749031085" lon="11.62192730807432"><ele>482.5</ele><time>2026-04-29T14:56:21.001Z</time></trkpt><trkpt lat="43.349576208013815" lon="11.621615215148982"><ele>480.0</ele><time>2026-04-29T14:56:22.001Z</time></trkpt><trkpt lat="43.34961090397181" lon="11.621298843226828"><ele>480.5</ele><time>2026-04-29T14:56:23.001Z</time></trkpt><trkpt lat="43.349644887409156" lon="11.620982902054605"><ele>481.0</ele><time>2026-04-29T14:56:24.001Z</time></trkpt><trkpt lat="43.34967539489673" lon="11.62066603751767"><ele>481.0</ele><time>2026-04-29T14:56:25.001Z</time></trkpt><trkpt lat="43.34970796912128" lon="11.62035233550589"><ele>481.0</ele><time>2026-04-29T14:56:26.001Z</time></trkpt><trkpt lat="43.3497401263742" lon="11.62004150603468"><ele>485.0</ele><time>2026-04-29T14:56:27.001Z</time></trkpt><trkpt lat="43.34977277332251" lon="11.61972911220218"><ele>489.0</ele><time>2026-04-29T14:56:28.001Z</time></trkpt><trkpt lat="43.349807062088956" lon="11.619417047903912"><ele>489.66666666666663</ele><time>2026-04-29T14:56:29.001Z</time></trkpt><trkpt lat="43.349846905479694" lon="11.619115970549254"><ele>490.3333333333333</ele><time>2026-04-29T14:56:30.001Z</time></trkpt><trkpt lat="43.34990258247986" lon="11.618828254172435"><ele>491.0</ele><time>2026-04-29T14:56:31.001Z</time></trkpt><trkpt lat="43.349975073065714" lon="11.618551106951234"><ele>492.66666666666663</ele><time>2026-04-29T14:56:32.001Z</time></trkpt><trkpt lat="43.35005284760538" lon="11.61829641131086"><ele>494.33333333333337</ele><time>2026-04-29T14:56:33.001Z</time></trkpt><trkpt lat="43.35012455684724" lon="11.61805617061012"><ele>496.0</ele><time>2026-04-29T14:56:34.001Z</time></trkpt><trkpt lat="43.35018616199267" lon="11.617832869359864"><ele>496.33333333333337</ele><time>2026-04-29T14:56:35.001Z</time></trkpt><trkpt lat="43.350232510204954" lon="11.617591744920809"><ele>496.66666666666663</ele><time>2026-04-29T14:56:36.001Z</time></trkpt><trkpt lat="43.35025672251236" lon="11.617333561452803"><ele>497.0</ele><time>2026-04-29T14:56:37.001Z</time></trkpt><trkpt lat="43.35026112883015" lon="11.617070222232657"><ele>495.66666666666663</ele><time>2026-04-29T14:56:38.001Z</time></trkpt><trkpt lat="43.35023771586758" lon="11.616806101449573"><ele>494.33333333333337</ele><time>2026-04-29T14:56:39.001Z</time></trkpt><trkpt lat="43.35018822640162" lon="11.616543582455222"><ele>493.0</ele><time>2026-04-29T14:56:40.001Z</time></trkpt><trkpt lat="43.35011952943877" lon="11.616285305713953"><ele>493.0</ele><time>2026-04-29T14:56:41.001Z</time></trkpt><trkpt lat="43.35004191532867" lon="11.616025436918246"><ele>493.0</ele><time>2026-04-29T14:56:42.001Z</time></trkpt><trkpt lat="43.34995357601907" lon="11.615763008376096"><ele>493.0</ele><time>2026-04-29T14:56:43.001Z</time></trkpt><trkpt lat="43.34985878708129" lon="11.615497838780056"><ele>491.6666666666667</ele><time>2026-04-29T14:56:44.001Z</time></trkpt><trkpt lat="43.349756402992845" lon="11.61524336397556"><ele>490.33333333333337</ele><time>2026-04-29T14:56:45.001Z</time></trkpt><trkpt lat="43.34966938601409" lon="11.615033842142086"><ele>489.0</ele><time>2026-04-29T14:56:46.001Z</time></trkpt><trkpt lat="43.349593493585495" lon="11.614841824940534"><ele>489.0</ele><time>2026-04-29T14:56:47.001Z</time></trkpt><trkpt lat="43.349517033784615" lon="11.61466168921283"><ele>489.0</ele><time>2026-04-29T14:56:48.001Z</time></trkpt><trkpt lat="43.34943566602704" lon="11.61449360741802"><ele>489.0</ele><time>2026-04-29T14:56:49.001Z</time></trkpt><trkpt lat="43.34934697231448" lon="11.614328914040161"><ele>489.0</ele><time>2026-04-29T14:56:50.001Z</time></trkpt><trkpt lat="43.349253509855956" lon="11.614174295066103"><ele>489.25</ele><time>2026-04-29T14:56:51.001Z</time></trkpt><trkpt lat="43.34915360544041" lon="11.614020282589552"><ele>489.5</ele><time>2026-04-29T14:56:52.001Z</time></trkpt><trkpt lat="43.3490511151779" lon="11.613870002276464"><ele>489.75</ele><time>2026-04-29T14:56:53.001Z</time></trkpt><trkpt lat="43.34894763431299" lon="11.613727040246731"><ele>490.0</ele><time>2026-04-29T14:56:54.001Z</time></trkpt><trkpt lat="43.348841842787735" lon="11.613595670321933"><ele>489.0</ele><time>2026-04-29T14:56:55.001Z</time></trkpt><trkpt lat="43.348729510060885" lon="11.613480656827875"><ele>488.0</ele><time>2026-04-29T14:56:56.001Z</time></trkpt><trkpt lat="43.34861649372538" lon="11.613377680464762"><ele>487.0</ele><time>2026-04-29T14:56:57.001Z</time></trkpt><trkpt lat="43.348509726177305" lon="11.613287247236144"><ele>486.0</ele><time>2026-04-29T14:56:58.001Z</time></trkpt><trkpt lat="43.34842904488192" lon="11.61320959295571"><ele>486.0</ele><time>2026-04-29T14:56:59.001Z</time></trkpt><trkpt lat="43.34837365014648" lon="11.613155297563706"><ele>486.0</ele><time>2026-04-29T14:57:00.001Z</time></trkpt><trkpt lat="43.348310151260776" lon="11.613083364725833"><ele>486.0</ele><time>2026-04-29T14:57:02.001Z</time></trkpt><trkpt lat="43.34837238751114" lon="11.613177821692924"><ele>486.0</ele><time>2026-04-29T14:57:07.001Z</time></trkpt><trkpt lat="43.3484411851216" lon="11.613262390864373"><ele>486.0</ele><time>2026-04-29T14:57:08.001Z</time></trkpt><trkpt lat="43.34851409134543" lon="11.613327954288936"><ele>486.0</ele><time>2026-04-29T14:57:09.001Z</time></trkpt><trkpt lat="43.34859716890421" lon="11.61339976222801"><ele>486.0</ele><time>2026-04-29T14:57:10.001Z</time></trkpt><trkpt lat="43.34868179792085" lon="11.613476613453239"><ele>486.0</ele><time>2026-04-29T14:57:11.001Z</time></trkpt><trkpt lat="43.34876390543085" lon="11.613555915194697"><ele>486.0</ele><time>2026-04-29T14:57:12.001Z</time></trkpt><trkpt lat="43.348839674485475" lon="11.61363804894471"><ele>486.0</ele><time>2026-04-29T14:57:13.001Z</time></trkpt><trkpt lat="43.34890830033706" lon="11.613720952564663"><ele>486.0</ele><time>2026-04-29T14:57:14.001Z</time></trkpt><trkpt lat="43.34897076028809" lon="11.613802959936024"><ele>486.8</ele><time>2026-04-29T14:57:15.001Z</time></trkpt><trkpt lat="43.34903197029218" lon="11.613892734592323"><ele>487.6</ele><time>2026-04-29T14:57:16.001Z</time></trkpt><trkpt lat="43.349095034747926" lon="11.613986529226501"><ele>488.4</ele><time>2026-04-29T14:57:17.001Z</time></trkpt><trkpt lat="43.34916270151345" lon="11.614089481598642"><ele>489.2</ele><time>2026-04-29T14:57:18.001Z</time></trkpt><trkpt lat="43.34922753636482" lon="11.614189409596595"><ele>490.0</ele><time>2026-04-29T14:57:19.001Z</time></trkpt><trkpt lat="43.34929153702806" lon="11.61428617295749"><ele>490.0</ele><time>2026-04-29T14:57:20.001Z</time></trkpt><trkpt lat="43.349353754534555" lon="11.614385315293841"><ele>490.0</ele><time>2026-04-29T14:57:21.001Z</time></trkpt><trkpt lat="43.34941065634247" lon="11.61449162558181"><ele>490.0</ele><time>2026-04-29T14:57:22.001Z</time></trkpt><trkpt lat="43.349463639357516" lon="11.614601352977934"><ele>490.0</ele><time>2026-04-29T14:57:23.001Z</time></trkpt><trkpt lat="43.3495116214585" lon="11.614714740734382"><ele>490.0</ele><time>2026-04-29T14:57:24.001Z</time></trkpt><trkpt lat="43.34955864030665" lon="11.614828494549144"><ele>489.83333333333337</ele><time>2026-04-29T14:57:25.001Z</time></trkpt><trkpt lat="43.34960463921233" lon="11.614940339836041"><ele>489.6666666666667</ele><time>2026-04-29T14:57:26.001Z</time></trkpt><trkpt lat="43.34964364803445" lon="11.61503311442116"><ele>489.5</ele><time>2026-04-29T14:57:27.001Z</time></trkpt><trkpt lat="43.34968097396392" lon="11.615115555810737"><ele>489.33333333333337</ele><time>2026-04-29T14:57:28.001Z</time></trkpt><trkpt lat="43.34974834966304" lon="11.61519625431307"><ele>489.1666666666667</ele><time>2026-04-29T14:57:30.001Z</time></trkpt><trkpt lat="43.34979417936648" lon="11.615100724462346"><ele>489.0</ele><time>2026-04-29T14:57:33.001Z</time></trkpt><trkpt lat="43.34977684537927" lon="11.614994101453478"><ele>488.8333333333333</ele><time>2026-04-29T14:57:35.001Z</time></trkpt><trkpt lat="43.349763621042825" lon="11.614902960856039"><ele>488.66666666666663</ele><time>2026-04-29T14:57:37.001Z</time></trkpt><trkpt lat="43.3497570940119" lon="11.614776890558286"><ele>488.5</ele><time>2026-04-29T14:57:40.001Z</time></trkpt><trkpt lat="43.34975404932576" lon="11.614690189598779"><ele>488.3333333333333</ele><time>2026-04-29T14:57:42.001Z</time></trkpt><trkpt lat="43.34977830471201" lon="11.6145438771307"><ele>488.16666666666663</ele><time>2026-04-29T14:57:44.001Z</time></trkpt><trkpt lat="43.34977895911082" lon="11.614442168707987"><ele>488.0</ele><time>2026-04-29T14:57:45.001Z</time></trkpt><trkpt lat="43.34978378555588" lon="11.614332489187781"><ele>488.4</ele><time>2026-04-29T14:57:46.001Z</time></trkpt><trkpt lat="43.34978855045664" lon="11.614205459358985"><ele>488.79999999999995</ele><time>2026-04-29T14:57:47.001Z</time></trkpt><trkpt lat="43.349782956660555" lon="11.614082680863072"><ele>489.2</ele><time>2026-04-29T14:57:48.001Z</time></trkpt><trkpt lat="43.34976283190329" lon="11.61397089956263"><ele>489.6</ele><time>2026-04-29T14:57:49.001Z</time></trkpt><trkpt lat="43.349724925833414" lon="11.613855203389353"><ele>490.0</ele><time>2026-04-29T14:57:50.001Z</time></trkpt><trkpt lat="43.349683119262764" lon="11.613727290562803"><ele>490.1666666666667</ele><time>2026-04-29T14:57:51.002Z</time></trkpt><trkpt lat="43.34963916666898" lon="11.613598158946493"><ele>490.33333333333337</ele><time>2026-04-29T14:57:52.002Z</time></trkpt><trkpt lat="43.34960554831398" lon="11.613485457703204"><ele>490.5</ele><time>2026-04-29T14:57:53.002Z</time></trkpt><trkpt lat="43.349586351423596" lon="11.613376512441269"><ele>490.66666666666663</ele><time>2026-04-29T14:57:54.002Z</time></trkpt><trkpt lat="43.34957281302934" lon="11.61326138196922"><ele>490.8333333333333</ele><time>2026-04-29T14:57:55.002Z</time></trkpt><trkpt lat="43.349571192407105" lon="11.613137071063175"><ele>491.0</ele><time>2026-04-29T14:57:56.002Z</time></trkpt><trkpt lat="43.349583720043064" lon="11.613017675103205"><ele>491.0</ele><time>2026-04-29T14:57:57.002Z</time></trkpt><trkpt lat="43.34960689060104" lon="11.61289792599967"><ele>491.0</ele><time>2026-04-29T14:57:58.002Z</time></trkpt><trkpt lat="43.34962740612403" lon="11.612766236720926"><ele>491.0</ele><time>2026-04-29T14:57:59.002Z</time></trkpt><trkpt lat="43.349671269651935" lon="11.612637297644577"><ele>491.0</ele><time>2026-04-29T14:58:00.002Z</time></trkpt><trkpt lat="43.34971038353904" lon="11.612499577588684"><ele>491.0</ele><time>2026-04-29T14:58:01.002Z</time></trkpt><trkpt lat="43.349753540349994" lon="11.61235827566468"><ele>488.6</ele><time>2026-04-29T14:58:02.002Z</time></trkpt><trkpt lat="43.34979543991542" lon="11.612221090150141"><ele>486.20000000000005</ele><time>2026-04-29T14:58:03.002Z</time></trkpt><trkpt lat="43.34983704647614" lon="11.612084863978797"><ele>483.79999999999995</ele><time>2026-04-29T14:58:04.002Z</time></trkpt><trkpt lat="43.34987641298459" lon="11.611961504851608"><ele>481.4</ele><time>2026-04-29T14:58:05.002Z</time></trkpt><trkpt lat="43.349918570330466" lon="11.61185479486185"><ele>479.0</ele><time>2026-04-29T14:58:06.002Z</time></trkpt><trkpt lat="43.349967868677425" lon="11.611735222096366"><ele>478.4</ele><time>2026-04-29T14:58:07.002Z</time></trkpt><trkpt lat="43.35003593585945" lon="11.611642616017809"><ele>477.79999999999995</ele><time>2026-04-29T14:58:08.002Z</time></trkpt><trkpt lat="43.35010612720282" lon="11.611577474337675"><ele>477.20000000000005</ele><time>2026-04-29T14:58:09.002Z</time></trkpt><trkpt lat="43.3501918040657" lon="11.611543935697398"><ele>476.6</ele><time>2026-04-29T14:58:10.002Z</time></trkpt><trkpt lat="43.35027725467255" lon="11.611506800386644"><ele>476.0</ele><time>2026-04-29T14:58:11.002Z</time></trkpt><trkpt lat="43.35038008149808" lon="11.611460198182195"><ele>476.0</ele><time>2026-04-29T14:58:12.002Z</time></trkpt><trkpt lat="43.350479217999414" lon="11.61138765229912"><ele>476.0</ele><time>2026-04-29T14:58:13.002Z</time></trkpt><trkpt lat="43.3505919164069" lon="11.611328743485094"><ele>476.0</ele><time>2026-04-29T14:58:14.002Z</time></trkpt><trkpt lat="43.350718281758795" lon="11.611259062826996"><ele>476.0</ele><time>2026-04-29T14:58:15.002Z</time></trkpt><trkpt lat="43.35084996178317" lon="11.61118773501652"><ele>473.0</ele><time>2026-04-29T14:58:16.002Z</time></trkpt><trkpt lat="43.350973616319216" lon="11.611112593860542"><ele>470.0</ele><time>2026-04-29T14:58:17.002Z</time></trkpt><trkpt lat="43.35108570557398" lon="11.611051418763294"><ele>467.0</ele><time>2026-04-29T14:58:18.002Z</time></trkpt><trkpt lat="43.35118460508916" lon="11.610989413591685"><ele>464.0</ele><time>2026-04-29T14:58:19.002Z</time></trkpt><trkpt lat="43.351281070913664" lon="11.610929910753697"><ele>464.2</ele><time>2026-04-29T14:58:20.002Z</time></trkpt><trkpt lat="43.35137509674122" lon="11.610873626874413"><ele>464.4</ele><time>2026-04-29T14:58:21.002Z</time></trkpt><trkpt lat="43.35145176493318" lon="11.610778946977634"><ele>464.6</ele><time>2026-04-29T14:58:22.002Z</time></trkpt><trkpt lat="43.35153965151257" lon="11.610684455512706"><ele>464.8</ele><time>2026-04-29T14:58:23.001Z</time></trkpt><trkpt lat="43.35161966113799" lon="11.610554269757781"><ele>465.0</ele><time>2026-04-29T14:58:24.001Z</time></trkpt><trkpt lat="43.35169941912442" lon="11.610408607707537"><ele>465.25</ele><time>2026-04-29T14:58:25.001Z</time></trkpt><trkpt lat="43.35177957066407" lon="11.610255515786955"><ele>465.5</ele><time>2026-04-29T14:58:26.001Z</time></trkpt><trkpt lat="43.35182367547965" lon="11.61011345874959"><ele>465.75</ele><time>2026-04-29T14:58:27.001Z</time></trkpt><trkpt lat="43.35186209018724" lon="11.609985621697868"><ele>466.0</ele><time>2026-04-29T14:58:28.001Z</time></trkpt><trkpt lat="43.351890045871926" lon="11.60985373749331"><ele>466.0</ele><time>2026-04-29T14:58:29.001Z</time></trkpt><trkpt lat="43.35191564735383" lon="11.609703543800476"><ele>466.0</ele><time>2026-04-29T14:58:30.001Z</time></trkpt><trkpt lat="43.351950841214894" lon="11.609540060511243"><ele>466.0</ele><time>2026-04-29T14:58:31.001Z</time></trkpt><trkpt lat="43.35198604254508" lon="11.60936566202049"><ele>466.0</ele><time>2026-04-29T14:58:32.001Z</time></trkpt><trkpt lat="43.35202164024415" lon="11.609200413783098"><ele>466.20000000000005</ele><time>2026-04-29T14:58:33.001Z</time></trkpt><trkpt lat="43.35205475874089" lon="11.609060590306763"><ele>466.40000000000003</ele><time>2026-04-29T14:58:34.001Z</time></trkpt><trkpt lat="43.35211529437618" lon="11.608952091705863"><ele>466.6</ele><time>2026-04-29T14:58:35.001Z</time></trkpt><trkpt lat="43.352178935110565" lon="11.608870653743772"><ele>466.8</ele><time>2026-04-29T14:58:36.001Z</time></trkpt><trkpt lat="43.35225283158794" lon="11.6087595174211"><ele>467.0</ele><time>2026-04-29T14:58:37.001Z</time></trkpt><trkpt lat="43.35231225452602" lon="11.608644720912535"><ele>467.6</ele><time>2026-04-29T14:58:38.001Z</time></trkpt><trkpt lat="43.352366023393785" lon="11.60855528883803"><ele>468.20000000000005</ele><time>2026-04-29T14:58:39.001Z</time></trkpt><trkpt lat="43.35239348557449" lon="11.608452968605913"><ele>468.8</ele><time>2026-04-29T14:58:40.001Z</time></trkpt><trkpt lat="43.35239927709841" lon="11.608338018401088"><ele>469.4</ele><time>2026-04-29T14:58:41.001Z</time></trkpt><trkpt lat="43.352408904439166" lon="11.608206739270265"><ele>470.0</ele><time>2026-04-29T14:58:42.001Z</time></trkpt><trkpt lat="43.35238590252514" lon="11.608063795723568"><ele>470.0</ele><time>2026-04-29T14:58:43.001Z</time></trkpt><trkpt lat="43.35234765437528" lon="11.60792711141619"><ele>470.0</ele><time>2026-04-29T14:58:44.001Z</time></trkpt><trkpt lat="43.352295952614504" lon="11.607780379588206"><ele>470.0</ele><time>2026-04-29T14:58:45.001Z</time></trkpt><trkpt lat="43.35223964975188" lon="11.607634695982929"><ele>470.0</ele><time>2026-04-29T14:58:46.001Z</time></trkpt><trkpt lat="43.3521860231372" lon="11.607484594000617"><ele>472.0</ele><time>2026-04-29T14:58:47.001Z</time></trkpt><trkpt lat="43.35213552044245" lon="11.607335857414792"><ele>474.0</ele><time>2026-04-29T14:58:48.001Z</time></trkpt><trkpt lat="43.352094238426446" lon="11.60720921115019"><ele>476.0</ele><time>2026-04-29T14:58:49.001Z</time></trkpt><trkpt lat="43.3520575180974" lon="11.607087414164958"><ele>478.0</ele><time>2026-04-29T14:58:50.001Z</time></trkpt><trkpt lat="43.35202158675015" lon="11.60695345325204"><ele>480.0</ele><time>2026-04-29T14:58:51.001Z</time></trkpt><trkpt lat="43.35199482927281" lon="11.606834551820256"><ele>481.0</ele><time>2026-04-29T14:58:52.001Z</time></trkpt><trkpt lat="43.35196711844268" lon="11.606702025411156"><ele>482.0</ele><time>2026-04-29T14:58:53.001Z</time></trkpt><trkpt lat="43.35194931498597" lon="11.606578753958846"><ele>483.0</ele><time>2026-04-29T14:58:54.001Z</time></trkpt><trkpt lat="43.351951711680826" lon="11.606479655191828"><ele>484.0</ele><time>2026-04-29T14:58:55.001Z</time></trkpt><trkpt lat="43.35202437676837" lon="11.606345953492722"><ele>485.0</ele><time>2026-04-29T14:58:57.001Z</time></trkpt><trkpt lat="43.352077925185014" lon="11.606297162400635"><ele>486.0</ele><time>2026-04-29T14:58:58.001Z</time></trkpt><trkpt lat="43.3521464760364" lon="11.606240640392656"><ele>485.0</ele><time>2026-04-29T14:58:59.001Z</time></trkpt><trkpt lat="43.352246425422905" lon="11.606171387946683"><ele>484.0</ele><time>2026-04-29T14:59:00.001Z</time></trkpt><trkpt lat="43.35235325683607" lon="11.606100899560442"><ele>483.0</ele><time>2026-04-29T14:59:01.001Z</time></trkpt><trkpt lat="43.35244960705494" lon="11.606098375920372"><ele>482.0</ele><time>2026-04-29T14:59:02.001Z</time></trkpt><trkpt lat="43.35253239214956" lon="11.60607486945843"><ele>481.0</ele><time>2026-04-29T14:59:03.001Z</time></trkpt><trkpt lat="43.352619111042124" lon="11.606096604243922"><ele>482.5714285714285</ele><time>2026-04-29T14:59:04.001Z</time></trkpt><trkpt lat="43.3526947913788" lon="11.60611334094642"><ele>484.1428571428571</ele><time>2026-04-29T14:59:05.001Z</time></trkpt><trkpt lat="43.35277204693838" lon="11.606116777286822"><ele>485.7142857142857</ele><time>2026-04-29T14:59:06.001Z</time></trkpt><trkpt lat="43.35284354651539" lon="11.606101843920836"><ele>487.2857142857143</ele><time>2026-04-29T14:59:07.001Z</time></trkpt><trkpt lat="43.35290355124338" lon="11.60606394269232"><ele>488.8571428571429</ele><time>2026-04-29T14:59:08.001Z</time></trkpt><trkpt lat="43.35295744088235" lon="11.606004341671618"><ele>490.4285714285715</ele><time>2026-04-29T14:59:09.001Z</time></trkpt><trkpt lat="43.35300533888616" lon="11.60593248208508"><ele>492.00000000000006</ele><time>2026-04-29T14:59:10.001Z</time></trkpt><trkpt lat="43.3530250977345" lon="11.605816530564844"><ele>492.0</ele><time>2026-04-29T14:59:11.001Z</time></trkpt><trkpt lat="43.35303861473738" lon="11.605703571957765"><ele>492.0</ele><time>2026-04-29T14:59:12.001Z</time></trkpt><trkpt lat="43.35304325043975" lon="11.605564693201755"><ele>492.0</ele><time>2026-04-29T14:59:13.001Z</time></trkpt><trkpt lat="43.35303531790901" lon="11.605446341113689"><ele>492.0</ele><time>2026-04-29T14:59:14.001Z</time></trkpt><trkpt lat="43.352993672443226" lon="11.605363102124814"><ele>492.0</ele><time>2026-04-29T14:59:15.001Z</time></trkpt><trkpt lat="43.352984422025834" lon="11.605277150235425"><ele>492.0</ele><time>2026-04-29T14:59:16.001Z</time></trkpt><trkpt lat="43.35295929565944" lon="11.605168935549303"><ele>493.6</ele><time>2026-04-29T14:59:17.001Z</time></trkpt><trkpt lat="43.35293539651385" lon="11.605057647614347"><ele>495.20000000000005</ele><time>2026-04-29T14:59:18.001Z</time></trkpt><trkpt lat="43.35291902537451" lon="11.604932817976831"><ele>496.8</ele><time>2026-04-29T14:59:19.001Z</time></trkpt><trkpt lat="43.35291645043235" lon="11.604788279799953"><ele>498.4</ele><time>2026-04-29T14:59:20.001Z</time></trkpt><trkpt lat="43.35293483322946" lon="11.604651519078178"><ele>500.0</ele><time>2026-04-29T14:59:21.001Z</time></trkpt><trkpt lat="43.35296433429396" lon="11.604519822277094"><ele>500.49999999999994</ele><time>2026-04-29T14:59:22.001Z</time></trkpt><trkpt lat="43.35301542246118" lon="11.604403205064735"><ele>501.0</ele><time>2026-04-29T14:59:23.001Z</time></trkpt><trkpt lat="43.35303732731462" lon="11.604268474436312"><ele>501.5</ele><time>2026-04-29T14:59:24.001Z</time></trkpt><trkpt lat="43.353080352528394" lon="11.604172955810608"><ele>502.0</ele><time>2026-04-29T14:59:25.001Z</time></trkpt><trkpt lat="43.35310671216606" lon="11.604076384307243"><ele>502.49999999999994</ele><time>2026-04-29T14:59:26.001Z</time></trkpt><trkpt lat="43.353115917856854" lon="11.603986431855402"><ele>503.0</ele><time>2026-04-29T14:59:27.001Z</time></trkpt><trkpt lat="43.35310059291472" lon="11.603822905963643"><ele>503.3333333333333</ele><time>2026-04-29T14:59:29.001Z</time></trkpt><trkpt lat="43.35305654128602" lon="11.603742228895046"><ele>503.66666666666663</ele><time>2026-04-29T14:59:30.001Z</time></trkpt><trkpt lat="43.352982605937065" lon="11.603661854845807"><ele>504.0</ele><time>2026-04-29T14:59:31.001Z</time></trkpt><trkpt lat="43.35290531863773" lon="11.603572282138932"><ele>504.33333333333337</ele><time>2026-04-29T14:59:32.001Z</time></trkpt><trkpt lat="43.35285108281715" lon="11.603487928912083"><ele>504.6666666666667</ele><time>2026-04-29T14:59:33.001Z</time></trkpt><trkpt lat="43.35280582779073" lon="11.6033694278989"><ele>505.0</ele><time>2026-04-29T14:59:35.001Z</time></trkpt><trkpt lat="43.35283738948558" lon="11.603226371613786"><ele>505.0</ele><time>2026-04-29T14:59:37.001Z</time></trkpt><trkpt lat="43.352873966982806" lon="11.60309601083227"><ele>505.0</ele><time>2026-04-29T14:59:38.001Z</time></trkpt><trkpt lat="43.3529378926799" lon="11.602955374247559"><ele>505.0</ele><time>2026-04-29T14:59:39.001Z</time></trkpt><trkpt lat="43.35298272213962" lon="11.602797648399122"><ele>505.0</ele><time>2026-04-29T14:59:40.001Z</time></trkpt><trkpt lat="43.3530105730445" lon="11.602657709214824"><ele>505.8</ele><time>2026-04-29T14:59:41.001Z</time></trkpt><trkpt lat="43.35302870540556" lon="11.602544475537883"><ele>506.6</ele><time>2026-04-29T14:59:42.001Z</time></trkpt><trkpt lat="43.35303965451925" lon="11.602436617871804"><ele>507.4</ele><time>2026-04-29T14:59:43.001Z</time></trkpt><trkpt lat="43.353034251899395" lon="11.602302587161413"><ele>508.2</ele><time>2026-04-29T14:59:44.001Z</time></trkpt><trkpt lat="43.35300824414406" lon="11.60216738769017"><ele>509.0</ele><time>2026-04-29T14:59:45.001Z</time></trkpt><trkpt lat="43.35298535732267" lon="11.602006801004753"><ele>509.75</ele><time>2026-04-29T14:59:46.001Z</time></trkpt><trkpt lat="43.35296680440299" lon="11.60182327145094"><ele>510.5</ele><time>2026-04-29T14:59:47.001Z</time></trkpt><trkpt lat="43.35295668875661" lon="11.60161768858913"><ele>511.25</ele><time>2026-04-29T14:59:48.001Z</time></trkpt><trkpt lat="43.3529489159586" lon="11.601424323921005"><ele>512.0</ele><time>2026-04-29T14:59:49.001Z</time></trkpt><trkpt lat="43.352939535305325" lon="11.601261489634151"><ele>511.16666666666663</ele><time>2026-04-29T14:59:50.001Z</time></trkpt><trkpt lat="43.35293495041989" lon="11.60113581205699"><ele>510.3333333333333</ele><time>2026-04-29T14:59:51.001Z</time></trkpt><trkpt lat="43.3529390778719" lon="11.601039241843798"><ele>509.5</ele><time>2026-04-29T14:59:52.001Z</time></trkpt><trkpt lat="43.352947954458195" lon="11.600947864310896"><ele>508.66666666666663</ele><time>2026-04-29T14:59:53.001Z</time></trkpt><trkpt lat="43.352965989410954" lon="11.600839017623736"><ele>507.8333333333333</ele><time>2026-04-29T14:59:54.001Z</time></trkpt><trkpt lat="43.3529976366353" lon="11.600736886089846"><ele>507.0</ele><time>2026-04-29T14:59:55.001Z</time></trkpt><trkpt lat="43.3530443727485" lon="11.600623535571744"><ele>506.40000000000003</ele><time>2026-04-29T14:59:56.001Z</time></trkpt><trkpt lat="43.353104529409684" lon="11.600496404085519"><ele>505.80000000000007</ele><time>2026-04-29T14:59:57.001Z</time></trkpt><trkpt lat="43.35318101314135" lon="11.600362506178913"><ele>505.2</ele><time>2026-04-29T14:59:58.001Z</time></trkpt><trkpt lat="43.353260350839484" lon="11.60025346381704"><ele>504.6</ele><time>2026-04-29T14:59:59.001Z</time></trkpt><trkpt lat="43.35333332844101" lon="11.600157587310903"><ele>504.0</ele><time>2026-04-29T15:00:00.001Z</time></trkpt><trkpt lat="43.35338287515252" lon="11.600053681159045"><ele>504.0</ele><time>2026-04-29T15:00:01.002Z</time></trkpt><trkpt lat="43.35343138737347" lon="11.599960087626572"><ele>504.0</ele><time>2026-04-29T15:00:02.002Z</time></trkpt><trkpt lat="43.3534667430501" lon="11.599840077162852"><ele>504.0</ele><time>2026-04-29T15:00:03.002Z</time></trkpt><trkpt lat="43.35348558880467" lon="11.599719328468408"><ele>504.0</ele><time>2026-04-29T15:00:04.002Z</time></trkpt><trkpt lat="43.353488446437424" lon="11.599610880884688"><ele>504.0</ele><time>2026-04-29T15:00:05.002Z</time></trkpt><trkpt lat="43.353480941666824" lon="11.59950837415032"><ele>504.0</ele><time>2026-04-29T15:00:06.002Z</time></trkpt><trkpt lat="43.353463058872414" lon="11.599382623741668"><ele>502.5</ele><time>2026-04-29T15:00:07.002Z</time></trkpt><trkpt lat="43.35342982829425" lon="11.599236328430326"><ele>501.0</ele><time>2026-04-29T15:00:08.002Z</time></trkpt><trkpt lat="43.353399452817165" lon="11.599046377290776"><ele>499.5</ele><time>2026-04-29T15:00:09.002Z</time></trkpt><trkpt lat="43.35338389169311" lon="11.598876568508548"><ele>498.0</ele><time>2026-04-29T15:00:10.002Z</time></trkpt><trkpt lat="43.35337245702529" lon="11.598729053254262"><ele>497.0</ele><time>2026-04-29T15:00:11.002Z</time></trkpt><trkpt lat="43.3533739181255" lon="11.59859071480968"><ele>496.0</ele><time>2026-04-29T15:00:12.002Z</time></trkpt><trkpt lat="43.3533856497631" lon="11.598459390409065"><ele>495.0</ele><time>2026-04-29T15:00:13.002Z</time></trkpt><trkpt lat="43.353405632917" lon="11.598362353324136"><ele>494.0</ele><time>2026-04-29T15:00:14.002Z</time></trkpt><trkpt lat="43.35345226370045" lon="11.598300463265517"><ele>493.0</ele><time>2026-04-29T15:00:17.002Z</time></trkpt><trkpt lat="43.35355624900084" lon="11.598284678139787"><ele>492.0</ele><time>2026-04-29T15:00:19.002Z</time></trkpt><trkpt lat="43.353633617355" lon="11.598307682434498"><ele>492.0</ele><time>2026-04-29T15:00:20.002Z</time></trkpt><trkpt lat="43.35373088408148" lon="11.598322665538644"><ele>492.00000000000006</ele><time>2026-04-29T15:00:21.002Z</time></trkpt><trkpt lat="43.353833264317664" lon="11.598322746046513"><ele>492.00000000000006</ele><time>2026-04-29T15:00:22.002Z</time></trkpt><trkpt lat="43.353935742313226" lon="11.598332389075175"><ele>492.0</ele><time>2026-04-29T15:00:23.002Z</time></trkpt><trkpt lat="43.35402385129716" lon="11.598342841036631"><ele>492.0</ele><time>2026-04-29T15:00:24.002Z</time></trkpt><trkpt lat="43.35411675875525" lon="11.598351632946622"><ele>492.40000000000003</ele><time>2026-04-29T15:00:25.002Z</time></trkpt><trkpt lat="43.35421032222069" lon="11.598351294831946"><ele>492.80000000000007</ele><time>2026-04-29T15:00:26.002Z</time></trkpt><trkpt lat="43.354302953245714" lon="11.598323134794029"><ele>493.2</ele><time>2026-04-29T15:00:27.002Z</time></trkpt><trkpt lat="43.3543892501273" lon="11.598268702240173"><ele>493.6</ele><time>2026-04-29T15:00:28.002Z</time></trkpt><trkpt lat="43.35447228396216" lon="11.598189777277346"><ele>494.0</ele><time>2026-04-29T15:00:29.001Z</time></trkpt><trkpt lat="43.354551093816006" lon="11.598110043143055"><ele>493.99999999999994</ele><time>2026-04-29T15:00:30.001Z</time></trkpt><trkpt lat="43.35462604087366" lon="11.59803165359251"><ele>494.0</ele><time>2026-04-29T15:00:31.001Z</time></trkpt><trkpt lat="43.35469735933607" lon="11.597961642257888"><ele>494.0</ele><time>2026-04-29T15:00:32.001Z</time></trkpt><trkpt lat="43.35476774275394" lon="11.597895155751809"><ele>494.0</ele><time>2026-04-29T15:00:33.001Z</time></trkpt><trkpt lat="43.35483728632465" lon="11.597828890672037"><ele>493.99999999999994</ele><time>2026-04-29T15:00:34.001Z</time></trkpt><trkpt lat="43.35490043347545" lon="11.597767158079911"><ele>494.0</ele><time>2026-04-29T15:00:35.001Z</time></trkpt><trkpt lat="43.35495685547604" lon="11.59771083398085"><ele>493.0</ele><time>2026-04-29T15:00:36.001Z</time></trkpt><trkpt lat="43.355014435356914" lon="11.597657169097625"><ele>492.0</ele><time>2026-04-29T15:00:37.001Z</time></trkpt><trkpt lat="43.35507772987516" lon="11.597612203973009"><ele>491.0</ele><time>2026-04-29T15:00:38.001Z</time></trkpt><trkpt lat="43.35513841703215" lon="11.597569356071455"><ele>490.0</ele><time>2026-04-29T15:00:39.001Z</time></trkpt><trkpt lat="43.35518984977114" lon="11.597513451128462"><ele>489.0</ele><time>2026-04-29T15:00:40.001Z</time></trkpt><trkpt lat="43.35524049557818" lon="11.597459022579853"><ele>488.0</ele><time>2026-04-29T15:00:41.001Z</time></trkpt><trkpt lat="43.35533614280524" lon="11.597430217393677"><ele>487.0</ele><time>2026-04-29T15:00:43.001Z</time></trkpt><trkpt lat="43.35544349448788" lon="11.597492530020647"><ele>487.0</ele><time>2026-04-29T15:00:45.001Z</time></trkpt><trkpt lat="43.3555368980751" lon="11.597614279438549"><ele>487.00000000000006</ele><time>2026-04-29T15:00:47.001Z</time></trkpt><trkpt lat="43.355606381776795" lon="11.597688720994373"><ele>487.00000000000006</ele><time>2026-04-29T15:00:48.001Z</time></trkpt><trkpt lat="43.355684958957" lon="11.59777056133695"><ele>487.0</ele><time>2026-04-29T15:00:49.001Z</time></trkpt><trkpt lat="43.355765873427046" lon="11.597854476876384"><ele>487.0</ele><time>2026-04-29T15:00:50.001Z</time></trkpt><trkpt lat="43.35583204785024" lon="11.597927003172602"><ele>486.83333333333337</ele><time>2026-04-29T15:00:51.001Z</time></trkpt><trkpt lat="43.355887541334454" lon="11.597991855780819"><ele>486.6666666666667</ele><time>2026-04-29T15:00:52.001Z</time></trkpt><trkpt lat="43.355942413977644" lon="11.598055757915386"><ele>486.5</ele><time>2026-04-29T15:00:53.001Z</time></trkpt><trkpt lat="43.35599712840342" lon="11.598103543604003"><ele>486.33333333333337</ele><time>2026-04-29T15:00:54.001Z</time></trkpt><trkpt lat="43.356054001073254" lon="11.598142790906776"><ele>486.1666666666667</ele><time>2026-04-29T15:00:55.001Z</time></trkpt><trkpt lat="43.356173144490604" lon="11.598119335678968"><ele>486.0</ele><time>2026-04-29T15:00:57.001Z</time></trkpt><trkpt lat="43.356241617835224" lon="11.598070442002477"><ele>486.0</ele><time>2026-04-29T15:00:58.001Z</time></trkpt><trkpt lat="43.35631111415221" lon="11.598017039581878"><ele>486.0</ele><time>2026-04-29T15:00:59.001Z</time></trkpt><trkpt lat="43.356386963962244" lon="11.59796543592297"><ele>486.0</ele><time>2026-04-29T15:01:00.001Z</time></trkpt><trkpt lat="43.35646188654995" lon="11.597924272804011"><ele>486.0</ele><time>2026-04-29T15:01:01.001Z</time></trkpt><trkpt lat="43.35653455831616" lon="11.597886205030393"><ele>486.0</ele><time>2026-04-29T15:01:02.001Z</time></trkpt><trkpt lat="43.3566062001224" lon="11.597842550797589"><ele>486.0</ele><time>2026-04-29T15:01:03.001Z</time></trkpt><trkpt lat="43.356675068747236" lon="11.597801648085381"><ele>484.3333333333333</ele><time>2026-04-29T15:01:04.001Z</time></trkpt><trkpt lat="43.3567442419503" lon="11.597752764888385"><ele>482.66666666666663</ele><time>2026-04-29T15:01:05.001Z</time></trkpt><trkpt lat="43.3568100734844" lon="11.597705524689312"><ele>481.0</ele><time>2026-04-29T15:01:06.001Z</time></trkpt><trkpt lat="43.35687475844726" lon="11.597659133275737"><ele>479.3333333333333</ele><time>2026-04-29T15:01:07.001Z</time></trkpt><trkpt lat="43.35693000175126" lon="11.59761184786225"><ele>477.66666666666663</ele><time>2026-04-29T15:01:08.001Z</time></trkpt><trkpt lat="43.35703787244007" lon="11.597515791899152"><ele>476.0</ele><time>2026-04-29T15:01:10.001Z</time></trkpt><trkpt lat="43.35709041934772" lon="11.597453083002573"><ele>476.0</ele><time>2026-04-29T15:01:11.001Z</time></trkpt><trkpt lat="43.35714062654965" lon="11.597383175684945"><ele>476.0</ele><time>2026-04-29T15:01:12.001Z</time></trkpt><trkpt lat="43.35718817875129" lon="11.597314091292143"><ele>476.0</ele><time>2026-04-29T15:01:13.001Z</time></trkpt><trkpt lat="43.35723213184053" lon="11.59724985773894"><ele>476.0</ele><time>2026-04-29T15:01:14.001Z</time></trkpt><trkpt lat="43.357268547271964" lon="11.597174433135987"><ele>476.0</ele><time>2026-04-29T15:01:15.001Z</time></trkpt><trkpt lat="43.35729574375751" lon="11.597077175356336"><ele>476.0</ele><time>2026-04-29T15:01:16.001Z</time></trkpt><trkpt lat="43.3573222085911" lon="11.596961249703984"><ele>476.0</ele><time>2026-04-29T15:01:17.001Z</time></trkpt><trkpt lat="43.357347653222455" lon="11.596832065678711"><ele>475.5</ele><time>2026-04-29T15:01:18.001Z</time></trkpt><trkpt lat="43.35738044398371" lon="11.596685443757968"><ele>475.0</ele><time>2026-04-29T15:01:19.001Z</time></trkpt><trkpt lat="43.357424436499684" lon="11.596523937984022"><ele>474.5</ele><time>2026-04-29T15:01:20.001Z</time></trkpt><trkpt lat="43.35747058876042" lon="11.596351186546258"><ele>474.0</ele><time>2026-04-29T15:01:21.001Z</time></trkpt><trkpt lat="43.35750073258369" lon="11.596218662763969"><ele>473.1666666666667</ele><time>2026-04-29T15:01:22.001Z</time></trkpt><trkpt lat="43.357529762820604" lon="11.596103790780484"><ele>472.33333333333337</ele><time>2026-04-29T15:01:23.001Z</time></trkpt><trkpt lat="43.357573368043674" lon="11.595987775563405"><ele>471.5</ele><time>2026-04-29T15:01:24.001Z</time></trkpt><trkpt lat="43.357621784304456" lon="11.595883560743559"><ele>470.6666666666667</ele><time>2026-04-29T15:01:25.001Z</time></trkpt><trkpt lat="43.35767299901285" lon="11.595797160967217"><ele>469.83333333333337</ele><time>2026-04-29T15:01:26.001Z</time></trkpt><trkpt lat="43.357733009075815" lon="11.595735467543488"><ele>469.0</ele><time>2026-04-29T15:01:27.001Z</time></trkpt><trkpt lat="43.35781594868549" lon="11.595668464926199"><ele>469.0</ele><time>2026-04-29T15:01:28.001Z</time></trkpt><trkpt lat="43.35790116483448" lon="11.595591250161112"><ele>469.0</ele><time>2026-04-29T15:01:29.001Z</time></trkpt><trkpt lat="43.357976263821854" lon="11.595503792038198"><ele>469.0</ele><time>2026-04-29T15:01:30.001Z</time></trkpt><trkpt lat="43.3580506762999" lon="11.595411801332823"><ele>469.0</ele><time>2026-04-29T15:01:31.001Z</time></trkpt><trkpt lat="43.358116572074145" lon="11.595326844224404"><ele>469.0</ele><time>2026-04-29T15:01:32.001Z</time></trkpt><trkpt lat="43.358179218002874" lon="11.595254772654851"><ele>468.7142857142857</ele><time>2026-04-29T15:01:33.001Z</time></trkpt><trkpt lat="43.358241070916804" lon="11.595190831113591"><ele>468.42857142857144</ele><time>2026-04-29T15:01:34.001Z</time></trkpt><trkpt lat="43.35830516921517" lon="11.5951325593612"><ele>468.1428571428571</ele><time>2026-04-29T15:01:35.001Z</time></trkpt><trkpt lat="43.35837123228807" lon="11.595091655024229"><ele>467.85714285714283</ele><time>2026-04-29T15:01:36.001Z</time></trkpt><trkpt lat="43.35843538103489" lon="11.595064532051827"><ele>467.57142857142856</ele><time>2026-04-29T15:01:37.001Z</time></trkpt><trkpt lat="43.35849733410163" lon="11.595048679814358"><ele>467.2857142857142</ele><time>2026-04-29T15:01:38.001Z</time></trkpt><trkpt lat="43.35856266158833" lon="11.595039909450097"><ele>466.99999999999994</ele><time>2026-04-29T15:01:39.001Z</time></trkpt><trkpt lat="43.35863364045323" lon="11.595030389686281"><ele>467.0</ele><time>2026-04-29T15:01:40.001Z</time></trkpt><trkpt lat="43.358704175509146" lon="11.595011184586335"><ele>467.00000000000006</ele><time>2026-04-29T15:01:41.001Z</time></trkpt><trkpt lat="43.35881850909085" lon="11.594936965832147"><ele>467.00000000000006</ele><time>2026-04-29T15:01:43.001Z</time></trkpt><trkpt lat="43.35886861700516" lon="11.594866978380878"><ele>467.0</ele><time>2026-04-29T15:01:44.001Z</time></trkpt><trkpt lat="43.358915112036556" lon="11.594766131575774"><ele>467.0</ele><time>2026-04-29T15:01:45.001Z</time></trkpt><trkpt lat="43.35895287903455" lon="11.59464712806816"><ele>467.0</ele><time>2026-04-29T15:01:46.001Z</time></trkpt><trkpt lat="43.3589842142455" lon="11.594506838486188"><ele>467.0</ele><time>2026-04-29T15:01:47.001Z</time></trkpt><trkpt lat="43.359012598177905" lon="11.594354584763238"><ele>467.0</ele><time>2026-04-29T15:01:48.001Z</time></trkpt><trkpt lat="43.35904741465692" lon="11.594196991205608"><ele>467.0</ele><time>2026-04-29T15:01:49.001Z</time></trkpt><trkpt lat="43.35909227285674" lon="11.594040784152153"><ele>466.25</ele><time>2026-04-29T15:01:50.001Z</time></trkpt><trkpt lat="43.35914701906389" lon="11.593886839517165"><ele>465.5</ele><time>2026-04-29T15:01:51.001Z</time></trkpt><trkpt lat="43.359192997079596" lon="11.593736701864021"><ele>464.75</ele><time>2026-04-29T15:01:52.001Z</time></trkpt><trkpt lat="43.35923586986242" lon="11.593585283855894"><ele>464.0</ele><time>2026-04-29T15:01:53.001Z</time></trkpt><trkpt lat="43.35926528346878" lon="11.59344560375984"><ele>462.6</ele><time>2026-04-29T15:01:54.001Z</time></trkpt><trkpt lat="43.35929093772569" lon="11.593311135359393"><ele>461.2</ele><time>2026-04-29T15:01:55.001Z</time></trkpt><trkpt lat="43.359323805302296" lon="11.593181560889038"><ele>459.80000000000007</ele><time>2026-04-29T15:01:56.001Z</time></trkpt><trkpt lat="43.359361301878394" lon="11.59306568264551"><ele>458.40000000000003</ele><time>2026-04-29T15:01:57.001Z</time></trkpt><trkpt lat="43.3594128479558" lon="11.592956570648987"><ele>457.0</ele><time>2026-04-29T15:01:58.001Z</time></trkpt><trkpt lat="43.35947272720357" lon="11.59286974745263"><ele>456.20000000000005</ele><time>2026-04-29T15:01:59.001Z</time></trkpt><trkpt lat="43.35953297057444" lon="11.592818159893243"><ele>455.40000000000003</ele><time>2026-04-29T15:02:00.001Z</time></trkpt><trkpt lat="43.35965481747779" lon="11.592771060518507"><ele>454.59999999999997</ele><time>2026-04-29T15:02:02.001Z</time></trkpt><trkpt lat="43.35973666715522" lon="11.592777103472253"><ele>453.79999999999995</ele><time>2026-04-29T15:02:03.001Z</time></trkpt><trkpt lat="43.35982587937161" lon="11.592741463246252"><ele>453.0</ele><time>2026-04-29T15:02:04.001Z</time></trkpt><trkpt lat="43.359921183504056" lon="11.592714496210032"><ele>453.0</ele><time>2026-04-29T15:02:05.001Z</time></trkpt><trkpt lat="43.36002056280859" lon="11.592693462133589"><ele>452.99999999999994</ele><time>2026-04-29T15:02:06.001Z</time></trkpt><trkpt lat="43.36011334048254" lon="11.592694671223835"><ele>452.99999999999994</ele><time>2026-04-29T15:02:07.001Z</time></trkpt><trkpt lat="43.36019867349534" lon="11.592724090196313"><ele>453.0</ele><time>2026-04-29T15:02:08.001Z</time></trkpt><trkpt lat="43.360278650874356" lon="11.592758976497588"><ele>453.0</ele><time>2026-04-29T15:02:09.001Z</time></trkpt><trkpt lat="43.360364290622705" lon="11.592810747385277"><ele>454.8333333333333</ele><time>2026-04-29T15:02:10.001Z</time></trkpt><trkpt lat="43.36044071460649" lon="11.592869290140984"><ele>456.66666666666663</ele><time>2026-04-29T15:02:11.001Z</time></trkpt><trkpt lat="43.3605041431988" lon="11.592930748007259"><ele>458.5</ele><time>2026-04-29T15:02:12.001Z</time></trkpt><trkpt lat="43.360565022226936" lon="11.592972473656218"><ele>460.3333333333333</ele><time>2026-04-29T15:02:13.001Z</time></trkpt><trkpt lat="43.360646657131134" lon="11.5929899567933"><ele>462.16666666666663</ele><time>2026-04-29T15:02:14.001Z</time></trkpt><trkpt lat="43.36073155635753" lon="11.592986579566487"><ele>464.0</ele><time>2026-04-29T15:02:15.001Z</time></trkpt><trkpt lat="43.36082144993244" lon="11.592981461944678"><ele>464.0</ele><time>2026-04-29T15:02:16.001Z</time></trkpt><trkpt lat="43.360922993674784" lon="11.59299503721308"><ele>464.0</ele><time>2026-04-29T15:02:17.001Z</time></trkpt><trkpt lat="43.36102286575778" lon="11.593026390580887"><ele>464.0</ele><time>2026-04-29T15:02:18.001Z</time></trkpt><trkpt lat="43.361120157954225" lon="11.59307679653551"><ele>464.0</ele><time>2026-04-29T15:02:19.001Z</time></trkpt><trkpt lat="43.36120957941687" lon="11.59314215849481"><ele>464.0</ele><time>2026-04-29T15:02:20.001Z</time></trkpt><trkpt lat="43.3612978362091" lon="11.59322063066242"><ele>463.99999999999994</ele><time>2026-04-29T15:02:21.001Z</time></trkpt><trkpt lat="43.361362749965046" lon="11.59331858884233"><ele>464.0</ele><time>2026-04-29T15:02:22.001Z</time></trkpt><trkpt lat="43.36142874913" lon="11.59339627164525"><ele>464.0</ele><time>2026-04-29T15:02:23.001Z</time></trkpt><trkpt lat="43.36150129056803" lon="11.593478026228206"><ele>464.0</ele><time>2026-04-29T15:02:24.001Z</time></trkpt><trkpt lat="43.36155010281927" lon="11.593566651881341"><ele>463.99999999999994</ele><time>2026-04-29T15:02:25.001Z</time></trkpt><trkpt lat="43.36159752595371" lon="11.593635606622085"><ele>464.0</ele><time>2026-04-29T15:02:26.001Z</time></trkpt><trkpt lat="43.36165502096762" lon="11.593679734993438"><ele>463.49999999999994</ele><time>2026-04-29T15:02:27.001Z</time></trkpt><trkpt lat="43.36172533975479" lon="11.593719045942615"><ele>463.0</ele><time>2026-04-29T15:02:28.001Z</time></trkpt><trkpt lat="43.36179787141568" lon="11.593755716744433"><ele>462.5</ele><time>2026-04-29T15:02:29.001Z</time></trkpt><trkpt lat="43.36186774810922" lon="11.593808226771275"><ele>462.0</ele><time>2026-04-29T15:02:30.001Z</time></trkpt><trkpt lat="43.361918205309316" lon="11.593891565019238"><ele>461.49999999999994</ele><time>2026-04-29T15:02:31.001Z</time></trkpt><trkpt lat="43.36194302665237" lon="11.593991907979968"><ele>461.0</ele><time>2026-04-29T15:02:32.001Z</time></trkpt><trkpt lat="43.361941686726524" lon="11.594112399066884"><ele>460.99999999999994</ele><time>2026-04-29T15:02:33.001Z</time></trkpt><trkpt lat="43.361971921882" lon="11.594212732407522"><ele>461.0</ele><time>2026-04-29T15:02:34.002Z</time></trkpt><trkpt lat="43.36199191699607" lon="11.5943089265882"><ele>461.0</ele><time>2026-04-29T15:02:35.001Z</time></trkpt><trkpt lat="43.36202881401985" lon="11.594391538230601"><ele>461.0</ele><time>2026-04-29T15:02:36.001Z</time></trkpt><trkpt lat="43.362074346950095" lon="11.594471036783547"><ele>460.99999999999994</ele><time>2026-04-29T15:02:37.001Z</time></trkpt><trkpt lat="43.36215035960464" lon="11.594574180528634"><ele>461.0</ele><time>2026-04-29T15:02:39.001Z</time></trkpt><trkpt lat="43.36226984553609" lon="11.594615885073928"><ele>460.8333333333333</ele><time>2026-04-29T15:02:41.001Z</time></trkpt><trkpt lat="43.36234344332204" lon="11.59462979917148"><ele>460.66666666666663</ele><time>2026-04-29T15:02:42.001Z</time></trkpt><trkpt lat="43.36241392478727" lon="11.594625242738617"><ele>460.5</ele><time>2026-04-29T15:02:43.001Z</time></trkpt><trkpt lat="43.36247871946805" lon="11.594603613503324"><ele>460.33333333333337</ele><time>2026-04-29T15:02:44.001Z</time></trkpt><trkpt lat="43.362560268662655" lon="11.594566184846595"><ele>460.1666666666667</ele><time>2026-04-29T15:02:45.001Z</time></trkpt><trkpt lat="43.36265097623974" lon="11.594522317881037"><ele>460.0</ele><time>2026-04-29T15:02:46.001Z</time></trkpt><trkpt lat="43.36273238628696" lon="11.594486497729998"><ele>457.6666666666667</ele><time>2026-04-29T15:02:47.001Z</time></trkpt><trkpt lat="43.362808950635056" lon="11.594466603685703"><ele>455.33333333333337</ele><time>2026-04-29T15:02:48.001Z</time></trkpt><trkpt lat="43.362891535786744" lon="11.594461696804776"><ele>453.0</ele><time>2026-04-29T15:02:49.001Z</time></trkpt><trkpt lat="43.36297430260779" lon="11.594466011183723"><ele>450.66666666666663</ele><time>2026-04-29T15:02:50.001Z</time></trkpt><trkpt lat="43.36305374041171" lon="11.594468876844958"><ele>448.3333333333333</ele><time>2026-04-29T15:02:51.001Z</time></trkpt><trkpt lat="43.363127273658144" lon="11.594482656442779"><ele>446.0</ele><time>2026-04-29T15:02:52.001Z</time></trkpt><trkpt lat="43.36320731587735" lon="11.594516470114236"><ele>446.0</ele><time>2026-04-29T15:02:53.001Z</time></trkpt><trkpt lat="43.36328838494694" lon="11.594558273621457"><ele>446.0</ele><time>2026-04-29T15:02:54.001Z</time></trkpt><trkpt lat="43.36337206480197" lon="11.59460803809779"><ele>446.0</ele><time>2026-04-29T15:02:55.001Z</time></trkpt><trkpt lat="43.363442316693344" lon="11.594654912315068"><ele>446.0</ele><time>2026-04-29T15:02:56.001Z</time></trkpt><trkpt lat="43.363535412592" lon="11.594765008626377"><ele>446.0</ele><time>2026-04-29T15:02:58.001Z</time></trkpt><trkpt lat="43.3635716833312" lon="11.594851268612706"><ele>446.0</ele><time>2026-04-29T15:02:59.001Z</time></trkpt><trkpt lat="43.363607175232815" lon="11.594952563689159"><ele>446.0</ele><time>2026-04-29T15:03:00.001Z</time></trkpt><trkpt lat="43.363631354682575" lon="11.595046278037223"><ele>446.0</ele><time>2026-04-29T15:03:01.001Z</time></trkpt><trkpt lat="43.363697880405184" lon="11.595194215890151"><ele>446.0</ele><time>2026-04-29T15:03:03.001Z</time></trkpt><trkpt lat="43.363750724929645" lon="11.595253795621046"><ele>446.0</ele><time>2026-04-29T15:03:04.001Z</time></trkpt><trkpt lat="43.3638624576875" lon="11.595336045424151"><ele>444.2857142857143</ele><time>2026-04-29T15:03:06.001Z</time></trkpt><trkpt lat="43.36392576853668" lon="11.59537047000897"><ele>442.57142857142856</ele><time>2026-04-29T15:03:07.001Z</time></trkpt><trkpt lat="43.36399224267705" lon="11.59540463212469"><ele>440.8571428571429</ele><time>2026-04-29T15:03:08.001Z</time></trkpt><trkpt lat="43.364059525793216" lon="11.595435738715167"><ele>439.1428571428571</ele><time>2026-04-29T15:03:09.001Z</time></trkpt><trkpt lat="43.36412911444476" lon="11.595474523574797"><ele>437.42857142857144</ele><time>2026-04-29T15:03:10.001Z</time></trkpt><trkpt lat="43.36420093504418" lon="11.595510503497145"><ele>435.7142857142857</ele><time>2026-04-29T15:03:11.001Z</time></trkpt><trkpt lat="43.364273230563896" lon="11.595537849175086"><ele>434.0</ele><time>2026-04-29T15:03:12.001Z</time></trkpt><trkpt lat="43.364343910773954" lon="11.595551163417806"><ele>433.99999999999994</ele><time>2026-04-29T15:03:13.001Z</time></trkpt><trkpt lat="43.36441925544238" lon="11.595550909447958"><ele>434.0</ele><time>2026-04-29T15:03:14.001Z</time></trkpt><trkpt lat="43.36449536547364" lon="11.595532008090556"><ele>434.0</ele><time>2026-04-29T15:03:15.001Z</time></trkpt><trkpt lat="43.36457294393727" lon="11.595501022625758"><ele>434.0</ele><time>2026-04-29T15:03:16.001Z</time></trkpt><trkpt lat="43.36466142020677" lon="11.595463117173928"><ele>433.99999999999994</ele><time>2026-04-29T15:03:17.001Z</time></trkpt><trkpt lat="43.36475601191987" lon="11.595432641453757"><ele>434.0</ele><time>2026-04-29T15:03:18.001Z</time></trkpt><trkpt lat="43.364855379923746" lon="11.595397192881563"><ele>433.0</ele><time>2026-04-29T15:03:19.001Z</time></trkpt><trkpt lat="43.36495742968441" lon="11.595350435617675"><ele>432.0</ele><time>2026-04-29T15:03:20.001Z</time></trkpt><trkpt lat="43.36505494847706" lon="11.595299911607572"><ele>431.0</ele><time>2026-04-29T15:03:21.001Z</time></trkpt><trkpt lat="43.36515044426937" lon="11.595253002663176"><ele>430.0</ele><time>2026-04-29T15:03:22.001Z</time></trkpt><trkpt lat="43.36524762075029" lon="11.59519736140639"><ele>429.0</ele><time>2026-04-29T15:03:23.001Z</time></trkpt><trkpt lat="43.365342779328714" lon="11.595137814041815"><ele>429.0</ele><time>2026-04-29T15:03:24.001Z</time></trkpt><trkpt lat="43.365430062498724" lon="11.5950741216927"><ele>429.0</ele><time>2026-04-29T15:03:25.001Z</time></trkpt><trkpt lat="43.365512567697586" lon="11.595001616434736"><ele>429.0</ele><time>2026-04-29T15:03:26.001Z</time></trkpt><trkpt lat="43.365587648401984" lon="11.594919136592468"><ele>429.0</ele><time>2026-04-29T15:03:27.001Z</time></trkpt><trkpt lat="43.36566086381092" lon="11.594833050318424"><ele>429.0</ele><time>2026-04-29T15:03:28.001Z</time></trkpt><trkpt lat="43.365734062493736" lon="11.594737663398513"><ele>429.79999999999995</ele><time>2026-04-29T15:03:29.001Z</time></trkpt><trkpt lat="43.365811028469686" lon="11.594637140610683"><ele>430.59999999999997</ele><time>2026-04-29T15:03:30.001Z</time></trkpt><trkpt lat="43.365887376368434" lon="11.594537251758922"><ele>431.4</ele><time>2026-04-29T15:03:31.001Z</time></trkpt><trkpt lat="43.3659718791779" lon="11.594435965050776"><ele>432.2</ele><time>2026-04-29T15:03:32.001Z</time></trkpt><trkpt lat="43.36605732920338" lon="11.594336572131855"><ele>433.0</ele><time>2026-04-29T15:03:33.001Z</time></trkpt><trkpt lat="43.36614295944687" lon="11.59423381695222"><ele>433.79999999999995</ele><time>2026-04-29T15:03:34.001Z</time></trkpt><trkpt lat="43.36622928632423" lon="11.594121995359913"><ele>434.59999999999997</ele><time>2026-04-29T15:03:35.001Z</time></trkpt><trkpt lat="43.36631936876684" lon="11.594014140540333"><ele>435.40000000000003</ele><time>2026-04-29T15:03:36.001Z</time></trkpt><trkpt lat="43.3664051623975" lon="11.593913190720642"><ele>436.20000000000005</ele><time>2026-04-29T15:03:37.001Z</time></trkpt><trkpt lat="43.3664828266374" lon="11.593833910629792"><ele>437.0</ele><time>2026-04-29T15:03:38.001Z</time></trkpt><trkpt lat="43.36653306394895" lon="11.59377186469145"><ele>437.6</ele><time>2026-04-29T15:03:39.001Z</time></trkpt><trkpt lat="43.36667349919612" lon="11.593720823864249"><ele>438.20000000000005</ele><time>2026-04-29T15:03:41.001Z</time></trkpt><trkpt lat="43.3667658446485" lon="11.593682031691513"><ele>438.8</ele><time>2026-04-29T15:03:42.001Z</time></trkpt><trkpt lat="43.36685267086221" lon="11.59365306336844"><ele>439.4</ele><time>2026-04-29T15:03:43.001Z</time></trkpt><trkpt lat="43.36693397971438" lon="11.593610977566476"><ele>440.0</ele><time>2026-04-29T15:03:44.001Z</time></trkpt><trkpt lat="43.36700653344065" lon="11.593545407183253"><ele>440.66666666666663</ele><time>2026-04-29T15:03:45.001Z</time></trkpt><trkpt lat="43.36706453809722" lon="11.593477745860366"><ele>441.3333333333333</ele><time>2026-04-29T15:03:46.001Z</time></trkpt><trkpt lat="43.36710897062297" lon="11.593406020937566"><ele>442.0</ele><time>2026-04-29T15:03:47.001Z</time></trkpt><trkpt lat="43.36715484833113" lon="11.593319070586952"><ele>442.66666666666663</ele><time>2026-04-29T15:03:48.001Z</time></trkpt><trkpt lat="43.36719768699224" lon="11.593235531931454"><ele>443.3333333333333</ele><time>2026-04-29T15:03:49.001Z</time></trkpt><trkpt lat="43.36723147826571" lon="11.593154779893883"><ele>444.0</ele><time>2026-04-29T15:03:50.001Z</time></trkpt><trkpt lat="43.36725897103098" lon="11.59300307171064"><ele>444.0</ele><time>2026-04-29T15:03:52.001Z</time></trkpt><trkpt lat="43.3672534897491" lon="11.592912338079492"><ele>444.0</ele><time>2026-04-29T15:03:53.001Z</time></trkpt><trkpt lat="43.367250707162626" lon="11.592810451976172"><ele>444.0</ele><time>2026-04-29T15:03:54.001Z</time></trkpt><trkpt lat="43.36722158264904" lon="11.592701877171848"><ele>444.0</ele><time>2026-04-29T15:03:55.001Z</time></trkpt><trkpt lat="43.36716761423855" lon="11.592581419300044"><ele>444.0</ele><time>2026-04-29T15:03:56.001Z</time></trkpt><trkpt lat="43.36711469817573" lon="11.592464351104717"><ele>444.0</ele><time>2026-04-29T15:03:57.001Z</time></trkpt><trkpt lat="43.36709366726255" lon="11.59234724134302"><ele>445.6</ele><time>2026-04-29T15:03:58.001Z</time></trkpt><trkpt lat="43.36709517507412" lon="11.592236622747707"><ele>447.2</ele><time>2026-04-29T15:03:59.001Z</time></trkpt><trkpt lat="43.36710977037967" lon="11.592118021723168"><ele>448.80000000000007</ele><time>2026-04-29T15:04:00.001Z</time></trkpt><trkpt lat="43.36713182498439" lon="11.592000462315323"><ele>450.40000000000003</ele><time>2026-04-29T15:04:01.001Z</time></trkpt><trkpt lat="43.36714776340574" lon="11.591878696270847"><ele>452.0</ele><time>2026-04-29T15:04:02.001Z</time></trkpt><trkpt lat="43.36715641002435" lon="11.59173377318823"><ele>452.40000000000003</ele><time>2026-04-29T15:04:03.001Z</time></trkpt><trkpt lat="43.367167391285726" lon="11.591582092554464"><ele>452.80000000000007</ele><time>2026-04-29T15:04:04.001Z</time></trkpt><trkpt lat="43.367179648846204" lon="11.591423959281167"><ele>453.2</ele><time>2026-04-29T15:04:05.001Z</time></trkpt><trkpt lat="43.36719740595993" lon="11.591271800866007"><ele>453.6</ele><time>2026-04-29T15:04:06.001Z</time></trkpt><trkpt lat="43.36722235148301" lon="11.59114447763871"><ele>454.0</ele><time>2026-04-29T15:04:07.001Z</time></trkpt><trkpt lat="43.367251957242914" lon="11.591032751981421"><ele>455.83333333333337</ele><time>2026-04-29T15:04:08.001Z</time></trkpt><trkpt lat="43.36728805130079" lon="11.590950782559286"><ele>457.6666666666667</ele><time>2026-04-29T15:04:09.001Z</time></trkpt><trkpt lat="43.36733769259705" lon="11.590881973117705"><ele>459.5</ele><time>2026-04-29T15:04:10.002Z</time></trkpt><trkpt lat="43.36740030635946" lon="11.590825750066047"><ele>461.33333333333337</ele><time>2026-04-29T15:04:11.002Z</time></trkpt><trkpt lat="43.36747213423721" lon="11.590789437959177"><ele>463.1666666666667</ele><time>2026-04-29T15:04:12.002Z</time></trkpt><trkpt lat="43.36755493900661" lon="11.5907782384283"><ele>465.0</ele><time>2026-04-29T15:04:13.002Z</time></trkpt><trkpt lat="43.36764259699459" lon="11.590790596356774"><ele>465.0</ele><time>2026-04-29T15:04:14.002Z</time></trkpt><trkpt lat="43.3677265427139" lon="11.5908120050787"><ele>465.0</ele><time>2026-04-29T15:04:15.002Z</time></trkpt><trkpt lat="43.3678115755547" lon="11.590842629110504"><ele>465.0</ele><time>2026-04-29T15:04:16.002Z</time></trkpt><trkpt lat="43.36789958871561" lon="11.59088058160483"><ele>465.0</ele><time>2026-04-29T15:04:17.002Z</time></trkpt><trkpt lat="43.367987593309884" lon="11.590912971847914"><ele>465.0</ele><time>2026-04-29T15:04:18.002Z</time></trkpt><trkpt lat="43.368055118874246" lon="11.59093064688436"><ele>465.0</ele><time>2026-04-29T15:04:19.002Z</time></trkpt><trkpt lat="43.368102486095594" lon="11.590990774810216"><ele>464.8</ele><time>2026-04-29T15:04:20.002Z</time></trkpt><trkpt lat="43.36818468281305" lon="11.591113649009902"><ele>464.6</ele><time>2026-04-29T15:04:22.002Z</time></trkpt><trkpt lat="43.36825023829433" lon="11.591227209840808"><ele>464.4</ele><time>2026-04-29T15:04:24.002Z</time></trkpt><trkpt lat="43.36832352542467" lon="11.591247144243846"><ele>464.2</ele><time>2026-04-29T15:04:25.002Z</time></trkpt><trkpt lat="43.368394749833364" lon="11.591259912325642"><ele>464.0</ele><time>2026-04-29T15:04:26.002Z</time></trkpt><trkpt lat="43.36847405527595" lon="11.591251761702015"><ele>463.99999999999994</ele><time>2026-04-29T15:04:27.002Z</time></trkpt><trkpt lat="43.36854974833778" lon="11.591230311189022"><ele>464.0</ele><time>2026-04-29T15:04:28.002Z</time></trkpt><trkpt lat="43.368618310758045" lon="11.591189792340506"><ele>464.0</ele><time>2026-04-29T15:04:29.002Z</time></trkpt><trkpt lat="43.36868478726734" lon="11.59113234243672"><ele>464.0</ele><time>2026-04-29T15:04:30.002Z</time></trkpt><trkpt lat="43.36875420995798" lon="11.591092815931296"><ele>463.99999999999994</ele><time>2026-04-29T15:04:31.002Z</time></trkpt><trkpt lat="43.36882806872431" lon="11.591078018897422"><ele>464.0</ele><time>2026-04-29T15:04:32.002Z</time></trkpt><trkpt lat="43.368906466590296" lon="11.59105541335227"><ele>467.2</ele><time>2026-04-29T15:04:33.001Z</time></trkpt><trkpt lat="43.36897861799466" lon="11.591031978792074"><ele>470.4</ele><time>2026-04-29T15:04:34.001Z</time></trkpt><trkpt lat="43.36906543966289" lon="11.590977794880203"><ele>473.6</ele><time>2026-04-29T15:04:36.001Z</time></trkpt><trkpt lat="43.369112262496145" lon="11.590868721543988"><ele>476.8</ele><time>2026-04-29T15:04:38.001Z</time></trkpt><trkpt lat="43.36918309365848" lon="11.590719497436258"><ele>480.0</ele><time>2026-04-29T15:04:40.001Z</time></trkpt><trkpt lat="43.369235856241744" lon="11.590663302213242"><ele>480.0</ele><time>2026-04-29T15:04:41Z</time></trkpt><trkpt lat="43.369365163423424" lon="11.590612947350758"><ele>480.0</ele><time>2026-04-29T15:04:43Z</time></trkpt><trkpt lat="43.369461249982415" lon="11.590590921268634"><ele>480.0</ele><time>2026-04-29T15:04:44Z</time></trkpt><trkpt lat="43.369556189418105" lon="11.590547360612375"><ele>480.0</ele><time>2026-04-29T15:04:45Z</time></trkpt><trkpt lat="43.36964713337444" lon="11.590490477869404"><ele>480.0</ele><time>2026-04-29T15:04:46Z</time></trkpt><trkpt lat="43.369738829551245" lon="11.590431833529596"><ele>480.0</ele><time>2026-04-29T15:04:47Z</time></trkpt><trkpt lat="43.369837735330584" lon="11.590362564929103"><ele>480.0</ele><time>2026-04-29T15:04:48Z</time></trkpt><trkpt lat="43.369949125841636" lon="11.590291481962941"><ele>480.0</ele><time>2026-04-29T15:04:49Z</time></trkpt><trkpt lat="43.37006398675148" lon="11.590238864783549"><ele>480.0</ele><time>2026-04-29T15:04:50Z</time></trkpt><trkpt lat="43.37019106406036" lon="11.59020374456512"><ele>484.25</ele><time>2026-04-29T15:04:51Z</time></trkpt><trkpt lat="43.370305124291" lon="11.59017497596232"><ele>488.5</ele><time>2026-04-29T15:04:52Z</time></trkpt><trkpt lat="43.37041465812664" lon="11.590133516899149"><ele>492.75</ele><time>2026-04-29T15:04:53Z</time></trkpt><trkpt lat="43.37052465817717" lon="11.590084194260763"><ele>497.0</ele><time>2026-04-29T15:04:54Z</time></trkpt><trkpt lat="43.370635788141016" lon="11.590030722717982"><ele>497.0</ele><time>2026-04-29T15:04:55Z</time></trkpt><trkpt lat="43.37074363921354" lon="11.589987339490381"><ele>497.00000000000006</ele><time>2026-04-29T15:04:56Z</time></trkpt><trkpt lat="43.37083848780165" lon="11.589961751316501"><ele>497.00000000000006</ele><time>2026-04-29T15:04:57Z</time></trkpt><trkpt lat="43.370915230195294" lon="11.589962684724833"><ele>497.0</ele><time>2026-04-29T15:04:58Z</time></trkpt><trkpt lat="43.370995665655" lon="11.589984708849077"><ele>497.0</ele><time>2026-04-29T15:04:59Z</time></trkpt><trkpt lat="43.3710831792799" lon="11.59002098287788"><ele>497.0</ele><time>2026-04-29T15:05:00Z</time></trkpt><trkpt lat="43.37117035669278" lon="11.590091656031552"><ele>497.00000000000006</ele><time>2026-04-29T15:05:01Z</time></trkpt><trkpt lat="43.37126303371514" lon="11.590135330622358"><ele>497.00000000000006</ele><time>2026-04-29T15:05:02Z</time></trkpt><trkpt lat="43.37135594753712" lon="11.590220125562226"><ele>497.0</ele><time>2026-04-29T15:05:03Z</time></trkpt><trkpt lat="43.37145110253779" lon="11.59031171241589"><ele>497.0</ele><time>2026-04-29T15:05:04Z</time></trkpt><trkpt lat="43.371541094470885" lon="11.590402087736768"><ele>496.20000000000005</ele><time>2026-04-29T15:05:05Z</time></trkpt><trkpt lat="43.37162509935261" lon="11.590497614509898"><ele>495.40000000000003</ele><time>2026-04-29T15:05:06Z</time></trkpt><trkpt lat="43.37170403769578" lon="11.590575241515486"><ele>494.59999999999997</ele><time>2026-04-29T15:05:07Z</time></trkpt><trkpt lat="43.37178483687433" lon="11.590645696306963"><ele>493.79999999999995</ele><time>2026-04-29T15:05:08Z</time></trkpt><trkpt lat="43.37186047478644" lon="11.590728596365388"><ele>493.0</ele><time>2026-04-29T15:05:09Z</time></trkpt><trkpt lat="43.371938144582316" lon="11.590815903208549"><ele>493.0</ele><time>2026-04-29T15:05:10Z</time></trkpt><trkpt lat="43.372015379926594" lon="11.590910478434656"><ele>492.99999999999994</ele><time>2026-04-29T15:05:11Z</time></trkpt><trkpt lat="43.37209088257732" lon="11.59099686116126"><ele>492.99999999999994</ele><time>2026-04-29T15:05:12Z</time></trkpt><trkpt lat="43.37217364750893" lon="11.591082088952712"><ele>493.0</ele><time>2026-04-29T15:05:13Z</time></trkpt><trkpt lat="43.37225490328668" lon="11.591155366415622"><ele>493.0</ele><time>2026-04-29T15:05:14Z</time></trkpt><trkpt lat="43.37233290352934" lon="11.591225255718438"><ele>491.33333333333337</ele><time>2026-04-29T15:05:15Z</time></trkpt><trkpt lat="43.37239598622531" lon="11.591289728845942"><ele>489.6666666666667</ele><time>2026-04-29T15:05:16Z</time></trkpt><trkpt lat="43.372444246119656" lon="11.591353175564706"><ele>488.0</ele><time>2026-04-29T15:05:17Z</time></trkpt><trkpt lat="43.37245366464516" lon="11.59144264619228"><ele>486.33333333333337</ele><time>2026-04-29T15:05:18Z</time></trkpt><trkpt lat="43.372501057237024" lon="11.591506771188907"><ele>484.6666666666667</ele><time>2026-04-29T15:05:20Z</time></trkpt><trkpt lat="43.37250630630868" lon="11.591272120102087"><ele>483.0</ele><time>2026-04-29T15:05:26Z</time></trkpt><trkpt lat="43.3724548379578" lon="11.591194335035437"><ele>482.2</ele><time>2026-04-29T15:05:27Z</time></trkpt><trkpt lat="43.372391771609145" lon="11.59110471421087"><ele>481.4</ele><time>2026-04-29T15:05:28Z</time></trkpt><trkpt lat="43.3723216831883" lon="11.591018981641652"><ele>480.59999999999997</ele><time>2026-04-29T15:05:29Z</time></trkpt><trkpt lat="43.37225204901534" lon="11.59093538865871"><ele>479.79999999999995</ele><time>2026-04-29T15:05:30Z</time></trkpt><trkpt lat="43.37218929446586" lon="11.59084580120016"><ele>479.0</ele><time>2026-04-29T15:05:31Z</time></trkpt><trkpt lat="43.37214155784376" lon="11.590744184408024"><ele>478.2</ele><time>2026-04-29T15:05:32Z</time></trkpt><trkpt lat="43.37210493104721" lon="11.59064838227365"><ele>477.4</ele><time>2026-04-29T15:05:33Z</time></trkpt><trkpt lat="43.37211263331455" lon="11.590540152079651"><ele>476.6</ele><time>2026-04-29T15:05:34Z</time></trkpt><trkpt lat="43.37214843365016" lon="11.590415652621228"><ele>475.8</ele><time>2026-04-29T15:05:35Z</time></trkpt><trkpt lat="43.372198644699424" lon="11.59026946367647"><ele>475.0</ele><time>2026-04-29T15:05:36Z</time></trkpt><trkpt lat="43.37224743385693" lon="11.590108053112086"><ele>475.0</ele><time>2026-04-29T15:05:37Z</time></trkpt><trkpt lat="43.372290216296854" lon="11.589960402740912"><ele>475.0</ele><time>2026-04-29T15:05:38Z</time></trkpt><trkpt lat="43.37233005128632" lon="11.589825013438668"><ele>475.0</ele><time>2026-04-29T15:05:39Z</time></trkpt><trkpt lat="43.37237212730503" lon="11.589684900722132"><ele>475.0</ele><time>2026-04-29T15:05:40Z</time></trkpt><trkpt lat="43.3723825307335" lon="11.589546202614166"><ele>475.0</ele><time>2026-04-29T15:05:41Z</time></trkpt><trkpt lat="43.372361320192425" lon="11.589406913660648"><ele>473.75</ele><time>2026-04-29T15:05:42Z</time></trkpt><trkpt lat="43.37231585566691" lon="11.589276919778223"><ele>472.5</ele><time>2026-04-29T15:05:43Z</time></trkpt><trkpt lat="43.372237737518525" lon="11.589156174370077"><ele>471.25</ele><time>2026-04-29T15:05:44Z</time></trkpt><trkpt lat="43.37213946949887" lon="11.589039003870495"><ele>470.0</ele><time>2026-04-29T15:05:45Z</time></trkpt><trkpt lat="43.372016783772374" lon="11.588941141473095"><ele>471.5</ele><time>2026-04-29T15:05:46Z</time></trkpt><trkpt lat="43.371893385557364" lon="11.588859947423874"><ele>473.0</ele><time>2026-04-29T15:05:47Z</time></trkpt><trkpt lat="43.37181002172496" lon="11.588756248772357"><ele>474.5</ele><time>2026-04-29T15:05:48Z</time></trkpt><trkpt lat="43.37174021259578" lon="11.588639790265324"><ele>476.0</ele><time>2026-04-29T15:05:49Z</time></trkpt><trkpt lat="43.371709301506996" lon="11.588484246184162"><ele>476.0</ele><time>2026-04-29T15:05:50Z</time></trkpt><trkpt lat="43.37164648379336" lon="11.588357843327286"><ele>476.0</ele><time>2026-04-29T15:05:51Z</time></trkpt><trkpt lat="43.37160407930831" lon="11.588226348650192"><ele>476.0</ele><time>2026-04-29T15:05:52Z</time></trkpt><trkpt lat="43.371525042900366" lon="11.58812721685534"><ele>476.0</ele><time>2026-04-29T15:05:53Z</time></trkpt><trkpt lat="43.37140608939707" lon="11.588054871933583"><ele>474.6</ele><time>2026-04-29T15:05:54Z</time></trkpt><trkpt lat="43.37127819733135" lon="11.58798069613931"><ele>473.20000000000005</ele><time>2026-04-29T15:05:55Z</time></trkpt><trkpt lat="43.3711873364309" lon="11.58787655164286"><ele>471.79999999999995</ele><time>2026-04-29T15:05:56Z</time></trkpt><trkpt lat="43.37113003773742" lon="11.587790113270353"><ele>470.4</ele><time>2026-04-29T15:05:57Z</time></trkpt><trkpt lat="43.371120128737196" lon="11.587685131319592"><ele>469.0</ele><time>2026-04-29T15:05:58Z</time></trkpt><trkpt lat="43.37113666178126" lon="11.587577483365138"><ele>469.0</ele><time>2026-04-29T15:05:59Z</time></trkpt><trkpt lat="43.37125092085979" lon="11.58756354383144"><ele>469.0</ele><time>2026-04-29T15:06:00Z</time></trkpt><trkpt lat="43.37135327732645" lon="11.587530997972925"><ele>469.0</ele><time>2026-04-29T15:06:01Z</time></trkpt><trkpt lat="43.37147404405303" lon="11.587449765632917"><ele>469.0</ele><time>2026-04-29T15:06:02Z</time></trkpt><trkpt lat="43.371580009446504" lon="11.587325677078967"><ele>467.33333333333337</ele><time>2026-04-29T15:06:03Z</time></trkpt><trkpt lat="43.37167371116852" lon="11.587163621552808"><ele>465.66666666666663</ele><time>2026-04-29T15:06:04Z</time></trkpt><trkpt lat="43.37172789026087" lon="11.586958121625957"><ele>464.0</ele><time>2026-04-29T15:06:05Z</time></trkpt><trkpt lat="43.3717700617802" lon="11.586750527152871"><ele>462.3333333333333</ele><time>2026-04-29T15:06:06Z</time></trkpt><trkpt lat="43.37182269237663" lon="11.586550862334525"><ele>460.66666666666663</ele><time>2026-04-29T15:06:07Z</time></trkpt><trkpt lat="43.37188162567555" lon="11.586345912890454"><ele>459.0</ele><time>2026-04-29T15:06:08Z</time></trkpt><trkpt lat="43.371932514112146" lon="11.58615470108293"><ele>457.25</ele><time>2026-04-29T15:06:09Z</time></trkpt><trkpt lat="43.3719774077731" lon="11.585985090455761"><ele>455.5</ele><time>2026-04-29T15:06:10Z</time></trkpt><trkpt lat="43.37200795125962" lon="11.585838464354314"><ele>453.75</ele><time>2026-04-29T15:06:11Z</time></trkpt><trkpt lat="43.3720183433583" lon="11.585686675403366"><ele>452.0</ele><time>2026-04-29T15:06:12Z</time></trkpt><trkpt lat="43.3719984963397" lon="11.58553947036838"><ele>451.99999999999994</ele><time>2026-04-29T15:06:13Z</time></trkpt><trkpt lat="43.371957937102344" lon="11.58544050769689"><ele>452.0</ele><time>2026-04-29T15:06:14Z</time></trkpt><trkpt lat="43.371896399448865" lon="11.585374398923616"><ele>452.0</ele><time>2026-04-29T15:06:15Z</time></trkpt><trkpt lat="43.3718138157408" lon="11.585364744771267"><ele>452.0</ele><time>2026-04-29T15:06:16Z</time></trkpt><trkpt lat="43.371728101678514" lon="11.585421331091844"><ele>451.99999999999994</ele><time>2026-04-29T15:06:17Z</time></trkpt><trkpt lat="43.3716650921888" lon="11.5854543001227"><ele>452.0</ele><time>2026-04-29T15:06:18Z</time></trkpt><trkpt lat="43.37164494841756" lon="11.585301513627332"><ele>450.6</ele><time>2026-04-29T15:06:20Z</time></trkpt><trkpt lat="43.37168489110354" lon="11.585198678756294"><ele>449.20000000000005</ele><time>2026-04-29T15:06:21Z</time></trkpt><trkpt lat="43.37178272649631" lon="11.585118070916465"><ele>447.8</ele><time>2026-04-29T15:06:22Z</time></trkpt><trkpt lat="43.371845816808396" lon="11.584999840180577"><ele>446.4</ele><time>2026-04-29T15:06:23Z</time></trkpt><trkpt lat="43.371904923283296" lon="11.584880929191407"><ele>445.0</ele><time>2026-04-29T15:06:24Z</time></trkpt><trkpt lat="43.371921965116385" lon="11.58472579791759"><ele>445.0</ele><time>2026-04-29T15:06:25Z</time></trkpt><trkpt lat="43.371903052838796" lon="11.584562974220201"><ele>445.0</ele><time>2026-04-29T15:06:26Z</time></trkpt><trkpt lat="43.37183926133278" lon="11.584406145580063"><ele>445.0</ele><time>2026-04-29T15:06:27Z</time></trkpt><trkpt lat="43.37175106999628" lon="11.584272734544637"><ele>445.0</ele><time>2026-04-29T15:06:28Z</time></trkpt><trkpt lat="43.3716616053394" lon="11.58414877956317"><ele>443.5</ele><time>2026-04-29T15:06:29Z</time></trkpt><trkpt lat="43.37159952910596" lon="11.5839998557269"><ele>442.0</ele><time>2026-04-29T15:06:30Z</time></trkpt><trkpt lat="43.371545467949055" lon="11.583855897723987"><ele>440.5</ele><time>2026-04-29T15:06:31Z</time></trkpt><trkpt lat="43.37150445413292" lon="11.583709438104783"><ele>439.0</ele><time>2026-04-29T15:06:32Z</time></trkpt><trkpt lat="43.371571335665024" lon="11.583584586360516"><ele>437.5</ele><time>2026-04-29T15:06:33Z</time></trkpt><trkpt lat="43.37162648913486" lon="11.583473247134997"><ele>436.0</ele><time>2026-04-29T15:06:34Z</time></trkpt><trkpt lat="43.3716897407269" lon="11.583318963203666"><ele>434.5</ele><time>2026-04-29T15:06:35.001Z</time></trkpt><trkpt lat="43.37177488908368" lon="11.583162362531532"><ele>433.0</ele><time>2026-04-29T15:06:36.001Z</time></trkpt><trkpt lat="43.371839814199305" lon="11.583000356251004"><ele>433.0</ele><time>2026-04-29T15:06:37.001Z</time></trkpt><trkpt lat="43.37188518065747" lon="11.58284777831661"><ele>433.0</ele><time>2026-04-29T15:06:38.001Z</time></trkpt><trkpt lat="43.371891199349136" lon="11.582692281971685"><ele>433.0</ele><time>2026-04-29T15:06:39.001Z</time></trkpt><trkpt lat="43.37183629659171" lon="11.582551533155254"><ele>433.0</ele><time>2026-04-29T15:06:40.001Z</time></trkpt><trkpt lat="43.37178142589003" lon="11.582383162495272"><ele>431.0</ele><time>2026-04-29T15:06:41.001Z</time></trkpt><trkpt lat="43.37168286942444" lon="11.58223298552712"><ele>429.0</ele><time>2026-04-29T15:06:42.001Z</time></trkpt><trkpt lat="43.37157982598605" lon="11.582080194162558"><ele>427.0</ele><time>2026-04-29T15:06:43.001Z</time></trkpt><trkpt lat="43.37146646975245" lon="11.581930465376544"><ele>423.0</ele><time>2026-04-29T15:06:44.001Z</time></trkpt><trkpt lat="43.37133662878158" lon="11.58180684028098"><ele>419.0</ele><time>2026-04-29T15:06:45.001Z</time></trkpt><trkpt lat="43.371214589907495" lon="11.581717308880496"><ele>415.0</ele><time>2026-04-29T15:06:46.001Z</time></trkpt><trkpt lat="43.37113549233267" lon="11.581617619276496"><ele>411.0</ele><time>2026-04-29T15:06:47Z</time></trkpt><trkpt lat="43.371090933817236" lon="11.581528735028575"><ele>411.0</ele><time>2026-04-29T15:06:48Z</time></trkpt><trkpt lat="43.37110389834257" lon="11.581429158026417"><ele>411.0</ele><time>2026-04-29T15:06:49Z</time></trkpt><trkpt lat="43.37112388415305" lon="11.581291176814906"><ele>411.0</ele><time>2026-04-29T15:06:50Z</time></trkpt><trkpt lat="43.37119917569849" lon="11.581130988889882"><ele>411.0</ele><time>2026-04-29T15:06:51Z</time></trkpt><trkpt lat="43.37127536284559" lon="11.580965148146035"><ele>411.0</ele><time>2026-04-29T15:06:52Z</time></trkpt><trkpt lat="43.371345615347515" lon="11.58081237357805"><ele>411.0</ele><time>2026-04-29T15:06:53Z</time></trkpt><trkpt lat="43.371419326095726" lon="11.58068286019808"><ele>411.0</ele><time>2026-04-29T15:06:54Z</time></trkpt><trkpt lat="43.37145411581527" lon="11.580517046702301"><ele>411.0</ele><time>2026-04-29T15:06:55Z</time></trkpt><trkpt lat="43.371468147600005" lon="11.580321507693357"><ele>411.0</ele><time>2026-04-29T15:06:56Z</time></trkpt><trkpt lat="43.37147257944077" lon="11.580155345461572"><ele>411.0</ele><time>2026-04-29T15:06:57Z</time></trkpt><trkpt lat="43.37146942958969" lon="11.580010501882189"><ele>411.0</ele><time>2026-04-29T15:06:58Z</time></trkpt><trkpt lat="43.37142650645693" lon="11.579874467613662"><ele>411.0</ele><time>2026-04-29T15:06:59Z</time></trkpt><trkpt lat="43.371343943654054" lon="11.579743600563482"><ele>407.25</ele><time>2026-04-29T15:07:00Z</time></trkpt><trkpt lat="43.371254389415554" lon="11.579593375820478"><ele>403.5</ele><time>2026-04-29T15:07:01Z</time></trkpt><trkpt lat="43.371202277122954" lon="11.57942024611766"><ele>399.75</ele><time>2026-04-29T15:07:02Z</time></trkpt><trkpt lat="43.3711628327042" lon="11.579280612245407"><ele>396.0</ele><time>2026-04-29T15:07:03Z</time></trkpt><trkpt lat="43.37110005650957" lon="11.579184383430833"><ele>394.75</ele><time>2026-04-29T15:07:04Z</time></trkpt><trkpt lat="43.37099604907993" lon="11.57914360585509"><ele>393.5</ele><time>2026-04-29T15:07:05Z</time></trkpt><trkpt lat="43.3708646639426" lon="11.579139547268042"><ele>392.25</ele><time>2026-04-29T15:07:06Z</time></trkpt><trkpt lat="43.370743953192566" lon="11.57910862178378"><ele>391.0</ele><time>2026-04-29T15:07:07Z</time></trkpt><trkpt lat="43.370638929873245" lon="11.579068489266747"><ele>391.0</ele><time>2026-04-29T15:07:08Z</time></trkpt><trkpt lat="43.37054625386795" lon="11.578978352151722"><ele>391.0</ele><time>2026-04-29T15:07:09Z</time></trkpt><trkpt lat="43.37049210113321" lon="11.578841569411328"><ele>391.0</ele><time>2026-04-29T15:07:10Z</time></trkpt><trkpt lat="43.37041593923875" lon="11.57870703462088"><ele>391.0</ele><time>2026-04-29T15:07:11Z</time></trkpt><trkpt lat="43.37033874237362" lon="11.578581015725732"><ele>387.5</ele><time>2026-04-29T15:07:12Z</time></trkpt><trkpt lat="43.370232773087295" lon="11.578472600681712"><ele>384.0</ele><time>2026-04-29T15:07:13Z</time></trkpt><trkpt lat="43.370121740773406" lon="11.57840355867084"><ele>380.5</ele><time>2026-04-29T15:07:14Z</time></trkpt><trkpt lat="43.370010714236045" lon="11.57833593493309"><ele>377.0</ele><time>2026-04-29T15:07:15Z</time></trkpt><trkpt lat="43.36989206003122" lon="11.578262267485497"><ele>377.0</ele><time>2026-04-29T15:07:16Z</time></trkpt><trkpt lat="43.369782648707805" lon="11.578193581417349"><ele>377.0</ele><time>2026-04-29T15:07:17Z</time></trkpt><trkpt lat="43.36970041078917" lon="11.578115629022763"><ele>377.0</ele><time>2026-04-29T15:07:18Z</time></trkpt><trkpt lat="43.369642474924284" lon="11.578004326543095"><ele>377.0</ele><time>2026-04-29T15:07:19Z</time></trkpt><trkpt lat="43.36958915937756" lon="11.577845505643996"><ele>377.0</ele><time>2026-04-29T15:07:20Z</time></trkpt><trkpt lat="43.36951136270831" lon="11.577686348334337"><ele>373.6666666666667</ele><time>2026-04-29T15:07:21Z</time></trkpt><trkpt lat="43.369423040345794" lon="11.57752707632732"><ele>370.3333333333333</ele><time>2026-04-29T15:07:22Z</time></trkpt><trkpt lat="43.36931833370801" lon="11.577375783479708"><ele>367.0</ele><time>2026-04-29T15:07:23Z</time></trkpt><trkpt lat="43.36920726230651" lon="11.577229271694197"><ele>367.0</ele><time>2026-04-29T15:07:24Z</time></trkpt><trkpt lat="43.369113051939095" lon="11.577075242456552"><ele>367.0</ele><time>2026-04-29T15:07:25Z</time></trkpt><trkpt lat="43.36899391517844" lon="11.576972932800835"><ele>367.0</ele><time>2026-04-29T15:07:26Z</time></trkpt><trkpt lat="43.36887668853482" lon="11.576865390678586"><ele>367.0</ele><time>2026-04-29T15:07:27Z</time></trkpt><trkpt lat="43.36878041804196" lon="11.576718648401148"><ele>364.25</ele><time>2026-04-29T15:07:28Z</time></trkpt><trkpt lat="43.36866552062231" lon="11.576590272384506"><ele>361.5</ele><time>2026-04-29T15:07:29Z</time></trkpt><trkpt lat="43.368563639158396" lon="11.576441635069088"><ele>358.75</ele><time>2026-04-29T15:07:30Z</time></trkpt><trkpt lat="43.36845340044129" lon="11.576330470564171"><ele>356.0</ele><time>2026-04-29T15:07:31Z</time></trkpt><trkpt lat="43.36836262392767" lon="11.576210502683614"><ele>355.25</ele><time>2026-04-29T15:07:32Z</time></trkpt><trkpt lat="43.368298154957365" lon="11.57607203246254"><ele>354.5</ele><time>2026-04-29T15:07:33Z</time></trkpt><trkpt lat="43.36823507419913" lon="11.575910691776729"><ele>353.75</ele><time>2026-04-29T15:07:34Z</time></trkpt><trkpt lat="43.368164716274464" lon="11.575759181239624"><ele>353.0</ele><time>2026-04-29T15:07:35Z</time></trkpt><trkpt lat="43.368072195307526" lon="11.575619115538773"><ele>349.75</ele><time>2026-04-29T15:07:36Z</time></trkpt><trkpt lat="43.36795692005946" lon="11.575505223400366"><ele>346.5</ele><time>2026-04-29T15:07:37Z</time></trkpt><trkpt lat="43.36785176817472" lon="11.575401348591818"><ele>343.25</ele><time>2026-04-29T15:07:38Z</time></trkpt><trkpt lat="43.367787484932784" lon="11.5752506067485"><ele>340.0</ele><time>2026-04-29T15:07:39Z</time></trkpt><trkpt lat="43.36773309914444" lon="11.575092577670105"><ele>339.75</ele><time>2026-04-29T15:07:40Z</time></trkpt><trkpt lat="43.367675444554884" lon="11.574924875249602"><ele>339.5</ele><time>2026-04-29T15:07:41Z</time></trkpt><trkpt lat="43.36765065284239" lon="11.574732814731387"><ele>339.25</ele><time>2026-04-29T15:07:42Z</time></trkpt><trkpt lat="43.367617700818094" lon="11.57454709711888"><ele>339.0</ele><time>2026-04-29T15:07:43Z</time></trkpt><trkpt lat="43.36755065561031" lon="11.574369612928269"><ele>337.0</ele><time>2026-04-29T15:07:44Z</time></trkpt><trkpt lat="43.36745648352638" lon="11.574209791080872"><ele>335.0</ele><time>2026-04-29T15:07:45Z</time></trkpt><trkpt lat="43.3673412238216" lon="11.574066973924884"><ele>333.0</ele><time>2026-04-29T15:07:46Z</time></trkpt><trkpt lat="43.367209643021255" lon="11.57394935698554"><ele>331.5</ele><time>2026-04-29T15:07:47Z</time></trkpt><trkpt lat="43.367080209866366" lon="11.573852309709434"><ele>330.0</ele><time>2026-04-29T15:07:48Z</time></trkpt><trkpt lat="43.366974069639674" lon="11.573740657641103"><ele>328.5</ele><time>2026-04-29T15:07:49Z</time></trkpt><trkpt lat="43.3669146845184" lon="11.573580301321725"><ele>327.0</ele><time>2026-04-29T15:07:50Z</time></trkpt><trkpt lat="43.366840712761594" lon="11.573416495279774"><ele>327.0</ele><time>2026-04-29T15:07:51Z</time></trkpt><trkpt lat="43.36676206279283" lon="11.573252734281185"><ele>327.0</ele><time>2026-04-29T15:07:52Z</time></trkpt><trkpt lat="43.36669001278967" lon="11.573080431013816"><ele>327.0</ele><time>2026-04-29T15:07:53Z</time></trkpt><trkpt lat="43.366607703857085" lon="11.572912093139335"><ele>327.0</ele><time>2026-04-29T15:07:54Z</time></trkpt><trkpt lat="43.366525525835996" lon="11.572737747799174"><ele>325.0</ele><time>2026-04-29T15:07:55Z</time></trkpt><trkpt lat="43.36644185573842" lon="11.572549850008222"><ele>323.0</ele><time>2026-04-29T15:07:56Z</time></trkpt><trkpt lat="43.36637500387275" lon="11.572355885127923"><ele>321.0</ele><time>2026-04-29T15:07:57Z</time></trkpt><trkpt lat="43.366329683831914" lon="11.572150762209136"><ele>318.6666666666667</ele><time>2026-04-29T15:07:58Z</time></trkpt><trkpt lat="43.36631646867434" lon="11.57194342214379"><ele>316.33333333333337</ele><time>2026-04-29T15:07:59Z</time></trkpt><trkpt lat="43.366318054091685" lon="11.571730385304113"><ele>314.0</ele><time>2026-04-29T15:08:00Z</time></trkpt><trkpt lat="43.36630351865979" lon="11.57153399615942"><ele>314.0</ele><time>2026-04-29T15:08:01Z</time></trkpt><trkpt lat="43.366252397664645" lon="11.571334323895286"><ele>314.0</ele><time>2026-04-29T15:08:02Z</time></trkpt><trkpt lat="43.36616667964662" lon="11.571147399838093"><ele>314.0</ele><time>2026-04-29T15:08:03Z</time></trkpt><trkpt lat="43.36606291498125" lon="11.570969723202937"><ele>313.25</ele><time>2026-04-29T15:08:04Z</time></trkpt><trkpt lat="43.36598192946226" lon="11.570787304108133"><ele>312.5</ele><time>2026-04-29T15:08:05Z</time></trkpt><trkpt lat="43.36594634178277" lon="11.57065709738714"><ele>311.75</ele><time>2026-04-29T15:08:06Z</time></trkpt><trkpt lat="43.36588684787606" lon="11.570595807096048"><ele>311.0</ele><time>2026-04-29T15:08:08Z</time></trkpt><trkpt lat="43.365994918213396" lon="11.570676688978955"><ele>311.0</ele><time>2026-04-29T15:08:15Z</time></trkpt><trkpt lat="43.36610506933559" lon="11.570676637032102"><ele>311.0</ele><time>2026-04-29T15:08:17Z</time></trkpt><trkpt lat="43.36618556091375" lon="11.570720049585919"><ele>311.0</ele><time>2026-04-29T15:08:18Z</time></trkpt><trkpt lat="43.36626589140791" lon="11.570728470649486"><ele>311.0</ele><time>2026-04-29T15:08:19Z</time></trkpt><trkpt lat="43.36633255420806" lon="11.570697275138897"><ele>311.0</ele><time>2026-04-29T15:08:20Z</time></trkpt><trkpt lat="43.36637524684183" lon="11.570613655529648"><ele>311.0</ele><time>2026-04-29T15:08:21Z</time></trkpt><trkpt lat="43.366325491912846" lon="11.570365276048692"><ele>310.5</ele><time>2026-04-29T15:08:23Z</time></trkpt><trkpt lat="43.36626001717885" lon="11.570220257486119"><ele>310.0</ele><time>2026-04-29T15:08:24Z</time></trkpt><trkpt lat="43.36619026104925" lon="11.570058123858303"><ele>309.5</ele><time>2026-04-29T15:08:25Z</time></trkpt><trkpt lat="43.36616351296264" lon="11.569858023362642"><ele>309.0</ele><time>2026-04-29T15:08:26Z</time></trkpt><trkpt lat="43.366150190640894" lon="11.569654091474625"><ele>307.5</ele><time>2026-04-29T15:08:27Z</time></trkpt><trkpt lat="43.366106703853326" lon="11.56945767123504"><ele>306.0</ele><time>2026-04-29T15:08:28Z</time></trkpt><trkpt lat="43.36604597633128" lon="11.569277177246093"><ele>304.5</ele><time>2026-04-29T15:08:29Z</time></trkpt><trkpt lat="43.365963977810495" lon="11.569137560837982"><ele>303.0</ele><time>2026-04-29T15:08:30Z</time></trkpt><trkpt lat="43.36587183507193" lon="11.56900981354737"><ele>303.0</ele><time>2026-04-29T15:08:31Z</time></trkpt><trkpt lat="43.36576365392669" lon="11.568883396713298"><ele>303.0</ele><time>2026-04-29T15:08:32Z</time></trkpt><trkpt lat="43.36565880399415" lon="11.568745325621448"><ele>303.0</ele><time>2026-04-29T15:08:33Z</time></trkpt><trkpt lat="43.365565106912214" lon="11.568605608427461"><ele>303.0</ele><time>2026-04-29T15:08:34Z</time></trkpt><trkpt lat="43.365458542468474" lon="11.568501236391134"><ele>301.75</ele><time>2026-04-29T15:08:35Z</time></trkpt><trkpt lat="43.36536150355622" lon="11.568398209814188"><ele>300.5</ele><time>2026-04-29T15:08:36Z</time></trkpt><trkpt lat="43.365249070778255" lon="11.568323605057609"><ele>299.25</ele><time>2026-04-29T15:08:37Z</time></trkpt><trkpt lat="43.365119269998104" lon="11.568248561715286"><ele>298.0</ele><time>2026-04-29T15:08:38Z</time></trkpt><trkpt lat="43.36498317070909" lon="11.56818682388686"><ele>298.0</ele><time>2026-04-29T15:08:39Z</time></trkpt><trkpt lat="43.36485867353729" lon="11.568126167295242"><ele>298.0</ele><time>2026-04-29T15:08:40Z</time></trkpt><trkpt lat="43.36477026216388" lon="11.568021553977761"><ele>298.0</ele><time>2026-04-29T15:08:41Z</time></trkpt><trkpt lat="43.36471453839674" lon="11.567909587521239"><ele>298.0</ele><time>2026-04-29T15:08:42Z</time></trkpt><trkpt lat="43.36465467546345" lon="11.567781271635567"><ele>296.25</ele><time>2026-04-29T15:08:43Z</time></trkpt><trkpt lat="43.36467314875248" lon="11.567605873591981"><ele>294.5</ele><time>2026-04-29T15:08:44Z</time></trkpt><trkpt lat="43.36467988566403" lon="11.56741461386918"><ele>292.75</ele><time>2026-04-29T15:08:45Z</time></trkpt><trkpt lat="43.36471582386774" lon="11.567222494779013"><ele>291.0</ele><time>2026-04-29T15:08:46Z</time></trkpt><trkpt lat="43.36475399437488" lon="11.567012538567017"><ele>290.5</ele><time>2026-04-29T15:08:47Z</time></trkpt><trkpt lat="43.36478642649316" lon="11.566801333253803"><ele>290.0</ele><time>2026-04-29T15:08:48Z</time></trkpt><trkpt lat="43.36481485520563" lon="11.56661021860756"><ele>289.5</ele><time>2026-04-29T15:08:49Z</time></trkpt><trkpt lat="43.36483896881655" lon="11.566447622152555"><ele>289.0</ele><time>2026-04-29T15:08:50Z</time></trkpt><trkpt lat="43.364863887401945" lon="11.566320622391633"><ele>289.0</ele><time>2026-04-29T15:08:51Z</time></trkpt><trkpt lat="43.36488787478899" lon="11.566221280842552"><ele>289.0</ele><time>2026-04-29T15:08:52Z</time></trkpt><trkpt lat="43.36493363373974" lon="11.566104036024011"><ele>289.0</ele><time>2026-04-29T15:08:54Z</time></trkpt><trkpt lat="43.36504452310043" lon="11.566045022998601"><ele>289.0</ele><time>2026-04-29T15:08:57Z</time></trkpt><trkpt lat="43.365124589306355" lon="11.566031218004206"><ele>289.0</ele><time>2026-04-29T15:08:58Z</time></trkpt><trkpt lat="43.36522694962166" lon="11.566017331343122"><ele>289.25</ele><time>2026-04-29T15:08:59Z</time></trkpt><trkpt lat="43.365337451271984" lon="11.565998999204648"><ele>289.5</ele><time>2026-04-29T15:09:00Z</time></trkpt><trkpt lat="43.365455317523285" lon="11.565979149995623"><ele>289.75</ele><time>2026-04-29T15:09:01Z</time></trkpt><trkpt lat="43.36558220521199" lon="11.565959132973461"><ele>290.0</ele><time>2026-04-29T15:09:02Z</time></trkpt><trkpt lat="43.36572398103062" lon="11.56593784435672"><ele>290.0</ele><time>2026-04-29T15:09:03Z</time></trkpt><trkpt lat="43.36587548148839" lon="11.565918455946312"><ele>290.0</ele><time>2026-04-29T15:09:04Z</time></trkpt><trkpt lat="43.36603531395649" lon="11.565900808811302"><ele>290.0</ele><time>2026-04-29T15:09:05Z</time></trkpt><trkpt lat="43.366204857163595" lon="11.565882948650954"><ele>289.33333333333337</ele><time>2026-04-29T15:09:06Z</time></trkpt><trkpt lat="43.366384664800584" lon="11.565859420376922"><ele>288.6666666666667</ele><time>2026-04-29T15:09:07Z</time></trkpt><trkpt lat="43.36657173510705" lon="11.565827347894189"><ele>288.0</ele><time>2026-04-29T15:09:08Z</time></trkpt><trkpt lat="43.36676727903085" lon="11.56579483288137"><ele>288.0</ele><time>2026-04-29T15:09:09Z</time></trkpt><trkpt lat="43.36697198727088" lon="11.565762183736014"><ele>288.0</ele><time>2026-04-29T15:09:10Z</time></trkpt><trkpt lat="43.36718338423565" lon="11.565730517191431"><ele>288.0</ele><time>2026-04-29T15:09:11Z</time></trkpt><trkpt lat="43.367401637997716" lon="11.56569544756938"><ele>287.0</ele><time>2026-04-29T15:09:12Z</time></trkpt><trkpt lat="43.36762454167476" lon="11.565660474367405"><ele>286.0</ele><time>2026-04-29T15:09:13Z</time></trkpt><trkpt lat="43.36785359427883" lon="11.56562412140083"><ele>285.0</ele><time>2026-04-29T15:09:14Z</time></trkpt><trkpt lat="43.36808523682742" lon="11.565586370068152"><ele>284.0</ele><time>2026-04-29T15:09:15Z</time></trkpt><trkpt lat="43.3683168498792" lon="11.565554601391836"><ele>284.0</ele><time>2026-04-29T15:09:16Z</time></trkpt><trkpt lat="43.36855501056937" lon="11.565525405346728"><ele>284.0</ele><time>2026-04-29T15:09:17Z</time></trkpt><trkpt lat="43.36878935971468" lon="11.565492086938136"><ele>285.0</ele><time>2026-04-29T15:09:18Z</time></trkpt><trkpt lat="43.36902606975562" lon="11.565455731841793"><ele>286.0</ele><time>2026-04-29T15:09:19Z</time></trkpt><trkpt lat="43.36926585321175" lon="11.565419815096462"><ele>286.0</ele><time>2026-04-29T15:09:20Z</time></trkpt><trkpt lat="43.36949867956969" lon="11.565386771407278"><ele>286.0</ele><time>2026-04-29T15:09:21Z</time></trkpt><trkpt lat="43.36973271732359" lon="11.565351307819906"><ele>287.5</ele><time>2026-04-29T15:09:22Z</time></trkpt><trkpt lat="43.36996793617767" lon="11.565314961795579"><ele>289.0</ele><time>2026-04-29T15:09:23Z</time></trkpt><trkpt lat="43.37020069933112" lon="11.56527873679144"><ele>289.0</ele><time>2026-04-29T15:09:24Z</time></trkpt><trkpt lat="43.37043631998093" lon="11.565241083582919"><ele>289.0</ele><time>2026-04-29T15:09:25Z</time></trkpt><trkpt lat="43.37067241743592" lon="11.565205611414356"><ele>288.0</ele><time>2026-04-29T15:09:26Z</time></trkpt><trkpt lat="43.37091625172492" lon="11.565171483783427"><ele>287.0</ele><time>2026-04-29T15:09:27Z</time></trkpt><trkpt lat="43.37115670197444" lon="11.565140775676719"><ele>285.33333333333337</ele><time>2026-04-29T15:09:28Z</time></trkpt><trkpt lat="43.371384982283466" lon="11.565113694093482"><ele>283.6666666666667</ele><time>2026-04-29T15:09:29Z</time></trkpt><trkpt lat="43.37159185332887" lon="11.565079027338536"><ele>282.0</ele><time>2026-04-29T15:09:30Z</time></trkpt><trkpt lat="43.371787003958374" lon="11.56505416730041"><ele>282.0</ele><time>2026-04-29T15:09:31Z</time></trkpt><trkpt lat="43.371964079060234" lon="11.565030470141238"><ele>282.0</ele><time>2026-04-29T15:09:32Z</time></trkpt><trkpt lat="43.37212955793818" lon="11.56500605998198"><ele>282.0</ele><time>2026-04-29T15:09:33Z</time></trkpt><trkpt lat="43.372280559119474" lon="11.56498356718687"><ele>281.5</ele><time>2026-04-29T15:09:34Z</time></trkpt><trkpt lat="43.37241862493689" lon="11.56496091104286"><ele>281.0</ele><time>2026-04-29T15:09:35Z</time></trkpt><trkpt lat="43.372541546371544" lon="11.564937178550034"><ele>280.5</ele><time>2026-04-29T15:09:36Z</time></trkpt><trkpt lat="43.3726525367068" lon="11.564938063449132"><ele>280.0</ele><time>2026-04-29T15:09:37Z</time></trkpt><trkpt lat="43.37274888343241" lon="11.564924268458547"><ele>280.0</ele><time>2026-04-29T15:09:38Z</time></trkpt><trkpt lat="43.37283662064711" lon="11.564911706183615"><ele>280.0</ele><time>2026-04-29T15:09:39Z</time></trkpt><trkpt lat="43.372915938363604" lon="11.564900349417913"><ele>280.0</ele><time>2026-04-29T15:09:40Z</time></trkpt><trkpt lat="43.37298727551023" lon="11.564890135313115"><ele>280.0</ele><time>2026-04-29T15:09:41Z</time></trkpt><trkpt lat="43.373054519247944" lon="11.564880507307866"><ele>280.0</ele><time>2026-04-29T15:09:42Z</time></trkpt><trkpt lat="43.373122056838795" lon="11.56487084862693"><ele>280.0</ele><time>2026-04-29T15:09:43Z</time></trkpt><trkpt lat="43.373189259098964" lon="11.564861320705944"><ele>280.0</ele><time>2026-04-29T15:09:44Z</time></trkpt><trkpt lat="43.37325360931957" lon="11.564852171243942"><ele>280.0</ele><time>2026-04-29T15:09:45Z</time></trkpt><trkpt lat="43.37336386355723" lon="11.564836135714346"><ele>280.0</ele><time>2026-04-29T15:09:47Z</time></trkpt><trkpt lat="43.37344409841888" lon="11.564824466252286"><ele>280.0</ele><time>2026-04-29T15:09:49Z</time></trkpt><trkpt lat="43.3735265965264" lon="11.564822172431587"><ele>280.0</ele><time>2026-04-29T15:12:17Z</time></trkpt><trkpt lat="43.37365910374639" lon="11.564799611113314"><ele>280.0</ele><time>2026-04-29T15:12:19Z</time></trkpt><trkpt lat="43.373744485771894" lon="11.564787006207203"><ele>280.0</ele><time>2026-04-29T15:12:20Z</time></trkpt><trkpt lat="43.3738347971641" lon="11.56477601792678"><ele>280.0</ele><time>2026-04-29T15:12:21Z</time></trkpt><trkpt lat="43.373928905235495" lon="11.564765070073113"><ele>280.0</ele><time>2026-04-29T15:12:22Z</time></trkpt><trkpt lat="43.374014428957615" lon="11.564751266054856"><ele>280.0</ele><time>2026-04-29T15:12:23Z</time></trkpt><trkpt lat="43.37410711806023" lon="11.564734142275356"><ele>280.0</ele><time>2026-04-29T15:12:24Z</time></trkpt><trkpt lat="43.37420563158098" lon="11.564716345990396"><ele>279.0</ele><time>2026-04-29T15:12:25Z</time></trkpt><trkpt lat="43.374309099383105" lon="11.564698184308085"><ele>278.0</ele><time>2026-04-29T15:12:26Z</time></trkpt><trkpt lat="43.37441852460928" lon="11.564679989004034"><ele>277.0</ele><time>2026-04-29T15:12:27Z</time></trkpt><trkpt lat="43.3745270983192" lon="11.564664222805549"><ele>276.0</ele><time>2026-04-29T15:12:28Z</time></trkpt><trkpt lat="43.37463281814886" lon="11.564651746365035"><ele>275.0</ele><time>2026-04-29T15:12:29Z</time></trkpt><trkpt lat="43.37473255222801" lon="11.564646820515975"><ele>273.8</ele><time>2026-04-29T15:12:30Z</time></trkpt><trkpt lat="43.37483008362001" lon="11.56464447333491"><ele>272.6</ele><time>2026-04-29T15:12:31Z</time></trkpt><trkpt lat="43.374924090740656" lon="11.564649162069646"><ele>271.4</ele><time>2026-04-29T15:12:32Z</time></trkpt><trkpt lat="43.37501965636311" lon="11.564675387240031"><ele>270.2</ele><time>2026-04-29T15:12:33Z</time></trkpt><trkpt lat="43.3751193843765" lon="11.564710610468632"><ele>269.0</ele><time>2026-04-29T15:12:34Z</time></trkpt><trkpt lat="43.375228358962055" lon="11.564756846970141"><ele>269.0</ele><time>2026-04-29T15:12:35Z</time></trkpt><trkpt lat="43.375343941793126" lon="11.56483236327523"><ele>269.0</ele><time>2026-04-29T15:12:36Z</time></trkpt><trkpt lat="43.37545283668841" lon="11.564938486949725"><ele>269.0</ele><time>2026-04-29T15:12:37Z</time></trkpt><trkpt lat="43.37557363572047" lon="11.565032771848879"><ele>269.0</ele><time>2026-04-29T15:12:38Z</time></trkpt><trkpt lat="43.37571108180403" lon="11.565115655451146"><ele>270.0</ele><time>2026-04-29T15:12:39Z</time></trkpt><trkpt lat="43.375846227615284" lon="11.56522505997948"><ele>271.0</ele><time>2026-04-29T15:12:40Z</time></trkpt><trkpt lat="43.375986975280455" lon="11.565338868129594"><ele>272.0</ele><time>2026-04-29T15:12:41Z</time></trkpt><trkpt lat="43.37612662195995" lon="11.565462185922899"><ele>272.0</ele><time>2026-04-29T15:12:42Z</time></trkpt><trkpt lat="43.37627883867663" lon="11.565573082220308"><ele>272.0</ele><time>2026-04-29T15:12:43Z</time></trkpt><trkpt lat="43.37643543096336" lon="11.565691581856647"><ele>272.0</ele><time>2026-04-29T15:12:44Z</time></trkpt><trkpt lat="43.3765934858101" lon="11.565816040024014"><ele>272.6666666666667</ele><time>2026-04-29T15:12:45Z</time></trkpt><trkpt lat="43.37676258725314" lon="11.565933200402151"><ele>273.3333333333333</ele><time>2026-04-29T15:12:46Z</time></trkpt><trkpt lat="43.37693476163238" lon="11.566034246536638"><ele>274.0</ele><time>2026-04-29T15:12:47Z</time></trkpt><trkpt lat="43.377121314996394" lon="11.566096983893134"><ele>273.0</ele><time>2026-04-29T15:12:48Z</time></trkpt><trkpt lat="43.37731629903863" lon="11.566123552842493"><ele>272.0</ele><time>2026-04-29T15:12:49Z</time></trkpt><trkpt lat="43.37752197447067" lon="11.566113726389306"><ele>271.0</ele><time>2026-04-29T15:12:50Z</time></trkpt><trkpt lat="43.37772858328246" lon="11.566076566057768"><ele>271.0</ele><time>2026-04-29T15:12:51.001Z</time></trkpt><trkpt lat="43.377939805856734" lon="11.5660162154446"><ele>271.0</ele><time>2026-04-29T15:12:52.001Z</time></trkpt><trkpt lat="43.37815467005244" lon="11.565946643713346"><ele>271.0</ele><time>2026-04-29T15:12:53.001Z</time></trkpt><trkpt lat="43.37837321979916" lon="11.565873017156283"><ele>271.0</ele><time>2026-04-29T15:12:54.001Z</time></trkpt><trkpt lat="43.378597840105215" lon="11.565796257069522"><ele>271.0</ele><time>2026-04-29T15:12:55.001Z</time></trkpt><trkpt lat="43.37882268787345" lon="11.565719216950374"><ele>269.5</ele><time>2026-04-29T15:12:56.001Z</time></trkpt><trkpt lat="43.3790493232699" lon="11.565640091585447"><ele>268.0</ele><time>2026-04-29T15:12:57.001Z</time></trkpt><trkpt lat="43.3792738703694" lon="11.56556486047258"><ele>268.0</ele><time>2026-04-29T15:12:58.001Z</time></trkpt><trkpt lat="43.3794960037596" lon="11.565490141897733"><ele>268.0</ele><time>2026-04-29T15:12:59.001Z</time></trkpt><trkpt lat="43.37972185160244" lon="11.565413020056987"><ele>268.0</ele><time>2026-04-29T15:13:00.001Z</time></trkpt><trkpt lat="43.37994483191369" lon="11.565343477247813"><ele>268.0</ele><time>2026-04-29T15:13:01.001Z</time></trkpt><trkpt lat="43.3801670339615" lon="11.565274306019175"><ele>268.0</ele><time>2026-04-29T15:13:02.001Z</time></trkpt><trkpt lat="43.38038467266584" lon="11.56520203245198"><ele>268.0</ele><time>2026-04-29T15:13:03.001Z</time></trkpt><trkpt lat="43.38060100871931" lon="11.565129252264427"><ele>268.0</ele><time>2026-04-29T15:13:04.001Z</time></trkpt><trkpt lat="43.38081598957777" lon="11.56505801551454"><ele>267.3333333333333</ele><time>2026-04-29T15:13:05Z</time></trkpt><trkpt lat="43.38102046662736" lon="11.564989627017411"><ele>266.6666666666667</ele><time>2026-04-29T15:13:06Z</time></trkpt><trkpt lat="43.381204323880695" lon="11.564928053399226"><ele>266.0</ele><time>2026-04-29T15:13:07Z</time></trkpt><trkpt lat="43.38136706026782" lon="11.564873065372215"><ele>265.8</ele><time>2026-04-29T15:13:08Z</time></trkpt><trkpt lat="43.381505329021586" lon="11.564828311944071"><ele>265.6</ele><time>2026-04-29T15:13:09Z</time></trkpt><trkpt lat="43.38159401572109" lon="11.564803764375185"><ele>265.4</ele><time>2026-04-29T15:13:10Z</time></trkpt><trkpt lat="43.38166564889602" lon="11.564808080355029"><ele>265.2</ele><time>2026-04-29T15:13:12Z</time></trkpt><trkpt lat="43.3816063482712" lon="11.56463829872598"><ele>265.0</ele><time>2026-04-29T15:13:15Z</time></trkpt><trkpt lat="43.381518845965914" lon="11.564585295362097"><ele>265.5</ele><time>2026-04-29T15:13:16Z</time></trkpt><trkpt lat="43.38143621648285" lon="11.564509228740091"><ele>266.0</ele><time>2026-04-29T15:13:17Z</time></trkpt><trkpt lat="43.38135007860378" lon="11.564417896039426"><ele>266.5</ele><time>2026-04-29T15:13:18Z</time></trkpt><trkpt lat="43.38128035480307" lon="11.564282063247287"><ele>267.0</ele><time>2026-04-29T15:13:19Z</time></trkpt><trkpt lat="43.38120733446438" lon="11.564139866420867"><ele>267.0</ele><time>2026-04-29T15:13:20Z</time></trkpt><trkpt lat="43.38116904346926" lon="11.563958250540352"><ele>267.0</ele><time>2026-04-29T15:13:21Z</time></trkpt><trkpt lat="43.38114291347455" lon="11.563739870945287"><ele>267.0</ele><time>2026-04-29T15:13:22Z</time></trkpt><trkpt lat="43.38110483866552" lon="11.56353920518338"><ele>267.0</ele><time>2026-04-29T15:13:23Z</time></trkpt><trkpt lat="43.38104966020652" lon="11.563407073416219"><ele>269.0</ele><time>2026-04-29T15:13:24Z</time></trkpt><trkpt lat="43.38097059923456" lon="11.56331582852146"><ele>271.0</ele><time>2026-04-29T15:13:25Z</time></trkpt><trkpt lat="43.38085913215338" lon="11.563262543377556"><ele>273.0</ele><time>2026-04-29T15:13:26Z</time></trkpt><trkpt lat="43.38071406129362" lon="11.563234854860728"><ele>275.0</ele><time>2026-04-29T15:13:27Z</time></trkpt><trkpt lat="43.3805522631429" lon="11.563194935464752"><ele>274.25</ele><time>2026-04-29T15:13:28Z</time></trkpt><trkpt lat="43.3803961961522" lon="11.563127888088573"><ele>273.5</ele><time>2026-04-29T15:13:29Z</time></trkpt><trkpt lat="43.38026687542725" lon="11.563051411494005"><ele>272.75</ele><time>2026-04-29T15:13:30Z</time></trkpt><trkpt lat="43.38014664377125" lon="11.562948746870292"><ele>272.0</ele><time>2026-04-29T15:13:31Z</time></trkpt><trkpt lat="43.38005764945061" lon="11.56280872510004"><ele>274.5</ele><time>2026-04-29T15:13:32Z</time></trkpt><trkpt lat="43.37999500920146" lon="11.562643850323857"><ele>277.0</ele><time>2026-04-29T15:13:33Z</time></trkpt><trkpt lat="43.37993951636444" lon="11.562456898303601"><ele>279.5</ele><time>2026-04-29T15:13:34Z</time></trkpt><trkpt lat="43.379876671626015" lon="11.56224713236021"><ele>282.0</ele><time>2026-04-29T15:13:35Z</time></trkpt><trkpt lat="43.379806596332415" lon="11.562023506618925"><ele>285.0</ele><time>2026-04-29T15:13:36Z</time></trkpt><trkpt lat="43.37974653963538" lon="11.561794833716593"><ele>288.0</ele><time>2026-04-29T15:13:37Z</time></trkpt><trkpt lat="43.37970554325946" lon="11.561560328171412"><ele>291.0</ele><time>2026-04-29T15:13:38Z</time></trkpt><trkpt lat="43.3796921646394" lon="11.561328982839232"><ele>293.0</ele><time>2026-04-29T15:13:39Z</time></trkpt><trkpt lat="43.37969249028995" lon="11.561096398289687"><ele>295.0</ele><time>2026-04-29T15:13:40Z</time></trkpt><trkpt lat="43.37969719618713" lon="11.560843114156771"><ele>297.0</ele><time>2026-04-29T15:13:41Z</time></trkpt><trkpt lat="43.37969987257261" lon="11.560608314971622"><ele>297.0</ele><time>2026-04-29T15:13:42Z</time></trkpt><trkpt lat="43.37972447451763" lon="11.560418403785173"><ele>297.0</ele><time>2026-04-29T15:13:43Z</time></trkpt><trkpt lat="43.37974723586579" lon="11.560251739112026"><ele>297.0</ele><time>2026-04-29T15:13:44Z</time></trkpt><trkpt lat="43.3798313744902" lon="11.560093754523033"><ele>297.0</ele><time>2026-04-29T15:13:45Z</time></trkpt><trkpt lat="43.37993065830051" lon="11.559956958825712"><ele>297.25</ele><time>2026-04-29T15:13:46Z</time></trkpt><trkpt lat="43.38005666854721" lon="11.559891429379292"><ele>297.5</ele><time>2026-04-29T15:13:47Z</time></trkpt><trkpt lat="43.380174441185055" lon="11.559870920119087"><ele>297.75</ele><time>2026-04-29T15:13:48Z</time></trkpt><trkpt lat="43.380313723074856" lon="11.559871697298016"><ele>298.0</ele><time>2026-04-29T15:13:49Z</time></trkpt><trkpt lat="43.38047957021647" lon="11.559873227836002"><ele>298.3333333333333</ele><time>2026-04-29T15:13:50Z</time></trkpt><trkpt lat="43.38065913322112" lon="11.55985853633698"><ele>298.6666666666667</ele><time>2026-04-29T15:13:51Z</time></trkpt><trkpt lat="43.38083409226057" lon="11.559853763624966"><ele>299.0</ele><time>2026-04-29T15:13:52Z</time></trkpt><trkpt lat="43.38097492171922" lon="11.559843261158752"><ele>299.0</ele><time>2026-04-29T15:13:53Z</time></trkpt><trkpt lat="43.38108705528449" lon="11.559805997026135"><ele>299.0</ele><time>2026-04-29T15:13:54Z</time></trkpt><trkpt lat="43.38120522678495" lon="11.559720821222113"><ele>299.0</ele><time>2026-04-29T15:13:55Z</time></trkpt><trkpt lat="43.38133019641555" lon="11.559593736142455"><ele>299.0</ele><time>2026-04-29T15:13:56Z</time></trkpt><trkpt lat="43.38146128898682" lon="11.559448719501672"><ele>300.0</ele><time>2026-04-29T15:13:57Z</time></trkpt><trkpt lat="43.38159631986871" lon="11.559290993467616"><ele>301.0</ele><time>2026-04-29T15:13:58Z</time></trkpt><trkpt lat="43.38172731141294" lon="11.55911591117507"><ele>302.0</ele><time>2026-04-29T15:13:59Z</time></trkpt><trkpt lat="43.381846945697944" lon="11.558938434303133"><ele>302.0</ele><time>2026-04-29T15:14:00Z</time></trkpt><trkpt lat="43.38195111026352" lon="11.55877316400711"><ele>302.0</ele><time>2026-04-29T15:14:01Z</time></trkpt><trkpt lat="43.38205171647225" lon="11.558613578957843"><ele>302.0</ele><time>2026-04-29T15:14:02Z</time></trkpt><trkpt lat="43.382152485540885" lon="11.558444067824446"><ele>302.33333333333337</ele><time>2026-04-29T15:14:03Z</time></trkpt><trkpt lat="43.38226476160291" lon="11.558269736478243"><ele>302.6666666666667</ele><time>2026-04-29T15:14:04Z</time></trkpt><trkpt lat="43.38236811536908" lon="11.558101682296066"><ele>303.0</ele><time>2026-04-29T15:14:05Z</time></trkpt><trkpt lat="43.38245524092748" lon="11.557917500815106"><ele>304.0</ele><time>2026-04-29T15:14:06Z</time></trkpt><trkpt lat="43.38250949391205" lon="11.557717721402474"><ele>305.0</ele><time>2026-04-29T15:14:07Z</time></trkpt><trkpt lat="43.382549080066866" lon="11.557503903549543"><ele>306.0</ele><time>2026-04-29T15:14:08Z</time></trkpt><trkpt lat="43.38252916608293" lon="11.557277331405382"><ele>306.0</ele><time>2026-04-29T15:14:09Z</time></trkpt><trkpt lat="43.3825060937042" lon="11.557054771552853"><ele>306.0</ele><time>2026-04-29T15:14:10Z</time></trkpt><trkpt lat="43.38247481879585" lon="11.556828831200193"><ele>306.0</ele><time>2026-04-29T15:14:11Z</time></trkpt><trkpt lat="43.38245735099695" lon="11.556631999203386"><ele>306.5</ele><time>2026-04-29T15:14:12Z</time></trkpt><trkpt lat="43.382471026220024" lon="11.556441244874732"><ele>307.0</ele><time>2026-04-29T15:14:13Z</time></trkpt><trkpt lat="43.38252330187102" lon="11.556255739597383"><ele>307.5</ele><time>2026-04-29T15:14:14Z</time></trkpt><trkpt lat="43.38262654159747" lon="11.556102227704677"><ele>308.0</ele><time>2026-04-29T15:14:15Z</time></trkpt><trkpt lat="43.38273484387344" lon="11.555924819866565"><ele>308.0</ele><time>2026-04-29T15:14:16Z</time></trkpt><trkpt lat="43.38285655651802" lon="11.555757754918469"><ele>308.0</ele><time>2026-04-29T15:14:17Z</time></trkpt><trkpt lat="43.382962917883745" lon="11.55556272416214"><ele>308.0</ele><time>2026-04-29T15:14:18Z</time></trkpt><trkpt lat="43.38305206096943" lon="11.555350903615471"><ele>309.0</ele><time>2026-04-29T15:14:19Z</time></trkpt><trkpt lat="43.38311911215923" lon="11.555155259702277"><ele>310.0</ele><time>2026-04-29T15:14:20Z</time></trkpt><trkpt lat="43.38318379664345" lon="11.554979664764023"><ele>311.0</ele><time>2026-04-29T15:14:21Z</time></trkpt><trkpt lat="43.383239282892006" lon="11.554808178782457"><ele>312.0</ele><time>2026-04-29T15:14:22Z</time></trkpt><trkpt lat="43.3832699512357" lon="11.554615788321504"><ele>312.6666666666667</ele><time>2026-04-29T15:14:23Z</time></trkpt><trkpt lat="43.38326722919721" lon="11.554407686373613"><ele>313.33333333333337</ele><time>2026-04-29T15:14:24Z</time></trkpt><trkpt lat="43.38324389647424" lon="11.554182159729029"><ele>314.0</ele><time>2026-04-29T15:14:25Z</time></trkpt><trkpt lat="43.38321335248575" lon="11.553945160582545"><ele>313.6666666666667</ele><time>2026-04-29T15:14:26Z</time></trkpt><trkpt lat="43.38315878810381" lon="11.553695278306165"><ele>313.3333333333333</ele><time>2026-04-29T15:14:27Z</time></trkpt><trkpt lat="43.383083524605546" lon="11.553446815658553"><ele>313.0</ele><time>2026-04-29T15:14:28Z</time></trkpt><trkpt lat="43.38299134404772" lon="11.553194570793273"><ele>313.0</ele><time>2026-04-29T15:14:29Z</time></trkpt><trkpt lat="43.38290108206182" lon="11.55294321257068"><ele>313.0</ele><time>2026-04-29T15:14:30Z</time></trkpt><trkpt lat="43.38282151087931" lon="11.552717255805748"><ele>313.0</ele><time>2026-04-29T15:14:31Z</time></trkpt><trkpt lat="43.38275005567837" lon="11.55250963458887"><ele>313.0</ele><time>2026-04-29T15:14:32Z</time></trkpt><trkpt lat="43.38268957270363" lon="11.552318528057336"><ele>313.0</ele><time>2026-04-29T15:14:33Z</time></trkpt><trkpt lat="43.382648550964994" lon="11.552158171945207"><ele>313.0</ele><time>2026-04-29T15:14:34Z</time></trkpt><trkpt lat="43.38263732432149" lon="11.552021151431367"><ele>313.0</ele><time>2026-04-29T15:14:35Z</time></trkpt><trkpt lat="43.382640367436075" lon="11.551921031688988"><ele>313.0</ele><time>2026-04-29T15:14:36Z</time></trkpt><trkpt lat="43.382727432621074" lon="11.551843548781365"><ele>313.25</ele><time>2026-04-29T15:14:37Z</time></trkpt><trkpt lat="43.38282731910109" lon="11.551800285559734"><ele>313.5</ele><time>2026-04-29T15:14:38Z</time></trkpt><trkpt lat="43.38295162186808" lon="11.551757961410502"><ele>313.75</ele><time>2026-04-29T15:14:39Z</time></trkpt><trkpt lat="43.3830901332207" lon="11.551703399490304"><ele>314.0</ele><time>2026-04-29T15:14:40Z</time></trkpt><trkpt lat="43.38324500913189" lon="11.551641643669871"><ele>313.33333333333337</ele><time>2026-04-29T15:14:41Z</time></trkpt><trkpt lat="43.383408096945395" lon="11.551576976258607"><ele>312.6666666666667</ele><time>2026-04-29T15:14:42Z</time></trkpt><trkpt lat="43.38358141711896" lon="11.551516028557584"><ele>312.0</ele><time>2026-04-29T15:14:43Z</time></trkpt><trkpt lat="43.383763401738484" lon="11.55145522788815"><ele>312.3333333333333</ele><time>2026-04-29T15:14:44Z</time></trkpt><trkpt lat="43.38394832259084" lon="11.551395995998297"><ele>312.66666666666663</ele><time>2026-04-29T15:14:45Z</time></trkpt><trkpt lat="43.384117803406625" lon="11.55132235007261"><ele>313.0</ele><time>2026-04-29T15:14:46Z</time></trkpt><trkpt lat="43.38426996263396" lon="11.5512294561964"><ele>313.66666666666663</ele><time>2026-04-29T15:14:47Z</time></trkpt><trkpt lat="43.3844126594401" lon="11.551121847092025"><ele>314.3333333333333</ele><time>2026-04-29T15:14:48Z</time></trkpt><trkpt lat="43.38455370096439" lon="11.551017941784545"><ele>315.0</ele><time>2026-04-29T15:14:49Z</time></trkpt><trkpt lat="43.38470362868058" lon="11.550923244517964"><ele>316.3333333333333</ele><time>2026-04-29T15:14:50Z</time></trkpt><trkpt lat="43.384866387064" lon="11.550837492375416"><ele>317.66666666666663</ele><time>2026-04-29T15:14:51Z</time></trkpt><trkpt lat="43.385033585833334" lon="11.550758172715414"><ele>319.0</ele><time>2026-04-29T15:14:52Z</time></trkpt><trkpt lat="43.38518520898977" lon="11.550689437356164"><ele>319.0</ele><time>2026-04-29T15:14:53Z</time></trkpt><trkpt lat="43.38532245757048" lon="11.550636856779013"><ele>319.0</ele><time>2026-04-29T15:14:54Z</time></trkpt><trkpt lat="43.385452107794386" lon="11.550613805730086"><ele>319.0</ele><time>2026-04-29T15:14:55Z</time></trkpt><trkpt lat="43.38558728472097" lon="11.550633982183296"><ele>319.0</ele><time>2026-04-29T15:14:56Z</time></trkpt><trkpt lat="43.38573227426554" lon="11.550621452554605"><ele>320.66666666666663</ele><time>2026-04-29T15:14:57Z</time></trkpt><trkpt lat="43.385891716919666" lon="11.55063598181446"><ele>322.3333333333333</ele><time>2026-04-29T15:14:58Z</time></trkpt><trkpt lat="43.38605949395781" lon="11.550644356209311"><ele>324.0</ele><time>2026-04-29T15:14:59Z</time></trkpt><trkpt lat="43.386244687413395" lon="11.550650626169245"><ele>325.0</ele><time>2026-04-29T15:15:00.001Z</time></trkpt><trkpt lat="43.38643114731689" lon="11.550655786749031"><ele>326.0</ele><time>2026-04-29T15:15:01.001Z</time></trkpt><trkpt lat="43.38661960760777" lon="11.550661850581273"><ele>327.0</ele><time>2026-04-29T15:15:02.001Z</time></trkpt><trkpt lat="43.38680760807682" lon="11.55066558883374"><ele>327.0</ele><time>2026-04-29T15:15:03.001Z</time></trkpt><trkpt lat="43.38699856949732" lon="11.550661705613727"><ele>327.0</ele><time>2026-04-29T15:15:04.001Z</time></trkpt><trkpt lat="43.387191845835154" lon="11.550656684310031"><ele>327.0</ele><time>2026-04-29T15:15:05.001Z</time></trkpt><trkpt lat="43.387389250241725" lon="11.550651083555215"><ele>326.6666666666667</ele><time>2026-04-29T15:15:06.001Z</time></trkpt><trkpt lat="43.38758877197544" lon="11.550648324277057"><ele>326.33333333333337</ele><time>2026-04-29T15:15:07.001Z</time></trkpt><trkpt lat="43.387771251103494" lon="11.55064315596743"><ele>326.0</ele><time>2026-04-29T15:15:08.001Z</time></trkpt><trkpt lat="43.38794279284937" lon="11.550613511528498"><ele>326.6666666666667</ele><time>2026-04-29T15:15:09.001Z</time></trkpt><trkpt lat="43.38812359092269" lon="11.550542223202095"><ele>327.3333333333333</ele><time>2026-04-29T15:15:10.001Z</time></trkpt><trkpt lat="43.388301417763316" lon="11.550458912555941"><ele>328.0</ele><time>2026-04-29T15:15:11Z</time></trkpt><trkpt lat="43.38847428598092" lon="11.550369101703154"><ele>328.0</ele><time>2026-04-29T15:15:12Z</time></trkpt><trkpt lat="43.38862531257113" lon="11.550300879019483"><ele>328.0</ele><time>2026-04-29T15:15:13Z</time></trkpt><trkpt lat="43.38876975933228" lon="11.550258844823821"><ele>328.0</ele><time>2026-04-29T15:15:14Z</time></trkpt><trkpt lat="43.38892738127996" lon="11.550248265709975"><ele>328.0</ele><time>2026-04-29T15:15:15Z</time></trkpt><trkpt lat="43.389101647921834" lon="11.550260885275518"><ele>328.0</ele><time>2026-04-29T15:15:16Z</time></trkpt><trkpt lat="43.38928444628576" lon="11.55028238063753"><ele>328.0</ele><time>2026-04-29T15:15:17Z</time></trkpt><trkpt lat="43.389458313620864" lon="11.550276900312888"><ele>328.0</ele><time>2026-04-29T15:15:18Z</time></trkpt><trkpt lat="43.38962011406115" lon="11.550293593886357"><ele>328.0</ele><time>2026-04-29T15:15:19Z</time></trkpt><trkpt lat="43.38978778865455" lon="11.55028665331903"><ele>328.0</ele><time>2026-04-29T15:15:20Z</time></trkpt><trkpt lat="43.389958558069566" lon="11.550278751014705"><ele>329.66666666666663</ele><time>2026-04-29T15:15:21Z</time></trkpt><trkpt lat="43.39013226118132" lon="11.550268567655891"><ele>331.3333333333333</ele><time>2026-04-29T15:15:22Z</time></trkpt><trkpt lat="43.390309808787734" lon="11.550255952380564"><ele>333.0</ele><time>2026-04-29T15:15:23Z</time></trkpt><trkpt lat="43.39049453632421" lon="11.55024543385612"><ele>334.6666666666667</ele><time>2026-04-29T15:15:24Z</time></trkpt><trkpt lat="43.390676113971665" lon="11.550236898463343"><ele>336.33333333333337</ele><time>2026-04-29T15:15:25Z</time></trkpt><trkpt lat="43.390864359172994" lon="11.550228400667402"><ele>338.0</ele><time>2026-04-29T15:15:26Z</time></trkpt><trkpt lat="43.39105718482497" lon="11.550214610626252"><ele>338.0</ele><time>2026-04-29T15:15:27Z</time></trkpt><trkpt lat="43.391253824516994" lon="11.550194299098056"><ele>338.0</ele><time>2026-04-29T15:15:28Z</time></trkpt><trkpt lat="43.39144194687352" lon="11.550174821638084"><ele>338.0</ele><time>2026-04-29T15:15:29Z</time></trkpt><trkpt lat="43.39160609466442" lon="11.550197122675442"><ele>339.33333333333337</ele><time>2026-04-29T15:15:30Z</time></trkpt><trkpt lat="43.39175800914285" lon="11.55025520954216"><ele>340.6666666666667</ele><time>2026-04-29T15:15:31Z</time></trkpt><trkpt lat="43.39192044919134" lon="11.550322122107449"><ele>342.0</ele><time>2026-04-29T15:15:32Z</time></trkpt><trkpt lat="43.39208971154237" lon="11.55039188785146"><ele>344.3333333333333</ele><time>2026-04-29T15:15:33Z</time></trkpt><trkpt lat="43.39227057503455" lon="11.550444669041775"><ele>346.66666666666663</ele><time>2026-04-29T15:15:34Z</time></trkpt><trkpt lat="43.392451976090214" lon="11.550516515902816"><ele>349.0</ele><time>2026-04-29T15:15:35Z</time></trkpt><trkpt lat="43.392610715114856" lon="11.550575888047916"><ele>349.0</ele><time>2026-04-29T15:15:36Z</time></trkpt><trkpt lat="43.39275806219264" lon="11.550596634682577"><ele>349.0</ele><time>2026-04-29T15:15:37Z</time></trkpt><trkpt lat="43.39290525607958" lon="11.550577822397154"><ele>349.0</ele><time>2026-04-29T15:15:38Z</time></trkpt><trkpt lat="43.39304109242105" lon="11.550528020816724"><ele>349.0</ele><time>2026-04-29T15:15:39Z</time></trkpt><trkpt lat="43.393186177000544" lon="11.55044269406428"><ele>350.66666666666663</ele><time>2026-04-29T15:15:40Z</time></trkpt><trkpt lat="43.39334698195294" lon="11.55038796167509"><ele>352.3333333333333</ele><time>2026-04-29T15:15:41Z</time></trkpt><trkpt lat="43.39352568976098" lon="11.550387811782178"><ele>354.0</ele><time>2026-04-29T15:15:42Z</time></trkpt><trkpt lat="43.39371308963578" lon="11.550386432842203"><ele>355.0</ele><time>2026-04-29T15:15:43Z</time></trkpt><trkpt lat="43.393901319350675" lon="11.550391952460869"><ele>356.0</ele><time>2026-04-29T15:15:44Z</time></trkpt><trkpt lat="43.39409029054929" lon="11.550380615209917"><ele>357.0</ele><time>2026-04-29T15:15:45Z</time></trkpt><trkpt lat="43.39427388848611" lon="11.550375959644244"><ele>358.3333333333333</ele><time>2026-04-29T15:15:46Z</time></trkpt><trkpt lat="43.39445701182363" lon="11.550348714787896"><ele>359.66666666666663</ele><time>2026-04-29T15:15:47Z</time></trkpt><trkpt lat="43.39463801020639" lon="11.550304275056735"><ele>361.0</ele><time>2026-04-29T15:15:48Z</time></trkpt><trkpt lat="43.3948189486138" lon="11.550251687047684"><ele>363.3333333333333</ele><time>2026-04-29T15:15:49Z</time></trkpt><trkpt lat="43.39498295156583" lon="11.55020937493743"><ele>365.6666666666667</ele><time>2026-04-29T15:15:50Z</time></trkpt><trkpt lat="43.39512417903247" lon="11.5501533253413"><ele>368.0</ele><time>2026-04-29T15:15:51Z</time></trkpt><trkpt lat="43.395260617976845" lon="11.55005725231277"><ele>368.0</ele><time>2026-04-29T15:15:52Z</time></trkpt><trkpt lat="43.39539155482052" lon="11.549934931604037"><ele>368.0</ele><time>2026-04-29T15:15:53Z</time></trkpt><trkpt lat="43.39552632354935" lon="11.549816577996676"><ele>368.0</ele><time>2026-04-29T15:15:54Z</time></trkpt><trkpt lat="43.395655621636195" lon="11.549744965166566"><ele>370.0</ele><time>2026-04-29T15:15:55Z</time></trkpt><trkpt lat="43.39579681621655" lon="11.549742800381306"><ele>372.0</ele><time>2026-04-29T15:15:56Z</time></trkpt><trkpt lat="43.395937054538635" lon="11.549717290804544"><ele>374.0</ele><time>2026-04-29T15:15:57Z</time></trkpt><trkpt lat="43.396071010670866" lon="11.54968117213281"><ele>376.0</ele><time>2026-04-29T15:15:58Z</time></trkpt><trkpt lat="43.39619034173992" lon="11.549594209310198"><ele>374.66666666666663</ele><time>2026-04-29T15:15:59Z</time></trkpt><trkpt lat="43.396317220561485" lon="11.549484365868155"><ele>373.3333333333333</ele><time>2026-04-29T15:16:00Z</time></trkpt><trkpt lat="43.396450149956664" lon="11.549351450426082"><ele>372.0</ele><time>2026-04-29T15:16:01Z</time></trkpt><trkpt lat="43.396594276421645" lon="11.54920744939837"><ele>374.6666666666667</ele><time>2026-04-29T15:16:02Z</time></trkpt><trkpt lat="43.39675304455454" lon="11.549048845447956"><ele>377.33333333333337</ele><time>2026-04-29T15:16:03Z</time></trkpt><trkpt lat="43.39691544119528" lon="11.548888767860081"><ele>380.0</ele><time>2026-04-29T15:16:04Z</time></trkpt><trkpt lat="43.397077605525574" lon="11.548726959743032"><ele>382.33333333333337</ele><time>2026-04-29T15:16:05Z</time></trkpt><trkpt lat="43.39723992487979" lon="11.548560960494598"><ele>384.6666666666667</ele><time>2026-04-29T15:16:06Z</time></trkpt><trkpt lat="43.39739157155612" lon="11.548390768265241"><ele>387.0</ele><time>2026-04-29T15:16:07Z</time></trkpt><trkpt lat="43.39753060404703" lon="11.54822096648835"><ele>387.0</ele><time>2026-04-29T15:16:08Z</time></trkpt><trkpt lat="43.39764518159284" lon="11.548073846001975"><ele>387.0</ele><time>2026-04-29T15:16:09Z</time></trkpt><trkpt lat="43.397734827189446" lon="11.54794536064132"><ele>387.0</ele><time>2026-04-29T15:16:10Z</time></trkpt><trkpt lat="43.39779973186987" lon="11.547804512065289"><ele>387.0</ele><time>2026-04-29T15:16:11Z</time></trkpt><trkpt lat="43.397845975263834" lon="11.547635643386837"><ele>388.0</ele><time>2026-04-29T15:16:12Z</time></trkpt><trkpt lat="43.39788010992855" lon="11.547460012110395"><ele>389.0</ele><time>2026-04-29T15:16:13Z</time></trkpt><trkpt lat="43.3978985548129" lon="11.547290263934357"><ele>390.0</ele><time>2026-04-29T15:16:14Z</time></trkpt><trkpt lat="43.397880488975744" lon="11.547129009161237"><ele>391.0</ele><time>2026-04-29T15:16:15Z</time></trkpt><trkpt lat="43.39782351792921" lon="11.546973134811314"><ele>394.25</ele><time>2026-04-29T15:16:16Z</time></trkpt><trkpt lat="43.39774742611051" lon="11.54681365617837"><ele>397.5</ele><time>2026-04-29T15:16:17Z</time></trkpt><trkpt lat="43.3976634811339" lon="11.546643706639491"><ele>400.75</ele><time>2026-04-29T15:16:18Z</time></trkpt><trkpt lat="43.39757743891283" lon="11.546467997590984"><ele>404.0</ele><time>2026-04-29T15:16:19Z</time></trkpt><trkpt lat="43.39748863794981" lon="11.54628493494629"><ele>405.3333333333333</ele><time>2026-04-29T15:16:20Z</time></trkpt><trkpt lat="43.39739122452019" lon="11.546112280197695"><ele>406.66666666666663</ele><time>2026-04-29T15:16:21Z</time></trkpt><trkpt lat="43.39727925501182" lon="11.545957053686738"><ele>408.0</ele><time>2026-04-29T15:16:22Z</time></trkpt><trkpt lat="43.397154355042375" lon="11.545806361041741"><ele>408.0</ele><time>2026-04-29T15:16:23Z</time></trkpt><trkpt lat="43.39702502228376" lon="11.545638967450529"><ele>408.0</ele><time>2026-04-29T15:16:24Z</time></trkpt><trkpt lat="43.39688795909434" lon="11.545466095403583"><ele>408.0</ele><time>2026-04-29T15:16:25Z</time></trkpt><trkpt lat="43.396739131267935" lon="11.545310622321226"><ele>407.75</ele><time>2026-04-29T15:16:26Z</time></trkpt><trkpt lat="43.39659859801433" lon="11.545180312874452"><ele>407.5</ele><time>2026-04-29T15:16:27Z</time></trkpt><trkpt lat="43.3964813940754" lon="11.545074169127835"><ele>407.25</ele><time>2026-04-29T15:16:28Z</time></trkpt><trkpt lat="43.39638707382614" lon="11.54494565211532"><ele>407.0</ele><time>2026-04-29T15:16:29Z</time></trkpt><trkpt lat="43.3963090614067" lon="11.544779745074523"><ele>407.0</ele><time>2026-04-29T15:16:30Z</time></trkpt><trkpt lat="43.39626136536834" lon="11.54458964584068"><ele>407.0</ele><time>2026-04-29T15:16:31Z</time></trkpt><trkpt lat="43.39628606840767" lon="11.54440550732784"><ele>407.0</ele><time>2026-04-29T15:16:32Z</time></trkpt><trkpt lat="43.39631461680216" lon="11.54430805842581"><ele>407.0</ele><time>2026-04-29T15:16:33Z</time></trkpt><trkpt lat="43.39627262744955" lon="11.544197979599359"><ele>407.0</ele><time>2026-04-29T15:16:35Z</time></trkpt><trkpt lat="43.39625750962285" lon="11.544104897854412"><ele>408.8</ele><time>2026-04-29T15:16:37Z</time></trkpt><trkpt lat="43.39633077893467" lon="11.544184145265163"><ele>410.6</ele><time>2026-04-29T15:16:40Z</time></trkpt><trkpt lat="43.3964140280005" lon="11.544258614399618"><ele>412.40000000000003</ele><time>2026-04-29T15:16:41Z</time></trkpt><trkpt lat="43.39649350838168" lon="11.544344610276697"><ele>414.20000000000005</ele><time>2026-04-29T15:16:42Z</time></trkpt><trkpt lat="43.39662585137611" lon="11.544375961033023"><ele>416.0</ele><time>2026-04-29T15:16:43Z</time></trkpt><trkpt lat="43.396743220295114" lon="11.544465176190412"><ele>417.66666666666663</ele><time>2026-04-29T15:16:44Z</time></trkpt><trkpt lat="43.396861894992284" lon="11.54457753339728"><ele>419.33333333333337</ele><time>2026-04-29T15:16:45Z</time></trkpt><trkpt lat="43.3969968821863" lon="11.544679674806586"><ele>421.0</ele><time>2026-04-29T15:16:46Z</time></trkpt><trkpt lat="43.397146979713284" lon="11.544764080719192"><ele>423.0</ele><time>2026-04-29T15:16:47Z</time></trkpt><trkpt lat="43.39728782333991" lon="11.544890193957803"><ele>425.0</ele><time>2026-04-29T15:16:48Z</time></trkpt><trkpt lat="43.397449747180914" lon="11.54497887218001"><ele>427.0</ele><time>2026-04-29T15:16:49Z</time></trkpt><trkpt lat="43.397603937035036" lon="11.545093237654937"><ele>427.0</ele><time>2026-04-29T15:16:50Z</time></trkpt><trkpt lat="43.39776468706338" lon="11.545211979813592"><ele>427.0</ele><time>2026-04-29T15:16:51Z</time></trkpt><trkpt lat="43.39792216957114" lon="11.545325136743879"><ele>427.0</ele><time>2026-04-29T15:16:52Z</time></trkpt><trkpt lat="43.39807648925029" lon="11.545435813385684"><ele>428.75</ele><time>2026-04-29T15:16:53Z</time></trkpt><trkpt lat="43.39822609698772" lon="11.545539080360953"><ele>430.5</ele><time>2026-04-29T15:16:54Z</time></trkpt><trkpt lat="43.39835450730102" lon="11.545630427956045"><ele>432.25</ele><time>2026-04-29T15:16:55Z</time></trkpt><trkpt lat="43.39847658762776" lon="11.545692607969498"><ele>434.0</ele><time>2026-04-29T15:16:56Z</time></trkpt><trkpt lat="43.398602948318505" lon="11.545717262536822"><ele>434.0</ele><time>2026-04-29T15:16:57Z</time></trkpt><trkpt lat="43.398740717994414" lon="11.545713317684394"><ele>434.0</ele><time>2026-04-29T15:16:58Z</time></trkpt><trkpt lat="43.39889875281292" lon="11.545691602433292"><ele>434.0</ele><time>2026-04-29T15:16:59Z</time></trkpt><trkpt lat="43.399060850478826" lon="11.545682518305219"><ele>435.66666666666663</ele><time>2026-04-29T15:17:00Z</time></trkpt><trkpt lat="43.39923604534876" lon="11.54568636027932"><ele>437.33333333333337</ele><time>2026-04-29T15:17:01Z</time></trkpt><trkpt lat="43.3994144419261" lon="11.54570662259697"><ele>439.0</ele><time>2026-04-29T15:17:02Z</time></trkpt><trkpt lat="43.39960145078731" lon="11.545745597997781"><ele>440.33333333333337</ele><time>2026-04-29T15:17:03Z</time></trkpt><trkpt lat="43.39979294756174" lon="11.545787099569877"><ele>441.66666666666663</ele><time>2026-04-29T15:17:04Z</time></trkpt><trkpt lat="43.39998989870995" lon="11.54582485045112"><ele>443.0</ele><time>2026-04-29T15:17:05Z</time></trkpt><trkpt lat="43.40017973373676" lon="11.545854445653427"><ele>443.0</ele><time>2026-04-29T15:17:06Z</time></trkpt><trkpt lat="43.40035159204134" lon="11.545870710250549"><ele>443.0</ele><time>2026-04-29T15:17:07Z</time></trkpt><trkpt lat="43.40052339911146" lon="11.545855008408791"><ele>443.0</ele><time>2026-04-29T15:17:08Z</time></trkpt><trkpt lat="43.400693361732166" lon="11.545810829148296"><ele>442.66666666666663</ele><time>2026-04-29T15:17:09Z</time></trkpt><trkpt lat="43.40085189851924" lon="11.545757982976108"><ele>442.33333333333337</ele><time>2026-04-29T15:17:10Z</time></trkpt><trkpt lat="43.401000140545484" lon="11.545768700942679"><ele>442.0</ele><time>2026-04-29T15:17:11Z</time></trkpt><trkpt lat="43.4011384807072" lon="11.54581895994282"><ele>442.0</ele><time>2026-04-29T15:17:12Z</time></trkpt><trkpt lat="43.401285618825355" lon="11.545913063605157"><ele>442.0</ele><time>2026-04-29T15:17:13Z</time></trkpt><trkpt lat="43.4014381561029" lon="11.546024825517803"><ele>442.0</ele><time>2026-04-29T15:17:14Z</time></trkpt><trkpt lat="43.40158542428973" lon="11.546139251898344"><ele>442.5</ele><time>2026-04-29T15:17:15Z</time></trkpt><trkpt lat="43.40171432239504" lon="11.546212597516094"><ele>443.0</ele><time>2026-04-29T15:17:16Z</time></trkpt><trkpt lat="43.401830530657165" lon="11.546263195361819"><ele>443.5</ele><time>2026-04-29T15:17:16.999Z</time></trkpt><trkpt lat="43.40195566287799" lon="11.546254256671997"><ele>444.0</ele><time>2026-04-29T15:17:17.999Z</time></trkpt><trkpt lat="43.40209921931553" lon="11.54618593049449"><ele>448.66666666666663</ele><time>2026-04-29T15:17:18.999Z</time></trkpt><trkpt lat="43.40225387700062" lon="11.546094442234823"><ele>453.3333333333333</ele><time>2026-04-29T15:17:19.999Z</time></trkpt><trkpt lat="43.40241421714131" lon="11.545995158552296"><ele>458.0</ele><time>2026-04-29T15:17:20.999Z</time></trkpt><trkpt lat="43.4025906943061" lon="11.54594340324842"><ele>458.0</ele><time>2026-04-29T15:17:21.999Z</time></trkpt><trkpt lat="43.40278077417744" lon="11.545876634192938"><ele>458.0</ele><time>2026-04-29T15:17:22.999Z</time></trkpt><trkpt lat="43.40296243395189" lon="11.545774055067348"><ele>458.0</ele><time>2026-04-29T15:17:23.999Z</time></trkpt><trkpt lat="43.40315365666063" lon="11.545682861088107"><ele>461.0</ele><time>2026-04-29T15:17:24.999Z</time></trkpt><trkpt lat="43.403335104769425" lon="11.545580951193564"><ele>464.0</ele><time>2026-04-29T15:17:25.999Z</time></trkpt><trkpt lat="43.40349593649687" lon="11.545494461994224"><ele>467.0</ele><time>2026-04-29T15:17:26.999Z</time></trkpt><trkpt lat="43.403632091613936" lon="11.54542099855435"><ele>466.25</ele><time>2026-04-29T15:17:27.999Z</time></trkpt><trkpt lat="43.40375194681864" lon="11.545349549356512"><ele>465.5</ele><time>2026-04-29T15:17:28.999Z</time></trkpt><trkpt lat="43.40385917423967" lon="11.54529024749539"><ele>464.75</ele><time>2026-04-29T15:17:29.999Z</time></trkpt><trkpt lat="43.40395091499397" lon="11.545216679491828"><ele>464.0</ele><time>2026-04-29T15:17:30.999Z</time></trkpt><trkpt lat="43.40402746174715" lon="11.545120040439194"><ele>468.5</ele><time>2026-04-29T15:17:31.999Z</time></trkpt><trkpt lat="43.404083519789324" lon="11.54496603525086"><ele>473.0</ele><time>2026-04-29T15:17:32.999Z</time></trkpt><trkpt lat="43.40413612162289" lon="11.544785942845557"><ele>477.5</ele><time>2026-04-29T15:17:33.999Z</time></trkpt><trkpt lat="43.40419065173334" lon="11.544588436579073"><ele>482.0</ele><time>2026-04-29T15:17:34.999Z</time></trkpt><trkpt lat="43.40424928031357" lon="11.544381943939129"><ele>483.0</ele><time>2026-04-29T15:17:35.999Z</time></trkpt><trkpt lat="43.404305233086845" lon="11.544198096245108"><ele>484.0</ele><time>2026-04-29T15:17:36.999Z</time></trkpt><trkpt lat="43.40434635145476" lon="11.544052387228183"><ele>485.0</ele><time>2026-04-29T15:17:37.999Z</time></trkpt><trkpt lat="43.404369240538465" lon="11.543949666221014"><ele>486.0</ele><time>2026-04-29T15:17:38.999Z</time></trkpt><trkpt lat="43.40427617000097" lon="11.543823833482358"><ele>486.0</ele><time>2026-04-29T15:17:41.999Z</time></trkpt><trkpt lat="43.40421544275903" lon="11.543790625693061"><ele>486.0</ele><time>2026-04-29T15:17:42.999Z</time></trkpt><trkpt lat="43.4041358505989" lon="11.54374139074434"><ele>486.0</ele><time>2026-04-29T15:17:43.999Z</time></trkpt><trkpt lat="43.40406265614064" lon="11.543685697217182"><ele>486.0</ele><time>2026-04-29T15:17:45Z</time></trkpt><trkpt lat="43.40398514403033" lon="11.543624498667524"><ele>486.0</ele><time>2026-04-29T15:17:46Z</time></trkpt><trkpt lat="43.403907979167556" lon="11.543568205974056"><ele>486.0</ele><time>2026-04-29T15:17:47Z</time></trkpt><trkpt lat="43.403828451926586" lon="11.543505844158243"><ele>482.0</ele><time>2026-04-29T15:17:48Z</time></trkpt><trkpt lat="43.403747173837864" lon="11.543442311636516"><ele>478.0</ele><time>2026-04-29T15:17:49Z</time></trkpt><trkpt lat="43.403666593087706" lon="11.543378569273743"><ele>474.0</ele><time>2026-04-29T15:17:50Z</time></trkpt><trkpt lat="43.40359669504891" lon="11.54328483097306"><ele>470.0</ele><time>2026-04-29T15:17:51Z</time></trkpt><trkpt lat="43.40353066099833" lon="11.54319199391193"><ele>466.0</ele><time>2026-04-29T15:17:52Z</time></trkpt><trkpt lat="43.40345266098898" lon="11.543103536825194"><ele>466.0</ele><time>2026-04-29T15:17:53Z</time></trkpt><trkpt lat="43.40338166398745" lon="11.542995002716184"><ele>466.0</ele><time>2026-04-29T15:17:54Z</time></trkpt><trkpt lat="43.40330582755951" lon="11.542889983902636"><ele>466.0</ele><time>2026-04-29T15:17:55Z</time></trkpt><trkpt lat="43.40322241487559" lon="11.542783566291307"><ele>466.0</ele><time>2026-04-29T15:17:56Z</time></trkpt><trkpt lat="43.40313173822183" lon="11.542676673971437"><ele>466.0</ele><time>2026-04-29T15:17:57Z</time></trkpt><trkpt lat="43.40304491248738" lon="11.542568498288059"><ele>464.5</ele><time>2026-04-29T15:17:58Z</time></trkpt><trkpt lat="43.40295049888036" lon="11.54245830665835"><ele>463.0</ele><time>2026-04-29T15:17:59Z</time></trkpt><trkpt lat="43.40285680819491" lon="11.542353174883692"><ele>461.5</ele><time>2026-04-29T15:18:00Z</time></trkpt><trkpt lat="43.40276675741649" lon="11.542248178397223"><ele>460.0</ele><time>2026-04-29T15:18:01Z</time></trkpt><trkpt lat="43.40267501816396" lon="11.542145072115918"><ele>461.2</ele><time>2026-04-29T15:18:02Z</time></trkpt><trkpt lat="43.40258929025379" lon="11.542041039806072"><ele>462.4</ele><time>2026-04-29T15:18:03Z</time></trkpt><trkpt lat="43.402513106889515" lon="11.541947610825899"><ele>463.6</ele><time>2026-04-29T15:18:04Z</time></trkpt><trkpt lat="43.402438606478064" lon="11.54186046812851"><ele>464.8</ele><time>2026-04-29T15:18:05Z</time></trkpt><trkpt lat="43.40235217416169" lon="11.541757349820102"><ele>466.0</ele><time>2026-04-29T15:18:06Z</time></trkpt><trkpt lat="43.4022661566977" lon="11.541656130592191"><ele>466.0</ele><time>2026-04-29T15:18:07Z</time></trkpt><trkpt lat="43.4021835296473" lon="11.541557646121174"><ele>466.0</ele><time>2026-04-29T15:18:08Z</time></trkpt><trkpt lat="43.40210936180695" lon="11.541468892497313"><ele>466.0</ele><time>2026-04-29T15:18:09Z</time></trkpt><trkpt lat="43.402041855727255" lon="11.541383855111803"><ele>466.0</ele><time>2026-04-29T15:18:10Z</time></trkpt><trkpt lat="43.4019765867248" lon="11.541306235991787"><ele>466.0</ele><time>2026-04-29T15:18:11Z</time></trkpt><trkpt lat="43.40191407549101" lon="11.541233505888705"><ele>465.1666666666667</ele><time>2026-04-29T15:18:12Z</time></trkpt><trkpt lat="43.40185884603729" lon="11.541164122762993"><ele>464.33333333333337</ele><time>2026-04-29T15:18:13Z</time></trkpt><trkpt lat="43.401805842996936" lon="11.541102732413142"><ele>463.5</ele><time>2026-04-29T15:18:14Z</time></trkpt><trkpt lat="43.401713367496974" lon="11.54099416431334"><ele>462.66666666666663</ele><time>2026-04-29T15:18:16Z</time></trkpt><trkpt lat="43.401660032063624" lon="11.540933815741122"><ele>461.8333333333333</ele><time>2026-04-29T15:18:17Z</time></trkpt><trkpt lat="43.401574910134386" lon="11.540843499369293"><ele>461.0</ele><time>2026-04-29T15:18:19Z</time></trkpt><trkpt lat="43.40159650150552" lon="11.54074967586782"><ele>461.0</ele><time>2026-04-29T15:18:21Z</time></trkpt><trkpt lat="43.40163130078694" lon="11.540660240877527"><ele>461.0</ele><time>2026-04-29T15:18:22Z</time></trkpt><trkpt lat="43.40169005240549" lon="11.540553132391986"><ele>461.0</ele><time>2026-04-29T15:18:23Z</time></trkpt><trkpt lat="43.401753774161925" lon="11.540447690720764"><ele>461.0</ele><time>2026-04-29T15:18:24Z</time></trkpt><trkpt lat="43.40181208777114" lon="11.540348854836925"><ele>461.0</ele><time>2026-04-29T15:18:25Z</time></trkpt><trkpt lat="43.401870185033204" lon="11.540252789557224"><ele>458.8333333333333</ele><time>2026-04-29T15:18:26Z</time></trkpt><trkpt lat="43.40192154843688" lon="11.540159388872688"><ele>456.66666666666663</ele><time>2026-04-29T15:18:27Z</time></trkpt><trkpt lat="43.401970256880304" lon="11.540062751032918"><ele>454.5</ele><time>2026-04-29T15:18:28Z</time></trkpt><trkpt lat="43.40201211706541" lon="11.539951518485001"><ele>452.33333333333337</ele><time>2026-04-29T15:18:29Z</time></trkpt><trkpt lat="43.40204761478492" lon="11.539842625656352"><ele>450.1666666666667</ele><time>2026-04-29T15:18:30Z</time></trkpt><trkpt lat="43.40207967824142" lon="11.539735290439731"><ele>448.0</ele><time>2026-04-29T15:18:31Z</time></trkpt><trkpt lat="43.40210122107524" lon="11.539633749294671"><ele>446.33333333333337</ele><time>2026-04-29T15:18:32Z</time></trkpt><trkpt lat="43.402103933102815" lon="11.539537618167586"><ele>444.6666666666667</ele><time>2026-04-29T15:18:33Z</time></trkpt><trkpt lat="43.40209007032002" lon="11.539443673825481"><ele>443.0</ele><time>2026-04-29T15:18:34Z</time></trkpt><trkpt lat="43.40205807252627" lon="11.53936441554272"><ele>441.33333333333337</ele><time>2026-04-29T15:18:35Z</time></trkpt><trkpt lat="43.40201728702994" lon="11.539280812668657"><ele>439.6666666666667</ele><time>2026-04-29T15:18:36Z</time></trkpt><trkpt lat="43.401967421011605" lon="11.539165099587184"><ele>438.0</ele><time>2026-04-29T15:18:37Z</time></trkpt><trkpt lat="43.40192297729991" lon="11.539010232172245"><ele>438.0</ele><time>2026-04-29T15:18:38Z</time></trkpt><trkpt lat="43.401896837519274" lon="11.538856000029504"><ele>437.99999999999994</ele><time>2026-04-29T15:18:39Z</time></trkpt><trkpt lat="43.4018739227669" lon="11.53871629908862"><ele>437.99999999999994</ele><time>2026-04-29T15:18:40Z</time></trkpt><trkpt lat="43.40183835770201" lon="11.538599699303564"><ele>438.0</ele><time>2026-04-29T15:18:41Z</time></trkpt><trkpt lat="43.401783387365086" lon="11.538500249424574"><ele>438.0</ele><time>2026-04-29T15:18:42Z</time></trkpt><trkpt lat="43.40171108196982" lon="11.538402346222325"><ele>437.5</ele><time>2026-04-29T15:18:43Z</time></trkpt><trkpt lat="43.40162459701066" lon="11.538295534810299"><ele>437.0</ele><time>2026-04-29T15:18:44Z</time></trkpt><trkpt lat="43.40154903631765" lon="11.53818076319738"><ele>436.5</ele><time>2026-04-29T15:18:45Z</time></trkpt><trkpt lat="43.40148267351816" lon="11.538058907713841"><ele>436.0</ele><time>2026-04-29T15:18:46Z</time></trkpt><trkpt lat="43.401425711241075" lon="11.537920968714543"><ele>435.6</ele><time>2026-04-29T15:18:47Z</time></trkpt><trkpt lat="43.401373387272926" lon="11.537794267343319"><ele>435.20000000000005</ele><time>2026-04-29T15:18:48Z</time></trkpt><trkpt lat="43.401324698922814" lon="11.537671057949748"><ele>434.79999999999995</ele><time>2026-04-29T15:18:49Z</time></trkpt><trkpt lat="43.40128004191376" lon="11.537558532639247"><ele>434.4</ele><time>2026-04-29T15:18:50Z</time></trkpt><trkpt lat="43.401249913277184" lon="11.53745227289025"><ele>434.0</ele><time>2026-04-29T15:18:51Z</time></trkpt><trkpt lat="43.401202283525" lon="11.537384790400626"><ele>432.3333333333333</ele><time>2026-04-29T15:18:52Z</time></trkpt><trkpt lat="43.40116773809074" lon="11.53730399261178"><ele>430.66666666666663</ele><time>2026-04-29T15:18:53Z</time></trkpt><trkpt lat="43.40107678131474" lon="11.537297500858067"><ele>429.0</ele><time>2026-04-29T15:18:54Z</time></trkpt><trkpt lat="43.40099678525663" lon="11.537281774418526"><ele>427.33333333333337</ele><time>2026-04-29T15:18:55Z</time></trkpt><trkpt lat="43.400906824879655" lon="11.537280165857657"><ele>425.6666666666667</ele><time>2026-04-29T15:18:56Z</time></trkpt><trkpt lat="43.400815089907404" lon="11.537265675417759"><ele>424.0</ele><time>2026-04-29T15:18:57Z</time></trkpt><trkpt lat="43.40074866944359" lon="11.537230597990451"><ele>424.0</ele><time>2026-04-29T15:18:58Z</time></trkpt><trkpt lat="43.40067419440935" lon="11.53708004743325"><ele>424.0</ele><time>2026-04-29T15:19:00Z</time></trkpt><trkpt lat="43.400656756907296" lon="11.53697471225468"><ele>424.0</ele><time>2026-04-29T15:19:01Z</time></trkpt><trkpt lat="43.400656890355464" lon="11.536853212305488"><ele>424.0</ele><time>2026-04-29T15:19:02Z</time></trkpt><trkpt lat="43.40065914982258" lon="11.53672507959124"><ele>424.0</ele><time>2026-04-29T15:19:03Z</time></trkpt><trkpt lat="43.400646481117874" lon="11.536598476031356"><ele>423.33333333333337</ele><time>2026-04-29T15:19:04Z</time></trkpt><trkpt lat="43.40061562019339" lon="11.536479832739765"><ele>422.6666666666667</ele><time>2026-04-29T15:19:05Z</time></trkpt><trkpt lat="43.400577565038276" lon="11.536368839230773"><ele>422.0</ele><time>2026-04-29T15:19:06Z</time></trkpt><trkpt lat="43.40053890862269" lon="11.536269841949842"><ele>421.33333333333337</ele><time>2026-04-29T15:19:07Z</time></trkpt><trkpt lat="43.40051891202625" lon="11.536186456216702"><ele>420.6666666666667</ele><time>2026-04-29T15:19:08Z</time></trkpt><trkpt lat="43.40056349415339" lon="11.536029595753224"><ele>420.0</ele><time>2026-04-29T15:19:10Z</time></trkpt><trkpt lat="43.40061507118916" lon="11.535975127360308"><ele>420.0</ele><time>2026-04-29T15:19:11Z</time></trkpt><trkpt lat="43.400734406316445" lon="11.536013158735988"><ele>420.0</ele><time>2026-04-29T15:19:13Z</time></trkpt><trkpt lat="43.4008019405304" lon="11.536053994097689"><ele>420.0</ele><time>2026-04-29T15:19:14Z</time></trkpt><trkpt lat="43.40088323808311" lon="11.536137314317967"><ele>420.0</ele><time>2026-04-29T15:19:15Z</time></trkpt><trkpt lat="43.400983590377315" lon="11.536190011551229"><ele>420.0</ele><time>2026-04-29T15:19:16Z</time></trkpt><trkpt lat="43.401070241552716" lon="11.53625874211473"><ele>420.0</ele><time>2026-04-29T15:19:17Z</time></trkpt><trkpt lat="43.4011482234486" lon="11.53631313953037"><ele>420.0</ele><time>2026-04-29T15:19:18Z</time></trkpt><trkpt lat="43.401231934447694" lon="11.536354768669776"><ele>420.0</ele><time>2026-04-29T15:19:19Z</time></trkpt><trkpt lat="43.401327100967826" lon="11.536394311730415"><ele>420.0</ele><time>2026-04-29T15:19:20Z</time></trkpt><trkpt lat="43.40142314180976" lon="11.536407895780615"><ele>420.0</ele><time>2026-04-29T15:19:21Z</time></trkpt><trkpt lat="43.401510435173805" lon="11.53640029309978"><ele>419.4</ele><time>2026-04-29T15:19:22Z</time></trkpt><trkpt lat="43.40159126729032" lon="11.536368069564473"><ele>418.8</ele><time>2026-04-29T15:19:22.999Z</time></trkpt><trkpt lat="43.40167362160423" lon="11.536313262443935"><ele>418.20000000000005</ele><time>2026-04-29T15:19:23.999Z</time></trkpt><trkpt lat="43.40175790499829" lon="11.53623841760864"><ele>417.6</ele><time>2026-04-29T15:19:24.999Z</time></trkpt><trkpt lat="43.40185135979289" lon="11.536166879076125"><ele>417.0</ele><time>2026-04-29T15:19:25.999Z</time></trkpt><trkpt lat="43.40193190715805" lon="11.536105700329292"><ele>414.3333333333333</ele><time>2026-04-29T15:19:26.999Z</time></trkpt><trkpt lat="43.401991117804954" lon="11.53604086227538"><ele>411.66666666666663</ele><time>2026-04-29T15:19:27.999Z</time></trkpt><trkpt lat="43.40203295019495" lon="11.535956547082362"><ele>409.0</ele><time>2026-04-29T15:19:28.999Z</time></trkpt><trkpt lat="43.40206491439779" lon="11.535841653282628"><ele>406.3333333333333</ele><time>2026-04-29T15:19:29.999Z</time></trkpt><trkpt lat="43.40209490191775" lon="11.53571183006451"><ele>403.66666666666663</ele><time>2026-04-29T15:19:30.999Z</time></trkpt><trkpt lat="43.402137211010974" lon="11.5356021193193"><ele>401.0</ele><time>2026-04-29T15:19:31.999Z</time></trkpt><trkpt lat="43.40219742162584" lon="11.535505440711187"><ele>401.0</ele><time>2026-04-29T15:19:32.999Z</time></trkpt><trkpt lat="43.402267639530876" lon="11.535425200378292"><ele>401.0</ele><time>2026-04-29T15:19:33.999Z</time></trkpt><trkpt lat="43.4023544185254" lon="11.535353646996308"><ele>401.0</ele><time>2026-04-29T15:19:34.999Z</time></trkpt><trkpt lat="43.40244535937524" lon="11.535274983938892"><ele>401.0</ele><time>2026-04-29T15:19:35.999Z</time></trkpt><trkpt lat="43.40253108891579" lon="11.535207514062517"><ele>401.0</ele><time>2026-04-29T15:19:36.999Z</time></trkpt><trkpt lat="43.402617447688876" lon="11.535163363269811"><ele>400.99999999999994</ele><time>2026-04-29T15:19:37.999Z</time></trkpt><trkpt lat="43.40270255617195" lon="11.53515238412572"><ele>401.0</ele><time>2026-04-29T15:19:38.999Z</time></trkpt><trkpt lat="43.40277958005307" lon="11.535178926516865"><ele>401.0</ele><time>2026-04-29T15:19:39.999Z</time></trkpt><trkpt lat="43.40283514500465" lon="11.53523381530955"><ele>401.0</ele><time>2026-04-29T15:19:40.999Z</time></trkpt><trkpt lat="43.40287605414745" lon="11.535337484976248"><ele>400.99999999999994</ele><time>2026-04-29T15:19:41.999Z</time></trkpt><trkpt lat="43.40292063203345" lon="11.53545882648512"><ele>401.0</ele><time>2026-04-29T15:19:42.999Z</time></trkpt><trkpt lat="43.402964949038335" lon="11.535580531531428"><ele>396.4</ele><time>2026-04-29T15:19:44Z</time></trkpt><trkpt lat="43.4030024920137" lon="11.535710781520207"><ele>391.8</ele><time>2026-04-29T15:19:45Z</time></trkpt><trkpt lat="43.40302286458698" lon="11.535841548886303"><ele>387.2</ele><time>2026-04-29T15:19:46Z</time></trkpt><trkpt lat="43.403059166786626" lon="11.535964816208235"><ele>382.59999999999997</ele><time>2026-04-29T15:19:47Z</time></trkpt><trkpt lat="43.40313517895719" lon="11.536074696654246"><ele>378.0</ele><time>2026-04-29T15:19:48Z</time></trkpt><trkpt lat="43.40321796396843" lon="11.536189641470568"><ele>381.0</ele><time>2026-04-29T15:19:49Z</time></trkpt><trkpt lat="43.403305368509336" lon="11.536322053549641"><ele>384.0</ele><time>2026-04-29T15:19:50Z</time></trkpt><trkpt lat="43.40338782668466" lon="11.536463769900378"><ele>387.0</ele><time>2026-04-29T15:19:51Z</time></trkpt><trkpt lat="43.403445130307105" lon="11.536606366313679"><ele>390.0</ele><time>2026-04-29T15:19:52Z</time></trkpt><trkpt lat="43.40348595794026" lon="11.53675700114598"><ele>390.0</ele><time>2026-04-29T15:19:53Z</time></trkpt><trkpt lat="43.403525151554966" lon="11.536909449054304"><ele>390.0</ele><time>2026-04-29T15:19:54Z</time></trkpt><trkpt lat="43.40356149127291" lon="11.53705032423787"><ele>390.0</ele><time>2026-04-29T15:19:55Z</time></trkpt><trkpt lat="43.40359737422024" lon="11.537175073988987"><ele>390.0</ele><time>2026-04-29T15:19:56Z</time></trkpt><trkpt lat="43.403635452041236" lon="11.537282902431812"><ele>390.0</ele><time>2026-04-29T15:19:57Z</time></trkpt><trkpt lat="43.403682220920054" lon="11.537365987598012"><ele>391.4</ele><time>2026-04-29T15:19:58Z</time></trkpt><trkpt lat="43.40378823760125" lon="11.537390715110037"><ele>392.8</ele><time>2026-04-29T15:20:00Z</time></trkpt><trkpt lat="43.403915538552965" lon="11.537330880406644"><ele>394.20000000000005</ele><time>2026-04-29T15:20:02Z</time></trkpt><trkpt lat="43.40400287457884" lon="11.537278180853972"><ele>395.6</ele><time>2026-04-29T15:20:03Z</time></trkpt><trkpt lat="43.40408424797049" lon="11.53720449746628"><ele>397.0</ele><time>2026-04-29T15:20:04Z</time></trkpt><trkpt lat="43.40416609797978" lon="11.53712071477776"><ele>392.50000000000006</ele><time>2026-04-29T15:20:05Z</time></trkpt><trkpt lat="43.404249531164155" lon="11.537034633220667"><ele>388.0</ele><time>2026-04-29T15:20:06Z</time></trkpt><trkpt lat="43.40432289788541" lon="11.536956813926992"><ele>383.5</ele><time>2026-04-29T15:20:07Z</time></trkpt><trkpt lat="43.40438681608391" lon="11.536880034501278"><ele>379.0</ele><time>2026-04-29T15:20:08Z</time></trkpt><trkpt lat="43.40443018197452" lon="11.536777366769916"><ele>374.5</ele><time>2026-04-29T15:20:09Z</time></trkpt><trkpt lat="43.40445421849094" lon="11.53667275614964"><ele>370.0</ele><time>2026-04-29T15:20:10Z</time></trkpt><trkpt lat="43.40445566607068" lon="11.53654962175376"><ele>370.0</ele><time>2026-04-29T15:20:11Z</time></trkpt><trkpt lat="43.404446678028265" lon="11.536399467035038"><ele>370.0</ele><time>2026-04-29T15:20:12Z</time></trkpt><trkpt lat="43.40442973364292" lon="11.536228994993014"><ele>370.0</ele><time>2026-04-29T15:20:13Z</time></trkpt><trkpt lat="43.40442415658927" lon="11.536060212442488"><ele>370.0</ele><time>2026-04-29T15:20:14Z</time></trkpt><trkpt lat="43.40443098642663" lon="11.535897628629234"><ele>368.6</ele><time>2026-04-29T15:20:15Z</time></trkpt><trkpt lat="43.40444764601915" lon="11.535745587394349"><ele>367.2</ele><time>2026-04-29T15:20:16Z</time></trkpt><trkpt lat="43.404465053512254" lon="11.535599804286777"><ele>365.79999999999995</ele><time>2026-04-29T15:20:17Z</time></trkpt><trkpt lat="43.40448105670468" lon="11.535473933442676"><ele>364.4</ele><time>2026-04-29T15:20:18Z</time></trkpt><trkpt lat="43.40449965452113" lon="11.535361935166002"><ele>363.0</ele><time>2026-04-29T15:20:19Z</time></trkpt><trkpt lat="43.4045243192588" lon="11.535257189874525"><ele>361.2</ele><time>2026-04-29T15:20:20Z</time></trkpt><trkpt lat="43.404567895276315" lon="11.535160513667881"><ele>359.4</ele><time>2026-04-29T15:20:21Z</time></trkpt><trkpt lat="43.40463739286297" lon="11.535069507443298"><ele>357.59999999999997</ele><time>2026-04-29T15:20:22Z</time></trkpt><trkpt lat="43.404716614182824" lon="11.534981752873167"><ele>355.79999999999995</ele><time>2026-04-29T15:20:23Z</time></trkpt><trkpt lat="43.4047867698331" lon="11.534900410462711"><ele>354.0</ele><time>2026-04-29T15:20:24Z</time></trkpt><trkpt lat="43.404848115912195" lon="11.53483207602087"><ele>353.79999999999995</ele><time>2026-04-29T15:20:25Z</time></trkpt><trkpt lat="43.404974767039484" lon="11.53479650433839"><ele>353.59999999999997</ele><time>2026-04-29T15:20:27Z</time></trkpt><trkpt lat="43.405059355733755" lon="11.534823418158275"><ele>353.4</ele><time>2026-04-29T15:20:28Z</time></trkpt><trkpt lat="43.40515746165957" lon="11.534864723371115"><ele>353.2</ele><time>2026-04-29T15:20:29Z</time></trkpt><trkpt lat="43.40527442858992" lon="11.534908342915593"><ele>353.0</ele><time>2026-04-29T15:20:30Z</time></trkpt><trkpt lat="43.405384329632476" lon="11.534940377491662"><ele>349.25</ele><time>2026-04-29T15:20:31Z</time></trkpt><trkpt lat="43.40549683519631" lon="11.534953362882025"><ele>345.5</ele><time>2026-04-29T15:20:32Z</time></trkpt><trkpt lat="43.4056090758706" lon="11.534945737342571"><ele>341.75</ele><time>2026-04-29T15:20:33Z</time></trkpt><trkpt lat="43.405730924803045" lon="11.534937717476367"><ele>338.0</ele><time>2026-04-29T15:20:34Z</time></trkpt><trkpt lat="43.40585149712567" lon="11.534976340483459"><ele>338.0</ele><time>2026-04-29T15:20:35Z</time></trkpt><trkpt lat="43.40596969736322" lon="11.534969257944654"><ele>338.0</ele><time>2026-04-29T15:20:36Z</time></trkpt><trkpt lat="43.40608770845434" lon="11.534973741003983"><ele>338.0</ele><time>2026-04-29T15:20:37Z</time></trkpt><trkpt lat="43.40621235960712" lon="11.534954184361423"><ele>338.0</ele><time>2026-04-29T15:20:38Z</time></trkpt><trkpt lat="43.406353368156594" lon="11.534928580631766"><ele>337.0</ele><time>2026-04-29T15:20:39Z</time></trkpt><trkpt lat="43.40650023586645" lon="11.534924861149403"><ele>336.0</ele><time>2026-04-29T15:20:40Z</time></trkpt><trkpt lat="43.406651847201175" lon="11.534890757187553"><ele>335.0</ele><time>2026-04-29T15:20:41Z</time></trkpt><trkpt lat="43.40680109547689" lon="11.534858735145416"><ele>335.0</ele><time>2026-04-29T15:20:42Z</time></trkpt><trkpt lat="43.406953131169445" lon="11.534801084851098"><ele>335.0</ele><time>2026-04-29T15:20:43Z</time></trkpt><trkpt lat="43.407108908532656" lon="11.534770945948265"><ele>335.0</ele><time>2026-04-29T15:20:44Z</time></trkpt><trkpt lat="43.407275768619996" lon="11.534741239968923"><ele>336.0</ele><time>2026-04-29T15:20:45Z</time></trkpt><trkpt lat="43.407445604376306" lon="11.534713451251111"><ele>337.0</ele><time>2026-04-29T15:20:46Z</time></trkpt><trkpt lat="43.40761280140183" lon="11.534691103074394"><ele>338.0</ele><time>2026-04-29T15:20:47Z</time></trkpt><trkpt lat="43.407765448021145" lon="11.534659400624077"><ele>338.0</ele><time>2026-04-29T15:20:48Z</time></trkpt><trkpt lat="43.40790533667911" lon="11.534604249440646"><ele>338.0</ele><time>2026-04-29T15:20:49Z</time></trkpt><trkpt lat="43.40802700679684" lon="11.534561239097565"><ele>338.0</ele><time>2026-04-29T15:20:50Z</time></trkpt><trkpt lat="43.40812251080608" lon="11.53451645199834"><ele>338.0</ele><time>2026-04-29T15:20:51Z</time></trkpt><trkpt lat="43.408191752600345" lon="11.534464278742929"><ele>336.0</ele><time>2026-04-29T15:20:52Z</time></trkpt><trkpt lat="43.408254325551766" lon="11.534416825552736"><ele>334.0</ele><time>2026-04-29T15:20:53Z</time></trkpt><trkpt lat="43.40827623532576" lon="11.534311118794777"><ele>332.0</ele><time>2026-04-29T15:20:54Z</time></trkpt><trkpt lat="43.4083060507231" lon="11.534210429079506"><ele>330.0</ele><time>2026-04-29T15:20:55Z</time></trkpt><trkpt lat="43.40834757747326" lon="11.53406675583073"><ele>328.0</ele><time>2026-04-29T15:20:56Z</time></trkpt><trkpt lat="43.40840504694653" lon="11.533893174076505"><ele>328.0</ele><time>2026-04-29T15:20:57Z</time></trkpt><trkpt lat="43.40848532496712" lon="11.533731403604671"><ele>328.0</ele><time>2026-04-29T15:20:58Z</time></trkpt><trkpt lat="43.40856020611622" lon="11.5336076076878"><ele>328.0</ele><time>2026-04-29T15:20:59Z</time></trkpt><trkpt lat="43.40862775286755" lon="11.5335089127203"><ele>328.0</ele><time>2026-04-29T15:21:00Z</time></trkpt><trkpt lat="43.40868755972889" lon="11.533428834909541"><ele>328.0</ele><time>2026-04-29T15:21:01Z</time></trkpt><trkpt lat="43.4087430049058" lon="11.533371878395856"><ele>329.0</ele><time>2026-04-29T15:21:02Z</time></trkpt><trkpt lat="43.40886474244257" lon="11.533354164985399"><ele>330.0</ele><time>2026-04-29T15:21:04Z</time></trkpt><trkpt lat="43.40892833046642" lon="11.533380250065814"><ele>331.0</ele><time>2026-04-29T15:21:05Z</time></trkpt><trkpt lat="43.40899042355135" lon="11.533444736918357"><ele>332.0</ele><time>2026-04-29T15:21:06Z</time></trkpt><trkpt lat="43.40908301704579" lon="11.53348269368109"><ele>333.0</ele><time>2026-04-29T15:21:07Z</time></trkpt><trkpt lat="43.409163717223265" lon="11.533561558024484"><ele>333.0</ele><time>2026-04-29T15:21:08Z</time></trkpt><trkpt lat="43.40925910136358" lon="11.533632827283487"><ele>333.0</ele><time>2026-04-29T15:21:09Z</time></trkpt><trkpt lat="43.40935572621721" lon="11.533687839218466"><ele>333.0</ele><time>2026-04-29T15:21:10Z</time></trkpt><trkpt lat="43.40944082050817" lon="11.5337573359802"><ele>333.0</ele><time>2026-04-29T15:21:11Z</time></trkpt><trkpt lat="43.40951729437356" lon="11.53378952391961"><ele>333.0</ele><time>2026-04-29T15:21:12Z</time></trkpt><trkpt lat="43.40960573262089" lon="11.533789666821052"><ele>332.79999999999995</ele><time>2026-04-29T15:21:13Z</time></trkpt><trkpt lat="43.40969109479238" lon="11.533764689314157"><ele>332.6</ele><time>2026-04-29T15:21:14Z</time></trkpt><trkpt lat="43.409759768344834" lon="11.533712952479975"><ele>332.4</ele><time>2026-04-29T15:21:15Z</time></trkpt><trkpt lat="43.40983692083636" lon="11.53364027046726"><ele>332.20000000000005</ele><time>2026-04-29T15:21:16Z</time></trkpt><trkpt lat="43.40994197779404" lon="11.533539928277762"><ele>332.0</ele><time>2026-04-29T15:21:17Z</time></trkpt><trkpt lat="43.410063635259704" lon="11.533462432850804"><ele>334.75</ele><time>2026-04-29T15:21:18Z</time></trkpt><trkpt lat="43.41018111266591" lon="11.533427136617249"><ele>337.5</ele><time>2026-04-29T15:21:19Z</time></trkpt><trkpt lat="43.41029248306069" lon="11.533424816566754"><ele>340.25</ele><time>2026-04-29T15:21:20Z</time></trkpt><trkpt lat="43.41040261802326" lon="11.533428156083016"><ele>343.0</ele><time>2026-04-29T15:21:21Z</time></trkpt><trkpt lat="43.410527325510486" lon="11.533439648558508"><ele>341.79999999999995</ele><time>2026-04-29T15:21:22Z</time></trkpt><trkpt lat="43.41064668923103" lon="11.533463808406719"><ele>340.6</ele><time>2026-04-29T15:21:23Z</time></trkpt><trkpt lat="43.410746805120006" lon="11.5335136811425"><ele>339.4</ele><time>2026-04-29T15:21:24Z</time></trkpt><trkpt lat="43.410831092183905" lon="11.53358387658952"><ele>338.20000000000005</ele><time>2026-04-29T15:21:25Z</time></trkpt><trkpt lat="43.41089390390024" lon="11.533691463597036"><ele>337.0</ele><time>2026-04-29T15:21:26Z</time></trkpt><trkpt lat="43.41097724175869" lon="11.53378135407707"><ele>337.0</ele><time>2026-04-29T15:21:27Z</time></trkpt><trkpt lat="43.41106368714508" lon="11.533910230033722"><ele>337.0</ele><time>2026-04-29T15:21:28Z</time></trkpt><trkpt lat="43.41115361396437" lon="11.534038838980887"><ele>337.0</ele><time>2026-04-29T15:21:28.999Z</time></trkpt><trkpt lat="43.41121049995969" lon="11.534182260172017"><ele>337.0</ele><time>2026-04-29T15:21:29.999Z</time></trkpt><trkpt lat="43.411259172774244" lon="11.534339341960958"><ele>337.0</ele><time>2026-04-29T15:21:30.999Z</time></trkpt><trkpt lat="43.411301342668025" lon="11.53450926135731"><ele>337.0</ele><time>2026-04-29T15:21:31.999Z</time></trkpt><trkpt lat="43.41136644266515" lon="11.534672984935137"><ele>337.0</ele><time>2026-04-29T15:21:32.999Z</time></trkpt><trkpt lat="43.411409803431425" lon="11.534827660188292"><ele>337.0</ele><time>2026-04-29T15:21:33.999Z</time></trkpt><trkpt lat="43.41146427034806" lon="11.534970792068325"><ele>337.75</ele><time>2026-04-29T15:21:34.999Z</time></trkpt><trkpt lat="43.41152836360055" lon="11.53510864984007"><ele>338.5</ele><time>2026-04-29T15:21:35.999Z</time></trkpt><trkpt lat="43.411602971599386" lon="11.535248251526175"><ele>339.25</ele><time>2026-04-29T15:21:36.999Z</time></trkpt><trkpt lat="43.41169072332712" lon="11.535392405237243"><ele>340.0</ele><time>2026-04-29T15:21:37.999Z</time></trkpt><trkpt lat="43.41177190103255" lon="11.535540379179489"><ele>340.0</ele><time>2026-04-29T15:21:38.999Z</time></trkpt><trkpt lat="43.41183876644507" lon="11.535672268790641"><ele>340.0</ele><time>2026-04-29T15:21:39.999Z</time></trkpt><trkpt lat="43.411883245037686" lon="11.535792456432496"><ele>340.0</ele><time>2026-04-29T15:21:40.999Z</time></trkpt><trkpt lat="43.41193370110638" lon="11.535893134474943"><ele>340.0</ele><time>2026-04-29T15:21:41.999Z</time></trkpt><trkpt lat="43.412044599788594" lon="11.53592579007688"><ele>340.0</ele><time>2026-04-29T15:21:42.999Z</time></trkpt><trkpt lat="43.41213023082859" lon="11.535975664285525"><ele>342.8</ele><time>2026-04-29T15:21:44Z</time></trkpt><trkpt lat="43.41221993874838" lon="11.536010712065655"><ele>345.6</ele><time>2026-04-29T15:21:45Z</time></trkpt><trkpt lat="43.41230648970734" lon="11.53603510073645"><ele>348.4</ele><time>2026-04-29T15:21:46Z</time></trkpt><trkpt lat="43.41242237643546" lon="11.536080016785078"><ele>351.2</ele><time>2026-04-29T15:21:47Z</time></trkpt><trkpt lat="43.41254491000054" lon="11.536140061762994"><ele>354.0</ele><time>2026-04-29T15:21:48Z</time></trkpt><trkpt lat="43.412667357367404" lon="11.53620745620825"><ele>353.0</ele><time>2026-04-29T15:21:49Z</time></trkpt><trkpt lat="43.41278201239232" lon="11.536290132936774"><ele>352.0</ele><time>2026-04-29T15:21:50Z</time></trkpt><trkpt lat="43.412884814928" lon="11.536361798768949"><ele>351.0</ele><time>2026-04-29T15:21:51Z</time></trkpt><trkpt lat="43.41297883612445" lon="11.536425748834267"><ele>350.0</ele><time>2026-04-29T15:21:52Z</time></trkpt><trkpt lat="43.41306092274262" lon="11.536460840215575"><ele>349.0</ele><time>2026-04-29T15:21:53Z</time></trkpt><trkpt lat="43.413143906370884" lon="11.53647554983369"><ele>349.0</ele><time>2026-04-29T15:21:54Z</time></trkpt><trkpt lat="43.413219000521266" lon="11.536490152644083"><ele>349.0</ele><time>2026-04-29T15:21:55Z</time></trkpt><trkpt lat="43.413295555610894" lon="11.536485568929088"><ele>349.0</ele><time>2026-04-29T15:21:56Z</time></trkpt><trkpt lat="43.413383528527035" lon="11.536469397206398"><ele>349.0</ele><time>2026-04-29T15:21:57Z</time></trkpt><trkpt lat="43.413487103486226" lon="11.536441255028222"><ele>349.0</ele><time>2026-04-29T15:21:58Z</time></trkpt><trkpt lat="43.413597856147156" lon="11.536413875949766"><ele>349.0</ele><time>2026-04-29T15:21:59Z</time></trkpt><trkpt lat="43.41371550237028" lon="11.536381796763669"><ele>349.0</ele><time>2026-04-29T15:22:00Z</time></trkpt><trkpt lat="43.41380981661098" lon="11.536342739399656"><ele>349.0</ele><time>2026-04-29T15:22:01Z</time></trkpt><trkpt lat="43.413892472982745" lon="11.536278748542763"><ele>349.0</ele><time>2026-04-29T15:22:02Z</time></trkpt><trkpt lat="43.41397302297556" lon="11.536189960893111"><ele>349.0</ele><time>2026-04-29T15:22:03Z</time></trkpt><trkpt lat="43.414058233841416" lon="11.536089401759698"><ele>354.4</ele><time>2026-04-29T15:22:04Z</time></trkpt><trkpt lat="43.4141464914197" lon="11.535990202402083"><ele>359.79999999999995</ele><time>2026-04-29T15:22:05Z</time></trkpt><trkpt lat="43.414220048096425" lon="11.53592311036469"><ele>365.20000000000005</ele><time>2026-04-29T15:22:06Z</time></trkpt><trkpt lat="43.41433877977044" lon="11.535925029190128"><ele>370.6</ele><time>2026-04-29T15:22:08Z</time></trkpt><trkpt lat="43.41439613483631" lon="11.535971895643307"><ele>376.0</ele><time>2026-04-29T15:22:09Z</time></trkpt><trkpt lat="43.414472241319906" lon="11.536001344952737"><ele>376.0</ele><time>2026-04-29T15:22:10Z</time></trkpt><trkpt lat="43.41453411240836" lon="11.535966092794583"><ele>376.0</ele><time>2026-04-29T15:22:11Z</time></trkpt><trkpt lat="43.41458021890648" lon="11.535900220673918"><ele>376.0</ele><time>2026-04-29T15:22:12Z</time></trkpt><trkpt lat="43.414616373373484" lon="11.535795639108711"><ele>376.0</ele><time>2026-04-29T15:22:13Z</time></trkpt><trkpt lat="43.41467870711378" lon="11.535652692952471"><ele>376.0</ele><time>2026-04-29T15:22:14Z</time></trkpt><trkpt lat="43.41475080841432" lon="11.535524403681904"><ele>377.4</ele><time>2026-04-29T15:22:15Z</time></trkpt><trkpt lat="43.4148260296747" lon="11.53542856194492"><ele>378.8</ele><time>2026-04-29T15:22:16Z</time></trkpt><trkpt lat="43.4148870331731" lon="11.535373221995041"><ele>380.2</ele><time>2026-04-29T15:22:17Z</time></trkpt><trkpt lat="43.41499030619514" lon="11.535400917828783"><ele>381.59999999999997</ele><time>2026-04-29T15:22:19Z</time></trkpt><trkpt lat="43.41500779868743" lon="11.53554944760286"><ele>383.0</ele><time>2026-04-29T15:22:21Z</time></trkpt><trkpt lat="43.41499770039583" lon="11.535646700221083"><ele>383.0</ele><time>2026-04-29T15:22:22Z</time></trkpt><trkpt lat="43.414981860189386" lon="11.535774371922685"><ele>383.0</ele><time>2026-04-29T15:22:23Z</time></trkpt><trkpt lat="43.41496314443658" lon="11.535936325540757"><ele>383.0</ele><time>2026-04-29T15:22:24Z</time></trkpt><trkpt lat="43.4149534099568" lon="11.536084612544142"><ele>383.0</ele><time>2026-04-29T15:22:25Z</time></trkpt><trkpt lat="43.41496180950144" lon="11.536200805704361"><ele>383.0</ele><time>2026-04-29T15:22:26Z</time></trkpt><trkpt lat="43.41498378533213" lon="11.53629772585654"><ele>383.0</ele><time>2026-04-29T15:22:27Z</time></trkpt><trkpt lat="43.415031486870426" lon="11.53635791598953"><ele>383.0</ele><time>2026-04-29T15:22:28Z</time></trkpt><trkpt lat="43.41509397828176" lon="11.536400073383977"><ele>383.0</ele><time>2026-04-29T15:22:29Z</time></trkpt><trkpt lat="43.41515897344594" lon="11.536415184614919"><ele>383.0</ele><time>2026-04-29T15:22:30Z</time></trkpt><trkpt lat="43.415287346392915" lon="11.536410320151466"><ele>383.0</ele><time>2026-04-29T15:22:32Z</time></trkpt><trkpt lat="43.4153805761083" lon="11.536396051851511"><ele>383.0</ele><time>2026-04-29T15:22:33Z</time></trkpt><trkpt lat="43.415488869206854" lon="11.536386178158107"><ele>383.0</ele><time>2026-04-29T15:22:34Z</time></trkpt><trkpt lat="43.41561515152165" lon="11.536378087702802"><ele>383.0</ele><time>2026-04-29T15:22:35Z</time></trkpt><trkpt lat="43.41573967616707" lon="11.536370152972854"><ele>383.0</ele><time>2026-04-29T15:22:36Z</time></trkpt><trkpt lat="43.415848152134906" lon="11.536359863751287"><ele>383.0</ele><time>2026-04-29T15:22:37Z</time></trkpt><trkpt lat="43.41592881980741" lon="11.536347979909404"><ele>383.0</ele><time>2026-04-29T15:22:38Z</time></trkpt><trkpt lat="43.41599748531397" lon="11.536324679792742"><ele>383.0</ele><time>2026-04-29T15:22:39Z</time></trkpt><trkpt lat="43.41605287933671" lon="11.536274873515513"><ele>383.0</ele><time>2026-04-29T15:22:40Z</time></trkpt><trkpt lat="43.41612631115403" lon="11.536115441479682"><ele>383.0</ele><time>2026-04-29T15:22:42Z</time></trkpt><trkpt lat="43.41614797479364" lon="11.535999180691887"><ele>383.0</ele><time>2026-04-29T15:22:43Z</time></trkpt><trkpt lat="43.416166299801255" lon="11.535866629010798"><ele>383.0</ele><time>2026-04-29T15:22:44Z</time></trkpt><trkpt lat="43.416177297793396" lon="11.53575177228454"><ele>386.4</ele><time>2026-04-29T15:22:45Z</time></trkpt><trkpt lat="43.416241614138485" lon="11.535677730562593"><ele>389.79999999999995</ele><time>2026-04-29T15:22:47Z</time></trkpt><trkpt lat="43.416312850701736" lon="11.53564773743276"><ele>393.2</ele><time>2026-04-29T15:22:48Z</time></trkpt><trkpt lat="43.416432023314236" lon="11.535597970374269"><ele>396.6</ele><time>2026-04-29T15:22:49Z</time></trkpt><trkpt lat="43.416548817064815" lon="11.535530155100147"><ele>400.0</ele><time>2026-04-29T15:22:50Z</time></trkpt><trkpt lat="43.416641020436565" lon="11.535444500347117"><ele>404.6</ele><time>2026-04-29T15:22:51Z</time></trkpt><trkpt lat="43.41670879773091" lon="11.535354553895663"><ele>409.2</ele><time>2026-04-29T15:22:52Z</time></trkpt><trkpt lat="43.41675885560836" lon="11.535261156520736"><ele>413.79999999999995</ele><time>2026-04-29T15:22:53Z</time></trkpt><trkpt lat="43.41681539888344" lon="11.535160515979168"><ele>418.4</ele><time>2026-04-29T15:22:54Z</time></trkpt><trkpt lat="43.41686489768088" lon="11.535106650341225"><ele>423.0</ele><time>2026-04-29T15:22:55Z</time></trkpt><trkpt lat="43.41698923382633" lon="11.53510795277966"><ele>423.0</ele><time>2026-04-29T15:22:57Z</time></trkpt><trkpt lat="43.41707467216268" lon="11.535138643348976"><ele>423.0</ele><time>2026-04-29T15:22:58Z</time></trkpt><trkpt lat="43.41715942198188" lon="11.535188006587395"><ele>423.0</ele><time>2026-04-29T15:22:59Z</time></trkpt><trkpt lat="43.41724017776919" lon="11.535238580782332"><ele>423.0</ele><time>2026-04-29T15:23:00Z</time></trkpt><trkpt lat="43.41732420391316" lon="11.535288766083623"><ele>423.0</ele><time>2026-04-29T15:23:01Z</time></trkpt><trkpt lat="43.41740342788512" lon="11.53533072479086"><ele>423.0</ele><time>2026-04-29T15:23:02Z</time></trkpt><trkpt lat="43.41747928179972" lon="11.535364937647095"><ele>423.2</ele><time>2026-04-29T15:23:03Z</time></trkpt><trkpt lat="43.41755439009384" lon="11.535386555621374"><ele>423.4</ele><time>2026-04-29T15:23:04Z</time></trkpt><trkpt lat="43.41766736193088" lon="11.535390260166785"><ele>423.59999999999997</ele><time>2026-04-29T15:23:06Z</time></trkpt><trkpt lat="43.41774407483526" lon="11.535306912397468"><ele>423.79999999999995</ele><time>2026-04-29T15:23:08Z</time></trkpt><trkpt lat="43.41779790681802" lon="11.535187470123752"><ele>424.0</ele><time>2026-04-29T15:23:10Z</time></trkpt><trkpt lat="43.41786838528831" lon="11.535044758141066"><ele>424.0</ele><time>2026-04-29T15:23:12Z</time></trkpt><trkpt lat="43.41790941579045" lon="11.534959190629742"><ele>424.0</ele><time>2026-04-29T15:23:13Z</time></trkpt><trkpt lat="43.417957577786765" lon="11.534856916772396"><ele>424.0</ele><time>2026-04-29T15:23:14Z</time></trkpt><trkpt lat="43.418011690193666" lon="11.534749893703744"><ele>424.0</ele><time>2026-04-29T15:23:15Z</time></trkpt><trkpt lat="43.41808509240652" lon="11.534626355643379"><ele>424.0</ele><time>2026-04-29T15:23:16Z</time></trkpt><trkpt lat="43.41817606264698" lon="11.534503456155333"><ele>429.6</ele><time>2026-04-29T15:23:17Z</time></trkpt><trkpt lat="43.41826425601913" lon="11.534420859159807"><ele>435.2</ele><time>2026-04-29T15:23:18Z</time></trkpt><trkpt lat="43.4183549682373" lon="11.534376986807198"><ele>440.80000000000007</ele><time>2026-04-29T15:23:19Z</time></trkpt><trkpt lat="43.418439160413875" lon="11.534360971676051"><ele>446.40000000000003</ele><time>2026-04-29T15:23:20Z</time></trkpt><trkpt lat="43.41856062901427" lon="11.534358899294626"><ele>452.0</ele><time>2026-04-29T15:23:21Z</time></trkpt><trkpt lat="43.41870335171581" lon="11.534348422775555"><ele>452.66666666666663</ele><time>2026-04-29T15:23:22Z</time></trkpt><trkpt lat="43.41885792193339" lon="11.534335909876907"><ele>453.33333333333337</ele><time>2026-04-29T15:23:23Z</time></trkpt><trkpt lat="43.419021794336906" lon="11.53432760255062"><ele>454.0</ele><time>2026-04-29T15:23:24Z</time></trkpt><trkpt lat="43.41918087123895" lon="11.53431867036002"><ele>454.0</ele><time>2026-04-29T15:23:25Z</time></trkpt><trkpt lat="43.419332252441656" lon="11.534305194804121"><ele>454.0</ele><time>2026-04-29T15:23:26Z</time></trkpt><trkpt lat="43.41945435386553" lon="11.534297915605348"><ele>454.0</ele><time>2026-04-29T15:23:27.001Z</time></trkpt><trkpt lat="43.41955757838084" lon="11.534291022283037"><ele>454.0</ele><time>2026-04-29T15:23:28.001Z</time></trkpt><trkpt lat="43.41965564484424" lon="11.534278261026653"><ele>454.79999999999995</ele><time>2026-04-29T15:23:29.001Z</time></trkpt><trkpt lat="43.419754970780865" lon="11.534249224634111"><ele>455.59999999999997</ele><time>2026-04-29T15:23:30.001Z</time></trkpt><trkpt lat="43.41985485356895" lon="11.53420372220548"><ele>456.4</ele><time>2026-04-29T15:23:31.001Z</time></trkpt><trkpt lat="43.419946821599396" lon="11.534142505536153"><ele>457.2</ele><time>2026-04-29T15:23:32.001Z</time></trkpt><trkpt lat="43.42003931436254" lon="11.53406210947827"><ele>458.0</ele><time>2026-04-29T15:23:33.001Z</time></trkpt><trkpt lat="43.42013393710898" lon="11.53395763873983"><ele>458.0</ele><time>2026-04-29T15:23:34.001Z</time></trkpt><trkpt lat="43.420235724028416" lon="11.533852977030039"><ele>458.0</ele><time>2026-04-29T15:23:35Z</time></trkpt><trkpt lat="43.420341170717" lon="11.533741845457296"><ele>458.0</ele><time>2026-04-29T15:23:36Z</time></trkpt><trkpt lat="43.42043878756973" lon="11.533648711324672"><ele>458.0</ele><time>2026-04-29T15:23:37Z</time></trkpt><trkpt lat="43.42053004744499" lon="11.533594611086924"><ele>462.0</ele><time>2026-04-29T15:23:38Z</time></trkpt><trkpt lat="43.420622654907284" lon="11.533569471485375"><ele>465.99999999999994</ele><time>2026-04-29T15:23:39Z</time></trkpt><trkpt lat="43.42072392193497" lon="11.533574828921086"><ele>469.99999999999994</ele><time>2026-04-29T15:23:40Z</time></trkpt><trkpt lat="43.42083819820334" lon="11.533585210692424"><ele>474.0</ele><time>2026-04-29T15:23:41Z</time></trkpt><trkpt lat="43.42096927894412" lon="11.533596682910922"><ele>478.0</ele><time>2026-04-29T15:23:42Z</time></trkpt><trkpt lat="43.421095051253296" lon="11.533592140857563"><ele>478.0</ele><time>2026-04-29T15:23:43Z</time></trkpt><trkpt lat="43.421241954954525" lon="11.53357646587899"><ele>478.0</ele><time>2026-04-29T15:23:44Z</time></trkpt><trkpt lat="43.42138086521296" lon="11.533559203592313"><ele>478.0</ele><time>2026-04-29T15:23:45Z</time></trkpt><trkpt lat="43.42152229261651" lon="11.533535434893226"><ele>478.0</ele><time>2026-04-29T15:23:46Z</time></trkpt><trkpt lat="43.421669616607936" lon="11.533509666906658"><ele>482.33333333333337</ele><time>2026-04-29T15:23:47Z</time></trkpt><trkpt lat="43.421823492808365" lon="11.533489473340188"><ele>486.66666666666663</ele><time>2026-04-29T15:23:48Z</time></trkpt><trkpt lat="43.421973153456825" lon="11.533472470369107"><ele>491.0</ele><time>2026-04-29T15:23:49Z</time></trkpt><trkpt lat="43.42212674058451" lon="11.533471649766488"><ele>493.5</ele><time>2026-04-29T15:23:50Z</time></trkpt><trkpt lat="43.42228163400929" lon="11.53348758614942"><ele>496.0</ele><time>2026-04-29T15:23:51Z</time></trkpt><trkpt lat="43.42241439409189" lon="11.533507028625456"><ele>498.5</ele><time>2026-04-29T15:23:52Z</time></trkpt><trkpt lat="43.42252213362016" lon="11.533507702953102"><ele>501.0</ele><time>2026-04-29T15:23:53Z</time></trkpt><trkpt lat="43.422620686469344" lon="11.533489678438414"><ele>501.0</ele><time>2026-04-29T15:23:54Z</time></trkpt><trkpt lat="43.42273241283274" lon="11.533452754224031"><ele>501.0</ele><time>2026-04-29T15:23:55Z</time></trkpt><trkpt lat="43.422876835609344" lon="11.533406067037905"><ele>501.0</ele><time>2026-04-29T15:23:56Z</time></trkpt><trkpt lat="43.423044005467084" lon="11.533363992958227"><ele>501.0</ele><time>2026-04-29T15:23:57Z</time></trkpt><trkpt lat="43.4232002559893" lon="11.533340427223767"><ele>502.4</ele><time>2026-04-29T15:23:58Z</time></trkpt><trkpt lat="43.42333557769186" lon="11.533338645162521"><ele>503.8</ele><time>2026-04-29T15:23:59Z</time></trkpt><trkpt lat="43.423439066604274" lon="11.533338223851807"><ele>505.19999999999993</ele><time>2026-04-29T15:24:00Z</time></trkpt><trkpt lat="43.42350783822119" lon="11.533334222881692"><ele>506.59999999999997</ele><time>2026-04-29T15:24:01Z</time></trkpt><trkpt lat="43.42360726714716" lon="11.533219694272775"><ele>508.0</ele><time>2026-04-29T15:24:03Z</time></trkpt><trkpt lat="43.423643097439864" lon="11.53312648236873"><ele>508.00000000000006</ele><time>2026-04-29T15:24:04Z</time></trkpt><trkpt lat="43.423699910914806" lon="11.533083607829727"><ele>508.0</ele><time>2026-04-29T15:24:05Z</time></trkpt><trkpt lat="43.42377816794382" lon="11.533114005847054"><ele>508.0</ele><time>2026-04-29T15:24:06Z</time></trkpt><trkpt lat="43.4238554752619" lon="11.53314261433405"><ele>508.0</ele><time>2026-04-29T15:24:07Z</time></trkpt><trkpt lat="43.423951007283335" lon="11.533164816738728"><ele>508.00000000000006</ele><time>2026-04-29T15:24:08Z</time></trkpt><trkpt lat="43.42407411572445" lon="11.533197702583344"><ele>508.0</ele><time>2026-04-29T15:24:09Z</time></trkpt><trkpt lat="43.424203082059975" lon="11.533201070917626"><ele>509.0</ele><time>2026-04-29T15:24:10Z</time></trkpt><trkpt lat="43.42433779682118" lon="11.533182723037006"><ele>510.0</ele><time>2026-04-29T15:24:11Z</time></trkpt><trkpt lat="43.42448159217024" lon="11.533156887563933"><ele>511.0</ele><time>2026-04-29T15:24:12Z</time></trkpt><trkpt lat="43.424629205244" lon="11.533140365673411"><ele>512.0</ele><time>2026-04-29T15:24:13Z</time></trkpt><trkpt lat="43.42478215577036" lon="11.533153755782342"><ele>513.25</ele><time>2026-04-29T15:24:14Z</time></trkpt><trkpt lat="43.424909421193426" lon="11.533181154046435"><ele>514.5</ele><time>2026-04-29T15:24:15Z</time></trkpt><trkpt lat="43.42503076281985" lon="11.53320289181944"><ele>515.75</ele><time>2026-04-29T15:24:16Z</time></trkpt><trkpt lat="43.42515331467658" lon="11.533200572082137"><ele>517.0</ele><time>2026-04-29T15:24:17Z</time></trkpt><trkpt lat="43.42527731673832" lon="11.533175099468362"><ele>517.0</ele><time>2026-04-29T15:24:18Z</time></trkpt><trkpt lat="43.4253958160293" lon="11.5331195148076"><ele>517.0</ele><time>2026-04-29T15:24:19Z</time></trkpt><trkpt lat="43.425510814656214" lon="11.533052879780772"><ele>517.0</ele><time>2026-04-29T15:24:20Z</time></trkpt><trkpt lat="43.425636495799864" lon="11.532992631822532"><ele>517.0</ele><time>2026-04-29T15:24:21Z</time></trkpt><trkpt lat="43.42577080492481" lon="11.532960531418025"><ele>518.25</ele><time>2026-04-29T15:24:22Z</time></trkpt><trkpt lat="43.4258864792575" lon="11.532955716527967"><ele>519.5</ele><time>2026-04-29T15:24:23Z</time></trkpt><trkpt lat="43.42597155574699" lon="11.532937776389746"><ele>520.75</ele><time>2026-04-29T15:24:24Z</time></trkpt><trkpt lat="43.4260265913087" lon="11.532807191426823"><ele>522.0</ele><time>2026-04-29T15:24:26Z</time></trkpt><trkpt lat="43.425894497903045" lon="11.532697372989666"><ele>526.6</ele><time>2026-04-29T15:24:28Z</time></trkpt><trkpt lat="43.42578974709146" lon="11.532686292051338"><ele>531.2</ele><time>2026-04-29T15:24:29Z</time></trkpt><trkpt lat="43.42569521293566" lon="11.532652563319466"><ele>535.8</ele><time>2026-04-29T15:24:30Z</time></trkpt><trkpt lat="43.4256323182799" lon="11.532576874611877"><ele>540.4</ele><time>2026-04-29T15:24:31Z</time></trkpt><trkpt lat="43.42558289321547" lon="11.532458828839856"><ele>545.0</ele><time>2026-04-29T15:24:32Z</time></trkpt><trkpt lat="43.42554716690074" lon="11.532321712967729"><ele>545.0</ele><time>2026-04-29T15:24:33Z</time></trkpt><trkpt lat="43.42554343823547" lon="11.532194786939279"><ele>545.0</ele><time>2026-04-29T15:24:34Z</time></trkpt><trkpt lat="43.42556927004995" lon="11.532093764268"><ele>545.0</ele><time>2026-04-29T15:24:35Z</time></trkpt><trkpt lat="43.42562680385486" lon="11.532009210626498"><ele>545.0</ele><time>2026-04-29T15:24:36Z</time></trkpt><trkpt lat="43.42571380668874" lon="11.531936228036066"><ele>545.0</ele><time>2026-04-29T15:24:37Z</time></trkpt><trkpt lat="43.42581253970273" lon="11.53185755249219"><ele>545.25</ele><time>2026-04-29T15:24:38Z</time></trkpt><trkpt lat="43.42591671093054" lon="11.531755451357597"><ele>545.5</ele><time>2026-04-29T15:24:39Z</time></trkpt><trkpt lat="43.42601452459897" lon="11.531631114160005"><ele>545.75</ele><time>2026-04-29T15:24:40Z</time></trkpt><trkpt lat="43.426107379790416" lon="11.531497264830062"><ele>546.0</ele><time>2026-04-29T15:24:41Z</time></trkpt><trkpt lat="43.42618522993185" lon="11.531369180123036"><ele>546.0</ele><time>2026-04-29T15:24:42Z</time></trkpt><trkpt lat="43.42625244763168" lon="11.531246799785274"><ele>546.0</ele><time>2026-04-29T15:24:43Z</time></trkpt><trkpt lat="43.426316852718074" lon="11.531127068143267"><ele>546.0</ele><time>2026-04-29T15:24:44Z</time></trkpt><trkpt lat="43.4263652673475" lon="11.531026576107356"><ele>546.0</ele><time>2026-04-29T15:24:45Z</time></trkpt><trkpt lat="43.42639677886142" lon="11.53092900369456"><ele>546.0</ele><time>2026-04-29T15:24:46Z</time></trkpt><trkpt lat="43.42640249838733" lon="11.53082769192893"><ele>544.8333333333334</ele><time>2026-04-29T15:24:47Z</time></trkpt><trkpt lat="43.426377173147934" lon="11.530716585250122"><ele>543.6666666666666</ele><time>2026-04-29T15:24:48Z</time></trkpt><trkpt lat="43.42633098614035" lon="11.530586484059675"><ele>542.5</ele><time>2026-04-29T15:24:49Z</time></trkpt><trkpt lat="43.42630577162101" lon="11.53046128846635"><ele>541.3333333333333</ele><time>2026-04-29T15:24:50Z</time></trkpt><trkpt lat="43.42630960112968" lon="11.530364236618052"><ele>540.1666666666666</ele><time>2026-04-29T15:24:51Z</time></trkpt><trkpt lat="43.426348996910086" lon="11.530264065267906"><ele>539.0</ele><time>2026-04-29T15:24:52Z</time></trkpt><trkpt lat="43.42640742486926" lon="11.53014780467733"><ele>544.0</ele><time>2026-04-29T15:24:53Z</time></trkpt><trkpt lat="43.42646722788686" lon="11.529997678548954"><ele>549.0</ele><time>2026-04-29T15:24:54Z</time></trkpt><trkpt lat="43.42652650724524" lon="11.529822079520974"><ele>554.0</ele><time>2026-04-29T15:24:55Z</time></trkpt><trkpt lat="43.42659976925962" lon="11.529667178847873"><ele>559.0</ele><time>2026-04-29T15:24:56Z</time></trkpt><trkpt lat="43.42670144665308" lon="11.529541517755584"><ele>559.0</ele><time>2026-04-29T15:24:57Z</time></trkpt><trkpt lat="43.4267962370694" lon="11.529416892613662"><ele>559.0</ele><time>2026-04-29T15:24:58Z</time></trkpt><trkpt lat="43.42687326945864" lon="11.529291321078313"><ele>559.0</ele><time>2026-04-29T15:24:59Z</time></trkpt><trkpt lat="43.42694114166369" lon="11.529155081411254"><ele>559.0</ele><time>2026-04-29T15:25:00Z</time></trkpt><trkpt lat="43.426995850435574" lon="11.529009058527109"><ele>559.0</ele><time>2026-04-29T15:25:01Z</time></trkpt><trkpt lat="43.42705498597673" lon="11.528858361629819"><ele>559.0</ele><time>2026-04-29T15:25:02Z</time></trkpt><trkpt lat="43.42706136333286" lon="11.528668294892473"><ele>559.0</ele><time>2026-04-29T15:25:03Z</time></trkpt><trkpt lat="43.427085019967485" lon="11.52848157692974"><ele>559.0</ele><time>2026-04-29T15:25:04Z</time></trkpt><trkpt lat="43.42712987876698" lon="11.528324289345655"><ele>562.0</ele><time>2026-04-29T15:25:05Z</time></trkpt><trkpt lat="43.42715425716656" lon="11.528205043827159"><ele>565.0</ele><time>2026-04-29T15:25:06Z</time></trkpt><trkpt lat="43.42720790503841" lon="11.528149429806453"><ele>568.0</ele><time>2026-04-29T15:25:07Z</time></trkpt><trkpt lat="43.427272778963335" lon="11.528112898437225"><ele>571.0</ele><time>2026-04-29T15:25:08Z</time></trkpt><trkpt lat="43.427353755185834" lon="11.528099407048234"><ele>574.0</ele><time>2026-04-29T15:25:09Z</time></trkpt><trkpt lat="43.42743359069777" lon="11.528136295184238"><ele>577.0</ele><time>2026-04-29T15:25:10Z</time></trkpt><trkpt lat="43.427540697053495" lon="11.52815813712059"><ele>577.0</ele><time>2026-04-29T15:25:11Z</time></trkpt><trkpt lat="43.42768037634197" lon="11.52818795780133"><ele>577.0</ele><time>2026-04-29T15:25:12Z</time></trkpt><trkpt lat="43.427839956134704" lon="11.528197915445256"><ele>577.0</ele><time>2026-04-29T15:25:13.001Z</time></trkpt><trkpt lat="43.42796092859913" lon="11.52821425333395"><ele>577.0</ele><time>2026-04-29T15:25:14.001Z</time></trkpt><trkpt lat="43.428055553641364" lon="11.528202833172228"><ele>578.6</ele><time>2026-04-29T15:25:15.001Z</time></trkpt><trkpt lat="43.428124262242484" lon="11.528204548421753"><ele>580.2</ele><time>2026-04-29T15:25:16.001Z</time></trkpt><trkpt lat="43.428205187620385" lon="11.528048570970583"><ele>581.8</ele><time>2026-04-29T15:25:18.001Z</time></trkpt><trkpt lat="43.42817098472059" lon="11.527908913815935"><ele>583.4</ele><time>2026-04-29T15:25:19.001Z</time></trkpt><trkpt lat="43.42815747056352" lon="11.527767499197099"><ele>585.0</ele><time>2026-04-29T15:25:20.001Z</time></trkpt><trkpt lat="43.428163377883415" lon="11.527640759833242"><ele>585.0</ele><time>2026-04-29T15:25:21.001Z</time></trkpt><trkpt lat="43.4282018136853" lon="11.527569658447332"><ele>585.0</ele><time>2026-04-29T15:25:22.001Z</time></trkpt><trkpt lat="43.42826340872404" lon="11.527540686954834"><ele>585.0</ele><time>2026-04-29T15:25:23.001Z</time></trkpt><trkpt lat="43.42834937955599" lon="11.527535600046544"><ele>585.0</ele><time>2026-04-29T15:25:24.001Z</time></trkpt><trkpt lat="43.42844305243678" lon="11.527517388107151"><ele>585.0</ele><time>2026-04-29T15:25:25.001Z</time></trkpt><trkpt lat="43.42857056292688" lon="11.527509923801757"><ele>585.0</ele><time>2026-04-29T15:25:26.001Z</time></trkpt><trkpt lat="43.4287129046249" lon="11.52749670712285"><ele>589.25</ele><time>2026-04-29T15:25:27.001Z</time></trkpt><trkpt lat="43.42886408094399" lon="11.527508075626855"><ele>593.5</ele><time>2026-04-29T15:25:28.001Z</time></trkpt><trkpt lat="43.42899684855623" lon="11.5275171015525"><ele>597.75</ele><time>2026-04-29T15:25:29.001Z</time></trkpt><trkpt lat="43.4291038653894" lon="11.52750950716788"><ele>602.0</ele><time>2026-04-29T15:25:30.001Z</time></trkpt><trkpt lat="43.42919033213222" lon="11.527467601638978"><ele>602.0</ele><time>2026-04-29T15:25:31.001Z</time></trkpt><trkpt lat="43.42927038945914" lon="11.527395966073662"><ele>602.0</ele><time>2026-04-29T15:25:32.001Z</time></trkpt><trkpt lat="43.42933445896662" lon="11.527284602114628"><ele>602.0</ele><time>2026-04-29T15:25:33.001Z</time></trkpt><trkpt lat="43.42940184610188" lon="11.527145030338596"><ele>602.0</ele><time>2026-04-29T15:25:34.001Z</time></trkpt><trkpt lat="43.42946835027208" lon="11.526987921527187"><ele>599.5</ele><time>2026-04-29T15:25:35.001Z</time></trkpt><trkpt lat="43.42952811113006" lon="11.526811033991661"><ele>597.0</ele><time>2026-04-29T15:25:36.001Z</time></trkpt><trkpt lat="43.429562853469925" lon="11.526633062077995"><ele>594.5</ele><time>2026-04-29T15:25:37.001Z</time></trkpt><trkpt lat="43.429588971418404" lon="11.526451311724061"><ele>592.0</ele><time>2026-04-29T15:25:38.001Z</time></trkpt><trkpt lat="43.4296076972194" lon="11.526277598201558"><ele>592.25</ele><time>2026-04-29T15:25:39.001Z</time></trkpt><trkpt lat="43.42961360791588" lon="11.526116705516914"><ele>592.5</ele><time>2026-04-29T15:25:40Z</time></trkpt><trkpt lat="43.42960067503088" lon="11.525962958524493"><ele>592.75</ele><time>2026-04-29T15:25:41Z</time></trkpt><trkpt lat="43.429570474341546" lon="11.525806678899336"><ele>593.0</ele><time>2026-04-29T15:25:42Z</time></trkpt><trkpt lat="43.42951990763362" lon="11.525630466601946"><ele>593.0</ele><time>2026-04-29T15:25:43Z</time></trkpt><trkpt lat="43.429477047062896" lon="11.525442011962568"><ele>593.0</ele><time>2026-04-29T15:25:44Z</time></trkpt><trkpt lat="43.42946509947971" lon="11.525246563353523"><ele>593.0</ele><time>2026-04-29T15:25:45Z</time></trkpt><trkpt lat="43.42948134242181" lon="11.525066413271796"><ele>593.0</ele><time>2026-04-29T15:25:46Z</time></trkpt><trkpt lat="43.42945052256555" lon="11.524888515249549"><ele>595.4</ele><time>2026-04-29T15:25:47Z</time></trkpt><trkpt lat="43.42935401782694" lon="11.524749992047669"><ele>597.8</ele><time>2026-04-29T15:25:48Z</time></trkpt><trkpt lat="43.4292754962894" lon="11.524633579762424"><ele>600.2</ele><time>2026-04-29T15:25:49Z</time></trkpt><trkpt lat="43.429229339050146" lon="11.524508980190813"><ele>602.6</ele><time>2026-04-29T15:25:50Z</time></trkpt><trkpt lat="43.42921713011073" lon="11.524392055494836"><ele>605.0</ele><time>2026-04-29T15:25:51Z</time></trkpt><trkpt lat="43.42923481416863" lon="11.5243083753758"><ele>605.5</ele><time>2026-04-29T15:25:52Z</time></trkpt><trkpt lat="43.42928262402078" lon="11.524222954885913"><ele>606.0</ele><time>2026-04-29T15:25:53Z</time></trkpt><trkpt lat="43.4293620145046" lon="11.524142130547515"><ele>606.5</ele><time>2026-04-29T15:25:54Z</time></trkpt><trkpt lat="43.42945454757036" lon="11.524003493947022"><ele>607.0</ele><time>2026-04-29T15:25:55Z</time></trkpt><trkpt lat="43.42956050345274" lon="11.523872650047345"><ele>607.0</ele><time>2026-04-29T15:25:56Z</time></trkpt><trkpt lat="43.42963705988374" lon="11.52373684357564"><ele>607.0</ele><time>2026-04-29T15:25:57Z</time></trkpt><trkpt lat="43.4296865441474" lon="11.523579867054751"><ele>607.0</ele><time>2026-04-29T15:25:58Z</time></trkpt><trkpt lat="43.42972261807843" lon="11.523408335422845"><ele>607.0</ele><time>2026-04-29T15:25:59Z</time></trkpt><trkpt lat="43.42977659655406" lon="11.523243827994694"><ele>606.6</ele><time>2026-04-29T15:26:00Z</time></trkpt><trkpt lat="43.42983035581472" lon="11.523104134384983"><ele>606.2</ele><time>2026-04-29T15:26:01Z</time></trkpt><trkpt lat="43.4298936324513" lon="11.52300909369606"><ele>605.8</ele><time>2026-04-29T15:26:02Z</time></trkpt><trkpt lat="43.42995395260469" lon="11.52296682265081"><ele>605.4</ele><time>2026-04-29T15:26:03Z</time></trkpt><trkpt lat="43.43003222817065" lon="11.522928401857683"><ele>605.0</ele><time>2026-04-29T15:26:04Z</time></trkpt><trkpt lat="43.430139771528786" lon="11.522857333382422"><ele>605.0</ele><time>2026-04-29T15:26:05Z</time></trkpt><trkpt lat="43.430282846937516" lon="11.522821742574767"><ele>605.0</ele><time>2026-04-29T15:26:06Z</time></trkpt><trkpt lat="43.43045128323103" lon="11.52280818959765"><ele>605.0</ele><time>2026-04-29T15:26:07Z</time></trkpt><trkpt lat="43.430619847256466" lon="11.522808094361089"><ele>609.2</ele><time>2026-04-29T15:26:08Z</time></trkpt><trkpt lat="43.430753720351696" lon="11.522824160530188"><ele>613.4</ele><time>2026-04-29T15:26:09Z</time></trkpt><trkpt lat="43.430860732944" lon="11.522829902937337"><ele>617.6</ele><time>2026-04-29T15:26:10Z</time></trkpt><trkpt lat="43.43094996376917" lon="11.522800547724481"><ele>621.8</ele><time>2026-04-29T15:26:11Z</time></trkpt><trkpt lat="43.43102744281861" lon="11.5227379437521"><ele>626.0</ele><time>2026-04-29T15:26:12Z</time></trkpt><trkpt lat="43.43105699481485" lon="11.522602469503369"><ele>626.0</ele><time>2026-04-29T15:26:13Z</time></trkpt><trkpt lat="43.431059419781896" lon="11.522468556426663"><ele>626.0</ele><time>2026-04-29T15:26:14Z</time></trkpt><trkpt lat="43.431070356304005" lon="11.522296007172418"><ele>626.0</ele><time>2026-04-29T15:26:15Z</time></trkpt><trkpt lat="43.43106236940365" lon="11.52208386485747"><ele>626.0</ele><time>2026-04-29T15:26:16Z</time></trkpt><trkpt lat="43.43105941303994" lon="11.52184923898738"><ele>626.0</ele><time>2026-04-29T15:26:17Z</time></trkpt><trkpt lat="43.431054358754565" lon="11.521609947775858"><ele>626.0</ele><time>2026-04-29T15:26:18Z</time></trkpt><trkpt lat="43.43103756607021" lon="11.521365225278437"><ele>626.0</ele><time>2026-04-29T15:26:19Z</time></trkpt><trkpt lat="43.43100195360785" lon="11.52112609420778"><ele>628.6666666666666</ele><time>2026-04-29T15:26:20Z</time></trkpt><trkpt lat="43.430954322921714" lon="11.520872184935044"><ele>631.3333333333334</ele><time>2026-04-29T15:26:21Z</time></trkpt><trkpt lat="43.430908915443524" lon="11.52063854726417"><ele>634.0</ele><time>2026-04-29T15:26:22Z</time></trkpt><trkpt lat="43.43084749551444" lon="11.520411704100942"><ele>637.6666666666667</ele><time>2026-04-29T15:26:23Z</time></trkpt><trkpt lat="43.43080571164422" lon="11.520180716791234"><ele>641.3333333333334</ele><time>2026-04-29T15:26:24Z</time></trkpt><trkpt lat="43.43075820166788" lon="11.519977164611774"><ele>645.0</ele><time>2026-04-29T15:26:25Z</time></trkpt><trkpt lat="43.430715893290326" lon="11.519782362542465"><ele>645.0</ele><time>2026-04-29T15:26:26Z</time></trkpt><trkpt lat="43.43063361716926" lon="11.51962791909652"><ele>645.0</ele><time>2026-04-29T15:26:27Z</time></trkpt><trkpt lat="43.43058652155624" lon="11.519487403037305"><ele>645.0</ele><time>2026-04-29T15:26:28Z</time></trkpt><trkpt lat="43.43055199062238" lon="11.519360850684858"><ele>645.0</ele><time>2026-04-29T15:26:29Z</time></trkpt><trkpt lat="43.430528791052204" lon="11.519229771284131"><ele>645.0</ele><time>2026-04-29T15:26:30Z</time></trkpt><trkpt lat="43.43056698554534" lon="11.51908073268785"><ele>644.25</ele><time>2026-04-29T15:26:31Z</time></trkpt><trkpt lat="43.430646879915415" lon="11.518967492536664"><ele>643.5</ele><time>2026-04-29T15:26:32Z</time></trkpt><trkpt lat="43.4307298950401" lon="11.518812552062784"><ele>642.75</ele><time>2026-04-29T15:26:33Z</time></trkpt><trkpt lat="43.43080455688087" lon="11.518618840250635"><ele>642.0</ele><time>2026-04-29T15:26:34Z</time></trkpt><trkpt lat="43.43086459882057" lon="11.518426669560105"><ele>642.0</ele><time>2026-04-29T15:26:35Z</time></trkpt><trkpt lat="43.43090366625114" lon="11.518225811635727"><ele>642.0</ele><time>2026-04-29T15:26:36Z</time></trkpt><trkpt lat="43.430902275052205" lon="11.517979049695654"><ele>642.0</ele><time>2026-04-29T15:26:37Z</time></trkpt><trkpt lat="43.430922726145006" lon="11.517752626201396"><ele>640.5</ele><time>2026-04-29T15:26:38Z</time></trkpt><trkpt lat="43.430935858425954" lon="11.517544699520254"><ele>639.0</ele><time>2026-04-29T15:26:39Z</time></trkpt><trkpt lat="43.43094360126449" lon="11.517365381398287"><ele>637.5</ele><time>2026-04-29T15:26:40Z</time></trkpt><trkpt lat="43.43095464982499" lon="11.517204267820258"><ele>636.0</ele><time>2026-04-29T15:26:41Z</time></trkpt><trkpt lat="43.43095423136135" lon="11.517029826761188"><ele>634.75</ele><time>2026-04-29T15:26:42Z</time></trkpt><trkpt lat="43.43094854041119" lon="11.516856542795066"><ele>633.5</ele><time>2026-04-29T15:26:43Z</time></trkpt><trkpt lat="43.43094895679624" lon="11.516689972091527"><ele>632.25</ele><time>2026-04-29T15:26:44Z</time></trkpt><trkpt lat="43.43096701125575" lon="11.516534980990428"><ele>631.0</ele><time>2026-04-29T15:26:45Z</time></trkpt><trkpt lat="43.43100943069132" lon="11.516407291043794"><ele>631.0</ele><time>2026-04-29T15:26:46Z</time></trkpt><trkpt lat="43.431068058979605" lon="11.51631064625634"><ele>631.0</ele><time>2026-04-29T15:26:47Z</time></trkpt><trkpt lat="43.43114546499493" lon="11.51623442335408"><ele>631.0</ele><time>2026-04-29T15:26:48Z</time></trkpt><trkpt lat="43.43126145994051" lon="11.51614312973873"><ele>631.0</ele><time>2026-04-29T15:26:49Z</time></trkpt><trkpt lat="43.431371656517356" lon="11.516048491493029"><ele>631.25</ele><time>2026-04-29T15:26:50Z</time></trkpt><trkpt lat="43.431462640213745" lon="11.515935022920198"><ele>631.5</ele><time>2026-04-29T15:26:51Z</time></trkpt><trkpt lat="43.43154755703779" lon="11.51582802867875"><ele>631.75</ele><time>2026-04-29T15:26:52Z</time></trkpt><trkpt lat="43.43157685055857" lon="11.515665648405108"><ele>632.0</ele><time>2026-04-29T15:26:53Z</time></trkpt><trkpt lat="43.43161830189185" lon="11.515519583239751"><ele>632.25</ele><time>2026-04-29T15:26:54Z</time></trkpt><trkpt lat="43.431646996768215" lon="11.515355235152306"><ele>632.5</ele><time>2026-04-29T15:26:55Z</time></trkpt><trkpt lat="43.43167513670195" lon="11.515151709896656"><ele>632.75</ele><time>2026-04-29T15:26:56Z</time></trkpt><trkpt lat="43.431695046439295" lon="11.51494769877224"><ele>633.0</ele><time>2026-04-29T15:26:57Z</time></trkpt><trkpt lat="43.431708183236346" lon="11.514800745322688"><ele>633.0</ele><time>2026-04-29T15:26:58Z</time></trkpt><trkpt lat="43.43172114441095" lon="11.514696457689483"><ele>633.0</ele><time>2026-04-29T15:26:59Z</time></trkpt><trkpt lat="43.43175509793441" lon="11.514588857846725"><ele>633.0</ele><time>2026-04-29T15:27:01Z</time></trkpt><trkpt lat="43.43189096346277" lon="11.514567505333552"><ele>633.0</ele><time>2026-04-29T15:27:03Z</time></trkpt><trkpt lat="43.43197109281533" lon="11.514581189772098"><ele>633.0</ele><time>2026-04-29T15:27:04Z</time></trkpt><trkpt lat="43.432069441233175" lon="11.514588575938419"><ele>636.5</ele><time>2026-04-29T15:27:05Z</time></trkpt><trkpt lat="43.43219319597817" lon="11.514647187400984"><ele>640.0</ele><time>2026-04-29T15:27:06Z</time></trkpt><trkpt lat="43.43232682961089" lon="11.514723943206604"><ele>643.5</ele><time>2026-04-29T15:27:07Z</time></trkpt><trkpt lat="43.432442247352746" lon="11.51485420761102"><ele>647.0</ele><time>2026-04-29T15:27:08Z</time></trkpt><trkpt lat="43.4325555208586" lon="11.514945194117916"><ele>647.0</ele><time>2026-04-29T15:27:09Z</time></trkpt><trkpt lat="43.432669376500996" lon="11.514979385864079"><ele>647.0</ele><time>2026-04-29T15:27:10Z</time></trkpt><trkpt lat="43.43276604492032" lon="11.515012913447366"><ele>647.0</ele><time>2026-04-29T15:27:11Z</time></trkpt><trkpt lat="43.43285234022391" lon="11.515007909556306"><ele>647.0</ele><time>2026-04-29T15:27:12Z</time></trkpt><trkpt lat="43.43292368768098" lon="11.514976487069385"><ele>647.0</ele><time>2026-04-29T15:27:13Z</time></trkpt><trkpt lat="43.43300400971991" lon="11.514825446404842"><ele>646.4000000000001</ele><time>2026-04-29T15:27:15Z</time></trkpt><trkpt lat="43.43303656556797" lon="11.514715834554382"><ele>645.8000000000001</ele><time>2026-04-29T15:27:16Z</time></trkpt><trkpt lat="43.43305640884879" lon="11.514582732905632"><ele>645.2</ele><time>2026-04-29T15:27:17Z</time></trkpt><trkpt lat="43.43307263291121" lon="11.514440230589127"><ele>644.6</ele><time>2026-04-29T15:27:18Z</time></trkpt><trkpt lat="43.43307506783568" lon="11.514301900804336"><ele>644.0</ele><time>2026-04-29T15:27:19Z</time></trkpt><trkpt lat="43.43305992912164" lon="11.514152838782646"><ele>644.0</ele><time>2026-04-29T15:27:20Z</time></trkpt><trkpt lat="43.433060449778" lon="11.513986495905119"><ele>644.0</ele><time>2026-04-29T15:27:21Z</time></trkpt><trkpt lat="43.433066071600344" lon="11.513801569860677"><ele>644.0</ele><time>2026-04-29T15:27:22Z</time></trkpt><trkpt lat="43.433090643184336" lon="11.513579490294669"><ele>644.0</ele><time>2026-04-29T15:27:23Z</time></trkpt><trkpt lat="43.433128073935" lon="11.513357736918994"><ele>646.75</ele><time>2026-04-29T15:27:24Z</time></trkpt><trkpt lat="43.43315760875712" lon="11.513131928985834"><ele>649.5</ele><time>2026-04-29T15:27:25Z</time></trkpt><trkpt lat="43.43318562964382" lon="11.512942962067752"><ele>652.25</ele><time>2026-04-29T15:27:26Z</time></trkpt><trkpt lat="43.433228410805974" lon="11.512800793511238"><ele>655.0</ele><time>2026-04-29T15:27:27Z</time></trkpt><trkpt lat="43.43328052850523" lon="11.512658334139317"><ele>660.25</ele><time>2026-04-29T15:27:28Z</time></trkpt><trkpt lat="43.433335423619326" lon="11.512517175088597"><ele>665.5</ele><time>2026-04-29T15:27:29.001Z</time></trkpt><trkpt lat="43.43335922851899" lon="11.512361130874183"><ele>670.75</ele><time>2026-04-29T15:27:30.001Z</time></trkpt><trkpt lat="43.43338842287986" lon="11.512219012304882"><ele>676.0</ele><time>2026-04-29T15:27:31.001Z</time></trkpt><trkpt lat="43.433376643831544" lon="11.512065386084497"><ele>679.0</ele><time>2026-04-29T15:27:32.001Z</time></trkpt><trkpt lat="43.433405519845394" lon="11.511936383134517"><ele>682.0</ele><time>2026-04-29T15:27:33.001Z</time></trkpt><trkpt lat="43.43348077747107" lon="11.511858890506423"><ele>685.0</ele><time>2026-04-29T15:27:34.001Z</time></trkpt><trkpt lat="43.43354080907469" lon="11.511733975180979"><ele>688.0</ele><time>2026-04-29T15:27:35.001Z</time></trkpt><trkpt lat="43.433613856987016" lon="11.511591242150823"><ele>691.0</ele><time>2026-04-29T15:27:36.001Z</time></trkpt><trkpt lat="43.433699841110126" lon="11.511430907911617"><ele>691.0</ele><time>2026-04-29T15:27:37.001Z</time></trkpt><trkpt lat="43.43375663983558" lon="11.511228139562325"><ele>691.0</ele><time>2026-04-29T15:27:38.001Z</time></trkpt><trkpt lat="43.43382603136774" lon="11.511046275103897"><ele>691.0</ele><time>2026-04-29T15:27:39.001Z</time></trkpt><trkpt lat="43.433894072490034" lon="11.510864306838599"><ele>691.0</ele><time>2026-04-29T15:27:40.001Z</time></trkpt><trkpt lat="43.43398508113135" lon="11.510681799564354"><ele>691.0</ele><time>2026-04-29T15:27:41.001Z</time></trkpt><trkpt lat="43.43410485579437" lon="11.510472131231683"><ele>691.0</ele><time>2026-04-29T15:27:42.001Z</time></trkpt><trkpt lat="43.434219682785326" lon="11.510279451368628"><ele>688.3333333333334</ele><time>2026-04-29T15:27:43.001Z</time></trkpt><trkpt lat="43.434339107895575" lon="11.51010346865713"><ele>685.6666666666666</ele><time>2026-04-29T15:27:44.001Z</time></trkpt><trkpt lat="43.434463089948586" lon="11.509947062627209"><ele>683.0</ele><time>2026-04-29T15:27:45.001Z</time></trkpt><trkpt lat="43.434593979837786" lon="11.509810021880545"><ele>684.6666666666666</ele><time>2026-04-29T15:27:46Z</time></trkpt><trkpt lat="43.434736361213844" lon="11.5096939640002"><ele>686.3333333333334</ele><time>2026-04-29T15:27:47Z</time></trkpt><trkpt lat="43.434889888220496" lon="11.509595949558783"><ele>688.0</ele><time>2026-04-29T15:27:48Z</time></trkpt><trkpt lat="43.435050547182335" lon="11.509506560660272"><ele>688.0</ele><time>2026-04-29T15:27:49Z</time></trkpt><trkpt lat="43.435216511607464" lon="11.509427270595202"><ele>688.0</ele><time>2026-04-29T15:27:50Z</time></trkpt><trkpt lat="43.435371237182" lon="11.509349519028055"><ele>688.0</ele><time>2026-04-29T15:27:51Z</time></trkpt><trkpt lat="43.43550060347302" lon="11.50928200119452"><ele>687.5</ele><time>2026-04-29T15:27:52Z</time></trkpt><trkpt lat="43.43561045818055" lon="11.509216847405535"><ele>687.0</ele><time>2026-04-29T15:27:53Z</time></trkpt><trkpt lat="43.435704345235024" lon="11.509149263472473"><ele>686.5</ele><time>2026-04-29T15:27:54Z</time></trkpt><trkpt lat="43.43579093345085" lon="11.509062870978383"><ele>686.0</ele><time>2026-04-29T15:27:55Z</time></trkpt><trkpt lat="43.435867071646385" lon="11.508934593348162"><ele>686.0</ele><time>2026-04-29T15:27:56Z</time></trkpt><trkpt lat="43.43593949989269" lon="11.50877279383358"><ele>686.0</ele><time>2026-04-29T15:27:57Z</time></trkpt><trkpt lat="43.43600759912274" lon="11.508586578549213"><ele>686.0</ele><time>2026-04-29T15:27:58Z</time></trkpt><trkpt lat="43.436076114096174" lon="11.50838939952345"><ele>686.0</ele><time>2026-04-29T15:27:59Z</time></trkpt><trkpt lat="43.436155998911964" lon="11.508177963150676"><ele>686.3333333333333</ele><time>2026-04-29T15:27:59.999Z</time></trkpt><trkpt lat="43.43623547420034" lon="11.50796600268739"><ele>686.6666666666666</ele><time>2026-04-29T15:28:00.999Z</time></trkpt><trkpt lat="43.43633169492818" lon="11.507765833084187"><ele>687.0</ele><time>2026-04-29T15:28:02Z</time></trkpt><trkpt lat="43.43641546939863" lon="11.507562798993462"><ele>683.3333333333334</ele><time>2026-04-29T15:28:03Z</time></trkpt><trkpt lat="43.43649972010921" lon="11.507359010203214"><ele>679.6666666666667</ele><time>2026-04-29T15:28:04Z</time></trkpt><trkpt lat="43.43657769027532" lon="11.507164224486194"><ele>676.0</ele><time>2026-04-29T15:28:05Z</time></trkpt><trkpt lat="43.436639376433675" lon="11.506996735664444"><ele>675.25</ele><time>2026-04-29T15:28:06Z</time></trkpt><trkpt lat="43.43669394848028" lon="11.506842551161196"><ele>674.5</ele><time>2026-04-29T15:28:07Z</time></trkpt><trkpt lat="43.43673105705173" lon="11.506706816076447"><ele>673.75</ele><time>2026-04-29T15:28:08Z</time></trkpt><trkpt lat="43.436759589690226" lon="11.506569629614024"><ele>673.0</ele><time>2026-04-29T15:28:09Z</time></trkpt><trkpt lat="43.43675374972741" lon="11.506399370077192"><ele>673.25</ele><time>2026-04-29T15:28:10Z</time></trkpt><trkpt lat="43.43668497238719" lon="11.506220630097006"><ele>673.5</ele><time>2026-04-29T15:28:11Z</time></trkpt><trkpt lat="43.43664311097464" lon="11.506020205163075"><ele>673.75</ele><time>2026-04-29T15:28:12Z</time></trkpt><trkpt lat="43.43660468416021" lon="11.505824117616644"><ele>674.0</ele><time>2026-04-29T15:28:13Z</time></trkpt><trkpt lat="43.436616449716986" lon="11.5056419149621"><ele>674.0</ele><time>2026-04-29T15:28:14Z</time></trkpt><trkpt lat="43.43662653365141" lon="11.50547696987792"><ele>674.0</ele><time>2026-04-29T15:28:15Z</time></trkpt><trkpt lat="43.436650177598025" lon="11.505321302299478"><ele>674.0</ele><time>2026-04-29T15:28:16Z</time></trkpt><trkpt lat="43.43670404891007" lon="11.505189389403201"><ele>674.0</ele><time>2026-04-29T15:28:17Z</time></trkpt><trkpt lat="43.43677906568508" lon="11.505076035527805"><ele>675.0</ele><time>2026-04-29T15:28:18Z</time></trkpt><trkpt lat="43.43688875274543" lon="11.504990176884089"><ele>676.0</ele><time>2026-04-29T15:28:19Z</time></trkpt><trkpt lat="43.43701486509629" lon="11.504849097328947"><ele>677.0</ele><time>2026-04-29T15:28:20Z</time></trkpt><trkpt lat="43.43711995313718" lon="11.504703674084926"><ele>678.0</ele><time>2026-04-29T15:28:21Z</time></trkpt><trkpt lat="43.4372052847466" lon="11.504578653639685"><ele>678.0</ele><time>2026-04-29T15:28:22Z</time></trkpt><trkpt lat="43.43727978724442" lon="11.504483715091022"><ele>678.0</ele><time>2026-04-29T15:28:23Z</time></trkpt><trkpt lat="43.43735934103429" lon="11.50440903633475"><ele>678.0</ele><time>2026-04-29T15:28:24Z</time></trkpt><trkpt lat="43.43744586916418" lon="11.504400630728226"><ele>678.0</ele><time>2026-04-29T15:28:25Z</time></trkpt><trkpt lat="43.4375298062317" lon="11.504432217968148"><ele>678.0</ele><time>2026-04-29T15:28:26Z</time></trkpt><trkpt lat="43.43761580462985" lon="11.50449600009369"><ele>681.75</ele><time>2026-04-29T15:28:27Z</time></trkpt><trkpt lat="43.437722251676895" lon="11.504591630291916"><ele>685.5</ele><time>2026-04-29T15:28:28Z</time></trkpt><trkpt lat="43.43784095287567" lon="11.504672596710671"><ele>689.25</ele><time>2026-04-29T15:28:29Z</time></trkpt><trkpt lat="43.43795036923943" lon="11.504713610458946"><ele>693.0</ele><time>2026-04-29T15:28:30Z</time></trkpt><trkpt lat="43.438054939327166" lon="11.504719461707797"><ele>694.2</ele><time>2026-04-29T15:28:31Z</time></trkpt><trkpt lat="43.43815621756485" lon="11.50468807028513"><ele>695.4</ele><time>2026-04-29T15:28:32Z</time></trkpt><trkpt lat="43.43825264411739" lon="11.50462122417681"><ele>696.6</ele><time>2026-04-29T15:28:33Z</time></trkpt><trkpt lat="43.43834057279368" lon="11.504526327589588"><ele>697.8000000000001</ele><time>2026-04-29T15:28:34Z</time></trkpt><trkpt lat="43.43844317847092" lon="11.504436749854804"><ele>699.0</ele><time>2026-04-29T15:28:35Z</time></trkpt><trkpt lat="43.43851739108831" lon="11.504323422754394"><ele>699.0</ele><time>2026-04-29T15:28:36Z</time></trkpt><trkpt lat="43.43855465960236" lon="11.504196881398743"><ele>699.0</ele><time>2026-04-29T15:28:37Z</time></trkpt><trkpt lat="43.43855699451416" lon="11.50407361470217"><ele>699.0</ele><time>2026-04-29T15:28:38Z</time></trkpt><trkpt lat="43.438540935605616" lon="11.503968160632862"><ele>699.0</ele><time>2026-04-29T15:28:39Z</time></trkpt><trkpt lat="43.43844855777586" lon="11.503901175047474"><ele>699.0</ele><time>2026-04-29T15:28:40Z</time></trkpt><trkpt lat="43.438366970945054" lon="11.503843259331994"><ele>699.0</ele><time>2026-04-29T15:28:41Z</time></trkpt><trkpt lat="43.43827898969324" lon="11.503765854004431"><ele>699.0</ele><time>2026-04-29T15:28:42Z</time></trkpt><trkpt lat="43.43821048394508" lon="11.503674983769214"><ele>699.0</ele><time>2026-04-29T15:28:43Z</time></trkpt><trkpt lat="43.438200762364566" lon="11.503542688368574"><ele>699.0</ele><time>2026-04-29T15:28:44Z</time></trkpt><trkpt lat="43.438164755507735" lon="11.503414654318956"><ele>699.0</ele><time>2026-04-29T15:28:45Z</time></trkpt><trkpt lat="43.43813223682559" lon="11.503267715139938"><ele>701.0</ele><time>2026-04-29T15:28:46Z</time></trkpt><trkpt lat="43.4381141214686" lon="11.503108748520015"><ele>703.0</ele><time>2026-04-29T15:28:47Z</time></trkpt><trkpt lat="43.43810329522995" lon="11.502954552475776"><ele>705.0</ele><time>2026-04-29T15:28:48Z</time></trkpt><trkpt lat="43.43809023622467" lon="11.502802423550497"><ele>707.0</ele><time>2026-04-29T15:28:49Z</time></trkpt><trkpt lat="43.43811248883456" lon="11.502674329596724"><ele>709.0</ele><time>2026-04-29T15:28:50Z</time></trkpt><trkpt lat="43.43812815717441" lon="11.502585801465404"><ele>709.0</ele><time>2026-04-29T15:28:51Z</time></trkpt><trkpt lat="43.43815854739092" lon="11.502505521027484"><ele>709.0</ele><time>2026-04-29T15:28:53Z</time></trkpt><trkpt lat="43.43821538759829" lon="11.502578309317029"><ele>709.0</ele><time>2026-04-29T15:28:56Z</time></trkpt><trkpt lat="43.438273474000994" lon="11.502775940880802"><ele>709.0</ele><time>2026-04-29T15:28:58Z</time></trkpt><trkpt lat="43.43830855910326" lon="11.50292345723564"><ele>709.0</ele><time>2026-04-29T15:28:59Z</time></trkpt><trkpt lat="43.43838142837373" lon="11.503040277328369"><ele>709.0</ele><time>2026-04-29T15:29:00Z</time></trkpt><trkpt lat="43.43848014665854" lon="11.503089524106622"><ele>709.0</ele><time>2026-04-29T15:29:01Z</time></trkpt><trkpt lat="43.43857716426623" lon="11.50307680574589"><ele>709.0</ele><time>2026-04-29T15:29:02Z</time></trkpt><trkpt lat="43.43868509087113" lon="11.503023741618001"><ele>709.0</ele><time>2026-04-29T15:29:03Z</time></trkpt><trkpt lat="43.43880661994617" lon="11.502953782673156"><ele>709.0</ele><time>2026-04-29T15:29:04Z</time></trkpt><trkpt lat="43.43893682408296" lon="11.502890510621665"><ele>711.75</ele><time>2026-04-29T15:29:05Z</time></trkpt><trkpt lat="43.43907313042556" lon="11.502849182383722"><ele>714.5</ele><time>2026-04-29T15:29:06Z</time></trkpt><trkpt lat="43.43920983304769" lon="11.502829573101964"><ele>717.25</ele><time>2026-04-29T15:29:07Z</time></trkpt><trkpt lat="43.4393486723803" lon="11.502833457987103"><ele>720.0</ele><time>2026-04-29T15:29:08Z</time></trkpt><trkpt lat="43.439448070341975" lon="11.502873522570331"><ele>722.2</ele><time>2026-04-29T15:29:09Z</time></trkpt><trkpt lat="43.439507236286424" lon="11.502954521221662"><ele>724.4</ele><time>2026-04-29T15:29:10Z</time></trkpt><trkpt lat="43.43952806205361" lon="11.503069129092518"><ele>726.5999999999999</ele><time>2026-04-29T15:29:11Z</time></trkpt><trkpt lat="43.43950779858273" lon="11.503193803179476"><ele>728.8</ele><time>2026-04-29T15:29:12Z</time></trkpt><trkpt lat="43.43946356885667" lon="11.503363115863458"><ele>731.0</ele><time>2026-04-29T15:29:13Z</time></trkpt><trkpt lat="43.43942450961418" lon="11.503559557731423"><ele>731.0</ele><time>2026-04-29T15:29:14Z</time></trkpt><trkpt lat="43.439416835029995" lon="11.503736802526301"><ele>731.0</ele><time>2026-04-29T15:29:15Z</time></trkpt><trkpt lat="43.439420789954305" lon="11.50395791965037"><ele>731.0</ele><time>2026-04-29T15:29:16Z</time></trkpt><trkpt lat="43.439445509889175" lon="11.504160268064373"><ele>731.0</ele><time>2026-04-29T15:29:17Z</time></trkpt><trkpt lat="43.43950428490945" lon="11.504338418596385"><ele>731.0</ele><time>2026-04-29T15:29:18Z</time></trkpt><trkpt lat="43.439595662267386" lon="11.504476470668296"><ele>731.0</ele><time>2026-04-29T15:29:19Z</time></trkpt><trkpt lat="43.43972130621792" lon="11.504595548514803"><ele>731.0</ele><time>2026-04-29T15:29:20Z</time></trkpt><trkpt lat="43.43986390304333" lon="11.504714907984875"><ele>737.6666666666666</ele><time>2026-04-29T15:29:21Z</time></trkpt><trkpt lat="43.44000840859445" lon="11.504842210901952"><ele>744.3333333333334</ele><time>2026-04-29T15:29:22Z</time></trkpt><trkpt lat="43.4401591874361" lon="11.504968484814055"><ele>751.0</ele><time>2026-04-29T15:29:23Z</time></trkpt><trkpt lat="43.44031457285955" lon="11.505092936576"><ele>751.0</ele><time>2026-04-29T15:29:24Z</time></trkpt><trkpt lat="43.44045964505397" lon="11.505244370935602"><ele>751.0</ele><time>2026-04-29T15:29:25Z</time></trkpt><trkpt lat="43.44060366549886" lon="11.505420710411949"><ele>751.0</ele><time>2026-04-29T15:29:26Z</time></trkpt><trkpt lat="43.44074630671623" lon="11.50560701880876"><ele>754.0</ele><time>2026-04-29T15:29:27Z</time></trkpt><trkpt lat="43.44089154675402" lon="11.5057851721187"><ele>757.0</ele><time>2026-04-29T15:29:28Z</time></trkpt><trkpt lat="43.44100904347432" lon="11.505940540822008"><ele>760.0</ele><time>2026-04-29T15:29:29Z</time></trkpt><trkpt lat="43.44112434025347" lon="11.506098346298486"><ele>759.6666666666667</ele><time>2026-04-29T15:29:30Z</time></trkpt><trkpt lat="43.44123365568332" lon="11.506266306195915"><ele>759.3333333333334</ele><time>2026-04-29T15:29:31Z</time></trkpt><trkpt lat="43.441303217648645" lon="11.506458730073776"><ele>759.0</ele><time>2026-04-29T15:29:32.001Z</time></trkpt><trkpt lat="43.44134476511554" lon="11.506662146795428"><ele>763.0</ele><time>2026-04-29T15:29:33.001Z</time></trkpt><trkpt lat="43.44139706180549" lon="11.506858839116791"><ele>767.0</ele><time>2026-04-29T15:29:34.001Z</time></trkpt><trkpt lat="43.4414751462433" lon="11.50704207890321"><ele>771.0</ele><time>2026-04-29T15:29:35.001Z</time></trkpt><trkpt lat="43.44157295539041" lon="11.507219424895938"><ele>771.0</ele><time>2026-04-29T15:29:36.001Z</time></trkpt><trkpt lat="43.44170122081863" lon="11.507362529497613"><ele>771.0</ele><time>2026-04-29T15:29:37.001Z</time></trkpt><trkpt lat="43.44184403265655" lon="11.507459359555217"><ele>771.0</ele><time>2026-04-29T15:29:38.001Z</time></trkpt><trkpt lat="43.44199342143147" lon="11.5075092948733"><ele>777.0</ele><time>2026-04-29T15:29:39.001Z</time></trkpt><trkpt lat="43.442147444472184" lon="11.50750956921834"><ele>783.0</ele><time>2026-04-29T15:29:40.001Z</time></trkpt><trkpt lat="43.442307289765736" lon="11.507464659868122"><ele>789.0</ele><time>2026-04-29T15:29:41.001Z</time></trkpt><trkpt lat="43.442461927757165" lon="11.507453795624542"><ele>789.0</ele><time>2026-04-29T15:29:42.001Z</time></trkpt><trkpt lat="43.442591964716286" lon="11.50740701114557"><ele>789.0</ele><time>2026-04-29T15:29:43.001Z</time></trkpt><trkpt lat="43.44270061045715" lon="11.507393023738178"><ele>789.0</ele><time>2026-04-29T15:29:44.001Z</time></trkpt><trkpt lat="43.44277078673205" lon="11.507377805311426"><ele>789.0</ele><time>2026-04-29T15:29:45.001Z</time></trkpt><trkpt lat="43.442839648112916" lon="11.50737534300811"><ele>789.0</ele><time>2026-04-29T15:29:47.001Z</time></trkpt><trkpt lat="43.44282649180563" lon="11.50712627652173"><ele>790.4000000000001</ele><time>2026-04-29T15:29:50.001Z</time></trkpt><trkpt lat="43.44280807857561" lon="11.507016382368683"><ele>791.8</ele><time>2026-04-29T15:29:51.001Z</time></trkpt><trkpt lat="43.442805791031574" lon="11.506889038321843"><ele>793.2</ele><time>2026-04-29T15:29:52Z</time></trkpt><trkpt lat="43.442802549418694" lon="11.506743964095573"><ele>794.5999999999999</ele><time>2026-04-29T15:29:53Z</time></trkpt><trkpt lat="43.44281331159561" lon="11.506596830025149"><ele>796.0</ele><time>2026-04-29T15:29:54Z</time></trkpt><trkpt lat="43.44284147160806" lon="11.506461313088373"><ele>796.0</ele><time>2026-04-29T15:29:55Z</time></trkpt><trkpt lat="43.442914690592666" lon="11.50633929433917"><ele>796.0</ele><time>2026-04-29T15:29:56Z</time></trkpt><trkpt lat="43.443017017912055" lon="11.506230605234167"><ele>796.0</ele><time>2026-04-29T15:29:57Z</time></trkpt><trkpt lat="43.443143281490364" lon="11.506144058138435"><ele>796.0</ele><time>2026-04-29T15:29:58Z</time></trkpt><trkpt lat="43.44328662029615" lon="11.50606395769983"><ele>792.75</ele><time>2026-04-29T15:29:59Z</time></trkpt><trkpt lat="43.44342293354577" lon="11.505972116553007"><ele>789.5</ele><time>2026-04-29T15:30:00Z</time></trkpt><trkpt lat="43.443536384185215" lon="11.505862473608602"><ele>786.25</ele><time>2026-04-29T15:30:01Z</time></trkpt><trkpt lat="43.44365648072157" lon="11.505785504753758"><ele>783.0</ele><time>2026-04-29T15:30:02Z</time></trkpt><trkpt lat="43.443770065198535" lon="11.505763960012544"><ele>782.25</ele><time>2026-04-29T15:30:03Z</time></trkpt><trkpt lat="43.443861886010296" lon="11.505838242367235"><ele>781.5</ele><time>2026-04-29T15:30:04Z</time></trkpt><trkpt lat="43.44397517272432" lon="11.505885620457827"><ele>780.75</ele><time>2026-04-29T15:30:05Z</time></trkpt><trkpt lat="43.444092193255116" lon="11.50595563352364"><ele>780.0</ele><time>2026-04-29T15:30:06Z</time></trkpt><trkpt lat="43.444211029802645" lon="11.506012386670218"><ele>780.0</ele><time>2026-04-29T15:30:07Z</time></trkpt><trkpt lat="43.444320070218325" lon="11.506032636100567"><ele>780.0</ele><time>2026-04-29T15:30:08Z</time></trkpt><trkpt lat="43.44443596155107" lon="11.506035844939708"><ele>780.0</ele><time>2026-04-29T15:30:09Z</time></trkpt><trkpt lat="43.44454173726679" lon="11.505953319824874"><ele>780.0</ele><time>2026-04-29T15:30:10Z</time></trkpt><trkpt lat="43.44461507992104" lon="11.505827968076769"><ele>778.75</ele><time>2026-04-29T15:30:11Z</time></trkpt><trkpt lat="43.444680599812315" lon="11.505687861049774"><ele>777.5</ele><time>2026-04-29T15:30:12Z</time></trkpt><trkpt lat="43.44474075121759" lon="11.505535301983187"><ele>776.25</ele><time>2026-04-29T15:30:13Z</time></trkpt><trkpt lat="43.444817205481996" lon="11.505412338355805"><ele>775.0</ele><time>2026-04-29T15:30:14Z</time></trkpt><trkpt lat="43.44486382132814" lon="11.505284010848861"><ele>774.9999999999999</ele><time>2026-04-29T15:30:15Z</time></trkpt><trkpt lat="43.44492720252817" lon="11.505191020712372"><ele>775.0</ele><time>2026-04-29T15:30:16Z</time></trkpt><trkpt lat="43.4450091854705" lon="11.50514185827142"><ele>775.0</ele><time>2026-04-29T15:30:17Z</time></trkpt><trkpt lat="43.44508744671573" lon="11.505102186687118"><ele>775.0</ele><time>2026-04-29T15:30:18Z</time></trkpt><trkpt lat="43.44516561460819" lon="11.505074183191816"><ele>774.9999999999999</ele><time>2026-04-29T15:30:19Z</time></trkpt><trkpt lat="43.445256692983584" lon="11.505052929242408"><ele>775.0</ele><time>2026-04-29T15:30:20Z</time></trkpt><trkpt lat="43.4453619066392" lon="11.505052757844304"><ele>779.5</ele><time>2026-04-29T15:30:21Z</time></trkpt><trkpt lat="43.44548005594214" lon="11.505069881134489"><ele>784.0</ele><time>2026-04-29T15:30:22Z</time></trkpt><trkpt lat="43.44560462033058" lon="11.505081860456713"><ele>788.5</ele><time>2026-04-29T15:30:23Z</time></trkpt><trkpt lat="43.44571366964629" lon="11.505080667775664"><ele>793.0</ele><time>2026-04-29T15:30:24Z</time></trkpt><trkpt lat="43.44581710469081" lon="11.505028741354252"><ele>793.0</ele><time>2026-04-29T15:30:25Z</time></trkpt><trkpt lat="43.44589658172717" lon="11.504906855845437"><ele>793.0</ele><time>2026-04-29T15:30:26Z</time></trkpt><trkpt lat="43.44594950200969" lon="11.504751504983147"><ele>793.0</ele><time>2026-04-29T15:30:27Z</time></trkpt><trkpt lat="43.445986038311744" lon="11.504563582217552"><ele>793.0</ele><time>2026-04-29T15:30:28Z</time></trkpt><trkpt lat="43.44603616273375" lon="11.504379006549167"><ele>794.25</ele><time>2026-04-29T15:30:29Z</time></trkpt><trkpt lat="43.446101509344786" lon="11.50423535786485"><ele>795.5</ele><time>2026-04-29T15:30:30Z</time></trkpt><trkpt lat="43.44619852062929" lon="11.504113620315527"><ele>796.75</ele><time>2026-04-29T15:30:31Z</time></trkpt><trkpt lat="43.44633311695096" lon="11.504037036881519"><ele>798.0</ele><time>2026-04-29T15:30:32Z</time></trkpt><trkpt lat="43.44644885899548" lon="11.503897090566246"><ele>790.6666666666667</ele><time>2026-04-29T15:30:33Z</time></trkpt><trkpt lat="43.446556163051284" lon="11.503720932814986"><ele>783.3333333333334</ele><time>2026-04-29T15:30:34Z</time></trkpt><trkpt lat="43.446641416894664" lon="11.50351231418456"><ele>776.0</ele><time>2026-04-29T15:30:35Z</time></trkpt><trkpt lat="43.44671808066459" lon="11.503337628165715"><ele>776.0</ele><time>2026-04-29T15:30:36Z</time></trkpt><trkpt lat="43.44681788252601" lon="11.50319147259443"><ele>776.0</ele><time>2026-04-29T15:30:37Z</time></trkpt><trkpt lat="43.44694708993543" lon="11.503087396742592"><ele>776.0</ele><time>2026-04-29T15:30:38Z</time></trkpt><trkpt lat="43.447072294696184" lon="11.503027138604287"><ele>776.0</ele><time>2026-04-29T15:30:39Z</time></trkpt><trkpt lat="43.447192832295144" lon="11.503020801386224"><ele>777.75</ele><time>2026-04-29T15:30:40Z</time></trkpt><trkpt lat="43.44731503082036" lon="11.503066092808275"><ele>779.5</ele><time>2026-04-29T15:30:41Z</time></trkpt><trkpt lat="43.447453280742174" lon="11.503138252904856"><ele>781.25</ele><time>2026-04-29T15:30:42Z</time></trkpt><trkpt lat="43.44760382233642" lon="11.50322590557984"><ele>783.0</ele><time>2026-04-29T15:30:43Z</time></trkpt><trkpt lat="43.44776787921854" lon="11.50330149211364"><ele>783.0</ele><time>2026-04-29T15:30:44Z</time></trkpt><trkpt lat="43.44792964817753" lon="11.503359421138473"><ele>783.0</ele><time>2026-04-29T15:30:45Z</time></trkpt><trkpt lat="43.44808894170355" lon="11.503397640183682"><ele>783.0</ele><time>2026-04-29T15:30:46Z</time></trkpt><trkpt lat="43.44823146184117" lon="11.503408253705599"><ele>781.0</ele><time>2026-04-29T15:30:47Z</time></trkpt><trkpt lat="43.44836445428887" lon="11.503392716853625"><ele>779.0</ele><time>2026-04-29T15:30:48Z</time></trkpt><trkpt lat="43.44847581797213" lon="11.503307769799296"><ele>777.0</ele><time>2026-04-29T15:30:49Z</time></trkpt><trkpt lat="43.44856885751119" lon="11.503163526486627"><ele>775.0</ele><time>2026-04-29T15:30:50Z</time></trkpt><trkpt lat="43.448657139177165" lon="11.502994080996361"><ele>769.75</ele><time>2026-04-29T15:30:51Z</time></trkpt><trkpt lat="43.44875107505146" lon="11.502860270727297"><ele>764.5</ele><time>2026-04-29T15:30:52Z</time></trkpt><trkpt lat="43.44886957355122" lon="11.502787326127395"><ele>759.25</ele><time>2026-04-29T15:30:53Z</time></trkpt><trkpt lat="43.44897305704053" lon="11.50270203842526"><ele>754.0</ele><time>2026-04-29T15:30:54Z</time></trkpt><trkpt lat="43.44908016283887" lon="11.502651530656362"><ele>754.0</ele><time>2026-04-29T15:30:55Z</time></trkpt><trkpt lat="43.44919007415012" lon="11.502591115890125"><ele>754.0</ele><time>2026-04-29T15:30:56Z</time></trkpt><trkpt lat="43.44931345211252" lon="11.502510915118568"><ele>754.0</ele><time>2026-04-29T15:30:57Z</time></trkpt><trkpt lat="43.449445831394755" lon="11.502425319535988"><ele>754.0</ele><time>2026-04-29T15:30:58Z</time></trkpt><trkpt lat="43.44959220857472" lon="11.502342820441319"><ele>753.0</ele><time>2026-04-29T15:30:59Z</time></trkpt><trkpt lat="43.44974394038742" lon="11.50226114857134"><ele>752.0</ele><time>2026-04-29T15:31:00Z</time></trkpt><trkpt lat="43.44988090617776" lon="11.502182214560722"><ele>751.0</ele><time>2026-04-29T15:31:01Z</time></trkpt><trkpt lat="43.44998748496742" lon="11.502108020924634"><ele>750.0</ele><time>2026-04-29T15:31:02Z</time></trkpt><trkpt lat="43.450068163460145" lon="11.502024514256853"><ele>750.0</ele><time>2026-04-29T15:31:03Z</time></trkpt><trkpt lat="43.45011135895339" lon="11.50189758790018"><ele>750.0</ele><time>2026-04-29T15:31:04Z</time></trkpt><trkpt lat="43.45010412095976" lon="11.501738094870255"><ele>750.0</ele><time>2026-04-29T15:31:05Z</time></trkpt><trkpt lat="43.45004797370142" lon="11.501555834464519"><ele>750.0</ele><time>2026-04-29T15:31:06Z</time></trkpt><trkpt lat="43.45001987388612" lon="11.501384384919692"><ele>746.75</ele><time>2026-04-29T15:31:07Z</time></trkpt><trkpt lat="43.450039212926335" lon="11.501202677013355"><ele>743.5</ele><time>2026-04-29T15:31:08Z</time></trkpt><trkpt lat="43.45010491619907" lon="11.501008889183858"><ele>740.25</ele><time>2026-04-29T15:31:09Z</time></trkpt><trkpt lat="43.450174163852836" lon="11.50084184588134"><ele>737.0</ele><time>2026-04-29T15:31:10Z</time></trkpt><trkpt lat="43.45020330959296" lon="11.500697051451574"><ele>737.0</ele><time>2026-04-29T15:31:11Z</time></trkpt><trkpt lat="43.450186514130976" lon="11.500560481875041"><ele>737.0</ele><time>2026-04-29T15:31:12Z</time></trkpt><trkpt lat="43.45012701384168" lon="11.500443192840958"><ele>737.0</ele><time>2026-04-29T15:31:13Z</time></trkpt><trkpt lat="43.450019112301185" lon="11.500320411059608"><ele>737.0</ele><time>2026-04-29T15:31:14Z</time></trkpt><trkpt lat="43.449895585819625" lon="11.500181501095184"><ele>738.5</ele><time>2026-04-29T15:31:15Z</time></trkpt><trkpt lat="43.449797556192486" lon="11.500036031928332"><ele>740.0</ele><time>2026-04-29T15:31:16Z</time></trkpt><trkpt lat="43.449736146368494" lon="11.499879463322227"><ele>741.5</ele><time>2026-04-29T15:31:17Z</time></trkpt><trkpt lat="43.449709984273056" lon="11.499712531628365"><ele>743.0</ele><time>2026-04-29T15:31:18Z</time></trkpt><trkpt lat="43.44970504715356" lon="11.499497253031874"><ele>743.6666666666666</ele><time>2026-04-29T15:31:19Z</time></trkpt><trkpt lat="43.44969483925648" lon="11.499263330888976"><ele>744.3333333333334</ele><time>2026-04-29T15:31:20Z</time></trkpt><trkpt lat="43.44969461230688" lon="11.499044959522458"><ele>745.0</ele><time>2026-04-29T15:31:21Z</time></trkpt><trkpt lat="43.44972448200453" lon="11.498821854029247"><ele>742.0</ele><time>2026-04-29T15:31:22Z</time></trkpt><trkpt lat="43.44978448314963" lon="11.498603787862121"><ele>739.0</ele><time>2026-04-29T15:31:23Z</time></trkpt><trkpt lat="43.44984025729213" lon="11.498408567522164"><ele>736.0</ele><time>2026-04-29T15:31:24.001Z</time></trkpt><trkpt lat="43.449849959835895" lon="11.49822641909036"><ele>736.0</ele><time>2026-04-29T15:31:25.001Z</time></trkpt><trkpt lat="43.449805913489875" lon="11.498069094225608"><ele>736.0</ele><time>2026-04-29T15:31:26.001Z</time></trkpt><trkpt lat="43.44970986530516" lon="11.497927858880619"><ele>736.0</ele><time>2026-04-29T15:31:27.001Z</time></trkpt><trkpt lat="43.44958058216387" lon="11.49780215536347"><ele>736.0</ele><time>2026-04-29T15:31:28.001Z</time></trkpt><trkpt lat="43.449478808740466" lon="11.497676706592115"><ele>726.6666666666667</ele><time>2026-04-29T15:31:29.001Z</time></trkpt><trkpt lat="43.44941430474653" lon="11.497501972284207"><ele>717.3333333333334</ele><time>2026-04-29T15:31:30.001Z</time></trkpt><trkpt lat="43.44937039051784" lon="11.497282261384644"><ele>708.0</ele><time>2026-04-29T15:31:31.001Z</time></trkpt><trkpt lat="43.449323518345196" lon="11.497043225152948"><ele>708.0</ele><time>2026-04-29T15:31:32.001Z</time></trkpt><trkpt lat="43.449266920184655" lon="11.496791673961514"><ele>708.0</ele><time>2026-04-29T15:31:33.001Z</time></trkpt><trkpt lat="43.449194273748276" lon="11.496536786601574"><ele>708.0</ele><time>2026-04-29T15:31:34.001Z</time></trkpt><trkpt lat="43.44910627553502" lon="11.496276551586927"><ele>706.6666666666666</ele><time>2026-04-29T15:31:35.001Z</time></trkpt><trkpt lat="43.4490306534656" lon="11.496037190270513"><ele>705.3333333333333</ele><time>2026-04-29T15:31:36.001Z</time></trkpt><trkpt lat="43.44898041918839" lon="11.495813819718894"><ele>704.0</ele><time>2026-04-29T15:31:37.001Z</time></trkpt><trkpt lat="43.44895892556642" lon="11.495588225888772"><ele>702.0</ele><time>2026-04-29T15:31:38.001Z</time></trkpt><trkpt lat="43.44895746567366" lon="11.495343375734093"><ele>700.0</ele><time>2026-04-29T15:31:39.001Z</time></trkpt><trkpt lat="43.44897308498054" lon="11.495090455166826"><ele>698.0</ele><time>2026-04-29T15:31:40.001Z</time></trkpt><trkpt lat="43.448989054742285" lon="11.49483426627268"><ele>697.6666666666666</ele><time>2026-04-29T15:31:41.001Z</time></trkpt><trkpt lat="43.449007663350386" lon="11.494572718147724"><ele>697.3333333333334</ele><time>2026-04-29T15:31:42.001Z</time></trkpt><trkpt lat="43.44902099996447" lon="11.49430679702008"><ele>697.0</ele><time>2026-04-29T15:31:43.001Z</time></trkpt><trkpt lat="43.44904405805156" lon="11.494052435063498"><ele>697.0</ele><time>2026-04-29T15:31:44.001Z</time></trkpt><trkpt lat="43.449088720437715" lon="11.493837084415286"><ele>697.0</ele><time>2026-04-29T15:31:45.001Z</time></trkpt><trkpt lat="43.44911963735452" lon="11.493635907850782"><ele>697.0</ele><time>2026-04-29T15:31:46.001Z</time></trkpt><trkpt lat="43.449102863694435" lon="11.493432016510583"><ele>697.0</ele><time>2026-04-29T15:31:47.001Z</time></trkpt><trkpt lat="43.44901748006112" lon="11.49323321296118"><ele>697.0</ele><time>2026-04-29T15:31:48.001Z</time></trkpt><trkpt lat="43.44890022854833" lon="11.493024313282076"><ele>697.0</ele><time>2026-04-29T15:31:49.001Z</time></trkpt><trkpt lat="43.44878018531295" lon="11.492796629798491"><ele>697.0</ele><time>2026-04-29T15:31:50.001Z</time></trkpt><trkpt lat="43.44867982519256" lon="11.492545085853862"><ele>697.0</ele><time>2026-04-29T15:31:51.001Z</time></trkpt><trkpt lat="43.44860819718797" lon="11.492259181378415"><ele>697.0</ele><time>2026-04-29T15:31:52.001Z</time></trkpt><trkpt lat="43.448555783571116" lon="11.491993047348421"><ele>694.0</ele><time>2026-04-29T15:31:53.001Z</time></trkpt><trkpt lat="43.44851617955601" lon="11.491765404501423"><ele>691.0</ele><time>2026-04-29T15:31:54.001Z</time></trkpt><trkpt lat="43.44849988332121" lon="11.491549211757954"><ele>688.0</ele><time>2026-04-29T15:31:55.001Z</time></trkpt><trkpt lat="43.44852738713005" lon="11.491333035446289"><ele>687.0</ele><time>2026-04-29T15:31:56.001Z</time></trkpt><trkpt lat="43.448569974577836" lon="11.49108645072217"><ele>686.0</ele><time>2026-04-29T15:31:57Z</time></trkpt><trkpt lat="43.448595254651835" lon="11.490823763379531"><ele>685.0</ele><time>2026-04-29T15:31:58Z</time></trkpt><trkpt lat="43.44859345332977" lon="11.49053851422914"><ele>686.0</ele><time>2026-04-29T15:31:59Z</time></trkpt><trkpt lat="43.44858040159544" lon="11.490230054451287"><ele>687.0</ele><time>2026-04-29T15:32:00Z</time></trkpt><trkpt lat="43.44856715639056" lon="11.489900289512093"><ele>690.0</ele><time>2026-04-29T15:32:01Z</time></trkpt><trkpt lat="43.4485596466052" lon="11.48956731682554"><ele>693.0</ele><time>2026-04-29T15:32:02Z</time></trkpt><trkpt lat="43.448555157578106" lon="11.489261051112251"><ele>693.0</ele><time>2026-04-29T15:32:03Z</time></trkpt><trkpt lat="43.44855354022635" lon="11.489000141759238"><ele>693.0</ele><time>2026-04-29T15:32:04Z</time></trkpt><trkpt lat="43.44853477507802" lon="11.48879807774257"><ele>693.0</ele><time>2026-04-29T15:32:05Z</time></trkpt><trkpt lat="43.4484850081868" lon="11.488619760199942"><ele>694.3333333333334</ele><time>2026-04-29T15:32:06Z</time></trkpt><trkpt lat="43.44839568011692" lon="11.48841611436664"><ele>695.6666666666667</ele><time>2026-04-29T15:32:07Z</time></trkpt><trkpt lat="43.44829789838224" lon="11.488182503938999"><ele>697.0</ele><time>2026-04-29T15:32:08Z</time></trkpt><trkpt lat="43.4482105041957" lon="11.48793415438872"><ele>696.3333333333334</ele><time>2026-04-29T15:32:09Z</time></trkpt><trkpt lat="43.448122111788656" lon="11.487712615362234"><ele>695.6666666666666</ele><time>2026-04-29T15:32:10Z</time></trkpt><trkpt lat="43.448009317427655" lon="11.48752113446648"><ele>695.0</ele><time>2026-04-29T15:32:11Z</time></trkpt><trkpt lat="43.44787457260604" lon="11.48736243765596"><ele>695.0</ele><time>2026-04-29T15:32:12Z</time></trkpt><trkpt lat="43.44774357342693" lon="11.487257459661665"><ele>695.0</ele><time>2026-04-29T15:32:13Z</time></trkpt><trkpt lat="43.44761595714217" lon="11.487202345860219"><ele>695.0</ele><time>2026-04-29T15:32:14Z</time></trkpt><trkpt lat="43.44747881639241" lon="11.487205860497033"><ele>695.0</ele><time>2026-04-29T15:32:15Z</time></trkpt><trkpt lat="43.447327965545355" lon="11.487217159715643"><ele>695.0</ele><time>2026-04-29T15:32:16Z</time></trkpt><trkpt lat="43.447175325150006" lon="11.48716363863458"><ele>695.0</ele><time>2026-04-29T15:32:17Z</time></trkpt><trkpt lat="43.44704331204114" lon="11.48703791092437"><ele>695.0</ele><time>2026-04-29T15:32:18Z</time></trkpt><trkpt lat="43.446932922506946" lon="11.486872020470663"><ele>691.0</ele><time>2026-04-29T15:32:19Z</time></trkpt><trkpt lat="43.446836643629126" lon="11.486669331769807"><ele>687.0</ele><time>2026-04-29T15:32:20Z</time></trkpt><trkpt lat="43.44673564167004" lon="11.486442698573779"><ele>683.0</ele><time>2026-04-29T15:32:21Z</time></trkpt><trkpt lat="43.44662492714635" lon="11.486207265326897"><ele>680.3333333333333</ele><time>2026-04-29T15:32:22Z</time></trkpt><trkpt lat="43.44651683709332" lon="11.485970260182055"><ele>677.6666666666666</ele><time>2026-04-29T15:32:23Z</time></trkpt><trkpt lat="43.44641890731246" lon="11.485724182598414"><ele>675.0</ele><time>2026-04-29T15:32:24Z</time></trkpt><trkpt lat="43.44634184812445" lon="11.485459925102473"><ele>672.6666666666666</ele><time>2026-04-29T15:32:25Z</time></trkpt><trkpt lat="43.4463044780975" lon="11.485186645830755"><ele>670.3333333333333</ele><time>2026-04-29T15:32:26Z</time></trkpt><trkpt lat="43.44630092232127" lon="11.484913358295032"><ele>668.0</ele><time>2026-04-29T15:32:27Z</time></trkpt><trkpt lat="43.44632396700769" lon="11.484653866718858"><ele>668.0</ele><time>2026-04-29T15:32:28Z</time></trkpt><trkpt lat="43.44632417389517" lon="11.484410192499487"><ele>668.0</ele><time>2026-04-29T15:32:29Z</time></trkpt><trkpt lat="43.44628275642381" lon="11.48415480876831"><ele>668.0</ele><time>2026-04-29T15:32:30Z</time></trkpt><trkpt lat="43.44621123575984" lon="11.483885227970813"><ele>664.5</ele><time>2026-04-29T15:32:31Z</time></trkpt><trkpt lat="43.446122468481114" lon="11.483607314683193"><ele>661.0</ele><time>2026-04-29T15:32:32Z</time></trkpt><trkpt lat="43.44602455200938" lon="11.483309732191954"><ele>661.0</ele><time>2026-04-29T15:32:33Z</time></trkpt><trkpt lat="43.44592233398332" lon="11.48300027982977"><ele>661.0</ele><time>2026-04-29T15:32:34Z</time></trkpt><trkpt lat="43.445818448804125" lon="11.482695872799008"><ele>658.5</ele><time>2026-04-29T15:32:35Z</time></trkpt><trkpt lat="43.44571340445877" lon="11.48238754963511"><ele>656.0</ele><time>2026-04-29T15:32:36Z</time></trkpt><trkpt lat="43.4456151966778" lon="11.482095284882817"><ele>653.6666666666666</ele><time>2026-04-29T15:32:37Z</time></trkpt><trkpt lat="43.44552181760196" lon="11.481819664129052"><ele>651.3333333333334</ele><time>2026-04-29T15:32:38Z</time></trkpt><trkpt lat="43.445436864295374" lon="11.481575081997358"><ele>649.0</ele><time>2026-04-29T15:32:39Z</time></trkpt><trkpt lat="43.44536610147632" lon="11.481377574308961"><ele>651.25</ele><time>2026-04-29T15:32:40Z</time></trkpt><trkpt lat="43.445303400349886" lon="11.481231276526337"><ele>653.5</ele><time>2026-04-29T15:32:41Z</time></trkpt><trkpt lat="43.445216879395694" lon="11.48111725286734"><ele>655.75</ele><time>2026-04-29T15:32:42Z</time></trkpt><trkpt lat="43.44509336800552" lon="11.481028723709667"><ele>658.0</ele><time>2026-04-29T15:32:43Z</time></trkpt><trkpt lat="43.444938936228425" lon="11.480952689861661"><ele>658.0</ele><time>2026-04-29T15:32:44Z</time></trkpt><trkpt lat="43.44475090836237" lon="11.48087117960948"><ele>658.0</ele><time>2026-04-29T15:32:45Z</time></trkpt><trkpt lat="43.444543475645936" lon="11.480774478450302"><ele>658.0</ele><time>2026-04-29T15:32:46Z</time></trkpt><trkpt lat="43.44432391795645" lon="11.480663542892492"><ele>659.0</ele><time>2026-04-29T15:32:47Z</time></trkpt><trkpt lat="43.444112791737545" lon="11.480566374021056"><ele>660.0</ele><time>2026-04-29T15:32:48Z</time></trkpt><trkpt lat="43.443951233696154" lon="11.48045987858666"><ele>661.0</ele><time>2026-04-29T15:32:49Z</time></trkpt><trkpt lat="43.443811087222066" lon="11.480363294971784"><ele>652.6666666666667</ele><time>2026-04-29T15:32:50Z</time></trkpt><trkpt lat="43.44368528016321" lon="11.480254383318483"><ele>644.3333333333334</ele><time>2026-04-29T15:32:51Z</time></trkpt><trkpt lat="43.44360265089122" lon="11.480087478929073"><ele>636.0</ele><time>2026-04-29T15:32:52Z</time></trkpt><trkpt lat="43.44355344543062" lon="11.479880198743142"><ele>636.0</ele><time>2026-04-29T15:32:53Z</time></trkpt><trkpt lat="43.44354909183586" lon="11.479634515544744"><ele>636.0</ele><time>2026-04-29T15:32:54Z</time></trkpt><trkpt lat="43.443594509249756" lon="11.47940324681875"><ele>636.0</ele><time>2026-04-29T15:32:55Z</time></trkpt><trkpt lat="43.44365395532459" lon="11.479185346658157"><ele>635.6666666666666</ele><time>2026-04-29T15:32:56Z</time></trkpt><trkpt lat="43.44371665535379" lon="11.478940931093563"><ele>635.3333333333333</ele><time>2026-04-29T15:32:57Z</time></trkpt><trkpt lat="43.44378485032294" lon="11.47869797904521"><ele>635.0</ele><time>2026-04-29T15:32:58Z</time></trkpt><trkpt lat="43.44385053772665" lon="11.478488176450018"><ele>638.25</ele><time>2026-04-29T15:32:59Z</time></trkpt><trkpt lat="43.44391808779985" lon="11.47831529305895"><ele>641.5</ele><time>2026-04-29T15:33:00Z</time></trkpt><trkpt lat="43.44400568386592" lon="11.47819288514151"><ele>644.75</ele><time>2026-04-29T15:33:01Z</time></trkpt><trkpt lat="43.444122344717115" lon="11.478107332807976"><ele>648.0</ele><time>2026-04-29T15:33:02Z</time></trkpt><trkpt lat="43.444256135623434" lon="11.478040584512867"><ele>648.0</ele><time>2026-04-29T15:33:03Z</time></trkpt><trkpt lat="43.44436209133405" lon="11.477946307993495"><ele>648.0</ele><time>2026-04-29T15:33:04Z</time></trkpt><trkpt lat="43.444428746238415" lon="11.477823880607081"><ele>648.0</ele><time>2026-04-29T15:33:05Z</time></trkpt><trkpt lat="43.44442742555738" lon="11.477661725609483"><ele>648.0</ele><time>2026-04-29T15:33:06Z</time></trkpt><trkpt lat="43.44438799702344" lon="11.477512376815403"><ele>646.25</ele><time>2026-04-29T15:33:07Z</time></trkpt><trkpt lat="43.44429270358279" lon="11.4774246018412"><ele>644.5</ele><time>2026-04-29T15:33:08Z</time></trkpt><trkpt lat="43.44416970511593" lon="11.477378348460586"><ele>642.75</ele><time>2026-04-29T15:33:09Z</time></trkpt><trkpt lat="43.44401559873379" lon="11.477414958795277"><ele>641.0</ele><time>2026-04-29T15:33:10Z</time></trkpt><trkpt lat="43.443886577707886" lon="11.477416892990284"><ele>639.1999999999999</ele><time>2026-04-29T15:33:11Z</time></trkpt><trkpt lat="43.443784988294965" lon="11.477354871552604"><ele>637.4</ele><time>2026-04-29T15:33:12Z</time></trkpt><trkpt lat="43.44372606463228" lon="11.477243614096585"><ele>635.6</ele><time>2026-04-29T15:33:13Z</time></trkpt><trkpt lat="43.44368890587511" lon="11.47709268412339"><ele>633.8</ele><time>2026-04-29T15:33:14Z</time></trkpt><trkpt lat="43.44361636208881" lon="11.476975741003761"><ele>632.0</ele><time>2026-04-29T15:33:15Z</time></trkpt><trkpt lat="43.44352043961602" lon="11.476919775378294"><ele>632.0</ele><time>2026-04-29T15:33:16Z</time></trkpt><trkpt lat="43.44341702473257" lon="11.476977128426082"><ele>632.0</ele><time>2026-04-29T15:33:17Z</time></trkpt><trkpt lat="43.443368304799414" lon="11.477109612588421"><ele>632.0</ele><time>2026-04-29T15:33:18Z</time></trkpt><trkpt lat="43.44337383698244" lon="11.47727643753967"><ele>632.0</ele><time>2026-04-29T15:33:19Z</time></trkpt><trkpt lat="43.443476507410274" lon="11.47741952711639"><ele>629.8000000000001</ele><time>2026-04-29T15:33:20Z</time></trkpt><trkpt lat="43.443574488906265" lon="11.47754259869386"><ele>627.6</ele><time>2026-04-29T15:33:21Z</time></trkpt><trkpt lat="43.44364553609462" lon="11.477604357650343"><ele>625.4000000000001</ele><time>2026-04-29T15:33:22Z</time></trkpt><trkpt lat="43.44370063741374" lon="11.477704351672113"><ele>623.2</ele><time>2026-04-29T15:33:23Z</time></trkpt><trkpt lat="43.44370006276175" lon="11.477810729842886"><ele>621.0</ele><time>2026-04-29T15:33:24Z</time></trkpt><trkpt lat="43.443666436959724" lon="11.47791058500876"><ele>621.0</ele><time>2026-04-29T15:33:25Z</time></trkpt><trkpt lat="43.443585014956575" lon="11.477948544793202"><ele>621.0</ele><time>2026-04-29T15:33:26Z</time></trkpt><trkpt lat="43.44348940414127" lon="11.477928348647493"><ele>621.0</ele><time>2026-04-29T15:33:27Z</time></trkpt><trkpt lat="43.443408181125506" lon="11.477853154258028"><ele>621.0</ele><time>2026-04-29T15:33:28.001Z</time></trkpt><trkpt lat="43.44337848226635" lon="11.477653839591675"><ele>621.0</ele><time>2026-04-29T15:33:29.001Z</time></trkpt><trkpt lat="43.443285627455516" lon="11.477477039968775"><ele>621.0</ele><time>2026-04-29T15:33:30.001Z</time></trkpt><trkpt lat="43.44317571234955" lon="11.477315805828539"><ele>621.0</ele><time>2026-04-29T15:33:31.001Z</time></trkpt><trkpt lat="43.443015326205256" lon="11.47721462864304"><ele>621.0</ele><time>2026-04-29T15:33:32.001Z</time></trkpt><trkpt lat="43.44285587374993" lon="11.477149239484444"><ele>617.25</ele><time>2026-04-29T15:33:33.001Z</time></trkpt><trkpt lat="43.44273738538499" lon="11.477038212035241"><ele>613.5</ele><time>2026-04-29T15:33:34.001Z</time></trkpt><trkpt lat="43.4426585970076" lon="11.476881223156228"><ele>609.75</ele><time>2026-04-29T15:33:35.001Z</time></trkpt><trkpt lat="43.44262701372311" lon="11.47669480250101"><ele>606.0</ele><time>2026-04-29T15:33:36.001Z</time></trkpt><trkpt lat="43.44260639857981" lon="11.476463243997276"><ele>607.6666666666666</ele><time>2026-04-29T15:33:37.001Z</time></trkpt><trkpt lat="43.44254035167182" lon="11.47625156931053"><ele>609.3333333333333</ele><time>2026-04-29T15:33:38.001Z</time></trkpt><trkpt lat="43.44243912691522" lon="11.476049225220669"><ele>611.0</ele><time>2026-04-29T15:33:39.001Z</time></trkpt><trkpt lat="43.44229109753112" lon="11.475864027711362"><ele>611.0</ele><time>2026-04-29T15:33:40.001Z</time></trkpt><trkpt lat="43.442142704687946" lon="11.47568765369418"><ele>611.0</ele><time>2026-04-29T15:33:41.001Z</time></trkpt><trkpt lat="43.442013743783534" lon="11.475527526071067"><ele>611.0</ele><time>2026-04-29T15:33:42.001Z</time></trkpt><trkpt lat="43.44194108496983" lon="11.475333259793004"><ele>606.25</ele><time>2026-04-29T15:33:43.001Z</time></trkpt><trkpt lat="43.44191329188581" lon="11.47514691756494"><ele>601.5</ele><time>2026-04-29T15:33:44.001Z</time></trkpt><trkpt lat="43.441945635691944" lon="11.4749745682429"><ele>596.75</ele><time>2026-04-29T15:33:45.001Z</time></trkpt><trkpt lat="43.44197898689501" lon="11.474760134314925"><ele>592.0</ele><time>2026-04-29T15:33:46.001Z</time></trkpt><trkpt lat="43.44198825489102" lon="11.474554281785522"><ele>592.0</ele><time>2026-04-29T15:33:47.001Z</time></trkpt><trkpt lat="43.441945407399984" lon="11.474345998282146"><ele>592.0</ele><time>2026-04-29T15:33:48.001Z</time></trkpt><trkpt lat="43.44184239871313" lon="11.474167605837918"><ele>592.0</ele><time>2026-04-29T15:33:49.001Z</time></trkpt><trkpt lat="43.4416987223674" lon="11.474037198749851"><ele>592.0</ele><time>2026-04-29T15:33:50.001Z</time></trkpt><trkpt lat="43.44157964765372" lon="11.473925783687818"><ele>592.0</ele><time>2026-04-29T15:33:51.001Z</time></trkpt><trkpt lat="43.44152885370925" lon="11.473754045969544"><ele>592.0</ele><time>2026-04-29T15:33:52.001Z</time></trkpt><trkpt lat="43.44150398662646" lon="11.473536763344747"><ele>592.0</ele><time>2026-04-29T15:33:53.001Z</time></trkpt><trkpt lat="43.441480127423475" lon="11.473260678296024"><ele>591.5</ele><time>2026-04-29T15:33:54.001Z</time></trkpt><trkpt lat="43.44148273944807" lon="11.47302509370041"><ele>591.0</ele><time>2026-04-29T15:33:55.001Z</time></trkpt><trkpt lat="43.44153429277887" lon="11.47283524912423"><ele>590.5</ele><time>2026-04-29T15:33:56.001Z</time></trkpt><trkpt lat="43.441590367568274" lon="11.47268539310275"><ele>590.0</ele><time>2026-04-29T15:33:57.001Z</time></trkpt><trkpt lat="43.441676403615425" lon="11.472624670259325"><ele>587.75</ele><time>2026-04-29T15:33:58.001Z</time></trkpt><trkpt lat="43.44176561809732" lon="11.472680055261124"><ele>585.5</ele><time>2026-04-29T15:33:59.001Z</time></trkpt><trkpt lat="43.441876689090286" lon="11.47268181424075"><ele>583.25</ele><time>2026-04-29T15:34:00.001Z</time></trkpt><trkpt lat="43.44200577570613" lon="11.472652756348136"><ele>581.0</ele><time>2026-04-29T15:34:01.001Z</time></trkpt><trkpt lat="43.442098864224015" lon="11.472535080311692"><ele>581.0</ele><time>2026-04-29T15:34:02.001Z</time></trkpt><trkpt lat="43.442114800229646" lon="11.47236349094825"><ele>581.0</ele><time>2026-04-29T15:34:03Z</time></trkpt><trkpt lat="43.44209080051503" lon="11.472155911490573"><ele>581.0</ele><time>2026-04-29T15:34:04Z</time></trkpt><trkpt lat="43.442047899826576" lon="11.471921996768918"><ele>577.0</ele><time>2026-04-29T15:34:05Z</time></trkpt><trkpt lat="43.4420381728618" lon="11.471664797177601"><ele>573.0</ele><time>2026-04-29T15:34:06Z</time></trkpt><trkpt lat="43.44203705756461" lon="11.471365846499571"><ele>569.0</ele><time>2026-04-29T15:34:07Z</time></trkpt><trkpt lat="43.44205485241049" lon="11.471064203320932"><ele>567.6666666666666</ele><time>2026-04-29T15:34:08Z</time></trkpt><trkpt lat="43.44207373605479" lon="11.470782497551044"><ele>566.3333333333334</ele><time>2026-04-29T15:34:09Z</time></trkpt><trkpt lat="43.44210890047732" lon="11.470531660647538"><ele>565.0</ele><time>2026-04-29T15:34:10Z</time></trkpt><trkpt lat="43.44219780307709" lon="11.470311471913305"><ele>565.0</ele><time>2026-04-29T15:34:11Z</time></trkpt><trkpt lat="43.442283412026" lon="11.470119226954223"><ele>565.0</ele><time>2026-04-29T15:34:12Z</time></trkpt><trkpt lat="43.4423649047161" lon="11.46999262511847"><ele>565.0</ele><time>2026-04-29T15:34:13Z</time></trkpt><trkpt lat="43.442444369437055" lon="11.469936715721657"><ele>565.0</ele><time>2026-04-29T15:34:14Z</time></trkpt><trkpt lat="43.44254456058846" lon="11.46999468921578"><ele>565.0</ele><time>2026-04-29T15:34:15Z</time></trkpt><trkpt lat="43.44264505676453" lon="11.470100262074153"><ele>565.0</ele><time>2026-04-29T15:34:16Z</time></trkpt><trkpt lat="43.44276049114169" lon="11.470203795471583"><ele>565.0</ele><time>2026-04-29T15:34:17Z</time></trkpt><trkpt lat="43.44288997537135" lon="11.47025727411217"><ele>565.0</ele><time>2026-04-29T15:34:18Z</time></trkpt><trkpt lat="43.44302971421269" lon="11.470178331664927"><ele>566.25</ele><time>2026-04-29T15:34:19Z</time></trkpt><trkpt lat="43.44313592082103" lon="11.470055746423515"><ele>567.5</ele><time>2026-04-29T15:34:20Z</time></trkpt><trkpt lat="43.443198844914704" lon="11.469867849357966"><ele>568.75</ele><time>2026-04-29T15:34:21Z</time></trkpt><trkpt lat="43.44324852641109" lon="11.46967781625709"><ele>570.0</ele><time>2026-04-29T15:34:22Z</time></trkpt><trkpt lat="43.44334981335034" lon="11.46955945218817"><ele>566.25</ele><time>2026-04-29T15:34:23Z</time></trkpt><trkpt lat="43.44346847439141" lon="11.469499283690968"><ele>562.5</ele><time>2026-04-29T15:34:24Z</time></trkpt><trkpt lat="43.443565145459466" lon="11.469385032600043"><ele>558.75</ele><time>2026-04-29T15:34:25Z</time></trkpt><trkpt lat="43.44362123256311" lon="11.469226709209849"><ele>555.0</ele><time>2026-04-29T15:34:26Z</time></trkpt><trkpt lat="43.44359486722538" lon="11.469062345415052"><ele>555.0</ele><time>2026-04-29T15:34:27Z</time></trkpt><trkpt lat="43.443525362117775" lon="11.468911211615369"><ele>555.0</ele><time>2026-04-29T15:34:28Z</time></trkpt><trkpt lat="43.44345559012021" lon="11.468769460235627"><ele>555.0</ele><time>2026-04-29T15:34:29Z</time></trkpt><trkpt lat="43.443488999435786" lon="11.46861624138805"><ele>555.0</ele><time>2026-04-29T15:34:30Z</time></trkpt><trkpt lat="43.44351062858286" lon="11.468437421011494"><ele>553.3333333333334</ele><time>2026-04-29T15:34:31Z</time></trkpt><trkpt lat="43.44349828896246" lon="11.468219202732293"><ele>551.6666666666667</ele><time>2026-04-29T15:34:32Z</time></trkpt><trkpt lat="43.44343400527026" lon="11.468008933332731"><ele>550.0</ele><time>2026-04-29T15:34:33Z</time></trkpt><trkpt lat="43.44331373610971" lon="11.467800550429791"><ele>550.0</ele><time>2026-04-29T15:34:34Z</time></trkpt><trkpt lat="43.44318264354945" lon="11.46757618864965"><ele>550.0</ele><time>2026-04-29T15:34:35Z</time></trkpt><trkpt lat="43.44303770407591" lon="11.467362315018063"><ele>550.0</ele><time>2026-04-29T15:34:36Z</time></trkpt><trkpt lat="43.44287977412736" lon="11.46718743898827"><ele>545.25</ele><time>2026-04-29T15:34:37Z</time></trkpt><trkpt lat="43.442722643424645" lon="11.467064848336308"><ele>540.5</ele><time>2026-04-29T15:34:38Z</time></trkpt><trkpt lat="43.44261067532107" lon="11.46693338541831"><ele>535.75</ele><time>2026-04-29T15:34:39Z</time></trkpt><trkpt lat="43.44253686314099" lon="11.466819833417944"><ele>531.0</ele><time>2026-04-29T15:34:40Z</time></trkpt><trkpt lat="43.44250651514178" lon="11.466707992390013"><ele>531.0</ele><time>2026-04-29T15:34:41Z</time></trkpt><trkpt lat="43.442541766458525" lon="11.466570240591906"><ele>531.0</ele><time>2026-04-29T15:34:42Z</time></trkpt><trkpt lat="43.44264187002368" lon="11.466459906540814"><ele>531.0</ele><time>2026-04-29T15:34:43Z</time></trkpt><trkpt lat="43.44277480854163" lon="11.466428063008816"><ele>531.0</ele><time>2026-04-29T15:34:44Z</time></trkpt><trkpt lat="43.44290614812107" lon="11.466341108574431"><ele>529.6666666666666</ele><time>2026-04-29T15:34:45Z</time></trkpt><trkpt lat="43.44303179745607" lon="11.466171346185632"><ele>528.3333333333333</ele><time>2026-04-29T15:34:46Z</time></trkpt><trkpt lat="43.443142754107065" lon="11.465983782023722"><ele>527.0</ele><time>2026-04-29T15:34:47Z</time></trkpt><trkpt lat="43.44324889688896" lon="11.465876133704015"><ele>527.0</ele><time>2026-04-29T15:34:48Z</time></trkpt><trkpt lat="43.4433827829873" lon="11.465893374626312"><ele>527.0</ele><time>2026-04-29T15:34:49Z</time></trkpt><trkpt lat="43.443532474625066" lon="11.465856991746747"><ele>527.0</ele><time>2026-04-29T15:34:50Z</time></trkpt><trkpt lat="43.443694115062975" lon="11.465844586744483"><ele>527.0</ele><time>2026-04-29T15:34:51Z</time></trkpt><trkpt lat="43.4438346496743" lon="11.465858203105745"><ele>526.5</ele><time>2026-04-29T15:34:52Z</time></trkpt><trkpt lat="43.44396754458486" lon="11.465932511870975"><ele>526.0</ele><time>2026-04-29T15:34:53Z</time></trkpt><trkpt lat="43.44409010418289" lon="11.465976387073722"><ele>525.5</ele><time>2026-04-29T15:34:54Z</time></trkpt><trkpt lat="43.44420781006546" lon="11.465992036878838"><ele>525.0</ele><time>2026-04-29T15:34:55Z</time></trkpt><trkpt lat="43.444307311473125" lon="11.465900750498166"><ele>525.0</ele><time>2026-04-29T15:34:56Z</time></trkpt><trkpt lat="43.44437448869061" lon="11.465751447329126"><ele>525.0</ele><time>2026-04-29T15:34:57Z</time></trkpt><trkpt lat="43.44437510037725" lon="11.465585072310976"><ele>525.0</ele><time>2026-04-29T15:34:58Z</time></trkpt><trkpt lat="43.444309576101034" lon="11.46543463399981"><ele>525.0</ele><time>2026-04-29T15:34:59Z</time></trkpt><trkpt lat="43.444212176113595" lon="11.465277967366967"><ele>522.0</ele><time>2026-04-29T15:35:00Z</time></trkpt><trkpt lat="43.44415366462315" lon="11.465070578257675"><ele>519.0</ele><time>2026-04-29T15:35:01Z</time></trkpt><trkpt lat="43.444147932277325" lon="11.464858323787036"><ele>516.0</ele><time>2026-04-29T15:35:02Z</time></trkpt><trkpt lat="43.44412316483208" lon="11.464620658626153"><ele>514.75</ele><time>2026-04-29T15:35:03Z</time></trkpt><trkpt lat="43.444093750465484" lon="11.464399937674422"><ele>513.5</ele><time>2026-04-29T15:35:04Z</time></trkpt><trkpt lat="43.44407720860586" lon="11.464242920872042"><ele>512.25</ele><time>2026-04-29T15:35:05Z</time></trkpt><trkpt lat="43.44411766731324" lon="11.46410291249451"><ele>511.0</ele><time>2026-04-29T15:35:06Z</time></trkpt><trkpt lat="43.444213565496625" lon="11.46403346485161"><ele>511.0</ele><time>2026-04-29T15:35:07Z</time></trkpt><trkpt lat="43.44430648570068" lon="11.4638985605991"><ele>511.0</ele><time>2026-04-29T15:35:08Z</time></trkpt><trkpt lat="43.444405987381224" lon="11.463756448285853"><ele>511.0</ele><time>2026-04-29T15:35:09Z</time></trkpt><trkpt lat="43.44444441952231" lon="11.46357964120911"><ele>511.0</ele><time>2026-04-29T15:35:10Z</time></trkpt><trkpt lat="43.44441095112969" lon="11.463406111624742"><ele>509.0</ele><time>2026-04-29T15:35:11Z</time></trkpt><trkpt lat="43.44430955311505" lon="11.463292230915657"><ele>507.0</ele><time>2026-04-29T15:35:12Z</time></trkpt><trkpt lat="43.44416647340541" lon="11.463217174713556"><ele>505.0</ele><time>2026-04-29T15:35:13.001Z</time></trkpt><trkpt lat="43.44399315939397" lon="11.463147193237726"><ele>505.0</ele><time>2026-04-29T15:35:14.001Z</time></trkpt><trkpt lat="43.443853088343836" lon="11.46308781859546"><ele>505.0</ele><time>2026-04-29T15:35:15.001Z</time></trkpt><trkpt lat="43.4437563568513" lon="11.463008938610907"><ele>505.0</ele><time>2026-04-29T15:35:16.001Z</time></trkpt><trkpt lat="43.44373693062365" lon="11.46287252596349"><ele>505.0</ele><time>2026-04-29T15:35:17.001Z</time></trkpt><trkpt lat="43.4437306913656" lon="11.462719468703432"><ele>504.5</ele><time>2026-04-29T15:35:18.001Z</time></trkpt><trkpt lat="43.443825339439776" lon="11.462562865291591"><ele>504.0</ele><time>2026-04-29T15:35:19.001Z</time></trkpt><trkpt lat="43.443875354530135" lon="11.462378689478454"><ele>503.5</ele><time>2026-04-29T15:35:20.001Z</time></trkpt><trkpt lat="43.44387824516776" lon="11.462174920475855"><ele>503.0</ele><time>2026-04-29T15:35:21.001Z</time></trkpt><trkpt lat="43.44382884366108" lon="11.461946919162061"><ele>500.3333333333333</ele><time>2026-04-29T15:35:22.001Z</time></trkpt><trkpt lat="43.44379921905554" lon="11.4617221184085"><ele>497.66666666666663</ele><time>2026-04-29T15:35:23.001Z</time></trkpt><trkpt lat="43.4438473231622" lon="11.46151720023809"><ele>495.0</ele><time>2026-04-29T15:35:24.001Z</time></trkpt><trkpt lat="43.44391041070673" lon="11.461285889340251"><ele>492.66666666666663</ele><time>2026-04-29T15:35:25.001Z</time></trkpt><trkpt lat="43.443969510301365" lon="11.461040529012172"><ele>490.3333333333333</ele><time>2026-04-29T15:35:26.001Z</time></trkpt><trkpt lat="43.4440223226548" lon="11.460830589614075"><ele>488.0</ele><time>2026-04-29T15:35:27.001Z</time></trkpt><trkpt lat="43.44401589041045" lon="11.460639586577992"><ele>488.0</ele><time>2026-04-29T15:35:28.001Z</time></trkpt><trkpt lat="43.4439467830648" lon="11.460479682461989"><ele>488.0</ele><time>2026-04-29T15:35:29.001Z</time></trkpt><trkpt lat="43.443832999388874" lon="11.460337391367425"><ele>488.0</ele><time>2026-04-29T15:35:30.001Z</time></trkpt><trkpt lat="43.4436886310124" lon="11.460249806104049"><ele>488.0</ele><time>2026-04-29T15:35:31.001Z</time></trkpt><trkpt lat="43.44353795717036" lon="11.460261079751605"><ele>487.0</ele><time>2026-04-29T15:35:32.001Z</time></trkpt><trkpt lat="43.44339361764436" lon="11.460342537672593"><ele>486.0</ele><time>2026-04-29T15:35:33.001Z</time></trkpt><trkpt lat="43.44323756181103" lon="11.460449349724138"><ele>485.0</ele><time>2026-04-29T15:35:34.001Z</time></trkpt><trkpt lat="43.443113793131616" lon="11.46047362882972"><ele>486.75</ele><time>2026-04-29T15:35:35.001Z</time></trkpt><trkpt lat="43.443007051107934" lon="11.460413345237763"><ele>488.5</ele><time>2026-04-29T15:35:36.001Z</time></trkpt><trkpt lat="43.44292127129702" lon="11.460269612448645"><ele>490.25</ele><time>2026-04-29T15:35:37.001Z</time></trkpt><trkpt lat="43.44288400224827" lon="11.460111808453982"><ele>492.0</ele><time>2026-04-29T15:35:38.001Z</time></trkpt><trkpt lat="43.44281821718712" lon="11.459949784565845"><ele>492.0</ele><time>2026-04-29T15:35:39.001Z</time></trkpt><trkpt lat="43.442769065580926" lon="11.459732560385529"><ele>492.0</ele><time>2026-04-29T15:35:40.001Z</time></trkpt><trkpt lat="43.44268025741934" lon="11.459533597644162"><ele>492.0</ele><time>2026-04-29T15:35:41.001Z</time></trkpt><trkpt lat="43.442560113867366" lon="11.459380987647698"><ele>493.5</ele><time>2026-04-29T15:35:42.001Z</time></trkpt><trkpt lat="43.44243739758849" lon="11.459275755046045"><ele>495.0</ele><time>2026-04-29T15:35:43.001Z</time></trkpt><trkpt lat="43.442296349318724" lon="11.459242563275412"><ele>496.5</ele><time>2026-04-29T15:35:44.001Z</time></trkpt><trkpt lat="43.44214937917856" lon="11.459267490899942"><ele>498.0</ele><time>2026-04-29T15:35:45.001Z</time></trkpt><trkpt lat="43.441997619892874" lon="11.459336186588892"><ele>500.25</ele><time>2026-04-29T15:35:46.001Z</time></trkpt><trkpt lat="43.441847725020274" lon="11.459378011739222"><ele>502.5</ele><time>2026-04-29T15:35:47.001Z</time></trkpt><trkpt lat="43.441707761429996" lon="11.45934704698439"><ele>504.75</ele><time>2026-04-29T15:35:48.001Z</time></trkpt><trkpt lat="43.44156862660084" lon="11.459260133782317"><ele>507.0</ele><time>2026-04-29T15:35:49.001Z</time></trkpt><trkpt lat="43.441448754976946" lon="11.459122876092435"><ele>507.0</ele><time>2026-04-29T15:35:50.001Z</time></trkpt><trkpt lat="43.441335390414764" lon="11.458970876928948"><ele>507.0</ele><time>2026-04-29T15:35:51.001Z</time></trkpt><trkpt lat="43.4412528740607" lon="11.458830037733502"><ele>507.0</ele><time>2026-04-29T15:35:52.001Z</time></trkpt><trkpt lat="43.441231041859005" lon="11.45870363974039"><ele>507.0</ele><time>2026-04-29T15:35:53.001Z</time></trkpt><trkpt lat="43.44125093684332" lon="11.45855549945516"><ele>509.0</ele><time>2026-04-29T15:35:54.001Z</time></trkpt><trkpt lat="43.441303710677616" lon="11.45840125548784"><ele>511.0</ele><time>2026-04-29T15:35:55.001Z</time></trkpt><trkpt lat="43.441407288187904" lon="11.458302472102377"><ele>513.0</ele><time>2026-04-29T15:35:56.001Z</time></trkpt><trkpt lat="43.441519976741006" lon="11.458198983567122"><ele>515.0</ele><time>2026-04-29T15:35:57.001Z</time></trkpt><trkpt lat="43.44166082404978" lon="11.45810005444205"><ele>515.0</ele><time>2026-04-29T15:35:58.001Z</time></trkpt><trkpt lat="43.441792610684686" lon="11.457993556608724"><ele>515.0</ele><time>2026-04-29T15:35:59.001Z</time></trkpt><trkpt lat="43.4418949861092" lon="11.457878827826246"><ele>515.0</ele><time>2026-04-29T15:36:00.001Z</time></trkpt><trkpt lat="43.441992985462754" lon="11.457760187936724"><ele>515.0</ele><time>2026-04-29T15:36:01.001Z</time></trkpt><trkpt lat="43.44203372390668" lon="11.457580729283416"><ele>514.0</ele><time>2026-04-29T15:36:02.001Z</time></trkpt><trkpt lat="43.44206422136684" lon="11.457407275519278"><ele>513.0</ele><time>2026-04-29T15:36:03.001Z</time></trkpt><trkpt lat="43.44207403545564" lon="11.457182215939014"><ele>512.0</ele><time>2026-04-29T15:36:04.001Z</time></trkpt><trkpt lat="43.442094765586205" lon="11.45697810226264"><ele>511.0</ele><time>2026-04-29T15:36:05.001Z</time></trkpt><trkpt lat="43.4421091265263" lon="11.456772703883255"><ele>510.33333333333337</ele><time>2026-04-29T15:36:06.001Z</time></trkpt><trkpt lat="43.4421209367493" lon="11.45656666929015"><ele>509.66666666666663</ele><time>2026-04-29T15:36:07.001Z</time></trkpt><trkpt lat="43.44213072163167" lon="11.45634634911564"><ele>509.0</ele><time>2026-04-29T15:36:08.001Z</time></trkpt><trkpt lat="43.44215341872078" lon="11.456125740635908"><ele>506.3333333333333</ele><time>2026-04-29T15:36:09Z</time></trkpt><trkpt lat="43.4421849828803" lon="11.455898995372184"><ele>503.66666666666663</ele><time>2026-04-29T15:36:10Z</time></trkpt><trkpt lat="43.44221966719263" lon="11.45567797370603"><ele>501.0</ele><time>2026-04-29T15:36:11Z</time></trkpt><trkpt lat="43.442245189102984" lon="11.455449997126992"><ele>500.66666666666663</ele><time>2026-04-29T15:36:12Z</time></trkpt><trkpt lat="43.44225921272664" lon="11.455223831283101"><ele>500.3333333333333</ele><time>2026-04-29T15:36:13Z</time></trkpt><trkpt lat="43.44225808580579" lon="11.454997744164807"><ele>500.0</ele><time>2026-04-29T15:36:14Z</time></trkpt><trkpt lat="43.44225211228298" lon="11.454757487842707"><ele>501.0</ele><time>2026-04-29T15:36:15Z</time></trkpt><trkpt lat="43.44225054055155" lon="11.45452982786006"><ele>502.0</ele><time>2026-04-29T15:36:16Z</time></trkpt><trkpt lat="43.44225812256267" lon="11.454315376537563"><ele>503.0</ele><time>2026-04-29T15:36:17Z</time></trkpt><trkpt lat="43.44227791949925" lon="11.454098473824617"><ele>503.0</ele><time>2026-04-29T15:36:18Z</time></trkpt><trkpt lat="43.442314686920575" lon="11.453892584343684"><ele>503.0</ele><time>2026-04-29T15:36:19Z</time></trkpt><trkpt lat="43.44234932868533" lon="11.453693583598502"><ele>503.0</ele><time>2026-04-29T15:36:20Z</time></trkpt><trkpt lat="43.44236287865843" lon="11.453510071270166"><ele>503.0</ele><time>2026-04-29T15:36:21Z</time></trkpt><trkpt lat="43.442346775126246" lon="11.453313745376853"><ele>502.5</ele><time>2026-04-29T15:36:22Z</time></trkpt><trkpt lat="43.442317455965885" lon="11.453121587612157"><ele>502.0</ele><time>2026-04-29T15:36:23Z</time></trkpt><trkpt lat="43.44231229018674" lon="11.452932390178251"><ele>501.5</ele><time>2026-04-29T15:36:24Z</time></trkpt><trkpt lat="43.442284284336466" lon="11.452761037724876"><ele>501.0</ele><time>2026-04-29T15:36:25Z</time></trkpt><trkpt lat="43.44229050683973" lon="11.452593864321088"><ele>500.5</ele><time>2026-04-29T15:36:26Z</time></trkpt><trkpt lat="43.44233195563785" lon="11.452420321039757"><ele>500.0</ele><time>2026-04-29T15:36:27Z</time></trkpt><trkpt lat="43.442403755117915" lon="11.452249398982424"><ele>499.5</ele><time>2026-04-29T15:36:28Z</time></trkpt><trkpt lat="43.44249611738375" lon="11.452071654282166"><ele>499.0</ele><time>2026-04-29T15:36:29Z</time></trkpt><trkpt lat="43.442609665341195" lon="11.451902085267882"><ele>496.5</ele><time>2026-04-29T15:36:30Z</time></trkpt><trkpt lat="43.442687517717694" lon="11.451718276806233"><ele>494.0</ele><time>2026-04-29T15:36:31Z</time></trkpt><trkpt lat="43.44276497345425" lon="11.451559196029292"><ele>491.5</ele><time>2026-04-29T15:36:32Z</time></trkpt><trkpt lat="43.44283938416842" lon="11.451399971561843"><ele>489.0</ele><time>2026-04-29T15:36:33Z</time></trkpt><trkpt lat="43.442863328505155" lon="11.451212381557777"><ele>486.33333333333337</ele><time>2026-04-29T15:36:34Z</time></trkpt><trkpt lat="43.44281015447772" lon="11.451016130369903"><ele>483.6666666666667</ele><time>2026-04-29T15:36:35Z</time></trkpt><trkpt lat="43.44274275863282" lon="11.450817336810648"><ele>481.0</ele><time>2026-04-29T15:36:36Z</time></trkpt><trkpt lat="43.442679938749556" lon="11.450593714079147"><ele>480.33333333333337</ele><time>2026-04-29T15:36:37Z</time></trkpt><trkpt lat="43.44259623631058" lon="11.450366457069169"><ele>479.66666666666663</ele><time>2026-04-29T15:36:38Z</time></trkpt><trkpt lat="43.44250556896611" lon="11.450125525392767"><ele>479.0</ele><time>2026-04-29T15:36:39Z</time></trkpt><trkpt lat="43.4424139671895" lon="11.449882109978974"><ele>479.0</ele><time>2026-04-29T15:36:40Z</time></trkpt><trkpt lat="43.44232991857774" lon="11.44965876595805"><ele>479.0</ele><time>2026-04-29T15:36:41Z</time></trkpt><trkpt lat="43.44225877193661" lon="11.449457688978752"><ele>479.0</ele><time>2026-04-29T15:36:42Z</time></trkpt><trkpt lat="43.44219875936472" lon="11.449278756809994"><ele>479.0</ele><time>2026-04-29T15:36:43Z</time></trkpt><trkpt lat="43.44215870919009" lon="11.449123308082672"><ele>479.0</ele><time>2026-04-29T15:36:44Z</time></trkpt><trkpt lat="43.44215556063414" lon="11.448968973440767"><ele>479.0</ele><time>2026-04-29T15:36:45Z</time></trkpt><trkpt lat="43.44219686303868" lon="11.44880333922348"><ele>479.0</ele><time>2026-04-29T15:36:46Z</time></trkpt><trkpt lat="43.44226117823811" lon="11.44862025082154"><ele>479.0</ele><time>2026-04-29T15:36:47Z</time></trkpt><trkpt lat="43.442356654652464" lon="11.448428332429096"><ele>479.0</ele><time>2026-04-29T15:36:48Z</time></trkpt><trkpt lat="43.44246137322981" lon="11.448224817647526"><ele>479.0</ele><time>2026-04-29T15:36:49Z</time></trkpt><trkpt lat="43.442559475935056" lon="11.44802769607405"><ele>477.75</ele><time>2026-04-29T15:36:50Z</time></trkpt><trkpt lat="43.44263975890937" lon="11.447852891426118"><ele>476.5</ele><time>2026-04-29T15:36:51Z</time></trkpt><trkpt lat="43.44268895687549" lon="11.447678463226985"><ele>475.25</ele><time>2026-04-29T15:36:52Z</time></trkpt><trkpt lat="43.442690220127204" lon="11.447490744048107"><ele>474.0</ele><time>2026-04-29T15:36:53Z</time></trkpt><trkpt lat="43.44264106555991" lon="11.447294712498428"><ele>470.66666666666663</ele><time>2026-04-29T15:36:54Z</time></trkpt><trkpt lat="43.442545735028425" lon="11.44710720675682"><ele>467.3333333333333</ele><time>2026-04-29T15:36:55Z</time></trkpt><trkpt lat="43.44241170437988" lon="11.446943362676091"><ele>464.0</ele><time>2026-04-29T15:36:56Z</time></trkpt><trkpt lat="43.44224790623157" lon="11.446774792331038"><ele>462.3333333333333</ele><time>2026-04-29T15:36:57Z</time></trkpt><trkpt lat="43.4421069081225" lon="11.446590232023324"><ele>460.66666666666663</ele><time>2026-04-29T15:36:58Z</time></trkpt><trkpt lat="43.4419701967906" lon="11.44643883471772"><ele>459.0</ele><time>2026-04-29T15:36:59Z</time></trkpt><trkpt lat="43.441856280867086" lon="11.446282760861179"><ele>459.0</ele><time>2026-04-29T15:37:00Z</time></trkpt><trkpt lat="43.44177702363212" lon="11.44610318455331"><ele>459.0</ele><time>2026-04-29T15:37:01Z</time></trkpt><trkpt lat="43.44171834083327" lon="11.445903219392838"><ele>459.0</ele><time>2026-04-29T15:37:02Z</time></trkpt><trkpt lat="43.44167271904255" lon="11.445682450627528"><ele>457.66666666666663</ele><time>2026-04-29T15:37:03Z</time></trkpt><trkpt lat="43.44167760832322" lon="11.445446709889552"><ele>456.3333333333333</ele><time>2026-04-29T15:37:04Z</time></trkpt><trkpt lat="43.44172744587409" lon="11.445229642364417"><ele>455.0</ele><time>2026-04-29T15:37:05Z</time></trkpt><trkpt lat="43.44181519024418" lon="11.445030725727598"><ele>455.0</ele><time>2026-04-29T15:37:06Z</time></trkpt><trkpt lat="43.44194747047228" lon="11.444852997907306"><ele>455.0</ele><time>2026-04-29T15:37:07Z</time></trkpt><trkpt lat="43.44208917036689" lon="11.444678148243353"><ele>455.0</ele><time>2026-04-29T15:37:08Z</time></trkpt><trkpt lat="43.442235532546555" lon="11.444485464410159"><ele>453.0</ele><time>2026-04-29T15:37:09Z</time></trkpt><trkpt lat="43.44238231554304" lon="11.444290906124621"><ele>451.0</ele><time>2026-04-29T15:37:10Z</time></trkpt><trkpt lat="43.442506116178784" lon="11.444124443574358"><ele>449.0</ele><time>2026-04-29T15:37:11Z</time></trkpt><trkpt lat="43.44260437910807" lon="11.443969361431504"><ele>448.3333333333333</ele><time>2026-04-29T15:37:12Z</time></trkpt><trkpt lat="43.44265978046622" lon="11.443792650455832"><ele>447.66666666666663</ele><time>2026-04-29T15:37:13Z</time></trkpt><trkpt lat="43.442735261313935" lon="11.443581899211036"><ele>447.0</ele><time>2026-04-29T15:37:14Z</time></trkpt><trkpt lat="43.44278237683225" lon="11.443332123023481"><ele>447.0</ele><time>2026-04-29T15:37:15Z</time></trkpt><trkpt lat="43.44283348574404" lon="11.443094838404997"><ele>447.0</ele><time>2026-04-29T15:37:16Z</time></trkpt><trkpt lat="43.44287878618603" lon="11.442865756701062"><ele>447.0</ele><time>2026-04-29T15:37:17Z</time></trkpt><trkpt lat="43.44285919075968" lon="11.442612896455623"><ele>447.33333333333337</ele><time>2026-04-29T15:37:18Z</time></trkpt><trkpt lat="43.44281109419992" lon="11.442356893725789"><ele>447.6666666666667</ele><time>2026-04-29T15:37:19Z</time></trkpt><trkpt lat="43.4427727701091" lon="11.442111721406299"><ele>448.0</ele><time>2026-04-29T15:37:20Z</time></trkpt><trkpt lat="43.44274909014692" lon="11.441894192078417"><ele>448.0</ele><time>2026-04-29T15:37:21Z</time></trkpt><trkpt lat="43.44273813334011" lon="11.441694247448"><ele>448.0</ele><time>2026-04-29T15:37:22Z</time></trkpt><trkpt lat="43.44279024346056" lon="11.441486313940416"><ele>448.0</ele><time>2026-04-29T15:37:23Z</time></trkpt><trkpt lat="43.44286667498589" lon="11.44129082785902"><ele>451.33333333333337</ele><time>2026-04-29T15:37:24Z</time></trkpt><trkpt lat="43.44298478247797" lon="11.441139617851771"><ele>454.66666666666663</ele><time>2026-04-29T15:37:25.001Z</time></trkpt><trkpt lat="43.44310017415255" lon="11.440969833137117"><ele>458.0</ele><time>2026-04-29T15:37:26.001Z</time></trkpt><trkpt lat="43.44323723990095" lon="11.440810363629367"><ele>458.0</ele><time>2026-04-29T15:37:27.001Z</time></trkpt><trkpt lat="43.4433747956845" lon="11.4406357940914"><ele>458.0</ele><time>2026-04-29T15:37:28.001Z</time></trkpt><trkpt lat="43.44349086416008" lon="11.44046097608275"><ele>458.0</ele><time>2026-04-29T15:37:29.001Z</time></trkpt><trkpt lat="43.4435744703595" lon="11.440288635408095"><ele>456.3333333333333</ele><time>2026-04-29T15:37:30.001Z</time></trkpt><trkpt lat="43.44362605737707" lon="11.440109724664577"><ele>454.66666666666663</ele><time>2026-04-29T15:37:31.001Z</time></trkpt><trkpt lat="43.44364536623518" lon="11.43989592663105"><ele>453.0</ele><time>2026-04-29T15:37:32.001Z</time></trkpt><trkpt lat="43.4436396203346" lon="11.439668146592467"><ele>454.33333333333337</ele><time>2026-04-29T15:37:33.001Z</time></trkpt><trkpt lat="43.44359403380149" lon="11.439454602788732"><ele>455.6666666666667</ele><time>2026-04-29T15:37:34.001Z</time></trkpt><trkpt lat="43.44350934326899" lon="11.439254483750414"><ele>457.0</ele><time>2026-04-29T15:37:35.001Z</time></trkpt><trkpt lat="43.44345512872142" lon="11.4390663280717"><ele>457.0</ele><time>2026-04-29T15:37:36.001Z</time></trkpt><trkpt lat="43.443417141913315" lon="11.438908874464367"><ele>457.0</ele><time>2026-04-29T15:37:37.001Z</time></trkpt><trkpt lat="43.44341016564518" lon="11.43878564312999"><ele>457.0</ele><time>2026-04-29T15:37:38.001Z</time></trkpt><trkpt lat="43.44346404601246" lon="11.438662995655775"><ele>457.0</ele><time>2026-04-29T15:37:39.001Z</time></trkpt><trkpt lat="43.44356048663305" lon="11.438528965199593"><ele>456.75</ele><time>2026-04-29T15:37:40.001Z</time></trkpt><trkpt lat="43.44367442001055" lon="11.438406811283894"><ele>456.5</ele><time>2026-04-29T15:37:41.001Z</time></trkpt><trkpt lat="43.443765992367055" lon="11.438281900086785"><ele>456.25</ele><time>2026-04-29T15:37:42.001Z</time></trkpt><trkpt lat="43.443876542693985" lon="11.43823237769683"><ele>456.0</ele><time>2026-04-29T15:37:43.001Z</time></trkpt><trkpt lat="43.44401802127333" lon="11.438186070508506"><ele>456.0</ele><time>2026-04-29T15:37:44.001Z</time></trkpt><trkpt lat="43.44417433200821" lon="11.438125173283627"><ele>456.0</ele><time>2026-04-29T15:37:45.001Z</time></trkpt><trkpt lat="43.44434727021802" lon="11.438049106272379"><ele>456.0</ele><time>2026-04-29T15:37:46.001Z</time></trkpt><trkpt lat="43.44451868667781" lon="11.437973098769953"><ele>452.0</ele><time>2026-04-29T15:37:47.001Z</time></trkpt><trkpt lat="43.444679999225336" lon="11.437905981461588"><ele>448.0</ele><time>2026-04-29T15:37:48.001Z</time></trkpt><trkpt lat="43.44483292199077" lon="11.437834399186572"><ele>444.0</ele><time>2026-04-29T15:37:49.001Z</time></trkpt><trkpt lat="43.4449764407683" lon="11.437743116643066"><ele>444.0</ele><time>2026-04-29T15:37:50.001Z</time></trkpt><trkpt lat="43.44512125421405" lon="11.437638883281501"><ele>444.0</ele><time>2026-04-29T15:37:51.001Z</time></trkpt><trkpt lat="43.44525493493876" lon="11.437502080577847"><ele>444.0</ele><time>2026-04-29T15:37:52.001Z</time></trkpt><trkpt lat="43.445371743612334" lon="11.437340665635968"><ele>445.0</ele><time>2026-04-29T15:37:53.001Z</time></trkpt><trkpt lat="43.44549156356798" lon="11.43718221076649"><ele>446.0</ele><time>2026-04-29T15:37:54.001Z</time></trkpt><trkpt lat="43.44559614710908" lon="11.43700387251357"><ele>447.0</ele><time>2026-04-29T15:37:55.001Z</time></trkpt><trkpt lat="43.445695137476996" lon="11.436824483904859"><ele>447.0</ele><time>2026-04-29T15:37:56.001Z</time></trkpt><trkpt lat="43.44579262742859" lon="11.436649894015964"><ele>447.0</ele><time>2026-04-29T15:37:57.001Z</time></trkpt><trkpt lat="43.44588976214277" lon="11.436479144313985"><ele>447.0</ele><time>2026-04-29T15:37:58.001Z</time></trkpt><trkpt lat="43.44598970172926" lon="11.436308513605876"><ele>446.66666666666663</ele><time>2026-04-29T15:37:59.001Z</time></trkpt><trkpt lat="43.44609502607932" lon="11.436132135839337"><ele>446.3333333333333</ele><time>2026-04-29T15:38:00.001Z</time></trkpt><trkpt lat="43.44620389386713" lon="11.435946917931807"><ele>446.0</ele><time>2026-04-29T15:38:01.001Z</time></trkpt><trkpt lat="43.446319039619695" lon="11.435747394306237"><ele>443.3333333333333</ele><time>2026-04-29T15:38:02.001Z</time></trkpt><trkpt lat="43.44645396521484" lon="11.43555624111277"><ele>440.66666666666663</ele><time>2026-04-29T15:38:03.001Z</time></trkpt><trkpt lat="43.44657370260638" lon="11.435355050627718"><ele>438.0</ele><time>2026-04-29T15:38:04.001Z</time></trkpt><trkpt lat="43.44668252198646" lon="11.435165013630579"><ele>438.0</ele><time>2026-04-29T15:38:05.001Z</time></trkpt><trkpt lat="43.44678594841624" lon="11.434983985248513"><ele>438.0</ele><time>2026-04-29T15:38:06.001Z</time></trkpt><trkpt lat="43.446920246492205" lon="11.434853956054747"><ele>438.0</ele><time>2026-04-29T15:38:07.001Z</time></trkpt><trkpt lat="43.44707246772801" lon="11.434767711423293"><ele>436.66666666666663</ele><time>2026-04-29T15:38:08.001Z</time></trkpt><trkpt lat="43.44725103723648" lon="11.434709268141955"><ele>435.3333333333333</ele><time>2026-04-29T15:38:09.001Z</time></trkpt><trkpt lat="43.447440896726526" lon="11.43465337844805"><ele>434.0</ele><time>2026-04-29T15:38:10.001Z</time></trkpt><trkpt lat="43.44764133229361" lon="11.434592887463317"><ele>434.0</ele><time>2026-04-29T15:38:11.001Z</time></trkpt><trkpt lat="43.44784369111342" lon="11.434530516491744"><ele>434.0</ele><time>2026-04-29T15:38:12.001Z</time></trkpt><trkpt lat="43.44802602187335" lon="11.434471067842022"><ele>434.0</ele><time>2026-04-29T15:38:13.001Z</time></trkpt><trkpt lat="43.44818269883887" lon="11.434419097407874"><ele>431.0</ele><time>2026-04-29T15:38:14.001Z</time></trkpt><trkpt lat="43.44832158056419" lon="11.434353686893386"><ele>428.0</ele><time>2026-04-29T15:38:15Z</time></trkpt><trkpt lat="43.44844891830035" lon="11.434247783826894"><ele>425.0</ele><time>2026-04-29T15:38:16Z</time></trkpt><trkpt lat="43.448577717212544" lon="11.434116375358837"><ele>425.0</ele><time>2026-04-29T15:38:17Z</time></trkpt><trkpt lat="43.44868479679417" lon="11.43397578264132"><ele>425.0</ele><time>2026-04-29T15:38:18Z</time></trkpt><trkpt lat="43.44879427040457" lon="11.433871309839116"><ele>425.0</ele><time>2026-04-29T15:38:19Z</time></trkpt><trkpt lat="43.44892157225815" lon="11.433853592115653"><ele>425.0</ele><time>2026-04-29T15:38:20Z</time></trkpt><trkpt lat="43.44901783193781" lon="11.433898757800264"><ele>421.75</ele><time>2026-04-29T15:38:21Z</time></trkpt><trkpt lat="43.4490869957883" lon="11.433994464844673"><ele>418.5</ele><time>2026-04-29T15:38:22Z</time></trkpt><trkpt lat="43.449120944125205" lon="11.434146633542843"><ele>415.25</ele><time>2026-04-29T15:38:23Z</time></trkpt><trkpt lat="43.44911166649793" lon="11.434339057801203"><ele>412.0</ele><time>2026-04-29T15:38:24Z</time></trkpt><trkpt lat="43.449056569011674" lon="11.434531061710352"><ele>410.6666666666667</ele><time>2026-04-29T15:38:25Z</time></trkpt><trkpt lat="43.44896986688125" lon="11.434738788094739"><ele>409.33333333333337</ele><time>2026-04-29T15:38:26Z</time></trkpt><trkpt lat="43.44887980791936" lon="11.43492125165437"><ele>408.0</ele><time>2026-04-29T15:38:27Z</time></trkpt><trkpt lat="43.44876608302353" lon="11.435088869381078"><ele>408.5</ele><time>2026-04-29T15:38:28Z</time></trkpt><trkpt lat="43.44864317171355" lon="11.435245472818966"><ele>409.0</ele><time>2026-04-29T15:38:29Z</time></trkpt><trkpt lat="43.44853451469283" lon="11.435388640450695"><ele>409.5</ele><time>2026-04-29T15:38:30Z</time></trkpt><trkpt lat="43.44845287486829" lon="11.435511515980808"><ele>410.0</ele><time>2026-04-29T15:38:31Z</time></trkpt><trkpt lat="43.44840394887897" lon="11.43562838072158"><ele>410.0</ele><time>2026-04-29T15:38:32Z</time></trkpt><trkpt lat="43.448398728840054" lon="11.435755526717681"><ele>410.0</ele><time>2026-04-29T15:38:33Z</time></trkpt><trkpt lat="43.44845768360342" lon="11.435857098162737"><ele>410.0</ele><time>2026-04-29T15:38:34Z</time></trkpt><trkpt lat="43.44855591914003" lon="11.435917616364414"><ele>410.0</ele><time>2026-04-29T15:38:35Z</time></trkpt><trkpt lat="43.44868255860823" lon="11.435943497579208"><ele>410.0</ele><time>2026-04-29T15:38:36Z</time></trkpt><trkpt lat="43.44883224387705" lon="11.435970520324895"><ele>407.0</ele><time>2026-04-29T15:38:37Z</time></trkpt><trkpt lat="43.448991436638146" lon="11.435994967060543"><ele>404.0</ele><time>2026-04-29T15:38:38Z</time></trkpt><trkpt lat="43.44914331567954" lon="11.436010147355407"><ele>401.0</ele><time>2026-04-29T15:38:39Z</time></trkpt><trkpt lat="43.449287164570194" lon="11.436012365877044"><ele>401.0</ele><time>2026-04-29T15:38:40Z</time></trkpt><trkpt lat="43.4494204111228" lon="11.435983483595333"><ele>401.0</ele><time>2026-04-29T15:38:41Z</time></trkpt><trkpt lat="43.44953703588548" lon="11.435906642614047"><ele>401.0</ele><time>2026-04-29T15:38:42Z</time></trkpt><trkpt lat="43.449626773949426" lon="11.435795616416312"><ele>401.0</ele><time>2026-04-29T15:38:43Z</time></trkpt><trkpt lat="43.449695468554275" lon="11.435661451613056"><ele>399.0</ele><time>2026-04-29T15:38:44Z</time></trkpt><trkpt lat="43.44979340565841" lon="11.43551574217735"><ele>397.0</ele><time>2026-04-29T15:38:45Z</time></trkpt><trkpt lat="43.44989535524154" lon="11.435345046534882"><ele>395.0</ele><time>2026-04-29T15:38:46Z</time></trkpt><trkpt lat="43.45000794007174" lon="11.435168365963586"><ele>395.0</ele><time>2026-04-29T15:38:47Z</time></trkpt><trkpt lat="43.45011790304358" lon="11.43499453990416"><ele>395.0</ele><time>2026-04-29T15:38:48Z</time></trkpt><trkpt lat="43.45023977068154" lon="11.434861961362628"><ele>395.0</ele><time>2026-04-29T15:38:49Z</time></trkpt><trkpt lat="43.45035767241995" lon="11.4347474971016"><ele>392.75</ele><time>2026-04-29T15:38:50Z</time></trkpt><trkpt lat="43.450468388226035" lon="11.434668175590293"><ele>390.5</ele><time>2026-04-29T15:38:51Z</time></trkpt><trkpt lat="43.45055087784453" lon="11.434562933002976"><ele>388.25</ele><time>2026-04-29T15:38:52Z</time></trkpt><trkpt lat="43.45059081070833" lon="11.43441650339113"><ele>386.0</ele><time>2026-04-29T15:38:53Z</time></trkpt><trkpt lat="43.450548826899286" lon="11.43422897384908"><ele>385.3333333333333</ele><time>2026-04-29T15:38:54Z</time></trkpt><trkpt lat="43.45047045515671" lon="11.434040212753539"><ele>384.66666666666663</ele><time>2026-04-29T15:38:55Z</time></trkpt><trkpt lat="43.45038223275689" lon="11.43381493501679"><ele>384.0</ele><time>2026-04-29T15:38:56Z</time></trkpt><trkpt lat="43.45033643516946" lon="11.433589103146318"><ele>387.66666666666663</ele><time>2026-04-29T15:38:57Z</time></trkpt><trkpt lat="43.45033991989683" lon="11.433336863914038"><ele>391.3333333333333</ele><time>2026-04-29T15:38:58Z</time></trkpt><trkpt lat="43.45035159465" lon="11.433066500495338"><ele>395.0</ele><time>2026-04-29T15:38:59Z</time></trkpt><trkpt lat="43.450365357244515" lon="11.432786128968589"><ele>395.0</ele><time>2026-04-29T15:39:00Z</time></trkpt><trkpt lat="43.45038443769329" lon="11.432541247608318"><ele>395.0</ele><time>2026-04-29T15:39:01Z</time></trkpt><trkpt lat="43.45041495284669" lon="11.432288090358107"><ele>395.0</ele><time>2026-04-29T15:39:02Z</time></trkpt><trkpt lat="43.45045396414824" lon="11.4320710170483"><ele>388.3333333333333</ele><time>2026-04-29T15:39:03Z</time></trkpt><trkpt lat="43.45053216674449" lon="11.431906566518377"><ele>381.66666666666663</ele><time>2026-04-29T15:39:04Z</time></trkpt><trkpt lat="43.45064032130974" lon="11.431730236790857"><ele>375.0</ele><time>2026-04-29T15:39:05Z</time></trkpt><trkpt lat="43.45074645986511" lon="11.431538870412849"><ele>375.0</ele><time>2026-04-29T15:39:06Z</time></trkpt><trkpt lat="43.450834547257145" lon="11.43132611718229"><ele>375.0</ele><time>2026-04-29T15:39:07Z</time></trkpt><trkpt lat="43.45086682829484" lon="11.431095421444596"><ele>375.0</ele><time>2026-04-29T15:39:08Z</time></trkpt><trkpt lat="43.45086582545631" lon="11.430877561551526"><ele>374.6666666666667</ele><time>2026-04-29T15:39:09Z</time></trkpt><trkpt lat="43.45081538141679" lon="11.430648512130272"><ele>374.33333333333337</ele><time>2026-04-29T15:39:10Z</time></trkpt><trkpt lat="43.45077048880149" lon="11.430413204195908"><ele>374.0</ele><time>2026-04-29T15:39:11Z</time></trkpt><trkpt lat="43.450789585144015" lon="11.430185136071307"><ele>373.0</ele><time>2026-04-29T15:39:12Z</time></trkpt><trkpt lat="43.45084954030329" lon="11.429980078779186"><ele>372.0</ele><time>2026-04-29T15:39:13Z</time></trkpt><trkpt lat="43.45093013084847" lon="11.429790115890446"><ele>371.0</ele><time>2026-04-29T15:39:14Z</time></trkpt><trkpt lat="43.451026089661234" lon="11.429614635654906"><ele>370.75</ele><time>2026-04-29T15:39:15Z</time></trkpt><trkpt lat="43.45109139377985" lon="11.42944447387975"><ele>370.5</ele><time>2026-04-29T15:39:16Z</time></trkpt><trkpt lat="43.451099078678375" lon="11.429287772230726"><ele>370.25</ele><time>2026-04-29T15:39:17Z</time></trkpt><trkpt lat="43.45105549649687" lon="11.429083029915672"><ele>370.0</ele><time>2026-04-29T15:39:18Z</time></trkpt><trkpt lat="43.45097927145343" lon="11.428843563155914"><ele>369.75</ele><time>2026-04-29T15:39:19Z</time></trkpt><trkpt lat="43.45095169798643" lon="11.4286363529955"><ele>369.5</ele><time>2026-04-29T15:39:20Z</time></trkpt><trkpt lat="43.45095857693919" lon="11.428468396193628"><ele>369.25</ele><time>2026-04-29T15:39:21Z</time></trkpt><trkpt lat="43.45103386711026" lon="11.428320475680632"><ele>369.0</ele><time>2026-04-29T15:39:22Z</time></trkpt><trkpt lat="43.45114840766389" lon="11.428164302900468"><ele>369.0</ele><time>2026-04-29T15:39:23Z</time></trkpt><trkpt lat="43.45128232478581" lon="11.428046473714195"><ele>369.0</ele><time>2026-04-29T15:39:24Z</time></trkpt><trkpt lat="43.45143372620923" lon="11.427958519787566"><ele>369.0</ele><time>2026-04-29T15:39:25Z</time></trkpt><trkpt lat="43.45160455777025" lon="11.427846847438962"><ele>365.0</ele><time>2026-04-29T15:39:26Z</time></trkpt><trkpt lat="43.45178646080913" lon="11.427765418225826"><ele>361.0</ele><time>2026-04-29T15:39:27Z</time></trkpt><trkpt lat="43.45195464557603" lon="11.427682020185419"><ele>357.0</ele><time>2026-04-29T15:39:28Z</time></trkpt><trkpt lat="43.45210430626207" lon="11.427605793967773"><ele>354.25</ele><time>2026-04-29T15:39:29Z</time></trkpt><trkpt lat="43.452243176774466" lon="11.427537032894927"><ele>351.5</ele><time>2026-04-29T15:39:30Z</time></trkpt><trkpt lat="43.45237371765458" lon="11.4274575556696"><ele>348.75</ele><time>2026-04-29T15:39:31Z</time></trkpt><trkpt lat="43.45248959264895" lon="11.427368549212929"><ele>346.0</ele><time>2026-04-29T15:39:32Z</time></trkpt><trkpt lat="43.45259949335124" lon="11.42722983518782"><ele>346.3333333333333</ele><time>2026-04-29T15:39:33Z</time></trkpt><trkpt lat="43.452711424405344" lon="11.427050056358842"><ele>346.6666666666667</ele><time>2026-04-29T15:39:34Z</time></trkpt><trkpt lat="43.45283292098381" lon="11.42685854963055"><ele>347.0</ele><time>2026-04-29T15:39:35Z</time></trkpt><trkpt lat="43.452979282423485" lon="11.426672577657921"><ele>344.33333333333337</ele><time>2026-04-29T15:39:36Z</time></trkpt><trkpt lat="43.45310924671462" lon="11.426451708191266"><ele>341.6666666666667</ele><time>2026-04-29T15:39:37Z</time></trkpt><trkpt lat="43.45325957499387" lon="11.426237483912944"><ele>339.0</ele><time>2026-04-29T15:39:38Z</time></trkpt><trkpt lat="43.45341067963689" lon="11.426023045988202"><ele>339.0</ele><time>2026-04-29T15:39:39Z</time></trkpt><trkpt lat="43.45356496631878" lon="11.425795743600528"><ele>339.0</ele><time>2026-04-29T15:39:40Z</time></trkpt><trkpt lat="43.453722864325144" lon="11.425568606491668"><ele>335.5</ele><time>2026-04-29T15:39:41Z</time></trkpt><trkpt lat="43.45389001369345" lon="11.425362928430891"><ele>332.0</ele><time>2026-04-29T15:39:42Z</time></trkpt><trkpt lat="43.45403410440226" lon="11.425114295113604"><ele>332.0</ele><time>2026-04-29T15:39:43Z</time></trkpt><trkpt lat="43.4541862170818" lon="11.424881311982555"><ele>332.0</ele><time>2026-04-29T15:39:44Z</time></trkpt><trkpt lat="43.45433271160621" lon="11.424642109056773"><ele>331.6666666666667</ele><time>2026-04-29T15:39:45Z</time></trkpt><trkpt lat="43.45445928027781" lon="11.42441490884978"><ele>331.3333333333333</ele><time>2026-04-29T15:39:46.001Z</time></trkpt><trkpt lat="43.45456843092276" lon="11.424233945974208"><ele>331.0</ele><time>2026-04-29T15:39:47.001Z</time></trkpt><trkpt lat="43.454645103242946" lon="11.424108716723023"><ele>331.4</ele><time>2026-04-29T15:39:48.001Z</time></trkpt><trkpt lat="43.45469910569648" lon="11.424020977711406"><ele>331.8</ele><time>2026-04-29T15:39:49.001Z</time></trkpt><trkpt lat="43.454738963631016" lon="11.423945717795087"><ele>332.2</ele><time>2026-04-29T15:39:51.001Z</time></trkpt><trkpt lat="43.45482131061493" lon="11.424073331679658"><ele>332.59999999999997</ele><time>2026-04-29T15:39:54.001Z</time></trkpt><trkpt lat="43.4549129821297" lon="11.424167601699128"><ele>333.0</ele><time>2026-04-29T15:39:55.001Z</time></trkpt><trkpt lat="43.455025042539255" lon="11.424285394675467"><ele>333.0</ele><time>2026-04-29T15:39:56.001Z</time></trkpt><trkpt lat="43.455147671236396" lon="11.424415020618808"><ele>333.0</ele><time>2026-04-29T15:39:57.001Z</time></trkpt><trkpt lat="43.45529038241204" lon="11.424562496411385"><ele>333.0</ele><time>2026-04-29T15:39:58.001Z</time></trkpt><trkpt lat="43.45544528876869" lon="11.424722477914674"><ele>334.3333333333333</ele><time>2026-04-29T15:39:59.001Z</time></trkpt><trkpt lat="43.45561562705875" lon="11.424901911319807"><ele>335.66666666666663</ele><time>2026-04-29T15:40:00.001Z</time></trkpt><trkpt lat="43.45580060464062" lon="11.425069749791371"><ele>337.0</ele><time>2026-04-29T15:40:01.001Z</time></trkpt><trkpt lat="43.45595097444643" lon="11.425232509237889"><ele>337.0</ele><time>2026-04-29T15:40:02.001Z</time></trkpt><trkpt lat="43.45608468838447" lon="11.425373580840184"><ele>337.0</ele><time>2026-04-29T15:40:03.001Z</time></trkpt><trkpt lat="43.456214691564256" lon="11.4254714867196"><ele>337.0</ele><time>2026-04-29T15:40:04.001Z</time></trkpt><trkpt lat="43.45637773548812" lon="11.425531143327111"><ele>338.66666666666663</ele><time>2026-04-29T15:40:05.001Z</time></trkpt><trkpt lat="43.4565689623611" lon="11.425547925254602"><ele>340.3333333333333</ele><time>2026-04-29T15:40:06.001Z</time></trkpt><trkpt lat="43.456796197773876" lon="11.425551676446114"><ele>342.0</ele><time>2026-04-29T15:40:07.001Z</time></trkpt><trkpt lat="43.45703515517671" lon="11.425635003433547"><ele>339.0</ele><time>2026-04-29T15:40:08.001Z</time></trkpt><trkpt lat="43.45727328250721" lon="11.42572487928574"><ele>336.0</ele><time>2026-04-29T15:40:09.001Z</time></trkpt><trkpt lat="43.45748478727576" lon="11.425796462486465"><ele>336.0</ele><time>2026-04-29T15:40:10.001Z</time></trkpt><trkpt lat="43.45764130808148" lon="11.425880546527889"><ele>336.0</ele><time>2026-04-29T15:40:11.001Z</time></trkpt><trkpt lat="43.457760031257514" lon="11.425941500578624"><ele>336.0</ele><time>2026-04-29T15:40:12.001Z</time></trkpt><trkpt lat="43.45784864049711" lon="11.42597404573345"><ele>336.0</ele><time>2026-04-29T15:40:13.001Z</time></trkpt><trkpt lat="43.457921541224984" lon="11.426011616515915"><ele>336.0</ele><time>2026-04-29T15:40:15.001Z</time></trkpt><trkpt lat="43.45797583804909" lon="11.425791125558"><ele>336.0</ele><time>2026-04-29T15:40:17.001Z</time></trkpt><trkpt lat="43.45801245913232" lon="11.425716203463404"><ele>336.0</ele><time>2026-04-29T15:40:18.001Z</time></trkpt><trkpt lat="43.4580303111737" lon="11.425621366117023"><ele>336.0</ele><time>2026-04-29T15:40:19.001Z</time></trkpt><trkpt lat="43.45803002148145" lon="11.425524245887429"><ele>336.0</ele><time>2026-04-29T15:40:20.001Z</time></trkpt><trkpt lat="43.45795643838537" lon="11.425396727762163"><ele>337.5</ele><time>2026-04-29T15:40:22Z</time></trkpt><trkpt lat="43.45789673734887" lon="11.42535832833046"><ele>339.0</ele><time>2026-04-29T15:40:23Z</time></trkpt><trkpt lat="43.45783074508272" lon="11.425335625711819"><ele>340.5</ele><time>2026-04-29T15:40:24Z</time></trkpt><trkpt lat="43.45771151549642" lon="11.425277833678303"><ele>342.0</ele><time>2026-04-29T15:40:26Z</time></trkpt><trkpt lat="43.45765218849184" lon="11.425242586467544"><ele>343.5</ele><time>2026-04-29T15:40:27Z</time></trkpt><trkpt lat="43.457590430069224" lon="11.425205894704737"><ele>345.0</ele><time>2026-04-29T15:40:28Z</time></trkpt><trkpt lat="43.45753119027972" lon="11.425170699306634"><ele>345.0</ele><time>2026-04-29T15:40:29Z</time></trkpt><trkpt lat="43.4574676974157" lon="11.425134660412231"><ele>345.0</ele><time>2026-04-29T15:40:30Z</time></trkpt><trkpt lat="43.457399937206134" lon="11.425124182855573"><ele>345.0</ele><time>2026-04-29T15:40:31Z</time></trkpt><trkpt lat="43.457340675445835" lon="11.425092102716102"><ele>345.0</ele><time>2026-04-29T15:40:32Z</time></trkpt><trkpt lat="43.45725538581794" lon="11.42503883648395"><ele>345.0</ele><time>2026-04-29T15:40:34Z</time></trkpt><trkpt lat="43.45717956869238" lon="11.424940722605943"><ele>345.0</ele><time>2026-04-29T15:40:36Z</time></trkpt><trkpt lat="43.457140236459104" lon="11.424817832251355"><ele>345.0</ele><time>2026-04-29T15:40:38Z</time></trkpt><trkpt lat="43.457126729802184" lon="11.424682994642303"><ele>345.0</ele><time>2026-04-29T15:40:40Z</time></trkpt><trkpt lat="43.45709075752078" lon="11.424553821063306"><ele>345.0</ele><time>2026-04-29T15:40:42Z</time></trkpt><trkpt lat="43.45703729227693" lon="11.424429850269297"><ele>345.0</ele><time>2026-04-29T15:40:44Z</time></trkpt><trkpt lat="43.456970143203165" lon="11.424304024891965"><ele>345.0</ele><time>2026-04-29T15:40:46Z</time></trkpt><trkpt lat="43.45691235094065" lon="11.424210336940218"><ele>347.25</ele><time>2026-04-29T15:40:47Z</time></trkpt><trkpt lat="43.45683394397164" lon="11.424089645501299"><ele>349.5</ele><time>2026-04-29T15:40:48Z</time></trkpt><trkpt lat="43.45673496689236" lon="11.423963526915129"><ele>351.75</ele><time>2026-04-29T15:40:49Z</time></trkpt><trkpt lat="43.45665525458781" lon="11.42382212076711"><ele>354.0</ele><time>2026-04-29T15:40:50Z</time></trkpt><trkpt lat="43.45659481759137" lon="11.4237188102838"><ele>355.3333333333333</ele><time>2026-04-29T15:40:51Z</time></trkpt><trkpt lat="43.4565595834711" lon="11.42364423882408"><ele>356.6666666666667</ele><time>2026-04-29T15:40:52Z</time></trkpt><trkpt lat="43.456561164435506" lon="11.42352820087275"><ele>358.0</ele><time>2026-04-29T15:40:54Z</time></trkpt><trkpt lat="43.45664587056512" lon="11.423424369436752"><ele>359.33333333333337</ele><time>2026-04-29T15:40:56Z</time></trkpt><trkpt lat="43.45671424789027" lon="11.42338403310927"><ele>360.6666666666667</ele><time>2026-04-29T15:40:57Z</time></trkpt><trkpt lat="43.45679619301687" lon="11.423296500644845"><ele>362.0</ele><time>2026-04-29T15:40:58Z</time></trkpt><trkpt lat="43.45690845991039" lon="11.423223882533831"><ele>362.0</ele><time>2026-04-29T15:40:59Z</time></trkpt><trkpt lat="43.457014720845976" lon="11.423154308156956"><ele>362.0</ele><time>2026-04-29T15:41:00Z</time></trkpt><trkpt lat="43.4571123743922" lon="11.423073982690077"><ele>362.0</ele><time>2026-04-29T15:41:01Z</time></trkpt><trkpt lat="43.45721304309194" lon="11.422967797438885"><ele>362.0</ele><time>2026-04-29T15:41:02Z</time></trkpt><trkpt lat="43.45734393787203" lon="11.42284126722698"><ele>365.0</ele><time>2026-04-29T15:41:03Z</time></trkpt><trkpt lat="43.45749641120945" lon="11.42270386619707"><ele>368.0</ele><time>2026-04-29T15:41:04Z</time></trkpt><trkpt lat="43.45765232258355" lon="11.422571647636369"><ele>371.0</ele><time>2026-04-29T15:41:05Z</time></trkpt><trkpt lat="43.45780538391539" lon="11.422429589221853"><ele>371.33333333333337</ele><time>2026-04-29T15:41:06Z</time></trkpt><trkpt lat="43.45795224949947" lon="11.422279110032235"><ele>371.6666666666667</ele><time>2026-04-29T15:41:07Z</time></trkpt><trkpt lat="43.45810175437554" lon="11.422121846176594"><ele>372.0</ele><time>2026-04-29T15:41:08Z</time></trkpt><trkpt lat="43.45825735968666" lon="11.42196773582156"><ele>373.6666666666667</ele><time>2026-04-29T15:41:09Z</time></trkpt><trkpt lat="43.458427334331" lon="11.42182239913354"><ele>375.33333333333337</ele><time>2026-04-29T15:41:10Z</time></trkpt><trkpt lat="43.458591957619326" lon="11.421690735893113"><ele>377.0</ele><time>2026-04-29T15:41:11Z</time></trkpt><trkpt lat="43.458730324296056" lon="11.421584878601148"><ele>377.20000000000005</ele><time>2026-04-29T15:41:12Z</time></trkpt><trkpt lat="43.45885332612269" lon="11.421489048772811"><ele>377.4</ele><time>2026-04-29T15:41:13Z</time></trkpt><trkpt lat="43.4589547557622" lon="11.421459206062977"><ele>377.6</ele><time>2026-04-29T15:41:14Z</time></trkpt><trkpt lat="43.459035602322345" lon="11.421387124010465"><ele>377.79999999999995</ele><time>2026-04-29T15:41:16Z</time></trkpt><trkpt lat="43.45902051494291" lon="11.421244737347612"><ele>378.0</ele><time>2026-04-29T15:41:19Z</time></trkpt><trkpt lat="43.45897884934453" lon="11.421170034937436"><ele>378.0</ele><time>2026-04-29T15:41:20Z</time></trkpt><trkpt lat="43.45890888958084" lon="11.42111877370012"><ele>378.0</ele><time>2026-04-29T15:41:21Z</time></trkpt><trkpt lat="43.45884130904065" lon="11.421045074657188"><ele>378.0</ele><time>2026-04-29T15:41:22Z</time></trkpt><trkpt lat="43.45876440697815" lon="11.420957968693978"><ele>378.0</ele><time>2026-04-29T15:41:23Z</time></trkpt><trkpt lat="43.45868469659064" lon="11.420863912807059"><ele>378.0</ele><time>2026-04-29T15:41:24Z</time></trkpt><trkpt lat="43.45859857542903" lon="11.420776394104786"><ele>376.79999999999995</ele><time>2026-04-29T15:41:25Z</time></trkpt><trkpt lat="43.45851390695634" lon="11.420683379113566"><ele>375.6</ele><time>2026-04-29T15:41:26Z</time></trkpt><trkpt lat="43.458432541851344" lon="11.42057675806024"><ele>374.4</ele><time>2026-04-29T15:41:27Z</time></trkpt><trkpt lat="43.45834861826516" lon="11.420474389405834"><ele>373.20000000000005</ele><time>2026-04-29T15:41:28Z</time></trkpt><trkpt lat="43.45827366188653" lon="11.42035260771845"><ele>372.0</ele><time>2026-04-29T15:41:29Z</time></trkpt><trkpt lat="43.458199986727344" lon="11.420256922932845"><ele>370.0</ele><time>2026-04-29T15:41:30Z</time></trkpt><trkpt lat="43.45813532840638" lon="11.420181285016941"><ele>368.0</ele><time>2026-04-29T15:41:31Z</time></trkpt><trkpt lat="43.45806432990738" lon="11.420111146605116"><ele>366.0</ele><time>2026-04-29T15:41:32Z</time></trkpt><trkpt lat="43.4579847425373" lon="11.42005558826145"><ele>364.0</ele><time>2026-04-29T15:41:33Z</time></trkpt><trkpt lat="43.457897631554495" lon="11.420005701664447"><ele>362.0</ele><time>2026-04-29T15:41:34Z</time></trkpt><trkpt lat="43.457801825217416" lon="11.419964757124722"><ele>360.83333333333337</ele><time>2026-04-29T15:41:35Z</time></trkpt><trkpt lat="43.45770241828724" lon="11.419925237436361"><ele>359.6666666666667</ele><time>2026-04-29T15:41:36Z</time></trkpt><trkpt lat="43.45760721046775" lon="11.419913721911037"><ele>358.5</ele><time>2026-04-29T15:41:37Z</time></trkpt><trkpt lat="43.457532087588326" lon="11.419871276471799"><ele>357.3333333333333</ele><time>2026-04-29T15:41:38Z</time></trkpt><trkpt lat="43.45746853244104" lon="11.419824494103807"><ele>356.16666666666663</ele><time>2026-04-29T15:41:39Z</time></trkpt><trkpt lat="43.457430340402325" lon="11.41974745993744"><ele>355.0</ele><time>2026-04-29T15:41:40Z</time></trkpt><trkpt lat="43.45738740971232" lon="11.419670097983326"><ele>354.0</ele><time>2026-04-29T15:41:41Z</time></trkpt><trkpt lat="43.457280387800395" lon="11.419590041490947"><ele>353.0</ele><time>2026-04-29T15:41:43Z</time></trkpt><trkpt lat="43.457222172108686" lon="11.419547900961149"><ele>352.0</ele><time>2026-04-29T15:41:44Z</time></trkpt><trkpt lat="43.45715823028475" lon="11.4195100735358"><ele>351.0</ele><time>2026-04-29T15:41:45Z</time></trkpt><trkpt lat="43.457080015676944" lon="11.4194459553355"><ele>350.0</ele><time>2026-04-29T15:41:47Z</time></trkpt><trkpt lat="43.45708018992337" lon="11.41935745087583"><ele>349.0</ele><time>2026-04-29T15:41:49Z</time></trkpt><trkpt lat="43.45714322158135" lon="11.419177957725704"><ele>349.0</ele><time>2026-04-29T15:41:51Z</time></trkpt><trkpt lat="43.457196010969085" lon="11.419065386360282"><ele>349.0</ele><time>2026-04-29T15:41:52Z</time></trkpt><trkpt lat="43.457236593836676" lon="11.418970427305121"><ele>349.0</ele><time>2026-04-29T15:41:53Z</time></trkpt><trkpt lat="43.45727338032201" lon="11.418892595248328"><ele>349.0</ele><time>2026-04-29T15:41:54Z</time></trkpt><trkpt lat="43.45731012427747" lon="11.418759672365352"><ele>349.0</ele><time>2026-04-29T15:41:56Z</time></trkpt><trkpt lat="43.45725976103028" lon="11.41860825898534"><ele>348.0</ele><time>2026-04-29T15:41:58Z</time></trkpt><trkpt lat="43.45721259555012" lon="11.418489504586091"><ele>347.0</ele><time>2026-04-29T15:42:00Z</time></trkpt><trkpt lat="43.457252257596295" lon="11.418368757780598"><ele>346.0</ele><time>2026-04-29T15:42:02Z</time></trkpt><trkpt lat="43.45728875430285" lon="11.418237723211787"><ele>345.0</ele><time>2026-04-29T15:42:03Z</time></trkpt><trkpt lat="43.45731256811508" lon="11.418086757872551"><ele>344.0</ele><time>2026-04-29T15:42:04Z</time></trkpt><trkpt lat="43.45732970051808" lon="11.41791221167988"><ele>343.6666666666667</ele><time>2026-04-29T15:42:05Z</time></trkpt><trkpt lat="43.45733239325928" lon="11.417719464987407"><ele>343.3333333333333</ele><time>2026-04-29T15:42:06Z</time></trkpt><trkpt lat="43.4573495348767" lon="11.417512373076399"><ele>343.0</ele><time>2026-04-29T15:42:07Z</time></trkpt><trkpt lat="43.45740556022685" lon="11.417294206749348"><ele>342.0</ele><time>2026-04-29T15:42:08Z</time></trkpt><trkpt lat="43.45749030993028" lon="11.417080913693141"><ele>341.0</ele><time>2026-04-29T15:42:09Z</time></trkpt><trkpt lat="43.45759467911006" lon="11.41688100968956"><ele>340.0</ele><time>2026-04-29T15:42:10Z</time></trkpt><trkpt lat="43.457707772053986" lon="11.416694113768697"><ele>340.0</ele><time>2026-04-29T15:42:11.001Z</time></trkpt><trkpt lat="43.457848108844075" lon="11.416545750875205"><ele>340.0</ele><time>2026-04-29T15:42:12.001Z</time></trkpt><trkpt lat="43.45801049168114" lon="11.416430848435986"><ele>340.0</ele><time>2026-04-29T15:42:13.001Z</time></trkpt><trkpt lat="43.458190818057254" lon="11.416344381589434"><ele>340.3333333333333</ele><time>2026-04-29T15:42:14.001Z</time></trkpt><trkpt lat="43.45838446398395" lon="11.416271885986053"><ele>340.6666666666667</ele><time>2026-04-29T15:42:15.001Z</time></trkpt><trkpt lat="43.4585836473115" lon="11.416193936404099"><ele>341.0</ele><time>2026-04-29T15:42:16.001Z</time></trkpt><trkpt lat="43.458783293276625" lon="11.416094111864675"><ele>343.0</ele><time>2026-04-29T15:42:17.001Z</time></trkpt><trkpt lat="43.45898411816785" lon="11.415965301471967"><ele>345.0</ele><time>2026-04-29T15:42:18.001Z</time></trkpt><trkpt lat="43.45918448509036" lon="11.41581993413297"><ele>347.0</ele><time>2026-04-29T15:42:19.001Z</time></trkpt><trkpt lat="43.459390231005514" lon="11.415666967760542"><ele>347.0</ele><time>2026-04-29T15:42:20.001Z</time></trkpt><trkpt lat="43.45959754896357" lon="11.415513899029351"><ele>347.0</ele><time>2026-04-29T15:42:21.001Z</time></trkpt><trkpt lat="43.45980715768939" lon="11.415359005402204"><ele>347.5</ele><time>2026-04-29T15:42:22.001Z</time></trkpt><trkpt lat="43.460022892800964" lon="11.415203846339633"><ele>348.0</ele><time>2026-04-29T15:42:23.001Z</time></trkpt><trkpt lat="43.46024325371599" lon="11.415053344839924"><ele>351.0</ele><time>2026-04-29T15:42:24.001Z</time></trkpt><trkpt lat="43.46046503490436" lon="11.414919172009002"><ele>354.0</ele><time>2026-04-29T15:42:25.001Z</time></trkpt><trkpt lat="43.4606664572745" lon="11.414810783693708"><ele>354.0</ele><time>2026-04-29T15:42:26.001Z</time></trkpt><trkpt lat="43.46084284062883" lon="11.414688003276103"><ele>354.0</ele><time>2026-04-29T15:42:27Z</time></trkpt><trkpt lat="43.461007643799086" lon="11.414507795927227"><ele>354.0</ele><time>2026-04-29T15:42:28Z</time></trkpt><trkpt lat="43.461168476593585" lon="11.414299200087237"><ele>355.3333333333333</ele><time>2026-04-29T15:42:29Z</time></trkpt><trkpt lat="43.46131763868815" lon="11.414109362289508"><ele>356.66666666666663</ele><time>2026-04-29T15:42:30Z</time></trkpt><trkpt lat="43.46146981745713" lon="11.413956291366592"><ele>358.0</ele><time>2026-04-29T15:42:31Z</time></trkpt><trkpt lat="43.46164116740245" lon="11.413837242417818"><ele>356.3333333333333</ele><time>2026-04-29T15:42:32Z</time></trkpt><trkpt lat="43.46183261415975" lon="11.413753793270299"><ele>354.6666666666667</ele><time>2026-04-29T15:42:33Z</time></trkpt><trkpt lat="43.462026539483205" lon="11.4136717940825"><ele>353.0</ele><time>2026-04-29T15:42:34Z</time></trkpt><trkpt lat="43.4622101120343" lon="11.41354271817908"><ele>353.0</ele><time>2026-04-29T15:42:35Z</time></trkpt><trkpt lat="43.46236965159265" lon="11.413350192875185"><ele>353.0</ele><time>2026-04-29T15:42:36Z</time></trkpt><trkpt lat="43.46250523141317" lon="11.41312206392903"><ele>353.0</ele><time>2026-04-29T15:42:37Z</time></trkpt><trkpt lat="43.46263493584429" lon="11.41288330250696"><ele>352.5</ele><time>2026-04-29T15:42:38Z</time></trkpt><trkpt lat="43.46277206808481" lon="11.412637401528144"><ele>352.0</ele><time>2026-04-29T15:42:39Z</time></trkpt><trkpt lat="43.46291115495915" lon="11.412381161891116"><ele>354.0</ele><time>2026-04-29T15:42:40Z</time></trkpt><trkpt lat="43.463051341484686" lon="11.41211852473039"><ele>356.0</ele><time>2026-04-29T15:42:41Z</time></trkpt><trkpt lat="43.46319189188087" lon="11.411856448736074"><ele>356.0</ele><time>2026-04-29T15:42:42Z</time></trkpt><trkpt lat="43.463337484810836" lon="11.411591803160505"><ele>356.0</ele><time>2026-04-29T15:42:43Z</time></trkpt><trkpt lat="43.46348447291517" lon="11.411323914136844"><ele>355.5</ele><time>2026-04-29T15:42:44Z</time></trkpt><trkpt lat="43.46363529791567" lon="11.411053392232859"><ele>355.0</ele><time>2026-04-29T15:42:45Z</time></trkpt><trkpt lat="43.46378625043152" lon="11.410783749627193"><ele>357.5</ele><time>2026-04-29T15:42:46Z</time></trkpt><trkpt lat="43.46392281737985" lon="11.410521524765322"><ele>360.0</ele><time>2026-04-29T15:42:47Z</time></trkpt><trkpt lat="43.464032992160035" lon="11.410257211055889"><ele>360.0</ele><time>2026-04-29T15:42:48Z</time></trkpt><trkpt lat="43.46410013839896" lon="11.409985661659622"><ele>360.0</ele><time>2026-04-29T15:42:49Z</time></trkpt><trkpt lat="43.464135987649456" lon="11.409701455723761"><ele>360.0</ele><time>2026-04-29T15:42:50Z</time></trkpt><trkpt lat="43.464152613736736" lon="11.409499942365676"><ele>359.0</ele><time>2026-04-29T15:42:51Z</time></trkpt><trkpt lat="43.464161996811804" lon="11.409354177444548"><ele>358.0</ele><time>2026-04-29T15:42:52Z</time></trkpt><trkpt lat="43.46419010448217" lon="11.409263331548361"><ele>357.0</ele><time>2026-04-29T15:42:54Z</time></trkpt><trkpt lat="43.463996321659344" lon="11.409028274214718"><ele>356.0</ele><time>2026-04-29T15:42:56Z</time></trkpt><trkpt lat="43.463936235328866" lon="11.408894148114104"><ele>355.75</ele><time>2026-04-29T15:42:57Z</time></trkpt><trkpt lat="43.46386193881448" lon="11.408757710765112"><ele>355.5</ele><time>2026-04-29T15:42:58Z</time></trkpt><trkpt lat="43.46376288021669" lon="11.408624082204577"><ele>355.25</ele><time>2026-04-29T15:42:59Z</time></trkpt><trkpt lat="43.463654704726494" lon="11.40846035427157"><ele>355.0</ele><time>2026-04-29T15:43:00Z</time></trkpt><trkpt lat="43.4635298640302" lon="11.408279132074155"><ele>356.66666666666663</ele><time>2026-04-29T15:43:01Z</time></trkpt><trkpt lat="43.46340713551936" lon="11.40809933795879"><ele>358.3333333333333</ele><time>2026-04-29T15:43:02Z</time></trkpt><trkpt lat="43.46327946462071" lon="11.407929251173906"><ele>360.0</ele><time>2026-04-29T15:43:03Z</time></trkpt><trkpt lat="43.46314823128852" lon="11.407777337751087"><ele>361.25</ele><time>2026-04-29T15:43:04Z</time></trkpt><trkpt lat="43.463029192527216" lon="11.407636213559217"><ele>362.5</ele><time>2026-04-29T15:43:05Z</time></trkpt><trkpt lat="43.462930553718046" lon="11.407497235763795"><ele>363.75</ele><time>2026-04-29T15:43:06Z</time></trkpt><trkpt lat="43.462850007826766" lon="11.407372024546188"><ele>365.0</ele><time>2026-04-29T15:43:07Z</time></trkpt><trkpt lat="43.46277201654281" lon="11.407262416061169"><ele>367.4</ele><time>2026-04-29T15:43:08Z</time></trkpt><trkpt lat="43.46269569467505" lon="11.407186456144787"><ele>369.8</ele><time>2026-04-29T15:43:09Z</time></trkpt><trkpt lat="43.462616429532986" lon="11.407088959554432"><ele>372.20000000000005</ele><time>2026-04-29T15:43:10Z</time></trkpt><trkpt lat="43.46254977043256" lon="11.40700209003588"><ele>374.6</ele><time>2026-04-29T15:43:11Z</time></trkpt><trkpt lat="43.46246548226573" lon="11.406919290534107"><ele>377.0</ele><time>2026-04-29T15:43:12Z</time></trkpt><trkpt lat="43.4624005238079" lon="11.406823997063206"><ele>378.1666666666667</ele><time>2026-04-29T15:43:13Z</time></trkpt><trkpt lat="43.46233446262376" lon="11.406785322822708"><ele>379.33333333333337</ele><time>2026-04-29T15:43:14Z</time></trkpt><trkpt lat="43.462265850129064" lon="11.40673179537366"><ele>380.5</ele><time>2026-04-29T15:43:15Z</time></trkpt><trkpt lat="43.4621635513892" lon="11.406736482907874"><ele>381.6666666666667</ele><time>2026-04-29T15:43:16Z</time></trkpt><trkpt lat="43.46207227164907" lon="11.406740186339688"><ele>382.8333333333333</ele><time>2026-04-29T15:43:17Z</time></trkpt><trkpt lat="43.46197301460152" lon="11.406755259612577"><ele>384.0</ele><time>2026-04-29T15:43:18Z</time></trkpt><trkpt lat="43.46188546843027" lon="11.406738464955037"><ele>387.0</ele><time>2026-04-29T15:43:19Z</time></trkpt><trkpt lat="43.461797199703376" lon="11.406755047633128"><ele>390.0</ele><time>2026-04-29T15:43:20Z</time></trkpt><trkpt lat="43.461688579967955" lon="11.406741858463322"><ele>393.0</ele><time>2026-04-29T15:43:21Z</time></trkpt><trkpt lat="43.46157438806154" lon="11.406768297918534"><ele>396.0</ele><time>2026-04-29T15:43:22Z</time></trkpt><trkpt lat="43.46146287839127" lon="11.406771924414125"><ele>399.0</ele><time>2026-04-29T15:43:23Z</time></trkpt><trkpt lat="43.46135786071478" lon="11.406786872083629"><ele>403.2</ele><time>2026-04-29T15:43:24Z</time></trkpt><trkpt lat="43.46126307504497" lon="11.406808169429372"><ele>407.4</ele><time>2026-04-29T15:43:25Z</time></trkpt><trkpt lat="43.461185634261746" lon="11.406830022227455"><ele>411.6</ele><time>2026-04-29T15:43:26Z</time></trkpt><trkpt lat="43.46112515405351" lon="11.406864673092688"><ele>415.8</ele><time>2026-04-29T15:43:27Z</time></trkpt><trkpt lat="43.461039561886594" lon="11.406787254003204"><ele>420.0</ele><time>2026-04-29T15:43:30Z</time></trkpt><trkpt lat="43.461051514066924" lon="11.406623166294974"><ele>420.0</ele><time>2026-04-29T15:43:32Z</time></trkpt><trkpt lat="43.46107637794988" lon="11.406539687106557"><ele>420.0</ele><time>2026-04-29T15:43:33Z</time></trkpt><trkpt lat="43.46110275572654" lon="11.406442228257264"><ele>420.0</ele><time>2026-04-29T15:43:34Z</time></trkpt><trkpt lat="43.4611234731886" lon="11.406333373471021"><ele>420.0</ele><time>2026-04-29T15:43:35Z</time></trkpt><trkpt lat="43.46115931090403" lon="11.406230479382337"><ele>420.0</ele><time>2026-04-29T15:43:36Z</time></trkpt><trkpt lat="43.46119818011427" lon="11.40612642045622"><ele>420.0</ele><time>2026-04-29T15:43:37Z</time></trkpt><trkpt lat="43.461213236348925" lon="11.405995829812268"><ele>422.4</ele><time>2026-04-29T15:43:38Z</time></trkpt><trkpt lat="43.46119575673464" lon="11.405873880068867"><ele>424.8</ele><time>2026-04-29T15:43:39Z</time></trkpt><trkpt lat="43.461150416455254" lon="11.40576435355955"><ele>427.20000000000005</ele><time>2026-04-29T15:43:40Z</time></trkpt><trkpt lat="43.461094433915335" lon="11.405656540021916"><ele>429.6</ele><time>2026-04-29T15:43:41Z</time></trkpt><trkpt lat="43.461020793173866" lon="11.40552735123778"><ele>432.0</ele><time>2026-04-29T15:43:42Z</time></trkpt><trkpt lat="43.46094609429887" lon="11.40539203814282"><ele>432.5</ele><time>2026-04-29T15:43:43Z</time></trkpt><trkpt lat="43.46086902739704" lon="11.405244098953013"><ele>433.0</ele><time>2026-04-29T15:43:44Z</time></trkpt><trkpt lat="43.46079947641343" lon="11.405074543713129"><ele>433.5</ele><time>2026-04-29T15:43:45Z</time></trkpt><trkpt lat="43.46070312371372" lon="11.404917364447401"><ele>434.0</ele><time>2026-04-29T15:43:46Z</time></trkpt><trkpt lat="43.460628501273185" lon="11.404761540101974"><ele>435.6</ele><time>2026-04-29T15:43:47Z</time></trkpt><trkpt lat="43.460566733222095" lon="11.404644277692329"><ele>437.2</ele><time>2026-04-29T15:43:48Z</time></trkpt><trkpt lat="43.46052176917474" lon="11.404533646825646"><ele>438.80000000000007</ele><time>2026-04-29T15:43:49Z</time></trkpt><trkpt lat="43.46047696126288" lon="11.404433742393119"><ele>440.40000000000003</ele><time>2026-04-29T15:43:50Z</time></trkpt><trkpt lat="43.46046726349308" lon="11.40431023444091"><ele>442.0</ele><time>2026-04-29T15:43:51Z</time></trkpt><trkpt lat="43.460461486487134" lon="11.404167157618598"><ele>442.0</ele><time>2026-04-29T15:43:52Z</time></trkpt><trkpt lat="43.46047777049963" lon="11.404067492528558"><ele>442.00000000000006</ele><time>2026-04-29T15:43:53Z</time></trkpt><trkpt lat="43.46054720654651" lon="11.404036512501364"><ele>442.00000000000006</ele><time>2026-04-29T15:43:54Z</time></trkpt><trkpt lat="43.46066919178206" lon="11.403942237162102"><ele>442.0</ele><time>2026-04-29T15:43:56Z</time></trkpt><trkpt lat="43.46076700021481" lon="11.403834302391978"><ele>442.0</ele><time>2026-04-29T15:43:57Z</time></trkpt><trkpt lat="43.46090127846373" lon="11.403737989646325"><ele>445.6666666666667</ele><time>2026-04-29T15:43:58Z</time></trkpt><trkpt lat="43.46103540043284" lon="11.403618324394738"><ele>449.33333333333337</ele><time>2026-04-29T15:43:59Z</time></trkpt><trkpt lat="43.46116709380029" lon="11.403501255729442"><ele>453.0</ele><time>2026-04-29T15:44:00Z</time></trkpt><trkpt lat="43.46129334807965" lon="11.403390634377487"><ele>453.0</ele><time>2026-04-29T15:44:01Z</time></trkpt><trkpt lat="43.461408610698726" lon="11.403289643656402"><ele>452.99999999999994</ele><time>2026-04-29T15:44:02Z</time></trkpt><trkpt lat="43.461516652038604" lon="11.40319730097052"><ele>452.99999999999994</ele><time>2026-04-29T15:44:03Z</time></trkpt><trkpt lat="43.461603657438935" lon="11.403133661849887"><ele>453.0</ele><time>2026-04-29T15:44:04Z</time></trkpt><trkpt lat="43.46167919855051" lon="11.403076347354853"><ele>453.0</ele><time>2026-04-29T15:44:05Z</time></trkpt><trkpt lat="43.461728140938654" lon="11.403013756226459"><ele>455.1666666666667</ele><time>2026-04-29T15:44:06Z</time></trkpt><trkpt lat="43.46181572700057" lon="11.402899904811258"><ele>457.33333333333337</ele><time>2026-04-29T15:44:08Z</time></trkpt><trkpt lat="43.46184023541251" lon="11.402810438070789"><ele>459.5</ele><time>2026-04-29T15:44:09Z</time></trkpt><trkpt lat="43.46184535710952" lon="11.40272136221958"><ele>461.6666666666667</ele><time>2026-04-29T15:44:10Z</time></trkpt><trkpt lat="43.4618405911818" lon="11.402631061719651"><ele>463.83333333333337</ele><time>2026-04-29T15:44:11Z</time></trkpt><trkpt lat="43.461845050178255" lon="11.40254344303762"><ele>466.0</ele><time>2026-04-29T15:44:12Z</time></trkpt><trkpt lat="43.46184792409527" lon="11.40245120098469"><ele>466.0</ele><time>2026-04-29T15:44:13Z</time></trkpt><trkpt lat="43.46186005068586" lon="11.40236089029559"><ele>466.0</ele><time>2026-04-29T15:44:14Z</time></trkpt><trkpt lat="43.461884161476775" lon="11.40225114398515"><ele>466.0</ele><time>2026-04-29T15:44:15Z</time></trkpt><trkpt lat="43.4619138727771" lon="11.402122164443556"><ele>466.0</ele><time>2026-04-29T15:44:16Z</time></trkpt><trkpt lat="43.46193345025442" lon="11.401970644819501"><ele>466.0</ele><time>2026-04-29T15:44:17Z</time></trkpt><trkpt lat="43.46196266765418" lon="11.401820029515175"><ele>467.33333333333337</ele><time>2026-04-29T15:44:18Z</time></trkpt><trkpt lat="43.46199253959415" lon="11.40167744083761"><ele>468.6666666666667</ele><time>2026-04-29T15:44:19Z</time></trkpt><trkpt lat="43.46200840052521" lon="11.401556514457393"><ele>470.0</ele><time>2026-04-29T15:44:20Z</time></trkpt><trkpt lat="43.462006314490935" lon="11.401460491455317"><ele>471.33333333333337</ele><time>2026-04-29T15:44:21Z</time></trkpt><trkpt lat="43.461981071928996" lon="11.401368199194504"><ele>472.6666666666667</ele><time>2026-04-29T15:44:22Z</time></trkpt><trkpt lat="43.461955650661864" lon="11.401255295219263"><ele>474.0</ele><time>2026-04-29T15:44:23Z</time></trkpt><trkpt lat="43.46187869149621" lon="11.40114794352458"><ele>475.2</ele><time>2026-04-29T15:44:24Z</time></trkpt><trkpt lat="43.46182290877141" lon="11.401028254257072"><ele>476.4</ele><time>2026-04-29T15:44:25Z</time></trkpt><trkpt lat="43.46175955996312" lon="11.400901714379792"><ele>477.6</ele><time>2026-04-29T15:44:26Z</time></trkpt><trkpt lat="43.46170678029163" lon="11.400761874915446"><ele>478.8</ele><time>2026-04-29T15:44:27Z</time></trkpt><trkpt lat="43.461675182269374" lon="11.400627357471503"><ele>480.0</ele><time>2026-04-29T15:44:28Z</time></trkpt><trkpt lat="43.461671355140936" lon="11.400506903474588"><ele>481.8</ele><time>2026-04-29T15:44:29Z</time></trkpt><trkpt lat="43.46168325113344" lon="11.40038452428999"><ele>483.6</ele><time>2026-04-29T15:44:30Z</time></trkpt><trkpt lat="43.46171232576639" lon="11.400255280507096"><ele>485.4</ele><time>2026-04-29T15:44:31Z</time></trkpt><trkpt lat="43.46177019312818" lon="11.4001268032031"><ele>487.2</ele><time>2026-04-29T15:44:32Z</time></trkpt><trkpt lat="43.46183040033162" lon="11.399975370564867"><ele>489.0</ele><time>2026-04-29T15:44:33Z</time></trkpt><trkpt lat="43.46189917217111" lon="11.399817502981206"><ele>488.0</ele><time>2026-04-29T15:44:34Z</time></trkpt><trkpt lat="43.461976840453815" lon="11.39962619256136"><ele>487.0</ele><time>2026-04-29T15:44:35Z</time></trkpt><trkpt lat="43.4620818971372" lon="11.399463740424604"><ele>486.0</ele><time>2026-04-29T15:44:36Z</time></trkpt><trkpt lat="43.462176867216485" lon="11.399319338725354"><ele>486.0</ele><time>2026-04-29T15:44:37Z</time></trkpt><trkpt lat="43.46226693168865" lon="11.39917024239776"><ele>486.0</ele><time>2026-04-29T15:44:38Z</time></trkpt><trkpt lat="43.46234661461157" lon="11.399022430485482"><ele>486.0</ele><time>2026-04-29T15:44:39Z</time></trkpt><trkpt lat="43.46242002286608" lon="11.398904625861984"><ele>486.0</ele><time>2026-04-29T15:44:40Z</time></trkpt><trkpt lat="43.46248026895782" lon="11.398780969991849"><ele>489.20000000000005</ele><time>2026-04-29T15:44:41Z</time></trkpt><trkpt lat="43.46252126944808" lon="11.398652680952894"><ele>492.40000000000003</ele><time>2026-04-29T15:44:42Z</time></trkpt><trkpt lat="43.46255242153778" lon="11.398519780422204"><ele>495.6</ele><time>2026-04-29T15:44:43Z</time></trkpt><trkpt lat="43.46258265950432" lon="11.39836368599223"><ele>498.8</ele><time>2026-04-29T15:44:44Z</time></trkpt><trkpt lat="43.46261172939263" lon="11.398193117372484"><ele>502.0</ele><time>2026-04-29T15:44:45Z</time></trkpt><trkpt lat="43.46263948150747" lon="11.398020233350627"><ele>504.25</ele><time>2026-04-29T15:44:46Z</time></trkpt><trkpt lat="43.46266015209683" lon="11.397838280969113"><ele>506.5</ele><time>2026-04-29T15:44:47Z</time></trkpt><trkpt lat="43.46269479186095" lon="11.397646583924733"><ele>508.75</ele><time>2026-04-29T15:44:48Z</time></trkpt><trkpt lat="43.46272848231801" lon="11.397422975388153"><ele>511.0</ele><time>2026-04-29T15:44:49Z</time></trkpt><trkpt lat="43.46274743593065" lon="11.39718872986057"><ele>512.25</ele><time>2026-04-29T15:44:50Z</time></trkpt><trkpt lat="43.462793052094376" lon="11.39697448351375"><ele>513.5</ele><time>2026-04-29T15:44:51Z</time></trkpt><trkpt lat="43.46282688557553" lon="11.396778158696959"><ele>514.75</ele><time>2026-04-29T15:44:52Z</time></trkpt><trkpt lat="43.462853147693316" lon="11.396588187250416"><ele>516.0</ele><time>2026-04-29T15:44:53Z</time></trkpt><trkpt lat="43.46287823212463" lon="11.396410173822037"><ele>516.2</ele><time>2026-04-29T15:44:54Z</time></trkpt><trkpt lat="43.462901337829976" lon="11.396263186999755"><ele>516.4000000000001</ele><time>2026-04-29T15:44:55Z</time></trkpt><trkpt lat="43.46293383577251" lon="11.396124073128934"><ele>516.6</ele><time>2026-04-29T15:44:56Z</time></trkpt><trkpt lat="43.462985921783876" lon="11.395993186750724"><ele>516.8000000000001</ele><time>2026-04-29T15:44:57Z</time></trkpt><trkpt lat="43.463041761970416" lon="11.395848355747232"><ele>517.0</ele><time>2026-04-29T15:44:58Z</time></trkpt><trkpt lat="43.463097945795205" lon="11.395662889608955"><ele>516.75</ele><time>2026-04-29T15:44:59Z</time></trkpt><trkpt lat="43.463156604623165" lon="11.395465996813472"><ele>516.5</ele><time>2026-04-29T15:45:00Z</time></trkpt><trkpt lat="43.46324097253121" lon="11.39533018569515"><ele>516.25</ele><time>2026-04-29T15:45:01Z</time></trkpt><trkpt lat="43.46331453762442" lon="11.395193092440266"><ele>516.0</ele><time>2026-04-29T15:45:02Z</time></trkpt><trkpt lat="43.46339468583777" lon="11.395066398787915"><ele>516.0</ele><time>2026-04-29T15:45:03Z</time></trkpt><trkpt lat="43.46348156496288" lon="11.394946332728779"><ele>516.0</ele><time>2026-04-29T15:45:04Z</time></trkpt><trkpt lat="43.463551225716046" lon="11.394815455687022"><ele>516.0</ele><time>2026-04-29T15:45:05Z</time></trkpt><trkpt lat="43.46362806108831" lon="11.394696739602407"><ele>516.0</ele><time>2026-04-29T15:45:06Z</time></trkpt><trkpt lat="43.46370933473041" lon="11.39454871099769"><ele>518.3333333333334</ele><time>2026-04-29T15:45:07Z</time></trkpt><trkpt lat="43.463782794675126" lon="11.394381720019675"><ele>520.6666666666667</ele><time>2026-04-29T15:45:08Z</time></trkpt><trkpt lat="43.463869273745374" lon="11.394198847045113"><ele>523.0</ele><time>2026-04-29T15:45:09Z</time></trkpt><trkpt lat="43.463957396877305" lon="11.394011299715226"><ele>523.0</ele><time>2026-04-29T15:45:10Z</time></trkpt><trkpt lat="43.464026388669986" lon="11.393855412264209"><ele>523.0</ele><time>2026-04-29T15:45:11Z</time></trkpt><trkpt lat="43.4640858079165" lon="11.393757453007364"><ele>523.0</ele><time>2026-04-29T15:45:12Z</time></trkpt><trkpt lat="43.46414827463854" lon="11.393614964318234"><ele>523.0</ele><time>2026-04-29T15:45:14Z</time></trkpt><trkpt lat="43.46416273406206" lon="11.393506209535683"><ele>523.0</ele><time>2026-04-29T15:45:15Z</time></trkpt><trkpt lat="43.464184718488674" lon="11.393380049727483"><ele>522.5</ele><time>2026-04-29T15:45:16Z</time></trkpt><trkpt lat="43.464207756794835" lon="11.393263532288525"><ele>522.0</ele><time>2026-04-29T15:45:17Z</time></trkpt><trkpt lat="43.46424392147381" lon="11.393174028944335"><ele>521.5</ele><time>2026-04-29T15:45:18Z</time></trkpt><trkpt lat="43.46431950803295" lon="11.393097219446148"><ele>521.0</ele><time>2026-04-29T15:45:20Z</time></trkpt><trkpt lat="43.464392450939805" lon="11.393155692081171"><ele>520.5</ele><time>2026-04-29T15:45:22Z</time></trkpt><trkpt lat="43.46448050070454" lon="11.393183337556405"><ele>520.0</ele><time>2026-04-29T15:45:24Z</time></trkpt><trkpt lat="43.4646023374208" lon="11.39323078251007"><ele>518.1666666666667</ele><time>2026-04-29T15:45:26Z</time></trkpt><trkpt lat="43.464674916060915" lon="11.39325970188189"><ele>516.3333333333334</ele><time>2026-04-29T15:45:27Z</time></trkpt><trkpt lat="43.46474949208547" lon="11.393291927462828"><ele>514.5</ele><time>2026-04-29T15:45:28Z</time></trkpt><trkpt lat="43.46482124229955" lon="11.393323067364285"><ele>512.6666666666666</ele><time>2026-04-29T15:45:29Z</time></trkpt><trkpt lat="43.46490254781972" lon="11.393358616212735"><ele>510.8333333333333</ele><time>2026-04-29T15:45:30Z</time></trkpt><trkpt lat="43.464982621487934" lon="11.393389333827702"><ele>509.0</ele><time>2026-04-29T15:45:31Z</time></trkpt><trkpt lat="43.46507351176786" lon="11.393419609144726"><ele>509.0</ele><time>2026-04-29T15:45:32Z</time></trkpt><trkpt lat="43.46516276967261" lon="11.393449208953076"><ele>509.0</ele><time>2026-04-29T15:45:33Z</time></trkpt><trkpt lat="43.465253081813515" lon="11.393477472567517"><ele>509.0</ele><time>2026-04-29T15:45:34Z</time></trkpt><trkpt lat="43.46534120995181" lon="11.393502757337847"><ele>509.0</ele><time>2026-04-29T15:45:35Z</time></trkpt><trkpt lat="43.46542991569782" lon="11.393524614691882"><ele>509.0</ele><time>2026-04-29T15:45:36Z</time></trkpt><trkpt lat="43.46552153686703" lon="11.393543885029636"><ele>506.79999999999995</ele><time>2026-04-29T15:45:37Z</time></trkpt><trkpt lat="43.46561063970644" lon="11.393559205049742"><ele>504.59999999999997</ele><time>2026-04-29T15:45:38Z</time></trkpt><trkpt lat="43.465716404913465" lon="11.39357406774712"><ele>502.4</ele><time>2026-04-29T15:45:39Z</time></trkpt><trkpt lat="43.465826948703516" lon="11.393589729330133"><ele>500.2</ele><time>2026-04-29T15:45:40Z</time></trkpt><trkpt lat="43.46593804084159" lon="11.393605305065474"><ele>498.0</ele><time>2026-04-29T15:45:41Z</time></trkpt><trkpt lat="43.46604475007874" lon="11.39361980924137"><ele>498.0</ele><time>2026-04-29T15:45:42Z</time></trkpt><trkpt lat="43.466144036502634" lon="11.393633304471466"><ele>497.99999999999994</ele><time>2026-04-29T15:45:43Z</time></trkpt><trkpt lat="43.466235655495964" lon="11.393647420917194"><ele>497.99999999999994</ele><time>2026-04-29T15:45:44Z</time></trkpt><trkpt lat="43.466324984372875" lon="11.393661445414859"><ele>498.0</ele><time>2026-04-29T15:45:45Z</time></trkpt><trkpt lat="43.466411140034545" lon="11.393676535728602"><ele>498.0</ele><time>2026-04-29T15:45:46Z</time></trkpt><trkpt lat="43.46649657010305" lon="11.393693010875202"><ele>498.5</ele><time>2026-04-29T15:45:47Z</time></trkpt><trkpt lat="43.466582734607314" lon="11.393713762119388"><ele>499.0</ele><time>2026-04-29T15:45:48Z</time></trkpt><trkpt lat="43.46666520517026" lon="11.393736170090785"><ele>499.5</ele><time>2026-04-29T15:45:49Z</time></trkpt><trkpt lat="43.46674987563106" lon="11.393765715045651"><ele>500.0</ele><time>2026-04-29T15:45:50Z</time></trkpt><trkpt lat="43.46681740081728" lon="11.393800301579512"><ele>500.5</ele><time>2026-04-29T15:45:51Z</time></trkpt><trkpt lat="43.46689147881379" lon="11.39385454250866"><ele>501.0</ele><time>2026-04-29T15:45:52Z</time></trkpt><trkpt lat="43.46696224423316" lon="11.393920598009801"><ele>501.0</ele><time>2026-04-29T15:45:53Z</time></trkpt><trkpt lat="43.46704510547058" lon="11.393991523270824"><ele>501.0</ele><time>2026-04-29T15:45:54Z</time></trkpt><trkpt lat="43.467133992185886" lon="11.394043824643802"><ele>501.0</ele><time>2026-04-29T15:45:55Z</time></trkpt><trkpt lat="43.4672178127129" lon="11.394030358751595"><ele>501.0</ele><time>2026-04-29T15:45:56Z</time></trkpt><trkpt lat="43.46731650728711" lon="11.39403258464086"><ele>501.0</ele><time>2026-04-29T15:45:58Z</time></trkpt><trkpt lat="43.46739778861645" lon="11.393945575735875"><ele>499.4</ele><time>2026-04-29T15:46:00Z</time></trkpt><trkpt lat="43.46745305840962" lon="11.393855171105175"><ele>497.8</ele><time>2026-04-29T15:46:01Z</time></trkpt><trkpt lat="43.46751633440117" lon="11.393756215295038"><ele>496.19999999999993</ele><time>2026-04-29T15:46:02Z</time></trkpt><trkpt lat="43.467597368379934" lon="11.393636431147952"><ele>494.59999999999997</ele><time>2026-04-29T15:46:03Z</time></trkpt><trkpt lat="43.46765242079576" lon="11.39354711053083"><ele>493.0</ele><time>2026-04-29T15:46:04Z</time></trkpt><trkpt lat="43.46769182167575" lon="11.393469677440226"><ele>493.00000000000006</ele><time>2026-04-29T15:46:05Z</time></trkpt><trkpt lat="43.46771960199101" lon="11.393369063735513"><ele>493.0</ele><time>2026-04-29T15:46:06Z</time></trkpt><trkpt lat="43.467731250857874" lon="11.393282640776183"><ele>493.0</ele><time>2026-04-29T15:46:07Z</time></trkpt><trkpt lat="43.46775681611362" lon="11.393200436472302"><ele>493.0</ele><time>2026-04-29T15:46:08Z</time></trkpt><trkpt lat="43.46777721179394" lon="11.393053332837175"><ele>493.00000000000006</ele><time>2026-04-29T15:46:10Z</time></trkpt><trkpt lat="43.467782658700514" lon="11.392952223245235"><ele>493.0</ele><time>2026-04-29T15:46:11Z</time></trkpt><trkpt lat="43.46776907773746" lon="11.392854488390139"><ele>494.0</ele><time>2026-04-29T15:46:12Z</time></trkpt><trkpt lat="43.46777227712593" lon="11.392761505373425"><ele>494.99999999999994</ele><time>2026-04-29T15:46:13Z</time></trkpt><trkpt lat="43.46777235730054" lon="11.392641208592675"><ele>495.99999999999994</ele><time>2026-04-29T15:46:14Z</time></trkpt><trkpt lat="43.46775445448647" lon="11.392512360654191"><ele>497.0</ele><time>2026-04-29T15:46:15Z</time></trkpt><trkpt lat="43.46772548415942" lon="11.392381584777542"><ele>498.0</ele><time>2026-04-29T15:46:16Z</time></trkpt><trkpt lat="43.46768365585169" lon="11.392214210594753"><ele>498.59999999999997</ele><time>2026-04-29T15:46:17Z</time></trkpt><trkpt lat="43.467653024851046" lon="11.392065822321896"><ele>499.19999999999993</ele><time>2026-04-29T15:46:18Z</time></trkpt><trkpt lat="43.46762434638238" lon="11.391917490872983"><ele>499.8</ele><time>2026-04-29T15:46:19Z</time></trkpt><trkpt lat="43.467608967071726" lon="11.391788879426066"><ele>500.4</ele><time>2026-04-29T15:46:20Z</time></trkpt><trkpt lat="43.46760678192206" lon="11.391671982300128"><ele>501.0</ele><time>2026-04-29T15:46:21Z</time></trkpt><trkpt lat="43.4676114298333" lon="11.391564259945477"><ele>501.0</ele><time>2026-04-29T15:46:22Z</time></trkpt><trkpt lat="43.46762410704917" lon="11.39147448322213"><ele>501.0</ele><time>2026-04-29T15:46:23Z</time></trkpt><trkpt lat="43.467646698646696" lon="11.391386887085892"><ele>501.0</ele><time>2026-04-29T15:46:24Z</time></trkpt><trkpt lat="43.467713070497695" lon="11.391227866629803"><ele>501.0</ele><time>2026-04-29T15:46:26Z</time></trkpt><trkpt lat="43.46775888685111" lon="11.391141604022488"><ele>501.0</ele><time>2026-04-29T15:46:27Z</time></trkpt><trkpt lat="43.467799510818196" lon="11.391047380662402"><ele>501.0</ele><time>2026-04-29T15:46:28Z</time></trkpt><trkpt lat="43.46785860693264" lon="11.390967224551039"><ele>502.3333333333333</ele><time>2026-04-29T15:46:29Z</time></trkpt><trkpt lat="43.467923501967284" lon="11.390898349755906"><ele>503.66666666666663</ele><time>2026-04-29T15:46:30Z</time></trkpt><trkpt lat="43.46797923781736" lon="11.390823909455726"><ele>505.0</ele><time>2026-04-29T15:46:31Z</time></trkpt><trkpt lat="43.46800411883514" lon="11.390742568653694"><ele>506.3333333333333</ele><time>2026-04-29T15:46:32Z</time></trkpt><trkpt lat="43.46804969878424" lon="11.39062468707168"><ele>507.66666666666663</ele><time>2026-04-29T15:46:34Z</time></trkpt><trkpt lat="43.46805694907048" lon="11.390497932200066"><ele>509.0</ele><time>2026-04-29T15:46:36Z</time></trkpt><trkpt lat="43.46803748120488" lon="11.390332443316172"><ele>509.0</ele><time>2026-04-29T15:46:38Z</time></trkpt><trkpt lat="43.46800532897647" lon="11.390185527988743"><ele>509.0</ele><time>2026-04-29T15:46:39Z</time></trkpt><trkpt lat="43.4679728126978" lon="11.390036929808383"><ele>509.0</ele><time>2026-04-29T15:46:40Z</time></trkpt><trkpt lat="43.46793211009078" lon="11.38990269662886"><ele>509.0</ele><time>2026-04-29T15:46:41Z</time></trkpt><trkpt lat="43.4678835115476" lon="11.389763913212885"><ele>509.0</ele><time>2026-04-29T15:46:42Z</time></trkpt><trkpt lat="43.467834515958884" lon="11.389636067730734"><ele>506.79999999999995</ele><time>2026-04-29T15:46:43Z</time></trkpt><trkpt lat="43.46779760071577" lon="11.389514169507846"><ele>504.59999999999997</ele><time>2026-04-29T15:46:44Z</time></trkpt><trkpt lat="43.467781043756176" lon="11.389387469971085"><ele>502.4</ele><time>2026-04-29T15:46:45Z</time></trkpt><trkpt lat="43.46775889169316" lon="11.389275496624077"><ele>500.2</ele><time>2026-04-29T15:46:46Z</time></trkpt><trkpt lat="43.46774494491963" lon="11.389159247130113"><ele>498.0</ele><time>2026-04-29T15:46:47Z</time></trkpt><trkpt lat="43.46772056220079" lon="11.389037395553295"><ele>498.0</ele><time>2026-04-29T15:46:48Z</time></trkpt><trkpt lat="43.4677275189364" lon="11.388919463800764"><ele>498.0</ele><time>2026-04-29T15:46:49Z</time></trkpt><trkpt lat="43.46772158913964" lon="11.388819453887805"><ele>498.0</ele><time>2026-04-29T15:46:50Z</time></trkpt><trkpt lat="43.467719107812826" lon="11.388663269505823"><ele>498.0</ele><time>2026-04-29T15:46:52Z</time></trkpt><trkpt lat="43.46774334055726" lon="11.388529864229332"><ele>498.0</ele><time>2026-04-29T15:46:54Z</time></trkpt><trkpt lat="43.46776614562801" lon="11.388444349103395"><ele>498.0</ele><time>2026-04-29T15:46:55Z</time></trkpt><trkpt lat="43.46781825268597" lon="11.388370270677544"><ele>498.1666666666667</ele><time>2026-04-29T15:46:56Z</time></trkpt><trkpt lat="43.467863656769204" lon="11.388289525438196"><ele>498.33333333333337</ele><time>2026-04-29T15:46:57Z</time></trkpt><trkpt lat="43.46791369057003" lon="11.38819726733286"><ele>498.5</ele><time>2026-04-29T15:46:58Z</time></trkpt><trkpt lat="43.46796061931081" lon="11.388100959875384"><ele>498.6666666666667</ele><time>2026-04-29T15:46:59Z</time></trkpt><trkpt lat="43.467997330050586" lon="11.38798916880046"><ele>498.83333333333337</ele><time>2026-04-29T15:47:00Z</time></trkpt><trkpt lat="43.46804228249745" lon="11.387878578669483"><ele>499.0</ele><time>2026-04-29T15:47:01Z</time></trkpt><trkpt lat="43.468106418546796" lon="11.387771058490681"><ele>498.2</ele><time>2026-04-29T15:47:02Z</time></trkpt><trkpt lat="43.46814667912398" lon="11.387644369809925"><ele>497.4</ele><time>2026-04-29T15:47:03Z</time></trkpt><trkpt lat="43.4682027159103" lon="11.387517368769629"><ele>496.6</ele><time>2026-04-29T15:47:04Z</time></trkpt><trkpt lat="43.468263388892304" lon="11.387386932700005"><ele>495.8</ele><time>2026-04-29T15:47:05Z</time></trkpt><trkpt lat="43.468321946479335" lon="11.3872627896694"><ele>495.0</ele><time>2026-04-29T15:47:06Z</time></trkpt><trkpt lat="43.468396311361275" lon="11.387152272374392"><ele>493.1666666666667</ele><time>2026-04-29T15:47:07Z</time></trkpt><trkpt lat="43.46845759314262" lon="11.387049251624523"><ele>491.33333333333337</ele><time>2026-04-29T15:47:08Z</time></trkpt><trkpt lat="43.46852082756929" lon="11.386949068945121"><ele>489.5</ele><time>2026-04-29T15:47:09Z</time></trkpt><trkpt lat="43.46857406672175" lon="11.386854954339315"><ele>487.6666666666667</ele><time>2026-04-29T15:47:10Z</time></trkpt><trkpt lat="43.46861113333095" lon="11.386764371023256"><ele>485.83333333333337</ele><time>2026-04-29T15:47:11Z</time></trkpt><trkpt lat="43.46863942591574" lon="11.386675288271823"><ele>484.0</ele><time>2026-04-29T15:47:12Z</time></trkpt><trkpt lat="43.468637403829945" lon="11.38656135203331"><ele>484.00000000000006</ele><time>2026-04-29T15:47:13Z</time></trkpt><trkpt lat="43.46863090389416" lon="11.38644848834989"><ele>484.0</ele><time>2026-04-29T15:47:14Z</time></trkpt><trkpt lat="43.468631486539074" lon="11.386347887631826"><ele>484.0</ele><time>2026-04-29T15:47:15Z</time></trkpt><trkpt lat="43.468635208042976" lon="11.3862251209119"><ele>484.0</ele><time>2026-04-29T15:47:16Z</time></trkpt><trkpt lat="43.46862654006318" lon="11.386121222159698"><ele>484.00000000000006</ele><time>2026-04-29T15:47:17Z</time></trkpt><trkpt lat="43.4686428744763" lon="11.386022186449587"><ele>484.0</ele><time>2026-04-29T15:47:18Z</time></trkpt><trkpt lat="43.4686522918187" lon="11.385920773757494"><ele>482.83333333333337</ele><time>2026-04-29T15:47:19Z</time></trkpt><trkpt lat="43.46865405386945" lon="11.3858017962647"><ele>481.6666666666667</ele><time>2026-04-29T15:47:20Z</time></trkpt><trkpt lat="43.46866742177036" lon="11.385664565990606"><ele>480.5</ele><time>2026-04-29T15:47:21Z</time></trkpt><trkpt lat="43.46864137227757" lon="11.385538011061245"><ele>479.33333333333337</ele><time>2026-04-29T15:47:22Z</time></trkpt><trkpt lat="43.468649208360205" lon="11.385426069106146"><ele>478.1666666666667</ele><time>2026-04-29T15:47:23Z</time></trkpt><trkpt lat="43.46865846016108" lon="11.385313324571495"><ele>477.0</ele><time>2026-04-29T15:47:24Z</time></trkpt><trkpt lat="43.46868841051622" lon="11.385226867560377"><ele>476.5</ele><time>2026-04-29T15:47:25Z</time></trkpt><trkpt lat="43.46874852347534" lon="11.385160066038791"><ele>476.0</ele><time>2026-04-29T15:47:26Z</time></trkpt><trkpt lat="43.46879468714422" lon="11.385080563204395"><ele>475.5</ele><time>2026-04-29T15:47:27Z</time></trkpt><trkpt lat="43.46886608835024" lon="11.385023971964698"><ele>475.0</ele><time>2026-04-29T15:47:28Z</time></trkpt><trkpt lat="43.46895570327423" lon="11.384996837101472"><ele>474.5</ele><time>2026-04-29T15:47:29Z</time></trkpt><trkpt lat="43.469035003128866" lon="11.384958560779314"><ele>474.0</ele><time>2026-04-29T15:47:30Z</time></trkpt><trkpt lat="43.46911286529645" lon="11.384914685199373"><ele>473.3333333333333</ele><time>2026-04-29T15:47:31Z</time></trkpt><trkpt lat="43.469193169563646" lon="11.38489739317859"><ele>472.66666666666663</ele><time>2026-04-29T15:47:32Z</time></trkpt><trkpt lat="43.469275250278265" lon="11.384888416883284"><ele>472.0</ele><time>2026-04-29T15:47:33Z</time></trkpt><trkpt lat="43.469355075369634" lon="11.384897151470264"><ele>471.3333333333333</ele><time>2026-04-29T15:47:34Z</time></trkpt><trkpt lat="43.46942865052872" lon="11.384931626218611"><ele>470.66666666666663</ele><time>2026-04-29T15:47:35Z</time></trkpt><trkpt lat="43.469492546638655" lon="11.384980444934763"><ele>470.0</ele><time>2026-04-29T15:47:36Z</time></trkpt><trkpt lat="43.469543474623784" lon="11.385044776705035"><ele>469.99999999999994</ele><time>2026-04-29T15:47:37Z</time></trkpt><trkpt lat="43.4695843781129" lon="11.38514396439608"><ele>470.0</ele><time>2026-04-29T15:47:38Z</time></trkpt><trkpt lat="43.46964886630663" lon="11.385219929845821"><ele>470.0</ele><time>2026-04-29T15:47:39Z</time></trkpt><trkpt lat="43.46969229805796" lon="11.38530172371422"><ele>470.0</ele><time>2026-04-29T15:47:40Z</time></trkpt><trkpt lat="43.46973294004107" lon="11.385372810385977"><ele>469.99999999999994</ele><time>2026-04-29T15:47:41Z</time></trkpt><trkpt lat="43.46977164575995" lon="11.385445849085794"><ele>470.0</ele><time>2026-04-29T15:47:42Z</time></trkpt><trkpt lat="43.46984890624331" lon="11.385531296056064"><ele>467.66666666666663</ele><time>2026-04-29T15:47:44Z</time></trkpt><trkpt lat="43.469914901768036" lon="11.385447246672424"><ele>465.3333333333333</ele><time>2026-04-29T15:47:46Z</time></trkpt><trkpt lat="43.46994398374019" lon="11.385369642824076"><ele>463.0</ele><time>2026-04-29T15:47:47Z</time></trkpt><trkpt lat="43.46996689803183" lon="11.385267899651195"><ele>460.66666666666663</ele><time>2026-04-29T15:47:48Z</time></trkpt><trkpt lat="43.46998057933624" lon="11.38514145714604"><ele>458.3333333333333</ele><time>2026-04-29T15:47:49Z</time></trkpt><trkpt lat="43.46999612178319" lon="11.384999960197325"><ele>456.0</ele><time>2026-04-29T15:47:50Z</time></trkpt><trkpt lat="43.47003264945133" lon="11.384872669838913"><ele>456.0</ele><time>2026-04-29T15:47:51Z</time></trkpt><trkpt lat="43.470075725499896" lon="11.38475667383257"><ele>456.0</ele><time>2026-04-29T15:47:52Z</time></trkpt><trkpt lat="43.4701179526912" lon="11.384647889903054"><ele>456.0</ele><time>2026-04-29T15:47:53Z</time></trkpt><trkpt lat="43.47016545991669" lon="11.384528843861329"><ele>456.0</ele><time>2026-04-29T15:47:54Z</time></trkpt><trkpt lat="43.470203480066566" lon="11.384373791846429"><ele>456.0</ele><time>2026-04-29T15:47:55Z</time></trkpt><trkpt lat="43.4702024470333" lon="11.38419019680622"><ele>455.25</ele><time>2026-04-29T15:47:56Z</time></trkpt><trkpt lat="43.470247037540254" lon="11.384010241967168"><ele>454.5</ele><time>2026-04-29T15:47:57Z</time></trkpt><trkpt lat="43.47029231795517" lon="11.383813267679388"><ele>453.75</ele><time>2026-04-29T15:47:58Z</time></trkpt><trkpt lat="43.470325475636734" lon="11.383609677208938"><ele>453.0</ele><time>2026-04-29T15:47:59Z</time></trkpt><trkpt lat="43.470369591173366" lon="11.38346168188989"><ele>452.5</ele><time>2026-04-29T15:48:00Z</time></trkpt><trkpt lat="43.47041076707598" lon="11.383361719501618"><ele>452.0</ele><time>2026-04-29T15:48:01Z</time></trkpt><trkpt lat="43.47046367165585" lon="11.383283621142446"><ele>451.5</ele><time>2026-04-29T15:48:02Z</time></trkpt><trkpt lat="43.47054862482751" lon="11.383240996444359"><ele>451.0</ele><time>2026-04-29T15:48:03Z</time></trkpt><trkpt lat="43.47062016392603" lon="11.383162797349206"><ele>450.5</ele><time>2026-04-29T15:48:04Z</time></trkpt><trkpt lat="43.4707202323414" lon="11.383121892738242"><ele>450.0</ele><time>2026-04-29T15:48:05Z</time></trkpt><trkpt lat="43.4708208958487" lon="11.383063828940184"><ele>452.2</ele><time>2026-04-29T15:48:06Z</time></trkpt><trkpt lat="43.47091838231698" lon="11.382998579968653"><ele>454.4</ele><time>2026-04-29T15:48:07Z</time></trkpt><trkpt lat="43.47101681705542" lon="11.382967627273668"><ele>456.6</ele><time>2026-04-29T15:48:08Z</time></trkpt><trkpt lat="43.471094980005894" lon="11.382896410733483"><ele>458.8</ele><time>2026-04-29T15:48:09Z</time></trkpt><trkpt lat="43.47116921287667" lon="11.382834531972165"><ele>461.0</ele><time>2026-04-29T15:48:10Z</time></trkpt><trkpt lat="43.47123715073567" lon="11.382785297524435"><ele>464.4</ele><time>2026-04-29T15:48:11Z</time></trkpt><trkpt lat="43.47131097799758" lon="11.382716890100573"><ele>467.8</ele><time>2026-04-29T15:48:12Z</time></trkpt><trkpt lat="43.47137927304821" lon="11.38263733972771"><ele>471.19999999999993</ele><time>2026-04-29T15:48:13Z</time></trkpt><trkpt lat="43.4714536449809" lon="11.382551099319858"><ele>474.59999999999997</ele><time>2026-04-29T15:48:14Z</time></trkpt><trkpt lat="43.47149207687599" lon="11.382431465561238"><ele>478.0</ele><time>2026-04-29T15:48:15Z</time></trkpt><trkpt lat="43.47154102002627" lon="11.38233551550948"><ele>478.0</ele><time>2026-04-29T15:48:16Z</time></trkpt><trkpt lat="43.471570862487226" lon="11.382231150061289"><ele>477.99999999999994</ele><time>2026-04-29T15:48:17Z</time></trkpt><trkpt lat="43.471590718625045" lon="11.382112281470922"><ele>477.99999999999994</ele><time>2026-04-29T15:48:18Z</time></trkpt><trkpt lat="43.47166285259715" lon="11.382012407020456"><ele>478.0</ele><time>2026-04-29T15:48:19Z</time></trkpt><trkpt lat="43.47173855501025" lon="11.381912453412687"><ele>478.0</ele><time>2026-04-29T15:48:20Z</time></trkpt><trkpt lat="43.47182595709162" lon="11.381833131695139"><ele>478.0</ele><time>2026-04-29T15:48:21Z</time></trkpt><trkpt lat="43.47189008280009" lon="11.381727537260467"><ele>477.99999999999994</ele><time>2026-04-29T15:48:22Z</time></trkpt><trkpt lat="43.47189514284529" lon="11.381586626975368"><ele>477.99999999999994</ele><time>2026-04-29T15:48:23Z</time></trkpt><trkpt lat="43.47195289713111" lon="11.381466509779509"><ele>478.0</ele><time>2026-04-29T15:48:24Z</time></trkpt><trkpt lat="43.47199802418953" lon="11.381347605421313"><ele>478.0</ele><time>2026-04-29T15:48:25Z</time></trkpt><trkpt lat="43.47204877320969" lon="11.381189472725294"><ele>478.00000000000006</ele><time>2026-04-29T15:48:27Z</time></trkpt><trkpt lat="43.47206435636319" lon="11.381073040129467"><ele>478.0</ele><time>2026-04-29T15:48:28Z</time></trkpt><trkpt lat="43.47207839579103" lon="11.380946657652308"><ele>478.0</ele><time>2026-04-29T15:48:29Z</time></trkpt><trkpt lat="43.47208332062382" lon="11.380820759145553"><ele>478.0</ele><time>2026-04-29T15:48:30Z</time></trkpt><trkpt lat="43.47208007243409" lon="11.380703836999622"><ele>478.00000000000006</ele><time>2026-04-29T15:48:31Z</time></trkpt><trkpt lat="43.47207311204476" lon="11.380599798834922"><ele>478.0</ele><time>2026-04-29T15:48:32Z</time></trkpt><trkpt lat="43.47206046738695" lon="11.38048500437706"><ele>477.4</ele><time>2026-04-29T15:48:33Z</time></trkpt><trkpt lat="43.47203192115915" lon="11.380373940940181"><ele>476.79999999999995</ele><time>2026-04-29T15:48:34Z</time></trkpt><trkpt lat="43.47200810051616" lon="11.380253734199934"><ele>476.2</ele><time>2026-04-29T15:48:35Z</time></trkpt><trkpt lat="43.4719691375626" lon="11.380127700195239"><ele>475.6</ele><time>2026-04-29T15:48:36Z</time></trkpt><trkpt lat="43.471922835806225" lon="11.379991396929636"><ele>475.0</ele><time>2026-04-29T15:48:37Z</time></trkpt><trkpt lat="43.47187885259644" lon="11.379853820515917"><ele>475.00000000000006</ele><time>2026-04-29T15:48:38Z</time></trkpt><trkpt lat="43.471838106289226" lon="11.379724245161414"><ele>475.0</ele><time>2026-04-29T15:48:39Z</time></trkpt><trkpt lat="43.471800300787166" lon="11.379606654788972"><ele>475.0</ele><time>2026-04-29T15:48:40Z</time></trkpt><trkpt lat="43.47176331186162" lon="11.37949584409727"><ele>475.0</ele><time>2026-04-29T15:48:41.001Z</time></trkpt><trkpt lat="43.471747137423385" lon="11.379393297416003"><ele>475.00000000000006</ele><time>2026-04-29T15:48:42.001Z</time></trkpt><trkpt lat="43.471722264506035" lon="11.379305271879051"><ele>475.0</ele><time>2026-04-29T15:48:43.001Z</time></trkpt><trkpt lat="43.471694038999544" lon="11.379215247339435"><ele>473.50000000000006</ele><time>2026-04-29T15:48:44.001Z</time></trkpt><trkpt lat="43.47168601488564" lon="11.379110209298913"><ele>472.0</ele><time>2026-04-29T15:48:45Z</time></trkpt><trkpt lat="43.47167940702522" lon="11.379001064720287"><ele>470.5</ele><time>2026-04-29T15:48:46Z</time></trkpt><trkpt lat="43.471674917220035" lon="11.378893490820039"><ele>469.0</ele><time>2026-04-29T15:48:47Z</time></trkpt><trkpt lat="43.471696530725204" lon="11.378776194859858"><ele>467.50000000000006</ele><time>2026-04-29T15:48:47.999Z</time></trkpt><trkpt lat="43.471709714464176" lon="11.378658848534435"><ele>466.0</ele><time>2026-04-29T15:48:48.999Z</time></trkpt><trkpt lat="43.471709377349676" lon="11.378540130679406"><ele>464.50000000000006</ele><time>2026-04-29T15:48:49.999Z</time></trkpt><trkpt lat="43.47173333640114" lon="11.378431336363521"><ele>463.0</ele><time>2026-04-29T15:48:50.999Z</time></trkpt><trkpt lat="43.471741909360524" lon="11.378331550884285"><ele>461.5</ele><time>2026-04-29T15:48:51.999Z</time></trkpt><trkpt lat="43.47174792376085" lon="11.378232234856243"><ele>460.0</ele><time>2026-04-29T15:48:52.999Z</time></trkpt><trkpt lat="43.47173124182548" lon="11.378119611013489"><ele>458.50000000000006</ele><time>2026-04-29T15:48:53.999Z</time></trkpt><trkpt lat="43.471702103500164" lon="11.378021243389036"><ele>457.0</ele><time>2026-04-29T15:48:54.999Z</time></trkpt><trkpt lat="43.47166355614795" lon="11.377937177055886"><ele>454.8</ele><time>2026-04-29T15:48:55.999Z</time></trkpt><trkpt lat="43.47159972659313" lon="11.377849078773801"><ele>452.6</ele><time>2026-04-29T15:48:56.999Z</time></trkpt><trkpt lat="43.471529313109244" lon="11.377765570506595"><ele>450.40000000000003</ele><time>2026-04-29T15:48:57.999Z</time></trkpt><trkpt lat="43.47145125494368" lon="11.377689992197826"><ele>448.20000000000005</ele><time>2026-04-29T15:48:59Z</time></trkpt><trkpt lat="43.47137560005116" lon="11.37763704217849"><ele>446.0</ele><time>2026-04-29T15:49:00Z</time></trkpt><trkpt lat="43.471313333210794" lon="11.37755037337727"><ele>445.8333333333333</ele><time>2026-04-29T15:49:01Z</time></trkpt><trkpt lat="43.47123739786452" lon="11.377483228899036"><ele>445.66666666666663</ele><time>2026-04-29T15:49:02Z</time></trkpt><trkpt lat="43.471155556374725" lon="11.377423651686579"><ele>445.5</ele><time>2026-04-29T15:49:03Z</time></trkpt><trkpt lat="43.47106331148046" lon="11.377374777704668"><ele>445.33333333333337</ele><time>2026-04-29T15:49:04Z</time></trkpt><trkpt lat="43.47097845004168" lon="11.377333355732489"><ele>445.1666666666667</ele><time>2026-04-29T15:49:05Z</time></trkpt><trkpt lat="43.47090774653369" lon="11.377294546823622"><ele>445.0</ele><time>2026-04-29T15:49:06Z</time></trkpt><trkpt lat="43.47083290888981" lon="11.37726120819439"><ele>442.4</ele><time>2026-04-29T15:49:07Z</time></trkpt><trkpt lat="43.47076710880597" lon="11.377185581624289"><ele>439.8</ele><time>2026-04-29T15:49:08Z</time></trkpt><trkpt lat="43.47068628125659" lon="11.37714998307711"><ele>437.20000000000005</ele><time>2026-04-29T15:49:09Z</time></trkpt><trkpt lat="43.47060510651113" lon="11.377105779469067"><ele>434.6</ele><time>2026-04-29T15:49:10Z</time></trkpt><trkpt lat="43.470514866512715" lon="11.377057313098934"><ele>432.0</ele><time>2026-04-29T15:49:11Z</time></trkpt><trkpt lat="43.470407139890945" lon="11.377038833263242"><ele>431.5</ele><time>2026-04-29T15:49:12Z</time></trkpt><trkpt lat="43.470313153761296" lon="11.37701126139324"><ele>431.0</ele><time>2026-04-29T15:49:13Z</time></trkpt><trkpt lat="43.4702294798832" lon="11.376983753845044"><ele>430.5</ele><time>2026-04-29T15:49:14Z</time></trkpt><trkpt lat="43.47015356481037" lon="11.376936083235284"><ele>430.0</ele><time>2026-04-29T15:49:15Z</time></trkpt><trkpt lat="43.47008138789049" lon="11.376929944712261"><ele>429.5</ele><time>2026-04-29T15:49:16Z</time></trkpt><trkpt lat="43.47001900176392" lon="11.376900334428578"><ele>429.0</ele><time>2026-04-29T15:49:17Z</time></trkpt><trkpt lat="43.469910028628576" lon="11.376852810197914"><ele>429.0</ele><time>2026-04-29T15:49:19Z</time></trkpt><trkpt lat="43.469818706360215" lon="11.376790339508599"><ele>429.0</ele><time>2026-04-29T15:49:21Z</time></trkpt><trkpt lat="43.46971483796028" lon="11.376718236118327"><ele>429.0</ele><time>2026-04-29T15:49:23Z</time></trkpt><trkpt lat="43.46965942301999" lon="11.376670295585617"><ele>429.0</ele><time>2026-04-29T15:49:24Z</time></trkpt><trkpt lat="43.46960166427884" lon="11.376620146305163"><ele>429.0</ele><time>2026-04-29T15:49:25Z</time></trkpt><trkpt lat="43.46953385725128" lon="11.376587360113149"><ele>429.0</ele><time>2026-04-29T15:49:26Z</time></trkpt><trkpt lat="43.46947701045251" lon="11.376511259501443"><ele>427.8571428571429</ele><time>2026-04-29T15:49:27Z</time></trkpt><trkpt lat="43.46941037763371" lon="11.37648067637522"><ele>426.7142857142857</ele><time>2026-04-29T15:49:28Z</time></trkpt><trkpt lat="43.469356313212806" lon="11.376433855113266"><ele>425.57142857142856</ele><time>2026-04-29T15:49:29Z</time></trkpt><trkpt lat="43.46929634500466" lon="11.37639311649315"><ele>424.42857142857144</ele><time>2026-04-29T15:49:30Z</time></trkpt><trkpt lat="43.469220458234105" lon="11.376371303959806"><ele>423.2857142857143</ele><time>2026-04-29T15:49:31Z</time></trkpt><trkpt lat="43.46915053777465" lon="11.376375628970969"><ele>422.14285714285717</ele><time>2026-04-29T15:49:32Z</time></trkpt><trkpt lat="43.46908714115567" lon="11.376446719372943"><ele>421.0</ele><time>2026-04-29T15:49:33Z</time></trkpt><trkpt lat="43.46902294644407" lon="11.376490086735224"><ele>421.00000000000006</ele><time>2026-04-29T15:49:34Z</time></trkpt><trkpt lat="43.468959360459586" lon="11.376520707628273"><ele>421.0</ele><time>2026-04-29T15:49:35Z</time></trkpt><trkpt lat="43.46889746243464" lon="11.376542348716004"><ele>421.0</ele><time>2026-04-29T15:49:36Z</time></trkpt><trkpt lat="43.4688293968174" lon="11.376546067317157"><ele>421.0</ele><time>2026-04-29T15:49:37Z</time></trkpt><trkpt lat="43.46875639925276" lon="11.376540377419241"><ele>421.0</ele><time>2026-04-29T15:49:38Z</time></trkpt><trkpt lat="43.468679627352856" lon="11.376534466793501"><ele>421.00000000000006</ele><time>2026-04-29T15:49:39Z</time></trkpt><trkpt lat="43.468603541783416" lon="11.376518435691176"><ele>421.0</ele><time>2026-04-29T15:49:40Z</time></trkpt><trkpt lat="43.46851980283558" lon="11.376521726741263"><ele>419.00000000000006</ele><time>2026-04-29T15:49:41Z</time></trkpt><trkpt lat="43.46843904836661" lon="11.376504879285454"><ele>417.0</ele><time>2026-04-29T15:49:42Z</time></trkpt><trkpt lat="43.46835459349093" lon="11.376490583921395"><ele>415.0</ele><time>2026-04-29T15:49:43Z</time></trkpt><trkpt lat="43.46827239059737" lon="11.376477278355939"><ele>413.0</ele><time>2026-04-29T15:49:44Z</time></trkpt><trkpt lat="43.46819186742875" lon="11.376448798205862"><ele>411.00000000000006</ele><time>2026-04-29T15:49:45Z</time></trkpt><trkpt lat="43.4681227172588" lon="11.376406878847188"><ele>409.0</ele><time>2026-04-29T15:49:46Z</time></trkpt><trkpt lat="43.468063882837626" lon="11.376356255407268"><ele>408.83333333333337</ele><time>2026-04-29T15:49:47Z</time></trkpt><trkpt lat="43.468006813432055" lon="11.376241084715167"><ele>408.6666666666667</ele><time>2026-04-29T15:49:49Z</time></trkpt><trkpt lat="43.46802234875207" lon="11.376156294750864"><ele>408.5</ele><time>2026-04-29T15:49:50Z</time></trkpt><trkpt lat="43.468052871251984" lon="11.376052431574626"><ele>408.33333333333337</ele><time>2026-04-29T15:49:51Z</time></trkpt><trkpt lat="43.46808816049357" lon="11.375928614270341"><ele>408.1666666666667</ele><time>2026-04-29T15:49:52Z</time></trkpt><trkpt lat="43.46814185123625" lon="11.375807520734526"><ele>408.0</ele><time>2026-04-29T15:49:53Z</time></trkpt><trkpt lat="43.46815952325235" lon="11.37567710640665"><ele>408.0</ele><time>2026-04-29T15:49:54Z</time></trkpt><trkpt lat="43.46820429189652" lon="11.37556502440972"><ele>408.0</ele><time>2026-04-29T15:49:55Z</time></trkpt><trkpt lat="43.46822802537597" lon="11.375442538637884"><ele>408.0</ele><time>2026-04-29T15:49:56Z</time></trkpt><trkpt lat="43.4682382897492" lon="11.375324328906887"><ele>408.0</ele><time>2026-04-29T15:49:57Z</time></trkpt><trkpt lat="43.46822076467442" lon="11.375218144763295"><ele>408.0</ele><time>2026-04-29T15:49:58Z</time></trkpt><trkpt lat="43.46823929190692" lon="11.375126650983491"><ele>408.0</ele><time>2026-04-29T15:49:59Z</time></trkpt><trkpt lat="43.46831436134256" lon="11.375003261439042"><ele>405.79999999999995</ele><time>2026-04-29T15:50:01Z</time></trkpt><trkpt lat="43.468438005076166" lon="11.374962171128072"><ele>403.6</ele><time>2026-04-29T15:50:03Z</time></trkpt><trkpt lat="43.468529296335774" lon="11.37493903301959"><ele>401.4</ele><time>2026-04-29T15:50:04Z</time></trkpt><trkpt lat="43.46862078272023" lon="11.374923845155731"><ele>399.20000000000005</ele><time>2026-04-29T15:50:05Z</time></trkpt><trkpt lat="43.46870870875391" lon="11.374926271523515"><ele>397.0</ele><time>2026-04-29T15:50:06Z</time></trkpt><trkpt lat="43.46879813547431" lon="11.37494950363015"><ele>396.00000000000006</ele><time>2026-04-29T15:50:07Z</time></trkpt><trkpt lat="43.46888267529231" lon="11.374980547709661"><ele>395.0</ele><time>2026-04-29T15:50:08Z</time></trkpt><trkpt lat="43.46896607566357" lon="11.375013340077645"><ele>394.0</ele><time>2026-04-29T15:50:09Z</time></trkpt><trkpt lat="43.46903629001332" lon="11.375029887446932"><ele>393.0</ele><time>2026-04-29T15:50:10Z</time></trkpt><trkpt lat="43.46909995054985" lon="11.375019804622733"><ele>392.00000000000006</ele><time>2026-04-29T15:50:11Z</time></trkpt><trkpt lat="43.46915844043899" lon="11.374982029403926"><ele>391.0</ele><time>2026-04-29T15:50:12Z</time></trkpt><trkpt lat="43.46923587963709" lon="11.374878482927539"><ele>391.00000000000006</ele><time>2026-04-29T15:50:14Z</time></trkpt><trkpt lat="43.469260683097026" lon="11.374768433373884"><ele>391.0</ele><time>2026-04-29T15:50:16Z</time></trkpt><trkpt lat="43.46928414546176" lon="11.374587556779229"><ele>391.0</ele><time>2026-04-29T15:50:18Z</time></trkpt><trkpt lat="43.46929457793729" lon="11.374496546245158"><ele>391.0</ele><time>2026-04-29T15:50:19Z</time></trkpt><trkpt lat="43.469302395625974" lon="11.37440878085217"><ele>391.00000000000006</ele><time>2026-04-29T15:50:20Z</time></trkpt><trkpt lat="43.46936299380151" lon="11.374310010949284"><ele>391.0</ele><time>2026-04-29T15:50:22Z</time></trkpt><trkpt lat="43.469424647321304" lon="11.374349138472615"><ele>389.8</ele><time>2026-04-29T15:50:23Z</time></trkpt><trkpt lat="43.469493086697796" lon="11.374329711570796"><ele>388.6</ele><time>2026-04-29T15:50:25Z</time></trkpt><trkpt lat="43.46941301174949" lon="11.37422447424675"><ele>387.4</ele><time>2026-04-29T15:50:28Z</time></trkpt><trkpt lat="43.46930238124823" lon="11.374230091705865"><ele>386.2</ele><time>2026-04-29T15:50:29Z</time></trkpt><trkpt lat="43.46917299138001" lon="11.374218562280326"><ele>385.0</ele><time>2026-04-29T15:50:30Z</time></trkpt><trkpt lat="43.46905520088832" lon="11.374187469594371"><ele>385.0</ele><time>2026-04-29T15:50:31Z</time></trkpt><trkpt lat="43.468928962631814" lon="11.374107632646263"><ele>385.0</ele><time>2026-04-29T15:50:32Z</time></trkpt><trkpt lat="43.46882068029149" lon="11.373995681056108"><ele>385.0</ele><time>2026-04-29T15:50:33Z</time></trkpt><trkpt lat="43.468715526824035" lon="11.373852740242008"><ele>385.0</ele><time>2026-04-29T15:50:34Z</time></trkpt><trkpt lat="43.46861754617189" lon="11.373694879066456"><ele>384.5</ele><time>2026-04-29T15:50:35Z</time></trkpt><trkpt lat="43.46850725131164" lon="11.37357147365779"><ele>384.0</ele><time>2026-04-29T15:50:36Z</time></trkpt><trkpt lat="43.46838800717035" lon="11.373481709203652"><ele>383.5</ele><time>2026-04-29T15:50:37Z</time></trkpt><trkpt lat="43.46826316478567" lon="11.37341254789949"><ele>383.0</ele><time>2026-04-29T15:50:38Z</time></trkpt><trkpt lat="43.46813557753056" lon="11.373354440812085"><ele>383.0</ele><time>2026-04-29T15:50:39Z</time></trkpt><trkpt lat="43.468035613104526" lon="11.373283216372295"><ele>383.0</ele><time>2026-04-29T15:50:40Z</time></trkpt><trkpt lat="43.46795093692172" lon="11.37324659845783"><ele>383.0</ele><time>2026-04-29T15:50:41Z</time></trkpt><trkpt lat="43.46790160750613" lon="11.373164434280287"><ele>383.0</ele><time>2026-04-29T15:50:42Z</time></trkpt><trkpt lat="43.467878187257526" lon="11.373043217515606"><ele>383.0</ele><time>2026-04-29T15:50:43Z</time></trkpt><trkpt lat="43.467874209324826" lon="11.372899022522489"><ele>381.25</ele><time>2026-04-29T15:50:44Z</time></trkpt><trkpt lat="43.46785363919412" lon="11.372743305574472"><ele>379.5</ele><time>2026-04-29T15:50:45Z</time></trkpt><trkpt lat="43.46781209904859" lon="11.372568056883324"><ele>377.75</ele><time>2026-04-29T15:50:46Z</time></trkpt><trkpt lat="43.467750792027644" lon="11.372380270037862"><ele>376.0</ele><time>2026-04-29T15:50:47Z</time></trkpt><trkpt lat="43.46768844189353" lon="11.37220104049251"><ele>377.0</ele><time>2026-04-29T15:50:48Z</time></trkpt><trkpt lat="43.46762269013598" lon="11.372023737342964"><ele>378.0</ele><time>2026-04-29T15:50:49Z</time></trkpt><trkpt lat="43.46756916334741" lon="11.371857849600946"><ele>379.0</ele><time>2026-04-29T15:50:50Z</time></trkpt><trkpt lat="43.46749718277988" lon="11.371720231140722"><ele>380.0</ele><time>2026-04-29T15:50:50.999Z</time></trkpt><trkpt lat="43.46741331350407" lon="11.371605234212508"><ele>380.0</ele><time>2026-04-29T15:50:51.999Z</time></trkpt><trkpt lat="43.467299299530076" lon="11.371536863727702"><ele>380.0</ele><time>2026-04-29T15:50:52.999Z</time></trkpt><trkpt lat="43.46718242493327" lon="11.37145423302444"><ele>380.0</ele><time>2026-04-29T15:50:53.999Z</time></trkpt><trkpt lat="43.46705530573" lon="11.371347571341243"><ele>380.0</ele><time>2026-04-29T15:50:54.999Z</time></trkpt><trkpt lat="43.466912219294606" lon="11.371269203024502"><ele>379.6666666666667</ele><time>2026-04-29T15:50:55.999Z</time></trkpt><trkpt lat="43.466779120212195" lon="11.37115258941282"><ele>379.3333333333333</ele><time>2026-04-29T15:50:56.999Z</time></trkpt><trkpt lat="43.46666655165796" lon="11.371017356107929"><ele>379.0</ele><time>2026-04-29T15:50:57.999Z</time></trkpt><trkpt lat="43.46656952101205" lon="11.370861133129525"><ele>379.0</ele><time>2026-04-29T15:50:58.999Z</time></trkpt><trkpt lat="43.466469414521484" lon="11.37069230684823"><ele>379.0</ele><time>2026-04-29T15:50:59.999Z</time></trkpt><trkpt lat="43.46636495068864" lon="11.370510915077341"><ele>379.0</ele><time>2026-04-29T15:51:00.999Z</time></trkpt><trkpt lat="43.46626499726853" lon="11.370327222643024"><ele>378.0</ele><time>2026-04-29T15:51:01.999Z</time></trkpt><trkpt lat="43.46617885089903" lon="11.370134339344602"><ele>377.0</ele><time>2026-04-29T15:51:02.999Z</time></trkpt><trkpt lat="43.46609650765821" lon="11.369927929512487"><ele>376.0</ele><time>2026-04-29T15:51:03.999Z</time></trkpt><trkpt lat="43.466023561384524" lon="11.369714954964845"><ele>375.3333333333333</ele><time>2026-04-29T15:51:04.999Z</time></trkpt><trkpt lat="43.46595906156635" lon="11.369488499375333"><ele>374.6666666666667</ele><time>2026-04-29T15:51:05.999Z</time></trkpt><trkpt lat="43.46589718424955" lon="11.36925664505439"><ele>374.0</ele><time>2026-04-29T15:51:06.999Z</time></trkpt><trkpt lat="43.46583975444582" lon="11.369013333966736"><ele>374.0</ele><time>2026-04-29T15:51:07.999Z</time></trkpt><trkpt lat="43.46578870424298" lon="11.368775112949258"><ele>374.0</ele><time>2026-04-29T15:51:08.999Z</time></trkpt><trkpt lat="43.465756279032554" lon="11.368549778627806"><ele>374.0</ele><time>2026-04-29T15:51:09.999Z</time></trkpt><trkpt lat="43.46575262481632" lon="11.368340783225632"><ele>374.0</ele><time>2026-04-29T15:51:10.999Z</time></trkpt><trkpt lat="43.46578036497659" lon="11.368134494716069"><ele>374.0</ele><time>2026-04-29T15:51:11.999Z</time></trkpt><trkpt lat="43.465827365369115" lon="11.367910018433546"><ele>374.0</ele><time>2026-04-29T15:51:12.999Z</time></trkpt><trkpt lat="43.46587814231443" lon="11.367669551417041"><ele>373.0</ele><time>2026-04-29T15:51:13.999Z</time></trkpt><trkpt lat="43.465929547307596" lon="11.367407467558968"><ele>372.0</ele><time>2026-04-29T15:51:14.999Z</time></trkpt><trkpt lat="43.46599072721683" lon="11.367115911814393"><ele>371.0</ele><time>2026-04-29T15:51:15.999Z</time></trkpt><trkpt lat="43.466063158414265" lon="11.366788658697617"><ele>370.0</ele><time>2026-04-29T15:51:16.999Z</time></trkpt><trkpt lat="43.46614867337519" lon="11.366409086436848"><ele>369.0</ele><time>2026-04-29T15:51:17.999Z</time></trkpt><trkpt lat="43.46623247274103" lon="11.366020062778894"><ele>369.5</ele><time>2026-04-29T15:51:19Z</time></trkpt><trkpt lat="43.46630836832197" lon="11.365652627997017"><ele>370.0</ele><time>2026-04-29T15:51:20Z</time></trkpt><trkpt lat="43.46638398757786" lon="11.365313072628426"><ele>370.0</ele><time>2026-04-29T15:51:21Z</time></trkpt><trkpt lat="43.46645016843279" lon="11.365004870154005"><ele>370.0</ele><time>2026-04-29T15:51:22Z</time></trkpt><trkpt lat="43.46651065595371" lon="11.36471493392355"><ele>369.66666666666663</ele><time>2026-04-29T15:51:23Z</time></trkpt><trkpt lat="43.46656775981847" lon="11.36444469435627"><ele>369.3333333333333</ele><time>2026-04-29T15:51:24Z</time></trkpt><trkpt lat="43.466622295024386" lon="11.364195641994792"><ele>369.0</ele><time>2026-04-29T15:51:25Z</time></trkpt><trkpt lat="43.466675320862194" lon="11.363967585439598"><ele>368.25</ele><time>2026-04-29T15:51:26Z</time></trkpt><trkpt lat="43.466723786258676" lon="11.363759881812582"><ele>367.5</ele><time>2026-04-29T15:51:27Z</time></trkpt><trkpt lat="43.46677103530103" lon="11.36355694243843"><ele>366.75</ele><time>2026-04-29T15:51:28Z</time></trkpt><trkpt lat="43.46681301427252" lon="11.363382285381425"><ele>366.0</ele><time>2026-04-29T15:51:29Z</time></trkpt><trkpt lat="43.46684608740292" lon="11.36322855201789"><ele>366.0</ele><time>2026-04-29T15:51:30Z</time></trkpt><trkpt lat="43.46686377869371" lon="11.36308932565025"><ele>366.0</ele><time>2026-04-29T15:51:31Z</time></trkpt><trkpt lat="43.46685456491559" lon="11.362962541663192"><ele>366.0</ele><time>2026-04-29T15:51:32Z</time></trkpt><trkpt lat="43.466812182236815" lon="11.362856924945286"><ele>366.0</ele><time>2026-04-29T15:51:33Z</time></trkpt><trkpt lat="43.46676756400836" lon="11.362731921315625"><ele>366.0</ele><time>2026-04-29T15:51:34Z</time></trkpt><trkpt lat="43.46666293223589" lon="11.36260825123141"><ele>367.0</ele><time>2026-04-29T15:51:35Z</time></trkpt><trkpt lat="43.46656319688327" lon="11.362456743682403"><ele>368.0</ele><time>2026-04-29T15:51:36Z</time></trkpt><trkpt lat="43.46648433686885" lon="11.362266172854246"><ele>369.0</ele><time>2026-04-29T15:51:37Z</time></trkpt><trkpt lat="43.466394497591196" lon="11.362098691500488"><ele>368.5</ele><time>2026-04-29T15:51:38Z</time></trkpt><trkpt lat="43.46633925974237" lon="11.361919354611965"><ele>368.0</ele><time>2026-04-29T15:51:39Z</time></trkpt><trkpt lat="43.46628810322209" lon="11.361728465784097"><ele>367.5</ele><time>2026-04-29T15:51:40Z</time></trkpt><trkpt lat="43.46624973423879" lon="11.361550462906832"><ele>367.0</ele><time>2026-04-29T15:51:41Z</time></trkpt><trkpt lat="43.46621393397535" lon="11.361405281448103"><ele>367.6</ele><time>2026-04-29T15:51:42Z</time></trkpt><trkpt lat="43.46618722020938" lon="11.361264320537686"><ele>368.20000000000005</ele><time>2026-04-29T15:51:43Z</time></trkpt><trkpt lat="43.4661328512026" lon="11.361155715313028"><ele>368.8</ele><time>2026-04-29T15:51:44Z</time></trkpt><trkpt lat="43.46606229538406" lon="11.361063943612372"><ele>369.4</ele><time>2026-04-29T15:51:45Z</time></trkpt><trkpt lat="43.46596230244359" lon="11.360984288650444"><ele>370.0</ele><time>2026-04-29T15:51:46Z</time></trkpt><trkpt lat="43.465830516070085" lon="11.360919074154767"><ele>370.0</ele><time>2026-04-29T15:51:47Z</time></trkpt><trkpt lat="43.46572986034602" lon="11.360790984374654"><ele>370.0</ele><time>2026-04-29T15:51:48Z</time></trkpt><trkpt lat="43.46565153538843" lon="11.360663337954133"><ele>370.0</ele><time>2026-04-29T15:51:49Z</time></trkpt><trkpt lat="43.46558961071776" lon="11.360520033750506"><ele>370.0</ele><time>2026-04-29T15:51:50Z</time></trkpt><trkpt lat="43.46550722297159" lon="11.360353141535505"><ele>368.25</ele><time>2026-04-29T15:51:51Z</time></trkpt><trkpt lat="43.46542506498287" lon="11.360208602571763"><ele>366.5</ele><time>2026-04-29T15:51:52Z</time></trkpt><trkpt lat="43.465320322928086" lon="11.360103009410615"><ele>364.75</ele><time>2026-04-29T15:51:53Z</time></trkpt><trkpt lat="43.465231174681904" lon="11.35999325960781"><ele>363.0</ele><time>2026-04-29T15:51:54Z</time></trkpt><trkpt lat="43.465165912092196" lon="11.359845647804969"><ele>363.5</ele><time>2026-04-29T15:51:55Z</time></trkpt><trkpt lat="43.46510999001812" lon="11.359678391429135"><ele>364.0</ele><time>2026-04-29T15:51:56Z</time></trkpt><trkpt lat="43.465057812027" lon="11.359514963753435"><ele>364.5</ele><time>2026-04-29T15:51:57Z</time></trkpt><trkpt lat="43.46501351375771" lon="11.359347720795531"><ele>365.0</ele><time>2026-04-29T15:51:58Z</time></trkpt><trkpt lat="43.4649843004826" lon="11.359165461573793"><ele>365.0</ele><time>2026-04-29T15:51:59Z</time></trkpt><trkpt lat="43.46495874499581" lon="11.358953267491618"><ele>365.0</ele><time>2026-04-29T15:52:00Z</time></trkpt><trkpt lat="43.46491056096994" lon="11.358740278736606"><ele>365.0</ele><time>2026-04-29T15:52:01Z</time></trkpt><trkpt lat="43.464872078032734" lon="11.358541396781483"><ele>366.0</ele><time>2026-04-29T15:52:02Z</time></trkpt><trkpt lat="43.464823264164664" lon="11.358349765829951"><ele>367.0</ele><time>2026-04-29T15:52:03Z</time></trkpt><trkpt lat="43.46477039471626" lon="11.358167654089357"><ele>368.0</ele><time>2026-04-29T15:52:04Z</time></trkpt><trkpt lat="43.46471161114887" lon="11.358000698749212"><ele>369.0</ele><time>2026-04-29T15:52:05Z</time></trkpt><trkpt lat="43.46464443600335" lon="11.357850103874771"><ele>367.75</ele><time>2026-04-29T15:52:06Z</time></trkpt><trkpt lat="43.46456169117874" lon="11.357700688981684"><ele>366.5</ele><time>2026-04-29T15:52:07Z</time></trkpt><trkpt lat="43.464475431646505" lon="11.357540067463477"><ele>365.25</ele><time>2026-04-29T15:52:08Z</time></trkpt><trkpt lat="43.46435554552993" lon="11.357441023871813"><ele>364.0</ele><time>2026-04-29T15:52:09Z</time></trkpt><trkpt lat="43.46424441628975" lon="11.357312134429984"><ele>364.0</ele><time>2026-04-29T15:52:10Z</time></trkpt><trkpt lat="43.464116622789945" lon="11.357211035022035"><ele>364.0</ele><time>2026-04-29T15:52:11Z</time></trkpt><trkpt lat="43.46398018945242" lon="11.357124376128084"><ele>364.0</ele><time>2026-04-29T15:52:12Z</time></trkpt><trkpt lat="43.46384294945823" lon="11.357087003866777"><ele>364.0</ele><time>2026-04-29T15:52:13Z</time></trkpt><trkpt lat="43.46373045982777" lon="11.357037454825143"><ele>364.79999999999995</ele><time>2026-04-29T15:52:14Z</time></trkpt><trkpt lat="43.463627188950554" lon="11.357031714223918"><ele>365.59999999999997</ele><time>2026-04-29T15:52:15Z</time></trkpt><trkpt lat="43.46353591100622" lon="11.357012892070665"><ele>366.4</ele><time>2026-04-29T15:52:16Z</time></trkpt><trkpt lat="43.46344921046293" lon="11.356991806290761"><ele>367.2</ele><time>2026-04-29T15:52:17Z</time></trkpt><trkpt lat="43.4633632951277" lon="11.356973773114445"><ele>368.0</ele><time>2026-04-29T15:52:18Z</time></trkpt><trkpt lat="43.46328260486671" lon="11.356966977741097"><ele>368.0</ele><time>2026-04-29T15:52:19Z</time></trkpt><trkpt lat="43.46319965675355" lon="11.356961617196395"><ele>368.0</ele><time>2026-04-29T15:52:20Z</time></trkpt><trkpt lat="43.463119140419664" lon="11.356943159295822"><ele>368.0</ele><time>2026-04-29T15:52:21Z</time></trkpt><trkpt lat="43.46304400543316" lon="11.356898641866918"><ele>368.0</ele><time>2026-04-29T15:52:22Z</time></trkpt><trkpt lat="43.4629643298513" lon="11.35682585388072"><ele>368.0</ele><time>2026-04-29T15:52:23Z</time></trkpt><trkpt lat="43.462867228251305" lon="11.356732853906298"><ele>366.6666666666667</ele><time>2026-04-29T15:52:24Z</time></trkpt><trkpt lat="43.462755093557284" lon="11.356614804674932"><ele>365.3333333333333</ele><time>2026-04-29T15:52:25Z</time></trkpt><trkpt lat="43.46262887589042" lon="11.356487077219473"><ele>364.0</ele><time>2026-04-29T15:52:26Z</time></trkpt><trkpt lat="43.462484615384234" lon="11.356367565237168"><ele>364.0</ele><time>2026-04-29T15:52:27Z</time></trkpt><trkpt lat="43.462329463552585" lon="11.356255409846746"><ele>364.0</ele><time>2026-04-29T15:52:28Z</time></trkpt><trkpt lat="43.462188647873056" lon="11.356094746509523"><ele>364.0</ele><time>2026-04-29T15:52:29Z</time></trkpt><trkpt lat="43.46204159229005" lon="11.35594931818247"><ele>361.3333333333333</ele><time>2026-04-29T15:52:30Z</time></trkpt><trkpt lat="43.46189753240743" lon="11.355810026830449"><ele>358.6666666666667</ele><time>2026-04-29T15:52:31Z</time></trkpt><trkpt lat="43.46175922673773" lon="11.355682792712136"><ele>356.0</ele><time>2026-04-29T15:52:32Z</time></trkpt><trkpt lat="43.46163975997094" lon="11.355590966653605"><ele>359.4</ele><time>2026-04-29T15:52:33Z</time></trkpt><trkpt lat="43.46153439921055" lon="11.355521942222882"><ele>362.8</ele><time>2026-04-29T15:52:34Z</time></trkpt><trkpt lat="43.46143441405666" lon="11.355475322020638"><ele>366.2</ele><time>2026-04-29T15:52:35Z</time></trkpt><trkpt lat="43.46134050443178" lon="11.355465536510605"><ele>369.59999999999997</ele><time>2026-04-29T15:52:36Z</time></trkpt><trkpt lat="43.461241480119625" lon="11.35549227446737"><ele>373.0</ele><time>2026-04-29T15:52:37Z</time></trkpt><trkpt lat="43.46111516628157" lon="11.355523071559016"><ele>368.25</ele><time>2026-04-29T15:52:38Z</time></trkpt><trkpt lat="43.460968082340614" lon="11.355571094666569"><ele>363.5</ele><time>2026-04-29T15:52:39Z</time></trkpt><trkpt lat="43.46082507857588" lon="11.355590243656193"><ele>358.75</ele><time>2026-04-29T15:52:40Z</time></trkpt><trkpt lat="43.46068590002832" lon="11.355614355584205"><ele>354.0</ele><time>2026-04-29T15:52:41Z</time></trkpt><trkpt lat="43.46054253584044" lon="11.35558242274737"><ele>353.25</ele><time>2026-04-29T15:52:42Z</time></trkpt><trkpt lat="43.46039853418064" lon="11.355576798019506"><ele>352.5</ele><time>2026-04-29T15:52:43Z</time></trkpt><trkpt lat="43.46026529506707" lon="11.355502718387717"><ele>351.75</ele><time>2026-04-29T15:52:44Z</time></trkpt><trkpt lat="43.460141885897905" lon="11.355498696697643"><ele>351.0</ele><time>2026-04-29T15:52:45Z</time></trkpt><trkpt lat="43.46002317936447" lon="11.35552381221759"><ele>351.0</ele><time>2026-04-29T15:52:46Z</time></trkpt><trkpt lat="43.459901765143094" lon="11.355567073375584"><ele>351.0</ele><time>2026-04-29T15:52:47Z</time></trkpt><trkpt lat="43.45978487104024" lon="11.35559029370205"><ele>351.0</ele><time>2026-04-29T15:52:48Z</time></trkpt><trkpt lat="43.45966135398256" lon="11.355586200390269"><ele>351.0</ele><time>2026-04-29T15:52:49Z</time></trkpt><trkpt lat="43.45953469786764" lon="11.355570652222786"><ele>350.5</ele><time>2026-04-29T15:52:50Z</time></trkpt><trkpt lat="43.459403310906055" lon="11.355542010913698"><ele>350.0</ele><time>2026-04-29T15:52:51Z</time></trkpt><trkpt lat="43.459271320830894" lon="11.355508661559238"><ele>349.5</ele><time>2026-04-29T15:52:52Z</time></trkpt><trkpt lat="43.45913459032237" lon="11.355465482653408"><ele>349.0</ele><time>2026-04-29T15:52:53Z</time></trkpt><trkpt lat="43.45899820357806" lon="11.355415020078182"><ele>349.25</ele><time>2026-04-29T15:52:54Z</time></trkpt><trkpt lat="43.45886070705641" lon="11.355363447763262"><ele>349.5</ele><time>2026-04-29T15:52:55Z</time></trkpt><trkpt lat="43.4587266769308" lon="11.355287167260093"><ele>349.75</ele><time>2026-04-29T15:52:56Z</time></trkpt><trkpt lat="43.458599085466815" lon="11.355191445530092"><ele>350.0</ele><time>2026-04-29T15:52:56.999Z</time></trkpt><trkpt lat="43.45847012699446" lon="11.355079217559304"><ele>350.0</ele><time>2026-04-29T15:52:57.999Z</time></trkpt><trkpt lat="43.45835133278796" lon="11.354969697187013"><ele>350.0</ele><time>2026-04-29T15:52:58.999Z</time></trkpt><trkpt lat="43.458244066275235" lon="11.354866235475964"><ele>350.0</ele><time>2026-04-29T15:52:59.999Z</time></trkpt><trkpt lat="43.458152194779295" lon="11.354782375285007"><ele>350.0</ele><time>2026-04-29T15:53:00.999Z</time></trkpt><trkpt lat="43.458059704211884" lon="11.354734390110423"><ele>351.25</ele><time>2026-04-29T15:53:02Z</time></trkpt><trkpt lat="43.45795336196582" lon="11.35469893633138"><ele>352.5</ele><time>2026-04-29T15:53:03Z</time></trkpt><trkpt lat="43.457826980759755" lon="11.354660501813202"><ele>353.75</ele><time>2026-04-29T15:53:04Z</time></trkpt><trkpt lat="43.4576762604172" lon="11.3546142211197"><ele>355.0</ele><time>2026-04-29T15:53:05Z</time></trkpt><trkpt lat="43.45751750112694" lon="11.354550737777654"><ele>355.0</ele><time>2026-04-29T15:53:06Z</time></trkpt><trkpt lat="43.45736407203385" lon="11.354470084754723"><ele>355.0</ele><time>2026-04-29T15:53:07Z</time></trkpt><trkpt lat="43.457232968928366" lon="11.354389316573371"><ele>355.0</ele><time>2026-04-29T15:53:08Z</time></trkpt><trkpt lat="43.45711049927517" lon="11.354326678032148"><ele>355.0</ele><time>2026-04-29T15:53:09Z</time></trkpt><trkpt lat="43.456983480983965" lon="11.354292105759514"><ele>352.0</ele><time>2026-04-29T15:53:10Z</time></trkpt><trkpt lat="43.45684231333306" lon="11.35425628355557"><ele>349.0</ele><time>2026-04-29T15:53:11Z</time></trkpt><trkpt lat="43.45669166606255" lon="11.354223305075859"><ele>346.0</ele><time>2026-04-29T15:53:12Z</time></trkpt><trkpt lat="43.45652890398589" lon="11.354188939195309"><ele>346.0</ele><time>2026-04-29T15:53:13Z</time></trkpt><trkpt lat="43.45636119615098" lon="11.354161508223516"><ele>346.0</ele><time>2026-04-29T15:53:14Z</time></trkpt><trkpt lat="43.456190805509" lon="11.354135063801243"><ele>346.0</ele><time>2026-04-29T15:53:15Z</time></trkpt><trkpt lat="43.45601471617113" lon="11.354097736169807"><ele>345.66666666666663</ele><time>2026-04-29T15:53:16Z</time></trkpt><trkpt lat="43.455837998493124" lon="11.354039870227684"><ele>345.3333333333333</ele><time>2026-04-29T15:53:17Z</time></trkpt><trkpt lat="43.45568464022342" lon="11.35397607106156"><ele>345.0</ele><time>2026-04-29T15:53:18Z</time></trkpt><trkpt lat="43.45555550247939" lon="11.353929380670264"><ele>344.6</ele><time>2026-04-29T15:53:19Z</time></trkpt><trkpt lat="43.45543825262321" lon="11.35390137696526"><ele>344.2</ele><time>2026-04-29T15:53:20Z</time></trkpt><trkpt lat="43.45533371307109" lon="11.353904093081265"><ele>343.79999999999995</ele><time>2026-04-29T15:53:21Z</time></trkpt><trkpt lat="43.45523532609527" lon="11.353932530253795"><ele>343.4</ele><time>2026-04-29T15:53:22Z</time></trkpt><trkpt lat="43.455141935241166" lon="11.353968815582402"><ele>343.0</ele><time>2026-04-29T15:53:23Z</time></trkpt><trkpt lat="43.45504065300697" lon="11.353999377968249"><ele>343.0</ele><time>2026-04-29T15:53:24Z</time></trkpt><trkpt lat="43.45493601591424" lon="11.35403372140141"><ele>343.0</ele><time>2026-04-29T15:53:25Z</time></trkpt><trkpt lat="43.454828727484276" lon="11.354074426578824"><ele>343.0</ele><time>2026-04-29T15:53:26Z</time></trkpt><trkpt lat="43.45472194806765" lon="11.354132957012691"><ele>343.0</ele><time>2026-04-29T15:53:27Z</time></trkpt><trkpt lat="43.45461973055598" lon="11.35420740143944"><ele>343.0</ele><time>2026-04-29T15:53:28Z</time></trkpt><trkpt lat="43.45451887327885" lon="11.354274102707766"><ele>341.59999999999997</ele><time>2026-04-29T15:53:29Z</time></trkpt><trkpt lat="43.45441801971132" lon="11.354326545543245"><ele>340.2</ele><time>2026-04-29T15:53:30Z</time></trkpt><trkpt lat="43.45432525511408" lon="11.354350861457037"><ele>338.8</ele><time>2026-04-29T15:53:31Z</time></trkpt><trkpt lat="43.45423852907366" lon="11.354348862114458"><ele>337.4</ele><time>2026-04-29T15:53:32Z</time></trkpt><trkpt lat="43.45415985607278" lon="11.354320907639476"><ele>336.0</ele><time>2026-04-29T15:53:33Z</time></trkpt><trkpt lat="43.45408827860479" lon="11.354269153018462"><ele>336.0</ele><time>2026-04-29T15:53:34Z</time></trkpt><trkpt lat="43.45401773056721" lon="11.354229774269667"><ele>336.0</ele><time>2026-04-29T15:53:35Z</time></trkpt><trkpt lat="43.45395130864579" lon="11.35422896770685"><ele>336.0</ele><time>2026-04-29T15:53:36Z</time></trkpt><trkpt lat="43.45388211107448" lon="11.354258682870002"><ele>336.0</ele><time>2026-04-29T15:53:37Z</time></trkpt><trkpt lat="43.45380292140905" lon="11.35431249213143"><ele>336.0</ele><time>2026-04-29T15:53:38Z</time></trkpt><trkpt lat="43.453704994698604" lon="11.354372836703414"><ele>336.0</ele><time>2026-04-29T15:53:39Z</time></trkpt><trkpt lat="43.45359715413143" lon="11.35443488439168"><ele>336.75</ele><time>2026-04-29T15:53:40Z</time></trkpt><trkpt lat="43.45346958044487" lon="11.35449447320991"><ele>337.5</ele><time>2026-04-29T15:53:41Z</time></trkpt><trkpt lat="43.45333124262267" lon="11.354563016821352"><ele>338.25</ele><time>2026-04-29T15:53:42Z</time></trkpt><trkpt lat="43.45318641431562" lon="11.354638249434206"><ele>339.0</ele><time>2026-04-29T15:53:43Z</time></trkpt><trkpt lat="43.45303421179755" lon="11.354719874044038"><ele>340.0</ele><time>2026-04-29T15:53:44Z</time></trkpt><trkpt lat="43.45287341193845" lon="11.354818564297606"><ele>341.0</ele><time>2026-04-29T15:53:45Z</time></trkpt><trkpt lat="43.45271434319548" lon="11.354920120157564"><ele>342.0</ele><time>2026-04-29T15:53:46Z</time></trkpt><trkpt lat="43.452565750309816" lon="11.35500984946232"><ele>342.0</ele><time>2026-04-29T15:53:47Z</time></trkpt><trkpt lat="43.452423500765484" lon="11.355078861087101"><ele>342.0</ele><time>2026-04-29T15:53:48Z</time></trkpt><trkpt lat="43.45229246819337" lon="11.355135857178292"><ele>342.0</ele><time>2026-04-29T15:53:49Z</time></trkpt><trkpt lat="43.45216301598492" lon="11.355187363152263"><ele>342.0</ele><time>2026-04-29T15:53:50Z</time></trkpt><trkpt lat="43.452048424357876" lon="11.355229206724792"><ele>343.75</ele><time>2026-04-29T15:53:51Z</time></trkpt><trkpt lat="43.45193336675192" lon="11.35526089219697"><ele>345.5</ele><time>2026-04-29T15:53:52Z</time></trkpt><trkpt lat="43.45181763175592" lon="11.355280344282843"><ele>347.25</ele><time>2026-04-29T15:53:53Z</time></trkpt><trkpt lat="43.45169991686582" lon="11.355302935604321"><ele>349.0</ele><time>2026-04-29T15:53:54Z</time></trkpt><trkpt lat="43.4515872879953" lon="11.355343688158003"><ele>349.0</ele><time>2026-04-29T15:53:55Z</time></trkpt><trkpt lat="43.45147313890493" lon="11.355415964308001"><ele>349.0</ele><time>2026-04-29T15:53:56Z</time></trkpt><trkpt lat="43.45135442920928" lon="11.355505654528915"><ele>349.0</ele><time>2026-04-29T15:53:57Z</time></trkpt><trkpt lat="43.45123082185247" lon="11.355595108101655"><ele>349.0</ele><time>2026-04-29T15:53:58Z</time></trkpt><trkpt lat="43.45111242059933" lon="11.35568127433026"><ele>348.5</ele><time>2026-04-29T15:53:59Z</time></trkpt><trkpt lat="43.45101099478673" lon="11.35577035793186"><ele>348.0</ele><time>2026-04-29T15:54:00Z</time></trkpt><trkpt lat="43.450921637661494" lon="11.355875692449304"><ele>347.5</ele><time>2026-04-29T15:54:01Z</time></trkpt><trkpt lat="43.45082630004383" lon="11.356006639883613"><ele>347.0</ele><time>2026-04-29T15:54:02Z</time></trkpt><trkpt lat="43.450746617095575" lon="11.356103309355618"><ele>347.0</ele><time>2026-04-29T15:54:03Z</time></trkpt><trkpt lat="43.450671663060234" lon="11.35618133981334"><ele>347.0</ele><time>2026-04-29T15:54:04Z</time></trkpt><trkpt lat="43.450599117718696" lon="11.356261091223956"><ele>347.0</ele><time>2026-04-29T15:54:05Z</time></trkpt><trkpt lat="43.45051573805672" lon="11.356352358249971"><ele>347.0</ele><time>2026-04-29T15:54:06Z</time></trkpt><trkpt lat="43.45041705729544" lon="11.356458613639417"><ele>347.0</ele><time>2026-04-29T15:54:07Z</time></trkpt><trkpt lat="43.45029692653167" lon="11.356567563219121"><ele>345.25</ele><time>2026-04-29T15:54:08Z</time></trkpt><trkpt lat="43.4501805645565" lon="11.356653089968615"><ele>343.5</ele><time>2026-04-29T15:54:09Z</time></trkpt><trkpt lat="43.450087073310875" lon="11.356714857642505"><ele>341.75</ele><time>2026-04-29T15:54:10Z</time></trkpt><trkpt lat="43.44998913609787" lon="11.356753732619879"><ele>340.0</ele><time>2026-04-29T15:54:11Z</time></trkpt><trkpt lat="43.44986443101924" lon="11.356767230357267"><ele>340.0</ele><time>2026-04-29T15:54:12Z</time></trkpt><trkpt lat="43.44972076758103" lon="11.356747347525545"><ele>340.0</ele><time>2026-04-29T15:54:13Z</time></trkpt><trkpt lat="43.44957522167674" lon="11.356717325033955"><ele>340.0</ele><time>2026-04-29T15:54:14Z</time></trkpt><trkpt lat="43.44944664859815" lon="11.356689524418996"><ele>340.0</ele><time>2026-04-29T15:54:15Z</time></trkpt><trkpt lat="43.44933026398772" lon="11.356645889458154"><ele>338.0</ele><time>2026-04-29T15:54:16Z</time></trkpt><trkpt lat="43.449218673141274" lon="11.35658497315925"><ele>336.0</ele><time>2026-04-29T15:54:17Z</time></trkpt><trkpt lat="43.4490925982587" lon="11.356481629310332"><ele>334.0</ele><time>2026-04-29T15:54:18Z</time></trkpt><trkpt lat="43.4489629622128" lon="11.356364982381672"><ele>332.0</ele><time>2026-04-29T15:54:19Z</time></trkpt><trkpt lat="43.44881539983676" lon="11.356252413266919"><ele>333.33333333333337</ele><time>2026-04-29T15:54:20Z</time></trkpt><trkpt lat="43.44865265745071" lon="11.356151782461916"><ele>334.6666666666667</ele><time>2026-04-29T15:54:21Z</time></trkpt><trkpt lat="43.44848230242132" lon="11.356051634314683"><ele>336.0</ele><time>2026-04-29T15:54:22Z</time></trkpt><trkpt lat="43.44830189632766" lon="11.355945168886725"><ele>336.0</ele><time>2026-04-29T15:54:23Z</time></trkpt><trkpt lat="43.448132221468725" lon="11.355845455912881"><ele>336.0</ele><time>2026-04-29T15:54:24Z</time></trkpt><trkpt lat="43.447980087988746" lon="11.355755052123575"><ele>336.0</ele><time>2026-04-29T15:54:25Z</time></trkpt><trkpt lat="43.447847208575055" lon="11.355674105161897"><ele>334.75</ele><time>2026-04-29T15:54:26Z</time></trkpt><trkpt lat="43.44771844660803" lon="11.355594770724256"><ele>333.5</ele><time>2026-04-29T15:54:27Z</time></trkpt><trkpt lat="43.44759595963821" lon="11.355521407067"><ele>332.25</ele><time>2026-04-29T15:54:28Z</time></trkpt><trkpt lat="43.44747200172353" lon="11.355465498700651"><ele>331.0</ele><time>2026-04-29T15:54:29Z</time></trkpt><trkpt lat="43.447331765177765" lon="11.355429044253091"><ele>333.0</ele><time>2026-04-29T15:54:30Z</time></trkpt><trkpt lat="43.447183031117476" lon="11.355403615361892"><ele>335.0</ele><time>2026-04-29T15:54:31.001Z</time></trkpt><trkpt lat="43.44702447062572" lon="11.355369527005493"><ele>337.0</ele><time>2026-04-29T15:54:32.001Z</time></trkpt><trkpt lat="43.44686199310557" lon="11.355338653931469"><ele>337.0</ele><time>2026-04-29T15:54:33.001Z</time></trkpt><trkpt lat="43.446692098708425" lon="11.355306925347637"><ele>337.0</ele><time>2026-04-29T15:54:34.001Z</time></trkpt><trkpt lat="43.44652392984989" lon="11.355270237121694"><ele>337.0</ele><time>2026-04-29T15:54:35.001Z</time></trkpt><trkpt lat="43.44635663210933" lon="11.355233548796605"><ele>335.3333333333333</ele><time>2026-04-29T15:54:36.001Z</time></trkpt><trkpt lat="43.44618714154949" lon="11.355213432817903"><ele>333.6666666666667</ele><time>2026-04-29T15:54:37.001Z</time></trkpt><trkpt lat="43.44603463061896" lon="11.355196182772724"><ele>332.0</ele><time>2026-04-29T15:54:38.001Z</time></trkpt><trkpt lat="43.44590343926519" lon="11.355186267625177"><ele>332.0</ele><time>2026-04-29T15:54:39.001Z</time></trkpt><trkpt lat="43.44577923797364" lon="11.355178745764608"><ele>332.0</ele><time>2026-04-29T15:54:40.001Z</time></trkpt><trkpt lat="43.44566467422648" lon="11.35515090807279"><ele>332.0</ele><time>2026-04-29T15:54:41.001Z</time></trkpt><trkpt lat="43.4455500416368" lon="11.35509398717322"><ele>332.0</ele><time>2026-04-29T15:54:42.001Z</time></trkpt><trkpt lat="43.445431759163" lon="11.355008015588092"><ele>331.0</ele><time>2026-04-29T15:54:43.001Z</time></trkpt><trkpt lat="43.445312857212144" lon="11.354913810040646"><ele>330.0</ele><time>2026-04-29T15:54:44.001Z</time></trkpt><trkpt lat="43.445202495879826" lon="11.354802793999712"><ele>329.0</ele><time>2026-04-29T15:54:45.001Z</time></trkpt><trkpt lat="43.44510510884919" lon="11.354668408934629"><ele>328.0</ele><time>2026-04-29T15:54:46.001Z</time></trkpt><trkpt lat="43.445023072073276" lon="11.354525850947267"><ele>328.0</ele><time>2026-04-29T15:54:47.001Z</time></trkpt><trkpt lat="43.4449692419289" lon="11.354363156882881"><ele>328.0</ele><time>2026-04-29T15:54:48.001Z</time></trkpt><trkpt lat="43.44494109701581" lon="11.354197759596488"><ele>328.0</ele><time>2026-04-29T15:54:49.001Z</time></trkpt><trkpt lat="43.44493146412762" lon="11.354034149956227"><ele>328.0</ele><time>2026-04-29T15:54:50.001Z</time></trkpt><trkpt lat="43.44492414837478" lon="11.353873965285485"><ele>327.79999999999995</ele><time>2026-04-29T15:54:51.001Z</time></trkpt><trkpt lat="43.44491999118159" lon="11.353727599007637"><ele>327.6</ele><time>2026-04-29T15:54:52.001Z</time></trkpt><trkpt lat="43.44493658600287" lon="11.35361113705759"><ele>327.4</ele><time>2026-04-29T15:54:53.001Z</time></trkpt><trkpt lat="43.445011485226885" lon="11.353469594659602"><ele>327.20000000000005</ele><time>2026-04-29T15:54:55.001Z</time></trkpt><trkpt lat="43.445082175537635" lon="11.353378291586257"><ele>327.0</ele><time>2026-04-29T15:54:56.001Z</time></trkpt><trkpt lat="43.445175961168" lon="11.353282518501537"><ele>327.0</ele><time>2026-04-29T15:54:57.001Z</time></trkpt><trkpt lat="43.44529170036202" lon="11.353183659685298"><ele>327.0</ele><time>2026-04-29T15:54:58.001Z</time></trkpt><trkpt lat="43.445424428641225" lon="11.353086136112159"><ele>327.0</ele><time>2026-04-29T15:54:59.001Z</time></trkpt><trkpt lat="43.44558395246308" lon="11.35298535681466"><ele>328.3333333333333</ele><time>2026-04-29T15:55:00.001Z</time></trkpt><trkpt lat="43.44574393248757" lon="11.352884039654928"><ele>329.66666666666663</ele><time>2026-04-29T15:55:01.001Z</time></trkpt><trkpt lat="43.44591752556104" lon="11.352770873885492"><ele>331.0</ele><time>2026-04-29T15:55:02.001Z</time></trkpt><trkpt lat="43.446082478274334" lon="11.35265451173512"><ele>331.0</ele><time>2026-04-29T15:55:03Z</time></trkpt><trkpt lat="43.44624499451007" lon="11.352537809179402"><ele>331.0</ele><time>2026-04-29T15:55:04Z</time></trkpt><trkpt lat="43.4464113488033" lon="11.352426493027581"><ele>331.0</ele><time>2026-04-29T15:55:05Z</time></trkpt><trkpt lat="43.4465591528847" lon="11.352322857503195"><ele>332.0</ele><time>2026-04-29T15:55:06Z</time></trkpt><trkpt lat="43.44670120292883" lon="11.352213323476226"><ele>333.0</ele><time>2026-04-29T15:55:07Z</time></trkpt><trkpt lat="43.44684656432461" lon="11.352086535345073"><ele>334.0</ele><time>2026-04-29T15:55:08Z</time></trkpt><trkpt lat="43.44698945522711" lon="11.351948306567571"><ele>335.0</ele><time>2026-04-29T15:55:09Z</time></trkpt><trkpt lat="43.44712918935579" lon="11.35179968391319"><ele>336.0</ele><time>2026-04-29T15:55:10Z</time></trkpt><trkpt lat="43.4472664108844" lon="11.35166099922794"><ele>337.0</ele><time>2026-04-29T15:55:11Z</time></trkpt><trkpt lat="43.44741298735416" lon="11.35152841331219"><ele>337.0</ele><time>2026-04-29T15:55:12Z</time></trkpt><trkpt lat="43.44756419744067" lon="11.351410906693534"><ele>337.0</ele><time>2026-04-29T15:55:13Z</time></trkpt><trkpt lat="43.44771326988519" lon="11.351306750768712"><ele>337.0</ele><time>2026-04-29T15:55:14Z</time></trkpt><trkpt lat="43.44785698419379" lon="11.351197872828154"><ele>337.3333333333333</ele><time>2026-04-29T15:55:15Z</time></trkpt><trkpt lat="43.44800910548591" lon="11.35107481443853"><ele>337.6666666666667</ele><time>2026-04-29T15:55:16Z</time></trkpt><trkpt lat="43.448150894793365" lon="11.350967959339735"><ele>338.0</ele><time>2026-04-29T15:55:17Z</time></trkpt><trkpt lat="43.44826759063168" lon="11.350888022871185"><ele>338.0</ele><time>2026-04-29T15:55:18Z</time></trkpt><trkpt lat="43.44837360371343" lon="11.350816900219714"><ele>338.0</ele><time>2026-04-29T15:55:19Z</time></trkpt><trkpt lat="43.448468098417734" lon="11.350730744408292"><ele>338.0</ele><time>2026-04-29T15:55:20Z</time></trkpt><trkpt lat="43.44855734625448" lon="11.350613527975929"><ele>338.0</ele><time>2026-04-29T15:55:21Z</time></trkpt><trkpt lat="43.44864694321763" lon="11.350460799559492"><ele>339.0</ele><time>2026-04-29T15:55:22Z</time></trkpt><trkpt lat="43.448747703374636" lon="11.350286699098847"><ele>340.0</ele><time>2026-04-29T15:55:23Z</time></trkpt><trkpt lat="43.448871797362905" lon="11.35013420534542"><ele>341.0</ele><time>2026-04-29T15:55:24Z</time></trkpt><trkpt lat="43.44902108294734" lon="11.349998128314693"><ele>341.0</ele><time>2026-04-29T15:55:25Z</time></trkpt><trkpt lat="43.44917389897004" lon="11.349868390339084"><ele>341.0</ele><time>2026-04-29T15:55:26Z</time></trkpt><trkpt lat="43.44930700227458" lon="11.349729584871124"><ele>341.0</ele><time>2026-04-29T15:55:27Z</time></trkpt><trkpt lat="43.44943316347023" lon="11.349575590548108"><ele>340.33333333333337</ele><time>2026-04-29T15:55:28Z</time></trkpt><trkpt lat="43.44955902224766" lon="11.349410405776235"><ele>339.6666666666667</ele><time>2026-04-29T15:55:29Z</time></trkpt><trkpt lat="43.449675646920085" lon="11.349259903504203"><ele>339.0</ele><time>2026-04-29T15:55:30Z</time></trkpt><trkpt lat="43.44977797162213" lon="11.349117993685555"><ele>339.75</ele><time>2026-04-29T15:55:31Z</time></trkpt><trkpt lat="43.44986995451036" lon="11.348989036391664"><ele>340.5</ele><time>2026-04-29T15:55:32Z</time></trkpt><trkpt lat="43.44994019035703" lon="11.348860723609485"><ele>341.25</ele><time>2026-04-29T15:55:33Z</time></trkpt><trkpt lat="43.450001621459236" lon="11.348728427216484"><ele>342.0</ele><time>2026-04-29T15:55:34Z</time></trkpt><trkpt lat="43.450054292749975" lon="11.348581938849595"><ele>342.0</ele><time>2026-04-29T15:55:35Z</time></trkpt><trkpt lat="43.45011647042877" lon="11.348424804385632"><ele>342.0</ele><time>2026-04-29T15:55:36Z</time></trkpt><trkpt lat="43.45019486444842" lon="11.348265484387468"><ele>342.0</ele><time>2026-04-29T15:55:37Z</time></trkpt><trkpt lat="43.45028579004425" lon="11.348110906109637"><ele>342.0</ele><time>2026-04-29T15:55:38Z</time></trkpt><trkpt lat="43.45038661997876" lon="11.347965983922988"><ele>343.6666666666667</ele><time>2026-04-29T15:55:39Z</time></trkpt><trkpt lat="43.450495156189206" lon="11.347824525716318"><ele>345.33333333333337</ele><time>2026-04-29T15:55:40Z</time></trkpt><trkpt lat="43.450613993525685" lon="11.347691888552141"><ele>347.0</ele><time>2026-04-29T15:55:41Z</time></trkpt><trkpt lat="43.4507351011884" lon="11.34757231721106"><ele>347.0</ele><time>2026-04-29T15:55:42Z</time></trkpt><trkpt lat="43.45085760575081" lon="11.34745550427233"><ele>347.0</ele><time>2026-04-29T15:55:43Z</time></trkpt><trkpt lat="43.45096783869801" lon="11.347345348272"><ele>347.0</ele><time>2026-04-29T15:55:44Z</time></trkpt><trkpt lat="43.451049994087526" lon="11.347255639399153"><ele>347.0</ele><time>2026-04-29T15:55:45Z</time></trkpt><trkpt lat="43.451117838118556" lon="11.347153628243326"><ele>346.0</ele><time>2026-04-29T15:55:46Z</time></trkpt><trkpt lat="43.451183089614915" lon="11.347031760808669"><ele>345.0</ele><time>2026-04-29T15:55:47Z</time></trkpt><trkpt lat="43.451244721115685" lon="11.346889579208511"><ele>344.0</ele><time>2026-04-29T15:55:48Z</time></trkpt><trkpt lat="43.45130564450605" lon="11.346741529931453"><ele>343.0</ele><time>2026-04-29T15:55:49Z</time></trkpt><trkpt lat="43.451376911205806" lon="11.346607833175424"><ele>345.75</ele><time>2026-04-29T15:55:50Z</time></trkpt><trkpt lat="43.45145183155645" lon="11.34647596801616"><ele>348.5</ele><time>2026-04-29T15:55:51Z</time></trkpt><trkpt lat="43.45151908020644" lon="11.346341116132756"><ele>351.25</ele><time>2026-04-29T15:55:52Z</time></trkpt><trkpt lat="43.45157736328374" lon="11.346191771617796"><ele>354.0</ele><time>2026-04-29T15:55:53Z</time></trkpt><trkpt lat="43.45163524500599" lon="11.346041843790054"><ele>354.0</ele><time>2026-04-29T15:55:54Z</time></trkpt><trkpt lat="43.45170102738754" lon="11.345902937419817"><ele>354.0</ele><time>2026-04-29T15:55:55Z</time></trkpt><trkpt lat="43.451765373405934" lon="11.345802205032314"><ele>354.0</ele><time>2026-04-29T15:55:56Z</time></trkpt><trkpt lat="43.451848465818884" lon="11.345729444136625"><ele>354.0</ele><time>2026-04-29T15:55:57.001Z</time></trkpt><trkpt lat="43.451943493327846" lon="11.34567488382047"><ele>354.0</ele><time>2026-04-29T15:55:58.001Z</time></trkpt><trkpt lat="43.45205187240761" lon="11.345618735019281"><ele>357.75</ele><time>2026-04-29T15:55:59.001Z</time></trkpt><trkpt lat="43.452164418849456" lon="11.345549563570886"><ele>361.5</ele><time>2026-04-29T15:56:00.001Z</time></trkpt><trkpt lat="43.452273231987384" lon="11.345474151711203"><ele>365.25</ele><time>2026-04-29T15:56:01.001Z</time></trkpt><trkpt lat="43.45238105932214" lon="11.345396250469426"><ele>369.0</ele><time>2026-04-29T15:56:02.001Z</time></trkpt><trkpt lat="43.45247559021362" lon="11.34534479697049"><ele>369.0</ele><time>2026-04-29T15:56:03.001Z</time></trkpt><trkpt lat="43.45255582211867" lon="11.345298260030098"><ele>369.0</ele><time>2026-04-29T15:56:04.001Z</time></trkpt><trkpt lat="43.45263160423824" lon="11.345263172492"><ele>369.0</ele><time>2026-04-29T15:56:05.001Z</time></trkpt><trkpt lat="43.45269206634435" lon="11.345230259149885"><ele>369.0</ele><time>2026-04-29T15:56:06.001Z</time></trkpt><trkpt lat="43.45273536455861" lon="11.345111798422437"><ele>369.0</ele><time>2026-04-29T15:56:08.001Z</time></trkpt><trkpt lat="43.45266807099889" lon="11.345006239074955"><ele>369.0</ele><time>2026-04-29T15:56:10.001Z</time></trkpt><trkpt lat="43.45257406633527" lon="11.34491411449066"><ele>369.0</ele><time>2026-04-29T15:56:12.001Z</time></trkpt><trkpt lat="43.45250221307233" lon="11.344846572660131"><ele>369.0</ele><time>2026-04-29T15:56:13.001Z</time></trkpt><trkpt lat="43.45241574918352" lon="11.344744980642687"><ele>369.0</ele><time>2026-04-29T15:56:14.001Z</time></trkpt><trkpt lat="43.4523339050254" lon="11.344637643663392"><ele>369.0</ele><time>2026-04-29T15:56:15.001Z</time></trkpt><trkpt lat="43.45226584104013" lon="11.344517998995846"><ele>369.0</ele><time>2026-04-29T15:56:16.001Z</time></trkpt><trkpt lat="43.45221621160128" lon="11.344404735654903"><ele>371.0</ele><time>2026-04-29T15:56:17.001Z</time></trkpt><trkpt lat="43.452194532569585" lon="11.344303850554038"><ele>373.0</ele><time>2026-04-29T15:56:18.001Z</time></trkpt><trkpt lat="43.45218664209724" lon="11.344215970032456"><ele>375.0</ele><time>2026-04-29T15:56:19.001Z</time></trkpt><trkpt lat="43.452240130620126" lon="11.344080251394267"><ele>377.0</ele><time>2026-04-29T15:56:21.001Z</time></trkpt><trkpt lat="43.45234693029489" lon="11.344037445610734"><ele>379.0</ele><time>2026-04-29T15:56:23.001Z</time></trkpt><trkpt lat="43.45243084403071" lon="11.344030038474935"><ele>381.0</ele><time>2026-04-29T15:56:24.001Z</time></trkpt><trkpt lat="43.45252904877339" lon="11.343997063199124"><ele>381.0</ele><time>2026-04-29T15:56:25.001Z</time></trkpt><trkpt lat="43.45261365468548" lon="11.343949220449925"><ele>381.0</ele><time>2026-04-29T15:56:26.001Z</time></trkpt><trkpt lat="43.45267997455729" lon="11.34387306023632"><ele>381.0</ele><time>2026-04-29T15:56:27.001Z</time></trkpt><trkpt lat="43.45272475930575" lon="11.343784000284657"><ele>381.0</ele><time>2026-04-29T15:56:28.001Z</time></trkpt><trkpt lat="43.45275232978191" lon="11.34368595713757"><ele>381.0</ele><time>2026-04-29T15:56:29.001Z</time></trkpt><trkpt lat="43.452768502899254" lon="11.343590731886831"><ele>381.0</ele><time>2026-04-29T15:56:30.001Z</time></trkpt><trkpt lat="43.45278901202378" lon="11.343486073729872"><ele>383.0</ele><time>2026-04-29T15:56:31.001Z</time></trkpt><trkpt lat="43.45281756066647" lon="11.34335775708304"><ele>385.0</ele><time>2026-04-29T15:56:32.001Z</time></trkpt><trkpt lat="43.452857788245474" lon="11.34323720546409"><ele>387.0</ele><time>2026-04-29T15:56:33.001Z</time></trkpt><trkpt lat="43.45291676507664" lon="11.343116560534519"><ele>389.0</ele><time>2026-04-29T15:56:34.001Z</time></trkpt><trkpt lat="43.452986142499874" lon="11.342974365444544"><ele>391.0</ele><time>2026-04-29T15:56:35.001Z</time></trkpt><trkpt lat="43.453057890027466" lon="11.34280936244493"><ele>394.25</ele><time>2026-04-29T15:56:36.001Z</time></trkpt><trkpt lat="43.453133470052826" lon="11.34263751355374"><ele>397.5</ele><time>2026-04-29T15:56:37.001Z</time></trkpt><trkpt lat="43.453209699434154" lon="11.34246397748449"><ele>400.75</ele><time>2026-04-29T15:56:38.001Z</time></trkpt><trkpt lat="43.453281584216455" lon="11.342296748660779"><ele>404.0</ele><time>2026-04-29T15:56:39.001Z</time></trkpt><trkpt lat="43.45334965418889" lon="11.342148732567228"><ele>405.79999999999995</ele><time>2026-04-29T15:56:40.001Z</time></trkpt><trkpt lat="43.45341456815479" lon="11.342022826895887"><ele>407.59999999999997</ele><time>2026-04-29T15:56:41.001Z</time></trkpt><trkpt lat="43.45348721910824" lon="11.341907037642827"><ele>409.4</ele><time>2026-04-29T15:56:42.001Z</time></trkpt><trkpt lat="43.453554497549796" lon="11.341793773782701"><ele>411.2</ele><time>2026-04-29T15:56:43.001Z</time></trkpt><trkpt lat="43.45361558597821" lon="11.341664818902272"><ele>413.0</ele><time>2026-04-29T15:56:44.001Z</time></trkpt><trkpt lat="43.45367299649937" lon="11.34151674084062"><ele>412.5</ele><time>2026-04-29T15:56:45.001Z</time></trkpt><trkpt lat="43.45373352956201" lon="11.341354668372817"><ele>412.0</ele><time>2026-04-29T15:56:46.001Z</time></trkpt><trkpt lat="43.45379622188135" lon="11.341178485294357"><ele>411.5</ele><time>2026-04-29T15:56:47.001Z</time></trkpt><trkpt lat="43.453864246503066" lon="11.340991413807837"><ele>411.0</ele><time>2026-04-29T15:56:48.001Z</time></trkpt><trkpt lat="43.45393742169411" lon="11.340804072214238"><ele>414.25</ele><time>2026-04-29T15:56:49.001Z</time></trkpt><trkpt lat="43.4540163426693" lon="11.340628980888502"><ele>417.5</ele><time>2026-04-29T15:56:50.001Z</time></trkpt><trkpt lat="43.454104256421466" lon="11.340471527662329"><ele>420.75</ele><time>2026-04-29T15:56:51.001Z</time></trkpt><trkpt lat="43.454206537388835" lon="11.340321957764699"><ele>424.0</ele><time>2026-04-29T15:56:52.001Z</time></trkpt><trkpt lat="43.45430969577766" lon="11.340178805936109"><ele>424.6666666666667</ele><time>2026-04-29T15:56:53.001Z</time></trkpt><trkpt lat="43.454426510344966" lon="11.340020127334585"><ele>425.33333333333337</ele><time>2026-04-29T15:56:54.001Z</time></trkpt><trkpt lat="43.45454146554843" lon="11.339871311125256"><ele>426.0</ele><time>2026-04-29T15:56:55.001Z</time></trkpt><trkpt lat="43.45465483096209" lon="11.339728477764043"><ele>430.66666666666663</ele><time>2026-04-29T15:56:56.001Z</time></trkpt><trkpt lat="43.45476257733218" lon="11.339582794813804"><ele>435.3333333333333</ele><time>2026-04-29T15:56:57.001Z</time></trkpt><trkpt lat="43.45486844076519" lon="11.339423618767176"><ele>440.0</ele><time>2026-04-29T15:56:58.001Z</time></trkpt><trkpt lat="43.45497090715096" lon="11.33926005945209"><ele>440.0</ele><time>2026-04-29T15:56:59.001Z</time></trkpt><trkpt lat="43.45506975372149" lon="11.339094162524946"><ele>440.0</ele><time>2026-04-29T15:57:00.001Z</time></trkpt><trkpt lat="43.45516377963432" lon="11.338927198250405"><ele>440.0</ele><time>2026-04-29T15:57:01.001Z</time></trkpt><trkpt lat="43.45525360981052" lon="11.338760606404259"><ele>440.5</ele><time>2026-04-29T15:57:02.001Z</time></trkpt><trkpt lat="43.45533407617675" lon="11.338601004604186"><ele>441.0</ele><time>2026-04-29T15:57:03.001Z</time></trkpt><trkpt lat="43.45541653165255" lon="11.338455295764263"><ele>441.5</ele><time>2026-04-29T15:57:04.001Z</time></trkpt><trkpt lat="43.455504200067836" lon="11.338309864510064"><ele>442.0</ele><time>2026-04-29T15:57:05.001Z</time></trkpt><trkpt lat="43.45559422098896" lon="11.338181592792946"><ele>446.75</ele><time>2026-04-29T15:57:06.001Z</time></trkpt><trkpt lat="43.45568551841547" lon="11.338059220980417"><ele>451.5</ele><time>2026-04-29T15:57:07.001Z</time></trkpt><trkpt lat="43.45576858628202" lon="11.337940711842151"><ele>456.25</ele><time>2026-04-29T15:57:08.001Z</time></trkpt><trkpt lat="43.45583282380982" lon="11.337813234665681"><ele>461.0</ele><time>2026-04-29T15:57:09.001Z</time></trkpt><trkpt lat="43.4558820577609" lon="11.337655273310672"><ele>461.25</ele><time>2026-04-29T15:57:10.001Z</time></trkpt><trkpt lat="43.455936991021005" lon="11.33748553985963"><ele>461.5</ele><time>2026-04-29T15:57:11.001Z</time></trkpt><trkpt lat="43.45600196171326" lon="11.337332069836984"><ele>461.75</ele><time>2026-04-29T15:57:12.001Z</time></trkpt><trkpt lat="43.45607307275084" lon="11.337202400442525"><ele>462.0</ele><time>2026-04-29T15:57:13.001Z</time></trkpt><trkpt lat="43.456138319731" lon="11.337087566031158"><ele>461.25</ele><time>2026-04-29T15:57:14.001Z</time></trkpt><trkpt lat="43.45618922496995" lon="11.336951511766062"><ele>460.5</ele><time>2026-04-29T15:57:15.001Z</time></trkpt><trkpt lat="43.456221321752224" lon="11.336790545050077"><ele>459.75</ele><time>2026-04-29T15:57:16.001Z</time></trkpt><trkpt lat="43.45623503743913" lon="11.33661031132368"><ele>459.0</ele><time>2026-04-29T15:57:17.001Z</time></trkpt><trkpt lat="43.456239199059404" lon="11.336415162458952"><ele>461.0</ele><time>2026-04-29T15:57:18.001Z</time></trkpt><trkpt lat="43.45624057506897" lon="11.336201565442298"><ele>463.0</ele><time>2026-04-29T15:57:19.001Z</time></trkpt><trkpt lat="43.45624120226591" lon="11.335993884842589"><ele>465.0</ele><time>2026-04-29T15:57:20Z</time></trkpt><trkpt lat="43.456243214709545" lon="11.335818707322403"><ele>467.0</ele><time>2026-04-29T15:57:21Z</time></trkpt><trkpt lat="43.45623499669757" lon="11.335689089515581"><ele>467.0</ele><time>2026-04-29T15:57:22Z</time></trkpt><trkpt lat="43.45621007602518" lon="11.335593686922552"><ele>467.00000000000006</ele><time>2026-04-29T15:57:23Z</time></trkpt><trkpt lat="43.45617766392426" lon="11.335500643743385"><ele>467.00000000000006</ele><time>2026-04-29T15:57:24Z</time></trkpt><trkpt lat="43.45610845149009" lon="11.33539233969725"><ele>467.0</ele><time>2026-04-29T15:57:25Z</time></trkpt><trkpt lat="43.45601202161439" lon="11.335251554744039"><ele>467.0</ele><time>2026-04-29T15:57:26Z</time></trkpt><trkpt lat="43.455920492149104" lon="11.335132249759607"><ele>469.49999999999994</ele><time>2026-04-29T15:57:27Z</time></trkpt><trkpt lat="43.45586502806261" lon="11.335009326533509"><ele>472.0</ele><time>2026-04-29T15:57:28Z</time></trkpt><trkpt lat="43.45584026817641" lon="11.334915064648342"><ele>474.5</ele><time>2026-04-29T15:57:29Z</time></trkpt><trkpt lat="43.455842246172566" lon="11.334826665228825"><ele>477.0</ele><time>2026-04-29T15:57:30Z</time></trkpt><trkpt lat="43.45586685275203" lon="11.334717538336255"><ele>479.49999999999994</ele><time>2026-04-29T15:57:31Z</time></trkpt><trkpt lat="43.45590370368656" lon="11.334585343193893"><ele>482.0</ele><time>2026-04-29T15:57:32Z</time></trkpt><trkpt lat="43.45596938667694" lon="11.334449349208723"><ele>482.20000000000005</ele><time>2026-04-29T15:57:33Z</time></trkpt><trkpt lat="43.45601282503606" lon="11.334328776987844"><ele>482.40000000000003</ele><time>2026-04-29T15:57:34Z</time></trkpt><trkpt lat="43.4560464434971" lon="11.334193209281276"><ele>482.59999999999997</ele><time>2026-04-29T15:57:35Z</time></trkpt><trkpt lat="43.4560597472484" lon="11.334023173853943"><ele>482.79999999999995</ele><time>2026-04-29T15:57:36Z</time></trkpt><trkpt lat="43.456082781301774" lon="11.333860930647699"><ele>483.0</ele><time>2026-04-29T15:57:37Z</time></trkpt><trkpt lat="43.45609381655916" lon="11.333710041728951"><ele>483.0</ele><time>2026-04-29T15:57:38Z</time></trkpt><trkpt lat="43.4561091823166" lon="11.333580543069097"><ele>483.0</ele><time>2026-04-29T15:57:39Z</time></trkpt><trkpt lat="43.45617192110814" lon="11.33350213881669"><ele>483.0</ele><time>2026-04-29T15:57:40Z</time></trkpt><trkpt lat="43.45623342645232" lon="11.333429560203598"><ele>483.0</ele><time>2026-04-29T15:57:41Z</time></trkpt><trkpt lat="43.45629141449904" lon="11.333359740250188"><ele>483.0</ele><time>2026-04-29T15:57:42Z</time></trkpt><trkpt lat="43.45634440775736" lon="11.333281646049368"><ele>483.0</ele><time>2026-04-29T15:57:43.001Z</time></trkpt><trkpt lat="43.45637306076122" lon="11.33311841703299"><ele>483.2</ele><time>2026-04-29T15:57:45.001Z</time></trkpt><trkpt lat="43.45634806437528" lon="11.333025661875268"><ele>483.4</ele><time>2026-04-29T15:57:46.001Z</time></trkpt><trkpt lat="43.456300547111006" lon="11.332919547150093"><ele>483.59999999999997</ele><time>2026-04-29T15:57:47.001Z</time></trkpt><trkpt lat="43.456221904031096" lon="11.332793865204028"><ele>483.79999999999995</ele><time>2026-04-29T15:57:48.001Z</time></trkpt><trkpt lat="43.456121964694645" lon="11.332649432449061"><ele>484.0</ele><time>2026-04-29T15:57:49.001Z</time></trkpt><trkpt lat="43.45604243647111" lon="11.332489619536377"><ele>484.75</ele><time>2026-04-29T15:57:50.001Z</time></trkpt><trkpt lat="43.455987607074064" lon="11.332342888700662"><ele>485.5</ele><time>2026-04-29T15:57:51.001Z</time></trkpt><trkpt lat="43.45595190469348" lon="11.332180629521986"><ele>486.25</ele><time>2026-04-29T15:57:52.001Z</time></trkpt><trkpt lat="43.45595171615624" lon="11.332004745546822"><ele>487.0</ele><time>2026-04-29T15:57:53.001Z</time></trkpt><trkpt lat="43.45590511136427" lon="11.331836002187327"><ele>487.75</ele><time>2026-04-29T15:57:54.001Z</time></trkpt><trkpt lat="43.45585553361985" lon="11.331651628763607"><ele>488.5</ele><time>2026-04-29T15:57:55.001Z</time></trkpt><trkpt lat="43.45580184817778" lon="11.331465918528883"><ele>489.25</ele><time>2026-04-29T15:57:56.001Z</time></trkpt><trkpt lat="43.45576712810968" lon="11.331286042301658"><ele>490.0</ele><time>2026-04-29T15:57:57.001Z</time></trkpt><trkpt lat="43.455745419134175" lon="11.33111098254407"><ele>490.0</ele><time>2026-04-29T15:57:58.001Z</time></trkpt><trkpt lat="43.4557344821788" lon="11.330921614517642"><ele>490.0</ele><time>2026-04-29T15:57:59.001Z</time></trkpt><trkpt lat="43.45572846020266" lon="11.330730509085434"><ele>490.0</ele><time>2026-04-29T15:58:00.001Z</time></trkpt><trkpt lat="43.45572872000919" lon="11.330545398579522"><ele>490.0</ele><time>2026-04-29T15:58:01.001Z</time></trkpt><trkpt lat="43.455762023567345" lon="11.330364433205439"><ele>490.2</ele><time>2026-04-29T15:58:02.001Z</time></trkpt><trkpt lat="43.455780783267954" lon="11.330195221746568"><ele>490.4</ele><time>2026-04-29T15:58:03.001Z</time></trkpt><trkpt lat="43.45580203937109" lon="11.33003475925457"><ele>490.6</ele><time>2026-04-29T15:58:04.001Z</time></trkpt><trkpt lat="43.4558290595748" lon="11.329897905227737"><ele>490.8</ele><time>2026-04-29T15:58:05.001Z</time></trkpt><trkpt lat="43.455844334311" lon="11.329769059265487"><ele>491.0</ele><time>2026-04-29T15:58:06.001Z</time></trkpt><trkpt lat="43.455838208712464" lon="11.329635709029803"><ele>489.75</ele><time>2026-04-29T15:58:07.001Z</time></trkpt><trkpt lat="43.455804864538614" lon="11.329500827893494"><ele>488.5</ele><time>2026-04-29T15:58:08.001Z</time></trkpt><trkpt lat="43.45575341802613" lon="11.329370938293964"><ele>487.25</ele><time>2026-04-29T15:58:09.001Z</time></trkpt><trkpt lat="43.45567676729873" lon="11.329244873428221"><ele>486.0</ele><time>2026-04-29T15:58:10.001Z</time></trkpt><trkpt lat="43.45558087047846" lon="11.32913415428498"><ele>486.0</ele><time>2026-04-29T15:58:11.001Z</time></trkpt><trkpt lat="43.455529130515366" lon="11.328991543300292"><ele>486.0</ele><time>2026-04-29T15:58:12.001Z</time></trkpt><trkpt lat="43.455495337711035" lon="11.32886148274246"><ele>486.0</ele><time>2026-04-29T15:58:13.001Z</time></trkpt><trkpt lat="43.45545687859224" lon="11.328722018505992"><ele>486.0</ele><time>2026-04-29T15:58:14.001Z</time></trkpt><trkpt lat="43.45545034145606" lon="11.328545913858907"><ele>485.6</ele><time>2026-04-29T15:58:15.001Z</time></trkpt><trkpt lat="43.45544864198168" lon="11.328364422516575"><ele>485.20000000000005</ele><time>2026-04-29T15:58:16.001Z</time></trkpt><trkpt lat="43.45545024836052" lon="11.328214096642958"><ele>484.79999999999995</ele><time>2026-04-29T15:58:17.001Z</time></trkpt><trkpt lat="43.45547429467367" lon="11.32810486262185"><ele>484.4</ele><time>2026-04-29T15:58:18.001Z</time></trkpt><trkpt lat="43.455500488099425" lon="11.3279959551291"><ele>484.0</ele><time>2026-04-29T15:58:19.001Z</time></trkpt><trkpt lat="43.455529667880235" lon="11.327867362266247"><ele>482.75</ele><time>2026-04-29T15:58:20.001Z</time></trkpt><trkpt lat="43.45559823230236" lon="11.327723598112634"><ele>481.5</ele><time>2026-04-29T15:58:21.001Z</time></trkpt><trkpt lat="43.45567241942075" lon="11.32756679089821"><ele>480.25</ele><time>2026-04-29T15:58:22.001Z</time></trkpt><trkpt lat="43.455754386633544" lon="11.327399831007664"><ele>479.0</ele><time>2026-04-29T15:58:23.001Z</time></trkpt><trkpt lat="43.455835071384044" lon="11.327212822482533"><ele>479.0</ele><time>2026-04-29T15:58:24.001Z</time></trkpt><trkpt lat="43.45592956675218" lon="11.327025738216264"><ele>479.0</ele><time>2026-04-29T15:58:25.001Z</time></trkpt><trkpt lat="43.456024824043666" lon="11.326829808499227"><ele>479.0</ele><time>2026-04-29T15:58:26.001Z</time></trkpt><trkpt lat="43.45611370885064" lon="11.326636280207271"><ele>479.0</ele><time>2026-04-29T15:58:27.001Z</time></trkpt><trkpt lat="43.456174269848034" lon="11.3264445040108"><ele>479.0</ele><time>2026-04-29T15:58:28.001Z</time></trkpt><trkpt lat="43.456214501309375" lon="11.326257178999073"><ele>479.0</ele><time>2026-04-29T15:58:29.001Z</time></trkpt><trkpt lat="43.45624014022139" lon="11.326047744938029"><ele>479.0</ele><time>2026-04-29T15:58:30.001Z</time></trkpt><trkpt lat="43.45626688205741" lon="11.325812099528644"><ele>487.0</ele><time>2026-04-29T15:58:31.001Z</time></trkpt><trkpt lat="43.45630112309862" lon="11.325536600635909"><ele>495.0</ele><time>2026-04-29T15:58:32.001Z</time></trkpt><trkpt lat="43.45634649098302" lon="11.325220345028676"><ele>503.0</ele><time>2026-04-29T15:58:33.001Z</time></trkpt><trkpt lat="43.45639228278944" lon="11.324907140248653"><ele>507.3333333333333</ele><time>2026-04-29T15:58:34.001Z</time></trkpt><trkpt lat="43.45642567329122" lon="11.324608122854526"><ele>511.66666666666663</ele><time>2026-04-29T15:58:35.001Z</time></trkpt><trkpt lat="43.45645382520559" lon="11.324327863011431"><ele>516.0</ele><time>2026-04-29T15:58:36.001Z</time></trkpt><trkpt lat="43.45647606773185" lon="11.32408729150946"><ele>519.6666666666666</ele><time>2026-04-29T15:58:37.001Z</time></trkpt><trkpt lat="43.456499939605706" lon="11.323846598724911"><ele>523.3333333333333</ele><time>2026-04-29T15:58:38.001Z</time></trkpt><trkpt lat="43.4565259414328" lon="11.323608395267529"><ele>527.0</ele><time>2026-04-29T15:58:39.001Z</time></trkpt><trkpt lat="43.45656352001903" lon="11.323344513889698"><ele>527.0</ele><time>2026-04-29T15:58:40.001Z</time></trkpt><trkpt lat="43.45659948306574" lon="11.323081721367972"><ele>527.0</ele><time>2026-04-29T15:58:41.001Z</time></trkpt><trkpt lat="43.456635687207935" lon="11.322828102540193"><ele>527.0</ele><time>2026-04-29T15:58:42.001Z</time></trkpt><trkpt lat="43.45667532830086" lon="11.322579562175239"><ele>528.6666666666666</ele><time>2026-04-29T15:58:43.001Z</time></trkpt><trkpt lat="43.456718758865456" lon="11.322343743268078"><ele>530.3333333333334</ele><time>2026-04-29T15:58:44.001Z</time></trkpt><trkpt lat="43.456763559927865" lon="11.322117641549015"><ele>532.0</ele><time>2026-04-29T15:58:45.001Z</time></trkpt><trkpt lat="43.45681560947371" lon="11.321890651955723"><ele>533.0</ele><time>2026-04-29T15:58:46.001Z</time></trkpt><trkpt lat="43.45687956375568" lon="11.321647403644587"><ele>534.0</ele><time>2026-04-29T15:58:47.001Z</time></trkpt><trkpt lat="43.45696293903013" lon="11.32143010003689"><ele>535.0</ele><time>2026-04-29T15:58:48.001Z</time></trkpt><trkpt lat="43.45700543623609" lon="11.32121522284611"><ele>537.0</ele><time>2026-04-29T15:58:49.001Z</time></trkpt><trkpt lat="43.457023286231276" lon="11.321008194991919"><ele>539.0</ele><time>2026-04-29T15:58:50.001Z</time></trkpt><trkpt lat="43.457041385932605" lon="11.32080266353285"><ele>541.0</ele><time>2026-04-29T15:58:51.001Z</time></trkpt><trkpt lat="43.457039545655874" lon="11.320589771861997"><ele>544.5</ele><time>2026-04-29T15:58:52.001Z</time></trkpt><trkpt lat="43.45702637645896" lon="11.320374752273434"><ele>548.0</ele><time>2026-04-29T15:58:53.001Z</time></trkpt><trkpt lat="43.45701477225433" lon="11.320198368639142"><ele>551.5</ele><time>2026-04-29T15:58:54.001Z</time></trkpt><trkpt lat="43.45701409214429" lon="11.320069414499484"><ele>555.0</ele><time>2026-04-29T15:58:55.001Z</time></trkpt><trkpt lat="43.457031246911185" lon="11.319965314616736"><ele>555.0</ele><time>2026-04-29T15:58:56.001Z</time></trkpt><trkpt lat="43.457067918011745" lon="11.31988796563992"><ele>555.0</ele><time>2026-04-29T15:58:57.001Z</time></trkpt><trkpt lat="43.457119547138795" lon="11.319795189312815"><ele>555.0</ele><time>2026-04-29T15:58:58.001Z</time></trkpt><trkpt lat="43.4571822929979" lon="11.319706439705797"><ele>555.0</ele><time>2026-04-29T15:58:59.001Z</time></trkpt><trkpt lat="43.457253582524544" lon="11.319610561836154"><ele>555.0</ele><time>2026-04-29T15:59:00.001Z</time></trkpt><trkpt lat="43.45731521588056" lon="11.319532819357912"><ele>555.0</ele><time>2026-04-29T15:59:01.001Z</time></trkpt><trkpt lat="43.45735757725008" lon="11.319428751988163"><ele>556.25</ele><time>2026-04-29T15:59:02.001Z</time></trkpt><trkpt lat="43.45738648802905" lon="11.31928912067685"><ele>557.5</ele><time>2026-04-29T15:59:03.001Z</time></trkpt><trkpt lat="43.45739773027248" lon="11.319099261247406"><ele>558.75</ele><time>2026-04-29T15:59:04.001Z</time></trkpt><trkpt lat="43.45742475783037" lon="11.318879416458861"><ele>560.0</ele><time>2026-04-29T15:59:05.001Z</time></trkpt><trkpt lat="43.4574239471215" lon="11.318666712724102"><ele>561.0</ele><time>2026-04-29T15:59:06.001Z</time></trkpt><trkpt lat="43.45746717192462" lon="11.318476351566243"><ele>562.0</ele><time>2026-04-29T15:59:07.001Z</time></trkpt><trkpt lat="43.45752422024634" lon="11.318290883015507"><ele>563.0</ele><time>2026-04-29T15:59:08.001Z</time></trkpt><trkpt lat="43.45758992686494" lon="11.31811557462395"><ele>564.0</ele><time>2026-04-29T15:59:09.001Z</time></trkpt><trkpt lat="43.45765812342556" lon="11.317930606259058"><ele>565.3333333333334</ele><time>2026-04-29T15:59:10.001Z</time></trkpt><trkpt lat="43.45773739462942" lon="11.317745639068459"><ele>566.6666666666667</ele><time>2026-04-29T15:59:11.001Z</time></trkpt><trkpt lat="43.45782618034849" lon="11.317567219857839"><ele>568.0</ele><time>2026-04-29T15:59:12.001Z</time></trkpt><trkpt lat="43.45791747920385" lon="11.317415092596896"><ele>565.3333333333334</ele><time>2026-04-29T15:59:13.001Z</time></trkpt><trkpt lat="43.45801589939916" lon="11.317247916472859"><ele>562.6666666666666</ele><time>2026-04-29T15:59:13.999Z</time></trkpt><trkpt lat="43.45810307546284" lon="11.317065429555594"><ele>560.0</ele><time>2026-04-29T15:59:14.999Z</time></trkpt><trkpt lat="43.45818643459934" lon="11.316894332432609"><ele>560.0</ele><time>2026-04-29T15:59:15.999Z</time></trkpt><trkpt lat="43.4582640469288" lon="11.316742402637539"><ele>560.0</ele><time>2026-04-29T15:59:16.999Z</time></trkpt><trkpt lat="43.45835240299393" lon="11.316606184610647"><ele>560.0</ele><time>2026-04-29T15:59:17.999Z</time></trkpt><trkpt lat="43.458440835427595" lon="11.316491155036486"><ele>560.0</ele><time>2026-04-29T15:59:18.999Z</time></trkpt><trkpt lat="43.45852013633497" lon="11.31636728843851"><ele>560.25</ele><time>2026-04-29T15:59:19.999Z</time></trkpt><trkpt lat="43.45859711415278" lon="11.31625926102052"><ele>560.5</ele><time>2026-04-29T15:59:20.999Z</time></trkpt><trkpt lat="43.45862302583549" lon="11.316102794353961"><ele>560.75</ele><time>2026-04-29T15:59:21.999Z</time></trkpt><trkpt lat="43.45866112596055" lon="11.31594629610176"><ele>561.0</ele><time>2026-04-29T15:59:22.999Z</time></trkpt><trkpt lat="43.458698891732546" lon="11.315777632882464"><ele>561.0</ele><time>2026-04-29T15:59:23.999Z</time></trkpt><trkpt lat="43.458773417786254" lon="11.315597330649146"><ele>561.0</ele><time>2026-04-29T15:59:24.999Z</time></trkpt><trkpt lat="43.45885622013611" lon="11.315375038316544"><ele>561.0</ele><time>2026-04-29T15:59:25.999Z</time></trkpt><trkpt lat="43.458919539900094" lon="11.315154661304756"><ele>560.25</ele><time>2026-04-29T15:59:26.999Z</time></trkpt><trkpt lat="43.45896566087464" lon="11.314955753988615"><ele>559.5</ele><time>2026-04-29T15:59:28Z</time></trkpt><trkpt lat="43.45900856568376" lon="11.31476764166346"><ele>558.75</ele><time>2026-04-29T15:59:29Z</time></trkpt><trkpt lat="43.459044183775255" lon="11.314612550073521"><ele>558.0</ele><time>2026-04-29T15:59:30Z</time></trkpt><trkpt lat="43.45908488186437" lon="11.314479028084563"><ele>556.75</ele><time>2026-04-29T15:59:31Z</time></trkpt><trkpt lat="43.45913494136796" lon="11.314336446440018"><ele>555.5</ele><time>2026-04-29T15:59:32Z</time></trkpt><trkpt lat="43.45919299437353" lon="11.314182154192729"><ele>554.25</ele><time>2026-04-29T15:59:33Z</time></trkpt><trkpt lat="43.459255233335526" lon="11.3140280444419"><ele>553.0</ele><time>2026-04-29T15:59:34Z</time></trkpt><trkpt lat="43.45930354883928" lon="11.313896820943244"><ele>551.5</ele><time>2026-04-29T15:59:35Z</time></trkpt><trkpt lat="43.45937132655726" lon="11.313781779235512"><ele>550.0</ele><time>2026-04-29T15:59:36Z</time></trkpt><trkpt lat="43.459458422636" lon="11.313690315522967"><ele>548.5</ele><time>2026-04-29T15:59:37Z</time></trkpt><trkpt lat="43.459562552518776" lon="11.31360216195912"><ele>547.0</ele><time>2026-04-29T15:59:38Z</time></trkpt><trkpt lat="43.45968723059331" lon="11.313543798054"><ele>546.8000000000001</ele><time>2026-04-29T15:59:39Z</time></trkpt><trkpt lat="43.45980331025011" lon="11.313480642626855"><ele>546.6</ele><time>2026-04-29T15:59:40Z</time></trkpt><trkpt lat="43.4598937165046" lon="11.313413574131337"><ele>546.4000000000001</ele><time>2026-04-29T15:59:41Z</time></trkpt><trkpt lat="43.45995873941155" lon="11.313346253982855"><ele>546.2</ele><time>2026-04-29T15:59:42Z</time></trkpt><trkpt lat="43.46001048067554" lon="11.313262206613595"><ele>546.0</ele><time>2026-04-29T15:59:43Z</time></trkpt><trkpt lat="43.46002988445654" lon="11.313130982554407"><ele>543.75</ele><time>2026-04-29T15:59:44Z</time></trkpt><trkpt lat="43.46004959689717" lon="11.312986054948707"><ele>541.5</ele><time>2026-04-29T15:59:45Z</time></trkpt><trkpt lat="43.46006147640994" lon="11.312811291045646"><ele>539.25</ele><time>2026-04-29T15:59:46Z</time></trkpt><trkpt lat="43.460066800789335" lon="11.312633071994336"><ele>537.0</ele><time>2026-04-29T15:59:47Z</time></trkpt><trkpt lat="43.460055683526825" lon="11.312462777947616"><ele>537.0</ele><time>2026-04-29T15:59:48Z</time></trkpt><trkpt lat="43.46001761376748" lon="11.312291713283477"><ele>537.0</ele><time>2026-04-29T15:59:49Z</time></trkpt><trkpt lat="43.45995417889209" lon="11.312130313902031"><ele>537.0</ele><time>2026-04-29T15:59:50Z</time></trkpt><trkpt lat="43.45987443609975" lon="11.311968268984648"><ele>537.0</ele><time>2026-04-29T15:59:51Z</time></trkpt><trkpt lat="43.45979401270193" lon="11.311813913065036"><ele>537.0</ele><time>2026-04-29T15:59:52Z</time></trkpt><trkpt lat="43.459710202508234" lon="11.311672092708008"><ele>537.0</ele><time>2026-04-29T15:59:53Z</time></trkpt><trkpt lat="43.45962384763225" lon="11.311557272103542"><ele>537.0</ele><time>2026-04-29T15:59:54Z</time></trkpt><trkpt lat="43.459544934623125" lon="11.311450544619046"><ele>537.0</ele><time>2026-04-29T15:59:55Z</time></trkpt><trkpt lat="43.45943932394139" lon="11.311382395587257"><ele>537.0</ele><time>2026-04-29T15:59:56Z</time></trkpt><trkpt lat="43.45931317864784" lon="11.311331153455399"><ele>537.0</ele><time>2026-04-29T15:59:57Z</time></trkpt><trkpt lat="43.45917381501445" lon="11.311270639320721"><ele>537.0</ele><time>2026-04-29T15:59:58Z</time></trkpt><trkpt lat="43.45903463419668" lon="11.311196038677313"><ele>537.0</ele><time>2026-04-29T15:59:59Z</time></trkpt><trkpt lat="43.45889610803965" lon="11.311133511719957"><ele>537.6666666666666</ele><time>2026-04-29T16:00:00Z</time></trkpt><trkpt lat="43.45875826886145" lon="11.311019637015107"><ele>538.3333333333333</ele><time>2026-04-29T16:00:01Z</time></trkpt><trkpt lat="43.45861740058139" lon="11.310913954955975"><ele>539.0</ele><time>2026-04-29T16:00:02Z</time></trkpt><trkpt lat="43.458488528807145" lon="11.310818271606411"><ele>539.0</ele><time>2026-04-29T16:00:03Z</time></trkpt><trkpt lat="43.45838552520963" lon="11.31072131029771"><ele>539.0</ele><time>2026-04-29T16:00:04Z</time></trkpt><trkpt lat="43.45830997771877" lon="11.310611043286615"><ele>539.0</ele><time>2026-04-29T16:00:05Z</time></trkpt><trkpt lat="43.45825160288401" lon="11.310494577817884"><ele>539.0</ele><time>2026-04-29T16:00:06Z</time></trkpt><trkpt lat="43.458175539815336" lon="11.310357825007456"><ele>540.0</ele><time>2026-04-29T16:00:07Z</time></trkpt><trkpt lat="43.458078005148884" lon="11.310185942272899"><ele>541.0</ele><time>2026-04-29T16:00:08Z</time></trkpt><trkpt lat="43.45797272682381" lon="11.309992692890662"><ele>542.0</ele><time>2026-04-29T16:00:09Z</time></trkpt><trkpt lat="43.457875444360766" lon="11.30979783510191"><ele>543.0</ele><time>2026-04-29T16:00:10Z</time></trkpt><trkpt lat="43.4577919639477" lon="11.30966570582817"><ele>544.0</ele><time>2026-04-29T16:00:11Z</time></trkpt><trkpt lat="43.45773784299805" lon="11.309549255004729"><ele>545.0</ele><time>2026-04-29T16:00:12Z</time></trkpt><trkpt lat="43.45772461019646" lon="11.309418546591163"><ele>546.0</ele><time>2026-04-29T16:00:13Z</time></trkpt><trkpt lat="43.45769471194382" lon="11.309280700800958"><ele>547.0</ele><time>2026-04-29T16:00:14Z</time></trkpt><trkpt lat="43.45770504100313" lon="11.309120070916924"><ele>547.0</ele><time>2026-04-29T16:00:15Z</time></trkpt><trkpt lat="43.457678042076694" lon="11.308951495852337"><ele>547.0</ele><time>2026-04-29T16:00:16Z</time></trkpt><trkpt lat="43.45763017521576" lon="11.308771400663739"><ele>547.0</ele><time>2026-04-29T16:00:17Z</time></trkpt><trkpt lat="43.45757119490986" lon="11.308576073090487"><ele>547.0</ele><time>2026-04-29T16:00:18Z</time></trkpt><trkpt lat="43.45749151335276" lon="11.308400599577867"><ele>546.25</ele><time>2026-04-29T16:00:19Z</time></trkpt><trkpt lat="43.45744203759965" lon="11.308215378874241"><ele>545.5</ele><time>2026-04-29T16:00:20Z</time></trkpt><trkpt lat="43.4574147460419" lon="11.308031759173444"><ele>544.75</ele><time>2026-04-29T16:00:21Z</time></trkpt><trkpt lat="43.457406501552676" lon="11.307838241188898"><ele>544.0</ele><time>2026-04-29T16:00:22Z</time></trkpt><trkpt lat="43.457413962859434" lon="11.30763880042786"><ele>544.0</ele><time>2026-04-29T16:00:23Z</time></trkpt><trkpt lat="43.457394471804996" lon="11.307449940671004"><ele>544.0</ele><time>2026-04-29T16:00:24Z</time></trkpt><trkpt lat="43.457359364237675" lon="11.30726458914981"><ele>544.0</ele><time>2026-04-29T16:00:25Z</time></trkpt><trkpt lat="43.45734307122148" lon="11.307106186017217"><ele>544.0</ele><time>2026-04-29T16:00:26Z</time></trkpt><trkpt lat="43.45734798739969" lon="11.306948546425618"><ele>544.4</ele><time>2026-04-29T16:00:27Z</time></trkpt><trkpt lat="43.457358519112205" lon="11.306789641676696"><ele>544.8</ele><time>2026-04-29T16:00:28Z</time></trkpt><trkpt lat="43.45737654453816" lon="11.306650079547472"><ele>545.2</ele><time>2026-04-29T16:00:29Z</time></trkpt><trkpt lat="43.457389253852384" lon="11.3065101223114"><ele>545.6</ele><time>2026-04-29T16:00:30Z</time></trkpt><trkpt lat="43.45737678765081" lon="11.306355188272388"><ele>546.0</ele><time>2026-04-29T16:00:31Z</time></trkpt><trkpt lat="43.45732939095741" lon="11.306182100799647"><ele>546.0</ele><time>2026-04-29T16:00:32Z</time></trkpt><trkpt lat="43.45725844714491" lon="11.306008764406133"><ele>546.0</ele><time>2026-04-29T16:00:33Z</time></trkpt><trkpt lat="43.45723326253076" lon="11.305822684173632"><ele>546.0</ele><time>2026-04-29T16:00:34Z</time></trkpt><trkpt lat="43.457243135731886" lon="11.305650187150755"><ele>546.0</ele><time>2026-04-29T16:00:35Z</time></trkpt><trkpt lat="43.457236699640305" lon="11.305470937925392"><ele>545.25</ele><time>2026-04-29T16:00:36Z</time></trkpt><trkpt lat="43.45720423801579" lon="11.3052857834664"><ele>544.5</ele><time>2026-04-29T16:00:37Z</time></trkpt><trkpt lat="43.45714420868862" lon="11.305128229991123"><ele>543.75</ele><time>2026-04-29T16:00:38Z</time></trkpt><trkpt lat="43.45709662401574" lon="11.304972853568982"><ele>543.0</ele><time>2026-04-29T16:00:39Z</time></trkpt><trkpt lat="43.45704651147536" lon="11.304804617266607"><ele>546.25</ele><time>2026-04-29T16:00:40Z</time></trkpt><trkpt lat="43.45699909533233" lon="11.304617567813342"><ele>549.5</ele><time>2026-04-29T16:00:41Z</time></trkpt><trkpt lat="43.45696162742343" lon="11.304423912676418"><ele>552.75</ele><time>2026-04-29T16:00:42Z</time></trkpt><trkpt lat="43.456942245921326" lon="11.304297627690039"><ele>556.0</ele><time>2026-04-29T16:00:43Z</time></trkpt><trkpt lat="43.456906489169086" lon="11.30412121738714"><ele>556.0</ele><time>2026-04-29T16:00:45Z</time></trkpt><trkpt lat="43.456840121935926" lon="11.30400573992875"><ele>556.0</ele><time>2026-04-29T16:00:46Z</time></trkpt><trkpt lat="43.45676413438688" lon="11.303893054787265"><ele>556.0</ele><time>2026-04-29T16:00:47Z</time></trkpt><trkpt lat="43.45668329771985" lon="11.303776907413623"><ele>556.0</ele><time>2026-04-29T16:00:48Z</time></trkpt><trkpt lat="43.456597233322185" lon="11.303652842078352"><ele>556.1666666666667</ele><time>2026-04-29T16:00:49Z</time></trkpt><trkpt lat="43.456520199183885" lon="11.303538270892657"><ele>556.3333333333334</ele><time>2026-04-29T16:00:50Z</time></trkpt><trkpt lat="43.456455213279256" lon="11.303436241981892"><ele>556.5</ele><time>2026-04-29T16:00:51Z</time></trkpt><trkpt lat="43.45640010089304" lon="11.303350390061869"><ele>556.6666666666666</ele><time>2026-04-29T16:00:52Z</time></trkpt><trkpt lat="43.45635100112654" lon="11.303275069380845"><ele>556.8333333333333</ele><time>2026-04-29T16:00:53Z</time></trkpt><trkpt lat="43.45632476280664" lon="11.303195876185766"><ele>557.0</ele><time>2026-04-29T16:00:54Z</time></trkpt><trkpt lat="43.4563571475064" lon="11.303033841602655"><ele>557.4</ele><time>2026-04-29T16:00:56Z</time></trkpt><trkpt lat="43.45640263416982" lon="11.302939186525393"><ele>557.8000000000001</ele><time>2026-04-29T16:00:57Z</time></trkpt><trkpt lat="43.45641948161184" lon="11.302808710900633"><ele>558.2</ele><time>2026-04-29T16:00:58.001Z</time></trkpt><trkpt lat="43.45641242326137" lon="11.302668047011563"><ele>558.6</ele><time>2026-04-29T16:00:59.001Z</time></trkpt><trkpt lat="43.45638030584055" lon="11.30252903706541"><ele>559.0</ele><time>2026-04-29T16:01:00.001Z</time></trkpt><trkpt lat="43.456323188653926" lon="11.302404718571491"><ele>559.5</ele><time>2026-04-29T16:01:01.001Z</time></trkpt><trkpt lat="43.45624308047201" lon="11.302277546370293"><ele>560.0</ele><time>2026-04-29T16:01:02.001Z</time></trkpt><trkpt lat="43.4561652287027" lon="11.302147336753203"><ele>560.5</ele><time>2026-04-29T16:01:03.001Z</time></trkpt><trkpt lat="43.45609117805254" lon="11.302015299079244"><ele>561.0</ele><time>2026-04-29T16:01:04.001Z</time></trkpt><trkpt lat="43.45602762531127" lon="11.30188443139467"><ele>560.8</ele><time>2026-04-29T16:01:05.001Z</time></trkpt><trkpt lat="43.45596681745191" lon="11.301740177793414"><ele>560.6</ele><time>2026-04-29T16:01:06.001Z</time></trkpt><trkpt lat="43.45590656165509" lon="11.301594404565718"><ele>560.4</ele><time>2026-04-29T16:01:07.001Z</time></trkpt><trkpt lat="43.45586600309087" lon="11.3014540961245"><ele>560.2</ele><time>2026-04-29T16:01:08.001Z</time></trkpt><trkpt lat="43.455815606271734" lon="11.301340000880986"><ele>560.0</ele><time>2026-04-29T16:01:09.001Z</time></trkpt><trkpt lat="43.45575328044741" lon="11.301251602962463"><ele>560.0</ele><time>2026-04-29T16:01:10.001Z</time></trkpt><trkpt lat="43.455706874807845" lon="11.301147591051725"><ele>560.0</ele><time>2026-04-29T16:01:11.001Z</time></trkpt><trkpt lat="43.455674606204404" lon="11.30102459330584"><ele>560.0</ele><time>2026-04-29T16:01:12.001Z</time></trkpt><trkpt lat="43.455659256196014" lon="11.300885353043368"><ele>560.0</ele><time>2026-04-29T16:01:13.001Z</time></trkpt><trkpt lat="43.45565019340949" lon="11.300731819744625"><ele>560.0</ele><time>2026-04-29T16:01:14.001Z</time></trkpt><trkpt lat="43.45564686476203" lon="11.300565308672796"><ele>561.25</ele><time>2026-04-29T16:01:15.001Z</time></trkpt><trkpt lat="43.45565859632276" lon="11.300382681307164"><ele>562.5</ele><time>2026-04-29T16:01:16.001Z</time></trkpt><trkpt lat="43.45567641586705" lon="11.30019974493212"><ele>563.75</ele><time>2026-04-29T16:01:17.001Z</time></trkpt><trkpt lat="43.45568711901513" lon="11.30003549778732"><ele>565.0</ele><time>2026-04-29T16:01:18.001Z</time></trkpt><trkpt lat="43.455700368808635" lon="11.29991319142177"><ele>565.0</ele><time>2026-04-29T16:01:19.001Z</time></trkpt><trkpt lat="43.455729354874286" lon="11.299817883550205"><ele>565.0</ele><time>2026-04-29T16:01:20Z</time></trkpt><trkpt lat="43.455785979722584" lon="11.299750499779046"><ele>565.0</ele><time>2026-04-29T16:01:21Z</time></trkpt><trkpt lat="43.455861532507434" lon="11.299700055962502"><ele>565.0</ele><time>2026-04-29T16:01:22Z</time></trkpt><trkpt lat="43.455955992234955" lon="11.299641219176365"><ele>565.0</ele><time>2026-04-29T16:01:23Z</time></trkpt><trkpt lat="43.45605401251265" lon="11.299550666956643"><ele>566.75</ele><time>2026-04-29T16:01:24Z</time></trkpt><trkpt lat="43.456135351774826" lon="11.299443407498678"><ele>568.5</ele><time>2026-04-29T16:01:25Z</time></trkpt><trkpt lat="43.456200821671665" lon="11.29930209535379"><ele>570.25</ele><time>2026-04-29T16:01:26Z</time></trkpt><trkpt lat="43.45626870959141" lon="11.299158551716909"><ele>572.0</ele><time>2026-04-29T16:01:27Z</time></trkpt><trkpt lat="43.45633120504304" lon="11.299029972753159"><ele>574.0</ele><time>2026-04-29T16:01:28Z</time></trkpt><trkpt lat="43.456390282289114" lon="11.298897274229994"><ele>576.0</ele><time>2026-04-29T16:01:29Z</time></trkpt><trkpt lat="43.456445799628156" lon="11.298756851443803"><ele>578.0</ele><time>2026-04-29T16:01:30Z</time></trkpt><trkpt lat="43.456481821044704" lon="11.298611896535819"><ele>580.0</ele><time>2026-04-29T16:01:31Z</time></trkpt><trkpt lat="43.45650330911214" lon="11.29845008266769"><ele>580.0</ele><time>2026-04-29T16:01:32Z</time></trkpt><trkpt lat="43.45650932909609" lon="11.29828989363022"><ele>580.0</ele><time>2026-04-29T16:01:33Z</time></trkpt><trkpt lat="43.45652514674751" lon="11.298148331238599"><ele>580.0</ele><time>2026-04-29T16:01:34Z</time></trkpt><trkpt lat="43.45653958373977" lon="11.29800836534963"><ele>580.0</ele><time>2026-04-29T16:01:35Z</time></trkpt><trkpt lat="43.45654303927242" lon="11.297861469898248"><ele>580.0</ele><time>2026-04-29T16:01:36Z</time></trkpt><trkpt lat="43.45652668872937" lon="11.297708635134102"><ele>579.75</ele><time>2026-04-29T16:01:37Z</time></trkpt><trkpt lat="43.45648915272637" lon="11.297551189504984"><ele>579.5</ele><time>2026-04-29T16:01:38Z</time></trkpt><trkpt lat="43.456450085784724" lon="11.297378326512355"><ele>579.25</ele><time>2026-04-29T16:01:39Z</time></trkpt><trkpt lat="43.456401619759134" lon="11.297193983304126"><ele>579.0</ele><time>2026-04-29T16:01:40Z</time></trkpt><trkpt lat="43.45636756714629" lon="11.297031619742004"><ele>579.0</ele><time>2026-04-29T16:01:41Z</time></trkpt><trkpt lat="43.45635100932715" lon="11.296892032204752"><ele>579.0</ele><time>2026-04-29T16:01:42Z</time></trkpt><trkpt lat="43.45634841029354" lon="11.296764182831303"><ele>579.0</ele><time>2026-04-29T16:01:43Z</time></trkpt><trkpt lat="43.45635882917351" lon="11.296646426171236"><ele>579.0</ele><time>2026-04-29T16:01:44Z</time></trkpt><trkpt lat="43.45637216003321" lon="11.296533739064413"><ele>579.0</ele><time>2026-04-29T16:01:45Z</time></trkpt><trkpt lat="43.45639478695317" lon="11.296433115600735"><ele>579.0</ele><time>2026-04-29T16:01:46Z</time></trkpt><trkpt lat="43.456431720542746" lon="11.296321904401324"><ele>579.75</ele><time>2026-04-29T16:01:47Z</time></trkpt><trkpt lat="43.45650178128147" lon="11.296237871659287"><ele>580.5</ele><time>2026-04-29T16:01:48Z</time></trkpt><trkpt lat="43.45656946164674" lon="11.296119034617"><ele>581.25</ele><time>2026-04-29T16:01:49Z</time></trkpt><trkpt lat="43.45667128051867" lon="11.296003970476058"><ele>582.0</ele><time>2026-04-29T16:01:50Z</time></trkpt><trkpt lat="43.45676464584043" lon="11.295874753950688"><ele>582.0</ele><time>2026-04-29T16:01:51Z</time></trkpt><trkpt lat="43.45685840871225" lon="11.295736015561392"><ele>582.0</ele><time>2026-04-29T16:01:52Z</time></trkpt><trkpt lat="43.45694792156394" lon="11.295585570124473"><ele>582.0</ele><time>2026-04-29T16:01:53Z</time></trkpt><trkpt lat="43.457023051640746" lon="11.295441133279354"><ele>582.0</ele><time>2026-04-29T16:01:54Z</time></trkpt><trkpt lat="43.457087370445535" lon="11.295296295470337"><ele>583.75</ele><time>2026-04-29T16:01:55Z</time></trkpt><trkpt lat="43.45714620514253" lon="11.295150936223058"><ele>585.5</ele><time>2026-04-29T16:01:56Z</time></trkpt><trkpt lat="43.457188085705766" lon="11.295019483433046"><ele>587.25</ele><time>2026-04-29T16:01:57Z</time></trkpt><trkpt lat="43.45724289515242" lon="11.29487009251687"><ele>589.0</ele><time>2026-04-29T16:01:58Z</time></trkpt><trkpt lat="43.45729460430074" lon="11.294699105288037"><ele>589.6666666666667</ele><time>2026-04-29T16:01:59Z</time></trkpt><trkpt lat="43.457341541717035" lon="11.29455095805411"><ele>590.3333333333334</ele><time>2026-04-29T16:02:00Z</time></trkpt><trkpt lat="43.457369239388704" lon="11.294442216621336"><ele>591.0</ele><time>2026-04-29T16:02:01Z</time></trkpt><trkpt lat="43.457411097421364" lon="11.294341364677202"><ele>591.6666666666666</ele><time>2026-04-29T16:02:02Z</time></trkpt><trkpt lat="43.45744456293287" lon="11.294239987420697"><ele>592.3333333333333</ele><time>2026-04-29T16:02:03Z</time></trkpt><trkpt lat="43.45747424579628" lon="11.29414986269572"><ele>593.0</ele><time>2026-04-29T16:02:04Z</time></trkpt><trkpt lat="43.457511305889945" lon="11.294045549536873"><ele>593.0</ele><time>2026-04-29T16:02:05Z</time></trkpt><trkpt lat="43.457553810037936" lon="11.293940371332324"><ele>593.0</ele><time>2026-04-29T16:02:06Z</time></trkpt><trkpt lat="43.45759559755522" lon="11.293831052081392"><ele>593.0</ele><time>2026-04-29T16:02:07Z</time></trkpt><trkpt lat="43.45763746014017" lon="11.293724496319873"><ele>593.0</ele><time>2026-04-29T16:02:08Z</time></trkpt><trkpt lat="43.45767920362084" lon="11.29361729749552"><ele>593.0</ele><time>2026-04-29T16:02:09Z</time></trkpt><trkpt lat="43.45771693350004" lon="11.293523439081527"><ele>593.0</ele><time>2026-04-29T16:02:10Z</time></trkpt><trkpt lat="43.45774056510541" lon="11.2934173897818"><ele>592.0</ele><time>2026-04-29T16:02:11Z</time></trkpt><trkpt lat="43.45774435810134" lon="11.293328213180382"><ele>591.0</ele><time>2026-04-29T16:02:12Z</time></trkpt><trkpt lat="43.457728073591234" lon="11.293225945829542"><ele>590.0</ele><time>2026-04-29T16:02:14Z</time></trkpt><trkpt lat="43.4577367838033" lon="11.293382982817072"><ele>589.0</ele><time>2026-04-29T16:02:20Z</time></trkpt><trkpt lat="43.45771930711321" lon="11.29348260943204"><ele>588.0</ele><time>2026-04-29T16:02:21Z</time></trkpt><trkpt lat="43.45768448331733" lon="11.293594493701312"><ele>587.0</ele><time>2026-04-29T16:02:22Z</time></trkpt><trkpt lat="43.45762781977248" lon="11.293731326967192"><ele>587.0</ele><time>2026-04-29T16:02:23Z</time></trkpt><trkpt lat="43.457559291890945" lon="11.29388206313004"><ele>587.0</ele><time>2026-04-29T16:02:24Z</time></trkpt><trkpt lat="43.45750609131422" lon="11.294036876365539"><ele>587.0</ele><time>2026-04-29T16:02:25Z</time></trkpt><trkpt lat="43.45746610911478" lon="11.294171897998755"><ele>587.0</ele><time>2026-04-29T16:02:26Z</time></trkpt><trkpt lat="43.457428175848364" lon="11.294290041165882"><ele>587.3333333333333</ele><time>2026-04-29T16:02:27Z</time></trkpt><trkpt lat="43.45739322321505" lon="11.294395030370271"><ele>587.6666666666666</ele><time>2026-04-29T16:02:28Z</time></trkpt><trkpt lat="43.45736059202156" lon="11.294478678688323"><ele>588.0</ele><time>2026-04-29T16:02:29Z</time></trkpt><trkpt lat="43.45728827994852" lon="11.294553521030789"><ele>588.3333333333334</ele><time>2026-04-29T16:02:30Z</time></trkpt><trkpt lat="43.457253704683865" lon="11.29467371276042"><ele>588.6666666666667</ele><time>2026-04-29T16:02:31Z</time></trkpt><trkpt lat="43.45722063271271" lon="11.294792041827053"><ele>589.0</ele><time>2026-04-29T16:02:32.001Z</time></trkpt><trkpt lat="43.45718571668717" lon="11.294910052560278"><ele>589.0</ele><time>2026-04-29T16:02:33.001Z</time></trkpt><trkpt lat="43.4571572390298" lon="11.295002852413791"><ele>589.0</ele><time>2026-04-29T16:02:34.001Z</time></trkpt><trkpt lat="43.45713113799758" lon="11.295085982444428"><ele>589.0</ele><time>2026-04-29T16:02:35.001Z</time></trkpt><trkpt lat="43.45707500184712" lon="11.295249808948617"><ele>589.0</ele><time>2026-04-29T16:02:37.001Z</time></trkpt><trkpt lat="43.45703366631026" lon="11.295343662352094"><ele>589.0</ele><time>2026-04-29T16:02:38.001Z</time></trkpt><trkpt lat="43.456981861878454" lon="11.295451038757227"><ele>589.0</ele><time>2026-04-29T16:02:39.001Z</time></trkpt><trkpt lat="43.456921911858245" lon="11.29555996888146"><ele>587.6</ele><time>2026-04-29T16:02:40.001Z</time></trkpt><trkpt lat="43.4568644282857" lon="11.295657440865638"><ele>586.2</ele><time>2026-04-29T16:02:41.001Z</time></trkpt><trkpt lat="43.45681442156042" lon="11.295730805506617"><ele>584.8000000000001</ele><time>2026-04-29T16:02:42.001Z</time></trkpt><trkpt lat="43.456764040069565" lon="11.295801756630429"><ele>583.4</ele><time>2026-04-29T16:02:43.001Z</time></trkpt><trkpt lat="43.45670367480269" lon="11.295885869199893"><ele>582.0</ele><time>2026-04-29T16:02:45.001Z</time></trkpt><trkpt lat="43.45679287564244" lon="11.29603355096041"><ele>582.0</ele><time>2026-04-29T16:02:48.001Z</time></trkpt><trkpt lat="43.45685504913049" lon="11.296073238649711"><ele>582.0</ele><time>2026-04-29T16:02:49.001Z</time></trkpt><trkpt lat="43.45692645791289" lon="11.296098551398302"><ele>582.0</ele><time>2026-04-29T16:02:50.001Z</time></trkpt><trkpt lat="43.457040189615725" lon="11.29609632101651"><ele>582.0</ele><time>2026-04-29T16:02:52.001Z</time></trkpt><trkpt lat="43.457161055201404" lon="11.2960714880082"><ele>582.0</ele><time>2026-04-29T16:02:54.001Z</time></trkpt><trkpt lat="43.45725220840792" lon="11.296067531509408"><ele>581.8333333333334</ele><time>2026-04-29T16:02:56.001Z</time></trkpt><trkpt lat="43.457316680475444" lon="11.296090829738542"><ele>581.6666666666666</ele><time>2026-04-29T16:02:58.001Z</time></trkpt><trkpt lat="43.45739084553579" lon="11.296056267993865"><ele>581.5</ele><time>2026-04-29T16:03:00.001Z</time></trkpt><trkpt lat="43.45746248765206" lon="11.295984349208894"><ele>581.3333333333333</ele><time>2026-04-29T16:03:02.001Z</time></trkpt><trkpt lat="43.45753668973499" lon="11.29591033431023"><ele>581.1666666666666</ele><time>2026-04-29T16:03:04.001Z</time></trkpt><trkpt lat="43.4576146084678" lon="11.295810828052785"><ele>581.0</ele><time>2026-04-29T16:03:06.001Z</time></trkpt><trkpt lat="43.45769791365318" lon="11.295680229183754"><ele>581.0</ele><time>2026-04-29T16:03:08.001Z</time></trkpt><trkpt lat="43.45776199221718" lon="11.295614753040445"><ele>581.0</ele><time>2026-04-29T16:03:09.001Z</time></trkpt><trkpt lat="43.45783711439722" lon="11.295572682491006"><ele>581.0</ele><time>2026-04-29T16:03:12.001Z</time></trkpt><trkpt lat="43.45789725671695" lon="11.29560065118326"><ele>581.0</ele><time>2026-04-29T16:03:14.001Z</time></trkpt><trkpt lat="43.458001493782895" lon="11.295686967387352"><ele>581.0</ele><time>2026-04-29T16:03:16.001Z</time></trkpt><trkpt lat="43.458071050496386" lon="11.295723319063281"><ele>581.0</ele><time>2026-04-29T16:03:17.001Z</time></trkpt><trkpt lat="43.45814329306786" lon="11.295734495019692"><ele>581.2</ele><time>2026-04-29T16:03:19.001Z</time></trkpt><trkpt lat="43.45822490037707" lon="11.295807232771628"><ele>581.4000000000001</ele><time>2026-04-29T16:03:21.001Z</time></trkpt><trkpt lat="43.458301413904785" lon="11.2958863706108"><ele>581.6</ele><time>2026-04-29T16:03:24.001Z</time></trkpt><trkpt lat="43.45839341280238" lon="11.295940190541598"><ele>581.8000000000001</ele><time>2026-04-29T16:03:26Z</time></trkpt><trkpt lat="43.45849078621846" lon="11.295923947166992"><ele>582.0</ele><time>2026-04-29T16:03:29Z</time></trkpt><trkpt lat="43.458549481391" lon="11.295888936426412"><ele>582.0</ele><time>2026-04-29T16:03:30Z</time></trkpt><trkpt lat="43.45865813670763" lon="11.295859427091873"><ele>582.0</ele><time>2026-04-29T16:03:32Z</time></trkpt><trkpt lat="43.458745755642504" lon="11.295891099904127"><ele>582.0</ele><time>2026-04-29T16:03:34Z</time></trkpt><trkpt lat="43.45885440802091" lon="11.295970988182209"><ele>582.0</ele><time>2026-04-29T16:03:36Z</time></trkpt><trkpt lat="43.458944933735864" lon="11.29605944143981"><ele>582.0</ele><time>2026-04-29T16:03:38Z</time></trkpt><trkpt lat="43.45904626421855" lon="11.2961366139839"><ele>581.6666666666666</ele><time>2026-04-29T16:03:40Z</time></trkpt><trkpt lat="43.4591105324583" lon="11.296161615005932"><ele>581.3333333333334</ele><time>2026-04-29T16:03:41Z</time></trkpt><trkpt lat="43.459177813324224" lon="11.296187834068165"><ele>581.0</ele><time>2026-04-29T16:03:42Z</time></trkpt><trkpt lat="43.45924427975309" lon="11.296207171302376"><ele>580.6666666666667</ele><time>2026-04-29T16:03:43Z</time></trkpt><trkpt lat="43.4593745579157" lon="11.296224233715927"><ele>580.3333333333334</ele><time>2026-04-29T16:03:45Z</time></trkpt><trkpt lat="43.459484711792975" lon="11.296251943990972"><ele>580.0</ele><time>2026-04-29T16:03:47Z</time></trkpt><trkpt lat="43.45958625914775" lon="11.296211656554298"><ele>579.5</ele><time>2026-04-29T16:03:49Z</time></trkpt><trkpt lat="43.459644420612854" lon="11.296171049132944"><ele>579.0</ele><time>2026-04-29T16:03:50Z</time></trkpt><trkpt lat="43.45974611142759" lon="11.296064400906264"><ele>578.5</ele><time>2026-04-29T16:03:52Z</time></trkpt><trkpt lat="43.459788395140876" lon="11.295995107905462"><ele>578.0</ele><time>2026-04-29T16:03:53Z</time></trkpt><trkpt lat="43.45983283996205" lon="11.295924353525738"><ele>577.5</ele><time>2026-04-29T16:03:54Z</time></trkpt><trkpt lat="43.459902472893" lon="11.295856369869247"><ele>577.0</ele><time>2026-04-29T16:03:56Z</time></trkpt><trkpt lat="43.4599595651606" lon="11.295765508813826"><ele>577.0</ele><time>2026-04-29T16:04:08Z</time></trkpt><trkpt lat="43.45998937220273" lon="11.295676641154442"><ele>577.0</ele><time>2026-04-29T16:04:09Z</time></trkpt><trkpt lat="43.46004555755782" lon="11.295581625895506"><ele>577.0</ele><time>2026-04-29T16:04:10Z</time></trkpt><trkpt lat="43.46010555227506" lon="11.295488815415492"><ele>577.0</ele><time>2026-04-29T16:04:11Z</time></trkpt><trkpt lat="43.46017338911987" lon="11.295395706668147"><ele>577.0</ele><time>2026-04-29T16:04:12Z</time></trkpt><trkpt lat="43.460243680687704" lon="11.295299837463032"><ele>577.0</ele><time>2026-04-29T16:04:13Z</time></trkpt><trkpt lat="43.46033002104545" lon="11.295239103086635"><ele>576.0</ele><time>2026-04-29T16:04:14Z</time></trkpt><trkpt lat="43.46039469744723" lon="11.29514871733477"><ele>575.0</ele><time>2026-04-29T16:04:15Z</time></trkpt><trkpt lat="43.4604701530238" lon="11.295081825689998"><ele>574.0</ele><time>2026-04-29T16:04:16Z</time></trkpt><trkpt lat="43.46053914777555" lon="11.295012078810709"><ele>573.0</ele><time>2026-04-29T16:04:17Z</time></trkpt><trkpt lat="43.46058794271555" lon="11.29494645363334"><ele>572.0</ele><time>2026-04-29T16:04:18Z</time></trkpt><trkpt lat="43.46063417316553" lon="11.294811342758866"><ele>571.0</ele><time>2026-04-29T16:04:20Z</time></trkpt><trkpt lat="43.46060507626976" lon="11.294630437965758"><ele>569.8</ele><time>2026-04-29T16:04:22.001Z</time></trkpt><trkpt lat="43.46057768255966" lon="11.29448226514973"><ele>568.6</ele><time>2026-04-29T16:04:23.001Z</time></trkpt><trkpt lat="43.46056686191505" lon="11.294327954579922"><ele>567.4</ele><time>2026-04-29T16:04:24.001Z</time></trkpt><trkpt lat="43.460573438457885" lon="11.294202482287064"><ele>566.2</ele><time>2026-04-29T16:04:25.001Z</time></trkpt><trkpt lat="43.460601206360856" lon="11.294104663277391"><ele>565.0</ele><time>2026-04-29T16:04:26.001Z</time></trkpt><trkpt lat="43.46064860279687" lon="11.294008918898541"><ele>566.4</ele><time>2026-04-29T16:04:27.001Z</time></trkpt><trkpt lat="43.46071286022651" lon="11.293900945968627"><ele>567.8</ele><time>2026-04-29T16:04:28.001Z</time></trkpt><trkpt lat="43.46078679336486" lon="11.293766096652147"><ele>569.2</ele><time>2026-04-29T16:04:29.001Z</time></trkpt><trkpt lat="43.460850139392214" lon="11.29364441363168"><ele>570.6</ele><time>2026-04-29T16:04:30.001Z</time></trkpt><trkpt lat="43.46089845217934" lon="11.293540584981688"><ele>572.0</ele><time>2026-04-29T16:04:31.001Z</time></trkpt><trkpt lat="43.460945279657714" lon="11.293446271824656"><ele>572.0</ele><time>2026-04-29T16:04:32.001Z</time></trkpt><trkpt lat="43.460993195261736" lon="11.293348484412233"><ele>572.0</ele><time>2026-04-29T16:04:33.001Z</time></trkpt><trkpt lat="43.461037387891984" lon="11.293256244236005"><ele>572.0</ele><time>2026-04-29T16:04:34.001Z</time></trkpt><trkpt lat="43.46108039069624" lon="11.29315734368106"><ele>572.0</ele><time>2026-04-29T16:04:35.001Z</time></trkpt><trkpt lat="43.461124666829356" lon="11.29305250952006"><ele>572.0</ele><time>2026-04-29T16:04:36.001Z</time></trkpt><trkpt lat="43.46117418147664" lon="11.292946473880036"><ele>572.0</ele><time>2026-04-29T16:04:37.001Z</time></trkpt><trkpt lat="43.461211292686414" lon="11.29284174964338"><ele>570.6</ele><time>2026-04-29T16:04:38.001Z</time></trkpt><trkpt lat="43.46125132003829" lon="11.292731796067999"><ele>569.2</ele><time>2026-04-29T16:04:39.001Z</time></trkpt><trkpt lat="43.46129018276289" lon="11.292600947722892"><ele>567.8</ele><time>2026-04-29T16:04:40.001Z</time></trkpt><trkpt lat="43.4613311788609" lon="11.292461335149852"><ele>566.4</ele><time>2026-04-29T16:04:41.001Z</time></trkpt><trkpt lat="43.46136340047396" lon="11.292310631420204"><ele>565.0</ele><time>2026-04-29T16:04:42.001Z</time></trkpt><trkpt lat="43.461413176004484" lon="11.292166805215768"><ele>565.0</ele><time>2026-04-29T16:04:43.001Z</time></trkpt><trkpt lat="43.46143900951126" lon="11.292031785793442"><ele>565.0</ele><time>2026-04-29T16:04:44.001Z</time></trkpt><trkpt lat="43.46148186086139" lon="11.29193640409697"><ele>565.0</ele><time>2026-04-29T16:04:45.001Z</time></trkpt><trkpt lat="43.46151468120067" lon="11.291768097628411"><ele>565.0</ele><time>2026-04-29T16:04:47.001Z</time></trkpt><trkpt lat="43.4615661557174" lon="11.291592378792991"><ele>565.0</ele><time>2026-04-29T16:04:49.001Z</time></trkpt><trkpt lat="43.46158365555996" lon="11.291487428213005"><ele>564.6</ele><time>2026-04-29T16:04:50.001Z</time></trkpt><trkpt lat="43.46157481110734" lon="11.291374547669564"><ele>564.2</ele><time>2026-04-29T16:04:51.001Z</time></trkpt><trkpt lat="43.46159459119373" lon="11.291250310198416"><ele>563.8</ele><time>2026-04-29T16:04:52.001Z</time></trkpt><trkpt lat="43.461594694691925" lon="11.291110100507336"><ele>563.4</ele><time>2026-04-29T16:04:53.001Z</time></trkpt><trkpt lat="43.46158231265889" lon="11.290986083926327"><ele>563.0</ele><time>2026-04-29T16:04:54.001Z</time></trkpt><trkpt lat="43.461604798430486" lon="11.290874739195916"><ele>563.0</ele><time>2026-04-29T16:04:55.001Z</time></trkpt><trkpt lat="43.461607846219714" lon="11.290776793883056"><ele>563.0</ele><time>2026-04-29T16:04:56.001Z</time></trkpt><trkpt lat="43.461621931592056" lon="11.29067555132713"><ele>563.0</ele><time>2026-04-29T16:04:57.001Z</time></trkpt><trkpt lat="43.46161636994313" lon="11.290575215791884"><ele>563.0</ele><time>2026-04-29T16:04:58.001Z</time></trkpt><trkpt lat="43.46160533825113" lon="11.290421869095699"><ele>563.0</ele><time>2026-04-29T16:05:00.001Z</time></trkpt><trkpt lat="43.46174901007806" lon="11.290270381415212"><ele>562.8</ele><time>2026-04-29T16:05:07.001Z</time></trkpt><trkpt lat="43.46184229918279" lon="11.29025298060182"><ele>562.5999999999999</ele><time>2026-04-29T16:05:08.001Z</time></trkpt><trkpt lat="43.46193191721814" lon="11.290226376706867"><ele>562.4000000000001</ele><time>2026-04-29T16:05:09.001Z</time></trkpt><trkpt lat="43.462021225901935" lon="11.290208848652881"><ele>562.2</ele><time>2026-04-29T16:05:10.001Z</time></trkpt><trkpt lat="43.46212564678787" lon="11.290186591399447"><ele>562.0</ele><time>2026-04-29T16:05:11.001Z</time></trkpt><trkpt lat="43.462240146119505" lon="11.290167682479726"><ele>562.0</ele><time>2026-04-29T16:05:12.001Z</time></trkpt><trkpt lat="43.462360528829" lon="11.290145397854372"><ele>562.0</ele><time>2026-04-29T16:05:13.001Z</time></trkpt><trkpt lat="43.46248900332416" lon="11.290114120664542"><ele>562.0</ele><time>2026-04-29T16:05:14.001Z</time></trkpt><trkpt lat="43.46262190340536" lon="11.290078823594962"><ele>562.0</ele><time>2026-04-29T16:05:15.001Z</time></trkpt><trkpt lat="43.46276086209395" lon="11.290039282417077"><ele>562.0</ele><time>2026-04-29T16:05:16.001Z</time></trkpt><trkpt lat="43.462903311802776" lon="11.289999849587268"><ele>562.0</ele><time>2026-04-29T16:05:17.001Z</time></trkpt><trkpt lat="43.463051313393066" lon="11.289958450865079"><ele>562.0</ele><time>2026-04-29T16:05:18.001Z</time></trkpt><trkpt lat="43.46319020986261" lon="11.28991544586478"><ele>562.0</ele><time>2026-04-29T16:05:19.001Z</time></trkpt><trkpt lat="43.46331939380581" lon="11.289874350539815"><ele>561.8000000000001</ele><time>2026-04-29T16:05:20.001Z</time></trkpt><trkpt lat="43.463442142000225" lon="11.28983828550899"><ele>561.6</ele><time>2026-04-29T16:05:21.001Z</time></trkpt><trkpt lat="43.46355528701852" lon="11.28980497216799"><ele>561.4000000000001</ele><time>2026-04-29T16:05:22.001Z</time></trkpt><trkpt lat="43.46365325782288" lon="11.289774575261768"><ele>561.2</ele><time>2026-04-29T16:05:23.001Z</time></trkpt><trkpt lat="43.46374988043685" lon="11.289745530510597"><ele>561.0</ele><time>2026-04-29T16:05:24.001Z</time></trkpt><trkpt lat="43.46384792935724" lon="11.289711047524086"><ele>561.0</ele><time>2026-04-29T16:05:25.001Z</time></trkpt><trkpt lat="43.46394642432024" lon="11.289684013328825"><ele>561.0</ele><time>2026-04-29T16:05:26.001Z</time></trkpt><trkpt lat="43.46404822363573" lon="11.289656438701078"><ele>561.0</ele><time>2026-04-29T16:05:27.001Z</time></trkpt><trkpt lat="43.46415101637018" lon="11.289625237220962"><ele>561.0</ele><time>2026-04-29T16:05:28.001Z</time></trkpt><trkpt lat="43.46424219035229" lon="11.289592033765526"><ele>561.0</ele><time>2026-04-29T16:05:29.001Z</time></trkpt><trkpt lat="43.46432610595299" lon="11.289586560561835"><ele>561.0</ele><time>2026-04-29T16:05:30.001Z</time></trkpt><trkpt lat="43.46435245239888" lon="11.289381066806204"><ele>561.0</ele><time>2026-04-29T16:05:32Z</time></trkpt><trkpt lat="43.46431574276505" lon="11.289262287548583"><ele>561.0</ele><time>2026-04-29T16:05:33Z</time></trkpt><trkpt lat="43.46430477008737" lon="11.289168953718628"><ele>561.0</ele><time>2026-04-29T16:05:34Z</time></trkpt><trkpt lat="43.46425133247481" lon="11.289026117953838"><ele>561.0</ele><time>2026-04-29T16:05:35Z</time></trkpt><trkpt lat="43.464202413360084" lon="11.288866007240536"><ele>560.75</ele><time>2026-04-29T16:05:36Z</time></trkpt><trkpt lat="43.464152970535594" lon="11.288698512935559"><ele>560.5</ele><time>2026-04-29T16:05:37Z</time></trkpt><trkpt lat="43.46407085975091" lon="11.288547044614889"><ele>560.25</ele><time>2026-04-29T16:05:38Z</time></trkpt><trkpt lat="43.46397176871572" lon="11.288413810334852"><ele>560.0</ele><time>2026-04-29T16:05:39Z</time></trkpt><trkpt lat="43.463839416690995" lon="11.288311972279576"><ele>558.3333333333333</ele><time>2026-04-29T16:05:40Z</time></trkpt><trkpt lat="43.46368235028914" lon="11.288214706271484"><ele>556.6666666666666</ele><time>2026-04-29T16:05:41Z</time></trkpt><trkpt lat="43.46351541633188" lon="11.288124811620813"><ele>555.0</ele><time>2026-04-29T16:05:42Z</time></trkpt><trkpt lat="43.46333396175878" lon="11.288036910898004"><ele>551.0</ele><time>2026-04-29T16:05:43Z</time></trkpt><trkpt lat="43.46314957533505" lon="11.287956627305688"><ele>547.0</ele><time>2026-04-29T16:05:44Z</time></trkpt><trkpt lat="43.46296423763902" lon="11.287900623889819"><ele>543.0</ele><time>2026-04-29T16:05:45Z</time></trkpt><trkpt lat="43.462788818190994" lon="11.287880154206151"><ele>542.6666666666666</ele><time>2026-04-29T16:05:46Z</time></trkpt><trkpt lat="43.462610579783664" lon="11.28791251391501"><ele>542.3333333333333</ele><time>2026-04-29T16:05:47Z</time></trkpt><trkpt lat="43.46242888448807" lon="11.288005248224454"><ele>542.0</ele><time>2026-04-29T16:05:48Z</time></trkpt><trkpt lat="43.46224564861749" lon="11.288119989391939"><ele>542.6666666666666</ele><time>2026-04-29T16:05:49Z</time></trkpt><trkpt lat="43.462059342177675" lon="11.288232385228785"><ele>543.3333333333334</ele><time>2026-04-29T16:05:50Z</time></trkpt><trkpt lat="43.46186312197434" lon="11.288349874362632"><ele>544.0</ele><time>2026-04-29T16:05:51Z</time></trkpt><trkpt lat="43.46166373208809" lon="11.288466554430688"><ele>544.0</ele><time>2026-04-29T16:05:52Z</time></trkpt><trkpt lat="43.46146556956532" lon="11.288577168215504"><ele>544.0</ele><time>2026-04-29T16:05:53Z</time></trkpt><trkpt lat="43.461273881444605" lon="11.288675380384118"><ele>544.0</ele><time>2026-04-29T16:05:54Z</time></trkpt><trkpt lat="43.46108885975579" lon="11.288775768236137"><ele>543.0</ele><time>2026-04-29T16:05:55Z</time></trkpt><trkpt lat="43.460913841459934" lon="11.288874363048924"><ele>542.0</ele><time>2026-04-29T16:05:56Z</time></trkpt><trkpt lat="43.46075597070968" lon="11.288940743216065"><ele>541.0</ele><time>2026-04-29T16:05:57Z</time></trkpt><trkpt lat="43.460601378751214" lon="11.289028288494297"><ele>541.0</ele><time>2026-04-29T16:05:58Z</time></trkpt><trkpt lat="43.46045429609693" lon="11.28911406353762"><ele>541.0</ele><time>2026-04-29T16:05:59Z</time></trkpt><trkpt lat="43.460320404310664" lon="11.289211357509695"><ele>541.0</ele><time>2026-04-29T16:06:00Z</time></trkpt><trkpt lat="43.46018503373539" lon="11.289289721079347"><ele>538.25</ele><time>2026-04-29T16:06:01Z</time></trkpt><trkpt lat="43.460057421137165" lon="11.289356819811225"><ele>535.5</ele><time>2026-04-29T16:06:02Z</time></trkpt><trkpt lat="43.45993283132175" lon="11.28941858607103"><ele>532.75</ele><time>2026-04-29T16:06:03Z</time></trkpt><trkpt lat="43.45980656119214" lon="11.289477754653769"><ele>530.0</ele><time>2026-04-29T16:06:04Z</time></trkpt><trkpt lat="43.45968855482212" lon="11.289533384155687"><ele>531.5</ele><time>2026-04-29T16:06:05Z</time></trkpt><trkpt lat="43.45957211402349" lon="11.289591071109944"><ele>533.0</ele><time>2026-04-29T16:06:06Z</time></trkpt><trkpt lat="43.45945289824888" lon="11.289651768441708"><ele>534.5</ele><time>2026-04-29T16:06:07Z</time></trkpt><trkpt lat="43.45932692410183" lon="11.289723172428122"><ele>536.0</ele><time>2026-04-29T16:06:08Z</time></trkpt><trkpt lat="43.45918784974607" lon="11.289772554465554"><ele>536.0</ele><time>2026-04-29T16:06:09Z</time></trkpt><trkpt lat="43.45903951794512" lon="11.289839868213088"><ele>536.0</ele><time>2026-04-29T16:06:10Z</time></trkpt><trkpt lat="43.45888892218751" lon="11.289915746116261"><ele>536.0</ele><time>2026-04-29T16:06:11Z</time></trkpt><trkpt lat="43.45872806390423" lon="11.289984371325032"><ele>535.0</ele><time>2026-04-29T16:06:12.001Z</time></trkpt><trkpt lat="43.45855567140778" lon="11.290068805086456"><ele>534.0</ele><time>2026-04-29T16:06:13.001Z</time></trkpt><trkpt lat="43.458370435384374" lon="11.290105206689491"><ele>533.0</ele><time>2026-04-29T16:06:14.001Z</time></trkpt><trkpt lat="43.45817626360702" lon="11.290123359262846"><ele>533.0</ele><time>2026-04-29T16:06:15.001Z</time></trkpt><trkpt lat="43.45797679967701" lon="11.290119088556974"><ele>533.0</ele><time>2026-04-29T16:06:16.001Z</time></trkpt><trkpt lat="43.45777739203577" lon="11.29008315497109"><ele>533.0</ele><time>2026-04-29T16:06:17.001Z</time></trkpt><trkpt lat="43.4575820911098" lon="11.290024360369353"><ele>532.3333333333333</ele><time>2026-04-29T16:06:18.001Z</time></trkpt><trkpt lat="43.45740272130702" lon="11.289942518887543"><ele>531.6666666666666</ele><time>2026-04-29T16:06:19.001Z</time></trkpt><trkpt lat="43.45723757899931" lon="11.28985487246094"><ele>531.0</ele><time>2026-04-29T16:06:20.001Z</time></trkpt><trkpt lat="43.457099516773916" lon="11.289757092160034"><ele>529.6666666666666</ele><time>2026-04-29T16:06:21.001Z</time></trkpt><trkpt lat="43.45696988904518" lon="11.289655644113237"><ele>528.3333333333333</ele><time>2026-04-29T16:06:22.001Z</time></trkpt><trkpt lat="43.45683642796122" lon="11.289506482549667"><ele>527.0</ele><time>2026-04-29T16:06:23.001Z</time></trkpt><trkpt lat="43.45668714553192" lon="11.28935500816247"><ele>527.0</ele><time>2026-04-29T16:06:24.001Z</time></trkpt><trkpt lat="43.45653777758789" lon="11.28917937882713"><ele>527.0</ele><time>2026-04-29T16:06:25.001Z</time></trkpt><trkpt lat="43.45638248706461" lon="11.288997687965788"><ele>527.0</ele><time>2026-04-29T16:06:26.001Z</time></trkpt><trkpt lat="43.456218049274426" lon="11.28882745510249"><ele>524.3333333333333</ele><time>2026-04-29T16:06:27.001Z</time></trkpt><trkpt lat="43.45606904656017" lon="11.28864880225896"><ele>521.6666666666666</ele><time>2026-04-29T16:06:28.001Z</time></trkpt><trkpt lat="43.45590660519462" lon="11.288499393518183"><ele>519.0</ele><time>2026-04-29T16:06:29.001Z</time></trkpt><trkpt lat="43.45572302978856" lon="11.288373953324138"><ele>519.0</ele><time>2026-04-29T16:06:30.001Z</time></trkpt><trkpt lat="43.45552549213698" lon="11.28827321650573"><ele>519.0</ele><time>2026-04-29T16:06:31.001Z</time></trkpt><trkpt lat="43.45531306509837" lon="11.288188774988088"><ele>519.0</ele><time>2026-04-29T16:06:32.001Z</time></trkpt><trkpt lat="43.45509490892844" lon="11.288104447766154"><ele>511.5</ele><time>2026-04-29T16:06:33.001Z</time></trkpt><trkpt lat="43.45487004639706" lon="11.2880115020415"><ele>504.0</ele><time>2026-04-29T16:06:34.001Z</time></trkpt><trkpt lat="43.45464627224" lon="11.287913020982325"><ele>507.5</ele><time>2026-04-29T16:06:35.001Z</time></trkpt><trkpt lat="43.45442098081164" lon="11.287814709120262"><ele>511.0</ele><time>2026-04-29T16:06:36.001Z</time></trkpt><trkpt lat="43.45420665383034" lon="11.28772634208816"><ele>511.0</ele><time>2026-04-29T16:06:37.001Z</time></trkpt><trkpt lat="43.45402192904786" lon="11.287646958738208"><ele>511.0</ele><time>2026-04-29T16:06:38.001Z</time></trkpt><trkpt lat="43.45385759414356" lon="11.287571215479968"><ele>511.0</ele><time>2026-04-29T16:06:39.001Z</time></trkpt><trkpt lat="43.453713790659386" lon="11.287476813508613"><ele>510.0</ele><time>2026-04-29T16:06:40.001Z</time></trkpt><trkpt lat="43.453584687551576" lon="11.287338307635213"><ele>509.0</ele><time>2026-04-29T16:06:41.001Z</time></trkpt><trkpt lat="43.45346709447096" lon="11.287148467679748"><ele>508.0</ele><time>2026-04-29T16:06:42.001Z</time></trkpt><trkpt lat="43.45337455076483" lon="11.286921576906288"><ele>508.0</ele><time>2026-04-29T16:06:43.001Z</time></trkpt><trkpt lat="43.45331503098607" lon="11.28667403286743"><ele>508.0</ele><time>2026-04-29T16:06:44.001Z</time></trkpt><trkpt lat="43.45329458242416" lon="11.286403155618205"><ele>508.0</ele><time>2026-04-29T16:06:45.001Z</time></trkpt><trkpt lat="43.4532614217638" lon="11.286137787345291"><ele>506.6666666666667</ele><time>2026-04-29T16:06:46.001Z</time></trkpt><trkpt lat="43.45320807469864" lon="11.285873247878918"><ele>505.33333333333337</ele><time>2026-04-29T16:06:47.001Z</time></trkpt><trkpt lat="43.45312143849147" lon="11.285625500020389"><ele>504.0</ele><time>2026-04-29T16:06:48.001Z</time></trkpt><trkpt lat="43.45300475331497" lon="11.285417115792269"><ele>502.0</ele><time>2026-04-29T16:06:49.001Z</time></trkpt><trkpt lat="43.452845411494984" lon="11.285246609662167"><ele>500.0</ele><time>2026-04-29T16:06:50.001Z</time></trkpt><trkpt lat="43.45264845721618" lon="11.285116235393206"><ele>498.0</ele><time>2026-04-29T16:06:51.001Z</time></trkpt><trkpt lat="43.4524300352258" lon="11.28499133002334"><ele>498.0</ele><time>2026-04-29T16:06:52.001Z</time></trkpt><trkpt lat="43.45220226592143" lon="11.284856655277798"><ele>498.0</ele><time>2026-04-29T16:06:53.001Z</time></trkpt><trkpt lat="43.451961902978624" lon="11.284712874940734"><ele>493.5</ele><time>2026-04-29T16:06:54.001Z</time></trkpt><trkpt lat="43.45171460936417" lon="11.284563012863735"><ele>489.0</ele><time>2026-04-29T16:06:55.001Z</time></trkpt><trkpt lat="43.45147006672988" lon="11.284411186740225"><ele>489.0</ele><time>2026-04-29T16:06:56.001Z</time></trkpt><trkpt lat="43.45123904404643" lon="11.2842691965645"><ele>489.0</ele><time>2026-04-29T16:06:57.001Z</time></trkpt><trkpt lat="43.451014970501575" lon="11.284131117783492"><ele>489.0</ele><time>2026-04-29T16:06:58.001Z</time></trkpt><trkpt lat="43.450803318989195" lon="11.28400053708789"><ele>489.0</ele><time>2026-04-29T16:06:59.001Z</time></trkpt><trkpt lat="43.45059548403059" lon="11.28387115870344"><ele>486.0</ele><time>2026-04-29T16:07:00.001Z</time></trkpt><trkpt lat="43.450403565478645" lon="11.283730002191"><ele>483.0</ele><time>2026-04-29T16:07:01.001Z</time></trkpt><trkpt lat="43.45022609930666" lon="11.283556754381852"><ele>480.0</ele><time>2026-04-29T16:07:02.001Z</time></trkpt><trkpt lat="43.450081464279044" lon="11.28335406016662"><ele>480.0</ele><time>2026-04-29T16:07:03.001Z</time></trkpt><trkpt lat="43.44995089626452" lon="11.283117964208522"><ele>480.0</ele><time>2026-04-29T16:07:04.001Z</time></trkpt><trkpt lat="43.44983173391743" lon="11.28284779772002"><ele>480.0</ele><time>2026-04-29T16:07:05.001Z</time></trkpt><trkpt lat="43.44972174871978" lon="11.282560568557816"><ele>483.0</ele><time>2026-04-29T16:07:06.001Z</time></trkpt><trkpt lat="43.4496137577126" lon="11.282271580500092"><ele>486.0</ele><time>2026-04-29T16:07:07.001Z</time></trkpt><trkpt lat="43.449509647687684" lon="11.282005873966272"><ele>481.0</ele><time>2026-04-29T16:07:08.001Z</time></trkpt><trkpt lat="43.44940916213151" lon="11.281770314847334"><ele>476.0</ele><time>2026-04-29T16:07:09.001Z</time></trkpt><trkpt lat="43.44929115820766" lon="11.28156471880344"><ele>471.0</ele><time>2026-04-29T16:07:10.001Z</time></trkpt><trkpt lat="43.449140898969844" lon="11.281384658632899"><ele>466.66666666666663</ele><time>2026-04-29T16:07:11.001Z</time></trkpt><trkpt lat="43.448951633898176" lon="11.281242256787326"><ele>462.3333333333333</ele><time>2026-04-29T16:07:12.001Z</time></trkpt><trkpt lat="43.44875243741186" lon="11.281128656777518"><ele>458.0</ele><time>2026-04-29T16:07:13.001Z</time></trkpt><trkpt lat="43.448574073019294" lon="11.281025339877191"><ele>458.0</ele><time>2026-04-29T16:07:14.001Z</time></trkpt><trkpt lat="43.44842971085467" lon="11.28086977807289"><ele>458.0</ele><time>2026-04-29T16:07:15.001Z</time></trkpt><trkpt lat="43.44829980300138" lon="11.28069068370731"><ele>458.0</ele><time>2026-04-29T16:07:16.001Z</time></trkpt><trkpt lat="43.448175143124885" lon="11.280476884181464"><ele>454.0</ele><time>2026-04-29T16:07:17.001Z</time></trkpt><trkpt lat="43.44810860863273" lon="11.280199040443033"><ele>450.0</ele><time>2026-04-29T16:07:18.001Z</time></trkpt><trkpt lat="43.44804673267426" lon="11.279901844619605"><ele>446.0</ele><time>2026-04-29T16:07:19.001Z</time></trkpt><trkpt lat="43.44798539010193" lon="11.279595455800962"><ele>442.0</ele><time>2026-04-29T16:07:20.001Z</time></trkpt><trkpt lat="43.447928052037085" lon="11.279298390915173"><ele>438.0</ele><time>2026-04-29T16:07:21.001Z</time></trkpt><trkpt lat="43.44782888601381" lon="11.279015641013826"><ele>439.0</ele><time>2026-04-29T16:07:22.001Z</time></trkpt><trkpt lat="43.44768911086603" lon="11.278750614917307"><ele>440.0</ele><time>2026-04-29T16:07:23.001Z</time></trkpt><trkpt lat="43.447515285456454" lon="11.278494928910227"><ele>440.0</ele><time>2026-04-29T16:07:24.001Z</time></trkpt><trkpt lat="43.44732962482776" lon="11.27825321335104"><ele>440.0</ele><time>2026-04-29T16:07:25.001Z</time></trkpt><trkpt lat="43.44712514825803" lon="11.278010616873223"><ele>433.5</ele><time>2026-04-29T16:07:26.001Z</time></trkpt><trkpt lat="43.44692981168583" lon="11.27775977233364"><ele>427.0</ele><time>2026-04-29T16:07:27.001Z</time></trkpt><trkpt lat="43.446748450240385" lon="11.27751490894854"><ele>427.0</ele><time>2026-04-29T16:07:28.001Z</time></trkpt><trkpt lat="43.44658498192902" lon="11.277280646651048"><ele>427.0</ele><time>2026-04-29T16:07:29.001Z</time></trkpt><trkpt lat="43.446452786695126" lon="11.277055695407027"><ele>427.0</ele><time>2026-04-29T16:07:30.001Z</time></trkpt><trkpt lat="43.44633962684001" lon="11.276801784346155"><ele>423.0</ele><time>2026-04-29T16:07:31.001Z</time></trkpt><trkpt lat="43.44624380224573" lon="11.276518449421426"><ele>419.0</ele><time>2026-04-29T16:07:32.001Z</time></trkpt><trkpt lat="43.44615657208635" lon="11.276205235758031"><ele>417.0</ele><time>2026-04-29T16:07:33.001Z</time></trkpt><trkpt lat="43.44607787547534" lon="11.275885952860211"><ele>415.0</ele><time>2026-04-29T16:07:34.001Z</time></trkpt><trkpt lat="43.44599070615734" lon="11.275566362110435"><ele>413.5</ele><time>2026-04-29T16:07:35.001Z</time></trkpt><trkpt lat="43.44590119851304" lon="11.27524113302564"><ele>412.0</ele><time>2026-04-29T16:07:36.001Z</time></trkpt><trkpt lat="43.44581858985885" lon="11.274938387838526"><ele>412.6666666666667</ele><time>2026-04-29T16:07:37Z</time></trkpt><trkpt lat="43.445732528663335" lon="11.274671893275604"><ele>413.33333333333337</ele><time>2026-04-29T16:07:38Z</time></trkpt><trkpt lat="43.44562986937028" lon="11.274425443845994"><ele>414.0</ele><time>2026-04-29T16:07:39Z</time></trkpt><trkpt lat="43.44548785953926" lon="11.274213942172068"><ele>413.0</ele><time>2026-04-29T16:07:40Z</time></trkpt><trkpt lat="43.445321826067975" lon="11.274017678135463"><ele>412.0</ele><time>2026-04-29T16:07:41Z</time></trkpt><trkpt lat="43.445125931666496" lon="11.27385115468456"><ele>411.0</ele><time>2026-04-29T16:07:42Z</time></trkpt><trkpt lat="43.444907335036355" lon="11.27370297668819"><ele>412.0</ele><time>2026-04-29T16:07:43Z</time></trkpt><trkpt lat="43.444673133585226" lon="11.273562309313752"><ele>413.0</ele><time>2026-04-29T16:07:44Z</time></trkpt><trkpt lat="43.444445610570035" lon="11.273417604086918"><ele>413.0</ele><time>2026-04-29T16:07:45Z</time></trkpt><trkpt lat="43.44424528395221" lon="11.273263591428451"><ele>413.0</ele><time>2026-04-29T16:07:46Z</time></trkpt><trkpt lat="43.444073557479534" lon="11.273088491950512"><ele>413.0</ele><time>2026-04-29T16:07:47Z</time></trkpt><trkpt lat="43.443921437865356" lon="11.27286977258607"><ele>408.0</ele><time>2026-04-29T16:07:48Z</time></trkpt><trkpt lat="43.44379004443611" lon="11.272613560710763"><ele>403.0</ele><time>2026-04-29T16:07:49Z</time></trkpt><trkpt lat="43.44368685192581" lon="11.272336287025176"><ele>404.5</ele><time>2026-04-29T16:07:50Z</time></trkpt><trkpt lat="43.44361623408956" lon="11.272040076175076"><ele>406.0</ele><time>2026-04-29T16:07:51Z</time></trkpt><trkpt lat="43.44354462637276" lon="11.271736246073402"><ele>407.0</ele><time>2026-04-29T16:07:52Z</time></trkpt><trkpt lat="43.44347040548037" lon="11.271436672546471"><ele>408.0</ele><time>2026-04-29T16:07:53Z</time></trkpt><trkpt lat="43.4433922779588" lon="11.271159941195885"><ele>409.0</ele><time>2026-04-29T16:07:54Z</time></trkpt><trkpt lat="43.44329831693932" lon="11.270929405396316"><ele>409.0</ele><time>2026-04-29T16:07:55Z</time></trkpt><trkpt lat="43.443172224206634" lon="11.270724250987769"><ele>409.0</ele><time>2026-04-29T16:07:56Z</time></trkpt><trkpt lat="43.44300936896732" lon="11.27056185517088"><ele>409.0</ele><time>2026-04-29T16:07:57Z</time></trkpt><trkpt lat="43.44282735102671" lon="11.270431381708626"><ele>408.33333333333337</ele><time>2026-04-29T16:07:58Z</time></trkpt><trkpt lat="43.4426206214317" lon="11.270367382404308"><ele>407.66666666666663</ele><time>2026-04-29T16:07:59Z</time></trkpt><trkpt lat="43.44241425981397" lon="11.270352384160773"><ele>407.0</ele><time>2026-04-29T16:08:00Z</time></trkpt><trkpt lat="43.442203185862894" lon="11.270397007816609"><ele>405.0</ele><time>2026-04-29T16:08:01Z</time></trkpt><trkpt lat="43.44198637316825" lon="11.270497561479244"><ele>403.0</ele><time>2026-04-29T16:08:02Z</time></trkpt><trkpt lat="43.44175944060745" lon="11.2706103251086"><ele>401.0</ele><time>2026-04-29T16:08:03Z</time></trkpt><trkpt lat="43.44151602017375" lon="11.270717160529713"><ele>399.0</ele><time>2026-04-29T16:08:04Z</time></trkpt><trkpt lat="43.44126821168266" lon="11.270819085930476"><ele>399.0</ele><time>2026-04-29T16:08:05Z</time></trkpt><trkpt lat="43.441027519380846" lon="11.270916059167398"><ele>399.0</ele><time>2026-04-29T16:08:06Z</time></trkpt><trkpt lat="43.44079050247422" lon="11.271016277621767"><ele>399.0</ele><time>2026-04-29T16:08:07Z</time></trkpt><trkpt lat="43.440552884686944" lon="11.271111175338946"><ele>399.0</ele><time>2026-04-29T16:08:08Z</time></trkpt><trkpt lat="43.4403122147497" lon="11.271206979705306"><ele>397.0</ele><time>2026-04-29T16:08:09Z</time></trkpt><trkpt lat="43.440072491673455" lon="11.271305304096236"><ele>395.0</ele><time>2026-04-29T16:08:10Z</time></trkpt><trkpt lat="43.43982522692747" lon="11.271405995814298"><ele>389.5</ele><time>2026-04-29T16:08:11Z</time></trkpt><trkpt lat="43.43959304285248" lon="11.271494205291237"><ele>384.0</ele><time>2026-04-29T16:08:12Z</time></trkpt><trkpt lat="43.439366732751004" lon="11.271553897823953"><ele>384.0</ele><time>2026-04-29T16:08:13Z</time></trkpt><trkpt lat="43.439144516919406" lon="11.27157425810565"><ele>384.0</ele><time>2026-04-29T16:08:14Z</time></trkpt><trkpt lat="43.43893332213154" lon="11.27155694649321"><ele>384.0</ele><time>2026-04-29T16:08:15Z</time></trkpt><trkpt lat="43.43872931718737" lon="11.271522573167143"><ele>380.3333333333333</ele><time>2026-04-29T16:08:16Z</time></trkpt><trkpt lat="43.438527245143995" lon="11.271483006057316"><ele>376.66666666666663</ele><time>2026-04-29T16:08:17Z</time></trkpt><trkpt lat="43.438339180231665" lon="11.271446684946344"><ele>373.0</ele><time>2026-04-29T16:08:18Z</time></trkpt><trkpt lat="43.43817042675835" lon="11.271416194550424"><ele>373.0</ele><time>2026-04-29T16:08:19Z</time></trkpt><trkpt lat="43.438041608187056" lon="11.271377031261435"><ele>373.0</ele><time>2026-04-29T16:08:20Z</time></trkpt><trkpt lat="43.43795151559768" lon="11.271334271359722"><ele>373.0</ele><time>2026-04-29T16:08:21Z</time></trkpt><trkpt lat="43.43789748759061" lon="11.271217939952692"><ele>373.0</ele><time>2026-04-29T16:08:23.001Z</time></trkpt><trkpt lat="43.437899808588135" lon="11.271126294244706"><ele>373.0</ele><time>2026-04-29T16:08:24.001Z</time></trkpt><trkpt lat="43.43790365324699" lon="11.271011358422376"><ele>373.0</ele><time>2026-04-29T16:08:25.001Z</time></trkpt><trkpt lat="43.43792008111295" lon="11.270914710139348"><ele>373.0</ele><time>2026-04-29T16:08:26.001Z</time></trkpt><trkpt lat="43.43795323887421" lon="11.270824446238242"><ele>373.0</ele><time>2026-04-29T16:08:27.001Z</time></trkpt><trkpt lat="43.4379952468853" lon="11.270729280194635"><ele>373.0</ele><time>2026-04-29T16:08:28.001Z</time></trkpt><trkpt lat="43.43804884002607" lon="11.270620364213078"><ele>373.0</ele><time>2026-04-29T16:08:29.001Z</time></trkpt><trkpt lat="43.43811891180013" lon="11.270491727260094"><ele>373.0</ele><time>2026-04-29T16:08:30.001Z</time></trkpt><trkpt lat="43.43819292290791" lon="11.27035516939882"><ele>370.75</ele><time>2026-04-29T16:08:31.001Z</time></trkpt><trkpt lat="43.438275788457574" lon="11.270213554758826"><ele>368.5</ele><time>2026-04-29T16:08:32.001Z</time></trkpt><trkpt lat="43.43835507784461" lon="11.270066250368703"><ele>366.25</ele><time>2026-04-29T16:08:33.001Z</time></trkpt><trkpt lat="43.438428228839356" lon="11.269913800735003"><ele>364.0</ele><time>2026-04-29T16:08:34.001Z</time></trkpt><trkpt lat="43.43849611412562" lon="11.269775712410064"><ele>361.79999999999995</ele><time>2026-04-29T16:08:35.001Z</time></trkpt><trkpt lat="43.43855890983004" lon="11.269654658744834"><ele>359.59999999999997</ele><time>2026-04-29T16:08:36.001Z</time></trkpt><trkpt lat="43.4386123257057" lon="11.26953936222316"><ele>357.4</ele><time>2026-04-29T16:08:37.001Z</time></trkpt><trkpt lat="43.43865267996746" lon="11.269422594765418"><ele>355.2</ele><time>2026-04-29T16:08:38.001Z</time></trkpt><trkpt lat="43.43867768344439" lon="11.269306932147353"><ele>353.0</ele><time>2026-04-29T16:08:39.001Z</time></trkpt><trkpt lat="43.43868765469969" lon="11.26917558083869"><ele>353.0</ele><time>2026-04-29T16:08:40.001Z</time></trkpt><trkpt lat="43.43868699578189" lon="11.269033436477708"><ele>353.0</ele><time>2026-04-29T16:08:41.001Z</time></trkpt><trkpt lat="43.43868666375554" lon="11.268870015915697"><ele>353.0</ele><time>2026-04-29T16:08:42.001Z</time></trkpt><trkpt lat="43.43868314271775" lon="11.268718077831727"><ele>353.0</ele><time>2026-04-29T16:08:43.001Z</time></trkpt><trkpt lat="43.43865706007346" lon="11.268573570450197"><ele>353.0</ele><time>2026-04-29T16:08:44.001Z</time></trkpt><trkpt lat="43.43860890124511" lon="11.268440733380823"><ele>352.0</ele><time>2026-04-29T16:08:45.001Z</time></trkpt><trkpt lat="43.43855296968948" lon="11.268307789648553"><ele>351.0</ele><time>2026-04-29T16:08:46.001Z</time></trkpt><trkpt lat="43.438495907714184" lon="11.268189619298889"><ele>350.0</ele><time>2026-04-29T16:08:47.001Z</time></trkpt><trkpt lat="43.43844379495911" lon="11.268079803128057"><ele>349.0</ele><time>2026-04-29T16:08:48.001Z</time></trkpt><trkpt lat="43.438397961376076" lon="11.267979196262994"><ele>348.0</ele><time>2026-04-29T16:08:49.001Z</time></trkpt><trkpt lat="43.43835595187446" lon="11.267879945934625"><ele>348.0</ele><time>2026-04-29T16:08:50.001Z</time></trkpt><trkpt lat="43.43831395365779" lon="11.267779975080444"><ele>348.0</ele><time>2026-04-29T16:08:51.001Z</time></trkpt><trkpt lat="43.43827425196041" lon="11.267673261113028"><ele>348.0</ele><time>2026-04-29T16:08:52.001Z</time></trkpt><trkpt lat="43.43823733636961" lon="11.267574563937158"><ele>348.0</ele><time>2026-04-29T16:08:53.001Z</time></trkpt><trkpt lat="43.438200301892365" lon="11.267465686211152"><ele>348.0</ele><time>2026-04-29T16:08:54.001Z</time></trkpt><trkpt lat="43.438161314434375" lon="11.267361944362447"><ele>348.0</ele><time>2026-04-29T16:08:55.001Z</time></trkpt><trkpt lat="43.438126561472686" lon="11.26726270262754"><ele>348.3333333333333</ele><time>2026-04-29T16:08:56.001Z</time></trkpt><trkpt lat="43.43809220829481" lon="11.267159224773847"><ele>348.6666666666667</ele><time>2026-04-29T16:08:57.001Z</time></trkpt><trkpt lat="43.43803875806246" lon="11.267070776857251"><ele>349.0</ele><time>2026-04-29T16:08:58.001Z</time></trkpt><trkpt lat="43.43798998217949" lon="11.266974122327447"><ele>349.33333333333337</ele><time>2026-04-29T16:08:59.001Z</time></trkpt><trkpt lat="43.437943700766894" lon="11.266879058335808"><ele>349.6666666666667</ele><time>2026-04-29T16:09:00.001Z</time></trkpt><trkpt lat="43.43790989866435" lon="11.266774859498126"><ele>350.0</ele><time>2026-04-29T16:09:01.001Z</time></trkpt><trkpt lat="43.43787533395111" lon="11.266644932406946"><ele>350.0</ele><time>2026-04-29T16:09:02.001Z</time></trkpt><trkpt lat="43.437839415910354" lon="11.266506551118372"><ele>350.0</ele><time>2026-04-29T16:09:03.001Z</time></trkpt><trkpt lat="43.437834897278485" lon="11.266369068278097"><ele>350.0</ele><time>2026-04-29T16:09:04.001Z</time></trkpt><trkpt lat="43.43781361598726" lon="11.266270900257647"><ele>350.0</ele><time>2026-04-29T16:09:05.001Z</time></trkpt><trkpt lat="43.43782059477513" lon="11.266167632606471"><ele>350.0</ele><time>2026-04-29T16:09:06.001Z</time></trkpt><trkpt lat="43.43782480541251" lon="11.26606316778978"><ele>350.0</ele><time>2026-04-29T16:09:07.001Z</time></trkpt><trkpt lat="43.43782343623683" lon="11.265943925648159"><ele>350.4</ele><time>2026-04-29T16:09:08.001Z</time></trkpt><trkpt lat="43.43783315513036" lon="11.265824000736602"><ele>350.8</ele><time>2026-04-29T16:09:09.001Z</time></trkpt><trkpt lat="43.43787572218901" lon="11.265715716566184"><ele>351.20000000000005</ele><time>2026-04-29T16:09:10.001Z</time></trkpt><trkpt lat="43.43792503612541" lon="11.265627505280547"><ele>351.6</ele><time>2026-04-29T16:09:11.001Z</time></trkpt><trkpt lat="43.43798208257484" lon="11.265515571520964"><ele>352.0</ele><time>2026-04-29T16:09:12.001Z</time></trkpt><trkpt lat="43.43804306440982" lon="11.265404902641379"><ele>353.20000000000005</ele><time>2026-04-29T16:09:13.001Z</time></trkpt><trkpt lat="43.438079825122465" lon="11.265312816154028"><ele>354.4</ele><time>2026-04-29T16:09:14.001Z</time></trkpt><trkpt lat="43.43812057020754" lon="11.265241227095222"><ele>355.6</ele><time>2026-04-29T16:09:15.001Z</time></trkpt><trkpt lat="43.43819527183167" lon="11.265085272212032"><ele>356.79999999999995</ele><time>2026-04-29T16:09:17.001Z</time></trkpt><trkpt lat="43.43823074453337" lon="11.264984614390055"><ele>358.0</ele><time>2026-04-29T16:09:18.001Z</time></trkpt><trkpt lat="43.438261416467526" lon="11.264865711155982"><ele>356.79999999999995</ele><time>2026-04-29T16:09:19.001Z</time></trkpt><trkpt lat="43.43828582855561" lon="11.264730363010473"><ele>355.6</ele><time>2026-04-29T16:09:20.001Z</time></trkpt><trkpt lat="43.43830344121595" lon="11.264581244196975"><ele>354.4</ele><time>2026-04-29T16:09:21.001Z</time></trkpt><trkpt lat="43.4383206922532" lon="11.264425698188695"><ele>353.20000000000005</ele><time>2026-04-29T16:09:22.001Z</time></trkpt><trkpt lat="43.43833479882176" lon="11.264269633313772"><ele>352.0</ele><time>2026-04-29T16:09:23.001Z</time></trkpt><trkpt lat="43.4383444528359" lon="11.26413574151806"><ele>352.0</ele><time>2026-04-29T16:09:24.001Z</time></trkpt><trkpt lat="43.43835978003135" lon="11.26402639879461"><ele>352.0</ele><time>2026-04-29T16:09:25.001Z</time></trkpt><trkpt lat="43.4383879133552" lon="11.26392517233271"><ele>352.0</ele><time>2026-04-29T16:09:26.001Z</time></trkpt><trkpt lat="43.43841510016035" lon="11.263811570886395"><ele>352.0</ele><time>2026-04-29T16:09:27.001Z</time></trkpt><trkpt lat="43.4384362655608" lon="11.263678649942475"><ele>352.0</ele><time>2026-04-29T16:09:28.001Z</time></trkpt><trkpt lat="43.43848911695366" lon="11.263551674998386"><ele>350.40000000000003</ele><time>2026-04-29T16:09:29.001Z</time></trkpt><trkpt lat="43.43854354717249" lon="11.263417006187588"><ele>348.8</ele><time>2026-04-29T16:09:30.001Z</time></trkpt><trkpt lat="43.438598422451115" lon="11.263288278036656"><ele>347.2</ele><time>2026-04-29T16:09:31.001Z</time></trkpt><trkpt lat="43.43865113650683" lon="11.263185929872035"><ele>345.6</ele><time>2026-04-29T16:09:32.001Z</time></trkpt><trkpt lat="43.438678873790444" lon="11.263075782680845"><ele>344.0</ele><time>2026-04-29T16:09:33.001Z</time></trkpt><trkpt lat="43.43870268068493" lon="11.262947072737202"><ele>343.4</ele><time>2026-04-29T16:09:34.001Z</time></trkpt><trkpt lat="43.43871868750657" lon="11.262794734843437"><ele>342.79999999999995</ele><time>2026-04-29T16:09:35.001Z</time></trkpt><trkpt lat="43.438728174455136" lon="11.262636539370407"><ele>342.20000000000005</ele><time>2026-04-29T16:09:36.001Z</time></trkpt><trkpt lat="43.43874108943713" lon="11.262489454195702"><ele>341.6</ele><time>2026-04-29T16:09:37.001Z</time></trkpt><trkpt lat="43.438759607170205" lon="11.262360633968502"><ele>341.0</ele><time>2026-04-29T16:09:38.001Z</time></trkpt><trkpt lat="43.43878611048377" lon="11.262248997146294"><ele>341.6</ele><time>2026-04-29T16:09:39.001Z</time></trkpt><trkpt lat="43.43881081196" lon="11.262132974578815"><ele>342.20000000000005</ele><time>2026-04-29T16:09:40.001Z</time></trkpt><trkpt lat="43.43883436251336" lon="11.262013330547557"><ele>342.79999999999995</ele><time>2026-04-29T16:09:41.001Z</time></trkpt><trkpt lat="43.43886305857316" lon="11.261893080923494"><ele>343.4</ele><time>2026-04-29T16:09:42.001Z</time></trkpt><trkpt lat="43.43889646667405" lon="11.261776041020003"><ele>344.0</ele><time>2026-04-29T16:09:43Z</time></trkpt><trkpt lat="43.43893569627856" lon="11.26166520139603"><ele>344.0</ele><time>2026-04-29T16:09:44Z</time></trkpt><trkpt lat="43.438995449144976" lon="11.261570807807173"><ele>344.0</ele><time>2026-04-29T16:09:45Z</time></trkpt><trkpt lat="43.43902947117768" lon="11.261463278602049"><ele>344.0</ele><time>2026-04-29T16:09:46Z</time></trkpt><trkpt lat="43.43908315174292" lon="11.26137967022267"><ele>344.0</ele><time>2026-04-29T16:09:47Z</time></trkpt><trkpt lat="43.43912765234692" lon="11.261283691832297"><ele>344.0</ele><time>2026-04-29T16:09:48Z</time></trkpt><trkpt lat="43.439161134963946" lon="11.261188943073625"><ele>344.0</ele><time>2026-04-29T16:09:49Z</time></trkpt><trkpt lat="43.4391766454435" lon="11.26109458036013"><ele>343.1666666666667</ele><time>2026-04-29T16:09:50Z</time></trkpt><trkpt lat="43.43918731055828" lon="11.260985397985392"><ele>342.33333333333337</ele><time>2026-04-29T16:09:51Z</time></trkpt><trkpt lat="43.439196065237724" lon="11.260866922168482"><ele>341.5</ele><time>2026-04-29T16:09:52Z</time></trkpt><trkpt lat="43.4391976901744" lon="11.260749739118578"><ele>340.6666666666667</ele><time>2026-04-29T16:09:53Z</time></trkpt><trkpt lat="43.439187126281965" lon="11.260637781139344"><ele>339.8333333333333</ele><time>2026-04-29T16:09:54Z</time></trkpt><trkpt lat="43.43916400736784" lon="11.260545496362367"><ele>339.0</ele><time>2026-04-29T16:09:55Z</time></trkpt><trkpt lat="43.439165561181845" lon="11.260454114529539"><ele>338.6666666666667</ele><time>2026-04-29T16:09:56Z</time></trkpt><trkpt lat="43.43914770420634" lon="11.260303554757193"><ele>338.3333333333333</ele><time>2026-04-29T16:09:58Z</time></trkpt><trkpt lat="43.43913543406541" lon="11.260200099920056"><ele>338.0</ele><time>2026-04-29T16:10:00Z</time></trkpt><trkpt lat="43.43910931588907" lon="11.260115057662642"><ele>337.66666666666663</ele><time>2026-04-29T16:11:01.001Z</time></trkpt><trkpt lat="43.439108234963015" lon="11.25999178914428"><ele>337.3333333333333</ele><time>2026-04-29T16:11:41.001Z</time></trkpt><trkpt lat="43.43910421323974" lon="11.259901453951665"><ele>337.0</ele><time>2026-04-29T16:11:42.001Z</time></trkpt><trkpt lat="43.43910778837709" lon="11.259791283794469"><ele>336.66666666666663</ele><time>2026-04-29T16:11:43.001Z</time></trkpt><trkpt lat="43.43912155647686" lon="11.259691530256948"><ele>336.3333333333333</ele><time>2026-04-29T16:11:44.001Z</time></trkpt><trkpt lat="43.439123419892965" lon="11.259544417234578"><ele>336.0</ele><time>2026-04-29T16:11:46.001Z</time></trkpt><trkpt lat="43.43915249107268" lon="11.25942820041157"><ele>335.6666666666667</ele><time>2026-04-29T16:11:48.001Z</time></trkpt><trkpt lat="43.43918433036696" lon="11.25934416492476"><ele>335.33333333333337</ele><time>2026-04-29T16:11:49.001Z</time></trkpt><trkpt lat="43.43921977959245" lon="11.259237348080008"><ele>335.0</ele><time>2026-04-29T16:11:50.001Z</time></trkpt><trkpt lat="43.439259311328" lon="11.259131548714475"><ele>335.0</ele><time>2026-04-29T16:11:51.001Z</time></trkpt><trkpt lat="43.43930291515501" lon="11.259025733960206"><ele>335.0</ele><time>2026-04-29T16:11:52.001Z</time></trkpt><trkpt lat="43.43934203546738" lon="11.25892206273553"><ele>335.0</ele><time>2026-04-29T16:11:53.001Z</time></trkpt><trkpt lat="43.439369644095336" lon="11.25883437121837"><ele>335.0</ele><time>2026-04-29T16:11:54.001Z</time></trkpt><trkpt lat="43.43940028216175" lon="11.258749092402363"><ele>335.0</ele><time>2026-04-29T16:11:55.001Z</time></trkpt><trkpt lat="43.4394338219279" lon="11.258596284917818"><ele>335.0</ele><time>2026-04-29T16:11:57.001Z</time></trkpt><trkpt lat="43.4394108414253" lon="11.258425413240888"><ele>333.8</ele><time>2026-04-29T16:11:59.001Z</time></trkpt><trkpt lat="43.439391368652274" lon="11.258298684600625"><ele>332.6</ele><time>2026-04-29T16:12:00.001Z</time></trkpt><trkpt lat="43.43937735646422" lon="11.258146632009467"><ele>331.4</ele><time>2026-04-29T16:12:01.001Z</time></trkpt><trkpt lat="43.43937049555597" lon="11.25798797240802"><ele>330.2</ele><time>2026-04-29T16:12:02.001Z</time></trkpt><trkpt lat="43.439363666314264" lon="11.257820080409731"><ele>329.0</ele><time>2026-04-29T16:12:03.001Z</time></trkpt><trkpt lat="43.43935472154275" lon="11.257661664297512"><ele>328.2</ele><time>2026-04-29T16:12:04.001Z</time></trkpt><trkpt lat="43.43934526545619" lon="11.257510119834413"><ele>327.4</ele><time>2026-04-29T16:12:05.001Z</time></trkpt><trkpt lat="43.43933868530926" lon="11.257360514079187"><ele>326.6</ele><time>2026-04-29T16:12:06.001Z</time></trkpt><trkpt lat="43.4393298831117" lon="11.257217869116344"><ele>325.8</ele><time>2026-04-29T16:12:07.001Z</time></trkpt><trkpt lat="43.43932368110097" lon="11.257077408764268"><ele>325.0</ele><time>2026-04-29T16:12:08.001Z</time></trkpt><trkpt lat="43.43931897923322" lon="11.256948035522347"><ele>324.66666666666663</ele><time>2026-04-29T16:12:09.001Z</time></trkpt><trkpt lat="43.43931086572123" lon="11.256824888448914"><ele>324.3333333333333</ele><time>2026-04-29T16:12:10.001Z</time></trkpt><trkpt lat="43.43930011640657" lon="11.25670487393502"><ele>324.0</ele><time>2026-04-29T16:12:11.001Z</time></trkpt><trkpt lat="43.43929332375493" lon="11.256591698299822"><ele>323.6666666666667</ele><time>2026-04-29T16:12:12.001Z</time></trkpt><trkpt lat="43.43928782058171" lon="11.256484844228913"><ele>323.33333333333337</ele><time>2026-04-29T16:12:13.001Z</time></trkpt><trkpt lat="43.439278912160354" lon="11.256373508780067"><ele>323.0</ele><time>2026-04-29T16:12:14.001Z</time></trkpt><trkpt lat="43.43927278640661" lon="11.256259266101843"><ele>322.6666666666667</ele><time>2026-04-29T16:12:15.001Z</time></trkpt><trkpt lat="43.43926700925019" lon="11.256151879545067"><ele>322.33333333333337</ele><time>2026-04-29T16:12:16.001Z</time></trkpt><trkpt lat="43.43925998924184" lon="11.256050815741268"><ele>322.0</ele><time>2026-04-29T16:12:17.001Z</time></trkpt><trkpt lat="43.439263690693636" lon="11.255940698626125"><ele>321.6666666666667</ele><time>2026-04-29T16:12:18.001Z</time></trkpt><trkpt lat="43.43927875527511" lon="11.255852342208568"><ele>321.3333333333333</ele><time>2026-04-29T16:12:19.001Z</time></trkpt><trkpt lat="43.43932600281039" lon="11.2557822702406"><ele>321.0</ele><time>2026-04-29T16:12:20.001Z</time></trkpt><trkpt lat="43.439339232752" lon="11.255635642068563"><ele>320.0</ele><time>2026-04-29T16:12:22.001Z</time></trkpt><trkpt lat="43.43925657719355" lon="11.255553579030945"><ele>319.0</ele><time>2026-04-29T16:12:25.001Z</time></trkpt><trkpt lat="43.43915438493355" lon="11.255469252086431"><ele>318.0</ele><time>2026-04-29T16:12:27.001Z</time></trkpt><trkpt lat="43.439069461199374" lon="11.255416617059565"><ele>317.0</ele><time>2026-04-29T16:12:29.001Z</time></trkpt><trkpt lat="43.438953334854126" lon="11.255349255046761"><ele>316.0</ele><time>2026-04-29T16:12:31.001Z</time></trkpt><trkpt lat="43.43888303001257" lon="11.255306823863496"><ele>316.0</ele><time>2026-04-29T16:12:32.001Z</time></trkpt><trkpt lat="43.4388092835351" lon="11.255272975710316"><ele>316.0</ele><time>2026-04-29T16:12:33.001Z</time></trkpt><trkpt lat="43.438742717789154" lon="11.255230109695145"><ele>316.0</ele><time>2026-04-29T16:12:34.001Z</time></trkpt><trkpt lat="43.43866953506154" lon="11.255187827019881"><ele>316.0</ele><time>2026-04-29T16:12:35.001Z</time></trkpt><trkpt lat="43.43859284247072" lon="11.25514847002006"><ele>316.0</ele><time>2026-04-29T16:12:36.001Z</time></trkpt><trkpt lat="43.438515778821625" lon="11.255107420406413"><ele>316.0</ele><time>2026-04-29T16:12:37.001Z</time></trkpt><trkpt lat="43.43843555954876" lon="11.255065646265601"><ele>314.8333333333333</ele><time>2026-04-29T16:12:38.001Z</time></trkpt><trkpt lat="43.43836224345363" lon="11.255024533515398"><ele>313.66666666666663</ele><time>2026-04-29T16:12:39.001Z</time></trkpt><trkpt lat="43.43829166396322" lon="11.254986286757488"><ele>312.5</ele><time>2026-04-29T16:12:40.001Z</time></trkpt><trkpt lat="43.438228827728054" lon="11.254955358445818"><ele>311.3333333333333</ele><time>2026-04-29T16:12:41.001Z</time></trkpt><trkpt lat="43.438177133394035" lon="11.254897435504812"><ele>310.1666666666667</ele><time>2026-04-29T16:12:42.001Z</time></trkpt><trkpt lat="43.438081462539536" lon="11.254837757362708"><ele>309.0</ele><time>2026-04-29T16:12:44.001Z</time></trkpt><trkpt lat="43.438014578846946" lon="11.25483137637609"><ele>308.3333333333333</ele><time>2026-04-29T16:12:46.001Z</time></trkpt><trkpt lat="43.43795236020149" lon="11.254940977273494"><ele>307.6666666666667</ele><time>2026-04-29T16:12:50.001Z</time></trkpt><trkpt lat="43.43792564739268" lon="11.255037265286015"><ele>307.0</ele><time>2026-04-29T16:12:51.001Z</time></trkpt><trkpt lat="43.43786887134856" lon="11.255091874338849"><ele>306.33333333333337</ele><time>2026-04-29T16:12:52.001Z</time></trkpt><trkpt lat="43.4378082954392" lon="11.255141774678508"><ele>305.6666666666667</ele><time>2026-04-29T16:12:53.001Z</time></trkpt><trkpt lat="43.43773990458283" lon="11.255185771966469"><ele>305.0</ele><time>2026-04-29T16:12:54.001Z</time></trkpt><trkpt lat="43.437659207089865" lon="11.255237370778833"><ele>305.0</ele><time>2026-04-29T16:12:55.001Z</time></trkpt><trkpt lat="43.43757712698263" lon="11.25528873134511"><ele>305.0</ele><time>2026-04-29T16:12:56.001Z</time></trkpt><trkpt lat="43.43750254732292" lon="11.255337244277701"><ele>305.0</ele><time>2026-04-29T16:12:57.001Z</time></trkpt><trkpt lat="43.43744086401944" lon="11.255372591154433"><ele>305.0</ele><time>2026-04-29T16:12:58.001Z</time></trkpt><trkpt lat="43.437347011658666" lon="11.255408243488247"><ele>305.0</ele><time>2026-04-29T16:13:00.001Z</time></trkpt><trkpt lat="43.43728306339614" lon="11.255354044662282"><ele>305.0</ele><time>2026-04-29T16:13:02.001Z</time></trkpt><trkpt lat="43.43722678845781" lon="11.255291970182336"><ele>305.0</ele><time>2026-04-29T16:13:03.001Z</time></trkpt><trkpt lat="43.43718447421339" lon="11.25516085542776"><ele>305.0</ele><time>2026-04-29T16:13:04.001Z</time></trkpt><trkpt lat="43.437110164437684" lon="11.255024055622567"><ele>305.0</ele><time>2026-04-29T16:13:05.001Z</time></trkpt><trkpt lat="43.43703317843231" lon="11.25488798828235"><ele>305.0</ele><time>2026-04-29T16:13:06.001Z</time></trkpt><trkpt lat="43.436952826195345" lon="11.25477604169192"><ele>303.2</ele><time>2026-04-29T16:13:07.001Z</time></trkpt><trkpt lat="43.43689603815169" lon="11.254675630025906"><ele>301.4</ele><time>2026-04-29T16:13:08.001Z</time></trkpt><trkpt lat="43.43683104040065" lon="11.254575924904593"><ele>299.6</ele><time>2026-04-29T16:13:10.001Z</time></trkpt><trkpt lat="43.43685454397812" lon="11.254451839521785"><ele>297.8</ele><time>2026-04-29T16:13:11.001Z</time></trkpt><trkpt lat="43.436924658375304" lon="11.254330906673374"><ele>296.0</ele><time>2026-04-29T16:13:13.001Z</time></trkpt><trkpt lat="43.43700738868104" lon="11.254304402673018"><ele>296.0</ele><time>2026-04-29T16:13:14.001Z</time></trkpt><trkpt lat="43.437088715068484" lon="11.254278406577003"><ele>296.0</ele><time>2026-04-29T16:13:15.001Z</time></trkpt><trkpt lat="43.43718934956393" lon="11.254239055460214"><ele>296.0</ele><time>2026-04-29T16:13:16.001Z</time></trkpt><trkpt lat="43.437298969878775" lon="11.254189375064966"><ele>296.0</ele><time>2026-04-29T16:13:17.001Z</time></trkpt><trkpt lat="43.43741840672175" lon="11.254139079798295"><ele>296.0</ele><time>2026-04-29T16:13:18.001Z</time></trkpt><trkpt lat="43.43753879602385" lon="11.254085606500055"><ele>296.40000000000003</ele><time>2026-04-29T16:13:19.001Z</time></trkpt><trkpt lat="43.437634953119144" lon="11.254043829978302"><ele>296.8</ele><time>2026-04-29T16:13:20.001Z</time></trkpt><trkpt lat="43.43771928694041" lon="11.253972271847472"><ele>297.20000000000005</ele><time>2026-04-29T16:13:21.001Z</time></trkpt><trkpt lat="43.43779255888914" lon="11.253854125839698"><ele>297.6</ele><time>2026-04-29T16:13:22.001Z</time></trkpt><trkpt lat="43.4378826695306" lon="11.253733976416305"><ele>298.0</ele><time>2026-04-29T16:13:23.001Z</time></trkpt><trkpt lat="43.437969435510965" lon="11.253587868143494"><ele>298.0</ele><time>2026-04-29T16:13:24.001Z</time></trkpt><trkpt lat="43.43804748720276" lon="11.253420459387264"><ele>298.0</ele><time>2026-04-29T16:13:25.001Z</time></trkpt><trkpt lat="43.43810378883723" lon="11.25322325511323"><ele>298.0</ele><time>2026-04-29T16:13:26.001Z</time></trkpt><trkpt lat="43.43815683563327" lon="11.253037733007726"><ele>298.0</ele><time>2026-04-29T16:13:27.001Z</time></trkpt><trkpt lat="43.43821709624099" lon="11.252859187221794"><ele>297.0</ele><time>2026-04-29T16:13:28.001Z</time></trkpt><trkpt lat="43.43827117543404" lon="11.252677911764959"><ele>296.0</ele><time>2026-04-29T16:13:29.001Z</time></trkpt><trkpt lat="43.43832564805183" lon="11.252505508632725"><ele>295.0</ele><time>2026-04-29T16:13:30.001Z</time></trkpt><trkpt lat="43.43838493596057" lon="11.25234319409519"><ele>294.0</ele><time>2026-04-29T16:13:31.001Z</time></trkpt><trkpt lat="43.43844604207437" lon="11.25219957622193"><ele>293.0</ele><time>2026-04-29T16:13:32.001Z</time></trkpt><trkpt lat="43.438503144104466" lon="11.252043414890634"><ele>292.0</ele><time>2026-04-29T16:13:33.001Z</time></trkpt><trkpt lat="43.438549949041196" lon="11.251879012577024"><ele>291.0</ele><time>2026-04-29T16:13:34.001Z</time></trkpt><trkpt lat="43.43858571375204" lon="11.251696741032408"><ele>290.0</ele><time>2026-04-29T16:13:35.001Z</time></trkpt><trkpt lat="43.43862337074973" lon="11.251510422032933"><ele>289.75</ele><time>2026-04-29T16:13:36.001Z</time></trkpt><trkpt lat="43.43866059093025" lon="11.251319618146475"><ele>289.5</ele><time>2026-04-29T16:13:37.001Z</time></trkpt><trkpt lat="43.438692306218144" lon="11.2511474186378"><ele>289.25</ele><time>2026-04-29T16:13:38.001Z</time></trkpt><trkpt lat="43.438717345513915" lon="11.2510004322372"><ele>289.0</ele><time>2026-04-29T16:13:39.001Z</time></trkpt><trkpt lat="43.43872780420708" lon="11.250854602374668"><ele>289.0</ele><time>2026-04-29T16:13:40.001Z</time></trkpt><trkpt lat="43.438714700919746" lon="11.250695744549331"><ele>289.0</ele><time>2026-04-29T16:13:41.001Z</time></trkpt><trkpt lat="43.438700313973435" lon="11.250519536308156"><ele>289.0</ele><time>2026-04-29T16:13:42.001Z</time></trkpt><trkpt lat="43.43868597885112" lon="11.250340453804094"><ele>289.0</ele><time>2026-04-29T16:13:43.001Z</time></trkpt><trkpt lat="43.43867315595379" lon="11.25015106880258"><ele>289.25</ele><time>2026-04-29T16:13:44.001Z</time></trkpt><trkpt lat="43.43866268546124" lon="11.249963788491346"><ele>289.5</ele><time>2026-04-29T16:13:45.001Z</time></trkpt><trkpt lat="43.43864978849585" lon="11.249772753203098"><ele>289.75</ele><time>2026-04-29T16:13:46.001Z</time></trkpt><trkpt lat="43.43863716927815" lon="11.249582671051995"><ele>290.0</ele><time>2026-04-29T16:13:47.001Z</time></trkpt><trkpt lat="43.438625345530745" lon="11.249388473764535"><ele>290.0</ele><time>2026-04-29T16:13:48.001Z</time></trkpt><trkpt lat="43.43861076114666" lon="11.249200192188262"><ele>290.0</ele><time>2026-04-29T16:13:49.001Z</time></trkpt><trkpt lat="43.4385963687424" lon="11.249004370618593"><ele>290.0</ele><time>2026-04-29T16:13:50.001Z</time></trkpt><trkpt lat="43.438588296734494" lon="11.248807512199466"><ele>290.0</ele><time>2026-04-29T16:13:51.001Z</time></trkpt><trkpt lat="43.43858207777081" lon="11.248603662953123"><ele>290.0</ele><time>2026-04-29T16:13:52.001Z</time></trkpt><trkpt lat="43.43857370005226" lon="11.248394822456465"><ele>290.0</ele><time>2026-04-29T16:13:53Z</time></trkpt><trkpt lat="43.438565801874155" lon="11.248194373224946"><ele>290.0</ele><time>2026-04-29T16:13:54Z</time></trkpt><trkpt lat="43.43855099539487" lon="11.247977449119025"><ele>290.0</ele><time>2026-04-29T16:13:55Z</time></trkpt><trkpt lat="43.43853653197437" lon="11.247755460225696"><ele>290.0</ele><time>2026-04-29T16:13:56Z</time></trkpt><trkpt lat="43.43852029931868" lon="11.24752776147785"><ele>290.0</ele><time>2026-04-29T16:13:57Z</time></trkpt><trkpt lat="43.43850999118385" lon="11.24730726945916"><ele>290.5</ele><time>2026-04-29T16:13:58Z</time></trkpt><trkpt lat="43.43850414048225" lon="11.24710419142902"><ele>291.0</ele><time>2026-04-29T16:13:59Z</time></trkpt><trkpt lat="43.438499869068" lon="11.246924334116448"><ele>291.5</ele><time>2026-04-29T16:14:00Z</time></trkpt><trkpt lat="43.43849410793155" lon="11.246766032012749"><ele>292.0</ele><time>2026-04-29T16:14:01Z</time></trkpt><trkpt lat="43.43847601886701" lon="11.246634811688665"><ele>292.0</ele><time>2026-04-29T16:14:02Z</time></trkpt><trkpt lat="43.43845480035341" lon="11.24652069121697"><ele>292.0</ele><time>2026-04-29T16:14:03Z</time></trkpt><trkpt lat="43.438417894470845" lon="11.246402153297057"><ele>292.0</ele><time>2026-04-29T16:14:04Z</time></trkpt><trkpt lat="43.438362744942346" lon="11.246277249495762"><ele>292.0</ele><time>2026-04-29T16:14:05Z</time></trkpt><trkpt lat="43.43829021849122" lon="11.246155504624163"><ele>292.0</ele><time>2026-04-29T16:14:06Z</time></trkpt><trkpt lat="43.43820355196516" lon="11.246019854341975"><ele>291.3333333333333</ele><time>2026-04-29T16:14:07Z</time></trkpt><trkpt lat="43.438095972187256" lon="11.245861066185961"><ele>290.6666666666667</ele><time>2026-04-29T16:14:08Z</time></trkpt><trkpt lat="43.43798410840864" lon="11.245699541881491"><ele>290.0</ele><time>2026-04-29T16:14:09Z</time></trkpt><trkpt lat="43.43787277959427" lon="11.245521818543672"><ele>290.0</ele><time>2026-04-29T16:14:10Z</time></trkpt><trkpt lat="43.43776220241245" lon="11.245343169349823"><ele>290.0</ele><time>2026-04-29T16:14:11Z</time></trkpt><trkpt lat="43.4376480618194" lon="11.24515968854136"><ele>290.0</ele><time>2026-04-29T16:14:12Z</time></trkpt><trkpt lat="43.4375347639799" lon="11.244983878372448"><ele>290.0</ele><time>2026-04-29T16:14:13Z</time></trkpt><trkpt lat="43.43741556531726" lon="11.244809835973964"><ele>290.0</ele><time>2026-04-29T16:14:14Z</time></trkpt><trkpt lat="43.437299224909324" lon="11.244637373942933"><ele>290.0</ele><time>2026-04-29T16:14:15Z</time></trkpt><trkpt lat="43.437182679819635" lon="11.24445780254592"><ele>288.33333333333337</ele><time>2026-04-29T16:14:16Z</time></trkpt><trkpt lat="43.437066000864625" lon="11.24427330887733"><ele>286.6666666666667</ele><time>2026-04-29T16:14:17Z</time></trkpt><trkpt lat="43.436948984712764" lon="11.244095027302462"><ele>285.0</ele><time>2026-04-29T16:14:18Z</time></trkpt><trkpt lat="43.43683083211758" lon="11.243916836916934"><ele>284.6666666666667</ele><time>2026-04-29T16:14:19Z</time></trkpt><trkpt lat="43.43671378467731" lon="11.243738248400263"><ele>284.33333333333337</ele><time>2026-04-29T16:14:20Z</time></trkpt><trkpt lat="43.43659399733405" lon="11.243550942792409"><ele>284.0</ele><time>2026-04-29T16:14:21Z</time></trkpt><trkpt lat="43.436472562497336" lon="11.243362223466942"><ele>284.0</ele><time>2026-04-29T16:14:22Z</time></trkpt><trkpt lat="43.43634993261064" lon="11.243166586472432"><ele>284.0</ele><time>2026-04-29T16:14:23Z</time></trkpt><trkpt lat="43.43623035078808" lon="11.242967137473089"><ele>284.0</ele><time>2026-04-29T16:14:24Z</time></trkpt><trkpt lat="43.4360974365666" lon="11.242756753515195"><ele>285.33333333333337</ele><time>2026-04-29T16:14:25Z</time></trkpt><trkpt lat="43.43597779871458" lon="11.242556443939005"><ele>286.6666666666667</ele><time>2026-04-29T16:14:26Z</time></trkpt><trkpt lat="43.43586922275523" lon="11.242371467751859"><ele>288.0</ele><time>2026-04-29T16:14:27Z</time></trkpt><trkpt lat="43.43575293292746" lon="11.242188954599781"><ele>288.75</ele><time>2026-04-29T16:14:28Z</time></trkpt><trkpt lat="43.43565032507697" lon="11.242034707177176"><ele>289.5</ele><time>2026-04-29T16:14:29Z</time></trkpt><trkpt lat="43.435564969740064" lon="11.241890710584425"><ele>290.25</ele><time>2026-04-29T16:14:30Z</time></trkpt><trkpt lat="43.43550570634458" lon="11.241770476833752"><ele>291.0</ele><time>2026-04-29T16:14:31Z</time></trkpt><trkpt lat="43.43546424780195" lon="11.24166724388298"><ele>291.0</ele><time>2026-04-29T16:14:32Z</time></trkpt><trkpt lat="43.43544263403594" lon="11.241561987664584"><ele>291.0</ele><time>2026-04-29T16:14:33Z</time></trkpt><trkpt lat="43.435434237793835" lon="11.241430713417772"><ele>291.0</ele><time>2026-04-29T16:14:34Z</time></trkpt><trkpt lat="43.43542673550742" lon="11.241259708664877"><ele>291.0</ele><time>2026-04-29T16:14:35Z</time></trkpt><trkpt lat="43.43542668175227" lon="11.241058766025892"><ele>291.0</ele><time>2026-04-29T16:14:36Z</time></trkpt><trkpt lat="43.43542766529131" lon="11.24086637408604"><ele>290.5</ele><time>2026-04-29T16:14:37Z</time></trkpt><trkpt lat="43.43542524320607" lon="11.240691192626883"><ele>290.0</ele><time>2026-04-29T16:14:38Z</time></trkpt><trkpt lat="43.43541685418548" lon="11.240523071057671"><ele>289.5</ele><time>2026-04-29T16:14:39Z</time></trkpt><trkpt lat="43.435421802787154" lon="11.24037040653087"><ele>289.0</ele><time>2026-04-29T16:14:40Z</time></trkpt><trkpt lat="43.435444435570574" lon="11.240232268910038"><ele>289.0</ele><time>2026-04-29T16:14:41Z</time></trkpt><trkpt lat="43.43548613876656" lon="11.240095599112395"><ele>289.0</ele><time>2026-04-29T16:14:42Z</time></trkpt><trkpt lat="43.43554943848324" lon="11.239957151974663"><ele>289.0</ele><time>2026-04-29T16:14:43Z</time></trkpt><trkpt lat="43.43563046338339" lon="11.239810354342737"><ele>289.0</ele><time>2026-04-29T16:14:44Z</time></trkpt><trkpt lat="43.43572862501421" lon="11.239648094506832"><ele>288.3333333333333</ele><time>2026-04-29T16:14:45Z</time></trkpt><trkpt lat="43.435828970911984" lon="11.239477652605737"><ele>287.6666666666667</ele><time>2026-04-29T16:14:46Z</time></trkpt><trkpt lat="43.435947318463015" lon="11.239285795221477"><ele>287.0</ele><time>2026-04-29T16:14:47Z</time></trkpt><trkpt lat="43.436040434539144" lon="11.239115937867552"><ele>286.75</ele><time>2026-04-29T16:14:48Z</time></trkpt><trkpt lat="43.43613745225145" lon="11.238963070525443"><ele>286.5</ele><time>2026-04-29T16:14:49Z</time></trkpt><trkpt lat="43.43622416307845" lon="11.238818617316396"><ele>286.25</ele><time>2026-04-29T16:14:50Z</time></trkpt><trkpt lat="43.43630589807517" lon="11.238677934912893"><ele>286.0</ele><time>2026-04-29T16:14:51Z</time></trkpt><trkpt lat="43.43638508576618" lon="11.238528090775288"><ele>287.75</ele><time>2026-04-29T16:14:52Z</time></trkpt><trkpt lat="43.436452808448806" lon="11.238357112824096"><ele>289.5</ele><time>2026-04-29T16:14:53Z</time></trkpt><trkpt lat="43.43651817226745" lon="11.238177712811748"><ele>291.25</ele><time>2026-04-29T16:14:54Z</time></trkpt><trkpt lat="43.436589898186924" lon="11.237994994955516"><ele>293.0</ele><time>2026-04-29T16:14:55Z</time></trkpt><trkpt lat="43.436661610042044" lon="11.237829218325125"><ele>293.75</ele><time>2026-04-29T16:14:56Z</time></trkpt><trkpt lat="43.43672345939102" lon="11.237679587423628"><ele>294.5</ele><time>2026-04-29T16:14:57Z</time></trkpt><trkpt lat="43.436788492850525" lon="11.237549609947054"><ele>295.25</ele><time>2026-04-29T16:14:58Z</time></trkpt><trkpt lat="43.43686084607105" lon="11.237428368944478"><ele>296.0</ele><time>2026-04-29T16:14:59Z</time></trkpt><trkpt lat="43.43694822293581" lon="11.23733007222622"><ele>296.25</ele><time>2026-04-29T16:15:00Z</time></trkpt><trkpt lat="43.4370477947978" lon="11.23725140968772"><ele>296.5</ele><time>2026-04-29T16:15:01Z</time></trkpt><trkpt lat="43.43715864887104" lon="11.237191668312729"><ele>296.75</ele><time>2026-04-29T16:15:02Z</time></trkpt><trkpt lat="43.437273998698785" lon="11.237145965352521"><ele>297.0</ele><time>2026-04-29T16:15:03Z</time></trkpt><trkpt lat="43.437405470810496" lon="11.237101665432752"><ele>297.0</ele><time>2026-04-29T16:15:04Z</time></trkpt><trkpt lat="43.437543993342395" lon="11.237039234476375"><ele>297.0</ele><time>2026-04-29T16:15:05Z</time></trkpt><trkpt lat="43.437687413516755" lon="11.236959977045096"><ele>297.0</ele><time>2026-04-29T16:15:06Z</time></trkpt><trkpt lat="43.43782137898962" lon="11.236877412322794"><ele>297.0</ele><time>2026-04-29T16:15:07Z</time></trkpt><trkpt lat="43.43794320122466" lon="11.23678811835407"><ele>296.6666666666667</ele><time>2026-04-29T16:15:08Z</time></trkpt><trkpt lat="43.438058090688514" lon="11.23667031434529"><ele>296.33333333333337</ele><time>2026-04-29T16:15:09Z</time></trkpt><trkpt lat="43.43816591459066" lon="11.236538826225768"><ele>296.0</ele><time>2026-04-29T16:15:10Z</time></trkpt><trkpt lat="43.43828304559303" lon="11.23637872141979"><ele>296.0</ele><time>2026-04-29T16:15:11Z</time></trkpt><trkpt lat="43.438405634585884" lon="11.236193770783162"><ele>296.0</ele><time>2026-04-29T16:15:12Z</time></trkpt><trkpt lat="43.43854157447705" lon="11.235988146862669"><ele>296.0</ele><time>2026-04-29T16:15:13Z</time></trkpt><trkpt lat="43.43867474514723" lon="11.235792476189255"><ele>293.33333333333337</ele><time>2026-04-29T16:15:14Z</time></trkpt><trkpt lat="43.43882166296128" lon="11.235570439131171"><ele>290.6666666666667</ele><time>2026-04-29T16:15:15Z</time></trkpt><trkpt lat="43.43897263818595" lon="11.235348714142045"><ele>288.0</ele><time>2026-04-29T16:15:16Z</time></trkpt><trkpt lat="43.4391136556093" lon="11.235154557060076"><ele>288.0</ele><time>2026-04-29T16:15:17.001Z</time></trkpt><trkpt lat="43.43923193038011" lon="11.235002185923149"><ele>288.0</ele><time>2026-04-29T16:15:18.001Z</time></trkpt><trkpt lat="43.439347873742676" lon="11.234857461986254"><ele>288.0</ele><time>2026-04-29T16:15:19.001Z</time></trkpt><trkpt lat="43.43947719339114" lon="11.23471088026236"><ele>286.0</ele><time>2026-04-29T16:15:20.001Z</time></trkpt><trkpt lat="43.439605184853974" lon="11.234571146219489"><ele>284.0</ele><time>2026-04-29T16:15:21.001Z</time></trkpt><trkpt lat="43.439728204697026" lon="11.23444617676304"><ele>282.0</ele><time>2026-04-29T16:15:22.001Z</time></trkpt><trkpt lat="43.439845414807344" lon="11.23433530355248"><ele>282.0</ele><time>2026-04-29T16:15:23.001Z</time></trkpt><trkpt lat="43.43993515174879" lon="11.234239694784435"><ele>282.0</ele><time>2026-04-29T16:15:24.001Z</time></trkpt><trkpt lat="43.44000865216246" lon="11.234134667592828"><ele>282.0</ele><time>2026-04-29T16:15:25.001Z</time></trkpt><trkpt lat="43.44008046186952" lon="11.233996911976481"><ele>282.0</ele><time>2026-04-29T16:15:26.001Z</time></trkpt><trkpt lat="43.440149985518495" lon="11.233838655528482"><ele>280.25</ele><time>2026-04-29T16:15:27.001Z</time></trkpt><trkpt lat="43.44022067295154" lon="11.233691529029587"><ele>278.5</ele><time>2026-04-29T16:15:28.001Z</time></trkpt><trkpt lat="43.44029220774223" lon="11.233546696336006"><ele>276.75</ele><time>2026-04-29T16:15:29.001Z</time></trkpt><trkpt lat="43.44036774066855" lon="11.233388943484554"><ele>275.0</ele><time>2026-04-29T16:15:30.001Z</time></trkpt><trkpt lat="43.44044644003065" lon="11.233235084116075"><ele>274.25</ele><time>2026-04-29T16:15:31.001Z</time></trkpt><trkpt lat="43.44053908734755" lon="11.233077568457883"><ele>273.5</ele><time>2026-04-29T16:15:32.001Z</time></trkpt><trkpt lat="43.440638416488746" lon="11.232946707263661"><ele>272.75</ele><time>2026-04-29T16:15:33.001Z</time></trkpt><trkpt lat="43.4407490916087" lon="11.232830894002124"><ele>272.0</ele><time>2026-04-29T16:15:34.001Z</time></trkpt><trkpt lat="43.44087047137022" lon="11.232712823311024"><ele>272.0</ele><time>2026-04-29T16:15:35.001Z</time></trkpt><trkpt lat="43.4409957691049" lon="11.232584130445664"><ele>272.0</ele><time>2026-04-29T16:15:36.001Z</time></trkpt><trkpt lat="43.44112552023019" lon="11.232447095765083"><ele>272.0</ele><time>2026-04-29T16:15:37.001Z</time></trkpt><trkpt lat="43.441251301675926" lon="11.232315033643694"><ele>272.4</ele><time>2026-04-29T16:15:38.001Z</time></trkpt><trkpt lat="43.441360257830276" lon="11.23220498975734"><ele>272.79999999999995</ele><time>2026-04-29T16:15:39.001Z</time></trkpt><trkpt lat="43.44144129699362" lon="11.232116927468896"><ele>273.2</ele><time>2026-04-29T16:15:40.001Z</time></trkpt><trkpt lat="43.44150365060073" lon="11.232054565705246"><ele>273.59999999999997</ele><time>2026-04-29T16:15:41.001Z</time></trkpt><trkpt lat="43.44156107163783" lon="11.231998274086749"><ele>274.0</ele><time>2026-04-29T16:15:42.001Z</time></trkpt><trkpt lat="43.44163067891047" lon="11.231962785330154"><ele>274.0</ele><time>2026-04-29T16:15:43.001Z</time></trkpt><trkpt lat="43.44170391114692" lon="11.231932012062046"><ele>274.0</ele><time>2026-04-29T16:15:44.001Z</time></trkpt><trkpt lat="43.44177767608392" lon="11.23190355528938"><ele>274.0</ele><time>2026-04-29T16:15:45.001Z</time></trkpt><trkpt lat="43.441855399316616" lon="11.231869567640414"><ele>274.0</ele><time>2026-04-29T16:15:46.001Z</time></trkpt><trkpt lat="43.44193706061287" lon="11.231841141420464"><ele>274.0</ele><time>2026-04-29T16:15:47.001Z</time></trkpt><trkpt lat="43.44202968744833" lon="11.231835505645776"><ele>274.0</ele><time>2026-04-29T16:15:48.001Z</time></trkpt><trkpt lat="43.44210346462949" lon="11.231792124523587"><ele>272.3333333333333</ele><time>2026-04-29T16:15:49.001Z</time></trkpt><trkpt lat="43.44217616064553" lon="11.231768990325115"><ele>270.66666666666663</ele><time>2026-04-29T16:15:50.001Z</time></trkpt><trkpt lat="43.44227909888448" lon="11.231707004035982"><ele>269.0</ele><time>2026-04-29T16:15:52.001Z</time></trkpt><trkpt lat="43.44233056935281" lon="11.231622248115508"><ele>267.3333333333333</ele><time>2026-04-29T16:15:54.001Z</time></trkpt><trkpt lat="43.4423409175734" lon="11.231499533366417"><ele>265.6666666666667</ele><time>2026-04-29T16:15:56.001Z</time></trkpt><trkpt lat="43.442354543414" lon="11.231393565684174"><ele>264.0</ele><time>2026-04-29T16:15:57.001Z</time></trkpt><trkpt lat="43.442374002992345" lon="11.231283008740817"><ele>262.0</ele><time>2026-04-29T16:15:58.001Z</time></trkpt><trkpt lat="43.44238647007048" lon="11.23117019765344"><ele>260.0</ele><time>2026-04-29T16:15:59Z</time></trkpt><trkpt lat="43.44238799076305" lon="11.231046295295744"><ele>258.0</ele><time>2026-04-29T16:16:00Z</time></trkpt><trkpt lat="43.44238315709291" lon="11.230889800221378"><ele>256.0</ele><time>2026-04-29T16:16:01Z</time></trkpt><trkpt lat="43.44238356208043" lon="11.230735134129128"><ele>254.0</ele><time>2026-04-29T16:16:02Z</time></trkpt><trkpt lat="43.44238417120855" lon="11.230572169099755"><ele>251.25</ele><time>2026-04-29T16:16:03Z</time></trkpt><trkpt lat="43.44239029567724" lon="11.23038482397744"><ele>248.5</ele><time>2026-04-29T16:16:04Z</time></trkpt><trkpt lat="43.442395634594185" lon="11.230193508747712"><ele>245.75</ele><time>2026-04-29T16:16:05Z</time></trkpt><trkpt lat="43.442400134889354" lon="11.229985833725255"><ele>243.0</ele><time>2026-04-29T16:16:06Z</time></trkpt><trkpt lat="43.44240775990409" lon="11.229748257588298"><ele>240.33333333333331</ele><time>2026-04-29T16:16:07Z</time></trkpt><trkpt lat="43.44242000941773" lon="11.229490461168599"><ele>237.66666666666666</ele><time>2026-04-29T16:16:08Z</time></trkpt><trkpt lat="43.44241809569096" lon="11.229229497925624"><ele>235.0</ele><time>2026-04-29T16:16:09Z</time></trkpt><trkpt lat="43.44242486363923" lon="11.22897010351818"><ele>234.0</ele><time>2026-04-29T16:16:10Z</time></trkpt><trkpt lat="43.44243411123383" lon="11.228710129181943"><ele>233.0</ele><time>2026-04-29T16:16:11Z</time></trkpt><trkpt lat="43.44244121055278" lon="11.228456144758283"><ele>232.0</ele><time>2026-04-29T16:16:12Z</time></trkpt><trkpt lat="43.442447519164226" lon="11.228194153569053"><ele>231.33333333333331</ele><time>2026-04-29T16:16:13Z</time></trkpt><trkpt lat="43.44245029005495" lon="11.227941782015712"><ele>230.66666666666669</ele><time>2026-04-29T16:16:14Z</time></trkpt><trkpt lat="43.44245717891902" lon="11.227695714333041"><ele>230.0</ele><time>2026-04-29T16:16:15Z</time></trkpt><trkpt lat="43.44247603112862" lon="11.22746195630897"><ele>229.66666666666669</ele><time>2026-04-29T16:16:16Z</time></trkpt><trkpt lat="43.44250779276601" lon="11.227240285172929"><ele>229.33333333333331</ele><time>2026-04-29T16:16:17Z</time></trkpt><trkpt lat="43.44255165888685" lon="11.227011420868902"><ele>229.0</ele><time>2026-04-29T16:16:18Z</time></trkpt><trkpt lat="43.44260190170602" lon="11.226765927427"><ele>229.0</ele><time>2026-04-29T16:16:19Z</time></trkpt><trkpt lat="43.442659816416885" lon="11.22649638691469"><ele>229.0</ele><time>2026-04-29T16:16:20Z</time></trkpt><trkpt lat="43.44272101399769" lon="11.226223691240122"><ele>229.0</ele><time>2026-04-29T16:16:21Z</time></trkpt><trkpt lat="43.44277066748647" lon="11.225983092537584"><ele>229.0</ele><time>2026-04-29T16:16:22Z</time></trkpt><trkpt lat="43.44281708108422" lon="11.225776745423271"><ele>229.0</ele><time>2026-04-29T16:16:23Z</time></trkpt><trkpt lat="43.442858360576" lon="11.225622565034735"><ele>229.0</ele><time>2026-04-29T16:16:24Z</time></trkpt><trkpt lat="43.44288561242318" lon="11.22549099920232"><ele>229.0</ele><time>2026-04-29T16:16:25Z</time></trkpt><trkpt lat="43.442925487268894" lon="11.225345493510163"><ele>228.75</ele><time>2026-04-29T16:16:26Z</time></trkpt><trkpt lat="43.44294721329503" lon="11.225171289061572"><ele>228.5</ele><time>2026-04-29T16:16:27Z</time></trkpt><trkpt lat="43.44295850468897" lon="11.225006821516141"><ele>228.25</ele><time>2026-04-29T16:16:28Z</time></trkpt><trkpt lat="43.44298801427828" lon="11.224863921116324"><ele>228.0</ele><time>2026-04-29T16:16:29Z</time></trkpt><trkpt lat="43.443021814676904" lon="11.224733555609024"><ele>228.4</ele><time>2026-04-29T16:16:30Z</time></trkpt><trkpt lat="43.443059175729495" lon="11.224612688671339"><ele>228.8</ele><time>2026-04-29T16:16:31Z</time></trkpt><trkpt lat="43.44309006271806" lon="11.224486398785167"><ele>229.2</ele><time>2026-04-29T16:16:32Z</time></trkpt><trkpt lat="43.44311442945998" lon="11.224345720105212"><ele>229.6</ele><time>2026-04-29T16:16:33Z</time></trkpt><trkpt lat="43.44311931974207" lon="11.224210623175052"><ele>230.0</ele><time>2026-04-29T16:16:34Z</time></trkpt><trkpt lat="43.44313148161979" lon="11.224080054167171"><ele>228.75</ele><time>2026-04-29T16:16:35Z</time></trkpt><trkpt lat="43.4431439187147" lon="11.223931285509881"><ele>227.5</ele><time>2026-04-29T16:16:36Z</time></trkpt><trkpt lat="43.44315860711715" lon="11.223767428944761"><ele>226.25</ele><time>2026-04-29T16:16:37Z</time></trkpt><trkpt lat="43.44318005653718" lon="11.223592900489296"><ele>225.0</ele><time>2026-04-29T16:16:38Z</time></trkpt><trkpt lat="43.4432025368841" lon="11.223417552641257"><ele>225.0</ele><time>2026-04-29T16:16:39Z</time></trkpt><trkpt lat="43.443219625511794" lon="11.22324811280427"><ele>225.0</ele><time>2026-04-29T16:16:40Z</time></trkpt><trkpt lat="43.443224060929154" lon="11.223083720761249"><ele>225.0</ele><time>2026-04-29T16:16:41Z</time></trkpt><trkpt lat="43.443237463729496" lon="11.222922528440662"><ele>225.0</ele><time>2026-04-29T16:16:42Z</time></trkpt><trkpt lat="43.44324804713546" lon="11.222755621386723"><ele>225.0</ele><time>2026-04-29T16:16:43Z</time></trkpt><trkpt lat="43.443252511485596" lon="11.222587918009605"><ele>225.0</ele><time>2026-04-29T16:16:44Z</time></trkpt><trkpt lat="43.443253012544446" lon="11.222421505579401"><ele>225.0</ele><time>2026-04-29T16:16:45Z</time></trkpt><trkpt lat="43.44325381158345" lon="11.222256395451167"><ele>225.0</ele><time>2026-04-29T16:16:46Z</time></trkpt><trkpt lat="43.44327557115836" lon="11.222094485124241"><ele>225.0</ele><time>2026-04-29T16:16:47Z</time></trkpt><trkpt lat="43.44328529432409" lon="11.221933006105187"><ele>225.0</ele><time>2026-04-29T16:16:48Z</time></trkpt><trkpt lat="43.44329492204782" lon="11.221777089911676"><ele>225.0</ele><time>2026-04-29T16:16:49Z</time></trkpt><trkpt lat="43.44330432407862" lon="11.22162842204502"><ele>225.0</ele><time>2026-04-29T16:16:50Z</time></trkpt><trkpt lat="43.44331329584622" lon="11.221486557613067"><ele>225.0</ele><time>2026-04-29T16:16:51Z</time></trkpt><trkpt lat="43.44332202340673" lon="11.221348554659505"><ele>225.6</ele><time>2026-04-29T16:16:52Z</time></trkpt><trkpt lat="43.44331453870504" lon="11.221218048125364"><ele>226.2</ele><time>2026-04-29T16:16:53Z</time></trkpt><trkpt lat="43.44332732485581" lon="11.221096422648476"><ele>226.8</ele><time>2026-04-29T16:16:54Z</time></trkpt><trkpt lat="43.44333115803936" lon="11.220966311886443"><ele>227.4</ele><time>2026-04-29T16:16:55Z</time></trkpt><trkpt lat="43.44333769496217" lon="11.220827840252229"><ele>228.0</ele><time>2026-04-29T16:16:56Z</time></trkpt><trkpt lat="43.443349905952246" lon="11.220673779129918"><ele>228.5</ele><time>2026-04-29T16:16:57Z</time></trkpt><trkpt lat="43.44335601856995" lon="11.220505013197249"><ele>229.0</ele><time>2026-04-29T16:16:58Z</time></trkpt><trkpt lat="43.443370491450914" lon="11.220328838686491"><ele>229.5</ele><time>2026-04-29T16:16:59Z</time></trkpt><trkpt lat="43.44338691117427" lon="11.220139576622833"><ele>230.0</ele><time>2026-04-29T16:17:00Z</time></trkpt><trkpt lat="43.443401192814605" lon="11.219940301915932"><ele>231.33333333333334</ele><time>2026-04-29T16:17:01Z</time></trkpt><trkpt lat="43.44341397174024" lon="11.219735710982992"><ele>232.66666666666669</ele><time>2026-04-29T16:17:02Z</time></trkpt><trkpt lat="43.443417248743515" lon="11.219517771485123"><ele>234.0</ele><time>2026-04-29T16:17:03Z</time></trkpt><trkpt lat="43.44340061478427" lon="11.219317046153728"><ele>234.0</ele><time>2026-04-29T16:17:04Z</time></trkpt><trkpt lat="43.44337219817086" lon="11.219116860968201"><ele>234.0</ele><time>2026-04-29T16:17:05Z</time></trkpt><trkpt lat="43.44332391473568" lon="11.218924842191244"><ele>234.0</ele><time>2026-04-29T16:17:06Z</time></trkpt><trkpt lat="43.4432728872987" lon="11.218714350129206"><ele>235.66666666666669</ele><time>2026-04-29T16:17:07Z</time></trkpt><trkpt lat="43.443234335000454" lon="11.218497211328513"><ele>237.33333333333334</ele><time>2026-04-29T16:17:08Z</time></trkpt><trkpt lat="43.44319234432809" lon="11.218245828290009"><ele>239.0</ele><time>2026-04-29T16:17:09Z</time></trkpt><trkpt lat="43.44314847246924" lon="11.217976296257426"><ele>240.33333333333334</ele><time>2026-04-29T16:17:10Z</time></trkpt><trkpt lat="43.44309984805082" lon="11.217709777778245"><ele>241.66666666666669</ele><time>2026-04-29T16:17:11Z</time></trkpt><trkpt lat="43.443061658634704" lon="11.217479145387996"><ele>243.0</ele><time>2026-04-29T16:17:12Z</time></trkpt><trkpt lat="43.44303179358311" lon="11.217282691901815"><ele>243.0</ele><time>2026-04-29T16:17:13Z</time></trkpt><trkpt lat="43.44300231080977" lon="11.217085178938282"><ele>243.0</ele><time>2026-04-29T16:17:14Z</time></trkpt><trkpt lat="43.4429831278423" lon="11.21688722311106"><ele>243.0</ele><time>2026-04-29T16:17:15Z</time></trkpt><trkpt lat="43.44296655949069" lon="11.216686394798208"><ele>243.0</ele><time>2026-04-29T16:17:16Z</time></trkpt><trkpt lat="43.44295838236946" lon="11.216498756531806"><ele>242.25</ele><time>2026-04-29T16:17:17Z</time></trkpt><trkpt lat="43.44296605123798" lon="11.216335206518004"><ele>241.5</ele><time>2026-04-29T16:17:18Z</time></trkpt><trkpt lat="43.44298909571171" lon="11.21617915020373"><ele>240.75</ele><time>2026-04-29T16:17:19Z</time></trkpt><trkpt lat="43.44302282776968" lon="11.216025683882133"><ele>240.0</ele><time>2026-04-29T16:17:20Z</time></trkpt><trkpt lat="43.44305888651297" lon="11.215872448274176"><ele>240.0</ele><time>2026-04-29T16:17:21Z</time></trkpt><trkpt lat="43.44308960828344" lon="11.215729636221525"><ele>240.0</ele><time>2026-04-29T16:17:22Z</time></trkpt><trkpt lat="43.443120824016454" lon="11.215578800140205"><ele>240.0</ele><time>2026-04-29T16:17:23.001Z</time></trkpt><trkpt lat="43.44314665977918" lon="11.21543170805199"><ele>240.0</ele><time>2026-04-29T16:17:24.001Z</time></trkpt><trkpt lat="43.443173660199214" lon="11.215287066491657"><ele>240.0</ele><time>2026-04-29T16:17:25.001Z</time></trkpt><trkpt lat="43.443198537075595" lon="11.215164131807674"><ele>238.75</ele><time>2026-04-29T16:17:26.001Z</time></trkpt><trkpt lat="43.44321883833715" lon="11.215068764147961"><ele>237.5</ele><time>2026-04-29T16:17:27.001Z</time></trkpt><trkpt lat="43.443245032062535" lon="11.21497814549101"><ele>236.25</ele><time>2026-04-29T16:17:29.001Z</time></trkpt><trkpt lat="43.443428656602656" lon="11.21518546992487"><ele>235.0</ele><time>2026-04-29T16:17:37.001Z</time></trkpt><trkpt lat="43.4435205641816" lon="11.215248048575564"><ele>235.0</ele><time>2026-04-29T16:17:38.001Z</time></trkpt><trkpt lat="43.44361802294209" lon="11.215311519621704"><ele>235.0</ele><time>2026-04-29T16:17:39.001Z</time></trkpt><trkpt lat="43.44372170532192" lon="11.215378660140667"><ele>235.0</ele><time>2026-04-29T16:17:40.001Z</time></trkpt><trkpt lat="43.44382915767576" lon="11.215446890356501"><ele>235.0</ele><time>2026-04-29T16:17:41.001Z</time></trkpt><trkpt lat="43.443936138867194" lon="11.215514821373702"><ele>233.25</ele><time>2026-04-29T16:17:42.001Z</time></trkpt><trkpt lat="43.444056635210906" lon="11.215592014529376"><ele>231.5</ele><time>2026-04-29T16:17:43.001Z</time></trkpt><trkpt lat="43.444178755158354" lon="11.215670759323512"><ele>229.75</ele><time>2026-04-29T16:17:44.001Z</time></trkpt><trkpt lat="43.444302555529184" lon="11.21575058768752"><ele>228.0</ele><time>2026-04-29T16:17:45.001Z</time></trkpt><trkpt lat="43.4444252305086" lon="11.2158296904168"><ele>228.0</ele><time>2026-04-29T16:17:46.001Z</time></trkpt><trkpt lat="43.444552297760374" lon="11.215909506860184"><ele>228.0</ele><time>2026-04-29T16:17:47.001Z</time></trkpt><trkpt lat="43.444677646942175" lon="11.215984471080054"><ele>228.0</ele><time>2026-04-29T16:17:48.001Z</time></trkpt><trkpt lat="43.44479887438618" lon="11.216043768992993"><ele>228.0</ele><time>2026-04-29T16:17:49.001Z</time></trkpt><trkpt lat="43.44489929863363" lon="11.216113901619558"><ele>226.83333333333334</ele><time>2026-04-29T16:17:50.001Z</time></trkpt><trkpt lat="43.44496907376829" lon="11.216190957114975"><ele>225.66666666666669</ele><time>2026-04-29T16:17:51.001Z</time></trkpt><trkpt lat="43.4450180657453" lon="11.216252909051713"><ele>224.5</ele><time>2026-04-29T16:17:52.001Z</time></trkpt><trkpt lat="43.44502583834945" lon="11.216414203536635"><ele>223.33333333333334</ele><time>2026-04-29T16:17:54.001Z</time></trkpt><trkpt lat="43.445030064741744" lon="11.21652084114257"><ele>222.16666666666669</ele><time>2026-04-29T16:17:55.001Z</time></trkpt><trkpt lat="43.44503793879481" lon="11.216646718126821"><ele>221.0</ele><time>2026-04-29T16:17:56.001Z</time></trkpt><trkpt lat="43.44505238703979" lon="11.21677363197091"><ele>221.0</ele><time>2026-04-29T16:17:57.001Z</time></trkpt><trkpt lat="43.44506463139777" lon="11.216878523709696"><ele>221.0</ele><time>2026-04-29T16:17:58.001Z</time></trkpt><trkpt lat="43.44526270085094" lon="11.216985981827841"><ele>221.0</ele><time>2026-04-29T16:18:00.001Z</time></trkpt><trkpt lat="43.44537377368479" lon="11.217032872266708"><ele>221.0</ele><time>2026-04-29T16:18:01.001Z</time></trkpt><trkpt lat="43.44549592813131" lon="11.217078117676138"><ele>222.20000000000002</ele><time>2026-04-29T16:18:02.001Z</time></trkpt><trkpt lat="43.44560484239168" lon="11.217103610620017"><ele>223.40000000000003</ele><time>2026-04-29T16:18:03.001Z</time></trkpt><trkpt lat="43.445680603883815" lon="11.217122734911829"><ele>224.6</ele><time>2026-04-29T16:18:04.001Z</time></trkpt><trkpt lat="43.44577828875792" lon="11.217162499034266"><ele>225.8</ele><time>2026-04-29T16:18:06Z</time></trkpt><trkpt lat="43.44585365482696" lon="11.217195268485803"><ele>227.0</ele><time>2026-04-29T16:18:07Z</time></trkpt><trkpt lat="43.445949250061446" lon="11.217223655228214"><ele>227.0</ele><time>2026-04-29T16:18:08Z</time></trkpt><trkpt lat="43.44600988733039" lon="11.217288075664126"><ele>227.0</ele><time>2026-04-29T16:18:09Z</time></trkpt><trkpt lat="43.446098208260494" lon="11.21735469945096"><ele>227.0</ele><time>2026-04-29T16:18:11Z</time></trkpt><trkpt lat="43.446177805400154" lon="11.217418080708429"><ele>227.0</ele><time>2026-04-29T16:18:13Z</time></trkpt><trkpt lat="43.44614648693731" lon="11.217735128523014"><ele>226.2</ele><time>2026-04-29T16:18:15Z</time></trkpt><trkpt lat="43.446182864947566" lon="11.217872299239025"><ele>225.39999999999998</ele><time>2026-04-29T16:18:17Z</time></trkpt><trkpt lat="43.446280528634965" lon="11.217877447866856"><ele>224.60000000000002</ele><time>2026-04-29T16:18:20Z</time></trkpt><trkpt lat="43.446365061580444" lon="11.217840654981186"><ele>223.8</ele><time>2026-04-29T16:18:22Z</time></trkpt><trkpt lat="43.4463877966249" lon="11.21774755320027"><ele>223.0</ele><time>2026-04-29T16:18:24Z</time></trkpt><trkpt lat="43.446376340933526" lon="11.217629115632375"><ele>222.99999999999997</ele><time>2026-04-29T16:18:26Z</time></trkpt><trkpt lat="43.446362804917634" lon="11.217476930380988"><ele>223.0</ele><time>2026-04-29T16:18:28Z</time></trkpt><trkpt lat="43.44632199072212" lon="11.217384039124159"><ele>223.0</ele><time>2026-04-29T16:18:32Z</time></trkpt><trkpt lat="43.44621885549" lon="11.217375957309448"><ele>223.0</ele><time>2026-04-29T16:18:34Z</time></trkpt><trkpt lat="43.446146524869825" lon="11.217372671932221"><ele>222.99999999999997</ele><time>2026-04-29T16:18:35Z</time></trkpt><trkpt lat="43.44607122178986" lon="11.217332047619651"><ele>223.0</ele><time>2026-04-29T16:18:36Z</time></trkpt><trkpt lat="43.44599917881312" lon="11.21726426806399"><ele>223.57142857142856</ele><time>2026-04-29T16:18:37Z</time></trkpt><trkpt lat="43.44593374631681" lon="11.21720040577348"><ele>224.14285714285714</ele><time>2026-04-29T16:18:38Z</time></trkpt><trkpt lat="43.445868368536395" lon="11.217172631434709"><ele>224.71428571428572</ele><time>2026-04-29T16:18:39Z</time></trkpt><trkpt lat="43.44579817849025" lon="11.217153601099012"><ele>225.28571428571428</ele><time>2026-04-29T16:18:40Z</time></trkpt><trkpt lat="43.44572403762564" lon="11.217134026081686"><ele>225.8571428571429</ele><time>2026-04-29T16:18:41Z</time></trkpt><trkpt lat="43.44564768897162" lon="11.217115099004841"><ele>226.42857142857144</ele><time>2026-04-29T16:18:42Z</time></trkpt><trkpt lat="43.44557513389521" lon="11.2170898149629"><ele>227.0</ele><time>2026-04-29T16:18:43Z</time></trkpt><trkpt lat="43.445498791853986" lon="11.217056362863543"><ele>225.8</ele><time>2026-04-29T16:18:44Z</time></trkpt><trkpt lat="43.44541066317094" lon="11.21701404418218"><ele>224.6</ele><time>2026-04-29T16:18:45Z</time></trkpt><trkpt lat="43.44531911409267" lon="11.216970267349241"><ele>223.40000000000003</ele><time>2026-04-29T16:18:46Z</time></trkpt><trkpt lat="43.445243268462825" lon="11.216939047756162"><ele>222.20000000000002</ele><time>2026-04-29T16:18:47Z</time></trkpt><trkpt lat="43.445156244280646" lon="11.216882685107265"><ele>221.0</ele><time>2026-04-29T16:18:49Z</time></trkpt><trkpt lat="43.44507990029577" lon="11.217032425461548"><ele>221.0</ele><time>2026-04-29T16:18:51Z</time></trkpt><trkpt lat="43.445082367449054" lon="11.217121736043968"><ele>221.00000000000003</ele><time>2026-04-29T16:18:52Z</time></trkpt><trkpt lat="43.44511021442184" lon="11.217218790665946"><ele>221.00000000000003</ele><time>2026-04-29T16:18:53Z</time></trkpt><trkpt lat="43.4451452363698" lon="11.217319215442627"><ele>221.0</ele><time>2026-04-29T16:18:54Z</time></trkpt><trkpt lat="43.445214160518645" lon="11.217444203970329"><ele>221.0</ele><time>2026-04-29T16:18:55Z</time></trkpt><trkpt lat="43.445281976585434" lon="11.217612018240924"><ele>221.20000000000002</ele><time>2026-04-29T16:18:56Z</time></trkpt><trkpt lat="43.4453607899565" lon="11.217762265575033"><ele>221.40000000000003</ele><time>2026-04-29T16:18:57Z</time></trkpt><trkpt lat="43.44542344423006" lon="11.217881707759153"><ele>221.6</ele><time>2026-04-29T16:18:58Z</time></trkpt><trkpt lat="43.445480189780554" lon="11.217974912566481"><ele>221.8</ele><time>2026-04-29T16:18:59Z</time></trkpt><trkpt lat="43.44553339946406" lon="11.21805830823067"><ele>222.0</ele><time>2026-04-29T16:19:00Z</time></trkpt><trkpt lat="43.44561042910697" lon="11.218119035914638"><ele>222.16666666666666</ele><time>2026-04-29T16:19:01Z</time></trkpt><trkpt lat="43.445701549247985" lon="11.218135779699674"><ele>222.33333333333331</ele><time>2026-04-29T16:19:02Z</time></trkpt><trkpt lat="43.44578969007354" lon="11.21812206846036"><ele>222.5</ele><time>2026-04-29T16:19:03Z</time></trkpt><trkpt lat="43.44586685498093" lon="11.218119525911769"><ele>222.66666666666666</ele><time>2026-04-29T16:19:04Z</time></trkpt><trkpt lat="43.44595742879702" lon="11.218119603971976"><ele>222.83333333333331</ele><time>2026-04-29T16:19:06Z</time></trkpt><trkpt lat="43.446023460222754" lon="11.218196273004896"><ele>223.0</ele><time>2026-04-29T16:19:08Z</time></trkpt><trkpt lat="43.44599449299012" lon="11.218325154384425"><ele>221.60000000000002</ele><time>2026-04-29T16:19:10Z</time></trkpt><trkpt lat="43.445983064131056" lon="11.21843905044419"><ele>220.20000000000002</ele><time>2026-04-29T16:19:11Z</time></trkpt><trkpt lat="43.445976994539365" lon="11.218597874256094"><ele>218.8</ele><time>2026-04-29T16:19:12Z</time></trkpt><trkpt lat="43.44599318049725" lon="11.218749235673359"><ele>217.4</ele><time>2026-04-29T16:19:13Z</time></trkpt><trkpt lat="43.44598120272766" lon="11.218889513413103"><ele>216.0</ele><time>2026-04-29T16:19:14Z</time></trkpt><trkpt lat="43.445988562120824" lon="11.219033312206621"><ele>214.5</ele><time>2026-04-29T16:19:15Z</time></trkpt><trkpt lat="43.446001884166925" lon="11.219191970082019"><ele>213.0</ele><time>2026-04-29T16:19:16Z</time></trkpt><trkpt lat="43.4460285200964" lon="11.219357869814871"><ele>211.5</ele><time>2026-04-29T16:19:17Z</time></trkpt><trkpt lat="43.44602023876193" lon="11.219520832422251"><ele>210.0</ele><time>2026-04-29T16:19:18Z</time></trkpt><trkpt lat="43.44602465212961" lon="11.219672094111564"><ele>210.0</ele><time>2026-04-29T16:19:19Z</time></trkpt><trkpt lat="43.44602873596244" lon="11.219812061479836"><ele>210.0</ele><time>2026-04-29T16:19:20Z</time></trkpt><trkpt lat="43.44603343751467" lon="11.219924238331016"><ele>210.0</ele><time>2026-04-29T16:19:21Z</time></trkpt><trkpt lat="43.44605652003539" lon="11.220009116950395"><ele>210.0</ele><time>2026-04-29T16:19:22Z</time></trkpt><trkpt lat="43.446122465993575" lon="11.220102493377999"><ele>210.0</ele><time>2026-04-29T16:19:24Z</time></trkpt><trkpt lat="43.44618599401856" lon="11.22011037964849"><ele>210.0</ele><time>2026-04-29T16:19:25Z</time></trkpt><trkpt lat="43.44628854738062" lon="11.220124077590333"><ele>206.75</ele><time>2026-04-29T16:19:26Z</time></trkpt><trkpt lat="43.446413820457494" lon="11.220140853843407"><ele>203.5</ele><time>2026-04-29T16:19:27.001Z</time></trkpt><trkpt lat="43.44655628897539" lon="11.220160260040917"><ele>200.25</ele><time>2026-04-29T16:19:28.001Z</time></trkpt><trkpt lat="43.446693400950174" lon="11.220173638584408"><ele>197.0</ele><time>2026-04-29T16:19:29.001Z</time></trkpt><trkpt lat="43.44682610830636" lon="11.220194811844594"><ele>197.0</ele><time>2026-04-29T16:19:30.001Z</time></trkpt><trkpt lat="43.44695513723628" lon="11.220212230549565"><ele>197.0</ele><time>2026-04-29T16:19:31.001Z</time></trkpt><trkpt lat="43.44709216445022" lon="11.220235070041362"><ele>197.0</ele><time>2026-04-29T16:19:32.001Z</time></trkpt><trkpt lat="43.447231318282874" lon="11.220252156460662"><ele>197.0</ele><time>2026-04-29T16:19:33.001Z</time></trkpt><trkpt lat="43.447380091524074" lon="11.220271297681808"><ele>194.75</ele><time>2026-04-29T16:19:34.001Z</time></trkpt><trkpt lat="43.447521995493254" lon="11.220290586683399"><ele>192.5</ele><time>2026-04-29T16:19:35.001Z</time></trkpt><trkpt lat="43.44766281547845" lon="11.220316342074401"><ele>190.25</ele><time>2026-04-29T16:19:36.001Z</time></trkpt><trkpt lat="43.44779621503773" lon="11.220335632913716"><ele>188.0</ele><time>2026-04-29T16:19:37.001Z</time></trkpt><trkpt lat="43.44792972205941" lon="11.220359710121981"><ele>186.5</ele><time>2026-04-29T16:19:38.001Z</time></trkpt><trkpt lat="43.448066204252186" lon="11.22037876080667"><ele>185.0</ele><time>2026-04-29T16:19:39.001Z</time></trkpt><trkpt lat="43.44819962855108" lon="11.220403575077022"><ele>183.5</ele><time>2026-04-29T16:19:40.001Z</time></trkpt><trkpt lat="43.448319680759695" lon="11.220421190496479"><ele>182.0</ele><time>2026-04-29T16:19:41.001Z</time></trkpt><trkpt lat="43.448429551809305" lon="11.220435234929116"><ele>182.0</ele><time>2026-04-29T16:19:42.001Z</time></trkpt><trkpt lat="43.448529742845814" lon="11.220449171854654"><ele>182.0</ele><time>2026-04-29T16:19:43.001Z</time></trkpt><trkpt lat="43.44861021499955" lon="11.220459277152932"><ele>182.0</ele><time>2026-04-29T16:19:44.001Z</time></trkpt><trkpt lat="43.448675516139794" lon="11.220443335064422"><ele>182.0</ele><time>2026-04-29T16:19:45.001Z</time></trkpt><trkpt lat="43.448758662649496" lon="11.22030984483271"><ele>182.0</ele><time>2026-04-29T16:19:47.001Z</time></trkpt><trkpt lat="43.448732244210454" lon="11.220188851948945"><ele>182.0</ele><time>2026-04-29T16:19:48.001Z</time></trkpt><trkpt lat="43.448710354745685" lon="11.220073789689197"><ele>182.0</ele><time>2026-04-29T16:19:49.001Z</time></trkpt><trkpt lat="43.44872059042141" lon="11.219967243350972"><ele>182.0</ele><time>2026-04-29T16:19:50.001Z</time></trkpt><trkpt lat="43.4487967088931" lon="11.219906903779965"><ele>182.0</ele><time>2026-04-29T16:19:51.001Z</time></trkpt><trkpt lat="43.44883200353239" lon="11.21981921099253"><ele>182.0</ele><time>2026-04-29T16:19:52.001Z</time></trkpt><trkpt lat="43.448838139399754" lon="11.219702594730613"><ele>182.0</ele><time>2026-04-29T16:19:53.001Z</time></trkpt><trkpt lat="43.4488423720623" lon="11.219561811232676"><ele>182.0</ele><time>2026-04-29T16:19:54.001Z</time></trkpt><trkpt lat="43.44884377192534" lon="11.219386607429893"><ele>182.0</ele><time>2026-04-29T16:19:55.001Z</time></trkpt><trkpt lat="43.44885564469237" lon="11.21922646617925"><ele>182.0</ele><time>2026-04-29T16:19:56.001Z</time></trkpt><trkpt lat="43.44889582029001" lon="11.219071938888463"><ele>182.0</ele><time>2026-04-29T16:19:57.001Z</time></trkpt><trkpt lat="43.44897257557487" lon="11.21892913462687"><ele>182.0</ele><time>2026-04-29T16:19:58.001Z</time></trkpt><trkpt lat="43.44903197766233" lon="11.218747081166857"><ele>182.0</ele><time>2026-04-29T16:19:59.001Z</time></trkpt><trkpt lat="43.449107650518435" lon="11.218566593063017"><ele>182.0</ele><time>2026-04-29T16:20:00.001Z</time></trkpt><trkpt lat="43.44917784859419" lon="11.218367152053048"><ele>182.0</ele><time>2026-04-29T16:20:01.001Z</time></trkpt><trkpt lat="43.449253821738715" lon="11.218155051724027"><ele>182.0</ele><time>2026-04-29T16:20:02.001Z</time></trkpt><trkpt lat="43.44933746010801" lon="11.217942693932468"><ele>182.0</ele><time>2026-04-29T16:20:03.001Z</time></trkpt><trkpt lat="43.449407783553426" lon="11.217721888533456"><ele>180.66666666666666</ele><time>2026-04-29T16:20:04.001Z</time></trkpt><trkpt lat="43.449475615255615" lon="11.2175092587238"><ele>179.33333333333334</ele><time>2026-04-29T16:20:05.001Z</time></trkpt><trkpt lat="43.449546337738674" lon="11.217308806248209"><ele>178.0</ele><time>2026-04-29T16:20:06.001Z</time></trkpt><trkpt lat="43.44961145688413" lon="11.21715138406156"><ele>180.4</ele><time>2026-04-29T16:20:07.001Z</time></trkpt><trkpt lat="43.449657183222264" lon="11.217058072269623"><ele>182.8</ele><time>2026-04-29T16:20:08.001Z</time></trkpt><trkpt lat="43.449751049684885" lon="11.216966700014975"><ele>185.2</ele><time>2026-04-29T16:20:10.001Z</time></trkpt><trkpt lat="43.44981592453405" lon="11.21689487997455"><ele>187.6</ele><time>2026-04-29T16:20:10.999Z</time></trkpt><trkpt lat="43.44988633233159" lon="11.216777763172141"><ele>190.0</ele><time>2026-04-29T16:20:11.999Z</time></trkpt><trkpt lat="43.44995671306256" lon="11.216631029943862"><ele>190.5</ele><time>2026-04-29T16:20:12.999Z</time></trkpt><trkpt lat="43.45001309203156" lon="11.21646903552402"><ele>191.0</ele><time>2026-04-29T16:20:13.999Z</time></trkpt><trkpt lat="43.450048039430825" lon="11.21630495594944"><ele>191.5</ele><time>2026-04-29T16:20:14.999Z</time></trkpt><trkpt lat="43.45005758067682" lon="11.216151273366641"><ele>192.0</ele><time>2026-04-29T16:20:15.999Z</time></trkpt><trkpt lat="43.45004549475097" lon="11.216005334607873"><ele>192.0</ele><time>2026-04-29T16:20:16.999Z</time></trkpt><trkpt lat="43.45002814635847" lon="11.215849374452537"><ele>192.0</ele><time>2026-04-29T16:20:17.999Z</time></trkpt><trkpt lat="43.4500241183483" lon="11.215695718538091"><ele>192.0</ele><time>2026-04-29T16:20:18.999Z</time></trkpt><trkpt lat="43.45003054279237" lon="11.215539319113452"><ele>192.0</ele><time>2026-04-29T16:20:19.999Z</time></trkpt><trkpt lat="43.45005193137474" lon="11.215346651415098"><ele>191.25</ele><time>2026-04-29T16:20:21Z</time></trkpt><trkpt lat="43.4500802070007" lon="11.215132013461012"><ele>190.5</ele><time>2026-04-29T16:20:22Z</time></trkpt><trkpt lat="43.45010729001786" lon="11.214946716177936"><ele>189.75</ele><time>2026-04-29T16:20:23Z</time></trkpt><trkpt lat="43.45013779620616" lon="11.214787620729776"><ele>189.0</ele><time>2026-04-29T16:20:24Z</time></trkpt><trkpt lat="43.450175708686864" lon="11.214627839996586"><ele>187.25</ele><time>2026-04-29T16:20:25Z</time></trkpt><trkpt lat="43.45021771524095" lon="11.214451400691498"><ele>185.5</ele><time>2026-04-29T16:20:26Z</time></trkpt><trkpt lat="43.45028309913621" lon="11.214266486881252"><ele>183.75</ele><time>2026-04-29T16:20:27Z</time></trkpt><trkpt lat="43.45034462131261" lon="11.214055784424714"><ele>182.0</ele><time>2026-04-29T16:20:28Z</time></trkpt><trkpt lat="43.45039603357305" lon="11.213825949133946"><ele>180.66666666666666</ele><time>2026-04-29T16:20:29Z</time></trkpt><trkpt lat="43.45045285137622" lon="11.213593669845272"><ele>179.33333333333334</ele><time>2026-04-29T16:20:30Z</time></trkpt><trkpt lat="43.45051365875255" lon="11.213375815633203"><ele>178.0</ele><time>2026-04-29T16:20:31Z</time></trkpt><trkpt lat="43.450563514092224" lon="11.213184208173994"><ele>180.8</ele><time>2026-04-29T16:20:32Z</time></trkpt><trkpt lat="43.45060793510399" lon="11.213030326937108"><ele>183.60000000000002</ele><time>2026-04-29T16:20:33Z</time></trkpt><trkpt lat="43.45064307279896" lon="11.212902899164838"><ele>186.39999999999998</ele><time>2026-04-29T16:20:34Z</time></trkpt><trkpt lat="43.45067678774774" lon="11.212794327942234"><ele>189.2</ele><time>2026-04-29T16:20:35Z</time></trkpt><trkpt lat="43.45072273603109" lon="11.212705600900675"><ele>192.0</ele><time>2026-04-29T16:20:36Z</time></trkpt><trkpt lat="43.45078071414046" lon="11.21263412128777"><ele>192.0</ele><time>2026-04-29T16:20:37Z</time></trkpt><trkpt lat="43.450861821879315" lon="11.212585701530504"><ele>192.0</ele><time>2026-04-29T16:20:38Z</time></trkpt><trkpt lat="43.450907813846065" lon="11.212505657573386"><ele>192.0</ele><time>2026-04-29T16:20:39Z</time></trkpt><trkpt lat="43.450954442272916" lon="11.212329122402345"><ele>192.0</ele><time>2026-04-29T16:20:41Z</time></trkpt><trkpt lat="43.450988811806205" lon="11.212193265082915"><ele>192.0</ele><time>2026-04-29T16:20:42Z</time></trkpt><trkpt lat="43.4510402027727" lon="11.21205395924415"><ele>190.5</ele><time>2026-04-29T16:20:43Z</time></trkpt><trkpt lat="43.4510981051318" lon="11.21190778164643"><ele>189.0</ele><time>2026-04-29T16:20:44Z</time></trkpt><trkpt lat="43.45114114665246" lon="11.211766120153662"><ele>187.5</ele><time>2026-04-29T16:20:45Z</time></trkpt><trkpt lat="43.45115977394404" lon="11.21160155691794"><ele>186.0</ele><time>2026-04-29T16:20:46Z</time></trkpt><trkpt lat="43.451162051797695" lon="11.211421338473533"><ele>185.33333333333334</ele><time>2026-04-29T16:20:47Z</time></trkpt><trkpt lat="43.45116413746655" lon="11.21121763655524"><ele>184.66666666666669</ele><time>2026-04-29T16:20:48Z</time></trkpt><trkpt lat="43.451171795016016" lon="11.210994420410486"><ele>184.0</ele><time>2026-04-29T16:20:49Z</time></trkpt><trkpt lat="43.451182308125624" lon="11.210764520669548"><ele>183.5</ele><time>2026-04-29T16:20:50Z</time></trkpt><trkpt lat="43.45119032312036" lon="11.210555752650475"><ele>183.0</ele><time>2026-04-29T16:20:51Z</time></trkpt><trkpt lat="43.451190495484646" lon="11.210396968345076"><ele>182.5</ele><time>2026-04-29T16:20:52Z</time></trkpt><trkpt lat="43.45120122578853" lon="11.210215656621862"><ele>182.0</ele><time>2026-04-29T16:20:53Z</time></trkpt><trkpt lat="43.45120373731258" lon="11.210054837030459"><ele>182.0</ele><time>2026-04-29T16:20:54Z</time></trkpt><trkpt lat="43.451213767427696" lon="11.209880262118897"><ele>182.0</ele><time>2026-04-29T16:20:55Z</time></trkpt><trkpt lat="43.45122671117644" lon="11.20968071658045"><ele>182.0</ele><time>2026-04-29T16:20:56Z</time></trkpt><trkpt lat="43.45124418441537" lon="11.209494704213451"><ele>182.0</ele><time>2026-04-29T16:20:57Z</time></trkpt><trkpt lat="43.45128328530122" lon="11.20935127581014"><ele>185.2</ele><time>2026-04-29T16:20:58Z</time></trkpt><trkpt lat="43.4513236565433" lon="11.209211016481794"><ele>188.39999999999998</ele><time>2026-04-29T16:20:59Z</time></trkpt><trkpt lat="43.45135395798403" lon="11.209064462139622"><ele>191.60000000000002</ele><time>2026-04-29T16:21:00Z</time></trkpt><trkpt lat="43.45137316100349" lon="11.20894265848604"><ele>194.8</ele><time>2026-04-29T16:21:01Z</time></trkpt><trkpt lat="43.45137812334659" lon="11.208848519846326"><ele>198.0</ele><time>2026-04-29T16:21:02Z</time></trkpt><trkpt lat="43.45137642267669" lon="11.208692538345483"><ele>198.0</ele><time>2026-04-29T16:21:04Z</time></trkpt><trkpt lat="43.451370322031735" lon="11.208570190326917"><ele>198.0</ele><time>2026-04-29T16:21:06Z</time></trkpt><trkpt lat="43.45136935913261" lon="11.208464994074758"><ele>198.0</ele><time>2026-04-29T16:21:09Z</time></trkpt><trkpt lat="43.45136254635049" lon="11.20837202779963"><ele>198.0</ele><time>2026-04-29T16:21:21Z</time></trkpt><trkpt lat="43.4513667491527" lon="11.20850763516779"><ele>198.0</ele><time>2026-04-29T16:27:43.001Z</time></trkpt><trkpt lat="43.451377256395844" lon="11.208598178504488"><ele>198.0</ele><time>2026-04-29T16:27:45.001Z</time></trkpt><trkpt lat="43.45138149122248" lon="11.208711487533254"><ele>198.0</ele><time>2026-04-29T16:27:48.001Z</time></trkpt><trkpt lat="43.45137926349852" lon="11.20880501876806"><ele>198.0</ele><time>2026-04-29T16:27:51.001Z</time></trkpt><trkpt lat="43.451358305916514" lon="11.208906229512573"><ele>198.0</ele><time>2026-04-29T16:27:54.001Z</time></trkpt><trkpt lat="43.45134932310437" lon="11.209000032825537"><ele>198.0</ele><time>2026-04-29T16:27:56.001Z</time></trkpt><trkpt lat="43.451335148568" lon="11.209094281118547"><ele>198.0</ele><time>2026-04-29T16:27:58.001Z</time></trkpt><trkpt lat="43.451298451353324" lon="11.209243147794217"><ele>198.0</ele><time>2026-04-29T16:28:00.001Z</time></trkpt><trkpt lat="43.45126742112051" lon="11.209366064451082"><ele>195.5</ele><time>2026-04-29T16:28:02.001Z</time></trkpt><trkpt lat="43.45122636597633" lon="11.209510010473924"><ele>193.0</ele><time>2026-04-29T16:28:04.001Z</time></trkpt><trkpt lat="43.45119452831458" lon="11.209644858902102"><ele>190.5</ele><time>2026-04-29T16:28:06.001Z</time></trkpt><trkpt lat="43.45120460880283" lon="11.209744911384476"><ele>188.0</ele><time>2026-04-29T16:28:09.001Z</time></trkpt><trkpt lat="43.451194936822596" lon="11.209847597940534"><ele>185.5</ele><time>2026-04-29T16:28:13.001Z</time></trkpt><trkpt lat="43.45120894487621" lon="11.209951334013464"><ele>183.0</ele><time>2026-04-29T16:28:15.001Z</time></trkpt><trkpt lat="43.451230300321434" lon="11.21003472678735"><ele>183.0</ele><time>2026-04-29T16:28:17.001Z</time></trkpt><trkpt lat="43.4512196171909" lon="11.210126131834818"><ele>183.0</ele><time>2026-04-29T16:28:19.002Z</time></trkpt><trkpt lat="43.45120374780791" lon="11.2099652142727"><ele>183.0</ele><time>2026-04-29T16:29:34.001Z</time></trkpt><trkpt lat="43.45122070860052" lon="11.209861024840095"><ele>183.0</ele><time>2026-04-29T16:29:36.001Z</time></trkpt><trkpt lat="43.451210273559774" lon="11.209769439259565"><ele>183.0</ele><time>2026-04-29T16:29:37.001Z</time></trkpt><trkpt lat="43.451201817919525" lon="11.209664671834357"><ele>183.0</ele><time>2026-04-29T16:29:38.001Z</time></trkpt><trkpt lat="43.451216678254795" lon="11.20956196600911"><ele>183.0</ele><time>2026-04-29T16:29:39.001Z</time></trkpt><trkpt lat="43.45124374927533" lon="11.209463479387345"><ele>183.0</ele><time>2026-04-29T16:29:40.001Z</time></trkpt><trkpt lat="43.45127490843615" lon="11.209369265682332"><ele>183.0</ele><time>2026-04-29T16:29:41.001Z</time></trkpt><trkpt lat="43.45130146232053" lon="11.20927047157614"><ele>183.0</ele><time>2026-04-29T16:29:42.001Z</time></trkpt><trkpt lat="43.451321866685" lon="11.20918406639033"><ele>183.0</ele><time>2026-04-29T16:29:43.001Z</time></trkpt><trkpt lat="43.45134869783464" lon="11.209041408786534"><ele>183.0</ele><time>2026-04-29T16:29:45.001Z</time></trkpt><trkpt lat="43.451362789976166" lon="11.208926770362892"><ele>185.5</ele><time>2026-04-29T16:29:47.001Z</time></trkpt><trkpt lat="43.45136728467263" lon="11.208833740559866"><ele>188.0</ele><time>2026-04-29T16:29:49.001Z</time></trkpt><trkpt lat="43.451365507730195" lon="11.208731040247498"><ele>190.5</ele><time>2026-04-29T16:29:51.001Z</time></trkpt><trkpt lat="43.45136614067573" lon="11.208595803541993"><ele>193.0</ele><time>2026-04-29T16:29:53.001Z</time></trkpt><trkpt lat="43.45135576208833" lon="11.20850682007158"><ele>195.5</ele><time>2026-04-29T16:29:55.001Z</time></trkpt><trkpt lat="43.45139413015161" lon="11.208391283534667"><ele>198.0</ele><time>2026-04-29T16:30:01.001Z</time></trkpt><trkpt lat="43.451384497365574" lon="11.20828995656461"><ele>198.0</ele><time>2026-04-29T16:30:05.001Z</time></trkpt><trkpt lat="43.451366417129535" lon="11.208204558242583"><ele>198.0</ele><time>2026-04-29T16:37:58.001Z</time></trkpt><trkpt lat="43.45138279250046" lon="11.208077666040552"><ele>198.0</ele><time>2026-04-29T16:38:00.001Z</time></trkpt><trkpt lat="43.45138776074793" lon="11.207962746247782"><ele>198.0</ele><time>2026-04-29T16:38:01.001Z</time></trkpt><trkpt lat="43.45137959603562" lon="11.207822687757556"><ele>198.0</ele><time>2026-04-29T16:38:02.001Z</time></trkpt><trkpt lat="43.45134902768573" lon="11.207677569567045"><ele>194.5</ele><time>2026-04-29T16:38:03.001Z</time></trkpt><trkpt lat="43.45129864852266" lon="11.207531628467043"><ele>191.0</ele><time>2026-04-29T16:38:04.001Z</time></trkpt><trkpt lat="43.45124185748089" lon="11.20738465072848"><ele>187.5</ele><time>2026-04-29T16:38:05.001Z</time></trkpt><trkpt lat="43.45118599447506" lon="11.207233083194081"><ele>184.0</ele><time>2026-04-29T16:38:06.001Z</time></trkpt><trkpt lat="43.451131080932996" lon="11.20707388804676"><ele>182.0</ele><time>2026-04-29T16:38:07.001Z</time></trkpt><trkpt lat="43.45107751966818" lon="11.206911279251253"><ele>180.0</ele><time>2026-04-29T16:38:08.001Z</time></trkpt><trkpt lat="43.45102087895102" lon="11.206748608508276"><ele>178.0</ele><time>2026-04-29T16:38:09.001Z</time></trkpt><trkpt lat="43.45097033929917" lon="11.206579063565025"><ele>176.0</ele><time>2026-04-29T16:38:10.001Z</time></trkpt><trkpt lat="43.45093262336155" lon="11.20639894594395"><ele>174.75</ele><time>2026-04-29T16:38:11.001Z</time></trkpt><trkpt lat="43.450900371831274" lon="11.2062108857195"><ele>173.5</ele><time>2026-04-29T16:38:12.001Z</time></trkpt><trkpt lat="43.45086179403438" lon="11.206023903113874"><ele>172.25</ele><time>2026-04-29T16:38:13.001Z</time></trkpt><trkpt lat="43.45079954862322" lon="11.20584870360884"><ele>171.0</ele><time>2026-04-29T16:38:14.001Z</time></trkpt><trkpt lat="43.45071727701082" lon="11.205686301889154"><ele>170.25</ele><time>2026-04-29T16:38:15.001Z</time></trkpt><trkpt lat="43.45065177757363" lon="11.205531106165651"><ele>169.5</ele><time>2026-04-29T16:38:16.001Z</time></trkpt><trkpt lat="43.450574636272044" lon="11.205395055548516"><ele>168.75</ele><time>2026-04-29T16:38:17.001Z</time></trkpt><trkpt lat="43.45055257676759" lon="11.205243433586082"><ele>168.0</ele><time>2026-04-29T16:38:18.001Z</time></trkpt><trkpt lat="43.45057346183682" lon="11.205093938418136"><ele>168.0</ele><time>2026-04-29T16:38:19.001Z</time></trkpt><trkpt lat="43.4506198919804" lon="11.204931895643886"><ele>168.0</ele><time>2026-04-29T16:38:20.001Z</time></trkpt><trkpt lat="43.450666555757685" lon="11.204773364514278"><ele>168.0</ele><time>2026-04-29T16:38:21.001Z</time></trkpt><trkpt lat="43.45071365247365" lon="11.204629114969185"><ele>168.0</ele><time>2026-04-29T16:38:22.001Z</time></trkpt><trkpt lat="43.45075829277044" lon="11.204490386961385"><ele>167.2</ele><time>2026-04-29T16:38:23.001Z</time></trkpt><trkpt lat="43.450802683264634" lon="11.20435582224306"><ele>166.4</ele><time>2026-04-29T16:38:24.001Z</time></trkpt><trkpt lat="43.45084506352539" lon="11.204224529592436"><ele>165.6</ele><time>2026-04-29T16:38:25.001Z</time></trkpt><trkpt lat="43.450892668106924" lon="11.204094110686068"><ele>164.79999999999998</ele><time>2026-04-29T16:38:26.001Z</time></trkpt><trkpt lat="43.45093883863014" lon="11.203965519828742"><ele>164.0</ele><time>2026-04-29T16:38:27.001Z</time></trkpt><trkpt lat="43.45098055686304" lon="11.203835034240852"><ele>163.2</ele><time>2026-04-29T16:38:28.001Z</time></trkpt><trkpt lat="43.45102419799271" lon="11.203710016998745"><ele>162.39999999999998</ele><time>2026-04-29T16:38:29.001Z</time></trkpt><trkpt lat="43.45103383893502" lon="11.203573360685555"><ele>161.6</ele><time>2026-04-29T16:38:30.001Z</time></trkpt><trkpt lat="43.4510288206152" lon="11.203442579781738"><ele>160.8</ele><time>2026-04-29T16:38:31.001Z</time></trkpt><trkpt lat="43.45101809166823" lon="11.203314663153497"><ele>160.0</ele><time>2026-04-29T16:38:32.001Z</time></trkpt><trkpt lat="43.45100532139567" lon="11.203200077937304"><ele>159.4</ele><time>2026-04-29T16:38:33.001Z</time></trkpt><trkpt lat="43.45100150783742" lon="11.20308711029152"><ele>158.8</ele><time>2026-04-29T16:38:34.001Z</time></trkpt><trkpt lat="43.45100228198397" lon="11.202968397070459"><ele>158.2</ele><time>2026-04-29T16:38:35.001Z</time></trkpt><trkpt lat="43.451037789077304" lon="11.20283805519431"><ele>157.6</ele><time>2026-04-29T16:38:36.001Z</time></trkpt><trkpt lat="43.45107532425472" lon="11.202703230432164"><ele>157.0</ele><time>2026-04-29T16:38:37.001Z</time></trkpt><trkpt lat="43.45112528436919" lon="11.202577742174384"><ele>157.0</ele><time>2026-04-29T16:38:38.001Z</time></trkpt><trkpt lat="43.45114526788234" lon="11.202433885094544"><ele>157.0</ele><time>2026-04-29T16:38:39.001Z</time></trkpt><trkpt lat="43.451139715974804" lon="11.202288425937938"><ele>157.0</ele><time>2026-04-29T16:38:40.001Z</time></trkpt><trkpt lat="43.45109291458745" lon="11.202152474758265"><ele>157.0</ele><time>2026-04-29T16:38:41.001Z</time></trkpt><trkpt lat="43.45105475684992" lon="11.202015312937474"><ele>157.0</ele><time>2026-04-29T16:38:42.001Z</time></trkpt><trkpt lat="43.45102048524096" lon="11.201873384324525"><ele>157.5</ele><time>2026-04-29T16:38:43.001Z</time></trkpt><trkpt lat="43.45095365920984" lon="11.20175481578892"><ele>158.0</ele><time>2026-04-29T16:38:44.001Z</time></trkpt><trkpt lat="43.45090720883202" lon="11.201602727803841"><ele>158.5</ele><time>2026-04-29T16:38:45.001Z</time></trkpt><trkpt lat="43.45086688668968" lon="11.201432231072271"><ele>159.0</ele><time>2026-04-29T16:38:46.001Z</time></trkpt><trkpt lat="43.450842453876355" lon="11.201243086314955"><ele>160.0</ele><time>2026-04-29T16:38:47.001Z</time></trkpt><trkpt lat="43.45082966717295" lon="11.201050133789849"><ele>161.0</ele><time>2026-04-29T16:38:48.001Z</time></trkpt><trkpt lat="43.45080386329993" lon="11.200876829953106"><ele>162.0</ele><time>2026-04-29T16:38:49.001Z</time></trkpt><trkpt lat="43.450752959253165" lon="11.200727313941346"><ele>163.0</ele><time>2026-04-29T16:38:50.001Z</time></trkpt><trkpt lat="43.45067674071577" lon="11.200584220827297"><ele>163.25</ele><time>2026-04-29T16:38:51.001Z</time></trkpt><trkpt lat="43.45058040193883" lon="11.200460403415557"><ele>163.5</ele><time>2026-04-29T16:38:52.001Z</time></trkpt><trkpt lat="43.4504867280241" lon="11.200335586098534"><ele>163.75</ele><time>2026-04-29T16:38:53.001Z</time></trkpt><trkpt lat="43.45039933692104" lon="11.200230931335897"><ele>164.0</ele><time>2026-04-29T16:38:54.001Z</time></trkpt><trkpt lat="43.450306142075995" lon="11.20011750010785"><ele>161.66666666666666</ele><time>2026-04-29T16:38:55.001Z</time></trkpt><trkpt lat="43.45019833766676" lon="11.199965564668068"><ele>159.33333333333334</ele><time>2026-04-29T16:38:56.001Z</time></trkpt><trkpt lat="43.450087194377915" lon="11.199782765302782"><ele>157.0</ele><time>2026-04-29T16:38:57.001Z</time></trkpt><trkpt lat="43.4499859388162" lon="11.199611071389324"><ele>156.75</ele><time>2026-04-29T16:38:58.001Z</time></trkpt><trkpt lat="43.44989085182698" lon="11.199448854254127"><ele>156.5</ele><time>2026-04-29T16:38:59.001Z</time></trkpt><trkpt lat="43.44981136071347" lon="11.199276358735103"><ele>156.25</ele><time>2026-04-29T16:39:00.001Z</time></trkpt><trkpt lat="43.44976918743591" lon="11.199101993777223"><ele>156.0</ele><time>2026-04-29T16:39:01.001Z</time></trkpt><trkpt lat="43.44973535675393" lon="11.198932592766523"><ele>155.75</ele><time>2026-04-29T16:39:02.001Z</time></trkpt><trkpt lat="43.449750694020466" lon="11.198760894168046"><ele>155.5</ele><time>2026-04-29T16:39:03.001Z</time></trkpt><trkpt lat="43.44977466166932" lon="11.198576531706962"><ele>155.25</ele><time>2026-04-29T16:39:04.001Z</time></trkpt><trkpt lat="43.44979868705409" lon="11.19838424926097"><ele>155.0</ele><time>2026-04-29T16:39:05Z</time></trkpt><trkpt lat="43.44981685331146" lon="11.198174496090086"><ele>154.75</ele><time>2026-04-29T16:39:06Z</time></trkpt><trkpt lat="43.44984400270889" lon="11.197969975234553"><ele>154.5</ele><time>2026-04-29T16:39:07Z</time></trkpt><trkpt lat="43.449898966305845" lon="11.197780412457888"><ele>154.25</ele><time>2026-04-29T16:39:08Z</time></trkpt><trkpt lat="43.44997405187077" lon="11.197613027567279"><ele>154.0</ele><time>2026-04-29T16:39:09Z</time></trkpt><trkpt lat="43.45004349484383" lon="11.197455957689831"><ele>153.6</ele><time>2026-04-29T16:39:10Z</time></trkpt><trkpt lat="43.450101227568794" lon="11.197319665421979"><ele>153.2</ele><time>2026-04-29T16:39:11Z</time></trkpt><trkpt lat="43.45012971935927" lon="11.1971850835893"><ele>152.79999999999998</ele><time>2026-04-29T16:39:12Z</time></trkpt><trkpt lat="43.45013097804536" lon="11.197031908382911"><ele>152.4</ele><time>2026-04-29T16:39:13Z</time></trkpt><trkpt lat="43.450120522818644" lon="11.196877202162867"><ele>152.0</ele><time>2026-04-29T16:39:14Z</time></trkpt><trkpt lat="43.45011315675879" lon="11.196722603977552"><ele>152.0</ele><time>2026-04-29T16:39:15Z</time></trkpt><trkpt lat="43.45013089560459" lon="11.196561114088615"><ele>152.0</ele><time>2026-04-29T16:39:16Z</time></trkpt><trkpt lat="43.45017166639455" lon="11.196399458222597"><ele>152.0</ele><time>2026-04-29T16:39:17Z</time></trkpt><trkpt lat="43.450236790303514" lon="11.1962477792257"><ele>152.0</ele><time>2026-04-29T16:39:18Z</time></trkpt><trkpt lat="43.45031813298951" lon="11.196117050920309"><ele>151.75</ele><time>2026-04-29T16:39:19Z</time></trkpt><trkpt lat="43.45039981345581" lon="11.19598522183287"><ele>151.5</ele><time>2026-04-29T16:39:20Z</time></trkpt><trkpt lat="43.45046503247047" lon="11.195834354762074"><ele>151.25</ele><time>2026-04-29T16:39:21Z</time></trkpt><trkpt lat="43.4505017980549" lon="11.195678051843586"><ele>151.0</ele><time>2026-04-29T16:39:22Z</time></trkpt><trkpt lat="43.45051614666422" lon="11.195510746368445"><ele>151.0</ele><time>2026-04-29T16:39:23Z</time></trkpt><trkpt lat="43.45050656952643" lon="11.195336511041392"><ele>151.0</ele><time>2026-04-29T16:39:24Z</time></trkpt><trkpt lat="43.45049183143103" lon="11.195152593491922"><ele>151.0</ele><time>2026-04-29T16:39:25Z</time></trkpt><trkpt lat="43.45048955315652" lon="11.194959666220981"><ele>151.0</ele><time>2026-04-29T16:39:26Z</time></trkpt><trkpt lat="43.450484366167" lon="11.19477286254316"><ele>150.25</ele><time>2026-04-29T16:39:27Z</time></trkpt><trkpt lat="43.45047495737467" lon="11.194590418350282"><ele>149.5</ele><time>2026-04-29T16:39:28Z</time></trkpt><trkpt lat="43.45046503170871" lon="11.194406596314442"><ele>148.75</ele><time>2026-04-29T16:39:29Z</time></trkpt><trkpt lat="43.450451651028146" lon="11.194219123534516"><ele>148.0</ele><time>2026-04-29T16:39:30Z</time></trkpt><trkpt lat="43.45043990062936" lon="11.194030113642091"><ele>148.0</ele><time>2026-04-29T16:39:31Z</time></trkpt><trkpt lat="43.45043755057234" lon="11.193838693322572"><ele>148.0</ele><time>2026-04-29T16:39:32Z</time></trkpt><trkpt lat="43.45044348676619" lon="11.193645000174916"><ele>148.0</ele><time>2026-04-29T16:39:33Z</time></trkpt><trkpt lat="43.450453767444984" lon="11.193446351268438"><ele>148.0</ele><time>2026-04-29T16:39:34Z</time></trkpt><trkpt lat="43.450466160045146" lon="11.193246233293008"><ele>148.0</ele><time>2026-04-29T16:39:35Z</time></trkpt><trkpt lat="43.45048461735073" lon="11.193042859118778"><ele>148.0</ele><time>2026-04-29T16:39:36Z</time></trkpt><trkpt lat="43.45050392045216" lon="11.192836388955364"><ele>148.0</ele><time>2026-04-29T16:39:37Z</time></trkpt><trkpt lat="43.45051195738025" lon="11.192624708821734"><ele>148.0</ele><time>2026-04-29T16:39:38Z</time></trkpt><trkpt lat="43.45050060297837" lon="11.192409876650752"><ele>148.0</ele><time>2026-04-29T16:39:39Z</time></trkpt><trkpt lat="43.450467244865145" lon="11.19219800637526"><ele>148.0</ele><time>2026-04-29T16:39:40Z</time></trkpt><trkpt lat="43.45041766428401" lon="11.191988145545421"><ele>145.66666666666669</ele><time>2026-04-29T16:39:41Z</time></trkpt><trkpt lat="43.450352095052466" lon="11.191782869825369"><ele>143.33333333333334</ele><time>2026-04-29T16:39:42Z</time></trkpt><trkpt lat="43.45028273523448" lon="11.191575145351019"><ele>141.0</ele><time>2026-04-29T16:39:43Z</time></trkpt><trkpt lat="43.45021722795874" lon="11.19136752601929"><ele>141.0</ele><time>2026-04-29T16:39:44Z</time></trkpt><trkpt lat="43.45015168101269" lon="11.191157543031526"><ele>141.0</ele><time>2026-04-29T16:39:45Z</time></trkpt><trkpt lat="43.450092492547675" lon="11.190948157507837"><ele>141.0</ele><time>2026-04-29T16:39:46Z</time></trkpt><trkpt lat="43.450051026943235" lon="11.190753995191269"><ele>141.2</ele><time>2026-04-29T16:39:47Z</time></trkpt><trkpt lat="43.45003085912464" lon="11.190568683239832"><ele>141.39999999999998</ele><time>2026-04-29T16:39:48Z</time></trkpt><trkpt lat="43.45003588102157" lon="11.190399059240393"><ele>141.6</ele><time>2026-04-29T16:39:49Z</time></trkpt><trkpt lat="43.45005728168633" lon="11.190278246663224"><ele>141.79999999999998</ele><time>2026-04-29T16:39:50Z</time></trkpt><trkpt lat="43.45010240114009" lon="11.19018938929385"><ele>142.0</ele><time>2026-04-29T16:39:52Z</time></trkpt><trkpt lat="43.450122508271576" lon="11.19009237790314"><ele>142.0</ele><time>2026-04-29T16:40:22Z</time></trkpt><trkpt lat="43.4501477075318" lon="11.189990663094736"><ele>142.0</ele><time>2026-04-29T16:40:23Z</time></trkpt><trkpt lat="43.450196682555315" lon="11.189864476556366"><ele>142.0</ele><time>2026-04-29T16:40:24Z</time></trkpt><trkpt lat="43.45022652882016" lon="11.189725981840713"><ele>142.0</ele><time>2026-04-29T16:40:25Z</time></trkpt><trkpt lat="43.450231675854894" lon="11.189572070507557"><ele>142.0</ele><time>2026-04-29T16:40:26Z</time></trkpt><trkpt lat="43.45022755399488" lon="11.189384388093805"><ele>142.33333333333334</ele><time>2026-04-29T16:40:27Z</time></trkpt><trkpt lat="43.45025274597252" lon="11.189184749280008"><ele>142.66666666666666</ele><time>2026-04-29T16:40:28Z</time></trkpt><trkpt lat="43.450332389242945" lon="11.18899836931007"><ele>143.0</ele><time>2026-04-29T16:40:29Z</time></trkpt><trkpt lat="43.45041050539964" lon="11.188792541017426"><ele>142.33333333333331</ele><time>2026-04-29T16:40:30Z</time></trkpt><trkpt lat="43.45045389481856" lon="11.188568253901947"><ele>141.66666666666666</ele><time>2026-04-29T16:40:31Z</time></trkpt><trkpt lat="43.450520325930434" lon="11.188319407642478"><ele>141.0</ele><time>2026-04-29T16:40:32Z</time></trkpt><trkpt lat="43.45060173418467" lon="11.18808303348898"><ele>145.33333333333334</ele><time>2026-04-29T16:40:33Z</time></trkpt><trkpt lat="43.450696975793825" lon="11.1878829215396"><ele>149.66666666666669</ele><time>2026-04-29T16:40:34Z</time></trkpt><trkpt lat="43.450783782333076" lon="11.187685963487237"><ele>154.0</ele><time>2026-04-29T16:40:35.001Z</time></trkpt><trkpt lat="43.45084016619547" lon="11.187470164733886"><ele>153.0</ele><time>2026-04-29T16:40:36.001Z</time></trkpt><trkpt lat="43.450900241300126" lon="11.187246561988282"><ele>152.0</ele><time>2026-04-29T16:40:37.001Z</time></trkpt><trkpt lat="43.450936402799954" lon="11.187020251359947"><ele>151.0</ele><time>2026-04-29T16:40:38.001Z</time></trkpt><trkpt lat="43.45093535917263" lon="11.186799742022501"><ele>151.0</ele><time>2026-04-29T16:40:39.001Z</time></trkpt><trkpt lat="43.45093484397906" lon="11.186581350018617"><ele>151.0</ele><time>2026-04-29T16:40:40.001Z</time></trkpt><trkpt lat="43.450901534853315" lon="11.186355976514259"><ele>151.0</ele><time>2026-04-29T16:40:41.001Z</time></trkpt><trkpt lat="43.45085222746665" lon="11.186116656366334"><ele>150.66666666666669</ele><time>2026-04-29T16:40:42.001Z</time></trkpt><trkpt lat="43.45080556698252" lon="11.185859448503901"><ele>150.33333333333334</ele><time>2026-04-29T16:40:43.001Z</time></trkpt><trkpt lat="43.45075896319004" lon="11.185588702589728"><ele>150.0</ele><time>2026-04-29T16:40:44.001Z</time></trkpt><trkpt lat="43.45073816103449" lon="11.185302116670718"><ele>149.0</ele><time>2026-04-29T16:40:45.001Z</time></trkpt><trkpt lat="43.45071234792751" lon="11.185007791187886"><ele>148.0</ele><time>2026-04-29T16:40:46.001Z</time></trkpt><trkpt lat="43.4507146233129" lon="11.184713828540648"><ele>147.0</ele><time>2026-04-29T16:40:47.001Z</time></trkpt><trkpt lat="43.450713782022476" lon="11.184413028838138"><ele>145.5</ele><time>2026-04-29T16:40:48.001Z</time></trkpt><trkpt lat="43.45072405797411" lon="11.184112371565753"><ele>144.0</ele><time>2026-04-29T16:40:49.001Z</time></trkpt><trkpt lat="43.450706377794866" lon="11.183779857746252"><ele>143.5</ele><time>2026-04-29T16:40:50.001Z</time></trkpt><trkpt lat="43.45066711196126" lon="11.183451791628885"><ele>143.0</ele><time>2026-04-29T16:40:51.001Z</time></trkpt><trkpt lat="43.45061763673655" lon="11.183151429508202"><ele>142.33333333333331</ele><time>2026-04-29T16:40:52.001Z</time></trkpt><trkpt lat="43.45057359744634" lon="11.182863354674549"><ele>141.66666666666666</ele><time>2026-04-29T16:40:53.001Z</time></trkpt><trkpt lat="43.45054138992916" lon="11.182580929004898"><ele>141.0</ele><time>2026-04-29T16:40:54.001Z</time></trkpt><trkpt lat="43.4505245813397" lon="11.182283916658042"><ele>140.33333333333334</ele><time>2026-04-29T16:40:55.001Z</time></trkpt><trkpt lat="43.4505217026957" lon="11.181980405928357"><ele>139.66666666666669</ele><time>2026-04-29T16:40:56.001Z</time></trkpt><trkpt lat="43.450524355690746" lon="11.181672748517661"><ele>139.0</ele><time>2026-04-29T16:40:57.001Z</time></trkpt><trkpt lat="43.4505311909794" lon="11.181365604416033"><ele>139.0</ele><time>2026-04-29T16:40:58.001Z</time></trkpt><trkpt lat="43.45053869285547" lon="11.181053890103"><ele>139.0</ele><time>2026-04-29T16:40:59.001Z</time></trkpt><trkpt lat="43.45054468126748" lon="11.180738250319802"><ele>138.0</ele><time>2026-04-29T16:41:00.001Z</time></trkpt><trkpt lat="43.45055083034601" lon="11.180422827973281"><ele>137.0</ele><time>2026-04-29T16:41:01.001Z</time></trkpt><trkpt lat="43.45055711691994" lon="11.180111061972223"><ele>135.33333333333331</ele><time>2026-04-29T16:41:02.001Z</time></trkpt><trkpt lat="43.45057087631836" lon="11.179821946839127"><ele>133.66666666666666</ele><time>2026-04-29T16:41:03.001Z</time></trkpt><trkpt lat="43.45060443084136" lon="11.179541666796405"><ele>132.0</ele><time>2026-04-29T16:41:04.001Z</time></trkpt><trkpt lat="43.450666869770686" lon="11.179268598512971"><ele>130.0</ele><time>2026-04-29T16:41:05.001Z</time></trkpt><trkpt lat="43.45075235882679" lon="11.179006145307145"><ele>128.0</ele><time>2026-04-29T16:41:06.001Z</time></trkpt><trkpt lat="43.4508461870747" lon="11.17876814558476"><ele>126.0</ele><time>2026-04-29T16:41:07.001Z</time></trkpt><trkpt lat="43.45095449367373" lon="11.178577196361637"><ele>126.0</ele><time>2026-04-29T16:41:08.001Z</time></trkpt><trkpt lat="43.45109011059769" lon="11.178426111087134"><ele>126.0</ele><time>2026-04-29T16:41:09.001Z</time></trkpt><trkpt lat="43.45126536761249" lon="11.178296030368623"><ele>126.0</ele><time>2026-04-29T16:41:10.001Z</time></trkpt><trkpt lat="43.451427331285515" lon="11.178176687656881"><ele>126.33333333333334</ele><time>2026-04-29T16:41:11Z</time></trkpt><trkpt lat="43.45158385593438" lon="11.178134385069322"><ele>126.66666666666667</ele><time>2026-04-29T16:41:12Z</time></trkpt><trkpt lat="43.45172840989153" lon="11.17815900266755"><ele>127.0</ele><time>2026-04-29T16:41:13Z</time></trkpt><trkpt lat="43.45187369867934" lon="11.178250528512025"><ele>127.0</ele><time>2026-04-29T16:41:14Z</time></trkpt><trkpt lat="43.45201250351219" lon="11.178422298990142"><ele>127.0</ele><time>2026-04-29T16:41:15Z</time></trkpt><trkpt lat="43.45214913699512" lon="11.17856902185921"><ele>127.0</ele><time>2026-04-29T16:41:16Z</time></trkpt><trkpt lat="43.45226405355016" lon="11.17867246958667"><ele>127.0</ele><time>2026-04-29T16:41:17Z</time></trkpt><trkpt lat="43.45237496684295" lon="11.178729615521965"><ele>127.0</ele><time>2026-04-29T16:41:18Z</time></trkpt><trkpt lat="43.45250730168909" lon="11.178711885865118"><ele>127.0</ele><time>2026-04-29T16:41:19Z</time></trkpt><trkpt lat="43.45263138122462" lon="11.178570253361993"><ele>127.0</ele><time>2026-04-29T16:41:20Z</time></trkpt><trkpt lat="43.45276588569518" lon="11.178428038440966"><ele>127.0</ele><time>2026-04-29T16:41:21Z</time></trkpt><trkpt lat="43.45290946494147" lon="11.178269085160627"><ele>127.0</ele><time>2026-04-29T16:41:22Z</time></trkpt><trkpt lat="43.45306047823072" lon="11.178091533172173"><ele>127.0</ele><time>2026-04-29T16:41:23Z</time></trkpt><trkpt lat="43.45321444024656" lon="11.177913510501828"><ele>128.66666666666669</ele><time>2026-04-29T16:41:24Z</time></trkpt><trkpt lat="43.45337211171513" lon="11.177738190563769"><ele>130.33333333333334</ele><time>2026-04-29T16:41:25Z</time></trkpt><trkpt lat="43.45353608793055" lon="11.177566440404089"><ele>132.0</ele><time>2026-04-29T16:41:26Z</time></trkpt><trkpt lat="43.4537164662253" lon="11.177430505274772"><ele>135.0</ele><time>2026-04-29T16:41:27Z</time></trkpt><trkpt lat="43.45388250927107" lon="11.177268367120176"><ele>138.0</ele><time>2026-04-29T16:41:28Z</time></trkpt><trkpt lat="43.45406550415514" lon="11.177147624167015"><ele>141.0</ele><time>2026-04-29T16:41:29Z</time></trkpt><trkpt lat="43.45425080504874" lon="11.177042001383356"><ele>141.0</ele><time>2026-04-29T16:41:30Z</time></trkpt><trkpt lat="43.45441536691063" lon="11.17697876855854"><ele>141.0</ele><time>2026-04-29T16:41:31Z</time></trkpt><trkpt lat="43.45454876450078" lon="11.176882837322095"><ele>141.0</ele><time>2026-04-29T16:41:32Z</time></trkpt><trkpt lat="43.454650137067055" lon="11.176802446105189"><ele>141.0</ele><time>2026-04-29T16:41:33Z</time></trkpt><trkpt lat="43.45473753700989" lon="11.176720395828754"><ele>140.75</ele><time>2026-04-29T16:41:34Z</time></trkpt><trkpt lat="43.45476975598538" lon="11.17656865038174"><ele>140.5</ele><time>2026-04-29T16:41:35Z</time></trkpt><trkpt lat="43.454798406589504" lon="11.176396264099699"><ele>140.25</ele><time>2026-04-29T16:41:36Z</time></trkpt><trkpt lat="43.454831711693096" lon="11.176195872418502"><ele>140.0</ele><time>2026-04-29T16:41:37Z</time></trkpt><trkpt lat="43.45470808016201" lon="11.175917168534768"><ele>137.33333333333331</ele><time>2026-04-29T16:41:38Z</time></trkpt><trkpt lat="43.45471846453865" lon="11.175649333817738"><ele>134.66666666666666</ele><time>2026-04-29T16:41:39Z</time></trkpt><trkpt lat="43.45473552622832" lon="11.175357535858048"><ele>132.0</ele><time>2026-04-29T16:41:40Z</time></trkpt><trkpt lat="43.45475427037304" lon="11.175044364786487"><ele>130.0</ele><time>2026-04-29T16:41:41Z</time></trkpt><trkpt lat="43.454767796160894" lon="11.174722977822027"><ele>128.0</ele><time>2026-04-29T16:41:42Z</time></trkpt><trkpt lat="43.454775319866805" lon="11.174407517572286"><ele>128.0</ele><time>2026-04-29T16:41:43Z</time></trkpt><trkpt lat="43.454782405521804" lon="11.174094690140056"><ele>128.0</ele><time>2026-04-29T16:41:44Z</time></trkpt><trkpt lat="43.45479931010831" lon="11.173809179143003"><ele>128.0</ele><time>2026-04-29T16:41:45Z</time></trkpt><trkpt lat="43.454828087771006" lon="11.17354942036753"><ele>127.33333333333333</ele><time>2026-04-29T16:41:46Z</time></trkpt><trkpt lat="43.454858339754246" lon="11.173300213079749"><ele>126.66666666666666</ele><time>2026-04-29T16:41:47Z</time></trkpt><trkpt lat="43.45489520510537" lon="11.173071715751776"><ele>126.0</ele><time>2026-04-29T16:41:48Z</time></trkpt><trkpt lat="43.45494152865476" lon="11.172858622299668"><ele>125.25</ele><time>2026-04-29T16:41:49Z</time></trkpt><trkpt lat="43.45500149375047" lon="11.172675048567715"><ele>124.5</ele><time>2026-04-29T16:41:50Z</time></trkpt><trkpt lat="43.455057319000346" lon="11.172510457900335"><ele>123.75</ele><time>2026-04-29T16:41:51Z</time></trkpt><trkpt lat="43.45509951914273" lon="11.172336811035022"><ele>123.0</ele><time>2026-04-29T16:41:52Z</time></trkpt><trkpt lat="43.45512508476163" lon="11.172148934610087"><ele>121.66666666666666</ele><time>2026-04-29T16:41:53Z</time></trkpt><trkpt lat="43.45513566700769" lon="11.171922364062107"><ele>120.33333333333333</ele><time>2026-04-29T16:41:54Z</time></trkpt><trkpt lat="43.45514549405634" lon="11.1716710937344"><ele>119.0</ele><time>2026-04-29T16:41:55Z</time></trkpt><trkpt lat="43.45517066457721" lon="11.171435621951407"><ele>118.25</ele><time>2026-04-29T16:41:56Z</time></trkpt><trkpt lat="43.455203251131216" lon="11.171213267845237"><ele>117.5</ele><time>2026-04-29T16:41:57Z</time></trkpt><trkpt lat="43.45521518350531" lon="11.171012675569445"><ele>116.75</ele><time>2026-04-29T16:41:58Z</time></trkpt><trkpt lat="43.45524382048581" lon="11.17082871256005"><ele>116.0</ele><time>2026-04-29T16:41:59Z</time></trkpt><trkpt lat="43.45529456758861" lon="11.170664410008124"><ele>116.0</ele><time>2026-04-29T16:42:00Z</time></trkpt><trkpt lat="43.45537406848043" lon="11.170528761779025"><ele>116.0</ele><time>2026-04-29T16:42:01Z</time></trkpt><trkpt lat="43.45547459430749" lon="11.170396255235355"><ele>116.0</ele><time>2026-04-29T16:42:02Z</time></trkpt><trkpt lat="43.45561118159367" lon="11.170252284373454"><ele>116.0</ele><time>2026-04-29T16:42:03Z</time></trkpt><trkpt lat="43.45578783455883" lon="11.170098421781354"><ele>116.0</ele><time>2026-04-29T16:42:04Z</time></trkpt><trkpt lat="43.45597606102428" lon="11.169919204849984"><ele>116.0</ele><time>2026-04-29T16:42:05Z</time></trkpt><trkpt lat="43.45613947381189" lon="11.16973749412364"><ele>116.0</ele><time>2026-04-29T16:42:06Z</time></trkpt><trkpt lat="43.45628007850154" lon="11.169533536585588"><ele>117.0</ele><time>2026-04-29T16:42:07Z</time></trkpt><trkpt lat="43.45641539153153" lon="11.169303943158768"><ele>118.0</ele><time>2026-04-29T16:42:08Z</time></trkpt><trkpt lat="43.456549298522795" lon="11.16905451128211"><ele>119.0</ele><time>2026-04-29T16:42:09Z</time></trkpt><trkpt lat="43.456686093035714" lon="11.16880015372643"><ele>119.0</ele><time>2026-04-29T16:42:10Z</time></trkpt><trkpt lat="43.456829132756624" lon="11.16852979076718"><ele>119.0</ele><time>2026-04-29T16:42:11Z</time></trkpt><trkpt lat="43.45697902390493" lon="11.168257858330433"><ele>120.5</ele><time>2026-04-29T16:42:12Z</time></trkpt><trkpt lat="43.45712879338189" lon="11.167984103940247"><ele>122.0</ele><time>2026-04-29T16:42:13Z</time></trkpt><trkpt lat="43.45727366850134" lon="11.167712436333519"><ele>122.0</ele><time>2026-04-29T16:42:14Z</time></trkpt><trkpt lat="43.45741954946825" lon="11.16745287167444"><ele>122.0</ele><time>2026-04-29T16:42:15Z</time></trkpt><trkpt lat="43.45755673788843" lon="11.167211961984584"><ele>120.66666666666666</ele><time>2026-04-29T16:42:16Z</time></trkpt><trkpt lat="43.457685663730025" lon="11.166987079605617"><ele>119.33333333333334</ele><time>2026-04-29T16:42:17Z</time></trkpt><trkpt lat="43.457811043265544" lon="11.166751787376592"><ele>118.0</ele><time>2026-04-29T16:42:18Z</time></trkpt><trkpt lat="43.45792408097432" lon="11.166505284030661"><ele>118.0</ele><time>2026-04-29T16:42:19Z</time></trkpt><trkpt lat="43.458025063907904" lon="11.166216120996431"><ele>118.0</ele><time>2026-04-29T16:42:20Z</time></trkpt><trkpt lat="43.458127150117555" lon="11.165946561150983"><ele>118.0</ele><time>2026-04-29T16:42:21Z</time></trkpt><trkpt lat="43.45820359496022" lon="11.165704007240226"><ele>118.0</ele><time>2026-04-29T16:42:22Z</time></trkpt><trkpt lat="43.45826965670271" lon="11.16546786951891"><ele>118.0</ele><time>2026-04-29T16:42:23Z</time></trkpt><trkpt lat="43.4583294746658" lon="11.165233684010735"><ele>116.33333333333334</ele><time>2026-04-29T16:42:24Z</time></trkpt><trkpt lat="43.458384216210625" lon="11.164993769097952"><ele>114.66666666666666</ele><time>2026-04-29T16:42:25Z</time></trkpt><trkpt lat="43.458439417827115" lon="11.164733537180403"><ele>113.0</ele><time>2026-04-29T16:42:26Z</time></trkpt><trkpt lat="43.45850777055635" lon="11.164449782421642"><ele>111.0</ele><time>2026-04-29T16:42:27Z</time></trkpt><trkpt lat="43.45861552106137" lon="11.164173909644854"><ele>109.0</ele><time>2026-04-29T16:42:28Z</time></trkpt><trkpt lat="43.45871395135905" lon="11.16388424515137"><ele>109.0</ele><time>2026-04-29T16:42:29Z</time></trkpt><trkpt lat="43.45881097998884" lon="11.163613869073899"><ele>109.0</ele><time>2026-04-29T16:42:30Z</time></trkpt><trkpt lat="43.45890816265938" lon="11.163331046632981"><ele>109.0</ele><time>2026-04-29T16:42:31Z</time></trkpt><trkpt lat="43.458995090848454" lon="11.163068659035927"><ele>108.66666666666667</ele><time>2026-04-29T16:42:32Z</time></trkpt><trkpt lat="43.45908103000739" lon="11.162812449217087"><ele>108.33333333333334</ele><time>2026-04-29T16:42:33Z</time></trkpt><trkpt lat="43.4591745808341" lon="11.162557626336225"><ele>108.0</ele><time>2026-04-29T16:42:34Z</time></trkpt><trkpt lat="43.4592588598377" lon="11.162302268641533"><ele>106.66666666666666</ele><time>2026-04-29T16:42:35Z</time></trkpt><trkpt lat="43.45932198590994" lon="11.162063033060374"><ele>105.33333333333333</ele><time>2026-04-29T16:42:36Z</time></trkpt><trkpt lat="43.45936332683147" lon="11.161826156371154"><ele>104.0</ele><time>2026-04-29T16:42:37Z</time></trkpt><trkpt lat="43.459392134623876" lon="11.161615467568518"><ele>104.0</ele><time>2026-04-29T16:42:38Z</time></trkpt><trkpt lat="43.45944794563745" lon="11.161425065759076"><ele>104.0</ele><time>2026-04-29T16:42:39Z</time></trkpt><trkpt lat="43.45954723162433" lon="11.161281858693116"><ele>104.0</ele><time>2026-04-29T16:42:40Z</time></trkpt><trkpt lat="43.45969752442021" lon="11.16118684175591"><ele>104.66666666666666</ele><time>2026-04-29T16:42:41Z</time></trkpt><trkpt lat="43.459867139673314" lon="11.16110585626742"><ele>105.33333333333334</ele><time>2026-04-29T16:42:42Z</time></trkpt><trkpt lat="43.46005200439113" lon="11.161013533021324"><ele>106.0</ele><time>2026-04-29T16:42:43Z</time></trkpt><trkpt lat="43.46024157539172" lon="11.16093035246466"><ele>106.0</ele><time>2026-04-29T16:42:44Z</time></trkpt><trkpt lat="43.46042727230726" lon="11.160843552004192"><ele>106.0</ele><time>2026-04-29T16:42:45Z</time></trkpt><trkpt lat="43.46059535215454" lon="11.160764376628553"><ele>106.0</ele><time>2026-04-29T16:42:46.001Z</time></trkpt><trkpt lat="43.460754318528984" lon="11.160693936164286"><ele>107.33333333333334</ele><time>2026-04-29T16:42:47.001Z</time></trkpt><trkpt lat="43.46091276269308" lon="11.160617927826932"><ele>108.66666666666666</ele><time>2026-04-29T16:42:48.001Z</time></trkpt><trkpt lat="43.461060015062394" lon="11.16053945202359"><ele>110.0</ele><time>2026-04-29T16:42:49.001Z</time></trkpt><trkpt lat="43.461202044575316" lon="11.1604392026864"><ele>109.8</ele><time>2026-04-29T16:42:50.001Z</time></trkpt><trkpt lat="43.46130371433827" lon="11.160328901324393"><ele>109.6</ele><time>2026-04-29T16:42:51.001Z</time></trkpt><trkpt lat="43.46137533609329" lon="11.160214597845082"><ele>109.4</ele><time>2026-04-29T16:42:52.001Z</time></trkpt><trkpt lat="43.46145017757641" lon="11.16012776098735"><ele>109.2</ele><time>2026-04-29T16:42:53.001Z</time></trkpt><trkpt lat="43.46153043582883" lon="11.160083041396668"><ele>109.0</ele><time>2026-04-29T16:42:54.001Z</time></trkpt><trkpt lat="43.46162518978053" lon="11.160090086933652"><ele>109.0</ele><time>2026-04-29T16:42:55.001Z</time></trkpt><trkpt lat="43.461708188042195" lon="11.16019160658161"><ele>109.0</ele><time>2026-04-29T16:42:56.001Z</time></trkpt><trkpt lat="43.46182321120643" lon="11.16027074011852"><ele>109.0</ele><time>2026-04-29T16:42:57.001Z</time></trkpt><trkpt lat="43.46195334357985" lon="11.160341153057628"><ele>109.0</ele><time>2026-04-29T16:42:58.001Z</time></trkpt><trkpt lat="43.462093175134335" lon="11.160401094770402"><ele>108.75</ele><time>2026-04-29T16:42:59.001Z</time></trkpt><trkpt lat="43.462223224454" lon="11.160452391635356"><ele>108.5</ele><time>2026-04-29T16:43:00.001Z</time></trkpt><trkpt lat="43.46233808246499" lon="11.16049769643344"><ele>108.25</ele><time>2026-04-29T16:43:01.001Z</time></trkpt><trkpt lat="43.46244392652446" lon="11.160539445739058"><ele>108.0</ele><time>2026-04-29T16:43:02.001Z</time></trkpt><trkpt lat="43.46254466591794" lon="11.160579181578678"><ele>108.0</ele><time>2026-04-29T16:43:03.001Z</time></trkpt><trkpt lat="43.46264603963417" lon="11.160619167632314"><ele>108.00000000000001</ele><time>2026-04-29T16:43:04.001Z</time></trkpt><trkpt lat="43.46274967219808" lon="11.160659833356439"><ele>108.00000000000001</ele><time>2026-04-29T16:43:05.001Z</time></trkpt><trkpt lat="43.46285473441951" lon="11.160691978720587"><ele>108.0</ele><time>2026-04-29T16:43:06.001Z</time></trkpt><trkpt lat="43.462950281997834" lon="11.160729341246155"><ele>108.0</ele><time>2026-04-29T16:43:07.001Z</time></trkpt><trkpt lat="43.46304169971384" lon="11.160747493627932"><ele>107.0</ele><time>2026-04-29T16:43:08.001Z</time></trkpt><trkpt lat="43.463143142537795" lon="11.16073814285422"><ele>106.0</ele><time>2026-04-29T16:43:09.001Z</time></trkpt><trkpt lat="43.463249438619336" lon="11.16068090602221"><ele>105.0</ele><time>2026-04-29T16:43:10.001Z</time></trkpt><trkpt lat="43.4633804878069" lon="11.160608607293224"><ele>104.0</ele><time>2026-04-29T16:43:11.001Z</time></trkpt><trkpt lat="43.46353031171895" lon="11.160519287348405"><ele>104.0</ele><time>2026-04-29T16:43:12.001Z</time></trkpt><trkpt lat="43.463693060086904" lon="11.160421570145852"><ele>104.0</ele><time>2026-04-29T16:43:13.001Z</time></trkpt><trkpt lat="43.4638511098976" lon="11.160330110883633"><ele>104.0</ele><time>2026-04-29T16:43:14.001Z</time></trkpt><trkpt lat="43.46401335142629" lon="11.160245108607736"><ele>103.66666666666666</ele><time>2026-04-29T16:43:15.001Z</time></trkpt><trkpt lat="43.464156465540604" lon="11.160137948977646"><ele>103.33333333333334</ele><time>2026-04-29T16:43:16.001Z</time></trkpt><trkpt lat="43.464280507188114" lon="11.160023604989743"><ele>103.0</ele><time>2026-04-29T16:43:16.999Z</time></trkpt><trkpt lat="43.464401319119894" lon="11.159898365572671"><ele>103.33333333333334</ele><time>2026-04-29T16:43:17.999Z</time></trkpt><trkpt lat="43.46451811445566" lon="11.159748107427221"><ele>103.66666666666666</ele><time>2026-04-29T16:43:18.999Z</time></trkpt><trkpt lat="43.464636051297845" lon="11.159584998370363"><ele>104.0</ele><time>2026-04-29T16:43:19.999Z</time></trkpt><trkpt lat="43.464740875342635" lon="11.159393441745305"><ele>104.0</ele><time>2026-04-29T16:43:20.999Z</time></trkpt><trkpt lat="43.46483268282972" lon="11.15918404748016"><ele>104.0</ele><time>2026-04-29T16:43:21.999Z</time></trkpt><trkpt lat="43.46490638403499" lon="11.158952885833529"><ele>104.0</ele><time>2026-04-29T16:43:22.999Z</time></trkpt><trkpt lat="43.464964374336226" lon="11.158735406706002"><ele>103.75</ele><time>2026-04-29T16:43:23.999Z</time></trkpt><trkpt lat="43.46500698171139" lon="11.158551948778987"><ele>103.5</ele><time>2026-04-29T16:43:24.999Z</time></trkpt><trkpt lat="43.46504593809331" lon="11.158391325497561"><ele>103.25</ele><time>2026-04-29T16:43:25.999Z</time></trkpt><trkpt lat="43.46508504293587" lon="11.158244873982895"><ele>103.0</ele><time>2026-04-29T16:43:26.999Z</time></trkpt><trkpt lat="43.46511748052428" lon="11.158122166551067"><ele>102.71428571428571</ele><time>2026-04-29T16:43:27.999Z</time></trkpt><trkpt lat="43.465140235599414" lon="11.158033052466182"><ele>102.42857142857143</ele><time>2026-04-29T16:43:28.999Z</time></trkpt><trkpt lat="43.46516163116466" lon="11.15794383897944"><ele>102.14285714285714</ele><time>2026-04-29T16:43:30.999Z</time></trkpt><trkpt lat="43.46517808298824" lon="11.157815921562092"><ele>101.85714285714286</ele><time>2026-04-29T16:43:36Z</time></trkpt><trkpt lat="43.465203615610974" lon="11.157731096382005"><ele>101.57142857142857</ele><time>2026-04-29T16:43:37Z</time></trkpt><trkpt lat="43.46521403479379" lon="11.15763775952022"><ele>101.28571428571428</ele><time>2026-04-29T16:43:38Z</time></trkpt><trkpt lat="43.46521830041714" lon="11.157540214614066"><ele>101.0</ele><time>2026-04-29T16:43:39Z</time></trkpt><trkpt lat="43.465240583743764" lon="11.157411052910158"><ele>102.0</ele><time>2026-04-29T16:43:40Z</time></trkpt><trkpt lat="43.46527737294793" lon="11.157255778519525"><ele>103.0</ele><time>2026-04-29T16:43:41Z</time></trkpt><trkpt lat="43.46531894780272" lon="11.157091332658508"><ele>104.0</ele><time>2026-04-29T16:43:42Z</time></trkpt><trkpt lat="43.46536422009265" lon="11.156906377649175"><ele>105.0</ele><time>2026-04-29T16:43:43Z</time></trkpt><trkpt lat="43.465408284496185" lon="11.156719747799162"><ele>105.0</ele><time>2026-04-29T16:43:44Z</time></trkpt><trkpt lat="43.465451296611676" lon="11.156549757693472"><ele>105.0</ele><time>2026-04-29T16:43:45Z</time></trkpt><trkpt lat="43.465493898944025" lon="11.156382910982696"><ele>105.0</ele><time>2026-04-29T16:43:46Z</time></trkpt><trkpt lat="43.465534030769916" lon="11.156218939030268"><ele>105.0</ele><time>2026-04-29T16:43:47Z</time></trkpt><trkpt lat="43.465574965957494" lon="11.15605540416275"><ele>105.0</ele><time>2026-04-29T16:43:48Z</time></trkpt><trkpt lat="43.46561468678635" lon="11.155900332828045"><ele>105.0</ele><time>2026-04-29T16:43:49Z</time></trkpt><trkpt lat="43.465646733175014" lon="11.155767137551136"><ele>105.0</ele><time>2026-04-29T16:43:50Z</time></trkpt><trkpt lat="43.46567462581058" lon="11.155649887719768"><ele>105.0</ele><time>2026-04-29T16:43:51Z</time></trkpt><trkpt lat="43.46570135135201" lon="11.155539408769048"><ele>105.0</ele><time>2026-04-29T16:43:52Z</time></trkpt><trkpt lat="43.4657266347017" lon="11.155438742963257"><ele>105.0</ele><time>2026-04-29T16:43:53Z</time></trkpt><trkpt lat="43.465751275134316" lon="11.155325345164574"><ele>105.0</ele><time>2026-04-29T16:43:54Z</time></trkpt><trkpt lat="43.46579052483339" lon="11.155160735202973"><ele>105.0</ele><time>2026-04-29T16:43:55Z</time></trkpt><trkpt lat="43.46584321730405" lon="11.154975273046002"><ele>105.0</ele><time>2026-04-29T16:43:56Z</time></trkpt><trkpt lat="43.46590184178341" lon="11.154821296312178"><ele>105.0</ele><time>2026-04-29T16:43:57Z</time></trkpt><trkpt lat="43.465947175171046" lon="11.154667430757593"><ele>105.0</ele><time>2026-04-29T16:43:58Z</time></trkpt><trkpt lat="43.46598585170578" lon="11.154527280604245"><ele>105.0</ele><time>2026-04-29T16:43:59Z</time></trkpt><trkpt lat="43.466022946064044" lon="11.154431174940347"><ele>105.0</ele><time>2026-04-29T16:44:00Z</time></trkpt><trkpt lat="43.4660673869249" lon="11.154353875336282"><ele>105.0</ele><time>2026-04-29T16:44:01Z</time></trkpt><trkpt lat="43.46612124202525" lon="11.154267328412132"><ele>105.0</ele><time>2026-04-29T16:44:02Z</time></trkpt><trkpt lat="43.466179375156756" lon="11.154157193253955"><ele>105.0</ele><time>2026-04-29T16:44:03Z</time></trkpt><trkpt lat="43.466239376164985" lon="11.154023049918834"><ele>105.0</ele><time>2026-04-29T16:44:04Z</time></trkpt><trkpt lat="43.466300945108856" lon="11.153886303495316"><ele>105.0</ele><time>2026-04-29T16:44:05Z</time></trkpt><trkpt lat="43.466367656017596" lon="11.153761274228119"><ele>105.0</ele><time>2026-04-29T16:44:06Z</time></trkpt><trkpt lat="43.466436066464276" lon="11.153651622032383"><ele>105.0</ele><time>2026-04-29T16:44:07Z</time></trkpt><trkpt lat="43.466502160872516" lon="11.153548025395706"><ele>105.0</ele><time>2026-04-29T16:44:08Z</time></trkpt><trkpt lat="43.466560998273295" lon="11.153460176836713"><ele>105.0</ele><time>2026-04-29T16:44:09Z</time></trkpt><trkpt lat="43.4666130774441" lon="11.153382326271394"><ele>105.0</ele><time>2026-04-29T16:44:10Z</time></trkpt><trkpt lat="43.46666191299633" lon="11.153311469194644"><ele>105.0</ele><time>2026-04-29T16:44:11Z</time></trkpt><trkpt lat="43.466706634333754" lon="11.153244966507105"><ele>105.0</ele><time>2026-04-29T16:44:12Z</time></trkpt><trkpt lat="43.46674918118752" lon="11.153179218355412"><ele>105.0</ele><time>2026-04-29T16:44:13Z</time></trkpt><trkpt lat="43.46679762307264" lon="11.153099691616525"><ele>105.0</ele><time>2026-04-29T16:44:14Z</time></trkpt><trkpt lat="43.466851737203235" lon="11.153012731673853"><ele>105.0</ele><time>2026-04-29T16:44:15Z</time></trkpt><trkpt lat="43.46690545544754" lon="11.152928452032084"><ele>105.0</ele><time>2026-04-29T16:44:16Z</time></trkpt><trkpt lat="43.466953822526584" lon="11.152866058069957"><ele>105.0</ele><time>2026-04-29T16:44:17Z</time></trkpt><trkpt lat="43.46705025398975" lon="11.152814178161314"><ele>105.0</ele><time>2026-04-29T16:44:19Z</time></trkpt><trkpt lat="43.467155994680944" lon="11.152822507103947"><ele>104.33333333333333</ele><time>2026-04-29T16:44:21Z</time></trkpt><trkpt lat="43.46722325830674" lon="11.152818574679742"><ele>103.66666666666666</ele><time>2026-04-29T16:44:26Z</time></trkpt><trkpt lat="43.46728605227612" lon="11.15282924872714"><ele>103.0</ele><time>2026-04-29T16:44:27Z</time></trkpt><trkpt lat="43.46735554584781" lon="11.152875680545726"><ele>102.33333333333333</ele><time>2026-04-29T16:44:28Z</time></trkpt><trkpt lat="43.46744465604358" lon="11.152835151668437"><ele>101.66666666666666</ele><time>2026-04-29T16:44:30Z</time></trkpt><trkpt lat="43.467479205538034" lon="11.152740295516116"><ele>101.0</ele><time>2026-04-29T16:44:32Z</time></trkpt><trkpt lat="43.467462876948986" lon="11.152639261012668"><ele>101.0</ele><time>2026-04-29T16:44:34Z</time></trkpt><trkpt lat="43.46739464446481" lon="11.152570925761816"><ele>101.0</ele><time>2026-04-29T16:44:36Z</time></trkpt><trkpt lat="43.467294865545064" lon="11.15251123128202"><ele>101.0</ele><time>2026-04-29T16:44:39Z</time></trkpt><trkpt lat="43.46719619279652" lon="11.15251486154512"><ele>101.0</ele><time>2026-04-29T16:44:41Z</time></trkpt><trkpt lat="43.46711357432657" lon="11.152355060965991"><ele>101.0</ele><time>2026-04-29T16:44:42Z</time></trkpt><trkpt lat="43.4670498869665" lon="11.152244960452412"><ele>101.0</ele><time>2026-04-29T16:44:43Z</time></trkpt><trkpt lat="43.466976262524426" lon="11.152100660734192"><ele>101.0</ele><time>2026-04-29T16:44:44Z</time></trkpt><trkpt lat="43.466898921451545" lon="11.151953715618648"><ele>101.0</ele><time>2026-04-29T16:44:45Z</time></trkpt><trkpt lat="43.46681428457487" lon="11.151802402238854"><ele>101.0</ele><time>2026-04-29T16:44:46Z</time></trkpt><trkpt lat="43.46672839044315" lon="11.151656427766927"><ele>102.0</ele><time>2026-04-29T16:44:47Z</time></trkpt><trkpt lat="43.46664012088624" lon="11.151527646449813"><ele>103.0</ele><time>2026-04-29T16:44:48Z</time></trkpt><trkpt lat="43.46653944179149" lon="11.151423247327205"><ele>104.0</ele><time>2026-04-29T16:44:49.001Z</time></trkpt><trkpt lat="43.46641987144261" lon="11.151320202894214"><ele>105.0</ele><time>2026-04-29T16:44:50.001Z</time></trkpt><trkpt lat="43.466301908362595" lon="11.151211632782482"><ele>105.4</ele><time>2026-04-29T16:44:51.001Z</time></trkpt><trkpt lat="43.46619851690021" lon="11.151101040098105"><ele>105.8</ele><time>2026-04-29T16:44:52.001Z</time></trkpt><trkpt lat="43.46613491830702" lon="11.151028223521312"><ele>106.19999999999999</ele><time>2026-04-29T16:44:53.001Z</time></trkpt><trkpt lat="43.46606935766844" lon="11.150964815915268"><ele>106.6</ele><time>2026-04-29T16:44:55.001Z</time></trkpt><trkpt lat="43.46599138182258" lon="11.15089206687194"><ele>107.0</ele><time>2026-04-29T16:44:58.001Z</time></trkpt><trkpt lat="43.46587831308044" lon="11.150789526064885"><ele>106.99999999999999</ele><time>2026-04-29T16:45:00.001Z</time></trkpt><trkpt lat="43.465795181180475" lon="11.150740609130638"><ele>107.0</ele><time>2026-04-29T16:45:01.001Z</time></trkpt><trkpt lat="43.46570879287263" lon="11.15066526829348"><ele>107.0</ele><time>2026-04-29T16:45:02.001Z</time></trkpt><trkpt lat="43.46562517006602" lon="11.150586316290804"><ele>107.0</ele><time>2026-04-29T16:45:03.001Z</time></trkpt><trkpt lat="43.46556194399294" lon="11.150512218480142"><ele>106.99999999999999</ele><time>2026-04-29T16:45:04.001Z</time></trkpt><trkpt lat="43.465524758041575" lon="11.150439051948501"><ele>107.0</ele><time>2026-04-29T16:45:05.001Z</time></trkpt><trkpt lat="43.4656383438021" lon="11.15018465333683"><ele>107.16666666666666</ele><time>2026-04-29T16:45:08.001Z</time></trkpt><trkpt lat="43.46572244306743" lon="11.150114696383378"><ele>107.33333333333333</ele><time>2026-04-29T16:45:09.001Z</time></trkpt><trkpt lat="43.465781285093186" lon="11.150048793068816"><ele>107.5</ele><time>2026-04-29T16:45:10.001Z</time></trkpt><trkpt lat="43.46583791958776" lon="11.149997154014601"><ele>107.66666666666666</ele><time>2026-04-29T16:45:11.001Z</time></trkpt><trkpt lat="43.465895418369215" lon="11.149925252904595"><ele>107.83333333333333</ele><time>2026-04-29T16:45:12.001Z</time></trkpt><trkpt lat="43.46595643070986" lon="11.14983885129437"><ele>108.0</ele><time>2026-04-29T16:45:13.001Z</time></trkpt><trkpt lat="43.46602229660893" lon="11.149746343422393"><ele>108.5</ele><time>2026-04-29T16:45:14.001Z</time></trkpt><trkpt lat="43.46608562930097" lon="11.14964841964407"><ele>109.0</ele><time>2026-04-29T16:45:15.001Z</time></trkpt><trkpt lat="43.4661452858281" lon="11.14955691180687"><ele>109.5</ele><time>2026-04-29T16:45:16.001Z</time></trkpt><trkpt lat="43.466205717297804" lon="11.149464195308695"><ele>110.0</ele><time>2026-04-29T16:45:17.001Z</time></trkpt><trkpt lat="43.46626102748068" lon="11.149379465061008"><ele>110.5</ele><time>2026-04-29T16:45:18.001Z</time></trkpt><trkpt lat="43.466307580184136" lon="11.149306338773826"><ele>111.0</ele><time>2026-04-29T16:45:19.001Z</time></trkpt><trkpt lat="43.46635076106033" lon="11.149239030208205"><ele>111.0</ele><time>2026-04-29T16:45:20.001Z</time></trkpt><trkpt lat="43.46639327002303" lon="11.149172794222336"><ele>111.0</ele><time>2026-04-29T16:45:21.001Z</time></trkpt><trkpt lat="43.46643796083705" lon="11.14910688724564"><ele>111.0</ele><time>2026-04-29T16:45:22.001Z</time></trkpt><trkpt lat="43.46648290714739" lon="11.149031450220663"><ele>111.0</ele><time>2026-04-29T16:45:22.999Z</time></trkpt><trkpt lat="43.46653059715182" lon="11.148962895651326"><ele>111.0</ele><time>2026-04-29T16:45:23.999Z</time></trkpt><trkpt lat="43.46657513324729" lon="11.14889024214865"><ele>111.0</ele><time>2026-04-29T16:45:24.999Z</time></trkpt><trkpt lat="43.46661903836856" lon="11.148820511801155"><ele>111.0</ele><time>2026-04-29T16:45:25.999Z</time></trkpt><trkpt lat="43.46667110692092" lon="11.14875806416278"><ele>111.0</ele><time>2026-04-29T16:45:26.999Z</time></trkpt><trkpt lat="43.466718255551704" lon="11.148691111124105"><ele>111.0</ele><time>2026-04-29T16:45:27.999Z</time></trkpt><trkpt lat="43.46675978025789" lon="11.148623254050726"><ele>111.0</ele><time>2026-04-29T16:45:28.999Z</time></trkpt><trkpt lat="43.466835256416736" lon="11.148508307957595"><ele>111.0</ele><time>2026-04-29T16:45:30.999Z</time></trkpt><trkpt lat="43.46690128462909" lon="11.148407305729505"><ele>111.0</ele><time>2026-04-29T16:45:32.999Z</time></trkpt><trkpt lat="43.46695992120416" lon="11.148316116341222"><ele>111.0</ele><time>2026-04-29T16:45:34.999Z</time></trkpt><trkpt lat="43.467014734029284" lon="11.148228822423778"><ele>110.6</ele><time>2026-04-29T16:45:36.999Z</time></trkpt><trkpt lat="43.46709384727955" lon="11.14813565319808"><ele>110.19999999999999</ele><time>2026-04-29T16:45:38.999Z</time></trkpt><trkpt lat="43.467156406784056" lon="11.1480525167422"><ele>109.80000000000001</ele><time>2026-04-29T16:45:40.999Z</time></trkpt><trkpt lat="43.46723978900751" lon="11.14797109316158"><ele>109.4</ele><time>2026-04-29T16:45:42.999Z</time></trkpt><trkpt lat="43.46730242641993" lon="11.147992391772231"><ele>109.0</ele><time>2026-04-29T16:45:43.999Z</time></trkpt><trkpt lat="43.467445059325044" lon="11.147932232158112"><ele>109.00000000000001</ele><time>2026-04-29T16:45:45.999Z</time></trkpt><trkpt lat="43.46752605267048" lon="11.147899473851329"><ele>109.0</ele><time>2026-04-29T16:45:47Z</time></trkpt><trkpt lat="43.46760157847763" lon="11.147866586856152"><ele>109.0</ele><time>2026-04-29T16:45:48Z</time></trkpt><trkpt lat="43.46767188198902" lon="11.14783167966081"><ele>109.0</ele><time>2026-04-29T16:45:49Z</time></trkpt><trkpt lat="43.467739175354886" lon="11.147836264444877"><ele>109.00000000000001</ele><time>2026-04-29T16:45:50Z</time></trkpt><trkpt lat="43.467853924760504" lon="11.14780257519448"><ele>109.0</ele><time>2026-04-29T16:45:52Z</time></trkpt><trkpt lat="43.46797323051765" lon="11.14776124819231"><ele>108.25</ele><time>2026-04-29T16:45:54Z</time></trkpt><trkpt lat="43.468063850007916" lon="11.147705530158"><ele>107.5</ele><time>2026-04-29T16:45:55Z</time></trkpt><trkpt lat="43.46819104471502" lon="11.147658806369924"><ele>106.75</ele><time>2026-04-29T16:45:56Z</time></trkpt><trkpt lat="43.468337419371046" lon="11.147620180992229"><ele>106.0</ele><time>2026-04-29T16:45:57Z</time></trkpt><trkpt lat="43.468487264780066" lon="11.147583408678079"><ele>106.0</ele><time>2026-04-29T16:45:58Z</time></trkpt><trkpt lat="43.46862849106728" lon="11.147546961809981"><ele>106.0</ele><time>2026-04-29T16:45:59Z</time></trkpt><trkpt lat="43.46876463267105" lon="11.147500851256671"><ele>106.0</ele><time>2026-04-29T16:46:00Z</time></trkpt><trkpt lat="43.468896015477405" lon="11.147458167803638"><ele>106.0</ele><time>2026-04-29T16:46:01Z</time></trkpt><trkpt lat="43.4690198749379" lon="11.14740229339504"><ele>105.5</ele><time>2026-04-29T16:46:02Z</time></trkpt><trkpt lat="43.46915397084366" lon="11.147337139654336"><ele>105.0</ele><time>2026-04-29T16:46:03Z</time></trkpt><trkpt lat="43.46928090994149" lon="11.1472458183066"><ele>104.5</ele><time>2026-04-29T16:46:04Z</time></trkpt><trkpt lat="43.46939415334528" lon="11.147136371973907"><ele>104.0</ele><time>2026-04-29T16:46:05Z</time></trkpt><trkpt lat="43.46947219766511" lon="11.146993870859992"><ele>104.0</ele><time>2026-04-29T16:46:06Z</time></trkpt><trkpt lat="43.469562483491266" lon="11.146891302853914"><ele>104.0</ele><time>2026-04-29T16:46:07Z</time></trkpt><trkpt lat="43.469634126205726" lon="11.146786246474793"><ele>104.0</ele><time>2026-04-29T16:46:08Z</time></trkpt><trkpt lat="43.46970192661953" lon="11.146676038193432"><ele>104.0</ele><time>2026-04-29T16:46:09Z</time></trkpt><trkpt lat="43.46976618086115" lon="11.146566241138345"><ele>104.0</ele><time>2026-04-29T16:46:10Z</time></trkpt><trkpt lat="43.46981235036385" lon="11.146487321409774"><ele>103.83333333333333</ele><time>2026-04-29T16:46:11Z</time></trkpt><trkpt lat="43.46985904040428" lon="11.146389149690984"><ele>103.66666666666666</ele><time>2026-04-29T16:46:13Z</time></trkpt><trkpt lat="43.469922051434395" lon="11.146291783705747"><ele>103.5</ele><time>2026-04-29T16:46:15Z</time></trkpt><trkpt lat="43.4699531667356" lon="11.146214071290117"><ele>103.33333333333334</ele><time>2026-04-29T16:46:16Z</time></trkpt><trkpt lat="43.46999858635826" lon="11.146117191928619"><ele>103.16666666666667</ele><time>2026-04-29T16:46:17Z</time></trkpt><trkpt lat="43.47004172535398" lon="11.145991450481986"><ele>103.0</ele><time>2026-04-29T16:46:18Z</time></trkpt><trkpt lat="43.47007738983129" lon="11.145844673300372"><ele>103.5</ele><time>2026-04-29T16:46:19Z</time></trkpt><trkpt lat="43.47010531293774" lon="11.145674804111994"><ele>104.0</ele><time>2026-04-29T16:46:20Z</time></trkpt><trkpt lat="43.470140748302725" lon="11.145497277663802"><ele>104.5</ele><time>2026-04-29T16:46:21Z</time></trkpt><trkpt lat="43.470190018459434" lon="11.145312229285244"><ele>105.0</ele><time>2026-04-29T16:46:22Z</time></trkpt><trkpt lat="43.47025142641097" lon="11.145136874102585"><ele>105.0</ele><time>2026-04-29T16:46:23Z</time></trkpt><trkpt lat="43.47031446329282" lon="11.144984522179312"><ele>105.0</ele><time>2026-04-29T16:46:24Z</time></trkpt><trkpt lat="43.470366962025516" lon="11.144857886215918"><ele>105.0</ele><time>2026-04-29T16:46:25Z</time></trkpt><trkpt lat="43.47041124667272" lon="11.14474488905522"><ele>105.0</ele><time>2026-04-29T16:46:26Z</time></trkpt><trkpt lat="43.470449038791934" lon="11.144644634911256"><ele>105.0</ele><time>2026-04-29T16:46:27Z</time></trkpt><trkpt lat="43.47050137538638" lon="11.144531887016948"><ele>105.2</ele><time>2026-04-29T16:46:28Z</time></trkpt><trkpt lat="43.47055534799888" lon="11.144420311788453"><ele>105.4</ele><time>2026-04-29T16:46:29Z</time></trkpt><trkpt lat="43.47060615189513" lon="11.144311597177786"><ele>105.6</ele><time>2026-04-29T16:46:30Z</time></trkpt><trkpt lat="43.470643457761504" lon="11.144212705506057"><ele>105.8</ele><time>2026-04-29T16:46:31Z</time></trkpt><trkpt lat="43.4706933460892" lon="11.144121359181064"><ele>106.0</ele><time>2026-04-29T16:46:32Z</time></trkpt><trkpt lat="43.47075403926138" lon="11.144001068155147"><ele>106.0</ele><time>2026-04-29T16:46:34Z</time></trkpt><trkpt lat="43.47078613811106" lon="11.143910095267834"><ele>106.0</ele><time>2026-04-29T16:46:36Z</time></trkpt><trkpt lat="43.47087047948799" lon="11.143748087833604"><ele>106.0</ele><time>2026-04-29T16:46:38Z</time></trkpt><trkpt lat="43.47091958568746" lon="11.143657918882344"><ele>106.0</ele><time>2026-04-29T16:46:39Z</time></trkpt><trkpt lat="43.47097413964046" lon="11.143577785942426"><ele>106.0</ele><time>2026-04-29T16:46:40Z</time></trkpt><trkpt lat="43.47102864126871" lon="11.143502714354074"><ele>106.00000000000001</ele><time>2026-04-29T16:46:41Z</time></trkpt><trkpt lat="43.471085897198684" lon="11.14345577084613"><ele>106.0</ele><time>2026-04-29T16:46:42Z</time></trkpt><trkpt lat="43.47119354168976" lon="11.143399543603046"><ele>106.0</ele><time>2026-04-29T16:46:44Z</time></trkpt><trkpt lat="43.47126406000298" lon="11.143348697630252"><ele>106.0</ele><time>2026-04-29T16:46:45Z</time></trkpt><trkpt lat="43.47134658056533" lon="11.143290623193469"><ele>106.00000000000001</ele><time>2026-04-29T16:46:46Z</time></trkpt><trkpt lat="43.47142826463348" lon="11.143235873277218"><ele>106.0</ele><time>2026-04-29T16:46:47Z</time></trkpt><trkpt lat="43.471496219398425" lon="11.14319338087703"><ele>106.19999999999999</ele><time>2026-04-29T16:46:48Z</time></trkpt><trkpt lat="43.47156305907243" lon="11.143151808723763"><ele>106.39999999999999</ele><time>2026-04-29T16:46:49Z</time></trkpt><trkpt lat="43.471654355283114" lon="11.143098972340454"><ele>106.6</ele><time>2026-04-29T16:46:50Z</time></trkpt><trkpt lat="43.47175977818676" lon="11.14303276127376"><ele>106.8</ele><time>2026-04-29T16:46:51Z</time></trkpt><trkpt lat="43.47184847140154" lon="11.142965502589316"><ele>107.0</ele><time>2026-04-29T16:46:52Z</time></trkpt><trkpt lat="43.4719257860898" lon="11.142896593376529"><ele>107.0</ele><time>2026-04-29T16:46:53.001Z</time></trkpt><trkpt lat="43.47199433217306" lon="11.142784906728071"><ele>107.0</ele><time>2026-04-29T16:46:54.001Z</time></trkpt><trkpt lat="43.472061894506155" lon="11.142632024265463"><ele>107.0</ele><time>2026-04-29T16:46:55.001Z</time></trkpt><trkpt lat="43.47214578920448" lon="11.142449930309965"><ele>107.0</ele><time>2026-04-29T16:46:56.001Z</time></trkpt><trkpt lat="43.47224783697687" lon="11.14225612398014"><ele>104.66666666666666</ele><time>2026-04-29T16:46:57.001Z</time></trkpt><trkpt lat="43.472356450256044" lon="11.142052693654037"><ele>102.33333333333334</ele><time>2026-04-29T16:46:58.001Z</time></trkpt><trkpt lat="43.47246171649439" lon="11.141833529680952"><ele>100.0</ele><time>2026-04-29T16:46:59.001Z</time></trkpt><trkpt lat="43.47256838526078" lon="11.141616113206855"><ele>100.0</ele><time>2026-04-29T16:47:00.001Z</time></trkpt><trkpt lat="43.47267404034582" lon="11.141413376412277"><ele>100.0</ele><time>2026-04-29T16:47:01.001Z</time></trkpt><trkpt lat="43.47277694871564" lon="11.141213488552824"><ele>100.0</ele><time>2026-04-29T16:47:02.001Z</time></trkpt><trkpt lat="43.4728707671476" lon="11.141024277170512"><ele>99.0</ele><time>2026-04-29T16:47:03.001Z</time></trkpt><trkpt lat="43.47296626583013" lon="11.140848012730158"><ele>98.0</ele><time>2026-04-29T16:47:04.001Z</time></trkpt><trkpt lat="43.473061279880184" lon="11.140694556818504"><ele>97.0</ele><time>2026-04-29T16:47:05.001Z</time></trkpt><trkpt lat="43.47315741212708" lon="11.140545389114664"><ele>97.0</ele><time>2026-04-29T16:47:06.001Z</time></trkpt><trkpt lat="43.473245481489684" lon="11.140409176450737"><ele>97.0</ele><time>2026-04-29T16:47:07.001Z</time></trkpt><trkpt lat="43.47331652284152" lon="11.140295228514269"><ele>97.0</ele><time>2026-04-29T16:47:08.001Z</time></trkpt><trkpt lat="43.47337497926522" lon="11.140206484230038"><ele>97.0</ele><time>2026-04-29T16:47:09.001Z</time></trkpt><trkpt lat="43.47343210870968" lon="11.140130286597381"><ele>97.0</ele><time>2026-04-29T16:47:10.001Z</time></trkpt><trkpt lat="43.473514368436646" lon="11.139995800471521"><ele>97.0</ele><time>2026-04-29T16:47:12.001Z</time></trkpt><trkpt lat="43.47358522680495" lon="11.139922231579442"><ele>97.0</ele><time>2026-04-29T16:47:13.001Z</time></trkpt><trkpt lat="43.47366720426378" lon="11.139771809330654"><ele>97.0</ele><time>2026-04-29T16:47:14.001Z</time></trkpt><trkpt lat="43.473784553194946" lon="11.139616552397353"><ele>97.0</ele><time>2026-04-29T16:47:15.001Z</time></trkpt><trkpt lat="43.47390532639499" lon="11.139447422698668"><ele>97.0</ele><time>2026-04-29T16:47:16.001Z</time></trkpt><trkpt lat="43.474032653442585" lon="11.13928243857693"><ele>97.0</ele><time>2026-04-29T16:47:17.001Z</time></trkpt><trkpt lat="43.474154413708476" lon="11.139119118129457"><ele>97.0</ele><time>2026-04-29T16:47:18.001Z</time></trkpt><trkpt lat="43.474273441303026" lon="11.138946940311541"><ele>96.25</ele><time>2026-04-29T16:47:19.001Z</time></trkpt><trkpt lat="43.474389335315536" lon="11.138773623579786"><ele>95.5</ele><time>2026-04-29T16:47:20.001Z</time></trkpt><trkpt lat="43.474486180975994" lon="11.138620825672724"><ele>94.75</ele><time>2026-04-29T16:47:21.001Z</time></trkpt><trkpt lat="43.474566008471754" lon="11.138501512052624"><ele>94.0</ele><time>2026-04-29T16:47:22.001Z</time></trkpt><trkpt lat="43.47463859370166" lon="11.13839576553894"><ele>94.0</ele><time>2026-04-29T16:47:23.001Z</time></trkpt><trkpt lat="43.47471840612322" lon="11.13828651244521"><ele>94.0</ele><time>2026-04-29T16:47:24.001Z</time></trkpt><trkpt lat="43.474806573250014" lon="11.138156181808991"><ele>94.0</ele><time>2026-04-29T16:47:25.001Z</time></trkpt><trkpt lat="43.47489754050015" lon="11.13800923959459"><ele>94.0</ele><time>2026-04-29T16:47:26.001Z</time></trkpt><trkpt lat="43.47499075460744" lon="11.13786828039363"><ele>94.6</ele><time>2026-04-29T16:47:27.001Z</time></trkpt><trkpt lat="43.47507984672056" lon="11.137737229756945"><ele>95.2</ele><time>2026-04-29T16:47:28.001Z</time></trkpt><trkpt lat="43.47515679802918" lon="11.13762982056492"><ele>95.8</ele><time>2026-04-29T16:47:28.999Z</time></trkpt><trkpt lat="43.47522859979778" lon="11.137530698007465"><ele>96.39999999999999</ele><time>2026-04-29T16:47:29.999Z</time></trkpt><trkpt lat="43.47530581982553" lon="11.137429662176748"><ele>97.0</ele><time>2026-04-29T16:47:30.999Z</time></trkpt><trkpt lat="43.47539365651334" lon="11.137340068872259"><ele>97.0</ele><time>2026-04-29T16:47:31.999Z</time></trkpt><trkpt lat="43.47550460684327" lon="11.13725163697525"><ele>97.0</ele><time>2026-04-29T16:47:32.999Z</time></trkpt><trkpt lat="43.47563046204104" lon="11.137178404459629"><ele>97.0</ele><time>2026-04-29T16:47:33.999Z</time></trkpt><trkpt lat="43.47577008141017" lon="11.137110254845645"><ele>97.0</ele><time>2026-04-29T16:47:34.999Z</time></trkpt><trkpt lat="43.47591702024514" lon="11.137038188778563"><ele>97.0</ele><time>2026-04-29T16:47:35.999Z</time></trkpt><trkpt lat="43.47607422106756" lon="11.136951693884548"><ele>97.0</ele><time>2026-04-29T16:47:36.999Z</time></trkpt><trkpt lat="43.47622586323135" lon="11.13686670765569"><ele>97.0</ele><time>2026-04-29T16:47:37.999Z</time></trkpt><trkpt lat="43.476361063599974" lon="11.13677857622041"><ele>97.0</ele><time>2026-04-29T16:47:38.999Z</time></trkpt><trkpt lat="43.476484640360745" lon="11.136691354870921"><ele>97.0</ele><time>2026-04-29T16:47:39.999Z</time></trkpt><trkpt lat="43.47659622213046" lon="11.13659891749278"><ele>97.0</ele><time>2026-04-29T16:47:40.999Z</time></trkpt><trkpt lat="43.47669436067564" lon="11.13649180506773"><ele>97.0</ele><time>2026-04-29T16:47:41.999Z</time></trkpt><trkpt lat="43.47677698097019" lon="11.136374464317448"><ele>97.0</ele><time>2026-04-29T16:47:42.999Z</time></trkpt><trkpt lat="43.4768429684891" lon="11.136253182324152"><ele>97.0</ele><time>2026-04-29T16:47:43.999Z</time></trkpt><trkpt lat="43.476896067065894" lon="11.136128646530084"><ele>97.0</ele><time>2026-04-29T16:47:44.999Z</time></trkpt><trkpt lat="43.47693662294163" lon="11.136023506122806"><ele>97.0</ele><time>2026-04-29T16:47:45.999Z</time></trkpt><trkpt lat="43.47697885902654" lon="11.13593072012992"><ele>97.0</ele><time>2026-04-29T16:47:46.999Z</time></trkpt><trkpt lat="43.47701943860158" lon="11.135834048873589"><ele>97.0</ele><time>2026-04-29T16:47:47.999Z</time></trkpt><trkpt lat="43.477051291733524" lon="11.135740210266345"><ele>97.0</ele><time>2026-04-29T16:47:48.999Z</time></trkpt><trkpt lat="43.47708378967768" lon="11.135644320707229"><ele>97.0</ele><time>2026-04-29T16:47:49.999Z</time></trkpt><trkpt lat="43.47711806787451" lon="11.135541480246669"><ele>97.0</ele><time>2026-04-29T16:47:50.999Z</time></trkpt><trkpt lat="43.47715592447927" lon="11.135410532482812"><ele>97.0</ele><time>2026-04-29T16:47:51.999Z</time></trkpt><trkpt lat="43.477205603423265" lon="11.135258129409072"><ele>97.0</ele><time>2026-04-29T16:47:52.999Z</time></trkpt><trkpt lat="43.477261947470964" lon="11.135109372762779"><ele>97.0</ele><time>2026-04-29T16:47:53.999Z</time></trkpt><trkpt lat="43.477310703531785" lon="11.134964189902819"><ele>97.0</ele><time>2026-04-29T16:47:55Z</time></trkpt><trkpt lat="43.477354759585005" lon="11.134820645007798"><ele>97.0</ele><time>2026-04-29T16:47:56Z</time></trkpt><trkpt lat="43.47739627757453" lon="11.13467571754104"><ele>96.8</ele><time>2026-04-29T16:47:57Z</time></trkpt><trkpt lat="43.47743513223803" lon="11.134554599382396"><ele>96.6</ele><time>2026-04-29T16:47:58Z</time></trkpt><trkpt lat="43.4774786080082" lon="11.134425498652964"><ele>96.39999999999999</ele><time>2026-04-29T16:47:59Z</time></trkpt><trkpt lat="43.47752694598389" lon="11.134304154746445"><ele>96.19999999999999</ele><time>2026-04-29T16:48:00Z</time></trkpt><trkpt lat="43.47757622655657" lon="11.13419505175053"><ele>96.0</ele><time>2026-04-29T16:48:01Z</time></trkpt><trkpt lat="43.47762826967898" lon="11.134086999905389"><ele>96.0</ele><time>2026-04-29T16:48:02Z</time></trkpt><trkpt lat="43.47768370378201" lon="11.133979767964426"><ele>96.0</ele><time>2026-04-29T16:48:03Z</time></trkpt><trkpt lat="43.47775559200462" lon="11.133886035627654"><ele>96.0</ele><time>2026-04-29T16:48:04Z</time></trkpt><trkpt lat="43.477817409749996" lon="11.133777338663483"><ele>96.0</ele><time>2026-04-29T16:48:05Z</time></trkpt><trkpt lat="43.47788066799863" lon="11.133672569620584"><ele>96.0</ele><time>2026-04-29T16:48:06Z</time></trkpt><trkpt lat="43.47794598296402" lon="11.133563042486841"><ele>96.0</ele><time>2026-04-29T16:48:07Z</time></trkpt><trkpt lat="43.47800489059393" lon="11.13346780496455"><ele>96.0</ele><time>2026-04-29T16:48:08Z</time></trkpt><trkpt lat="43.4780509260685" lon="11.133358207349843"><ele>96.0</ele><time>2026-04-29T16:48:09Z</time></trkpt><trkpt lat="43.47811464709749" lon="11.133260267846785"><ele>96.0</ele><time>2026-04-29T16:48:10Z</time></trkpt><trkpt lat="43.47819705048776" lon="11.133150111657471"><ele>96.0</ele><time>2026-04-29T16:48:11Z</time></trkpt><trkpt lat="43.47827898638431" lon="11.133032425362442"><ele>95.8</ele><time>2026-04-29T16:48:12Z</time></trkpt><trkpt lat="43.478349185343326" lon="11.13293057465639"><ele>95.6</ele><time>2026-04-29T16:48:13Z</time></trkpt><trkpt lat="43.47841851872211" lon="11.13283145190546"><ele>95.4</ele><time>2026-04-29T16:48:14Z</time></trkpt><trkpt lat="43.47848260501329" lon="11.132743408287167"><ele>95.2</ele><time>2026-04-29T16:48:15Z</time></trkpt><trkpt lat="43.478540454819246" lon="11.132661017623455"><ele>95.0</ele><time>2026-04-29T16:48:16Z</time></trkpt><trkpt lat="43.478594815747186" lon="11.13258197467682"><ele>95.0</ele><time>2026-04-29T16:48:17Z</time></trkpt><trkpt lat="43.478646586904304" lon="11.132509628288597"><ele>95.0</ele><time>2026-04-29T16:48:18Z</time></trkpt><trkpt lat="43.478693849041214" lon="11.132441963698415"><ele>95.0</ele><time>2026-04-29T16:48:19Z</time></trkpt><trkpt lat="43.478775576729426" lon="11.132322046723907"><ele>95.0</ele><time>2026-04-29T16:48:21Z</time></trkpt><trkpt lat="43.47885364255182" lon="11.132211407944702"><ele>95.0</ele><time>2026-04-29T16:48:23Z</time></trkpt><trkpt lat="43.47893155366746" lon="11.132134219432357"><ele>94.4</ele><time>2026-04-29T16:48:25Z</time></trkpt><trkpt lat="43.47900999364704" lon="11.132070544173807"><ele>93.8</ele><time>2026-04-29T16:48:27Z</time></trkpt><trkpt lat="43.47910075716926" lon="11.132038435776774"><ele>93.19999999999999</ele><time>2026-04-29T16:48:29Z</time></trkpt><trkpt lat="43.47922883853892" lon="11.132074987387973"><ele>92.6</ele><time>2026-04-29T16:48:31Z</time></trkpt><trkpt lat="43.47929970595842" lon="11.132097248877349"><ele>92.0</ele><time>2026-04-29T16:48:32Z</time></trkpt><trkpt lat="43.47938057393759" lon="11.13208657099529"><ele>92.0</ele><time>2026-04-29T16:48:33Z</time></trkpt><trkpt lat="43.479457520063754" lon="11.132040569023863"><ele>92.0</ele><time>2026-04-29T16:48:34Z</time></trkpt><trkpt lat="43.4795248115079" lon="11.131968780316358"><ele>92.0</ele><time>2026-04-29T16:48:35Z</time></trkpt><trkpt lat="43.47956372203339" lon="11.131871031646135"><ele>92.0</ele><time>2026-04-29T16:48:36Z</time></trkpt><trkpt lat="43.47958783766723" lon="11.131765863023453"><ele>92.0</ele><time>2026-04-29T16:48:37Z</time></trkpt><trkpt lat="43.479596361833416" lon="11.13165871859542"><ele>92.0</ele><time>2026-04-29T16:48:38Z</time></trkpt><trkpt lat="43.479615557454075" lon="11.131555479044378"><ele>92.6</ele><time>2026-04-29T16:48:39Z</time></trkpt><trkpt lat="43.47965711436777" lon="11.13146234653833"><ele>93.19999999999999</ele><time>2026-04-29T16:48:40Z</time></trkpt><trkpt lat="43.47971753052027" lon="11.131375893006599"><ele>93.8</ele><time>2026-04-29T16:48:41Z</time></trkpt><trkpt lat="43.47978606134711" lon="11.131302050582228"><ele>94.4</ele><time>2026-04-29T16:48:42Z</time></trkpt><trkpt lat="43.479863107157485" lon="11.131228824848446"><ele>95.0</ele><time>2026-04-29T16:48:43Z</time></trkpt><trkpt lat="43.47996156263516" lon="11.131158528006615"><ele>95.0</ele><time>2026-04-29T16:48:44Z</time></trkpt><trkpt lat="43.480074495411266" lon="11.131089501422988"><ele>95.0</ele><time>2026-04-29T16:48:45Z</time></trkpt><trkpt lat="43.48020043644985" lon="11.131031632742824"><ele>95.0</ele><time>2026-04-29T16:48:46Z</time></trkpt><trkpt lat="43.480347525464765" lon="11.13102794367932"><ele>95.0</ele><time>2026-04-29T16:48:47.001Z</time></trkpt><trkpt lat="43.48050147581952" lon="11.130966444797277"><ele>96.66666666666667</ele><time>2026-04-29T16:48:48.001Z</time></trkpt><trkpt lat="43.48068113457385" lon="11.130945927587979"><ele>98.33333333333334</ele><time>2026-04-29T16:48:49.001Z</time></trkpt><trkpt lat="43.48085861000939" lon="11.13088736704409"><ele>100.0</ele><time>2026-04-29T16:48:50.001Z</time></trkpt><trkpt lat="43.48100325318209" lon="11.130769928366943"><ele>98.0</ele><time>2026-04-29T16:48:51.001Z</time></trkpt><trkpt lat="43.481116980465" lon="11.130629247918856"><ele>96.0</ele><time>2026-04-29T16:48:52.001Z</time></trkpt><trkpt lat="43.481221576891436" lon="11.13049522383309"><ele>94.0</ele><time>2026-04-29T16:48:53.001Z</time></trkpt><trkpt lat="43.48133881488675" lon="11.130407682651422"><ele>92.0</ele><time>2026-04-29T16:48:54.001Z</time></trkpt><trkpt lat="43.481474331471006" lon="11.130379330952135"><ele>91.5</ele><time>2026-04-29T16:48:55.001Z</time></trkpt><trkpt lat="43.48160938535918" lon="11.13043134369497"><ele>91.0</ele><time>2026-04-29T16:48:56.001Z</time></trkpt><trkpt lat="43.48174318522199" lon="11.13050703125693"><ele>90.5</ele><time>2026-04-29T16:48:57.001Z</time></trkpt><trkpt lat="43.481867968209414" lon="11.130549621389582"><ele>90.0</ele><time>2026-04-29T16:48:58.001Z</time></trkpt><trkpt lat="43.48199721980859" lon="11.130574773366922"><ele>90.0</ele><time>2026-04-29T16:48:59.001Z</time></trkpt><trkpt lat="43.4821412418068" lon="11.130568696914994"><ele>90.0</ele><time>2026-04-29T16:49:00.001Z</time></trkpt><trkpt lat="43.48229443557318" lon="11.130539309568885"><ele>90.0</ele><time>2026-04-29T16:49:01.001Z</time></trkpt><trkpt lat="43.48245969552572" lon="11.130497177767761"><ele>90.0</ele><time>2026-04-29T16:49:02.001Z</time></trkpt><trkpt lat="43.482632940301194" lon="11.130439654623677"><ele>90.0</ele><time>2026-04-29T16:49:03.001Z</time></trkpt><trkpt lat="43.48282202611764" lon="11.130382905885705"><ele>90.0</ele><time>2026-04-29T16:49:04.001Z</time></trkpt><trkpt lat="43.48298733280593" lon="11.130316365263146"><ele>91.66666666666667</ele><time>2026-04-29T16:49:05.001Z</time></trkpt><trkpt lat="43.48314214590748" lon="11.130225530921718"><ele>93.33333333333334</ele><time>2026-04-29T16:49:06.001Z</time></trkpt><trkpt lat="43.48329896680261" lon="11.13010378461529"><ele>95.0</ele><time>2026-04-29T16:49:07.001Z</time></trkpt><trkpt lat="43.48345204876618" lon="11.129963828172732"><ele>95.66666666666667</ele><time>2026-04-29T16:49:08.001Z</time></trkpt><trkpt lat="43.48359553010282" lon="11.129801290244297"><ele>96.33333333333334</ele><time>2026-04-29T16:49:09.001Z</time></trkpt><trkpt lat="43.483728328692045" lon="11.129611713445446"><ele>97.0</ele><time>2026-04-29T16:49:10.001Z</time></trkpt><trkpt lat="43.483850218576755" lon="11.12940496377929"><ele>97.0</ele><time>2026-04-29T16:49:11.001Z</time></trkpt><trkpt lat="43.4839584432498" lon="11.12918508716107"><ele>97.0</ele><time>2026-04-29T16:49:12.001Z</time></trkpt><trkpt lat="43.484057843105845" lon="11.128949544075802"><ele>97.0</ele><time>2026-04-29T16:49:13.001Z</time></trkpt><trkpt lat="43.484151624589835" lon="11.128709645200516"><ele>96.0</ele><time>2026-04-29T16:49:14.001Z</time></trkpt><trkpt lat="43.484246478615525" lon="11.128480988794188"><ele>95.0</ele><time>2026-04-29T16:49:15.001Z</time></trkpt><trkpt lat="43.48434830322363" lon="11.128285058566302"><ele>94.0</ele><time>2026-04-29T16:49:16.001Z</time></trkpt><trkpt lat="43.484460930454176" lon="11.128133812442497"><ele>92.33333333333333</ele><time>2026-04-29T16:49:17.001Z</time></trkpt><trkpt lat="43.484584381355205" lon="11.128001295963669"><ele>90.66666666666667</ele><time>2026-04-29T16:49:18.001Z</time></trkpt><trkpt lat="43.48470837095452" lon="11.127870456786084"><ele>89.0</ele><time>2026-04-29T16:49:19.001Z</time></trkpt><trkpt lat="43.48483212662508" lon="11.127726364257732"><ele>89.66666666666667</ele><time>2026-04-29T16:49:20.001Z</time></trkpt><trkpt lat="43.484959245190396" lon="11.127561531415543"><ele>90.33333333333333</ele><time>2026-04-29T16:49:21.001Z</time></trkpt><trkpt lat="43.48511325117172" lon="11.127397682450978"><ele>91.0</ele><time>2026-04-29T16:49:22.001Z</time></trkpt><trkpt lat="43.48525283607195" lon="11.12719710756346"><ele>91.0</ele><time>2026-04-29T16:49:23.001Z</time></trkpt><trkpt lat="43.48540409810174" lon="11.12701491646091"><ele>91.0</ele><time>2026-04-29T16:49:24.001Z</time></trkpt><trkpt lat="43.485554907194796" lon="11.126823839837728"><ele>91.0</ele><time>2026-04-29T16:49:25.001Z</time></trkpt><trkpt lat="43.48570727276419" lon="11.12663207252569"><ele>90.66666666666666</ele><time>2026-04-29T16:49:26.001Z</time></trkpt><trkpt lat="43.48586059447325" lon="11.126445634739405"><ele>90.33333333333333</ele><time>2026-04-29T16:49:27.001Z</time></trkpt><trkpt lat="43.48601923031188" lon="11.126262168499588"><ele>90.0</ele><time>2026-04-29T16:49:28.001Z</time></trkpt><trkpt lat="43.486184652444244" lon="11.126076569835904"><ele>89.66666666666667</ele><time>2026-04-29T16:49:29.001Z</time></trkpt><trkpt lat="43.48635223048199" lon="11.125900884252315"><ele>89.33333333333334</ele><time>2026-04-29T16:49:30.001Z</time></trkpt><trkpt lat="43.48652756548713" lon="11.12572694934673"><ele>89.0</ele><time>2026-04-29T16:49:31.001Z</time></trkpt><trkpt lat="43.48670740734794" lon="11.125561411536694"><ele>89.0</ele><time>2026-04-29T16:49:32.001Z</time></trkpt><trkpt lat="43.48688895605166" lon="11.125400640929719"><ele>89.0</ele><time>2026-04-29T16:49:33.001Z</time></trkpt><trkpt lat="43.487072027402206" lon="11.125247868458958"><ele>89.0</ele><time>2026-04-29T16:49:34.001Z</time></trkpt><trkpt lat="43.48725650189508" lon="11.125099520514441"><ele>88.66666666666667</ele><time>2026-04-29T16:49:34.999Z</time></trkpt><trkpt lat="43.48743950310681" lon="11.124958785035165"><ele>88.33333333333333</ele><time>2026-04-29T16:49:35.999Z</time></trkpt><trkpt lat="43.48763041174276" lon="11.124836973435494"><ele>88.0</ele><time>2026-04-29T16:49:36.999Z</time></trkpt><trkpt lat="43.48782718049722" lon="11.12474150977913"><ele>87.33333333333333</ele><time>2026-04-29T16:49:37.999Z</time></trkpt><trkpt lat="43.4880257525462" lon="11.12465302703179"><ele>86.66666666666667</ele><time>2026-04-29T16:49:38.999Z</time></trkpt><trkpt lat="43.4882263078259" lon="11.124559559214603"><ele>86.0</ele><time>2026-04-29T16:49:39.999Z</time></trkpt><trkpt lat="43.48842647114851" lon="11.12445824750696"><ele>86.0</ele><time>2026-04-29T16:49:40.999Z</time></trkpt><trkpt lat="43.48862281398844" lon="11.124350581350742"><ele>86.0</ele><time>2026-04-29T16:49:41.999Z</time></trkpt><trkpt lat="43.488818152998405" lon="11.12423674786864"><ele>86.0</ele><time>2026-04-29T16:49:42.999Z</time></trkpt><trkpt lat="43.48900886205662" lon="11.124117904347179"><ele>86.33333333333334</ele><time>2026-04-29T16:49:43.999Z</time></trkpt><trkpt lat="43.4891940789827" lon="11.123996300781616"><ele>86.66666666666667</ele><time>2026-04-29T16:49:44.999Z</time></trkpt><trkpt lat="43.48937556379592" lon="11.123868670801363"><ele>87.0</ele><time>2026-04-29T16:49:45.999Z</time></trkpt><trkpt lat="43.48955649374978" lon="11.123742124722108"><ele>87.0</ele><time>2026-04-29T16:49:47Z</time></trkpt><trkpt lat="43.489739793927846" lon="11.123610725033295"><ele>87.0</ele><time>2026-04-29T16:49:48Z</time></trkpt><trkpt lat="43.48992689308473" lon="11.123467927128447"><ele>87.0</ele><time>2026-04-29T16:49:49Z</time></trkpt><trkpt lat="43.49011744089179" lon="11.123327188531377"><ele>87.0</ele><time>2026-04-29T16:49:50Z</time></trkpt><trkpt lat="43.49031717352752" lon="11.12319173877877"><ele>87.0</ele><time>2026-04-29T16:49:51Z</time></trkpt><trkpt lat="43.49051990801424" lon="11.123053760148254"><ele>87.0</ele><time>2026-04-29T16:49:52Z</time></trkpt><trkpt lat="43.490726228692125" lon="11.122905568403636"><ele>88.0</ele><time>2026-04-29T16:49:53Z</time></trkpt><trkpt lat="43.490931640891354" lon="11.122741889734467"><ele>89.0</ele><time>2026-04-29T16:49:54Z</time></trkpt><trkpt lat="43.49113048674561" lon="11.12256430714561"><ele>88.5</ele><time>2026-04-29T16:49:55Z</time></trkpt><trkpt lat="43.491331710239834" lon="11.12238048439521"><ele>88.0</ele><time>2026-04-29T16:49:56Z</time></trkpt><trkpt lat="43.49153283590999" lon="11.122204253509175"><ele>88.0</ele><time>2026-04-29T16:49:57Z</time></trkpt><trkpt lat="43.49173972108466" lon="11.122024395518856"><ele>88.0</ele><time>2026-04-29T16:49:58Z</time></trkpt><trkpt lat="43.49194111872797" lon="11.121844512309883"><ele>88.5</ele><time>2026-04-29T16:49:59Z</time></trkpt><trkpt lat="43.49214456959696" lon="11.121663633781909"><ele>89.0</ele><time>2026-04-29T16:50:00Z</time></trkpt><trkpt lat="43.49235158290289" lon="11.12148134193545"><ele>88.0</ele><time>2026-04-29T16:50:01Z</time></trkpt><trkpt lat="43.492559050667964" lon="11.121299825154418"><ele>87.0</ele><time>2026-04-29T16:50:02Z</time></trkpt><trkpt lat="43.492765597454664" lon="11.121120699918668"><ele>87.0</ele><time>2026-04-29T16:50:03Z</time></trkpt><trkpt lat="43.492975021390315" lon="11.1209412228954"><ele>87.0</ele><time>2026-04-29T16:50:04Z</time></trkpt><trkpt lat="43.49318833100739" lon="11.120765883801438"><ele>87.0</ele><time>2026-04-29T16:50:05Z</time></trkpt><trkpt lat="43.4933995641311" lon="11.120591476921959"><ele>87.0</ele><time>2026-04-29T16:50:06Z</time></trkpt><trkpt lat="43.493606865690666" lon="11.12040790928274"><ele>86.0</ele><time>2026-04-29T16:50:07Z</time></trkpt><trkpt lat="43.493804096703435" lon="11.120206287362684"><ele>85.0</ele><time>2026-04-29T16:50:08Z</time></trkpt><trkpt lat="43.49399730039431" lon="11.119985690020659"><ele>85.0</ele><time>2026-04-29T16:50:09Z</time></trkpt><trkpt lat="43.49417929588538" lon="11.119768837397347"><ele>85.0</ele><time>2026-04-29T16:50:10Z</time></trkpt><trkpt lat="43.49435887184131" lon="11.119583683962862"><ele>85.0</ele><time>2026-04-29T16:50:11Z</time></trkpt><trkpt lat="43.49453591254514" lon="11.119418555866392"><ele>85.0</ele><time>2026-04-29T16:50:12Z</time></trkpt><trkpt lat="43.49470632678417" lon="11.119232209159366"><ele>85.0</ele><time>2026-04-29T16:50:13Z</time></trkpt><trkpt lat="43.49486860088549" lon="11.119032765501373"><ele>84.0</ele><time>2026-04-29T16:50:14Z</time></trkpt><trkpt lat="43.4950332720639" lon="11.118817237734707"><ele>83.0</ele><time>2026-04-29T16:50:15Z</time></trkpt><trkpt lat="43.495186885443495" lon="11.118590762691149"><ele>83.0</ele><time>2026-04-29T16:50:16Z</time></trkpt><trkpt lat="43.495337922534986" lon="11.11834705768783"><ele>83.0</ele><time>2026-04-29T16:50:17Z</time></trkpt><trkpt lat="43.49548067703384" lon="11.118094175066009"><ele>84.5</ele><time>2026-04-29T16:50:18Z</time></trkpt><trkpt lat="43.49562438117565" lon="11.117839334859427"><ele>86.0</ele><time>2026-04-29T16:50:19Z</time></trkpt><trkpt lat="43.49577786589423" lon="11.117590203572863"><ele>84.0</ele><time>2026-04-29T16:50:20Z</time></trkpt><trkpt lat="43.495946048103235" lon="11.117360673649237"><ele>82.0</ele><time>2026-04-29T16:50:21Z</time></trkpt><trkpt lat="43.496122569939104" lon="11.117145399738748"><ele>84.0</ele><time>2026-04-29T16:50:22Z</time></trkpt><trkpt lat="43.496296416874685" lon="11.116931790329668"><ele>86.0</ele><time>2026-04-29T16:50:23Z</time></trkpt><trkpt lat="43.4964517762336" lon="11.116703111698216"><ele>85.33333333333334</ele><time>2026-04-29T16:50:24Z</time></trkpt><trkpt lat="43.496584314100076" lon="11.116450736872244"><ele>84.66666666666667</ele><time>2026-04-29T16:50:25.001Z</time></trkpt><trkpt lat="43.496696634217884" lon="11.116199609329259"><ele>84.0</ele><time>2026-04-29T16:50:26.001Z</time></trkpt><trkpt lat="43.496807931106325" lon="11.115976237235841"><ele>84.0</ele><time>2026-04-29T16:50:27.001Z</time></trkpt><trkpt lat="43.49693375936416" lon="11.115780617848987"><ele>84.0</ele><time>2026-04-29T16:50:28.001Z</time></trkpt><trkpt lat="43.49708819706336" lon="11.115614258433322"><ele>84.0</ele><time>2026-04-29T16:50:29.001Z</time></trkpt><trkpt lat="43.497261293360765" lon="11.115490760480705"><ele>84.66666666666667</ele><time>2026-04-29T16:50:30.001Z</time></trkpt><trkpt lat="43.49745086158192" lon="11.115396192547946"><ele>85.33333333333334</ele><time>2026-04-29T16:50:31.001Z</time></trkpt><trkpt lat="43.497642876938066" lon="11.115309785617143"><ele>86.0</ele><time>2026-04-29T16:50:32.001Z</time></trkpt><trkpt lat="43.497838717226195" lon="11.115208316735673"><ele>86.0</ele><time>2026-04-29T16:50:33.001Z</time></trkpt><trkpt lat="43.498033890319654" lon="11.115084739628815"><ele>86.0</ele><time>2026-04-29T16:50:34.001Z</time></trkpt><trkpt lat="43.498224318221304" lon="11.11493852084283"><ele>86.0</ele><time>2026-04-29T16:50:35.001Z</time></trkpt><trkpt lat="43.498413739501345" lon="11.11477457248896"><ele>86.0</ele><time>2026-04-29T16:50:36.001Z</time></trkpt><trkpt lat="43.49859300836161" lon="11.114582813552252"><ele>86.0</ele><time>2026-04-29T16:50:37.001Z</time></trkpt><trkpt lat="43.4987539200685" lon="11.114365321047368"><ele>86.33333333333334</ele><time>2026-04-29T16:50:38.001Z</time></trkpt><trkpt lat="43.49890281306043" lon="11.114125450755553"><ele>86.66666666666667</ele><time>2026-04-29T16:50:39.001Z</time></trkpt><trkpt lat="43.499035189474064" lon="11.11388563811646"><ele>87.0</ele><time>2026-04-29T16:50:40.001Z</time></trkpt><trkpt lat="43.499150993982354" lon="11.113671658105332"><ele>87.0</ele><time>2026-04-29T16:50:41.001Z</time></trkpt><trkpt lat="43.49925613885029" lon="11.113490360704498"><ele>87.0</ele><time>2026-04-29T16:50:42.001Z</time></trkpt><trkpt lat="43.49935786423124" lon="11.113339919093537"><ele>87.0</ele><time>2026-04-29T16:50:43.001Z</time></trkpt><trkpt lat="43.49945550794591" lon="11.113238922481928"><ele>87.0</ele><time>2026-04-29T16:50:44.001Z</time></trkpt><trkpt lat="43.49954878926159" lon="11.113179199761682"><ele>87.0</ele><time>2026-04-29T16:50:45.001Z</time></trkpt><trkpt lat="43.499642798828106" lon="11.113149372400837"><ele>87.0</ele><time>2026-04-29T16:50:46.001Z</time></trkpt><trkpt lat="43.499727045911094" lon="11.11305819914048"><ele>87.0</ele><time>2026-04-29T16:50:47.001Z</time></trkpt><trkpt lat="43.49978881085327" lon="11.11291173187387"><ele>87.0</ele><time>2026-04-29T16:50:48.001Z</time></trkpt><trkpt lat="43.499880251278164" lon="11.112757052245929"><ele>87.0</ele><time>2026-04-29T16:50:49.001Z</time></trkpt><trkpt lat="43.499999606237665" lon="11.11260972119867"><ele>87.0</ele><time>2026-04-29T16:50:50.001Z</time></trkpt><trkpt lat="43.500129884476024" lon="11.112451232530276"><ele>87.0</ele><time>2026-04-29T16:50:51.001Z</time></trkpt><trkpt lat="43.50026680556608" lon="11.112285295119397"><ele>88.0</ele><time>2026-04-29T16:50:52.001Z</time></trkpt><trkpt lat="43.50041013639793" lon="11.112120041745916"><ele>89.0</ele><time>2026-04-29T16:50:53.001Z</time></trkpt><trkpt lat="43.500564389917635" lon="11.111953115896572"><ele>90.0</ele><time>2026-04-29T16:50:54.001Z</time></trkpt><trkpt lat="43.5007219142945" lon="11.111780815706647"><ele>90.0</ele><time>2026-04-29T16:50:55.001Z</time></trkpt><trkpt lat="43.500879205829015" lon="11.11160932176405"><ele>90.0</ele><time>2026-04-29T16:50:56.001Z</time></trkpt><trkpt lat="43.50102065970279" lon="11.111449329163777"><ele>90.0</ele><time>2026-04-29T16:50:57.001Z</time></trkpt><trkpt lat="43.50115868567021" lon="11.111294173448119"><ele>89.0</ele><time>2026-04-29T16:50:58.001Z</time></trkpt><trkpt lat="43.50129249836971" lon="11.111127393357947"><ele>88.0</ele><time>2026-04-29T16:50:59.001Z</time></trkpt><trkpt lat="43.501413636301734" lon="11.110948706847328"><ele>87.0</ele><time>2026-04-29T16:51:00.001Z</time></trkpt><trkpt lat="43.501527610576424" lon="11.11075470880221"><ele>86.0</ele><time>2026-04-29T16:51:01.001Z</time></trkpt><trkpt lat="43.501644171793956" lon="11.110561488161816"><ele>85.0</ele><time>2026-04-29T16:51:02.001Z</time></trkpt><trkpt lat="43.501771112773916" lon="11.110348896921288"><ele>84.0</ele><time>2026-04-29T16:51:03.001Z</time></trkpt><trkpt lat="43.501887366511056" lon="11.110120701579206"><ele>83.33333333333333</ele><time>2026-04-29T16:51:04.001Z</time></trkpt><trkpt lat="43.50200544287245" lon="11.10989255201256"><ele>82.66666666666666</ele><time>2026-04-29T16:51:05.001Z</time></trkpt><trkpt lat="43.50213136574458" lon="11.109666577430795"><ele>82.0</ele><time>2026-04-29T16:51:06.001Z</time></trkpt><trkpt lat="43.50224796642139" lon="11.109471029904906"><ele>82.0</ele><time>2026-04-29T16:51:07.001Z</time></trkpt><trkpt lat="43.50235982773658" lon="11.109288814532302"><ele>82.0</ele><time>2026-04-29T16:51:08.001Z</time></trkpt><trkpt lat="43.50248942737767" lon="11.109076773728923"><ele>82.0</ele><time>2026-04-29T16:51:09.001Z</time></trkpt><trkpt lat="43.50262813234427" lon="11.108845649681381"><ele>82.0</ele><time>2026-04-29T16:51:10.001Z</time></trkpt><trkpt lat="43.502767748949616" lon="11.108606447886222"><ele>82.0</ele><time>2026-04-29T16:51:11.001Z</time></trkpt><trkpt lat="43.5029152129872" lon="11.10835330200581"><ele>83.0</ele><time>2026-04-29T16:51:12.001Z</time></trkpt><trkpt lat="43.50306576942672" lon="11.108096226202287"><ele>84.0</ele><time>2026-04-29T16:51:13.001Z</time></trkpt><trkpt lat="43.50321709724246" lon="11.107831057352096"><ele>84.0</ele><time>2026-04-29T16:51:14.001Z</time></trkpt><trkpt lat="43.5033728421319" lon="11.107559088912367"><ele>84.0</ele><time>2026-04-29T16:51:15.001Z</time></trkpt><trkpt lat="43.50352602041666" lon="11.107301812296392"><ele>84.0</ele><time>2026-04-29T16:51:16.001Z</time></trkpt><trkpt lat="43.50366015923815" lon="11.10706443001843"><ele>84.0</ele><time>2026-04-29T16:51:17.001Z</time></trkpt><trkpt lat="43.50378110479004" lon="11.10684515755873"><ele>84.0</ele><time>2026-04-29T16:51:18.001Z</time></trkpt><trkpt lat="43.50388182852241" lon="11.10664029446269"><ele>87.33333333333333</ele><time>2026-04-29T16:51:19.001Z</time></trkpt><trkpt lat="43.503950364845565" lon="11.106413496492028"><ele>90.66666666666666</ele><time>2026-04-29T16:51:20.001Z</time></trkpt><trkpt lat="43.50398252891446" lon="11.106152671864336"><ele>94.0</ele><time>2026-04-29T16:51:21.001Z</time></trkpt><trkpt lat="43.50398770102094" lon="11.105863383762024"><ele>93.33333333333333</ele><time>2026-04-29T16:51:22.001Z</time></trkpt><trkpt lat="43.50398911173109" lon="11.105559773577568"><ele>92.66666666666667</ele><time>2026-04-29T16:51:23.001Z</time></trkpt><trkpt lat="43.50398872493172" lon="11.105248453376563"><ele>92.0</ele><time>2026-04-29T16:51:24.001Z</time></trkpt><trkpt lat="43.50397786365456" lon="11.104902534056846"><ele>91.0</ele><time>2026-04-29T16:51:25.001Z</time></trkpt><trkpt lat="43.50398721792403" lon="11.1045834028627"><ele>90.0</ele><time>2026-04-29T16:51:26.001Z</time></trkpt><trkpt lat="43.50399878339722" lon="11.104296117539299"><ele>89.0</ele><time>2026-04-29T16:51:27.002Z</time></trkpt><trkpt lat="43.50401089315103" lon="11.104040591480546"><ele>88.33333333333334</ele><time>2026-04-29T16:51:28.002Z</time></trkpt><trkpt lat="43.50403144429321" lon="11.103797664741418"><ele>87.66666666666667</ele><time>2026-04-29T16:51:29.002Z</time></trkpt><trkpt lat="43.504071184678516" lon="11.103560743231778"><ele>87.0</ele><time>2026-04-29T16:51:30.002Z</time></trkpt><trkpt lat="43.504137867982614" lon="11.103309230384129"><ele>86.0</ele><time>2026-04-29T16:51:31.002Z</time></trkpt><trkpt lat="43.504227678157235" lon="11.103051065741722"><ele>85.0</ele><time>2026-04-29T16:51:32.002Z</time></trkpt><trkpt lat="43.504311709024684" lon="11.102778201825078"><ele>84.0</ele><time>2026-04-29T16:51:33.002Z</time></trkpt><trkpt lat="43.50438911500719" lon="11.10249892255036"><ele>82.33333333333333</ele><time>2026-04-29T16:51:34.002Z</time></trkpt><trkpt lat="43.50446890113979" lon="11.102217984502062"><ele>80.66666666666666</ele><time>2026-04-29T16:51:35.002Z</time></trkpt><trkpt lat="43.50455941969255" lon="11.101940970568931"><ele>79.0</ele><time>2026-04-29T16:51:36.002Z</time></trkpt><trkpt lat="43.504669530870665" lon="11.101669671098321"><ele>81.0</ele><time>2026-04-29T16:51:37.002Z</time></trkpt><trkpt lat="43.50479217300229" lon="11.101400847471728"><ele>83.0</ele><time>2026-04-29T16:51:38.002Z</time></trkpt><trkpt lat="43.50492121176354" lon="11.101127031600827"><ele>83.0</ele><time>2026-04-29T16:51:39.002Z</time></trkpt><trkpt lat="43.505057280815045" lon="11.100850620632684"><ele>83.0</ele><time>2026-04-29T16:51:40.002Z</time></trkpt><trkpt lat="43.50520007200938" lon="11.100582763869532"><ele>81.0</ele><time>2026-04-29T16:51:41Z</time></trkpt><trkpt lat="43.50535403139024" lon="11.10033041858465"><ele>79.0</ele><time>2026-04-29T16:51:42Z</time></trkpt><trkpt lat="43.50551212754029" lon="11.100094381460083"><ele>79.66666666666666</ele><time>2026-04-29T16:51:43Z</time></trkpt><trkpt lat="43.50566379134429" lon="11.099883016271132"><ele>80.33333333333333</ele><time>2026-04-29T16:51:44Z</time></trkpt><trkpt lat="43.50579666626577" lon="11.09969140014438"><ele>81.0</ele><time>2026-04-29T16:51:45Z</time></trkpt><trkpt lat="43.50591714375836" lon="11.099483073854715"><ele>81.0</ele><time>2026-04-29T16:51:46Z</time></trkpt><trkpt lat="43.5060319064799" lon="11.099228456895968"><ele>81.0</ele><time>2026-04-29T16:51:47Z</time></trkpt><trkpt lat="43.50616786637331" lon="11.098930621054729"><ele>82.0</ele><time>2026-04-29T16:51:48Z</time></trkpt><trkpt lat="43.50630919099804" lon="11.098581142260498"><ele>83.0</ele><time>2026-04-29T16:51:49Z</time></trkpt><trkpt lat="43.506456511102606" lon="11.09822553435991"><ele>83.0</ele><time>2026-04-29T16:51:50Z</time></trkpt><trkpt lat="43.5066465370161" lon="11.097914338886676"><ele>83.0</ele><time>2026-04-29T16:51:51Z</time></trkpt><trkpt lat="43.506847152411346" lon="11.097609185829437"><ele>82.5</ele><time>2026-04-29T16:51:52Z</time></trkpt><trkpt lat="43.507049406350006" lon="11.097291827918289"><ele>82.0</ele><time>2026-04-29T16:51:53Z</time></trkpt><trkpt lat="43.50724787201794" lon="11.09696704181432"><ele>82.0</ele><time>2026-04-29T16:51:54Z</time></trkpt><trkpt lat="43.507451821539995" lon="11.09663665749783"><ele>82.0</ele><time>2026-04-29T16:51:55Z</time></trkpt><trkpt lat="43.507657072748955" lon="11.096306130800464"><ele>82.0</ele><time>2026-04-29T16:51:56Z</time></trkpt><trkpt lat="43.507865994253436" lon="11.095968078070847"><ele>82.0</ele><time>2026-04-29T16:51:57Z</time></trkpt><trkpt lat="43.50807158986444" lon="11.095636097107828"><ele>82.0</ele><time>2026-04-29T16:51:58Z</time></trkpt><trkpt lat="43.50828167217795" lon="11.095300004346074"><ele>82.0</ele><time>2026-04-29T16:51:59Z</time></trkpt><trkpt lat="43.5084955838494" lon="11.094957900865387"><ele>82.5</ele><time>2026-04-29T16:52:00Z</time></trkpt><trkpt lat="43.508711298470885" lon="11.09461078620806"><ele>83.0</ele><time>2026-04-29T16:52:01Z</time></trkpt><trkpt lat="43.508931927770305" lon="11.094263436177856"><ele>81.0</ele><time>2026-04-29T16:52:02Z</time></trkpt><trkpt lat="43.509154264748915" lon="11.093914848963532"><ele>79.0</ele><time>2026-04-29T16:52:03Z</time></trkpt><trkpt lat="43.50937773758793" lon="11.09355874790041"><ele>81.0</ele><time>2026-04-29T16:52:04Z</time></trkpt><trkpt lat="43.50960334587274" lon="11.093199653942955"><ele>83.0</ele><time>2026-04-29T16:52:05Z</time></trkpt><trkpt lat="43.50982684995984" lon="11.092840566707077"><ele>83.0</ele><time>2026-04-29T16:52:06Z</time></trkpt><trkpt lat="43.51005002073261" lon="11.092472886452455"><ele>83.0</ele><time>2026-04-29T16:52:07Z</time></trkpt><trkpt lat="43.5102655061391" lon="11.092098422877005"><ele>83.0</ele><time>2026-04-29T16:52:08Z</time></trkpt><trkpt lat="43.51047028562522" lon="11.091715218548298"><ele>83.0</ele><time>2026-04-29T16:52:09Z</time></trkpt><trkpt lat="43.51066366450999" lon="11.091333970688648"><ele>83.0</ele><time>2026-04-29T16:52:10Z</time></trkpt><trkpt lat="43.51085483053006" lon="11.09096788193288"><ele>83.0</ele><time>2026-04-29T16:52:11Z</time></trkpt><trkpt lat="43.51103458249559" lon="11.090639683161804"><ele>84.5</ele><time>2026-04-29T16:52:12Z</time></trkpt><trkpt lat="43.51122302829508" lon="11.090329147575241"><ele>86.0</ele><time>2026-04-29T16:52:13Z</time></trkpt><trkpt lat="43.51143385177691" lon="11.09002740519706"><ele>82.5</ele><time>2026-04-29T16:52:14Z</time></trkpt><trkpt lat="43.51162973594846" lon="11.089739771372093"><ele>79.0</ele><time>2026-04-29T16:52:15Z</time></trkpt><trkpt lat="43.51180810600904" lon="11.089471030799183"><ele>79.0</ele><time>2026-04-29T16:52:16Z</time></trkpt><trkpt lat="43.5119896953175" lon="11.089230866509078"><ele>79.0</ele><time>2026-04-29T16:52:17Z</time></trkpt><trkpt lat="43.51218992836076" lon="11.089025092856353"><ele>78.0</ele><time>2026-04-29T16:52:18Z</time></trkpt><trkpt lat="43.512406242020084" lon="11.088855855961935"><ele>77.0</ele><time>2026-04-29T16:52:19Z</time></trkpt><trkpt lat="43.51263907007305" lon="11.088706728935616"><ele>77.0</ele><time>2026-04-29T16:52:20Z</time></trkpt><trkpt lat="43.51287395585876" lon="11.088513680349912"><ele>77.0</ele><time>2026-04-29T16:52:21Z</time></trkpt><trkpt lat="43.513105645215646" lon="11.088284812591414"><ele>78.0</ele><time>2026-04-29T16:52:22Z</time></trkpt><trkpt lat="43.513323499172124" lon="11.08803887031913"><ele>79.0</ele><time>2026-04-29T16:52:23Z</time></trkpt><trkpt lat="43.513540152642435" lon="11.087790595677744"><ele>79.5</ele><time>2026-04-29T16:52:24Z</time></trkpt><trkpt lat="43.51377212449581" lon="11.08751539243367"><ele>80.0</ele><time>2026-04-29T16:52:25Z</time></trkpt><trkpt lat="43.51399854290572" lon="11.08720076011035"><ele>80.0</ele><time>2026-04-29T16:52:26Z</time></trkpt><trkpt lat="43.51421231422359" lon="11.086878042536794"><ele>80.0</ele><time>2026-04-29T16:52:27Z</time></trkpt><trkpt lat="43.51440161232509" lon="11.086595438514493"><ele>80.5</ele><time>2026-04-29T16:52:28.001Z</time></trkpt><trkpt lat="43.51458784107903" lon="11.086335503693123"><ele>81.0</ele><time>2026-04-29T16:52:29.001Z</time></trkpt><trkpt lat="43.51476922530339" lon="11.08608775150459"><ele>81.0</ele><time>2026-04-29T16:52:30.001Z</time></trkpt><trkpt lat="43.51496245161287" lon="11.08587224150445"><ele>81.0</ele><time>2026-04-29T16:52:31.001Z</time></trkpt><trkpt lat="43.51515668411816" lon="11.085713502829186"><ele>80.0</ele><time>2026-04-29T16:52:32.001Z</time></trkpt><trkpt lat="43.51532410750131" lon="11.08560280546347"><ele>79.0</ele><time>2026-04-29T16:52:33.001Z</time></trkpt><trkpt lat="43.51547115412875" lon="11.085517935381507"><ele>78.0</ele><time>2026-04-29T16:52:34.001Z</time></trkpt><trkpt lat="43.51562136820281" lon="11.085455124515658"><ele>78.0</ele><time>2026-04-29T16:52:35.001Z</time></trkpt><trkpt lat="43.51578763148383" lon="11.08543200692143"><ele>78.0</ele><time>2026-04-29T16:52:36.001Z</time></trkpt><trkpt lat="43.5159663182712" lon="11.085453376742148"><ele>78.0</ele><time>2026-04-29T16:52:37.001Z</time></trkpt><trkpt lat="43.516151513409866" lon="11.085488069947349"><ele>77.0</ele><time>2026-04-29T16:52:38.001Z</time></trkpt><trkpt lat="43.51633601951892" lon="11.08548016516045"><ele>76.0</ele><time>2026-04-29T16:52:39.001Z</time></trkpt><trkpt lat="43.516503226773985" lon="11.085432141013316"><ele>75.0</ele><time>2026-04-29T16:52:40.001Z</time></trkpt><trkpt lat="43.51665947424294" lon="11.085333851395582"><ele>75.0</ele><time>2026-04-29T16:52:41.001Z</time></trkpt><trkpt lat="43.51678926771293" lon="11.085179000700473"><ele>75.0</ele><time>2026-04-29T16:52:42.001Z</time></trkpt><trkpt lat="43.51691148197265" lon="11.084964453837552"><ele>75.0</ele><time>2026-04-29T16:52:43.001Z</time></trkpt><trkpt lat="43.51703586815007" lon="11.084707615182477"><ele>74.5</ele><time>2026-04-29T16:52:44.001Z</time></trkpt><trkpt lat="43.51717730341857" lon="11.084449019290204"><ele>74.0</ele><time>2026-04-29T16:52:45.001Z</time></trkpt><trkpt lat="43.51733630378586" lon="11.084217042658366"><ele>74.33333333333334</ele><time>2026-04-29T16:52:46.001Z</time></trkpt><trkpt lat="43.51749489488123" lon="11.084037750698538"><ele>74.66666666666667</ele><time>2026-04-29T16:52:47.001Z</time></trkpt><trkpt lat="43.51766091201782" lon="11.08391354123982"><ele>75.0</ele><time>2026-04-29T16:52:48.001Z</time></trkpt><trkpt lat="43.51784307962616" lon="11.083814530460836"><ele>75.0</ele><time>2026-04-29T16:52:49.001Z</time></trkpt><trkpt lat="43.51803945920443" lon="11.083749695209345"><ele>75.0</ele><time>2026-04-29T16:52:50.001Z</time></trkpt><trkpt lat="43.518235900008364" lon="11.083722431353866"><ele>75.0</ele><time>2026-04-29T16:52:51.001Z</time></trkpt><trkpt lat="43.51840903277766" lon="11.083716472932155"><ele>75.0</ele><time>2026-04-29T16:52:52.001Z</time></trkpt><trkpt lat="43.51855786105056" lon="11.083709329651697"><ele>75.0</ele><time>2026-04-29T16:52:53.001Z</time></trkpt><trkpt lat="43.51867647245944" lon="11.083709329057879"><ele>75.0</ele><time>2026-04-29T16:52:54.001Z</time></trkpt><trkpt lat="43.518772003473025" lon="11.083738425629102"><ele>75.0</ele><time>2026-04-29T16:52:55.001Z</time></trkpt><trkpt lat="43.51887152630916" lon="11.083816693037573"><ele>74.8</ele><time>2026-04-29T16:52:56.001Z</time></trkpt><trkpt lat="43.518964338854744" lon="11.08388681285567"><ele>74.6</ele><time>2026-04-29T16:52:57.001Z</time></trkpt><trkpt lat="43.51906666531273" lon="11.083891071940782"><ele>74.4</ele><time>2026-04-29T16:52:58.001Z</time></trkpt><trkpt lat="43.51915962819454" lon="11.083826181806696"><ele>74.2</ele><time>2026-04-29T16:52:59.001Z</time></trkpt><trkpt lat="43.51921239278852" lon="11.083707622020258"><ele>74.0</ele><time>2026-04-29T16:53:00.001Z</time></trkpt><trkpt lat="43.51923936375006" lon="11.083551218563716"><ele>74.0</ele><time>2026-04-29T16:53:01.001Z</time></trkpt><trkpt lat="43.51928982881801" lon="11.083379797377493"><ele>74.0</ele><time>2026-04-29T16:53:02.001Z</time></trkpt><trkpt lat="43.51938252103928" lon="11.08323497180254"><ele>74.0</ele><time>2026-04-29T16:53:03.001Z</time></trkpt><trkpt lat="43.519509050750564" lon="11.083100924224604"><ele>74.0</ele><time>2026-04-29T16:53:04.001Z</time></trkpt><trkpt lat="43.519662978558664" lon="11.083000658826172"><ele>73.66666666666667</ele><time>2026-04-29T16:53:05.001Z</time></trkpt><trkpt lat="43.51982681185652" lon="11.082883869944805"><ele>73.33333333333333</ele><time>2026-04-29T16:53:06.001Z</time></trkpt><trkpt lat="43.52002497414096" lon="11.082779818827468"><ele>73.0</ele><time>2026-04-29T16:53:07.001Z</time></trkpt><trkpt lat="43.520259389467654" lon="11.082665078399211"><ele>72.5</ele><time>2026-04-29T16:53:08.001Z</time></trkpt><trkpt lat="43.52053760166031" lon="11.082529825557376"><ele>72.0</ele><time>2026-04-29T16:53:09.001Z</time></trkpt><trkpt lat="43.5208237767032" lon="11.082397998600557"><ele>72.0</ele><time>2026-04-29T16:53:10.001Z</time></trkpt><trkpt lat="43.52110147669724" lon="11.082220878041957"><ele>72.0</ele><time>2026-04-29T16:53:11.001Z</time></trkpt><trkpt lat="43.521385529390855" lon="11.081996716143959"><ele>72.5</ele><time>2026-04-29T16:53:12.001Z</time></trkpt><trkpt lat="43.521678449465675" lon="11.081749851275406"><ele>73.0</ele><time>2026-04-29T16:53:13.001Z</time></trkpt><trkpt lat="43.52198225672938" lon="11.081488733460548"><ele>73.0</ele><time>2026-04-29T16:53:14.001Z</time></trkpt><trkpt lat="43.522298004651745" lon="11.081214889338558"><ele>73.0</ele><time>2026-04-29T16:53:15.001Z</time></trkpt><trkpt lat="43.522624262770975" lon="11.080938203192165"><ele>72.5</ele><time>2026-04-29T16:53:16.001Z</time></trkpt><trkpt lat="43.522952141970315" lon="11.080661526264066"><ele>72.0</ele><time>2026-04-29T16:53:17.001Z</time></trkpt><trkpt lat="43.52326963893125" lon="11.0804205936502"><ele>72.0</ele><time>2026-04-29T16:53:18.001Z</time></trkpt><trkpt lat="43.52353925034433" lon="11.080195640517166"><ele>72.0</ele><time>2026-04-29T16:53:19.001Z</time></trkpt><trkpt lat="43.52378784378376" lon="11.07999175610319"><ele>73.0</ele><time>2026-04-29T16:53:20.001Z</time></trkpt><trkpt lat="43.52405109612331" lon="11.07977801690359"><ele>74.0</ele><time>2026-04-29T16:53:21.001Z</time></trkpt><trkpt lat="43.52433424069886" lon="11.079550460627829"><ele>74.0</ele><time>2026-04-29T16:53:22.001Z</time></trkpt><trkpt lat="43.5246236725866" lon="11.079318863610695"><ele>74.0</ele><time>2026-04-29T16:53:23.001Z</time></trkpt><trkpt lat="43.52490688787389" lon="11.079070653223917"><ele>74.0</ele><time>2026-04-29T16:53:24.001Z</time></trkpt><trkpt lat="43.525199455204245" lon="11.078841864814935"><ele>74.0</ele><time>2026-04-29T16:53:25.001Z</time></trkpt><trkpt lat="43.52549169173992" lon="11.078601173186037"><ele>74.0</ele><time>2026-04-29T16:53:26.001Z</time></trkpt><trkpt lat="43.52578347521851" lon="11.078355357681925"><ele>74.0</ele><time>2026-04-29T16:53:27.001Z</time></trkpt><trkpt lat="43.526067087809736" lon="11.078105811372223"><ele>73.5</ele><time>2026-04-29T16:53:28.001Z</time></trkpt><trkpt lat="43.52633695014817" lon="11.077853859406538"><ele>73.0</ele><time>2026-04-29T16:53:29.001Z</time></trkpt><trkpt lat="43.52659666291641" lon="11.077588818713199"><ele>73.0</ele><time>2026-04-29T16:53:30.001Z</time></trkpt><trkpt lat="43.526840933449996" lon="11.077321517062702"><ele>73.0</ele><time>2026-04-29T16:53:31.001Z</time></trkpt><trkpt lat="43.527067433698335" lon="11.077064543348106"><ele>73.0</ele><time>2026-04-29T16:53:32.001Z</time></trkpt><trkpt lat="43.52727810142458" lon="11.076830354095124"><ele>73.0</ele><time>2026-04-29T16:53:33.001Z</time></trkpt><trkpt lat="43.527477030518995" lon="11.076616062855246"><ele>73.0</ele><time>2026-04-29T16:53:34.001Z</time></trkpt><trkpt lat="43.52766319198869" lon="11.07640822992554"><ele>73.0</ele><time>2026-04-29T16:53:35.002Z</time></trkpt><trkpt lat="43.527827255177655" lon="11.076195945984232"><ele>73.0</ele><time>2026-04-29T16:53:36.002Z</time></trkpt><trkpt lat="43.52796432580838" lon="11.075938820433572"><ele>73.0</ele><time>2026-04-29T16:53:37.002Z</time></trkpt><trkpt lat="43.528096133715756" lon="11.07564949925218"><ele>73.0</ele><time>2026-04-29T16:53:38.002Z</time></trkpt><trkpt lat="43.52824246304404" lon="11.075319598939625"><ele>73.0</ele><time>2026-04-29T16:53:39.002Z</time></trkpt><trkpt lat="43.52839051454801" lon="11.07499373708471"><ele>72.5</ele><time>2026-04-29T16:53:40.002Z</time></trkpt><trkpt lat="43.52854513417617" lon="11.074651598866598"><ele>72.0</ele><time>2026-04-29T16:53:41.002Z</time></trkpt><trkpt lat="43.52870230160087" lon="11.074303595491573"><ele>73.0</ele><time>2026-04-29T16:53:42.002Z</time></trkpt><trkpt lat="43.52885033391559" lon="11.07393176278933"><ele>74.0</ele><time>2026-04-29T16:53:43.002Z</time></trkpt><trkpt lat="43.52901481078635" lon="11.073568268285658"><ele>73.5</ele><time>2026-04-29T16:53:44.002Z</time></trkpt><trkpt lat="43.52918097163121" lon="11.07319809160284"><ele>73.0</ele><time>2026-04-29T16:53:45.002Z</time></trkpt><trkpt lat="43.529348940247196" lon="11.072828200439186"><ele>73.0</ele><time>2026-04-29T16:53:46.002Z</time></trkpt><trkpt lat="43.52952043193311" lon="11.072458065096276"><ele>73.0</ele><time>2026-04-29T16:53:47.001Z</time></trkpt><trkpt lat="43.52969300954405" lon="11.07210010946215"><ele>73.0</ele><time>2026-04-29T16:53:48.001Z</time></trkpt><trkpt lat="43.52987119358487" lon="11.071741492258747"><ele>73.0</ele><time>2026-04-29T16:53:49.001Z</time></trkpt><trkpt lat="43.53004654660439" lon="11.071399119361491"><ele>73.5</ele><time>2026-04-29T16:53:50.001Z</time></trkpt><trkpt lat="43.530204671275094" lon="11.071096425989445"><ele>74.0</ele><time>2026-04-29T16:53:51.001Z</time></trkpt><trkpt lat="43.53034105229867" lon="11.070842431912428"><ele>74.33333333333334</ele><time>2026-04-29T16:53:52.001Z</time></trkpt><trkpt lat="43.53045207309502" lon="11.070594113661041"><ele>74.66666666666667</ele><time>2026-04-29T16:53:53.001Z</time></trkpt><trkpt lat="43.53053517917266" lon="11.070321258819693"><ele>75.0</ele><time>2026-04-29T16:53:54.001Z</time></trkpt><trkpt lat="43.53056794536414" lon="11.07002615845152"><ele>75.5</ele><time>2026-04-29T16:53:55.001Z</time></trkpt><trkpt lat="43.53060743549499" lon="11.069687135287968"><ele>76.0</ele><time>2026-04-29T16:53:56.001Z</time></trkpt><trkpt lat="43.530643092446965" lon="11.06933241192516"><ele>78.5</ele><time>2026-04-29T16:53:57.001Z</time></trkpt><trkpt lat="43.53057208189188" lon="11.068938389031537"><ele>81.0</ele><time>2026-04-29T16:53:58.001Z</time></trkpt><trkpt lat="43.530563062667156" lon="11.068550665625194"><ele>82.0</ele><time>2026-04-29T16:53:59.001Z</time></trkpt><trkpt lat="43.530547968946635" lon="11.068167369999873"><ele>83.0</ele><time>2026-04-29T16:54:00.001Z</time></trkpt><trkpt lat="43.53053737795003" lon="11.06779251722327"><ele>84.0</ele><time>2026-04-29T16:54:01.001Z</time></trkpt><trkpt lat="43.53052831253431" lon="11.067435778493392"><ele>85.0</ele><time>2026-04-29T16:54:02.001Z</time></trkpt><trkpt lat="43.530519960451116" lon="11.067096772055187"><ele>85.0</ele><time>2026-04-29T16:54:03.001Z</time></trkpt><trkpt lat="43.53050881716872" lon="11.066764929715758"><ele>85.0</ele><time>2026-04-29T16:54:04.001Z</time></trkpt><trkpt lat="43.530485166691506" lon="11.066422384853492"><ele>87.0</ele><time>2026-04-29T16:54:05.001Z</time></trkpt><trkpt lat="43.530470107484824" lon="11.066054448352727"><ele>89.0</ele><time>2026-04-29T16:54:06.001Z</time></trkpt><trkpt lat="43.53045947523735" lon="11.065704252320765"><ele>90.5</ele><time>2026-04-29T16:54:07.001Z</time></trkpt><trkpt lat="43.530416595376586" lon="11.065365302397515"><ele>92.0</ele><time>2026-04-29T16:54:08.001Z</time></trkpt><trkpt lat="43.53034092586412" lon="11.065020787725146"><ele>87.5</ele><time>2026-04-29T16:54:09.001Z</time></trkpt><trkpt lat="43.53026342047078" lon="11.064673534299102"><ele>83.0</ele><time>2026-04-29T16:54:10.001Z</time></trkpt><trkpt lat="43.53018730316676" lon="11.064322104950758"><ele>82.0</ele><time>2026-04-29T16:54:11.001Z</time></trkpt><trkpt lat="43.530117040930676" lon="11.063991889967875"><ele>81.0</ele><time>2026-04-29T16:54:12.001Z</time></trkpt><trkpt lat="43.53006859543485" lon="11.063682759189641"><ele>81.0</ele><time>2026-04-29T16:54:13.001Z</time></trkpt><trkpt lat="43.53004539458258" lon="11.063376562435819"><ele>81.0</ele><time>2026-04-29T16:54:14.001Z</time></trkpt><trkpt lat="43.53005351630973" lon="11.063075393406875"><ele>81.0</ele><time>2026-04-29T16:54:15.001Z</time></trkpt><trkpt lat="43.53009401484733" lon="11.062794663176879"><ele>79.66666666666667</ele><time>2026-04-29T16:54:16.001Z</time></trkpt><trkpt lat="43.53016428448724" lon="11.062546592776153"><ele>78.33333333333334</ele><time>2026-04-29T16:54:17.001Z</time></trkpt><trkpt lat="43.53026304500271" lon="11.062334456265459"><ele>77.0</ele><time>2026-04-29T16:54:18.001Z</time></trkpt><trkpt lat="43.53036884488246" lon="11.062143032080037"><ele>77.66666666666667</ele><time>2026-04-29T16:54:19.001Z</time></trkpt><trkpt lat="43.53049121076825" lon="11.061955314171305"><ele>78.33333333333333</ele><time>2026-04-29T16:54:20.001Z</time></trkpt><trkpt lat="43.53064898149755" lon="11.061770906482305"><ele>79.0</ele><time>2026-04-29T16:54:21.001Z</time></trkpt><trkpt lat="43.53083070932713" lon="11.061591746347878"><ele>76.0</ele><time>2026-04-29T16:54:22.001Z</time></trkpt><trkpt lat="43.53101788436121" lon="11.06139169620942"><ele>73.0</ele><time>2026-04-29T16:54:23.001Z</time></trkpt><trkpt lat="43.53120579709196" lon="11.061167016682276"><ele>73.0</ele><time>2026-04-29T16:54:24.001Z</time></trkpt><trkpt lat="43.53139889634011" lon="11.060939513899207"><ele>73.0</ele><time>2026-04-29T16:54:25.001Z</time></trkpt><trkpt lat="43.53160178716967" lon="11.060708553415731"><ele>72.0</ele><time>2026-04-29T16:54:26.001Z</time></trkpt><trkpt lat="43.53180796986558" lon="11.060477117689787"><ele>71.0</ele><time>2026-04-29T16:54:27.001Z</time></trkpt><trkpt lat="43.53201710204224" lon="11.06023749625073"><ele>71.0</ele><time>2026-04-29T16:54:28.001Z</time></trkpt><trkpt lat="43.53222995829203" lon="11.05999260446975"><ele>71.0</ele><time>2026-04-29T16:54:29.001Z</time></trkpt><trkpt lat="43.53244274587388" lon="11.05973980066751"><ele>71.0</ele><time>2026-04-29T16:54:30.001Z</time></trkpt><trkpt lat="43.53265302163213" lon="11.05948064733455"><ele>71.0</ele><time>2026-04-29T16:54:31.001Z</time></trkpt><trkpt lat="43.532860807305084" lon="11.059213798849498"><ele>70.5</ele><time>2026-04-29T16:54:32.001Z</time></trkpt><trkpt lat="43.53306260267666" lon="11.058945553300113"><ele>70.0</ele><time>2026-04-29T16:54:33.001Z</time></trkpt><trkpt lat="43.53326370775263" lon="11.058680749085315"><ele>70.0</ele><time>2026-04-29T16:54:34.001Z</time></trkpt><trkpt lat="43.53346134247878" lon="11.058425347856435"><ele>70.0</ele><time>2026-04-29T16:54:35.001Z</time></trkpt><trkpt lat="43.533642145335904" lon="11.058181297196386"><ele>70.0</ele><time>2026-04-29T16:54:36.001Z</time></trkpt><trkpt lat="43.533805077659856" lon="11.057925285011109"><ele>70.0</ele><time>2026-04-29T16:54:37.001Z</time></trkpt><trkpt lat="43.533941525858836" lon="11.05764538663539"><ele>69.5</ele><time>2026-04-29T16:54:38.001Z</time></trkpt><trkpt lat="43.53404587183711" lon="11.057346331991965"><ele>69.0</ele><time>2026-04-29T16:54:39.001Z</time></trkpt><trkpt lat="43.53415112595736" lon="11.057048328854336"><ele>69.0</ele><time>2026-04-29T16:54:40.001Z</time></trkpt><trkpt lat="43.53429165900678" lon="11.056778482392005"><ele>69.0</ele><time>2026-04-29T16:54:41.001Z</time></trkpt><trkpt lat="43.534465006071116" lon="11.05652511726914"><ele>69.0</ele><time>2026-04-29T16:54:42.001Z</time></trkpt><trkpt lat="43.534665407675746" lon="11.056287922270617"><ele>69.0</ele><time>2026-04-29T16:54:43.001Z</time></trkpt><trkpt lat="43.53487167620249" lon="11.056067031135873"><ele>69.0</ele><time>2026-04-29T16:54:44.001Z</time></trkpt><trkpt lat="43.53507954131657" lon="11.055851109270634"><ele>69.0</ele><time>2026-04-29T16:54:45.002Z</time></trkpt><trkpt lat="43.53527244464646" lon="11.055647968755121"><ele>69.0</ele><time>2026-04-29T16:54:46.002Z</time></trkpt><trkpt lat="43.535455208762095" lon="11.055464557809799"><ele>69.0</ele><time>2026-04-29T16:54:47.002Z</time></trkpt><trkpt lat="43.53562030361302" lon="11.055295615927312"><ele>69.0</ele><time>2026-04-29T16:54:48.002Z</time></trkpt><trkpt lat="43.53576401544246" lon="11.055102160410977"><ele>68.66666666666667</ele><time>2026-04-29T16:54:49.002Z</time></trkpt><trkpt lat="43.53589250367289" lon="11.054848151776149"><ele>68.33333333333334</ele><time>2026-04-29T16:54:50.002Z</time></trkpt><trkpt lat="43.53601932118461" lon="11.05459766620272"><ele>68.0</ele><time>2026-04-29T16:54:51.002Z</time></trkpt><trkpt lat="43.536132793177906" lon="11.054340123468387"><ele>67.66666666666667</ele><time>2026-04-29T16:54:52.002Z</time></trkpt><trkpt lat="43.5362116016235" lon="11.054074194480922"><ele>67.33333333333333</ele><time>2026-04-29T16:54:53.002Z</time></trkpt><trkpt lat="43.53625666542839" lon="11.053795586676468"><ele>67.0</ele><time>2026-04-29T16:54:54.002Z</time></trkpt><trkpt lat="43.53627954342706" lon="11.053496430139006"><ele>74.0</ele><time>2026-04-29T16:54:55.002Z</time></trkpt><trkpt lat="43.53629433172756" lon="11.05316334052158"><ele>81.0</ele><time>2026-04-29T16:54:56.002Z</time></trkpt><trkpt lat="43.536301439219045" lon="11.052820952606396"><ele>81.0</ele><time>2026-04-29T16:54:57.002Z</time></trkpt><trkpt lat="43.53630944070253" lon="11.0524785914916"><ele>81.0</ele><time>2026-04-29T16:54:58.002Z</time></trkpt><trkpt lat="43.53631698754753" lon="11.052138361746339"><ele>81.33333333333333</ele><time>2026-04-29T16:54:59.002Z</time></trkpt><trkpt lat="43.53632702244947" lon="11.051823218218953"><ele>81.66666666666666</ele><time>2026-04-29T16:55:00.002Z</time></trkpt><trkpt lat="43.536361333641565" lon="11.051542128002147"><ele>82.0</ele><time>2026-04-29T16:55:01.002Z</time></trkpt><trkpt lat="43.53641597463052" lon="11.051258583455722"><ele>80.0</ele><time>2026-04-29T16:55:02.002Z</time></trkpt><trkpt lat="43.53649225571068" lon="11.050976794770934"><ele>78.0</ele><time>2026-04-29T16:55:03.002Z</time></trkpt><trkpt lat="43.53657886094983" lon="11.05069558751853"><ele>76.0</ele><time>2026-04-29T16:55:04.002Z</time></trkpt><trkpt lat="43.53666673033037" lon="11.05040791169555"><ele>74.0</ele><time>2026-04-29T16:55:05.002Z</time></trkpt><trkpt lat="43.536748481692825" lon="11.05011452163934"><ele>72.0</ele><time>2026-04-29T16:55:06.002Z</time></trkpt><trkpt lat="43.53682795991039" lon="11.049829701647974"><ele>70.0</ele><time>2026-04-29T16:55:07.002Z</time></trkpt><trkpt lat="43.5369035386335" lon="11.049561896851012"><ele>69.66666666666666</ele><time>2026-04-29T16:55:08.002Z</time></trkpt><trkpt lat="43.53697160845552" lon="11.049323059995404"><ele>69.33333333333333</ele><time>2026-04-29T16:55:09.002Z</time></trkpt><trkpt lat="43.53703214277522" lon="11.049104810690471"><ele>69.0</ele><time>2026-04-29T16:55:10.002Z</time></trkpt><trkpt lat="43.53708465905388" lon="11.048905899268936"><ele>69.0</ele><time>2026-04-29T16:55:11.002Z</time></trkpt><trkpt lat="43.537136047978166" lon="11.048685497518479"><ele>69.0</ele><time>2026-04-29T16:55:12.002Z</time></trkpt><trkpt lat="43.53720802249736" lon="11.048415293689706"><ele>69.0</ele><time>2026-04-29T16:55:13.002Z</time></trkpt><trkpt lat="43.537300713379935" lon="11.048167489250034"><ele>69.0</ele><time>2026-04-29T16:55:14.002Z</time></trkpt><trkpt lat="43.537400517654575" lon="11.047982109606814"><ele>69.0</ele><time>2026-04-29T16:55:15.002Z</time></trkpt><trkpt lat="43.53750733492639" lon="11.047847693318332"><ele>69.0</ele><time>2026-04-29T16:55:16.002Z</time></trkpt><trkpt lat="43.53761683371897" lon="11.047745576051563"><ele>69.0</ele><time>2026-04-29T16:55:17.002Z</time></trkpt><trkpt lat="43.53771389326016" lon="11.047654582588079"><ele>69.0</ele><time>2026-04-29T16:55:18.002Z</time></trkpt><trkpt lat="43.5377839553166" lon="11.04758516715985"><ele>69.0</ele><time>2026-04-29T16:55:19.002Z</time></trkpt><trkpt lat="43.537848827227066" lon="11.047518419027996"><ele>69.0</ele><time>2026-04-29T16:55:21.002Z</time></trkpt><trkpt lat="43.53774911088174" lon="11.04727821796055"><ele>69.0</ele><time>2026-04-29T16:55:22.002Z</time></trkpt><trkpt lat="43.53768974784353" lon="11.047135173861594"><ele>68.75</ele><time>2026-04-29T16:55:23.002Z</time></trkpt><trkpt lat="43.53765186735327" lon="11.046965934064403"><ele>68.5</ele><time>2026-04-29T16:55:24.002Z</time></trkpt><trkpt lat="43.53765232137873" lon="11.046781530935196"><ele>68.25</ele><time>2026-04-29T16:55:25.002Z</time></trkpt><trkpt lat="43.53769473998538" lon="11.046584564742194"><ele>68.0</ele><time>2026-04-29T16:55:26.002Z</time></trkpt><trkpt lat="43.53775414482421" lon="11.046376454687996"><ele>67.66666666666667</ele><time>2026-04-29T16:55:27.002Z</time></trkpt><trkpt lat="43.53781629192744" lon="11.046156731551003"><ele>67.33333333333333</ele><time>2026-04-29T16:55:28.002Z</time></trkpt><trkpt lat="43.53787441967726" lon="11.045926707220193"><ele>67.0</ele><time>2026-04-29T16:55:29.002Z</time></trkpt><trkpt lat="43.53794176673704" lon="11.04568779514939"><ele>68.33333333333333</ele><time>2026-04-29T16:55:30.002Z</time></trkpt><trkpt lat="43.53801032332251" lon="11.045455176826776"><ele>69.66666666666667</ele><time>2026-04-29T16:55:31.002Z</time></trkpt><trkpt lat="43.538076735266074" lon="11.04522995527036"><ele>71.0</ele><time>2026-04-29T16:55:32.002Z</time></trkpt><trkpt lat="43.53814613834069" lon="11.045005268484662"><ele>71.0</ele><time>2026-04-29T16:55:33.002Z</time></trkpt><trkpt lat="43.538212234452466" lon="11.04478461031651"><ele>71.0</ele><time>2026-04-29T16:55:34.002Z</time></trkpt><trkpt lat="43.53827766594297" lon="11.044571438456051"><ele>71.0</ele><time>2026-04-29T16:55:35.002Z</time></trkpt><trkpt lat="43.53834485994445" lon="11.044378610083621"><ele>71.0</ele><time>2026-04-29T16:55:36.002Z</time></trkpt><trkpt lat="43.538413130356176" lon="11.044192036014692"><ele>71.0</ele><time>2026-04-29T16:55:37.002Z</time></trkpt><trkpt lat="43.53848570039373" lon="11.044046102020518"><ele>71.0</ele><time>2026-04-29T16:55:38.002Z</time></trkpt><trkpt lat="43.53855307021446" lon="11.04391861186919"><ele>71.0</ele><time>2026-04-29T16:55:39.002Z</time></trkpt><trkpt lat="43.538637697452636" lon="11.04379678149572"><ele>71.0</ele><time>2026-04-29T16:55:40.002Z</time></trkpt><trkpt lat="43.538739792676324" lon="11.043665514682493"><ele>71.0</ele><time>2026-04-29T16:55:41.002Z</time></trkpt><trkpt lat="43.53885291919226" lon="11.043527040290142"><ele>71.0</ele><time>2026-04-29T16:55:42.002Z</time></trkpt><trkpt lat="43.538977636120364" lon="11.043384960085096"><ele>70.0</ele><time>2026-04-29T16:55:43.002Z</time></trkpt><trkpt lat="43.53910715623275" lon="11.0432439288867"><ele>69.0</ele><time>2026-04-29T16:55:44.002Z</time></trkpt><trkpt lat="43.539240024723135" lon="11.043119548391568"><ele>68.0</ele><time>2026-04-29T16:55:45.002Z</time></trkpt><trkpt lat="43.53938395338399" lon="11.043004883893405"><ele>68.0</ele><time>2026-04-29T16:55:46.002Z</time></trkpt><trkpt lat="43.53953495097665" lon="11.042895106625988"><ele>68.0</ele><time>2026-04-29T16:55:47.002Z</time></trkpt><trkpt lat="43.53969457629569" lon="11.04279755912367"><ele>68.0</ele><time>2026-04-29T16:55:48.002Z</time></trkpt><trkpt lat="43.539865074557945" lon="11.042715432122002"><ele>68.33333333333334</ele><time>2026-04-29T16:55:49.002Z</time></trkpt><trkpt lat="43.540039727027576" lon="11.042632541499902"><ele>68.66666666666667</ele><time>2026-04-29T16:55:50.002Z</time></trkpt><trkpt lat="43.54022467334021" lon="11.042553231660417"><ele>69.0</ele><time>2026-04-29T16:55:51.002Z</time></trkpt><trkpt lat="43.54040511365119" lon="11.042474173513924"><ele>68.5</ele><time>2026-04-29T16:55:52.002Z</time></trkpt><trkpt lat="43.540564890885335" lon="11.042402417396405"><ele>68.0</ele><time>2026-04-29T16:55:53.002Z</time></trkpt><trkpt lat="43.540703323739365" lon="11.042341849506041"><ele>67.5</ele><time>2026-04-29T16:55:54.002Z</time></trkpt><trkpt lat="43.54082809998624" lon="11.042283052853296"><ele>67.0</ele><time>2026-04-29T16:55:55.002Z</time></trkpt><trkpt lat="43.54095068918175" lon="11.042223608901933"><ele>67.0</ele><time>2026-04-29T16:55:56.002Z</time></trkpt><trkpt lat="43.541069380392315" lon="11.042168555150297"><ele>67.0</ele><time>2026-04-29T16:55:57.002Z</time></trkpt><trkpt lat="43.54118419644236" lon="11.04210779966018"><ele>67.0</ele><time>2026-04-29T16:55:58.002Z</time></trkpt><trkpt lat="43.54129457729785" lon="11.042054030555164"><ele>67.0</ele><time>2026-04-29T16:55:59.002Z</time></trkpt><trkpt lat="43.54138484621304" lon="11.042014033401667"><ele>67.0</ele><time>2026-04-29T16:56:00.002Z</time></trkpt><trkpt lat="43.54145970520267" lon="11.04199628890259"><ele>67.0</ele><time>2026-04-29T16:56:01.002Z</time></trkpt><trkpt lat="43.54153024593869" lon="11.041971367318066"><ele>67.0</ele><time>2026-04-29T16:56:02.001Z</time></trkpt><trkpt lat="43.541638129437736" lon="11.041926703677005"><ele>67.0</ele><time>2026-04-29T16:56:04.001Z</time></trkpt><trkpt lat="43.54172925798912" lon="11.041855612226938"><ele>67.0</ele><time>2026-04-29T16:56:06.001Z</time></trkpt><trkpt lat="43.54180591535569" lon="11.04183363978135"><ele>67.0</ele><time>2026-04-29T16:56:08.001Z</time></trkpt><trkpt lat="43.541871903298265" lon="11.041825909636268"><ele>67.0</ele><time>2026-04-29T16:56:10.001Z</time></trkpt><trkpt lat="43.54190704044378" lon="11.041745564446233"><ele>67.0</ele><time>2026-04-29T16:56:13.001Z</time></trkpt><trkpt lat="43.54201235486206" lon="11.041695115763892"><ele>67.0</ele><time>2026-04-29T16:56:15.001Z</time></trkpt><trkpt lat="43.542103918037185" lon="11.04167450901043"><ele>67.0</ele><time>2026-04-29T16:56:16.001Z</time></trkpt><trkpt lat="43.54217012566335" lon="11.041623568001766"><ele>67.0</ele><time>2026-04-29T16:56:17.001Z</time></trkpt><trkpt lat="43.54219605363586" lon="11.04153029866028"><ele>67.0</ele><time>2026-04-29T16:56:18.001Z</time></trkpt><trkpt lat="43.54216816277412" lon="11.04143089852433"><ele>67.0</ele><time>2026-04-29T16:56:19.001Z</time></trkpt><trkpt lat="43.54212557448387" lon="11.041357060227615"><ele>67.0</ele><time>2026-04-29T16:56:20.001Z</time></trkpt><trkpt lat="43.54206432425983" lon="11.041296494086861"><ele>67.0</ele><time>2026-04-29T16:56:21.001Z</time></trkpt><trkpt lat="43.54197998915909" lon="11.041278439619457"><ele>67.0</ele><time>2026-04-29T16:56:22.001Z</time></trkpt><trkpt lat="43.54190078360365" lon="11.041361126672978"><ele>67.0</ele><time>2026-04-29T16:56:23.001Z</time></trkpt><trkpt lat="43.541824489169905" lon="11.041395096825518"><ele>67.0</ele><time>2026-04-29T16:56:24.001Z</time></trkpt><trkpt lat="43.541733437758054" lon="11.041437643463821"><ele>67.0</ele><time>2026-04-29T16:56:25.001Z</time></trkpt><trkpt lat="43.541629728762295" lon="11.041494355714915"><ele>67.0</ele><time>2026-04-29T16:56:26.001Z</time></trkpt><trkpt lat="43.54152640459455" lon="11.04156992456494"><ele>67.0</ele><time>2026-04-29T16:56:27.001Z</time></trkpt><trkpt lat="43.541441721210475" lon="11.041651529568083"><ele>67.0</ele><time>2026-04-29T16:56:28.001Z</time></trkpt><trkpt lat="43.54136895314323" lon="11.041724346716244"><ele>67.0</ele><time>2026-04-29T16:56:29.001Z</time></trkpt><trkpt lat="43.541295430898444" lon="11.041755667173081"><ele>67.0</ele><time>2026-04-29T16:56:30.001Z</time></trkpt><trkpt lat="43.54122367149444" lon="11.041746661465572"><ele>67.0</ele><time>2026-04-29T16:56:31.001Z</time></trkpt><trkpt lat="43.54115944852095" lon="11.041696598837643"><ele>67.0</ele><time>2026-04-29T16:56:32.001Z</time></trkpt><trkpt lat="43.54110828660158" lon="11.041619260483532"><ele>67.0</ele><time>2026-04-29T16:56:33.001Z</time></trkpt><trkpt lat="43.541081646523374" lon="11.041521459481187"><ele>67.0</ele><time>2026-04-29T16:56:34.001Z</time></trkpt><trkpt lat="43.5410714257078" lon="11.041404644418234"><ele>67.0</ele><time>2026-04-29T16:56:35.001Z</time></trkpt><trkpt lat="43.541073064977496" lon="11.041258293101809"><ele>67.0</ele><time>2026-04-29T16:56:36.001Z</time></trkpt><trkpt lat="43.54108109189436" lon="11.041163037514135"><ele>67.0</ele><time>2026-04-29T16:56:37.001Z</time></trkpt><trkpt lat="43.541129926405674" lon="11.041081815612696"><ele>67.0</ele><time>2026-04-29T16:56:38.002Z</time></trkpt><trkpt lat="43.54120699079314" lon="11.041029252945954"><ele>67.0</ele><time>2026-04-29T16:56:39.002Z</time></trkpt><trkpt lat="43.541304230866345" lon="11.040993230872957"><ele>67.0</ele><time>2026-04-29T16:56:40.002Z</time></trkpt><trkpt lat="43.54141288523393" lon="11.040957037371607"><ele>67.0</ele><time>2026-04-29T16:56:41.001Z</time></trkpt><trkpt lat="43.541518505826645" lon="11.040922436655086"><ele>67.0</ele><time>2026-04-29T16:56:42.001Z</time></trkpt><trkpt lat="43.541621587365604" lon="11.040890165476176"><ele>67.0</ele><time>2026-04-29T16:56:43.001Z</time></trkpt><trkpt lat="43.54171240429097" lon="11.040858807028686"><ele>67.0</ele><time>2026-04-29T16:56:44.001Z</time></trkpt><trkpt lat="43.541794061791855" lon="11.040827819777647"><ele>67.0</ele><time>2026-04-29T16:56:45.001Z</time></trkpt><trkpt lat="43.54188269725735" lon="11.040773356634476"><ele>67.0</ele><time>2026-04-29T16:56:46.001Z</time></trkpt><trkpt lat="43.541960860616896" lon="11.040681488772332"><ele>67.0</ele><time>2026-04-29T16:56:47.001Z</time></trkpt><trkpt lat="43.542016016676406" lon="11.040556911650778"><ele>67.0</ele><time>2026-04-29T16:56:48.001Z</time></trkpt><trkpt lat="43.542037314379996" lon="11.04041343912514"><ele>67.0</ele><time>2026-04-29T16:56:49.001Z</time></trkpt><trkpt lat="43.542023584868765" lon="11.040264062026997"><ele>67.0</ele><time>2026-04-29T16:56:50.001Z</time></trkpt><trkpt lat="43.541979487076674" lon="11.04011613463237"><ele>67.0</ele><time>2026-04-29T16:56:51.001Z</time></trkpt><trkpt lat="43.541930314329115" lon="11.039974225560043"><ele>67.16666666666666</ele><time>2026-04-29T16:56:52.001Z</time></trkpt><trkpt lat="43.541888488977456" lon="11.039836424723585"><ele>67.33333333333333</ele><time>2026-04-29T16:56:53.001Z</time></trkpt><trkpt lat="43.54185470153652" lon="11.039709069471769"><ele>67.5</ele><time>2026-04-29T16:56:54.001Z</time></trkpt><trkpt lat="43.541826739973246" lon="11.039590665419384"><ele>67.66666666666667</ele><time>2026-04-29T16:56:55.001Z</time></trkpt><trkpt lat="43.541800719638765" lon="11.03948212954624"><ele>67.83333333333334</ele><time>2026-04-29T16:56:56.001Z</time></trkpt><trkpt lat="43.541779279602544" lon="11.039397875759766"><ele>68.0</ele><time>2026-04-29T16:56:57.001Z</time></trkpt><trkpt lat="43.541766757132486" lon="11.039310718778443"><ele>68.0</ele><time>2026-04-29T16:56:58.001Z</time></trkpt><trkpt lat="43.54177277963496" lon="11.039201265618876"><ele>68.0</ele><time>2026-04-29T16:56:59.001Z</time></trkpt><trkpt lat="43.54180744488222" lon="11.039100758296115"><ele>68.0</ele><time>2026-04-29T16:57:00.001Z</time></trkpt><trkpt lat="43.5418676166683" lon="11.039035687065985"><ele>68.0</ele><time>2026-04-29T16:57:01.001Z</time></trkpt><trkpt lat="43.54195328379931" lon="11.038994565077251"><ele>68.0</ele><time>2026-04-29T16:57:02.001Z</time></trkpt><trkpt lat="43.542056016566086" lon="11.038965083269034"><ele>68.0</ele><time>2026-04-29T16:57:03.001Z</time></trkpt><trkpt lat="43.5421761832747" lon="11.03892505112841"><ele>68.5</ele><time>2026-04-29T16:57:04.001Z</time></trkpt><trkpt lat="43.54230616081088" lon="11.03886383698956"><ele>69.0</ele><time>2026-04-29T16:57:05.001Z</time></trkpt><trkpt lat="43.5424496183047" lon="11.03881871382818"><ele>69.5</ele><time>2026-04-29T16:57:06.001Z</time></trkpt><trkpt lat="43.542587572207374" lon="11.038756533955159"><ele>70.0</ele><time>2026-04-29T16:57:07.001Z</time></trkpt><trkpt lat="43.54272153822066" lon="11.038697560023161"><ele>70.0</ele><time>2026-04-29T16:57:08.001Z</time></trkpt><trkpt lat="43.54286031682178" lon="11.038639531605684"><ele>70.0</ele><time>2026-04-29T16:57:09.001Z</time></trkpt><trkpt lat="43.543001055233965" lon="11.038574315740618"><ele>70.0</ele><time>2026-04-29T16:57:10.001Z</time></trkpt><trkpt lat="43.54315013339211" lon="11.038519998793358"><ele>70.0</ele><time>2026-04-29T16:57:11.001Z</time></trkpt><trkpt lat="43.54330214346102" lon="11.038449988012554"><ele>70.0</ele><time>2026-04-29T16:57:12.001Z</time></trkpt><trkpt lat="43.54344855090097" lon="11.038387866180907"><ele>70.0</ele><time>2026-04-29T16:57:13.001Z</time></trkpt><trkpt lat="43.54359851219016" lon="11.038322488401736"><ele>70.0</ele><time>2026-04-29T16:57:14.001Z</time></trkpt><trkpt lat="43.54374451923617" lon="11.038280509474856"><ele>69.66666666666666</ele><time>2026-04-29T16:57:15.001Z</time></trkpt><trkpt lat="43.54388529782993" lon="11.038223645953641"><ele>69.33333333333333</ele><time>2026-04-29T16:57:16.001Z</time></trkpt><trkpt lat="43.54403146652827" lon="11.038164605560002"><ele>69.0</ele><time>2026-04-29T16:57:17.001Z</time></trkpt><trkpt lat="43.54418373884259" lon="11.038082757155372"><ele>69.0</ele><time>2026-04-29T16:57:18.001Z</time></trkpt><trkpt lat="43.544342278518144" lon="11.038025444217503"><ele>69.0</ele><time>2026-04-29T16:57:19.001Z</time></trkpt><trkpt lat="43.54450263114899" lon="11.03796085193493"><ele>69.0</ele><time>2026-04-29T16:57:20.001Z</time></trkpt><trkpt lat="43.54465753345036" lon="11.037900574128676"><ele>69.0</ele><time>2026-04-29T16:57:21.001Z</time></trkpt><trkpt lat="43.54479840739211" lon="11.037846321771045"><ele>69.0</ele><time>2026-04-29T16:57:22.001Z</time></trkpt><trkpt lat="43.54491748981222" lon="11.037798190950708"><ele>69.0</ele><time>2026-04-29T16:57:23.001Z</time></trkpt><trkpt lat="43.545021076772855" lon="11.037759781593111"><ele>69.0</ele><time>2026-04-29T16:57:24.001Z</time></trkpt><trkpt lat="43.54509599688942" lon="11.0377278046291"><ele>69.0</ele><time>2026-04-29T16:57:25.001Z</time></trkpt><trkpt lat="43.54516929915001" lon="11.037702554302538"><ele>69.0</ele><time>2026-04-29T16:57:27.001Z</time></trkpt><trkpt lat="43.54515404425162" lon="11.037472024997143"><ele>69.0</ele><time>2026-04-29T16:57:30.001Z</time></trkpt><trkpt lat="43.545113297110476" lon="11.037298410653465"><ele>69.0</ele><time>2026-04-29T16:57:31.001Z</time></trkpt><trkpt lat="43.5450768732058" lon="11.03710829652856"><ele>68.66666666666667</ele><time>2026-04-29T16:57:32.001Z</time></trkpt><trkpt lat="43.545038817459854" lon="11.036904126457978"><ele>68.33333333333334</ele><time>2026-04-29T16:57:33.001Z</time></trkpt><trkpt lat="43.545002609964534" lon="11.036681586978885"><ele>68.0</ele><time>2026-04-29T16:57:34.001Z</time></trkpt><trkpt lat="43.544977586282556" lon="11.036458036466042"><ele>68.0</ele><time>2026-04-29T16:57:35.001Z</time></trkpt><trkpt lat="43.54495318026456" lon="11.036242264307901"><ele>68.0</ele><time>2026-04-29T16:57:36.001Z</time></trkpt><trkpt lat="43.544916191942114" lon="11.036046421288306"><ele>68.0</ele><time>2026-04-29T16:57:37.001Z</time></trkpt><trkpt lat="43.54487190200829" lon="11.035874582965317"><ele>68.0</ele><time>2026-04-29T16:57:38.001Z</time></trkpt><trkpt lat="43.54484210831767" lon="11.035728039608856"><ele>67.4</ele><time>2026-04-29T16:57:39.001Z</time></trkpt><trkpt lat="43.54483179563233" lon="11.035613318402891"><ele>66.8</ele><time>2026-04-29T16:57:40.001Z</time></trkpt><trkpt lat="43.544858558828004" lon="11.035510647388747"><ele>66.2</ele><time>2026-04-29T16:57:42.001Z</time></trkpt><trkpt lat="43.54492074721174" lon="11.035436365937361"><ele>65.6</ele><time>2026-04-29T16:57:46.001Z</time></trkpt><trkpt lat="43.54507691864538" lon="11.035415108893496"><ele>65.0</ele><time>2026-04-29T16:57:48.001Z</time></trkpt><trkpt lat="43.5451928776698" lon="11.035431358072495"><ele>65.0</ele><time>2026-04-29T16:57:49.001Z</time></trkpt><trkpt lat="43.54532062089062" lon="11.035446511723947"><ele>65.0</ele><time>2026-04-29T16:57:50.001Z</time></trkpt><trkpt lat="43.54546112145734" lon="11.035461590495956"><ele>65.0</ele><time>2026-04-29T16:57:51.001Z</time></trkpt><trkpt lat="43.54561264842891" lon="11.03548094260571"><ele>65.0</ele><time>2026-04-29T16:57:52.001Z</time></trkpt><trkpt lat="43.54577146884492" lon="11.035497549506205"><ele>64.66666666666667</ele><time>2026-04-29T16:57:53.001Z</time></trkpt><trkpt lat="43.54593358711892" lon="11.035498848539353"><ele>64.33333333333333</ele><time>2026-04-29T16:57:54.001Z</time></trkpt><trkpt lat="43.546105519597525" lon="11.035475071092586"><ele>64.0</ele><time>2026-04-29T16:57:55.001Z</time></trkpt><trkpt lat="43.54628638413746" lon="11.035429320983472"><ele>64.0</ele><time>2026-04-29T16:57:56.001Z</time></trkpt><trkpt lat="43.54646817019056" lon="11.035370682208312"><ele>64.0</ele><time>2026-04-29T16:57:57.001Z</time></trkpt><trkpt lat="43.546639947161175" lon="11.035293034972858"><ele>64.0</ele><time>2026-04-29T16:57:58.001Z</time></trkpt><trkpt lat="43.5468053163706" lon="11.035192148365775"><ele>64.0</ele><time>2026-04-29T16:57:59Z</time></trkpt><trkpt lat="43.54696276754573" lon="11.035074876826283"><ele>64.0</ele><time>2026-04-29T16:58:00Z</time></trkpt><trkpt lat="43.54711798256436" lon="11.034953804534796"><ele>64.0</ele><time>2026-04-29T16:58:01.001Z</time></trkpt><trkpt lat="43.547276441585566" lon="11.034844871799514"><ele>64.0</ele><time>2026-04-29T16:58:02Z</time></trkpt><trkpt lat="43.547445769088725" lon="11.034745006026814"><ele>64.0</ele><time>2026-04-29T16:58:03Z</time></trkpt><trkpt lat="43.547621696232" lon="11.034664310192579"><ele>64.0</ele><time>2026-04-29T16:58:04Z</time></trkpt><trkpt lat="43.547795987167014" lon="11.03459885381419"><ele>64.33333333333333</ele><time>2026-04-29T16:58:05Z</time></trkpt><trkpt lat="43.54797771523927" lon="11.034546307598097"><ele>64.66666666666667</ele><time>2026-04-29T16:58:06Z</time></trkpt><trkpt lat="43.54815885028854" lon="11.034511012127515"><ele>65.0</ele><time>2026-04-29T16:58:07Z</time></trkpt><trkpt lat="43.548346201100905" lon="11.034478312770993"><ele>65.0</ele><time>2026-04-29T16:58:08Z</time></trkpt><trkpt lat="43.548514802471566" lon="11.03443741655575"><ele>65.0</ele><time>2026-04-29T16:58:09Z</time></trkpt><trkpt lat="43.548665418998716" lon="11.034382652252232"><ele>65.0</ele><time>2026-04-29T16:58:10Z</time></trkpt><trkpt lat="43.548809779875185" lon="11.03429970764769"><ele>65.0</ele><time>2026-04-29T16:58:11Z</time></trkpt><trkpt lat="43.54894715738086" lon="11.034179121006119"><ele>65.0</ele><time>2026-04-29T16:58:12Z</time></trkpt><trkpt lat="43.5490845735219" lon="11.03405386708271"><ele>65.0</ele><time>2026-04-29T16:58:13Z</time></trkpt><trkpt lat="43.54922733434879" lon="11.0339274707241"><ele>65.0</ele><time>2026-04-29T16:58:14Z</time></trkpt><trkpt lat="43.54936301634905" lon="11.03380593308541"><ele>65.0</ele><time>2026-04-29T16:58:15Z</time></trkpt><trkpt lat="43.5494968737949" lon="11.033682156771563"><ele>65.0</ele><time>2026-04-29T16:58:16Z</time></trkpt><trkpt lat="43.54962249792185" lon="11.03357267559751"><ele>65.0</ele><time>2026-04-29T16:58:17Z</time></trkpt><trkpt lat="43.549736743290666" lon="11.033472154791538"><ele>65.0</ele><time>2026-04-29T16:58:18Z</time></trkpt><trkpt lat="43.54983177342589" lon="11.03338387443498"><ele>65.0</ele><time>2026-04-29T16:58:19Z</time></trkpt><trkpt lat="43.549914593975465" lon="11.03332255239912"><ele>65.0</ele><time>2026-04-29T16:58:20Z</time></trkpt><trkpt lat="43.55001257117971" lon="11.033283466604114"><ele>65.0</ele><time>2026-04-29T16:58:21Z</time></trkpt><trkpt lat="43.55011508534516" lon="11.033264112001373"><ele>64.83333333333334</ele><time>2026-04-29T16:58:22Z</time></trkpt><trkpt lat="43.55020893127917" lon="11.03322260736773"><ele>64.66666666666667</ele><time>2026-04-29T16:58:23Z</time></trkpt><trkpt lat="43.55027424486604" lon="11.033135760293996"><ele>64.5</ele><time>2026-04-29T16:58:24Z</time></trkpt><trkpt lat="43.550296144402964" lon="11.033017202672822"><ele>64.33333333333333</ele><time>2026-04-29T16:58:25Z</time></trkpt><trkpt lat="43.55027704898328" lon="11.032912753337879"><ele>64.16666666666666</ele><time>2026-04-29T16:58:26Z</time></trkpt><trkpt lat="43.55021167519651" lon="11.032839971001911"><ele>64.0</ele><time>2026-04-29T16:58:27Z</time></trkpt><trkpt lat="43.550127598442415" lon="11.032790635806135"><ele>63.99999999999999</ele><time>2026-04-29T16:58:28Z</time></trkpt><trkpt lat="43.550052887358135" lon="11.032720826104653"><ele>64.0</ele><time>2026-04-29T16:58:29Z</time></trkpt><trkpt lat="43.549996060309546" lon="11.032612886609089"><ele>64.0</ele><time>2026-04-29T16:58:30Z</time></trkpt><trkpt lat="43.5499841004534" lon="11.032501473846871"><ele>64.0</ele><time>2026-04-29T16:58:31Z</time></trkpt><trkpt lat="43.55001534042204" lon="11.03240570875572"><ele>63.99999999999999</ele><time>2026-04-29T16:58:32Z</time></trkpt><trkpt lat="43.55009551661793" lon="11.03235400720136"><ele>64.0</ele><time>2026-04-29T16:58:33Z</time></trkpt><trkpt lat="43.55018220008787" lon="11.032359674517659"><ele>63.800000000000004</ele><time>2026-04-29T16:58:34Z</time></trkpt><trkpt lat="43.55026335932332" lon="11.032425177195668"><ele>63.60000000000001</ele><time>2026-04-29T16:58:35Z</time></trkpt><trkpt lat="43.55035994929841" lon="11.032421541764156"><ele>63.4</ele><time>2026-04-29T16:58:36Z</time></trkpt><trkpt lat="43.55046562632969" lon="11.032400237374063"><ele>63.2</ele><time>2026-04-29T16:58:37Z</time></trkpt><trkpt lat="43.55057445322449" lon="11.032317386700905"><ele>63.0</ele><time>2026-04-29T16:58:38Z</time></trkpt><trkpt lat="43.55066476801551" lon="11.032196466968161"><ele>63.0</ele><time>2026-04-29T16:58:39Z</time></trkpt><trkpt lat="43.55074506993055" lon="11.032049899518897"><ele>63.0</ele><time>2026-04-29T16:58:40Z</time></trkpt><trkpt lat="43.550828098503594" lon="11.031897643127817"><ele>63.0</ele><time>2026-04-29T16:58:41Z</time></trkpt><trkpt lat="43.55091327760972" lon="11.031743436377296"><ele>63.0</ele><time>2026-04-29T16:58:42Z</time></trkpt><trkpt lat="43.5509974945215" lon="11.031593604461007"><ele>62.75</ele><time>2026-04-29T16:58:43Z</time></trkpt><trkpt lat="43.5510799297988" lon="11.031446651105231"><ele>62.5</ele><time>2026-04-29T16:58:44Z</time></trkpt><trkpt lat="43.551159076335715" lon="11.031307706799973"><ele>62.25</ele><time>2026-04-29T16:58:45Z</time></trkpt><trkpt lat="43.551242573632415" lon="11.031185729029264"><ele>62.0</ele><time>2026-04-29T16:58:46Z</time></trkpt><trkpt lat="43.55133740177317" lon="11.031104708932135"><ele>61.6</ele><time>2026-04-29T16:58:47Z</time></trkpt><trkpt lat="43.55143956594037" lon="11.031081508031788"><ele>61.2</ele><time>2026-04-29T16:58:48Z</time></trkpt><trkpt lat="43.551529114180816" lon="11.031122515628365"><ele>60.8</ele><time>2026-04-29T16:58:49Z</time></trkpt><trkpt lat="43.551599479035396" lon="11.031211389615853"><ele>60.4</ele><time>2026-04-29T16:58:50Z</time></trkpt><trkpt lat="43.5516546839185" lon="11.031299129475709"><ele>60.0</ele><time>2026-04-29T16:58:51Z</time></trkpt><trkpt lat="43.551701789261514" lon="11.03138287964246"><ele>60.0</ele><time>2026-04-29T16:58:52Z</time></trkpt><trkpt lat="43.55173680349277" lon="11.031468574662101"><ele>60.0</ele><time>2026-04-29T16:58:53Z</time></trkpt><trkpt lat="43.551779158692284" lon="11.031557924350313"><ele>60.0</ele><time>2026-04-29T16:58:54.001Z</time></trkpt><trkpt lat="43.55182938026982" lon="11.031652141750516"><ele>60.0</ele><time>2026-04-29T16:58:55.001Z</time></trkpt><trkpt lat="43.551883469134395" lon="11.031745207483956"><ele>60.0</ele><time>2026-04-29T16:58:56.001Z</time></trkpt><trkpt lat="43.55193930937131" lon="11.031848044265205"><ele>60.0</ele><time>2026-04-29T16:58:57.001Z</time></trkpt><trkpt lat="43.55200465078003" lon="11.031963759175392"><ele>60.5</ele><time>2026-04-29T16:58:58.001Z</time></trkpt><trkpt lat="43.55207731221188" lon="11.032095617494631"><ele>61.0</ele><time>2026-04-29T16:58:59.001Z</time></trkpt><trkpt lat="43.55215845339338" lon="11.032243578994233"><ele>61.5</ele><time>2026-04-29T16:59:00.001Z</time></trkpt><trkpt lat="43.55223219535143" lon="11.03241085544682"><ele>62.0</ele><time>2026-04-29T16:59:01.001Z</time></trkpt><trkpt lat="43.55231761085707" lon="11.032569926331169"><ele>62.2</ele><time>2026-04-29T16:59:02.001Z</time></trkpt><trkpt lat="43.55238881066899" lon="11.032702523232953"><ele>62.400000000000006</ele><time>2026-04-29T16:59:03.001Z</time></trkpt><trkpt lat="43.552437457676525" lon="11.032793119261596"><ele>62.599999999999994</ele><time>2026-04-29T16:59:04.001Z</time></trkpt><trkpt lat="43.55252239254302" lon="11.0329219206511"><ele>62.8</ele><time>2026-04-29T16:59:06.001Z</time></trkpt><trkpt lat="43.55256160614642" lon="11.032996061654371"><ele>63.0</ele><time>2026-04-29T16:59:07.001Z</time></trkpt><trkpt lat="43.552601715137165" lon="11.033101629315544"><ele>63.0</ele><time>2026-04-29T16:59:09.001Z</time></trkpt><trkpt lat="43.552669804441834" lon="11.033164508700372"><ele>63.0</ele><time>2026-04-29T16:59:56.001Z</time></trkpt><trkpt lat="43.552617093461286" lon="11.033250057399991"><ele>63.0</ele><time>2026-04-29T16:59:57.001Z</time></trkpt><trkpt lat="43.55258369440016" lon="11.03336104677363"><ele>63.0</ele><time>2026-04-29T16:59:58.001Z</time></trkpt><trkpt lat="43.55254833488881" lon="11.033483389692453"><ele>63.0</ele><time>2026-04-29T16:59:59.001Z</time></trkpt><trkpt lat="43.5525331404365" lon="11.033588640370903"><ele>63.0</ele><time>2026-04-29T17:00:00.001Z</time></trkpt><trkpt lat="43.55250815022175" lon="11.03367814615923"><ele>63.4</ele><time>2026-04-29T17:00:01.001Z</time></trkpt><trkpt lat="43.552464536977745" lon="11.033763229424242"><ele>63.8</ele><time>2026-04-29T17:00:02.001Z</time></trkpt><trkpt lat="43.552456027703315" lon="11.033852004909406"><ele>64.2</ele><time>2026-04-29T17:00:03.001Z</time></trkpt><trkpt lat="43.55240307847882" lon="11.033991214686793"><ele>64.6</ele><time>2026-04-29T17:00:05Z</time></trkpt><trkpt lat="43.55249739597155" lon="11.034121511639398"><ele>65.0</ele><time>2026-04-29T17:00:06Z</time></trkpt><trkpt lat="43.55254694167417" lon="11.03425049434014"><ele>65.2</ele><time>2026-04-29T17:00:07Z</time></trkpt><trkpt lat="43.55259596921884" lon="11.034400151586627"><ele>65.4</ele><time>2026-04-29T17:00:08Z</time></trkpt><trkpt lat="43.55264745755964" lon="11.034538754361735"><ele>65.6</ele><time>2026-04-29T17:00:09Z</time></trkpt><trkpt lat="43.55268738461848" lon="11.034659543307146"><ele>65.8</ele><time>2026-04-29T17:00:10Z</time></trkpt><trkpt lat="43.55272167782569" lon="11.034755285064278"><ele>66.0</ele><time>2026-04-29T17:00:11Z</time></trkpt><trkpt lat="43.552757940654686" lon="11.034858986010413"><ele>66.0</ele><time>2026-04-29T17:00:13Z</time></trkpt><trkpt lat="43.55275964939783" lon="11.034987440856835"><ele>66.0</ele><time>2026-04-29T17:00:17Z</time></trkpt><trkpt lat="43.55266693922467" lon="11.035055428053827"><ele>66.0</ele><time>2026-04-29T17:00:19Z</time></trkpt><trkpt lat="43.552577700456325" lon="11.03511546171195"><ele>66.0</ele><time>2026-04-29T17:00:20Z</time></trkpt><trkpt lat="43.55247752162573" lon="11.035180340771923"><ele>66.0</ele><time>2026-04-29T17:00:21Z</time></trkpt><trkpt lat="43.552368542587914" lon="11.035255723454107"><ele>66.0</ele><time>2026-04-29T17:00:22Z</time></trkpt><trkpt lat="43.552272740900925" lon="11.035326353863345"><ele>66.0</ele><time>2026-04-29T17:00:23Z</time></trkpt><trkpt lat="43.55215462746764" lon="11.035402985696397"><ele>66.0</ele><time>2026-04-29T17:00:24Z</time></trkpt><trkpt lat="43.55203244303473" lon="11.035482047258224"><ele>66.0</ele><time>2026-04-29T17:00:25Z</time></trkpt><trkpt lat="43.55190551720591" lon="11.03556448633848"><ele>66.25</ele><time>2026-04-29T17:00:26Z</time></trkpt><trkpt lat="43.55178218618578" lon="11.035647460926041"><ele>66.5</ele><time>2026-04-29T17:00:27Z</time></trkpt><trkpt lat="43.551668469825614" lon="11.035724655321916"><ele>66.75</ele><time>2026-04-29T17:00:28Z</time></trkpt><trkpt lat="43.551561203990985" lon="11.035795293722563"><ele>67.0</ele><time>2026-04-29T17:00:29Z</time></trkpt><trkpt lat="43.55146201308008" lon="11.035863967315382"><ele>67.25</ele><time>2026-04-29T17:00:30Z</time></trkpt><trkpt lat="43.551354786176056" lon="11.035945759689973"><ele>67.5</ele><time>2026-04-29T17:00:31Z</time></trkpt><trkpt lat="43.55124052735753" lon="11.03602733982359"><ele>67.75</ele><time>2026-04-29T17:00:32Z</time></trkpt><trkpt lat="43.55112501890229" lon="11.03610349322086"><ele>68.0</ele><time>2026-04-29T17:00:33Z</time></trkpt><trkpt lat="43.551018074581165" lon="11.036163768433623"><ele>68.0</ele><time>2026-04-29T17:00:34Z</time></trkpt><trkpt lat="43.5509141596502" lon="11.036226078851582"><ele>68.0</ele><time>2026-04-29T17:00:35Z</time></trkpt><trkpt lat="43.550800553493566" lon="11.036307043452084"><ele>68.0</ele><time>2026-04-29T17:00:36Z</time></trkpt><trkpt lat="43.55068358569841" lon="11.036387176379655"><ele>68.0</ele><time>2026-04-29T17:00:37Z</time></trkpt><trkpt lat="43.55056850681982" lon="11.036459394411372"><ele>68.0</ele><time>2026-04-29T17:00:38Z</time></trkpt><trkpt lat="43.55045562169601" lon="11.036529494492507"><ele>68.0</ele><time>2026-04-29T17:00:39Z</time></trkpt><trkpt lat="43.55034748362219" lon="11.036603090386588"><ele>68.0</ele><time>2026-04-29T17:00:40Z</time></trkpt><trkpt lat="43.55023708076935" lon="11.03667989871136"><ele>68.0</ele><time>2026-04-29T17:00:41Z</time></trkpt><trkpt lat="43.55011660078457" lon="11.036756950163946"><ele>68.25</ele><time>2026-04-29T17:00:42Z</time></trkpt><trkpt lat="43.54999257886895" lon="11.036833863960604"><ele>68.5</ele><time>2026-04-29T17:00:43Z</time></trkpt><trkpt lat="43.54986368827836" lon="11.036914589529983"><ele>68.75</ele><time>2026-04-29T17:00:44Z</time></trkpt><trkpt lat="43.549736743362956" lon="11.036977156072547"><ele>69.0</ele><time>2026-04-29T17:00:45Z</time></trkpt><trkpt lat="43.549629789955596" lon="11.037046423156225"><ele>69.25</ele><time>2026-04-29T17:00:46Z</time></trkpt><trkpt lat="43.549515513574896" lon="11.037121393305467"><ele>69.5</ele><time>2026-04-29T17:00:47Z</time></trkpt><trkpt lat="43.54939275567887" lon="11.037218466608687"><ele>69.75</ele><time>2026-04-29T17:00:48Z</time></trkpt><trkpt lat="43.54925832207344" lon="11.037297311974319"><ele>70.0</ele><time>2026-04-29T17:00:49Z</time></trkpt><trkpt lat="43.54912296458316" lon="11.037378639511179"><ele>70.0</ele><time>2026-04-29T17:00:50Z</time></trkpt><trkpt lat="43.5489884518492" lon="11.037463902736937"><ele>70.0</ele><time>2026-04-29T17:00:51Z</time></trkpt><trkpt lat="43.548853606188956" lon="11.037546798588224"><ele>70.0</ele><time>2026-04-29T17:00:52Z</time></trkpt><trkpt lat="43.548721414487154" lon="11.03762880941697"><ele>70.0</ele><time>2026-04-29T17:00:53Z</time></trkpt><trkpt lat="43.54858951391606" lon="11.03769150724303"><ele>70.2</ele><time>2026-04-29T17:00:54Z</time></trkpt><trkpt lat="43.548482905773724" lon="11.037759600274704"><ele>70.4</ele><time>2026-04-29T17:00:55Z</time></trkpt><trkpt lat="43.54838682008553" lon="11.037821170148229"><ele>70.6</ele><time>2026-04-29T17:00:56Z</time></trkpt><trkpt lat="43.548297658873096" lon="11.037878302928032"><ele>70.8</ele><time>2026-04-29T17:00:57Z</time></trkpt><trkpt lat="43.548211367355805" lon="11.037933596853577"><ele>71.0</ele><time>2026-04-29T17:00:58Z</time></trkpt><trkpt lat="43.54813307283748" lon="11.037983766472374"><ele>71.0</ele><time>2026-04-29T17:00:59Z</time></trkpt><trkpt lat="43.5480544371018" lon="11.038034154714008"><ele>71.0</ele><time>2026-04-29T17:01:00Z</time></trkpt><trkpt lat="43.547972900598495" lon="11.03808642028863"><ele>71.0</ele><time>2026-04-29T17:01:01Z</time></trkpt><trkpt lat="43.54788666544163" lon="11.038141699659873"><ele>71.0</ele><time>2026-04-29T17:01:02Z</time></trkpt><trkpt lat="43.54780370492913" lon="11.038194879884106"><ele>71.0</ele><time>2026-04-29T17:01:03Z</time></trkpt><trkpt lat="43.54772688552819" lon="11.038244123445004"><ele>71.0</ele><time>2026-04-29T17:01:04Z</time></trkpt><trkpt lat="43.547650977658634" lon="11.038292782712679"><ele>71.0</ele><time>2026-04-29T17:01:05Z</time></trkpt><trkpt lat="43.54757806898008" lon="11.038339519399555"><ele>71.0</ele><time>2026-04-29T17:01:06Z</time></trkpt><trkpt lat="43.54751479926341" lon="11.03840369833995"><ele>71.0</ele><time>2026-04-29T17:01:07Z</time></trkpt><trkpt lat="43.54744266646305" lon="11.038439506214775"><ele>71.0</ele><time>2026-04-29T17:01:08Z</time></trkpt><trkpt lat="43.54736796783621" lon="11.038491206427471"><ele>71.0</ele><time>2026-04-29T17:01:09Z</time></trkpt><trkpt lat="43.547281386088244" lon="11.038541599496"><ele>71.0</ele><time>2026-04-29T17:01:10Z</time></trkpt><trkpt lat="43.547189668125775" lon="11.038603997902422"><ele>71.0</ele><time>2026-04-29T17:01:11Z</time></trkpt><trkpt lat="43.54709501482244" lon="11.038670785328703"><ele>71.0</ele><time>2026-04-29T17:01:12Z</time></trkpt><trkpt lat="43.5469993963687" lon="11.038738512996686"><ele>71.0</ele><time>2026-04-29T17:01:13Z</time></trkpt><trkpt lat="43.54690086426099" lon="11.038805591455247"><ele>71.0</ele><time>2026-04-29T17:01:14Z</time></trkpt><trkpt lat="43.54679608130927" lon="11.038852639936106"><ele>71.0</ele><time>2026-04-29T17:01:15Z</time></trkpt><trkpt lat="43.54672857550573" lon="11.038897946949184"><ele>71.0</ele><time>2026-04-29T17:01:16Z</time></trkpt><trkpt lat="43.54666736020888" lon="11.038941847386479"><ele>71.0</ele><time>2026-04-29T17:01:17Z</time></trkpt><trkpt lat="43.546589140599544" lon="11.038995802549838"><ele>71.0</ele><time>2026-04-29T17:01:18Z</time></trkpt><trkpt lat="43.546508319646726" lon="11.039069678411137"><ele>71.0</ele><time>2026-04-29T17:01:19Z</time></trkpt><trkpt lat="43.54642382924695" lon="11.039135644125427"><ele>71.0</ele><time>2026-04-29T17:01:20Z</time></trkpt><trkpt lat="43.546334595869475" lon="11.039189170774925"><ele>71.0</ele><time>2026-04-29T17:01:21Z</time></trkpt><trkpt lat="43.54624845611691" lon="11.03924495192852"><ele>70.66666666666667</ele><time>2026-04-29T17:01:22Z</time></trkpt><trkpt lat="43.546167832589404" lon="11.039297502711777"><ele>70.33333333333334</ele><time>2026-04-29T17:01:23Z</time></trkpt><trkpt lat="43.54609292782561" lon="11.039344253274992"><ele>70.0</ele><time>2026-04-29T17:01:24Z</time></trkpt><trkpt lat="43.546021124068325" lon="11.039390548354893"><ele>69.66666666666667</ele><time>2026-04-29T17:01:25Z</time></trkpt><trkpt lat="43.5459521454959" lon="11.039433068980175"><ele>69.33333333333333</ele><time>2026-04-29T17:01:26Z</time></trkpt><trkpt lat="43.5458839931809" lon="11.03947230645691"><ele>69.0</ele><time>2026-04-29T17:01:27Z</time></trkpt><trkpt lat="43.545821563850005" lon="11.039506267992353"><ele>69.0</ele><time>2026-04-29T17:01:28.001Z</time></trkpt><trkpt lat="43.54570804673305" lon="11.039553533645192"><ele>69.0</ele><time>2026-04-29T17:01:30.001Z</time></trkpt><trkpt lat="43.54564624362069" lon="11.039578745651214"><ele>69.0</ele><time>2026-04-29T17:01:31.001Z</time></trkpt><trkpt lat="43.54558086419136" lon="11.039623634066578"><ele>69.0</ele><time>2026-04-29T17:01:32.001Z</time></trkpt><trkpt lat="43.54550882763123" lon="11.0396886780167"><ele>69.0</ele><time>2026-04-29T17:01:33.001Z</time></trkpt><trkpt lat="43.54542120074737" lon="11.039739753903406"><ele>69.0</ele><time>2026-04-29T17:01:34.001Z</time></trkpt><trkpt lat="43.545308892448446" lon="11.039805669326615"><ele>68.75</ele><time>2026-04-29T17:01:35.001Z</time></trkpt><trkpt lat="43.54517380247965" lon="11.039884796824705"><ele>68.5</ele><time>2026-04-29T17:01:36.001Z</time></trkpt><trkpt lat="43.54505339350736" lon="11.039959375655926"><ele>68.25</ele><time>2026-04-29T17:01:37.001Z</time></trkpt><trkpt lat="43.544941837799044" lon="11.040034309068284"><ele>68.0</ele><time>2026-04-29T17:01:38.001Z</time></trkpt><trkpt lat="43.54482804930915" lon="11.040116071817561"><ele>68.0</ele><time>2026-04-29T17:01:39.001Z</time></trkpt><trkpt lat="43.54470183900197" lon="11.040172023863537"><ele>68.0</ele><time>2026-04-29T17:01:40.001Z</time></trkpt><trkpt lat="43.54458438982514" lon="11.040265836727066"><ele>68.0</ele><time>2026-04-29T17:01:41.001Z</time></trkpt><trkpt lat="43.54445282202834" lon="11.040344863406842"><ele>68.0</ele><time>2026-04-29T17:01:42.001Z</time></trkpt><trkpt lat="43.54432112917776" lon="11.040432726836048"><ele>68.0</ele><time>2026-04-29T17:01:43.001Z</time></trkpt><trkpt lat="43.54418589400083" lon="11.040521734164484"><ele>68.0</ele><time>2026-04-29T17:01:44.001Z</time></trkpt><trkpt lat="43.54404532873255" lon="11.04061445719091"><ele>68.0</ele><time>2026-04-29T17:01:45.001Z</time></trkpt><trkpt lat="43.543901012782946" lon="11.04070619543586"><ele>68.0</ele><time>2026-04-29T17:01:46.001Z</time></trkpt><trkpt lat="43.543757557493045" lon="11.040793385923934"><ele>68.0</ele><time>2026-04-29T17:01:47.001Z</time></trkpt><trkpt lat="43.543622379762716" lon="11.040871396544524"><ele>68.0</ele><time>2026-04-29T17:01:48.001Z</time></trkpt><trkpt lat="43.543494226920195" lon="11.040939665543158"><ele>68.0</ele><time>2026-04-29T17:01:49.001Z</time></trkpt><trkpt lat="43.54337633678873" lon="11.04100167457266"><ele>68.2</ele><time>2026-04-29T17:01:50.001Z</time></trkpt><trkpt lat="43.54326655394277" lon="11.04106131579742"><ele>68.4</ele><time>2026-04-29T17:01:51.001Z</time></trkpt><trkpt lat="43.5431631100678" lon="11.041116840350114"><ele>68.60000000000001</ele><time>2026-04-29T17:01:52.001Z</time></trkpt><trkpt lat="43.54306451017746" lon="11.041171542214554"><ele>68.8</ele><time>2026-04-29T17:01:53.001Z</time></trkpt><trkpt lat="43.542970867361994" lon="11.041224674055261"><ele>69.0</ele><time>2026-04-29T17:01:54.001Z</time></trkpt><trkpt lat="43.54288346931177" lon="11.041271905944104"><ele>69.0</ele><time>2026-04-29T17:01:55.001Z</time></trkpt><trkpt lat="43.54280258404114" lon="11.04131709034426"><ele>69.0</ele><time>2026-04-29T17:01:56.001Z</time></trkpt><trkpt lat="43.54272495556911" lon="11.041355633586662"><ele>69.0</ele><time>2026-04-29T17:01:57.001Z</time></trkpt><trkpt lat="43.54264914032941" lon="11.041402104796935"><ele>69.0</ele><time>2026-04-29T17:01:58.001Z</time></trkpt><trkpt lat="43.54256691251006" lon="11.041440848230387"><ele>69.0</ele><time>2026-04-29T17:01:59.001Z</time></trkpt><trkpt lat="43.54247650934696" lon="11.041440065201733"><ele>69.0</ele><time>2026-04-29T17:02:00.001Z</time></trkpt><trkpt lat="43.54239867937281" lon="11.041445283809315"><ele>69.0</ele><time>2026-04-29T17:02:01.001Z</time></trkpt><trkpt lat="43.542290081156914" lon="11.041469054636686"><ele>69.0</ele><time>2026-04-29T17:02:03.001Z</time></trkpt><trkpt lat="43.542201017510735" lon="11.041432779427263"><ele>69.0</ele><time>2026-04-29T17:02:05.001Z</time></trkpt><trkpt lat="43.5421400177585" lon="11.041359286514863"><ele>69.0</ele><time>2026-04-29T17:02:06.001Z</time></trkpt><trkpt lat="43.54205238391862" lon="11.04130730188555"><ele>69.0</ele><time>2026-04-29T17:02:07.001Z</time></trkpt><trkpt lat="43.5419452398966" lon="11.04135869654457"><ele>68.5</ele><time>2026-04-29T17:02:08.001Z</time></trkpt><trkpt lat="43.541841275654384" lon="11.041396991617626"><ele>68.0</ele><time>2026-04-29T17:02:09.001Z</time></trkpt><trkpt lat="43.54173746610345" lon="11.041455474930862"><ele>67.5</ele><time>2026-04-29T17:02:10.001Z</time></trkpt><trkpt lat="43.54161924412927" lon="11.041523564416316"><ele>67.0</ele><time>2026-04-29T17:02:10.999Z</time></trkpt><trkpt lat="43.541504600401794" lon="11.041606518730008"><ele>67.0</ele><time>2026-04-29T17:02:11.999Z</time></trkpt><trkpt lat="43.54140673111487" lon="11.041695451924562"><ele>67.0</ele><time>2026-04-29T17:02:12.999Z</time></trkpt><trkpt lat="43.54131810630833" lon="11.04175208047436"><ele>67.0</ele><time>2026-04-29T17:02:13.999Z</time></trkpt><trkpt lat="43.54124104914489" lon="11.041752974925584"><ele>67.0</ele><time>2026-04-29T17:02:14.999Z</time></trkpt><trkpt lat="43.54118375582743" lon="11.041702179928059"><ele>67.0</ele><time>2026-04-29T17:02:15.999Z</time></trkpt><trkpt lat="43.54113587138975" lon="11.04161818422536"><ele>67.0</ele><time>2026-04-29T17:02:16.999Z</time></trkpt><trkpt lat="43.54110397537699" lon="11.04151281651274"><ele>67.0</ele><time>2026-04-29T17:02:17.999Z</time></trkpt><trkpt lat="43.54108880067835" lon="11.041393321412759"><ele>67.0</ele><time>2026-04-29T17:02:18.999Z</time></trkpt><trkpt lat="43.54109541625459" lon="11.04127717327349"><ele>67.0</ele><time>2026-04-29T17:02:19.999Z</time></trkpt><trkpt lat="43.54111922547772" lon="11.04118192154016"><ele>67.0</ele><time>2026-04-29T17:02:20.999Z</time></trkpt><trkpt lat="43.5411600509637" lon="11.0411022118006"><ele>67.0</ele><time>2026-04-29T17:02:21.999Z</time></trkpt><trkpt lat="43.541290954223015" lon="11.041016522841774"><ele>67.0</ele><time>2026-04-29T17:02:23.999Z</time></trkpt><trkpt lat="43.54138154914637" lon="11.040994567279183"><ele>67.0</ele><time>2026-04-29T17:02:24.999Z</time></trkpt><trkpt lat="43.5414784674809" lon="11.040959475931846"><ele>67.0</ele><time>2026-04-29T17:02:25.999Z</time></trkpt><trkpt lat="43.5415703669913" lon="11.040927512041561"><ele>67.0</ele><time>2026-04-29T17:02:26.999Z</time></trkpt><trkpt lat="43.54165230419446" lon="11.040896340129994"><ele>67.0</ele><time>2026-04-29T17:02:28Z</time></trkpt><trkpt lat="43.541731269668176" lon="11.040862944113893"><ele>67.0</ele><time>2026-04-29T17:02:29Z</time></trkpt><trkpt lat="43.54180971577731" lon="11.040829557157478"><ele>67.0</ele><time>2026-04-29T17:02:30Z</time></trkpt><trkpt lat="43.541885167668404" lon="11.040781260981003"><ele>67.0</ele><time>2026-04-29T17:02:31Z</time></trkpt><trkpt lat="43.54195090347678" lon="11.040701247916614"><ele>67.0</ele><time>2026-04-29T17:02:32Z</time></trkpt><trkpt lat="43.54199997692933" lon="11.040594344660978"><ele>67.0</ele><time>2026-04-29T17:02:33Z</time></trkpt><trkpt lat="43.5420190535325" lon="11.040459483547867"><ele>67.0</ele><time>2026-04-29T17:02:34Z</time></trkpt><trkpt lat="43.54200817246974" lon="11.040312539851334"><ele>67.0</ele><time>2026-04-29T17:02:35Z</time></trkpt><trkpt lat="43.5419735684567" lon="11.040162456349217"><ele>67.0</ele><time>2026-04-29T17:02:36Z</time></trkpt><trkpt lat="43.54194242409682" lon="11.040018217573122"><ele>67.0</ele><time>2026-04-29T17:02:37Z</time></trkpt><trkpt lat="43.54190972804184" lon="11.039867578290297"><ele>67.0</ele><time>2026-04-29T17:02:38Z</time></trkpt><trkpt lat="43.54187035638303" lon="11.039731541969708"><ele>67.0</ele><time>2026-04-29T17:02:39Z</time></trkpt><trkpt lat="43.54183540655201" lon="11.039602642638759"><ele>67.16666666666666</ele><time>2026-04-29T17:02:40Z</time></trkpt><trkpt lat="43.541804577287685" lon="11.03949570329774"><ele>67.33333333333333</ele><time>2026-04-29T17:02:41Z</time></trkpt><trkpt lat="43.54178303168813" lon="11.039396828500333"><ele>67.5</ele><time>2026-04-29T17:02:42Z</time></trkpt><trkpt lat="43.54177204349819" lon="11.039235146255308"><ele>67.66666666666667</ele><time>2026-04-29T17:02:44Z</time></trkpt><trkpt lat="43.541790848561" lon="11.039151464174584"><ele>67.83333333333334</ele><time>2026-04-29T17:02:45Z</time></trkpt><trkpt lat="43.54182488132045" lon="11.039071733333577"><ele>68.0</ele><time>2026-04-29T17:02:46Z</time></trkpt><trkpt lat="43.54189114757399" lon="11.0390150006194"><ele>68.0</ele><time>2026-04-29T17:02:47Z</time></trkpt><trkpt lat="43.5419688900159" lon="11.038981635217752"><ele>68.0</ele><time>2026-04-29T17:02:48Z</time></trkpt><trkpt lat="43.54205644647673" lon="11.038989064935139"><ele>68.0</ele><time>2026-04-29T17:02:49Z</time></trkpt><trkpt lat="43.54214400410169" lon="11.03894014357548"><ele>68.0</ele><time>2026-04-29T17:02:50Z</time></trkpt><trkpt lat="43.54224116640107" lon="11.038900351637023"><ele>68.0</ele><time>2026-04-29T17:02:51Z</time></trkpt><trkpt lat="43.542345010165654" lon="11.038849411643367"><ele>68.5</ele><time>2026-04-29T17:02:52Z</time></trkpt><trkpt lat="43.5424568622517" lon="11.03880220119084"><ele>69.0</ele><time>2026-04-29T17:02:53Z</time></trkpt><trkpt lat="43.542561591229074" lon="11.03875223505714"><ele>69.5</ele><time>2026-04-29T17:02:54Z</time></trkpt><trkpt lat="43.542666351191784" lon="11.038708467550576"><ele>70.0</ele><time>2026-04-29T17:02:55Z</time></trkpt><trkpt lat="43.54277523248761" lon="11.038664342692517"><ele>70.0</ele><time>2026-04-29T17:02:56Z</time></trkpt><trkpt lat="43.54287504346961" lon="11.038618408021017"><ele>70.0</ele><time>2026-04-29T17:02:57Z</time></trkpt><trkpt lat="43.54296582760324" lon="11.038573873343484"><ele>70.0</ele><time>2026-04-29T17:02:58Z</time></trkpt><trkpt lat="43.54307072224816" lon="11.038552769987392"><ele>70.0</ele><time>2026-04-29T17:02:59Z</time></trkpt><trkpt lat="43.543205113102324" lon="11.038498204339872"><ele>70.0</ele><time>2026-04-29T17:03:00Z</time></trkpt><trkpt lat="43.543370634131165" lon="11.038431504454364"><ele>70.0</ele><time>2026-04-29T17:03:01Z</time></trkpt><trkpt lat="43.5435106035631" lon="11.038360634578936"><ele>70.0</ele><time>2026-04-29T17:03:02Z</time></trkpt><trkpt lat="43.54364283501617" lon="11.038310204881395"><ele>70.0</ele><time>2026-04-29T17:03:03Z</time></trkpt><trkpt lat="43.54377304259167" lon="11.038251937989386"><ele>70.0</ele><time>2026-04-29T17:03:04Z</time></trkpt><trkpt lat="43.54391603407552" lon="11.038193236630146"><ele>69.66666666666666</ele><time>2026-04-29T17:03:05Z</time></trkpt><trkpt lat="43.544058698419505" lon="11.038132904571464"><ele>69.33333333333333</ele><time>2026-04-29T17:03:06Z</time></trkpt><trkpt lat="43.54420792340159" lon="11.03807358926466"><ele>69.0</ele><time>2026-04-29T17:03:07Z</time></trkpt><trkpt lat="43.54435781844212" lon="11.038012284456622"><ele>69.0</ele><time>2026-04-29T17:03:08Z</time></trkpt><trkpt lat="43.54449133061366" lon="11.037983108576736"><ele>69.0</ele><time>2026-04-29T17:03:09Z</time></trkpt><trkpt lat="43.54457704960226" lon="11.03794921308372"><ele>69.0</ele><time>2026-04-29T17:03:10Z</time></trkpt><trkpt lat="43.54464012877763" lon="11.03792426996817"><ele>69.0</ele><time>2026-04-29T17:03:11Z</time></trkpt><trkpt lat="43.54472778567116" lon="11.037889608184866"><ele>69.0</ele><time>2026-04-29T17:03:13Z</time></trkpt><trkpt lat="43.54479059986979" lon="11.037864769839974"><ele>69.0</ele><time>2026-04-29T17:03:14Z</time></trkpt><trkpt lat="43.54487578602871" lon="11.037831085048051"><ele>69.0</ele><time>2026-04-29T17:03:15Z</time></trkpt><trkpt lat="43.54496553110546" lon="11.037771922058191"><ele>69.0</ele><time>2026-04-29T17:03:16Z</time></trkpt><trkpt lat="43.545035035387805" lon="11.037756891464861"><ele>69.0</ele><time>2026-04-29T17:03:17Z</time></trkpt><trkpt lat="43.545119446477365" lon="11.037720327302383"><ele>69.0</ele><time>2026-04-29T17:03:20Z</time></trkpt><trkpt lat="43.54518656857383" lon="11.037697755530274"><ele>69.0</ele><time>2026-04-29T17:03:23Z</time></trkpt><trkpt lat="43.54515239775875" lon="11.037502762224326"><ele>68.8</ele><time>2026-04-29T17:03:24Z</time></trkpt><trkpt lat="43.54512889098635" lon="11.037390041736023"><ele>68.60000000000001</ele><time>2026-04-29T17:03:25Z</time></trkpt><trkpt lat="43.54510354452411" lon="11.037258555772988"><ele>68.4</ele><time>2026-04-29T17:03:26Z</time></trkpt><trkpt lat="43.54507962686399" lon="11.037127907774142"><ele>68.2</ele><time>2026-04-29T17:03:27Z</time></trkpt><trkpt lat="43.54505902329868" lon="11.036994409248893"><ele>68.0</ele><time>2026-04-29T17:03:28Z</time></trkpt><trkpt lat="43.54503614434764" lon="11.03685356032385"><ele>68.0</ele><time>2026-04-29T17:03:29Z</time></trkpt><trkpt lat="43.545011967535316" lon="11.03670019078533"><ele>68.0</ele><time>2026-04-29T17:03:30Z</time></trkpt><trkpt lat="43.54498641335356" lon="11.036544544627601"><ele>68.0</ele><time>2026-04-29T17:03:31Z</time></trkpt><trkpt lat="43.54496240573146" lon="11.036383957426404"><ele>68.0</ele><time>2026-04-29T17:03:32Z</time></trkpt><trkpt lat="43.544938479806426" lon="11.036211518477714"><ele>68.0</ele><time>2026-04-29T17:03:33Z</time></trkpt><trkpt lat="43.54491112702436" lon="11.036033166003907"><ele>68.0</ele><time>2026-04-29T17:03:34Z</time></trkpt><trkpt lat="43.544886788474635" lon="11.035869670013007"><ele>68.0</ele><time>2026-04-29T17:03:35Z</time></trkpt><trkpt lat="43.544857098597404" lon="11.035736281546153"><ele>68.0</ele><time>2026-04-29T17:03:36Z</time></trkpt><trkpt lat="43.544844019161694" lon="11.035623621489457"><ele>68.0</ele><time>2026-04-29T17:03:37Z</time></trkpt><trkpt lat="43.54485962148022" lon="11.035525271031426"><ele>67.4</ele><time>2026-04-29T17:03:38Z</time></trkpt><trkpt lat="43.544882304830956" lon="11.035415889868352"><ele>66.8</ele><time>2026-04-29T17:03:39Z</time></trkpt><trkpt lat="43.54487950036051" lon="11.03530242529366"><ele>66.2</ele><time>2026-04-29T17:03:40Z</time></trkpt><trkpt lat="43.54484103175792" lon="11.035220933632315"><ele>65.6</ele><time>2026-04-29T17:03:41Z</time></trkpt><trkpt lat="43.54472801053196" lon="11.035208429102369"><ele>65.0</ele><time>2026-04-29T17:03:43Z</time></trkpt><trkpt lat="43.544640654083025" lon="11.035336474098587"><ele>65.0</ele><time>2026-04-29T17:03:45Z</time></trkpt><trkpt lat="43.5445936078789" lon="11.03544140429479"><ele>65.0</ele><time>2026-04-29T17:03:46Z</time></trkpt><trkpt lat="43.54451757222368" lon="11.035538102108484"><ele>65.0</ele><time>2026-04-29T17:03:47Z</time></trkpt><trkpt lat="43.54440423046865" lon="11.035624529453893"><ele>65.0</ele><time>2026-04-29T17:03:48Z</time></trkpt><trkpt lat="43.54426991631847" lon="11.035702406238755"><ele>65.0</ele><time>2026-04-29T17:03:49Z</time></trkpt><trkpt lat="43.544125842017245" lon="11.035772555805451"><ele>65.0</ele><time>2026-04-29T17:03:50Z</time></trkpt><trkpt lat="43.543975407574024" lon="11.035822934914844"><ele>65.0</ele><time>2026-04-29T17:03:51Z</time></trkpt><trkpt lat="43.54383179365507" lon="11.0358497704743"><ele>65.25</ele><time>2026-04-29T17:03:52Z</time></trkpt><trkpt lat="43.54369932578288" lon="11.035849806902656"><ele>65.5</ele><time>2026-04-29T17:03:53Z</time></trkpt><trkpt lat="43.5435655663327" lon="11.035832803245167"><ele>65.75</ele><time>2026-04-29T17:03:54Z</time></trkpt><trkpt lat="43.54342231047174" lon="11.035788283442056"><ele>66.0</ele><time>2026-04-29T17:03:55.001Z</time></trkpt><trkpt lat="43.543273912904105" lon="11.03574400863391"><ele>66.0</ele><time>2026-04-29T17:03:56.001Z</time></trkpt><trkpt lat="43.543119030284316" lon="11.035702729884738"><ele>66.0</ele><time>2026-04-29T17:03:57.001Z</time></trkpt><trkpt lat="43.54296330417257" lon="11.035663440846152"><ele>66.0</ele><time>2026-04-29T17:03:58.001Z</time></trkpt><trkpt lat="43.54281286646819" lon="11.035626272485873"><ele>66.0</ele><time>2026-04-29T17:03:59.001Z</time></trkpt><trkpt lat="43.542671026110796" lon="11.035592952934076"><ele>66.0</ele><time>2026-04-29T17:04:00.001Z</time></trkpt><trkpt lat="43.54253004638076" lon="11.035574130796103"><ele>66.0</ele><time>2026-04-29T17:04:01.001Z</time></trkpt><trkpt lat="43.542392568477915" lon="11.035580217996175"><ele>66.0</ele><time>2026-04-29T17:04:02.001Z</time></trkpt><trkpt lat="43.54225678636549" lon="11.035618110335328"><ele>66.0</ele><time>2026-04-29T17:04:03.001Z</time></trkpt><trkpt lat="43.54212357591573" lon="11.035666872559181"><ele>66.0</ele><time>2026-04-29T17:04:04.001Z</time></trkpt><trkpt lat="43.542012992607425" lon="11.035713972901082"><ele>66.0</ele><time>2026-04-29T17:04:05.001Z</time></trkpt><trkpt lat="43.54191470615847" lon="11.035758734918979"><ele>66.0</ele><time>2026-04-29T17:04:06.001Z</time></trkpt><trkpt lat="43.541818977574856" lon="11.035804749411584"><ele>65.6</ele><time>2026-04-29T17:04:07.001Z</time></trkpt><trkpt lat="43.54172335429656" lon="11.035852171036847"><ele>65.19999999999999</ele><time>2026-04-29T17:04:08.001Z</time></trkpt><trkpt lat="43.54162382263782" lon="11.035901732279804"><ele>64.80000000000001</ele><time>2026-04-29T17:04:09.001Z</time></trkpt><trkpt lat="43.54151928337728" lon="11.035959222897635"><ele>64.4</ele><time>2026-04-29T17:04:10.001Z</time></trkpt><trkpt lat="43.5414189060602" lon="11.036030651999063"><ele>64.0</ele><time>2026-04-29T17:04:11.001Z</time></trkpt><trkpt lat="43.541325829372965" lon="11.03612667313983"><ele>64.0</ele><time>2026-04-29T17:04:12.001Z</time></trkpt><trkpt lat="43.541236814019705" lon="11.036243448328"><ele>64.0</ele><time>2026-04-29T17:04:13.001Z</time></trkpt><trkpt lat="43.541177281817355" lon="11.036416258949608"><ele>64.0</ele><time>2026-04-29T17:04:14.001Z</time></trkpt><trkpt lat="43.54116066426013" lon="11.036613720912618"><ele>64.0</ele><time>2026-04-29T17:04:15.001Z</time></trkpt><trkpt lat="43.54115497586623" lon="11.036796251768209"><ele>63.75</ele><time>2026-04-29T17:04:16.001Z</time></trkpt><trkpt lat="43.541170107777674" lon="11.036970608201532"><ele>63.5</ele><time>2026-04-29T17:04:17Z</time></trkpt><trkpt lat="43.54119957604589" lon="11.037125359777987"><ele>63.25</ele><time>2026-04-29T17:04:18Z</time></trkpt><trkpt lat="43.54123812243825" lon="11.037266185787765"><ele>63.0</ele><time>2026-04-29T17:04:19Z</time></trkpt><trkpt lat="43.54127556403082" lon="11.03740651940915"><ele>64.0</ele><time>2026-04-29T17:04:20Z</time></trkpt><trkpt lat="43.54129500681265" lon="11.03756351155929"><ele>65.0</ele><time>2026-04-29T17:04:21Z</time></trkpt><trkpt lat="43.54133199013493" lon="11.03772230027281"><ele>66.0</ele><time>2026-04-29T17:04:22Z</time></trkpt><trkpt lat="43.54136974378012" lon="11.037886866963865"><ele>67.0</ele><time>2026-04-29T17:04:23Z</time></trkpt><trkpt lat="43.5414075609021" lon="11.038051710345389"><ele>67.0</ele><time>2026-04-29T17:04:24Z</time></trkpt><trkpt lat="43.54146023089928" lon="11.038209391224832"><ele>67.0</ele><time>2026-04-29T17:04:25Z</time></trkpt><trkpt lat="43.54149357193063" lon="11.038358154011073"><ele>67.0</ele><time>2026-04-29T17:04:26Z</time></trkpt><trkpt lat="43.54150869952959" lon="11.038492569722376"><ele>67.0</ele><time>2026-04-29T17:04:27Z</time></trkpt><trkpt lat="43.54154822314114" lon="11.038593354305796"><ele>67.0</ele><time>2026-04-29T17:04:28Z</time></trkpt><trkpt lat="43.5415627793837" lon="11.038685390647101"><ele>67.2</ele><time>2026-04-29T17:04:29Z</time></trkpt><trkpt lat="43.54154575519054" lon="11.038831679592828"><ele>67.4</ele><time>2026-04-29T17:04:31Z</time></trkpt><trkpt lat="43.541505203269004" lon="11.038955785526806"><ele>67.6</ele><time>2026-04-29T17:04:33Z</time></trkpt><trkpt lat="43.541428229267346" lon="11.039093253785625"><ele>67.8</ele><time>2026-04-29T17:04:35Z</time></trkpt><trkpt lat="43.54136539219351" lon="11.039139760381257"><ele>68.0</ele><time>2026-04-29T17:04:36Z</time></trkpt><trkpt lat="43.541293266098926" lon="11.03917075956262"><ele>67.66666666666667</ele><time>2026-04-29T17:04:37Z</time></trkpt><trkpt lat="43.541215579317054" lon="11.039201107023198"><ele>67.33333333333334</ele><time>2026-04-29T17:04:38Z</time></trkpt><trkpt lat="43.541142921203424" lon="11.039231610217717"><ele>67.0</ele><time>2026-04-29T17:04:39Z</time></trkpt><trkpt lat="43.5410465608119" lon="11.039279918893849"><ele>66.66666666666667</ele><time>2026-04-29T17:04:41Z</time></trkpt><trkpt lat="43.54098262533062" lon="11.03933984233761"><ele>66.33333333333333</ele><time>2026-04-29T17:05:15Z</time></trkpt><trkpt lat="43.54090194797433" lon="11.03935619119461"><ele>66.0</ele><time>2026-04-29T17:05:16Z</time></trkpt><trkpt lat="43.54080682497852" lon="11.039423070600424"><ele>66.0</ele><time>2026-04-29T17:05:17Z</time></trkpt><trkpt lat="43.54069618196053" lon="11.039441225251661"><ele>66.0</ele><time>2026-04-29T17:05:18Z</time></trkpt><trkpt lat="43.54059648808012" lon="11.039500964687079"><ele>66.0</ele><time>2026-04-29T17:05:19Z</time></trkpt><trkpt lat="43.54050123477" lon="11.039541270026499"><ele>66.0</ele><time>2026-04-29T17:05:20Z</time></trkpt><trkpt lat="43.54041573874771" lon="11.039580570902567"><ele>66.0</ele><time>2026-04-29T17:05:21Z</time></trkpt><trkpt lat="43.54031588916187" lon="11.039615516560545"><ele>66.0</ele><time>2026-04-29T17:05:23Z</time></trkpt><trkpt lat="43.54025415957632" lon="11.039636729712429"><ele>66.0</ele><time>2026-04-29T17:05:25Z</time></trkpt><trkpt lat="43.54016021396809" lon="11.039669056501852"><ele>66.0</ele><time>2026-04-29T17:05:29Z</time></trkpt><trkpt lat="43.54009175095124" lon="11.039696969908709"><ele>66.0</ele><time>2026-04-29T17:05:30Z</time></trkpt><trkpt lat="43.54000482262024" lon="11.039729788998816"><ele>66.0</ele><time>2026-04-29T17:05:31Z</time></trkpt><trkpt lat="43.53990698164249" lon="11.039778870133524"><ele>66.0</ele><time>2026-04-29T17:05:32Z</time></trkpt><trkpt lat="43.53980305122265" lon="11.03981155784517"><ele>66.0</ele><time>2026-04-29T17:05:33Z</time></trkpt><trkpt lat="43.539697636893976" lon="11.039854113302834"><ele>66.0</ele><time>2026-04-29T17:05:34Z</time></trkpt><trkpt lat="43.53958794547623" lon="11.039897860091894"><ele>66.0</ele><time>2026-04-29T17:05:35Z</time></trkpt><trkpt lat="43.539473186533876" lon="11.039941762793786"><ele>66.0</ele><time>2026-04-29T17:05:36Z</time></trkpt><trkpt lat="43.539348147345855" lon="11.039987656131059"><ele>66.0</ele><time>2026-04-29T17:05:37Z</time></trkpt><trkpt lat="43.53921704986677" lon="11.040067176882845"><ele>66.0</ele><time>2026-04-29T17:05:38Z</time></trkpt><trkpt lat="43.53907349597702" lon="11.040124308436189"><ele>66.0</ele><time>2026-04-29T17:05:39Z</time></trkpt><trkpt lat="43.5389378085196" lon="11.040175184874837"><ele>66.0</ele><time>2026-04-29T17:05:40Z</time></trkpt><trkpt lat="43.53881368037442" lon="11.040215873011647"><ele>65.5</ele><time>2026-04-29T17:05:41Z</time></trkpt><trkpt lat="43.53870149107115" lon="11.040248153301127"><ele>65.0</ele><time>2026-04-29T17:05:42Z</time></trkpt><trkpt lat="43.538607074453004" lon="11.040342866033349"><ele>64.5</ele><time>2026-04-29T17:05:43Z</time></trkpt><trkpt lat="43.53854578650962" lon="11.04050732449982"><ele>64.0</ele><time>2026-04-29T17:05:44Z</time></trkpt><trkpt lat="43.53847762917474" lon="11.040687527496983"><ele>64.25</ele><time>2026-04-29T17:05:45Z</time></trkpt><trkpt lat="43.53840590484429" lon="11.040884808310723"><ele>64.5</ele><time>2026-04-29T17:05:46Z</time></trkpt><trkpt lat="43.53833784256733" lon="11.041064961063794"><ele>64.75</ele><time>2026-04-29T17:05:47Z</time></trkpt><trkpt lat="43.53827472333603" lon="11.04122989314214"><ele>65.0</ele><time>2026-04-29T17:05:48Z</time></trkpt><trkpt lat="43.53820805822639" lon="11.04136658714839"><ele>65.0</ele><time>2026-04-29T17:05:49Z</time></trkpt><trkpt lat="43.538159452451694" lon="11.041510856657151"><ele>65.0</ele><time>2026-04-29T17:05:50Z</time></trkpt><trkpt lat="43.53813554857806" lon="11.041653389620965"><ele>65.0</ele><time>2026-04-29T17:05:51.001Z</time></trkpt><trkpt lat="43.53811550050368" lon="11.041800484687847"><ele>65.0</ele><time>2026-04-29T17:05:52.001Z</time></trkpt><trkpt lat="43.53809568474371" lon="11.041947599281128"><ele>65.0</ele><time>2026-04-29T17:05:53.001Z</time></trkpt><trkpt lat="43.53807914670846" lon="11.042101342553135"><ele>65.2</ele><time>2026-04-29T17:05:54.001Z</time></trkpt><trkpt lat="43.538063894998444" lon="11.042258405770072"><ele>65.4</ele><time>2026-04-29T17:05:55.001Z</time></trkpt><trkpt lat="43.53806683183136" lon="11.04241396163937"><ele>65.6</ele><time>2026-04-29T17:05:56.001Z</time></trkpt><trkpt lat="43.538060337671396" lon="11.042564493699276"><ele>65.8</ele><time>2026-04-29T17:05:57.001Z</time></trkpt><trkpt lat="43.53806364371086" lon="11.042715039749073"><ele>66.0</ele><time>2026-04-29T17:05:58.001Z</time></trkpt><trkpt lat="43.538068485934346" lon="11.042865091479932"><ele>66.2</ele><time>2026-04-29T17:05:59.001Z</time></trkpt><trkpt lat="43.538053067369646" lon="11.043017093902314"><ele>66.39999999999999</ele><time>2026-04-29T17:06:00.001Z</time></trkpt><trkpt lat="43.53805345393802" lon="11.043165748065938"><ele>66.6</ele><time>2026-04-29T17:06:01.001Z</time></trkpt><trkpt lat="43.538072476894015" lon="11.043311971071889"><ele>66.8</ele><time>2026-04-29T17:06:02.001Z</time></trkpt><trkpt lat="43.538074196506805" lon="11.043453378055467"><ele>67.0</ele><time>2026-04-29T17:06:03.001Z</time></trkpt><trkpt lat="43.538078068381466" lon="11.043587110744884"><ele>67.33333333333333</ele><time>2026-04-29T17:06:04.001Z</time></trkpt><trkpt lat="43.538081798950195" lon="11.043687595806967"><ele>67.66666666666666</ele><time>2026-04-29T17:06:05.001Z</time></trkpt><trkpt lat="43.53807505306934" lon="11.043833885148898"><ele>68.0</ele><time>2026-04-29T17:06:07.001Z</time></trkpt><trkpt lat="43.53800737709065" lon="11.043894875014708"><ele>68.33333333333333</ele><time>2026-04-29T17:06:09.001Z</time></trkpt><trkpt lat="43.53794481723764" lon="11.0439417307663"><ele>68.66666666666667</ele><time>2026-04-29T17:06:10.001Z</time></trkpt><trkpt lat="43.53787126922734" lon="11.04399525540973"><ele>69.0</ele><time>2026-04-29T17:06:11.001Z</time></trkpt><trkpt lat="43.53779100834947" lon="11.044046904883421"><ele>68.66666666666667</ele><time>2026-04-29T17:06:12.001Z</time></trkpt><trkpt lat="43.53770760056974" lon="11.044095805927572"><ele>68.33333333333333</ele><time>2026-04-29T17:06:13.001Z</time></trkpt><trkpt lat="43.537627343891145" lon="11.044129825596281"><ele>68.0</ele><time>2026-04-29T17:06:14.001Z</time></trkpt><trkpt lat="43.53753896343471" lon="11.044157853938964"><ele>67.66666666666666</ele><time>2026-04-29T17:06:15.001Z</time></trkpt><trkpt lat="43.5374496744859" lon="11.044181543737228"><ele>67.33333333333333</ele><time>2026-04-29T17:06:16.001Z</time></trkpt><trkpt lat="43.537358911582096" lon="11.044204773938644"><ele>67.0</ele><time>2026-04-29T17:06:17.001Z</time></trkpt><trkpt lat="43.537265791610885" lon="11.044228607419392"><ele>67.0</ele><time>2026-04-29T17:06:18.001Z</time></trkpt><trkpt lat="43.53717272698655" lon="11.044252426734694"><ele>67.0</ele><time>2026-04-29T17:06:19.001Z</time></trkpt><trkpt lat="43.53707870210039" lon="11.044276491819481"><ele>67.0</ele><time>2026-04-29T17:06:20.001Z</time></trkpt><trkpt lat="43.53698708318687" lon="11.04429994111292"><ele>67.0</ele><time>2026-04-29T17:06:21.001Z</time></trkpt><trkpt lat="43.53689656953905" lon="11.044321393044504"><ele>67.0</ele><time>2026-04-29T17:06:22.001Z</time></trkpt><trkpt lat="43.53680930734696" lon="11.044341296314384"><ele>66.83333333333333</ele><time>2026-04-29T17:06:22.999Z</time></trkpt><trkpt lat="43.53673051532927" lon="11.044359267670275"><ele>66.66666666666666</ele><time>2026-04-29T17:06:23.999Z</time></trkpt><trkpt lat="43.536663044302614" lon="11.044371654174496"><ele>66.5</ele><time>2026-04-29T17:06:24.999Z</time></trkpt><trkpt lat="43.53659847704386" lon="11.044385839553104"><ele>66.33333333333333</ele><time>2026-04-29T17:06:25.999Z</time></trkpt><trkpt lat="43.53649291151151" lon="11.044434912935444"><ele>66.16666666666667</ele><time>2026-04-29T17:06:27.999Z</time></trkpt><trkpt lat="43.53643599384478" lon="11.044543183371577"><ele>66.0</ele><time>2026-04-29T17:06:29.999Z</time></trkpt><trkpt lat="43.53646200934526" lon="11.044676186443214"><ele>66.0</ele><time>2026-04-29T17:06:31.999Z</time></trkpt><trkpt lat="43.53647295787006" lon="11.044779721583685"><ele>66.0</ele><time>2026-04-29T17:06:33.999Z</time></trkpt><trkpt lat="43.536478222762774" lon="11.044892559989696"><ele>66.0</ele><time>2026-04-29T17:06:35.999Z</time></trkpt><trkpt lat="43.536486328520645" lon="11.045014335257202"><ele>66.0</ele><time>2026-04-29T17:06:37.999Z</time></trkpt><trkpt lat="43.53640382895611" lon="11.044964460368112"><ele>66.0</ele><time>2026-04-29T17:06:46.999Z</time></trkpt><trkpt lat="43.53646729844946" lon="11.044656307883708"><ele>66.0</ele><time>2026-04-29T17:06:47.999Z</time></trkpt><trkpt lat="43.53647285719353" lon="11.044563267775107"><ele>66.0</ele><time>2026-04-29T17:06:49Z</time></trkpt><trkpt lat="43.53652613235619" lon="11.044440702851013"><ele>66.0</ele><time>2026-04-29T17:06:51Z</time></trkpt><trkpt lat="43.53666375898664" lon="11.044394496521281"><ele>66.0</ele><time>2026-04-29T17:06:53Z</time></trkpt><trkpt lat="43.536777080372346" lon="11.044383146558628"><ele>66.0</ele><time>2026-04-29T17:06:54Z</time></trkpt><trkpt lat="43.53690741741704" lon="11.044356498127984"><ele>66.0</ele><time>2026-04-29T17:06:55Z</time></trkpt><trkpt lat="43.53705049813789" lon="11.04432099254647"><ele>66.0</ele><time>2026-04-29T17:06:56Z</time></trkpt><trkpt lat="43.537204807553685" lon="11.044279463250373"><ele>66.0</ele><time>2026-04-29T17:06:57Z</time></trkpt><trkpt lat="43.53735436904565" lon="11.044240681233582"><ele>66.2</ele><time>2026-04-29T17:06:58Z</time></trkpt><trkpt lat="43.53748247506345" lon="11.044211710928106"><ele>66.39999999999999</ele><time>2026-04-29T17:06:59Z</time></trkpt><trkpt lat="43.53758694241036" lon="11.044183428949507"><ele>66.6</ele><time>2026-04-29T17:07:00Z</time></trkpt><trkpt lat="43.53768437762541" lon="11.044151454554173"><ele>66.8</ele><time>2026-04-29T17:07:01Z</time></trkpt><trkpt lat="43.537770933398285" lon="11.044113917229984"><ele>67.0</ele><time>2026-04-29T17:07:02Z</time></trkpt><trkpt lat="43.53785966555589" lon="11.04405853095427"><ele>67.4</ele><time>2026-04-29T17:07:03Z</time></trkpt><trkpt lat="43.53796265076181" lon="11.04398327986391"><ele>67.80000000000001</ele><time>2026-04-29T17:07:04Z</time></trkpt><trkpt lat="43.538045452322365" lon="11.04391367528786"><ele>68.2</ele><time>2026-04-29T17:07:05Z</time></trkpt><trkpt lat="43.53810094187977" lon="11.043852591914092"><ele>68.60000000000001</ele><time>2026-04-29T17:07:07Z</time></trkpt><trkpt lat="43.53809169780074" lon="11.043679363175707"><ele>69.0</ele><time>2026-04-29T17:07:12Z</time></trkpt><trkpt lat="43.53809658161285" lon="11.043502698112766"><ele>69.0</ele><time>2026-04-29T17:07:14Z</time></trkpt><trkpt lat="43.53807687581417" lon="11.043407111891947"><ele>69.0</ele><time>2026-04-29T17:07:15Z</time></trkpt><trkpt lat="43.53808959310589" lon="11.043303368350006"><ele>69.0</ele><time>2026-04-29T17:07:16Z</time></trkpt><trkpt lat="43.538086971901464" lon="11.043197107445776"><ele>69.0</ele><time>2026-04-29T17:07:17Z</time></trkpt><trkpt lat="43.53808621322979" lon="11.04308618956193"><ele>69.0</ele><time>2026-04-29T17:07:18Z</time></trkpt><trkpt lat="43.53807370193891" lon="11.04297576407659"><ele>69.0</ele><time>2026-04-29T17:07:19Z</time></trkpt><trkpt lat="43.53807206960579" lon="11.042871416068353"><ele>68.66666666666667</ele><time>2026-04-29T17:07:20Z</time></trkpt><trkpt lat="43.53808698634782" lon="11.042767448409597"><ele>68.33333333333333</ele><time>2026-04-29T17:07:21Z</time></trkpt><trkpt lat="43.53808655999777" lon="11.042677659133853"><ele>68.0</ele><time>2026-04-29T17:07:22Z</time></trkpt><trkpt lat="43.53807545483918" lon="11.04254184649861"><ele>67.66666666666666</ele><time>2026-04-29T17:07:24Z</time></trkpt><trkpt lat="43.53808642642869" lon="11.0426495295783"><ele>67.33333333333333</ele><time>2026-04-29T17:07:30Z</time></trkpt><trkpt lat="43.53808686161682" lon="11.04274118030183"><ele>67.0</ele><time>2026-04-29T17:07:31Z</time></trkpt><trkpt lat="43.538073763431825" lon="11.042944820771925"><ele>67.0</ele><time>2026-04-29T17:07:32Z</time></trkpt><trkpt lat="43.53807268451646" lon="11.043060866654475"><ele>67.0</ele><time>2026-04-29T17:07:33Z</time></trkpt><trkpt lat="43.53806817378475" lon="11.043182944463108"><ele>67.0</ele><time>2026-04-29T17:07:34Z</time></trkpt><trkpt lat="43.53806814291582" lon="11.043308496340046"><ele>67.0</ele><time>2026-04-29T17:07:35Z</time></trkpt><trkpt lat="43.53807133445974" lon="11.043432296569193"><ele>67.0</ele><time>2026-04-29T17:07:36Z</time></trkpt><trkpt lat="43.538077328866876" lon="11.043556900782805"><ele>67.0</ele><time>2026-04-29T17:07:37Z</time></trkpt><trkpt lat="43.538082362934674" lon="11.043663278495764"><ele>67.4</ele><time>2026-04-29T17:07:38Z</time></trkpt><trkpt lat="43.53811572739857" lon="11.043811386928395"><ele>67.80000000000001</ele><time>2026-04-29T17:07:40Z</time></trkpt><trkpt lat="43.53820551417194" lon="11.043886241418265"><ele>68.2</ele><time>2026-04-29T17:07:42Z</time></trkpt><trkpt lat="43.538306027065474" lon="11.043918009124397"><ele>68.60000000000001</ele><time>2026-04-29T17:07:44Z</time></trkpt><trkpt lat="43.53836841541029" lon="11.043795592150495"><ele>69.0</ele><time>2026-04-29T17:07:46Z</time></trkpt><trkpt lat="43.538434549250006" lon="11.043653028617438"><ele>69.0</ele><time>2026-04-29T17:07:48Z</time></trkpt><trkpt lat="43.53847842699436" lon="11.043576082160186"><ele>69.0</ele><time>2026-04-29T17:07:49Z</time></trkpt><trkpt lat="43.53853243355511" lon="11.0434910844217"><ele>69.0</ele><time>2026-04-29T17:07:50Z</time></trkpt><trkpt lat="43.53859110975066" lon="11.043403338898699"><ele>69.0</ele><time>2026-04-29T17:07:51Z</time></trkpt><trkpt lat="43.53865040543506" lon="11.04331314666408"><ele>69.0</ele><time>2026-04-29T17:07:52Z</time></trkpt><trkpt lat="43.53871109922748" lon="11.043219840048236"><ele>69.0</ele><time>2026-04-29T17:07:53Z</time></trkpt><trkpt lat="43.538769670264564" lon="11.043116285234758"><ele>68.8</ele><time>2026-04-29T17:07:54Z</time></trkpt><trkpt lat="43.538833375971414" lon="11.043010468874943"><ele>68.60000000000001</ele><time>2026-04-29T17:07:55Z</time></trkpt><trkpt lat="43.53889662885124" lon="11.042908771777789"><ele>68.4</ele><time>2026-04-29T17:07:56Z</time></trkpt><trkpt lat="43.53897749877243" lon="11.042829874410911"><ele>68.2</ele><time>2026-04-29T17:07:57Z</time></trkpt><trkpt lat="43.539044345647554" lon="11.042746217803545"><ele>68.0</ele><time>2026-04-29T17:07:58Z</time></trkpt><trkpt lat="43.539117099051744" lon="11.042660358044524"><ele>68.0</ele><time>2026-04-29T17:07:59Z</time></trkpt><trkpt lat="43.53919415375277" lon="11.042576634808183"><ele>68.0</ele><time>2026-04-29T17:08:00.001Z</time></trkpt><trkpt lat="43.53928198765932" lon="11.042488010622513"><ele>68.0</ele><time>2026-04-29T17:08:01.001Z</time></trkpt><trkpt lat="43.5393701192945" lon="11.042400611452155"><ele>68.0</ele><time>2026-04-29T17:08:02.001Z</time></trkpt><trkpt lat="43.539459757707746" lon="11.042313247825275"><ele>68.0</ele><time>2026-04-29T17:08:03.001Z</time></trkpt><trkpt lat="43.53953798320725" lon="11.042240200462015"><ele>68.0</ele><time>2026-04-29T17:08:04.001Z</time></trkpt><trkpt lat="43.53961906571645" lon="11.04216733455982"><ele>68.0</ele><time>2026-04-29T17:08:05.001Z</time></trkpt><trkpt lat="43.53969404943204" lon="11.042087775740328"><ele>68.0</ele><time>2026-04-29T17:08:06.001Z</time></trkpt><trkpt lat="43.53977165299969" lon="11.042036168047764"><ele>68.0</ele><time>2026-04-29T17:08:07.001Z</time></trkpt><trkpt lat="43.53985580052369" lon="11.042014583804429"><ele>68.0</ele><time>2026-04-29T17:08:08.001Z</time></trkpt><trkpt lat="43.53992394251975" lon="11.041976438934583"><ele>68.0</ele><time>2026-04-29T17:08:09.001Z</time></trkpt><trkpt lat="43.540015460979426" lon="11.04189249394253"><ele>68.0</ele><time>2026-04-29T17:08:11.001Z</time></trkpt><trkpt lat="43.54006033038321" lon="11.041796449780481"><ele>68.0</ele><time>2026-04-29T17:08:13.001Z</time></trkpt><trkpt lat="43.54010771466733" lon="11.041685955174332"><ele>68.0</ele><time>2026-04-29T17:08:15.001Z</time></trkpt><trkpt lat="43.540124359700364" lon="11.041598031072764"><ele>68.0</ele><time>2026-04-29T17:08:16.001Z</time></trkpt><trkpt lat="43.54016307570462" lon="11.041445065110201"><ele>68.0</ele><time>2026-04-29T17:08:18.001Z</time></trkpt><trkpt lat="43.540096861775766" lon="11.041300327245668"><ele>68.0</ele><time>2026-04-29T17:08:20.001Z</time></trkpt><trkpt lat="43.54006656092734" lon="11.041138728285903"><ele>68.0</ele><time>2026-04-29T17:08:22.001Z</time></trkpt><trkpt lat="43.540048924694766" lon="11.041020789435231"><ele>68.0</ele><time>2026-04-29T17:08:24.001Z</time></trkpt><trkpt lat="43.540107887631166" lon="11.040958305353978"><ele>68.0</ele><time>2026-04-29T17:08:28.001Z</time></trkpt><trkpt lat="43.54019067972519" lon="11.040796154736858"><ele>68.0</ele><time>2026-04-29T17:08:30Z</time></trkpt><trkpt lat="43.540264179998445" lon="11.040721890028768"><ele>68.0</ele><time>2026-04-29T17:08:31Z</time></trkpt><trkpt lat="43.540335414192455" lon="11.040624705491219"><ele>68.0</ele><time>2026-04-29T17:08:32Z</time></trkpt><trkpt lat="43.54040574093806" lon="11.04053362293896"><ele>68.0</ele><time>2026-04-29T17:08:33Z</time></trkpt><trkpt lat="43.540455942623936" lon="11.04044468879646"><ele>68.0</ele><time>2026-04-29T17:08:34Z</time></trkpt><trkpt lat="43.54050889480189" lon="11.04038392212194"><ele>68.0</ele><time>2026-04-29T17:08:35Z</time></trkpt><trkpt lat="43.54058360655388" lon="11.040318012961002"><ele>68.0</ele><time>2026-04-29T17:08:37Z</time></trkpt><trkpt lat="43.54063942417116" lon="11.040260719832963"><ele>68.0</ele><time>2026-04-29T17:08:41Z</time></trkpt><trkpt lat="43.540623097455914" lon="11.040131781382636"><ele>68.0</ele><time>2026-04-29T17:08:43Z</time></trkpt><trkpt lat="43.54059408439681" lon="11.040044429998913"><ele>68.0</ele><time>2026-04-29T17:08:44Z</time></trkpt><trkpt lat="43.54056092574379" lon="11.039946016082919"><ele>68.0</ele><time>2026-04-29T17:08:45Z</time></trkpt><trkpt lat="43.54052599610864" lon="11.039836738896957"><ele>68.0</ele><time>2026-04-29T17:08:46Z</time></trkpt><trkpt lat="43.540497172806674" lon="11.039728436083752"><ele>68.0</ele><time>2026-04-29T17:08:47Z</time></trkpt><trkpt lat="43.54047672799599" lon="11.039645701221486"><ele>67.6</ele><time>2026-04-29T17:08:48Z</time></trkpt><trkpt lat="43.540555382894496" lon="11.039540384326747"><ele>67.19999999999999</ele><time>2026-04-29T17:08:51Z</time></trkpt><trkpt lat="43.540647784054265" lon="11.039521748956416"><ele>66.8</ele><time>2026-04-29T17:08:52Z</time></trkpt><trkpt lat="43.54074829196753" lon="11.039486848435196"><ele>66.39999999999999</ele><time>2026-04-29T17:08:53Z</time></trkpt><trkpt lat="43.5408517361241" lon="11.039448796488275"><ele>66.0</ele><time>2026-04-29T17:08:54Z</time></trkpt><trkpt lat="43.54095204969853" lon="11.039394197773918"><ele>66.0</ele><time>2026-04-29T17:08:55Z</time></trkpt><trkpt lat="43.54105882836324" lon="11.039329879000444"><ele>66.0</ele><time>2026-04-29T17:08:56Z</time></trkpt><trkpt lat="43.541174749817145" lon="11.039269928733145"><ele>66.0</ele><time>2026-04-29T17:08:57Z</time></trkpt><trkpt lat="43.54129000092572" lon="11.039212803900268"><ele>66.0</ele><time>2026-04-29T17:08:58Z</time></trkpt><trkpt lat="43.541377630044906" lon="11.039179584676097"><ele>66.39999999999999</ele><time>2026-04-29T17:08:59Z</time></trkpt><trkpt lat="43.54150038261658" lon="11.039168686026548"><ele>66.8</ele><time>2026-04-29T17:09:01Z</time></trkpt><trkpt lat="43.54158070968176" lon="11.039202994937906"><ele>67.19999999999999</ele><time>2026-04-29T17:09:02Z</time></trkpt><trkpt lat="43.54167025377961" lon="11.039269009747656"><ele>67.6</ele><time>2026-04-29T17:09:03Z</time></trkpt><trkpt lat="43.54173854214575" lon="11.039361239628972"><ele>68.0</ele><time>2026-04-29T17:09:04Z</time></trkpt><trkpt lat="43.54176532552742" lon="11.039501245314307"><ele>68.0</ele><time>2026-04-29T17:09:05Z</time></trkpt><trkpt lat="43.54180550032533" lon="11.039658241146391"><ele>68.0</ele><time>2026-04-29T17:09:06Z</time></trkpt><trkpt lat="43.54185792887254" lon="11.039802022970463"><ele>68.0</ele><time>2026-04-29T17:09:07Z</time></trkpt><trkpt lat="43.54188930113719" lon="11.039943695681574"><ele>68.0</ele><time>2026-04-29T17:09:08Z</time></trkpt><trkpt lat="43.5419244454242" lon="11.040070523084529"><ele>68.0</ele><time>2026-04-29T17:09:09Z</time></trkpt><trkpt lat="43.541956264227714" lon="11.040183763185533"><ele>67.83333333333334</ele><time>2026-04-29T17:09:10Z</time></trkpt><trkpt lat="43.541980094336985" lon="11.040286536339469"><ele>67.66666666666667</ele><time>2026-04-29T17:09:11Z</time></trkpt><trkpt lat="43.541990116920445" lon="11.040373161367695"><ele>67.5</ele><time>2026-04-29T17:09:12Z</time></trkpt><trkpt lat="43.54198882728803" lon="11.040469944284574"><ele>67.33333333333333</ele><time>2026-04-29T17:09:13Z</time></trkpt><trkpt lat="43.5419671345396" lon="11.040563360785834"><ele>67.16666666666666</ele><time>2026-04-29T17:09:14Z</time></trkpt><trkpt lat="43.54188537722643" lon="11.0407024658772"><ele>67.0</ele><time>2026-04-29T17:09:16Z</time></trkpt><trkpt lat="43.54182166596813" lon="11.040764013518881"><ele>67.0</ele><time>2026-04-29T17:09:17Z</time></trkpt><trkpt lat="43.541744589086676" lon="11.040808964027777"><ele>67.0</ele><time>2026-04-29T17:09:18Z</time></trkpt><trkpt lat="43.541659161548594" lon="11.040840253997189"><ele>67.0</ele><time>2026-04-29T17:09:19Z</time></trkpt><trkpt lat="43.54157175647206" lon="11.040865778685568"><ele>67.0</ele><time>2026-04-29T17:09:20Z</time></trkpt><trkpt lat="43.54148520085252" lon="11.040896127825068"><ele>67.0</ele><time>2026-04-29T17:09:21Z</time></trkpt><trkpt lat="43.541401705808624" lon="11.040927708112449"><ele>67.0</ele><time>2026-04-29T17:09:22Z</time></trkpt><trkpt lat="43.54131904201889" lon="11.040961630336065"><ele>67.0</ele><time>2026-04-29T17:09:23Z</time></trkpt><trkpt lat="43.54124086677982" lon="11.040995887716441"><ele>67.0</ele><time>2026-04-29T17:09:24Z</time></trkpt><trkpt lat="43.54116608512893" lon="11.041030432958106"><ele>67.0</ele><time>2026-04-29T17:09:25Z</time></trkpt><trkpt lat="43.54110436102075" lon="11.041086983642423"><ele>67.0</ele><time>2026-04-29T17:09:26Z</time></trkpt><trkpt lat="43.54106205139794" lon="11.041160333267117"><ele>67.0</ele><time>2026-04-29T17:09:27Z</time></trkpt><trkpt lat="43.54103573914056" lon="11.041245423455768"><ele>67.0</ele><time>2026-04-29T17:09:28Z</time></trkpt><trkpt lat="43.54103427235074" lon="11.04134901778914"><ele>67.0</ele><time>2026-04-29T17:09:29Z</time></trkpt><trkpt lat="43.54102744879578" lon="11.041465145601888"><ele>67.0</ele><time>2026-04-29T17:09:30Z</time></trkpt><trkpt lat="43.541056644847295" lon="11.041578011443834"><ele>67.0</ele><time>2026-04-29T17:09:31Z</time></trkpt><trkpt lat="43.54109892646109" lon="11.041674397758548"><ele>67.0</ele><time>2026-04-29T17:09:32Z</time></trkpt><trkpt lat="43.541156827149756" lon="11.041749286520924"><ele>67.0</ele><time>2026-04-29T17:09:33Z</time></trkpt><trkpt lat="43.54123428148308" lon="11.041779600394916"><ele>67.0</ele><time>2026-04-29T17:09:34Z</time></trkpt><trkpt lat="43.54131118067324" lon="11.041783177039184"><ele>67.0</ele><time>2026-04-29T17:09:35Z</time></trkpt><trkpt lat="43.541379391984755" lon="11.041757296160013"><ele>67.0</ele><time>2026-04-29T17:09:36Z</time></trkpt><trkpt lat="43.541435004772595" lon="11.04170881837203"><ele>67.0</ele><time>2026-04-29T17:09:37Z</time></trkpt><trkpt lat="43.541491437512896" lon="11.041650617796147"><ele>67.0</ele><time>2026-04-29T17:09:38Z</time></trkpt><trkpt lat="43.541546121308635" lon="11.04160045140912"><ele>67.0</ele><time>2026-04-29T17:09:39Z</time></trkpt><trkpt lat="43.5416488955206" lon="11.041528024386533"><ele>67.0</ele><time>2026-04-29T17:09:41Z</time></trkpt><trkpt lat="43.54171259790364" lon="11.041511814120584"><ele>67.0</ele><time>2026-04-29T17:09:43Z</time></trkpt><trkpt lat="43.54177811614243" lon="11.041493672029437"><ele>67.0</ele><time>2026-04-29T17:09:48Z</time></trkpt><trkpt lat="43.54184864361642" lon="11.041531186733732"><ele>67.0</ele><time>2026-04-29T17:09:57.001Z</time></trkpt><trkpt lat="43.54188906102509" lon="11.04161008337746"><ele>67.0</ele><time>2026-04-29T17:09:59.001Z</time></trkpt><trkpt lat="43.541855974534045" lon="11.041746170026869"><ele>67.0</ele><time>2026-04-29T17:10:01.001Z</time></trkpt><trkpt lat="43.541787679008195" lon="11.04183727016383"><ele>67.0</ele><time>2026-04-29T17:10:03.001Z</time></trkpt><trkpt lat="43.541704994259725" lon="11.041845738115637"><ele>67.0</ele><time>2026-04-29T17:10:04.001Z</time></trkpt><trkpt lat="43.54160153969135" lon="11.041907328864289"><ele>67.0</ele><time>2026-04-29T17:10:06.001Z</time></trkpt><trkpt lat="43.54150534867254" lon="11.04192998963691"><ele>67.0</ele><time>2026-04-29T17:10:07.001Z</time></trkpt><trkpt lat="43.54138825456863" lon="11.041983216684747"><ele>67.0</ele><time>2026-04-29T17:10:08.001Z</time></trkpt><trkpt lat="43.54128012806445" lon="11.04205193057713"><ele>67.0</ele><time>2026-04-29T17:10:09.001Z</time></trkpt><trkpt lat="43.541180406064726" lon="11.042098151542529"><ele>67.0</ele><time>2026-04-29T17:10:10.001Z</time></trkpt><trkpt lat="43.54108892712988" lon="11.042117449346291"><ele>67.0</ele><time>2026-04-29T17:10:11.001Z</time></trkpt><trkpt lat="43.541012881395126" lon="11.042169909502679"><ele>67.0</ele><time>2026-04-29T17:10:12.001Z</time></trkpt><trkpt lat="43.54093347248637" lon="11.042197467086131"><ele>67.0</ele><time>2026-04-29T17:10:13.001Z</time></trkpt><trkpt lat="43.540835777780295" lon="11.042244700153189"><ele>67.0</ele><time>2026-04-29T17:10:14.001Z</time></trkpt><trkpt lat="43.54073366700689" lon="11.042302549504578"><ele>67.0</ele><time>2026-04-29T17:10:15.001Z</time></trkpt><trkpt lat="43.54062326778802" lon="11.04233031507409"><ele>67.0</ele><time>2026-04-29T17:10:16.001Z</time></trkpt><trkpt lat="43.54052933226856" lon="11.042372397534395"><ele>67.0</ele><time>2026-04-29T17:10:17.001Z</time></trkpt><trkpt lat="43.54044738755958" lon="11.04240898257062"><ele>67.0</ele><time>2026-04-29T17:10:18.001Z</time></trkpt><trkpt lat="43.540369751623516" lon="11.042443643913112"><ele>67.0</ele><time>2026-04-29T17:10:19.001Z</time></trkpt><trkpt lat="43.54029595744341" lon="11.042500250574049"><ele>67.0</ele><time>2026-04-29T17:10:20.001Z</time></trkpt><trkpt lat="43.54020909846905" lon="11.042537022660909"><ele>67.0</ele><time>2026-04-29T17:10:21.001Z</time></trkpt><trkpt lat="43.540118724591125" lon="11.04257604866335"><ele>67.4</ele><time>2026-04-29T17:10:22.001Z</time></trkpt><trkpt lat="43.5400246389844" lon="11.042620045708944"><ele>67.80000000000001</ele><time>2026-04-29T17:10:23.001Z</time></trkpt><trkpt lat="43.5399266971808" lon="11.042664573672075"><ele>68.2</ele><time>2026-04-29T17:10:24.001Z</time></trkpt><trkpt lat="43.53982367908533" lon="11.042712251562389"><ele>68.60000000000001</ele><time>2026-04-29T17:10:25.001Z</time></trkpt><trkpt lat="43.53971445000872" lon="11.042762255706068"><ele>69.0</ele><time>2026-04-29T17:10:26.001Z</time></trkpt><trkpt lat="43.53960325522539" lon="11.042817443373803"><ele>68.75</ele><time>2026-04-29T17:10:27.001Z</time></trkpt><trkpt lat="43.53949209823631" lon="11.042881461891639"><ele>68.5</ele><time>2026-04-29T17:10:28.001Z</time></trkpt><trkpt lat="43.539380321578626" lon="11.042961156142487"><ele>68.25</ele><time>2026-04-29T17:10:29.001Z</time></trkpt><trkpt lat="43.53926016779131" lon="11.043036013800537"><ele>68.0</ele><time>2026-04-29T17:10:30.001Z</time></trkpt><trkpt lat="43.53915312793603" lon="11.04316782571455"><ele>68.0</ele><time>2026-04-29T17:10:31.001Z</time></trkpt><trkpt lat="43.53903216514935" lon="11.043291510525078"><ele>68.0</ele><time>2026-04-29T17:10:32.001Z</time></trkpt><trkpt lat="43.53890507960675" lon="11.043419541400548"><ele>68.0</ele><time>2026-04-29T17:10:33.001Z</time></trkpt><trkpt lat="43.538774826737736" lon="11.043562506195322"><ele>68.33333333333334</ele><time>2026-04-29T17:10:34.001Z</time></trkpt><trkpt lat="43.53864881687901" lon="11.043717870918297"><ele>68.66666666666667</ele><time>2026-04-29T17:10:35Z</time></trkpt><trkpt lat="43.5385298529277" lon="11.043898871525645"><ele>69.0</ele><time>2026-04-29T17:10:36Z</time></trkpt><trkpt lat="43.538427656978435" lon="11.04410088505172"><ele>69.66666666666667</ele><time>2026-04-29T17:10:37Z</time></trkpt><trkpt lat="43.53832221619793" lon="11.044310479241288"><ele>70.33333333333334</ele><time>2026-04-29T17:10:38Z</time></trkpt><trkpt lat="43.538249630566646" lon="11.044555147657665"><ele>71.0</ele><time>2026-04-29T17:10:39Z</time></trkpt><trkpt lat="43.53817073871365" lon="11.044797263525199"><ele>71.0</ele><time>2026-04-29T17:10:40Z</time></trkpt><trkpt lat="43.53809891032126" lon="11.045047277935469"><ele>71.0</ele><time>2026-04-29T17:10:41Z</time></trkpt><trkpt lat="43.53802542847073" lon="11.045306409107134"><ele>71.0</ele><time>2026-04-29T17:10:42Z</time></trkpt><trkpt lat="43.5379568048065" lon="11.045559241302344"><ele>71.0</ele><time>2026-04-29T17:10:43Z</time></trkpt><trkpt lat="43.53789491600753" lon="11.045788238736648"><ele>71.0</ele><time>2026-04-29T17:10:44Z</time></trkpt><trkpt lat="43.53783377056573" lon="11.046007129392908"><ele>71.0</ele><time>2026-04-29T17:10:45Z</time></trkpt><trkpt lat="43.537777941615396" lon="11.046207963099937"><ele>70.25</ele><time>2026-04-29T17:10:46Z</time></trkpt><trkpt lat="43.5377226580223" lon="11.046394743324301"><ele>69.5</ele><time>2026-04-29T17:10:47Z</time></trkpt><trkpt lat="43.537675390892396" lon="11.04656800571149"><ele>68.75</ele><time>2026-04-29T17:10:48Z</time></trkpt><trkpt lat="43.537621526145294" lon="11.046728285872636"><ele>68.0</ele><time>2026-04-29T17:10:49Z</time></trkpt><trkpt lat="43.5375965114539" lon="11.04688834832054"><ele>68.0</ele><time>2026-04-29T17:10:50Z</time></trkpt><trkpt lat="43.53760082638982" lon="11.047037583531372"><ele>68.0</ele><time>2026-04-29T17:10:51Z</time></trkpt><trkpt lat="43.53759660480502" lon="11.04717422961031"><ele>68.0</ele><time>2026-04-29T17:10:52Z</time></trkpt><trkpt lat="43.53759681167071" lon="11.047297918227777"><ele>68.0</ele><time>2026-04-29T17:10:53Z</time></trkpt><trkpt lat="43.53759969636101" lon="11.047409486683522"><ele>68.0</ele><time>2026-04-29T17:10:54Z</time></trkpt><trkpt lat="43.53759745079522" lon="11.047505684091618"><ele>68.0</ele><time>2026-04-29T17:10:55Z</time></trkpt><trkpt lat="43.53758471947509" lon="11.04759734801429"><ele>68.16666666666667</ele><time>2026-04-29T17:10:56Z</time></trkpt><trkpt lat="43.53755874980738" lon="11.047683117476438"><ele>68.33333333333334</ele><time>2026-04-29T17:10:57Z</time></trkpt><trkpt lat="43.53751218914989" lon="11.047772944083961"><ele>68.5</ele><time>2026-04-29T17:10:58Z</time></trkpt><trkpt lat="43.53745307568601" lon="11.047852316346335"><ele>68.66666666666667</ele><time>2026-04-29T17:10:59Z</time></trkpt><trkpt lat="43.537376280581256" lon="11.047920151363513"><ele>68.83333333333333</ele><time>2026-04-29T17:11:00Z</time></trkpt><trkpt lat="43.53731160951364" lon="11.048034183853018"><ele>69.0</ele><time>2026-04-29T17:11:01Z</time></trkpt><trkpt lat="43.53726528833196" lon="11.048173028933892"><ele>69.0</ele><time>2026-04-29T17:11:02Z</time></trkpt><trkpt lat="43.53721586152512" lon="11.048320338600206"><ele>69.0</ele><time>2026-04-29T17:11:03Z</time></trkpt><trkpt lat="43.53717470385553" lon="11.04847948342038"><ele>69.0</ele><time>2026-04-29T17:11:04Z</time></trkpt><trkpt lat="43.53713254049581" lon="11.048650638291901"><ele>69.0</ele><time>2026-04-29T17:11:05Z</time></trkpt><trkpt lat="43.537073794434434" lon="11.048791251238715"><ele>68.66666666666667</ele><time>2026-04-29T17:11:06Z</time></trkpt><trkpt lat="43.53703681689786" lon="11.048919477688953"><ele>68.33333333333333</ele><time>2026-04-29T17:11:07Z</time></trkpt><trkpt lat="43.53700992374573" lon="11.049012734673859"><ele>68.0</ele><time>2026-04-29T17:11:08Z</time></trkpt><trkpt lat="43.53698410112352" lon="11.049102279394722"><ele>67.66666666666666</ele><time>2026-04-29T17:11:10Z</time></trkpt><trkpt lat="43.53694792869443" lon="11.049227713989504"><ele>67.33333333333333</ele><time>2026-04-29T17:11:15Z</time></trkpt><trkpt lat="43.53691024591025" lon="11.049358386016491"><ele>67.0</ele><time>2026-04-29T17:11:17Z</time></trkpt><trkpt lat="43.536966545330024" lon="11.049463486762411"><ele>67.0</ele><time>2026-04-29T17:11:18Z</time></trkpt><trkpt lat="43.53700432068096" lon="11.049543854473676"><ele>67.0</ele><time>2026-04-29T17:11:19Z</time></trkpt><trkpt lat="43.537057858802235" lon="11.049592149100356"><ele>67.0</ele><time>2026-04-29T17:11:20Z</time></trkpt><trkpt lat="43.53713267314703" lon="11.049625574060927"><ele>67.0</ele><time>2026-04-29T17:11:21Z</time></trkpt><trkpt lat="43.53721460700864" lon="11.049608204347013"><ele>67.0</ele><time>2026-04-29T17:11:22Z</time></trkpt><trkpt lat="43.5372944928643" lon="11.049563380305093"><ele>67.0</ele><time>2026-04-29T17:11:23Z</time></trkpt><trkpt lat="43.53737034569971" lon="11.049502476121319"><ele>67.5</ele><time>2026-04-29T17:11:24Z</time></trkpt><trkpt lat="43.53744266571763" lon="11.049415683705863"><ele>68.0</ele><time>2026-04-29T17:11:25Z</time></trkpt><trkpt lat="43.537532532701285" lon="11.049309027473322"><ele>68.5</ele><time>2026-04-29T17:11:26Z</time></trkpt><trkpt lat="43.53759023664029" lon="11.049142859202652"><ele>69.0</ele><time>2026-04-29T17:11:27Z</time></trkpt><trkpt lat="43.53762707508165" lon="11.048983312612222"><ele>69.0</ele><time>2026-04-29T17:11:28Z</time></trkpt><trkpt lat="43.537634673418744" lon="11.048814491287988"><ele>69.0</ele><time>2026-04-29T17:11:29Z</time></trkpt><trkpt lat="43.537622170264044" lon="11.048651327253188"><ele>69.0</ele><time>2026-04-29T17:11:30Z</time></trkpt><trkpt lat="43.537598975425894" lon="11.04850168690889"><ele>69.0</ele><time>2026-04-29T17:11:31Z</time></trkpt><trkpt lat="43.53756451573046" lon="11.048334671256164"><ele>69.0</ele><time>2026-04-29T17:11:32Z</time></trkpt><trkpt lat="43.53751791180928" lon="11.04817399027351"><ele>69.0</ele><time>2026-04-29T17:11:33Z</time></trkpt><trkpt lat="43.53745060538536" lon="11.04802897580436"><ele>69.0</ele><time>2026-04-29T17:11:34Z</time></trkpt><trkpt lat="43.537356910699685" lon="11.04788270113004"><ele>69.0</ele><time>2026-04-29T17:11:35Z</time></trkpt><trkpt lat="43.53723698799692" lon="11.047725473970527"><ele>69.0</ele><time>2026-04-29T17:11:36Z</time></trkpt><trkpt lat="43.5371022323512" lon="11.047531665207941"><ele>69.0</ele><time>2026-04-29T17:11:37Z</time></trkpt><trkpt lat="43.536941432476" lon="11.047288127735232"><ele>69.0</ele><time>2026-04-29T17:11:38Z</time></trkpt><trkpt lat="43.5367559296645" lon="11.047010426578419"><ele>68.5</ele><time>2026-04-29T17:11:39Z</time></trkpt><trkpt lat="43.53658524611519" lon="11.04675930443064"><ele>68.0</ele><time>2026-04-29T17:11:40Z</time></trkpt><trkpt lat="43.536436013161484" lon="11.0465241154666"><ele>68.0</ele><time>2026-04-29T17:11:41Z</time></trkpt><trkpt lat="43.53631100646425" lon="11.046283075389239"><ele>68.0</ele><time>2026-04-29T17:11:42Z</time></trkpt><trkpt lat="43.53620985594942" lon="11.046026781407528"><ele>68.0</ele><time>2026-04-29T17:11:43Z</time></trkpt><trkpt lat="43.53613611855517" lon="11.045749972810333"><ele>67.5</ele><time>2026-04-29T17:11:44Z</time></trkpt><trkpt lat="43.53609895112398" lon="11.045434698799808"><ele>67.0</ele><time>2026-04-29T17:11:45Z</time></trkpt><trkpt lat="43.53607891213532" lon="11.045089004208466"><ele>66.5</ele><time>2026-04-29T17:11:46Z</time></trkpt><trkpt lat="43.536067770074936" lon="11.044720536769187"><ele>66.0</ele><time>2026-04-29T17:11:47Z</time></trkpt><trkpt lat="43.536054847730426" lon="11.044339873915645"><ele>66.0</ele><time>2026-04-29T17:11:48Z</time></trkpt><trkpt lat="43.53603750067573" lon="11.043940900389856"><ele>66.0</ele><time>2026-04-29T17:11:49Z</time></trkpt><trkpt lat="43.53601567346714" lon="11.04354400369286"><ele>65.5</ele><time>2026-04-29T17:11:50Z</time></trkpt><trkpt lat="43.535996430131554" lon="11.043182103265329"><ele>65.0</ele><time>2026-04-29T17:11:51Z</time></trkpt><trkpt lat="43.5359696725578" lon="11.042875847074002"><ele>65.0</ele><time>2026-04-29T17:11:52Z</time></trkpt><trkpt lat="43.53591765696636" lon="11.042601572927632"><ele>65.0</ele><time>2026-04-29T17:11:53Z</time></trkpt><trkpt lat="43.535829196946956" lon="11.042343455469728"><ele>65.0</ele><time>2026-04-29T17:11:54.001Z</time></trkpt><trkpt lat="43.53571799477062" lon="11.042104710050356"><ele>65.0</ele><time>2026-04-29T17:11:55.001Z</time></trkpt><trkpt lat="43.53559145735719" lon="11.041898967694822"><ele>65.0</ele><time>2026-04-29T17:11:56.001Z</time></trkpt><trkpt lat="43.53544717986171" lon="11.04171267767729"><ele>65.0</ele><time>2026-04-29T17:11:57.001Z</time></trkpt><trkpt lat="43.53529615222545" lon="11.041536409584662"><ele>64.66666666666667</ele><time>2026-04-29T17:11:58.001Z</time></trkpt><trkpt lat="43.53515520341603" lon="11.041373463785193"><ele>64.33333333333333</ele><time>2026-04-29T17:11:59.001Z</time></trkpt><trkpt lat="43.53502951275172" lon="11.041223108730254"><ele>64.0</ele><time>2026-04-29T17:12:00.001Z</time></trkpt><trkpt lat="43.53491536449092" lon="11.041082973064395"><ele>64.0</ele><time>2026-04-29T17:12:01.001Z</time></trkpt><trkpt lat="43.5348113106701" lon="11.04095183449963"><ele>64.0</ele><time>2026-04-29T17:12:02.001Z</time></trkpt><trkpt lat="43.53471231470569" lon="11.040829883400475"><ele>64.0</ele><time>2026-04-29T17:12:03.001Z</time></trkpt><trkpt lat="43.53462709942505" lon="11.040723741523639"><ele>64.0</ele><time>2026-04-29T17:12:04.001Z</time></trkpt><trkpt lat="43.53455803852747" lon="11.040634226877684"><ele>64.4</ele><time>2026-04-29T17:12:05.001Z</time></trkpt><trkpt lat="43.53449201195389" lon="11.040549143912054"><ele>64.80000000000001</ele><time>2026-04-29T17:12:06.001Z</time></trkpt><trkpt lat="43.53444094975485" lon="11.04047933166578"><ele>65.19999999999999</ele><time>2026-04-29T17:12:07.001Z</time></trkpt><trkpt lat="43.53437230280351" lon="11.040358384622854"><ele>65.6</ele><time>2026-04-29T17:12:09.001Z</time></trkpt><trkpt lat="43.5343006756822" lon="11.04024331216286"><ele>66.0</ele><time>2026-04-29T17:12:11.001Z</time></trkpt><trkpt lat="43.53432313837973" lon="11.04011493570658"><ele>66.0</ele><time>2026-04-29T17:12:12.001Z</time></trkpt><trkpt lat="43.53432136625859" lon="11.040009522095763"><ele>66.0</ele><time>2026-04-29T17:12:13.001Z</time></trkpt><trkpt lat="43.53430716950722" lon="11.039889538210623"><ele>66.0</ele><time>2026-04-29T17:12:14.001Z</time></trkpt><trkpt lat="43.534269087615606" lon="11.039749032683146"><ele>66.0</ele><time>2026-04-29T17:12:15.001Z</time></trkpt><trkpt lat="43.53421575767908" lon="11.039644393581748"><ele>66.0</ele><time>2026-04-29T17:12:16.001Z</time></trkpt><trkpt lat="43.53414916952803" lon="11.0395538130503"><ele>66.0</ele><time>2026-04-29T17:12:17.001Z</time></trkpt><trkpt lat="43.534054944551485" lon="11.0394699184348"><ele>66.0</ele><time>2026-04-29T17:12:18.001Z</time></trkpt><trkpt lat="43.53393065434362" lon="11.039464287000092"><ele>66.0</ele><time>2026-04-29T17:12:19.001Z</time></trkpt><trkpt lat="43.53386443904132" lon="11.039220891978589"><ele>66.0</ele><time>2026-04-29T17:12:20.001Z</time></trkpt><trkpt lat="43.53382166775252" lon="11.039014176287962"><ele>66.0</ele><time>2026-04-29T17:12:21.001Z</time></trkpt><trkpt lat="43.533746527917415" lon="11.038809830542789"><ele>66.0</ele><time>2026-04-29T17:12:22.001Z</time></trkpt><trkpt lat="43.533676864710316" lon="11.038598509093537"><ele>66.0</ele><time>2026-04-29T17:12:23.001Z</time></trkpt><trkpt lat="43.53354537517754" lon="11.038413370521134"><ele>67.0</ele><time>2026-04-29T17:12:24.001Z</time></trkpt><trkpt lat="43.5333805098315" lon="11.038258913112152"><ele>68.0</ele><time>2026-04-29T17:12:25.001Z</time></trkpt><trkpt lat="43.533202234732904" lon="11.038118031009617"><ele>69.0</ele><time>2026-04-29T17:12:26.001Z</time></trkpt><trkpt lat="43.53303383423527" lon="11.037971973832832"><ele>69.0</ele><time>2026-04-29T17:12:27.001Z</time></trkpt><trkpt lat="43.53289584560274" lon="11.037817952380358"><ele>69.0</ele><time>2026-04-29T17:12:28.001Z</time></trkpt><trkpt lat="43.532791975384214" lon="11.037641664510817"><ele>69.0</ele><time>2026-04-29T17:12:29.001Z</time></trkpt><trkpt lat="43.53270702333466" lon="11.037440349348316"><ele>68.66666666666667</ele><time>2026-04-29T17:12:30.001Z</time></trkpt><trkpt lat="43.53263126045702" lon="11.037195286641097"><ele>68.33333333333334</ele><time>2026-04-29T17:12:31.001Z</time></trkpt><trkpt lat="43.532579130236044" lon="11.036931141125788"><ele>68.0</ele><time>2026-04-29T17:12:32.001Z</time></trkpt><trkpt lat="43.5325508856913" lon="11.036659561125965"><ele>68.33333333333334</ele><time>2026-04-29T17:12:33.001Z</time></trkpt><trkpt lat="43.53254812345198" lon="11.036375727276356"><ele>68.66666666666667</ele><time>2026-04-29T17:12:34.001Z</time></trkpt><trkpt lat="43.532567507297316" lon="11.036086030908438"><ele>69.0</ele><time>2026-04-29T17:12:35.001Z</time></trkpt><trkpt lat="43.53259792818657" lon="11.035788330388574"><ele>69.66666666666667</ele><time>2026-04-29T17:12:36.001Z</time></trkpt><trkpt lat="43.532630798261394" lon="11.035485729515694"><ele>70.33333333333334</ele><time>2026-04-29T17:12:37.001Z</time></trkpt><trkpt lat="43.53266620798517" lon="11.035182066996489"><ele>71.0</ele><time>2026-04-29T17:12:38.001Z</time></trkpt><trkpt lat="43.53271146837796" lon="11.034874197405344"><ele>71.5</ele><time>2026-04-29T17:12:39.001Z</time></trkpt><trkpt lat="43.5327623598011" lon="11.03456279804861"><ele>72.0</ele><time>2026-04-29T17:12:40.001Z</time></trkpt><trkpt lat="43.5328325776566" lon="11.034259708832382"><ele>71.5</ele><time>2026-04-29T17:12:41Z</time></trkpt><trkpt lat="43.5329116242838" lon="11.033958091866099"><ele>71.0</ele><time>2026-04-29T17:12:42Z</time></trkpt><trkpt lat="43.53299352507055" lon="11.033667947382499"><ele>71.0</ele><time>2026-04-29T17:12:43Z</time></trkpt><trkpt lat="43.533084115975896" lon="11.033392330675138"><ele>71.0</ele><time>2026-04-29T17:12:44Z</time></trkpt><trkpt lat="43.533181631508576" lon="11.03312114167601"><ele>71.0</ele><time>2026-04-29T17:12:45Z</time></trkpt><trkpt lat="43.5332872389321" lon="11.032850372579691"><ele>71.5</ele><time>2026-04-29T17:12:46Z</time></trkpt><trkpt lat="43.53341966257574" lon="11.032594804829829"><ele>72.0</ele><time>2026-04-29T17:12:47Z</time></trkpt><trkpt lat="43.53355189374524" lon="11.032336088860424"><ele>75.5</ele><time>2026-04-29T17:12:48Z</time></trkpt><trkpt lat="43.533693089554944" lon="11.032071575980973"><ele>79.0</ele><time>2026-04-29T17:12:49Z</time></trkpt><trkpt lat="43.53383442024513" lon="11.031803116848637"><ele>89.5</ele><time>2026-04-29T17:12:50Z</time></trkpt><trkpt lat="43.53399998693631" lon="11.031554016875722"><ele>100.0</ele><time>2026-04-29T17:12:51Z</time></trkpt><trkpt lat="43.53418020729318" lon="11.031308610244077"><ele>100.0</ele><time>2026-04-29T17:12:52Z</time></trkpt><trkpt lat="43.534369766457075" lon="11.031086439724588"><ele>100.0</ele><time>2026-04-29T17:12:53Z</time></trkpt><trkpt lat="43.53458016191267" lon="11.030845409329517"><ele>110.0</ele><time>2026-04-29T17:12:54Z</time></trkpt><trkpt lat="43.53476532504206" lon="11.030620405723704"><ele>120.0</ele><time>2026-04-29T17:12:55Z</time></trkpt><trkpt lat="43.5349759161081" lon="11.030434772102035"><ele>120.0</ele><time>2026-04-29T17:12:56Z</time></trkpt><trkpt lat="43.535182433629416" lon="11.030242400025866"><ele>120.0</ele><time>2026-04-29T17:12:57Z</time></trkpt><trkpt lat="43.535406331872096" lon="11.030044878304473"><ele>122.0</ele><time>2026-04-29T17:12:58.065Z</time></trkpt><trkpt lat="43.53561960566945" lon="11.029865365960946"><ele>124.0</ele><time>2026-04-29T17:12:59.064Z</time></trkpt><trkpt lat="43.537346476020225" lon="11.028440541599583"><ele>103.0</ele><time>2026-04-29T17:13:02.527Z</time></trkpt><trkpt lat="43.53788782761207" lon="11.028002535072543"><ele>103.0</ele><time>2026-04-29T17:13:03.524Z</time></trkpt><trkpt lat="43.53842873560164" lon="11.027554047141564"><ele>102.0</ele><time>2026-04-29T17:13:04.526Z</time></trkpt><trkpt lat="43.53894408956301" lon="11.02705583353006"><ele>98.0</ele><time>2026-04-29T17:13:05.527Z</time></trkpt><trkpt lat="43.53942752876225" lon="11.02650017826922"><ele>76.0</ele><time>2026-04-29T17:13:06.527Z</time></trkpt><trkpt lat="43.5398624" lon="11.0259519"><ele>74.0</ele><time>2026-04-29T17:13:07.526Z</time></trkpt><trkpt lat="43.54015755432382" lon="11.025644945041734"><ele>72.0</ele><time>2026-04-29T17:13:22Z</time></trkpt><trkpt lat="43.54027171157453" lon="11.02549958683801"><ele>72.0</ele><time>2026-04-29T17:13:23Z</time></trkpt><trkpt lat="43.54037151534892" lon="11.02535515160119"><ele>72.0</ele><time>2026-04-29T17:13:24Z</time></trkpt><trkpt lat="43.54047917115753" lon="11.025209209477541"><ele>72.0</ele><time>2026-04-29T17:13:25Z</time></trkpt><trkpt lat="43.540592708879075" lon="11.02506460041382"><ele>71.0</ele><time>2026-04-29T17:13:26Z</time></trkpt><trkpt lat="43.540709006220425" lon="11.024918655372124"><ele>70.0</ele><time>2026-04-29T17:13:27Z</time></trkpt><trkpt lat="43.54082263040048" lon="11.024771749144863"><ele>69.0</ele><time>2026-04-29T17:13:28Z</time></trkpt><trkpt lat="43.540938083078835" lon="11.024629437052923"><ele>69.0</ele><time>2026-04-29T17:13:29Z</time></trkpt><trkpt lat="43.54105461541428" lon="11.024477787525479"><ele>69.0</ele><time>2026-04-29T17:13:30Z</time></trkpt><trkpt lat="43.54117197877403" lon="11.024329972210175"><ele>69.0</ele><time>2026-04-29T17:13:31Z</time></trkpt><trkpt lat="43.54128917509587" lon="11.024178178642481"><ele>69.0</ele><time>2026-04-29T17:13:32Z</time></trkpt><trkpt lat="43.54140932912381" lon="11.024026362714176"><ele>69.0</ele><time>2026-04-29T17:13:33Z</time></trkpt><trkpt lat="43.54152821694936" lon="11.023872462556453"><ele>69.0</ele><time>2026-04-29T17:13:34Z</time></trkpt><trkpt lat="43.54164971396332" lon="11.023719713898101"><ele>69.0</ele><time>2026-04-29T17:13:35Z</time></trkpt><trkpt lat="43.54176993327847" lon="11.023562406553"><ele>69.0</ele><time>2026-04-29T17:13:36Z</time></trkpt><trkpt lat="43.541891073009545" lon="11.02340903116781"><ele>69.0</ele><time>2026-04-29T17:13:37Z</time></trkpt><trkpt lat="43.54201034042359" lon="11.023254632642502"><ele>71.33333333333333</ele><time>2026-04-29T17:13:38Z</time></trkpt><trkpt lat="43.54214045911501" lon="11.023099597090557"><ele>73.66666666666666</ele><time>2026-04-29T17:13:39Z</time></trkpt><trkpt lat="43.54226587780374" lon="11.02294233034881"><ele>76.0</ele><time>2026-04-29T17:13:40Z</time></trkpt><trkpt lat="43.54239432197771" lon="11.022781103244172"><ele>76.0</ele><time>2026-04-29T17:13:41Z</time></trkpt><trkpt lat="43.542530731681815" lon="11.022621631403421"><ele>76.0</ele><time>2026-04-29T17:13:42Z</time></trkpt><trkpt lat="43.542677532072084" lon="11.022472706168276"><ele>76.0</ele><time>2026-04-29T17:13:43Z</time></trkpt><trkpt lat="43.54283645831779" lon="11.022328511208608"><ele>81.0</ele><time>2026-04-29T17:13:44Z</time></trkpt><trkpt lat="43.54299763824527" lon="11.022189678813152"><ele>86.0</ele><time>2026-04-29T17:13:45Z</time></trkpt><trkpt lat="43.54316979181492" lon="11.022058407094395"><ele>91.0</ele><time>2026-04-29T17:13:46Z</time></trkpt><trkpt lat="43.54335654634688" lon="11.021936144632823"><ele>91.0</ele><time>2026-04-29T17:13:47Z</time></trkpt><trkpt lat="43.54353553084838" lon="11.021812235292629"><ele>91.0</ele><time>2026-04-29T17:13:48Z</time></trkpt><trkpt lat="43.54371975000681" lon="11.021692182298539"><ele>91.0</ele><time>2026-04-29T17:13:49Z</time></trkpt><trkpt lat="43.54390642717686" lon="11.021607472961703"><ele>96.66666666666666</ele><time>2026-04-29T17:13:50Z</time></trkpt><trkpt lat="43.544095269823195" lon="11.021530810383098"><ele>102.33333333333333</ele><time>2026-04-29T17:13:51Z</time></trkpt><trkpt lat="43.544284818930436" lon="11.021464184161196"><ele>108.0</ele><time>2026-04-29T17:13:52Z</time></trkpt><trkpt lat="43.544473783310366" lon="11.021409274426016"><ele>111.66666666666666</ele><time>2026-04-29T17:13:53Z</time></trkpt><trkpt lat="43.544678697873245" lon="11.021361572047375"><ele>115.33333333333333</ele><time>2026-04-29T17:13:54.067Z</time></trkpt><trkpt lat="43.544860066715586" lon="11.021333364933954"><ele>119.0</ele><time>2026-04-29T17:13:55.061Z</time></trkpt><trkpt lat="43.54504658086991" lon="11.021312517247214"><ele>90.0</ele><time>2026-04-29T17:13:56.062Z</time></trkpt><trkpt lat="43.54748382066494" lon="11.021434822109349"><ele>90.0</ele><time>2026-04-29T17:14:05Z</time></trkpt><trkpt lat="43.54776637100301" lon="11.02145267615533"><ele>90.0</ele><time>2026-04-29T17:14:06Z</time></trkpt><trkpt lat="43.548077156062035" lon="11.02149130118671"><ele>120.0</ele><time>2026-04-29T17:14:07Z</time></trkpt><trkpt lat="43.54927618009058" lon="11.021604367219757"><ele>72.0</ele><time>2026-04-29T17:14:11Z</time></trkpt><trkpt lat="43.55240522064293" lon="11.021725709969454"><ele>60.0</ele><time>2026-04-29T17:14:20Z</time></trkpt><trkpt lat="43.55337194163274" lon="11.021954836619448"><ele>61.0</ele><time>2026-04-29T17:14:21Z</time></trkpt><trkpt lat="43.5538520360817" lon="11.022006165991751"><ele>61.0</ele><time>2026-04-29T17:14:22Z</time></trkpt><trkpt lat="43.55419958049915" lon="11.022024102572477"><ele>61.0</ele><time>2026-04-29T17:14:23Z</time></trkpt><trkpt lat="43.55452976222892" lon="11.022012910430007"><ele>61.0</ele><time>2026-04-29T17:14:24Z</time></trkpt><trkpt lat="43.55486816981969" lon="11.021986737902097"><ele>61.0</ele><time>2026-04-29T17:14:25Z</time></trkpt><trkpt lat="43.55520879945924" lon="11.02192663922613"><ele>60.5</ele><time>2026-04-29T17:14:26Z</time></trkpt><trkpt lat="43.55554912796604" lon="11.021834854058719"><ele>60.0</ele><time>2026-04-29T17:14:27Z</time></trkpt><trkpt lat="43.55588679331413" lon="11.021718096281893"><ele>59.5</ele><time>2026-04-29T17:14:28Z</time></trkpt><trkpt lat="43.55622166417051" lon="11.021565696812251"><ele>59.0</ele><time>2026-04-29T17:14:29Z</time></trkpt><trkpt lat="43.55654834454186" lon="11.021385821983493"><ele>59.0</ele><time>2026-04-29T17:14:30.001Z</time></trkpt><trkpt lat="43.55686840415789" lon="11.021170099476036"><ele>59.0</ele><time>2026-04-29T17:14:31.001Z</time></trkpt><trkpt lat="43.557179754843396" lon="11.020929718848976"><ele>59.0</ele><time>2026-04-29T17:14:32.001Z</time></trkpt><trkpt lat="43.55747926778179" lon="11.020660245862535"><ele>59.0</ele><time>2026-04-29T17:14:33.001Z</time></trkpt><trkpt lat="43.55776170348283" lon="11.02036423731861"><ele>59.0</ele><time>2026-04-29T17:14:34.001Z</time></trkpt><trkpt lat="43.5580302772747" lon="11.020047312117264"><ele>59.0</ele><time>2026-04-29T17:14:35.001Z</time></trkpt><trkpt lat="43.55828097946384" lon="11.019708153901925"><ele>59.0</ele><time>2026-04-29T17:14:36.001Z</time></trkpt><trkpt lat="43.5585128941025" lon="11.019347878587883"><ele>59.0</ele><time>2026-04-29T17:14:37.001Z</time></trkpt><trkpt lat="43.558723905676786" lon="11.01896975218596"><ele>59.0</ele><time>2026-04-29T17:14:38.001Z</time></trkpt><trkpt lat="43.55891925996384" lon="11.018578571840335"><ele>59.0</ele><time>2026-04-29T17:14:39.001Z</time></trkpt><trkpt lat="43.5590977736747" lon="11.018210672844441"><ele>59.5</ele><time>2026-04-29T17:14:40.001Z</time></trkpt><trkpt lat="43.5592554766343" lon="11.017876531109936"><ele>60.0</ele><time>2026-04-29T17:14:41.001Z</time></trkpt><trkpt lat="43.559403176620606" lon="11.017567461860182"><ele>59.5</ele><time>2026-04-29T17:14:42.001Z</time></trkpt><trkpt lat="43.55955409991025" lon="11.017271843277207"><ele>59.0</ele><time>2026-04-29T17:14:43.001Z</time></trkpt><trkpt lat="43.55970566992541" lon="11.016949124615786"><ele>58.5</ele><time>2026-04-29T17:14:44.001Z</time></trkpt><trkpt lat="43.55986783150124" lon="11.016603688743524"><ele>58.0</ele><time>2026-04-29T17:14:45.001Z</time></trkpt><trkpt lat="43.56003836140156" lon="11.016240374061834"><ele>58.0</ele><time>2026-04-29T17:14:46.001Z</time></trkpt><trkpt lat="43.56021134101026" lon="11.015871839995027"><ele>58.0</ele><time>2026-04-29T17:14:47Z</time></trkpt><trkpt lat="43.560382156254164" lon="11.015476446813704"><ele>58.0</ele><time>2026-04-29T17:14:48Z</time></trkpt><trkpt lat="43.560568693275464" lon="11.015087513513828"><ele>58.0</ele><time>2026-04-29T17:14:49Z</time></trkpt><trkpt lat="43.560759241328824" lon="11.014685747591757"><ele>58.0</ele><time>2026-04-29T17:14:50Z</time></trkpt><trkpt lat="43.56095227134989" lon="11.014278389443135"><ele>58.0</ele><time>2026-04-29T17:14:51Z</time></trkpt><trkpt lat="43.56114808750908" lon="11.013863023486996"><ele>58.5</ele><time>2026-04-29T17:14:52Z</time></trkpt><trkpt lat="43.56134632415774" lon="11.013448725838563"><ele>59.0</ele><time>2026-04-29T17:14:53Z</time></trkpt><trkpt lat="43.56154715094247" lon="11.013029255662051"><ele>58.0</ele><time>2026-04-29T17:14:54Z</time></trkpt><trkpt lat="43.56174985526928" lon="11.01260217208062"><ele>57.0</ele><time>2026-04-29T17:14:55Z</time></trkpt><trkpt lat="43.56195116792468" lon="11.012176793424128"><ele>57.0</ele><time>2026-04-29T17:14:56Z</time></trkpt><trkpt lat="43.562158655531526" lon="11.011759902252463"><ele>57.0</ele><time>2026-04-29T17:14:57Z</time></trkpt><trkpt lat="43.56237600190757" lon="11.01135844208936"><ele>57.0</ele><time>2026-04-29T17:14:58Z</time></trkpt><trkpt lat="43.56260528069186" lon="11.01097958103163"><ele>57.0</ele><time>2026-04-29T17:14:59Z</time></trkpt><trkpt lat="43.56284553812713" lon="11.010618094461632"><ele>57.0</ele><time>2026-04-29T17:15:00Z</time></trkpt><trkpt lat="43.56309707606644" lon="11.010277257167562"><ele>57.0</ele><time>2026-04-29T17:15:01Z</time></trkpt><trkpt lat="43.56335973039615" lon="11.009953757909498"><ele>56.5</ele><time>2026-04-29T17:15:02Z</time></trkpt><trkpt lat="43.563633088628414" lon="11.009652834124305"><ele>56.0</ele><time>2026-04-29T17:15:03Z</time></trkpt><trkpt lat="43.56392340011774" lon="11.009377105456682"><ele>56.0</ele><time>2026-04-29T17:15:04Z</time></trkpt><trkpt lat="43.56421150739615" lon="11.009110371116675"><ele>56.0</ele><time>2026-04-29T17:15:05Z</time></trkpt><trkpt lat="43.56451131016771" lon="11.008849983757699"><ele>55.5</ele><time>2026-04-29T17:15:06Z</time></trkpt><trkpt lat="43.564809007064184" lon="11.008599465516882"><ele>55.0</ele><time>2026-04-29T17:15:07Z</time></trkpt><trkpt lat="43.56511513046645" lon="11.0083415685444"><ele>55.0</ele><time>2026-04-29T17:15:08Z</time></trkpt><trkpt lat="43.56542754173815" lon="11.00809555891146"><ele>55.0</ele><time>2026-04-29T17:15:09Z</time></trkpt><trkpt lat="43.56569292280863" lon="11.007831430112695"><ele>55.0</ele><time>2026-04-29T17:15:10Z</time></trkpt><trkpt lat="43.56598048269453" lon="11.007598465857981"><ele>55.0</ele><time>2026-04-29T17:15:11Z</time></trkpt><trkpt lat="43.56622524660036" lon="11.007394204641548"><ele>55.5</ele><time>2026-04-29T17:15:12Z</time></trkpt><trkpt lat="43.56645193741538" lon="11.007203922885168"><ele>56.0</ele><time>2026-04-29T17:15:13Z</time></trkpt><trkpt lat="43.56666477876409" lon="11.007052691779304"><ele>56.0</ele><time>2026-04-29T17:15:14Z</time></trkpt><trkpt lat="43.56686062224177" lon="11.006912542248457"><ele>56.0</ele><time>2026-04-29T17:15:15Z</time></trkpt><trkpt lat="43.56703765616716" lon="11.006779585501382"><ele>56.0</ele><time>2026-04-29T17:15:16Z</time></trkpt><trkpt lat="43.56721763221888" lon="11.006639107132926"><ele>56.333333333333336</ele><time>2026-04-29T17:15:17Z</time></trkpt><trkpt lat="43.567398927217255" lon="11.006523178065873"><ele>56.66666666666667</ele><time>2026-04-29T17:15:18Z</time></trkpt><trkpt lat="43.56759251702018" lon="11.006448636589536"><ele>57.0</ele><time>2026-04-29T17:15:19Z</time></trkpt><trkpt lat="43.567787433799005" lon="11.006424657161935"><ele>57.0</ele><time>2026-04-29T17:15:20Z</time></trkpt><trkpt lat="43.56796596463028" lon="11.006452672098217"><ele>57.0</ele><time>2026-04-29T17:15:21Z</time></trkpt><trkpt lat="43.56812493272938" lon="11.006527392740688"><ele>57.0</ele><time>2026-04-29T17:15:22Z</time></trkpt><trkpt lat="43.56826341866319" lon="11.006666156894838"><ele>57.0</ele><time>2026-04-29T17:15:23Z</time></trkpt><trkpt lat="43.56838329962746" lon="11.006861301672236"><ele>57.0</ele><time>2026-04-29T17:15:24Z</time></trkpt><trkpt lat="43.56846686787386" lon="11.007107331449896"><ele>57.0</ele><time>2026-04-29T17:15:25Z</time></trkpt><trkpt lat="43.56851116277792" lon="11.00737912941559"><ele>56.66666666666667</ele><time>2026-04-29T17:15:26Z</time></trkpt><trkpt lat="43.56850959190921" lon="11.007661505727432"><ele>56.333333333333336</ele><time>2026-04-29T17:15:27Z</time></trkpt><trkpt lat="43.568486553185" lon="11.007938555764797"><ele>56.0</ele><time>2026-04-29T17:15:28Z</time></trkpt><trkpt lat="43.568461378983805" lon="11.008225644389343"><ele>56.333333333333336</ele><time>2026-04-29T17:15:29Z</time></trkpt><trkpt lat="43.56843591845578" lon="11.008521045138279"><ele>56.66666666666667</ele><time>2026-04-29T17:15:30Z</time></trkpt><trkpt lat="43.56840664624843" lon="11.008814282487155"><ele>57.0</ele><time>2026-04-29T17:15:31Z</time></trkpt><trkpt lat="43.56837898422688" lon="11.009088433741027"><ele>57.33333333333333</ele><time>2026-04-29T17:15:32Z</time></trkpt><trkpt lat="43.56836881540088" lon="11.009387033948693"><ele>57.666666666666664</ele><time>2026-04-29T17:15:33Z</time></trkpt><trkpt lat="43.56833793295718" lon="11.009691319902704"><ele>58.0</ele><time>2026-04-29T17:15:34Z</time></trkpt><trkpt lat="43.568319366767724" lon="11.00998710403823"><ele>57.33333333333333</ele><time>2026-04-29T17:15:35Z</time></trkpt><trkpt lat="43.568333380267" lon="11.010266798508843"><ele>56.66666666666667</ele><time>2026-04-29T17:15:36Z</time></trkpt><trkpt lat="43.56838450996094" lon="11.010531243147913"><ele>56.0</ele><time>2026-04-29T17:15:37Z</time></trkpt><trkpt lat="43.56846639493963" lon="11.010774718697112"><ele>56.333333333333336</ele><time>2026-04-29T17:15:38Z</time></trkpt><trkpt lat="43.56857315639335" lon="11.010989546669542"><ele>56.66666666666667</ele><time>2026-04-29T17:15:39Z</time></trkpt><trkpt lat="43.56870259189451" lon="11.011177170598565"><ele>57.0</ele><time>2026-04-29T17:15:40Z</time></trkpt><trkpt lat="43.568838379102544" lon="11.011388061088232"><ele>57.0</ele><time>2026-04-29T17:15:41Z</time></trkpt><trkpt lat="43.5689876626852" lon="11.011633470799609"><ele>57.0</ele><time>2026-04-29T17:15:42Z</time></trkpt><trkpt lat="43.56914647563545" lon="11.011910978363142"><ele>57.0</ele><time>2026-04-29T17:15:43Z</time></trkpt><trkpt lat="43.569303846398334" lon="11.012163342603236"><ele>57.0</ele><time>2026-04-29T17:15:44Z</time></trkpt><trkpt lat="43.5694502469285" lon="11.012410599925879"><ele>57.33333333333333</ele><time>2026-04-29T17:15:45Z</time></trkpt><trkpt lat="43.56958516782902" lon="11.012640613687301"><ele>57.666666666666664</ele><time>2026-04-29T17:15:46Z</time></trkpt><trkpt lat="43.5697161585748" lon="11.012847436189428"><ele>58.0</ele><time>2026-04-29T17:15:47Z</time></trkpt><trkpt lat="43.569855229544444" lon="11.013057779891229"><ele>58.0</ele><time>2026-04-29T17:15:48Z</time></trkpt><trkpt lat="43.5699869338884" lon="11.013278349911666"><ele>58.0</ele><time>2026-04-29T17:15:49Z</time></trkpt><trkpt lat="43.57009973016312" lon="11.013520935223399"><ele>58.0</ele><time>2026-04-29T17:15:50Z</time></trkpt><trkpt lat="43.5702113518115" lon="11.01376904494373"><ele>58.0</ele><time>2026-04-29T17:15:51Z</time></trkpt><trkpt lat="43.57034969007909" lon="11.013994085835234"><ele>58.0</ele><time>2026-04-29T17:15:52Z</time></trkpt><trkpt lat="43.570514901793516" lon="11.01420110141906"><ele>58.0</ele><time>2026-04-29T17:15:53Z</time></trkpt><trkpt lat="43.570702512394604" lon="11.01438318771505"><ele>57.5</ele><time>2026-04-29T17:15:54.001Z</time></trkpt><trkpt lat="43.5709077034137" lon="11.014541543203332"><ele>57.0</ele><time>2026-04-29T17:15:55.001Z</time></trkpt><trkpt lat="43.571112806378366" lon="11.014690848052593"><ele>57.33333333333333</ele><time>2026-04-29T17:15:56.001Z</time></trkpt><trkpt lat="43.57129151550645" lon="11.014867561737447"><ele>57.666666666666664</ele><time>2026-04-29T17:15:57.001Z</time></trkpt><trkpt lat="43.57143309388271" lon="11.015039498526045"><ele>58.0</ele><time>2026-04-29T17:15:58.001Z</time></trkpt><trkpt lat="43.57156053071765" lon="11.015191219166095"><ele>58.0</ele><time>2026-04-29T17:15:59.001Z</time></trkpt><trkpt lat="43.57168972200328" lon="11.015310547982963"><ele>58.0</ele><time>2026-04-29T17:16:00.001Z</time></trkpt><trkpt lat="43.57184114263294" lon="11.015388569636741"><ele>58.0</ele><time>2026-04-29T17:16:01.001Z</time></trkpt><trkpt lat="43.57200383844727" lon="11.015409322193255"><ele>60.0</ele><time>2026-04-29T17:16:02.001Z</time></trkpt><trkpt lat="43.572172526920546" lon="11.015360715071706"><ele>62.0</ele><time>2026-04-29T17:16:03.001Z</time></trkpt><trkpt lat="43.572333938241414" lon="11.015255413412584"><ele>64.0</ele><time>2026-04-29T17:16:04.001Z</time></trkpt><trkpt lat="43.572464918134486" lon="11.01510687872857"><ele>62.33333333333333</ele><time>2026-04-29T17:16:05.001Z</time></trkpt><trkpt lat="43.57255080854313" lon="11.014904058308051"><ele>60.66666666666667</ele><time>2026-04-29T17:16:06.001Z</time></trkpt><trkpt lat="43.57261411806777" lon="11.014668592277214"><ele>59.0</ele><time>2026-04-29T17:16:07.001Z</time></trkpt><trkpt lat="43.57267316432537" lon="11.014398980694123"><ele>58.5</ele><time>2026-04-29T17:16:08.001Z</time></trkpt><trkpt lat="43.57272992541755" lon="11.014095866929898"><ele>58.0</ele><time>2026-04-29T17:16:09.001Z</time></trkpt><trkpt lat="43.57278257380943" lon="11.013783558837455"><ele>58.0</ele><time>2026-04-29T17:16:10.001Z</time></trkpt><trkpt lat="43.57283163650656" lon="11.013462033576097"><ele>58.0</ele><time>2026-04-29T17:16:11.001Z</time></trkpt><trkpt lat="43.5729004628855" lon="11.013157982865497"><ele>59.5</ele><time>2026-04-29T17:16:12.001Z</time></trkpt><trkpt lat="43.572990910889864" lon="11.012865469199294"><ele>61.0</ele><time>2026-04-29T17:16:13.001Z</time></trkpt><trkpt lat="43.57311232770199" lon="11.012588616200894"><ele>58.5</ele><time>2026-04-29T17:16:14.001Z</time></trkpt><trkpt lat="43.57325852195521" lon="11.012311759716331"><ele>56.0</ele><time>2026-04-29T17:16:15.001Z</time></trkpt><trkpt lat="43.57342397170519" lon="11.012038593239554"><ele>56.0</ele><time>2026-04-29T17:16:16.001Z</time></trkpt><trkpt lat="43.57360002599603" lon="11.011783521098698"><ele>56.0</ele><time>2026-04-29T17:16:17.001Z</time></trkpt><trkpt lat="43.57379007923036" lon="11.011550309879917"><ele>56.5</ele><time>2026-04-29T17:16:18.001Z</time></trkpt><trkpt lat="43.57400858056758" lon="11.011356963687906"><ele>57.0</ele><time>2026-04-29T17:16:19.001Z</time></trkpt><trkpt lat="43.57422929586441" lon="11.011150269126514"><ele>57.0</ele><time>2026-04-29T17:16:20.001Z</time></trkpt><trkpt lat="43.57444647029997" lon="11.010919510613402"><ele>57.0</ele><time>2026-04-29T17:16:21.001Z</time></trkpt><trkpt lat="43.574678626320946" lon="11.01072080346325"><ele>57.0</ele><time>2026-04-29T17:16:22.001Z</time></trkpt><trkpt lat="43.57489241439497" lon="11.010506453348254"><ele>57.0</ele><time>2026-04-29T17:16:23.001Z</time></trkpt><trkpt lat="43.57508573627338" lon="11.010297572838008"><ele>57.0</ele><time>2026-04-29T17:16:24.001Z</time></trkpt><trkpt lat="43.57526570856618" lon="11.010105264370658"><ele>57.0</ele><time>2026-04-29T17:16:25.001Z</time></trkpt><trkpt lat="43.57543694203763" lon="11.0099236537822"><ele>57.0</ele><time>2026-04-29T17:16:26.001Z</time></trkpt><trkpt lat="43.575602688398966" lon="11.009760288134833"><ele>56.0</ele><time>2026-04-29T17:16:27.001Z</time></trkpt><trkpt lat="43.57576680406053" lon="11.009616263831218"><ele>55.0</ele><time>2026-04-29T17:16:28.001Z</time></trkpt><trkpt lat="43.57592091519116" lon="11.009486874033188"><ele>54.0</ele><time>2026-04-29T17:16:29.001Z</time></trkpt><trkpt lat="43.576050016394596" lon="11.009347657194592"><ele>54.0</ele><time>2026-04-29T17:16:30.001Z</time></trkpt><trkpt lat="43.57616630826336" lon="11.009187689387637"><ele>54.0</ele><time>2026-04-29T17:16:31.001Z</time></trkpt><trkpt lat="43.57627696345716" lon="11.009012367301464"><ele>54.0</ele><time>2026-04-29T17:16:32.001Z</time></trkpt><trkpt lat="43.5763869891163" lon="11.008837393910817"><ele>54.75</ele><time>2026-04-29T17:16:33.001Z</time></trkpt><trkpt lat="43.5765106968825" lon="11.008710169514291"><ele>55.5</ele><time>2026-04-29T17:16:34.001Z</time></trkpt><trkpt lat="43.576626077067246" lon="11.008588061169561"><ele>56.25</ele><time>2026-04-29T17:16:35.001Z</time></trkpt><trkpt lat="43.576719309570095" lon="11.008472800869091"><ele>57.0</ele><time>2026-04-29T17:16:36.001Z</time></trkpt><trkpt lat="43.576827867377624" lon="11.008386660246938"><ele>57.0</ele><time>2026-04-29T17:16:37.001Z</time></trkpt><trkpt lat="43.57693994575229" lon="11.008282900296638"><ele>57.0</ele><time>2026-04-29T17:16:38.001Z</time></trkpt><trkpt lat="43.57705346956827" lon="11.008167698582572"><ele>57.0</ele><time>2026-04-29T17:16:39.001Z</time></trkpt><trkpt lat="43.57716465235483" lon="11.008053975822515"><ele>57.0</ele><time>2026-04-29T17:16:40.001Z</time></trkpt><trkpt lat="43.57727882799011" lon="11.007947484055787"><ele>57.0</ele><time>2026-04-29T17:16:41.001Z</time></trkpt><trkpt lat="43.5773944158867" lon="11.007842376680609"><ele>57.0</ele><time>2026-04-29T17:16:42.001Z</time></trkpt><trkpt lat="43.57751134546073" lon="11.00772630725555"><ele>57.0</ele><time>2026-04-29T17:16:43.001Z</time></trkpt><trkpt lat="43.57762867831474" lon="11.007606202132283"><ele>57.0</ele><time>2026-04-29T17:16:44.001Z</time></trkpt><trkpt lat="43.57774652330026" lon="11.007491265384372"><ele>57.25</ele><time>2026-04-29T17:16:45.001Z</time></trkpt><trkpt lat="43.577860824020405" lon="11.007381063488763"><ele>57.5</ele><time>2026-04-29T17:16:46.001Z</time></trkpt><trkpt lat="43.577969493262344" lon="11.007276379632723"><ele>57.75</ele><time>2026-04-29T17:16:47.001Z</time></trkpt><trkpt lat="43.578082430442244" lon="11.00716758894338"><ele>58.0</ele><time>2026-04-29T17:16:48.001Z</time></trkpt><trkpt lat="43.57819962625307" lon="11.00705824984721"><ele>58.0</ele><time>2026-04-29T17:16:49.001Z</time></trkpt><trkpt lat="43.578317848144124" lon="11.006946156859224"><ele>58.0</ele><time>2026-04-29T17:16:50.001Z</time></trkpt><trkpt lat="43.578436005318956" lon="11.006831937351874"><ele>58.0</ele><time>2026-04-29T17:16:51.001Z</time></trkpt><trkpt lat="43.57855676635268" lon="11.006715563533994"><ele>58.0</ele><time>2026-04-29T17:16:52.001Z</time></trkpt><trkpt lat="43.57867806346981" lon="11.006599381296205"><ele>58.0</ele><time>2026-04-29T17:16:53Z</time></trkpt><trkpt lat="43.578798425186164" lon="11.006485622011914"><ele>58.0</ele><time>2026-04-29T17:16:54Z</time></trkpt><trkpt lat="43.578918574463636" lon="11.006369718123034"><ele>58.0</ele><time>2026-04-29T17:16:55Z</time></trkpt><trkpt lat="43.57903695570029" lon="11.006249683596431"><ele>58.0</ele><time>2026-04-29T17:16:56Z</time></trkpt><trkpt lat="43.57915560083512" lon="11.006126205480314"><ele>58.0</ele><time>2026-04-29T17:16:57Z</time></trkpt><trkpt lat="43.57927919548502" lon="11.006006659308657"><ele>58.0</ele><time>2026-04-29T17:16:58Z</time></trkpt><trkpt lat="43.579397675816864" lon="11.005893282057848"><ele>58.0</ele><time>2026-04-29T17:16:59Z</time></trkpt><trkpt lat="43.5795138061325" lon="11.005777789810013"><ele>58.0</ele><time>2026-04-29T17:17:00Z</time></trkpt><trkpt lat="43.579631338977855" lon="11.00565798326173"><ele>57.666666666666664</ele><time>2026-04-29T17:17:01Z</time></trkpt><trkpt lat="43.57975116534426" lon="11.005534939831431"><ele>57.33333333333333</ele><time>2026-04-29T17:17:02Z</time></trkpt><trkpt lat="43.57987422964884" lon="11.005412185898924"><ele>57.0</ele><time>2026-04-29T17:17:03Z</time></trkpt><trkpt lat="43.57999852683686" lon="11.00528713141477"><ele>57.0</ele><time>2026-04-29T17:17:04Z</time></trkpt><trkpt lat="43.5801171778937" lon="11.005164455920408"><ele>57.0</ele><time>2026-04-29T17:17:05Z</time></trkpt><trkpt lat="43.580232261096214" lon="11.005040004241515"><ele>57.0</ele><time>2026-04-29T17:17:06Z</time></trkpt><trkpt lat="43.58033322444888" lon="11.004899517233646"><ele>57.0</ele><time>2026-04-29T17:17:07Z</time></trkpt><trkpt lat="43.580428456215586" lon="11.004747741956844"><ele>56.66666666666667</ele><time>2026-04-29T17:17:08Z</time></trkpt><trkpt lat="43.580513525674675" lon="11.004592706922985"><ele>56.333333333333336</ele><time>2026-04-29T17:17:09Z</time></trkpt><trkpt lat="43.58060167156929" lon="11.004418860115868"><ele>56.0</ele><time>2026-04-29T17:17:10Z</time></trkpt><trkpt lat="43.58071176780846" lon="11.004261305627594"><ele>55.66666666666667</ele><time>2026-04-29T17:17:11Z</time></trkpt><trkpt lat="43.58082350996182" lon="11.004064091287816"><ele>55.33333333333333</ele><time>2026-04-29T17:17:12Z</time></trkpt><trkpt lat="43.580932362386264" lon="11.003870894574456"><ele>55.0</ele><time>2026-04-29T17:17:13Z</time></trkpt><trkpt lat="43.58101471819701" lon="11.003691721421422"><ele>55.0</ele><time>2026-04-29T17:17:14Z</time></trkpt><trkpt lat="43.5811038347723" lon="11.003536455823756"><ele>55.0</ele><time>2026-04-29T17:17:15Z</time></trkpt><trkpt lat="43.5811915863928" lon="11.003377607969412"><ele>55.0</ele><time>2026-04-29T17:17:16Z</time></trkpt><trkpt lat="43.581272825586304" lon="11.003226274300156"><ele>55.0</ele><time>2026-04-29T17:17:17Z</time></trkpt><trkpt lat="43.581352056327184" lon="11.0030817047494"><ele>55.25</ele><time>2026-04-29T17:17:18Z</time></trkpt><trkpt lat="43.58142688692416" lon="11.002943502231721"><ele>55.5</ele><time>2026-04-29T17:17:19Z</time></trkpt><trkpt lat="43.581500497362974" lon="11.002806423162347"><ele>55.75</ele><time>2026-04-29T17:17:20Z</time></trkpt><trkpt lat="43.58156831470954" lon="11.002685646530036"><ele>56.0</ele><time>2026-04-29T17:17:21Z</time></trkpt><trkpt lat="43.581628221426705" lon="11.002578671391822"><ele>56.0</ele><time>2026-04-29T17:17:22Z</time></trkpt><trkpt lat="43.581687350119246" lon="11.002476687629306"><ele>55.99999999999999</ele><time>2026-04-29T17:17:23Z</time></trkpt><trkpt lat="43.581749632248474" lon="11.002362153110285"><ele>55.99999999999999</ele><time>2026-04-29T17:17:24Z</time></trkpt><trkpt lat="43.58183080100603" lon="11.00224729252659"><ele>56.0</ele><time>2026-04-29T17:17:25Z</time></trkpt><trkpt lat="43.581910504638934" lon="11.002105597180291"><ele>56.0</ele><time>2026-04-29T17:17:26Z</time></trkpt><trkpt lat="43.58198536900336" lon="11.001936355710754"><ele>56.0</ele><time>2026-04-29T17:17:27Z</time></trkpt><trkpt lat="43.58208216943458" lon="11.001772489995444"><ele>56.0</ele><time>2026-04-29T17:17:28Z</time></trkpt><trkpt lat="43.582182606973284" lon="11.001597704251447"><ele>56.0</ele><time>2026-04-29T17:17:29Z</time></trkpt><trkpt lat="43.5822819504091" lon="11.001422662762591"><ele>56.25</ele><time>2026-04-29T17:17:30Z</time></trkpt><trkpt lat="43.582373924055354" lon="11.001261262409209"><ele>56.5</ele><time>2026-04-29T17:17:31Z</time></trkpt><trkpt lat="43.58245827158149" lon="11.001110873987496"><ele>56.75</ele><time>2026-04-29T17:17:32Z</time></trkpt><trkpt lat="43.582539085820095" lon="11.000975627169712"><ele>57.0</ele><time>2026-04-29T17:17:33Z</time></trkpt><trkpt lat="43.58260989973253" lon="11.000847689897451"><ele>57.0</ele><time>2026-04-29T17:17:34Z</time></trkpt><trkpt lat="43.582675279106155" lon="11.000733463691798"><ele>57.0</ele><time>2026-04-29T17:17:35Z</time></trkpt><trkpt lat="43.58273949078357" lon="11.00062850306532"><ele>57.0</ele><time>2026-04-29T17:17:36Z</time></trkpt><trkpt lat="43.58280675067277" lon="11.000514242539586"><ele>57.0</ele><time>2026-04-29T17:17:37Z</time></trkpt><trkpt lat="43.5828780489808" lon="11.000375349626495"><ele>57.0</ele><time>2026-04-29T17:17:38Z</time></trkpt><trkpt lat="43.582959336292944" lon="11.000218499651295"><ele>57.0</ele><time>2026-04-29T17:17:39Z</time></trkpt><trkpt lat="43.58306458102041" lon="11.000061915190653"><ele>57.0</ele><time>2026-04-29T17:17:40Z</time></trkpt><trkpt lat="43.58316898025753" lon="10.999876300501294"><ele>57.0</ele><time>2026-04-29T17:17:41Z</time></trkpt><trkpt lat="43.583280847495224" lon="10.999677408113115"><ele>57.0</ele><time>2026-04-29T17:17:42Z</time></trkpt><trkpt lat="43.58338039315608" lon="10.999475307969833"><ele>57.0</ele><time>2026-04-29T17:17:43Z</time></trkpt><trkpt lat="43.5834804425949" lon="10.999299028278088"><ele>57.0</ele><time>2026-04-29T17:17:44Z</time></trkpt><trkpt lat="43.58357417370031" lon="10.999130414885391"><ele>57.0</ele><time>2026-04-29T17:17:45Z</time></trkpt><trkpt lat="43.58366141624025" lon="10.99897510387883"><ele>57.0</ele><time>2026-04-29T17:17:46Z</time></trkpt><trkpt lat="43.58374458105402" lon="10.998829982778267"><ele>57.0</ele><time>2026-04-29T17:17:47Z</time></trkpt><trkpt lat="43.58382816140711" lon="10.998685836384"><ele>57.0</ele><time>2026-04-29T17:17:48Z</time></trkpt><trkpt lat="43.58391113231265" lon="10.998539309340204"><ele>57.0</ele><time>2026-04-29T17:17:49Z</time></trkpt><trkpt lat="43.58399749063479" lon="10.998388335218385"><ele>57.0</ele><time>2026-04-29T17:17:50Z</time></trkpt><trkpt lat="43.584082681785716" lon="10.998240705305156"><ele>57.0</ele><time>2026-04-29T17:17:51Z</time></trkpt><trkpt lat="43.584172041114996" lon="10.998092538665954"><ele>57.0</ele><time>2026-04-29T17:17:52Z</time></trkpt><trkpt lat="43.584253685268514" lon="10.997938225470149"><ele>56.75</ele><time>2026-04-29T17:17:53Z</time></trkpt><trkpt lat="43.58433851560237" lon="10.997781126690096"><ele>56.5</ele><time>2026-04-29T17:17:54Z</time></trkpt><trkpt lat="43.58442425823024" lon="10.99763128125952"><ele>56.25</ele><time>2026-04-29T17:17:55Z</time></trkpt><trkpt lat="43.584507665249276" lon="10.997478745219265"><ele>56.0</ele><time>2026-04-29T17:17:56Z</time></trkpt><trkpt lat="43.58459208699548" lon="10.997323057399106"><ele>55.5</ele><time>2026-04-29T17:17:57Z</time></trkpt><trkpt lat="43.584678637237374" lon="10.997167506171394"><ele>55.0</ele><time>2026-04-29T17:17:58Z</time></trkpt><trkpt lat="43.58476702887163" lon="10.997006138111697"><ele>54.5</ele><time>2026-04-29T17:17:59Z</time></trkpt><trkpt lat="43.58485940914891" lon="10.996827053830815"><ele>54.0</ele><time>2026-04-29T17:18:00Z</time></trkpt><trkpt lat="43.58497399990496" lon="10.996653243346307"><ele>54.0</ele><time>2026-04-29T17:18:01Z</time></trkpt><trkpt lat="43.58506874989508" lon="10.996446667751758"><ele>54.0</ele><time>2026-04-29T17:18:02Z</time></trkpt><trkpt lat="43.58518952615133" lon="10.996249575783835"><ele>54.0</ele><time>2026-04-29T17:18:03Z</time></trkpt><trkpt lat="43.5853112516784" lon="10.996039411579199"><ele>54.33333333333333</ele><time>2026-04-29T17:18:04Z</time></trkpt><trkpt lat="43.58543143275673" lon="10.99581487432165"><ele>54.666666666666664</ele><time>2026-04-29T17:18:05Z</time></trkpt><trkpt lat="43.58556615636149" lon="10.995595786006678"><ele>55.0</ele><time>2026-04-29T17:18:06Z</time></trkpt><trkpt lat="43.58569678238491" lon="10.99536312166112"><ele>55.0</ele><time>2026-04-29T17:18:07Z</time></trkpt><trkpt lat="43.585829208552106" lon="10.995127251004655"><ele>55.0</ele><time>2026-04-29T17:18:08Z</time></trkpt><trkpt lat="43.58595116790575" lon="10.994878254986073"><ele>55.0</ele><time>2026-04-29T17:18:09Z</time></trkpt><trkpt lat="43.58608732116485" lon="10.994636555031827"><ele>55.5</ele><time>2026-04-29T17:18:10.001Z</time></trkpt><trkpt lat="43.58622305465297" lon="10.994391618782174"><ele>56.0</ele><time>2026-04-29T17:18:11.001Z</time></trkpt><trkpt lat="43.58636246597709" lon="10.994139656294756"><ele>55.0</ele><time>2026-04-29T17:18:12.001Z</time></trkpt><trkpt lat="43.586505929677315" lon="10.993891035458416"><ele>54.0</ele><time>2026-04-29T17:18:13.001Z</time></trkpt><trkpt lat="43.586655236885846" lon="10.993641390153037"><ele>54.0</ele><time>2026-04-29T17:18:14.001Z</time></trkpt><trkpt lat="43.58680398820169" lon="10.993383734795902"><ele>54.0</ele><time>2026-04-29T17:18:15.001Z</time></trkpt><trkpt lat="43.58694934519423" lon="10.993124990968301"><ele>55.0</ele><time>2026-04-29T17:18:16.001Z</time></trkpt><trkpt lat="43.587095952407054" lon="10.992864870686118"><ele>56.0</ele><time>2026-04-29T17:18:17.001Z</time></trkpt><trkpt lat="43.58724308930597" lon="10.992604052163328"><ele>56.0</ele><time>2026-04-29T17:18:18.001Z</time></trkpt><trkpt lat="43.587393272953165" lon="10.992340005069243"><ele>56.0</ele><time>2026-04-29T17:18:19.001Z</time></trkpt><trkpt lat="43.587542430149796" lon="10.992073782363603"><ele>56.0</ele><time>2026-04-29T17:18:20.001Z</time></trkpt><trkpt lat="43.58769152982287" lon="10.991804720091293"><ele>56.0</ele><time>2026-04-29T17:18:21.001Z</time></trkpt><trkpt lat="43.58784237863949" lon="10.991533466399108"><ele>55.0</ele><time>2026-04-29T17:18:22.001Z</time></trkpt><trkpt lat="43.58799383751179" lon="10.991260592184608"><ele>54.0</ele><time>2026-04-29T17:18:23.001Z</time></trkpt><trkpt lat="43.58814587389694" lon="10.990988401685252"><ele>53.5</ele><time>2026-04-29T17:18:24.001Z</time></trkpt><trkpt lat="43.58829952247996" lon="10.990715318471697"><ele>53.0</ele><time>2026-04-29T17:18:25.001Z</time></trkpt><trkpt lat="43.588453105964945" lon="10.990442729106134"><ele>53.0</ele><time>2026-04-29T17:18:26.001Z</time></trkpt><trkpt lat="43.588596418026434" lon="10.990184588029658"><ele>53.0</ele><time>2026-04-29T17:18:27.001Z</time></trkpt><trkpt lat="43.58873110699685" lon="10.989938805698936"><ele>53.66666666666667</ele><time>2026-04-29T17:18:28.001Z</time></trkpt><trkpt lat="43.588859638481885" lon="10.989707838032647"><ele>54.33333333333333</ele><time>2026-04-29T17:18:29.001Z</time></trkpt><trkpt lat="43.58898105831344" lon="10.98948887783417"><ele>55.0</ele><time>2026-04-29T17:18:30.001Z</time></trkpt><trkpt lat="43.589100443450306" lon="10.98927515355121"><ele>54.33333333333333</ele><time>2026-04-29T17:18:31.001Z</time></trkpt><trkpt lat="43.58922095969543" lon="10.989062404282029"><ele>53.66666666666667</ele><time>2026-04-29T17:18:32.001Z</time></trkpt><trkpt lat="43.58934099669396" lon="10.98884982232433"><ele>53.0</ele><time>2026-04-29T17:18:33.001Z</time></trkpt><trkpt lat="43.58945947495049" lon="10.988637687705015"><ele>53.333333333333336</ele><time>2026-04-29T17:18:34.001Z</time></trkpt><trkpt lat="43.589577196679954" lon="10.988426587093889"><ele>53.66666666666667</ele><time>2026-04-29T17:18:35.001Z</time></trkpt><trkpt lat="43.5896863536916" lon="10.988230186438367"><ele>54.0</ele><time>2026-04-29T17:18:36.001Z</time></trkpt><trkpt lat="43.58978924817574" lon="10.988048158422865"><ele>54.0</ele><time>2026-04-29T17:18:37.001Z</time></trkpt><trkpt lat="43.58989458528123" lon="10.987862305423185"><ele>54.0</ele><time>2026-04-29T17:18:38.001Z</time></trkpt><trkpt lat="43.58999863142469" lon="10.987678484715403"><ele>54.0</ele><time>2026-04-29T17:18:39.001Z</time></trkpt><trkpt lat="43.590093988515605" lon="10.987507371771315"><ele>54.0</ele><time>2026-04-29T17:18:40.001Z</time></trkpt><trkpt lat="43.5901840880711" lon="10.987340633969369"><ele>54.0</ele><time>2026-04-29T17:18:41.001Z</time></trkpt><trkpt lat="43.590272090873064" lon="10.98718617148572"><ele>54.0</ele><time>2026-04-29T17:18:42.001Z</time></trkpt><trkpt lat="43.590358808714434" lon="10.987040280901969"><ele>54.0</ele><time>2026-04-29T17:18:43.001Z</time></trkpt><trkpt lat="43.59044431504124" lon="10.986892840126616"><ele>53.25</ele><time>2026-04-29T17:18:44.001Z</time></trkpt><trkpt lat="43.59052598112137" lon="10.986749366497994"><ele>52.5</ele><time>2026-04-29T17:18:45.001Z</time></trkpt><trkpt lat="43.59060272840275" lon="10.986610947894029"><ele>51.75</ele><time>2026-04-29T17:18:46.001Z</time></trkpt><trkpt lat="43.590678441817765" lon="10.9864742965161"><ele>51.0</ele><time>2026-04-29T17:18:47.001Z</time></trkpt><trkpt lat="43.59075392823102" lon="10.986336057513663"><ele>51.0</ele><time>2026-04-29T17:18:48.001Z</time></trkpt><trkpt lat="43.59082795852125" lon="10.98620034782324"><ele>51.0</ele><time>2026-04-29T17:18:49.001Z</time></trkpt><trkpt lat="43.59090809569779" lon="10.986059989963692"><ele>51.0</ele><time>2026-04-29T17:18:50.001Z</time></trkpt><trkpt lat="43.59099117506902" lon="10.985917948243847"><ele>51.0</ele><time>2026-04-29T17:18:51.001Z</time></trkpt><trkpt lat="43.59107645637622" lon="10.985769613430172"><ele>51.33333333333333</ele><time>2026-04-29T17:18:52.001Z</time></trkpt><trkpt lat="43.59116455738548" lon="10.98561272068763"><ele>51.666666666666664</ele><time>2026-04-29T17:18:53.001Z</time></trkpt><trkpt lat="43.59125672964004" lon="10.98544852978998"><ele>52.0</ele><time>2026-04-29T17:18:54.001Z</time></trkpt><trkpt lat="43.591351018309844" lon="10.98527183885301"><ele>52.0</ele><time>2026-04-29T17:18:55.001Z</time></trkpt><trkpt lat="43.59145229694911" lon="10.985078321944943"><ele>52.0</ele><time>2026-04-29T17:18:56.001Z</time></trkpt><trkpt lat="43.59155957639273" lon="10.984881315027904"><ele>52.0</ele><time>2026-04-29T17:18:57.001Z</time></trkpt><trkpt lat="43.591681842745196" lon="10.98467711759009"><ele>52.0</ele><time>2026-04-29T17:18:58.001Z</time></trkpt><trkpt lat="43.5918072252347" lon="10.984465404911184"><ele>52.0</ele><time>2026-04-29T17:18:59Z</time></trkpt><trkpt lat="43.591927757862976" lon="10.984259829137914"><ele>52.0</ele><time>2026-04-29T17:19:00Z</time></trkpt><trkpt lat="43.59203349297911" lon="10.984077591301277"><ele>52.25</ele><time>2026-04-29T17:19:01Z</time></trkpt><trkpt lat="43.59212996065954" lon="10.983919935541435"><ele>52.5</ele><time>2026-04-29T17:19:02Z</time></trkpt><trkpt lat="43.592217442343255" lon="10.983782504473142"><ele>52.75</ele><time>2026-04-29T17:19:03Z</time></trkpt><trkpt lat="43.59229227040903" lon="10.983665106886132"><ele>53.0</ele><time>2026-04-29T17:19:04Z</time></trkpt><trkpt lat="43.59236149705511" lon="10.983554598661188"><ele>53.0</ele><time>2026-04-29T17:19:05Z</time></trkpt><trkpt lat="43.592432947700786" lon="10.983449317097486"><ele>53.0</ele><time>2026-04-29T17:19:06Z</time></trkpt><trkpt lat="43.59251350504765" lon="10.983330428121846"><ele>53.0</ele><time>2026-04-29T17:19:07Z</time></trkpt><trkpt lat="43.59258681810313" lon="10.983196835921882"><ele>53.0</ele><time>2026-04-29T17:19:08Z</time></trkpt><trkpt lat="43.59265060043519" lon="10.983041570283264"><ele>53.0</ele><time>2026-04-29T17:19:09Z</time></trkpt><trkpt lat="43.592717593583906" lon="10.982872983506342"><ele>53.0</ele><time>2026-04-29T17:19:10Z</time></trkpt><trkpt lat="43.5928043968273" lon="10.982697708535714"><ele>53.0</ele><time>2026-04-29T17:19:11Z</time></trkpt><trkpt lat="43.5929019212453" lon="10.98251453355133"><ele>53.66666666666667</ele><time>2026-04-29T17:19:12Z</time></trkpt><trkpt lat="43.593008958442134" lon="10.98231775913821"><ele>54.33333333333333</ele><time>2026-04-29T17:19:13Z</time></trkpt><trkpt lat="43.59312372872112" lon="10.982109510709591"><ele>55.0</ele><time>2026-04-29T17:19:14Z</time></trkpt><trkpt lat="43.593246341652474" lon="10.981892283318654"><ele>54.666666666666664</ele><time>2026-04-29T17:19:15Z</time></trkpt><trkpt lat="43.5933759580499" lon="10.981667199051646"><ele>54.33333333333333</ele><time>2026-04-29T17:19:16Z</time></trkpt><trkpt lat="43.59351095522494" lon="10.9814336488168"><ele>54.0</ele><time>2026-04-29T17:19:17Z</time></trkpt><trkpt lat="43.593648198395066" lon="10.981187092601234"><ele>54.0</ele><time>2026-04-29T17:19:18Z</time></trkpt><trkpt lat="43.59378062179861" lon="10.980941891327278"><ele>54.0</ele><time>2026-04-29T17:19:19Z</time></trkpt><trkpt lat="43.593922402998" lon="10.980677758596897"><ele>54.0</ele><time>2026-04-29T17:19:20Z</time></trkpt><trkpt lat="43.5940726600558" lon="10.980404036002813"><ele>54.0</ele><time>2026-04-29T17:19:21Z</time></trkpt><trkpt lat="43.594233665469936" lon="10.98013188451568"><ele>53.5</ele><time>2026-04-29T17:19:22Z</time></trkpt><trkpt lat="43.594396881000506" lon="10.979859562653072"><ele>53.0</ele><time>2026-04-29T17:19:23Z</time></trkpt><trkpt lat="43.59455648078564" lon="10.97958312982301"><ele>53.0</ele><time>2026-04-29T17:19:24Z</time></trkpt><trkpt lat="43.59471238106128" lon="10.979303639923637"><ele>53.0</ele><time>2026-04-29T17:19:25Z</time></trkpt><trkpt lat="43.59486714191091" lon="10.979021403801744"><ele>53.0</ele><time>2026-04-29T17:19:26Z</time></trkpt><trkpt lat="43.59501893302417" lon="10.978741956480269"><ele>53.0</ele><time>2026-04-29T17:19:27Z</time></trkpt><trkpt lat="43.59516503950277" lon="10.97847997365809"><ele>52.66666666666667</ele><time>2026-04-29T17:19:28Z</time></trkpt><trkpt lat="43.59529563924009" lon="10.9782495352612"><ele>52.33333333333333</ele><time>2026-04-29T17:19:29Z</time></trkpt><trkpt lat="43.595413726511254" lon="10.978038072446461"><ele>52.0</ele><time>2026-04-29T17:19:30Z</time></trkpt><trkpt lat="43.59552047390795" lon="10.977841269831442"><ele>52.0</ele><time>2026-04-29T17:19:31Z</time></trkpt><trkpt lat="43.59562540116437" lon="10.977633598003576"><ele>52.0</ele><time>2026-04-29T17:19:32Z</time></trkpt><trkpt lat="43.59574031048477" lon="10.977409672156167"><ele>52.0</ele><time>2026-04-29T17:19:33Z</time></trkpt><trkpt lat="43.595877690713266" lon="10.977194652754784"><ele>52.0</ele><time>2026-04-29T17:19:34Z</time></trkpt><trkpt lat="43.596032379005095" lon="10.97699587485732"><ele>52.0</ele><time>2026-04-29T17:19:35Z</time></trkpt><trkpt lat="43.59620376396541" lon="10.976795946845185"><ele>52.0</ele><time>2026-04-29T17:19:36Z</time></trkpt><trkpt lat="43.59637941412265" lon="10.976586299946804"><ele>52.5</ele><time>2026-04-29T17:19:37Z</time></trkpt><trkpt lat="43.596551571781255" lon="10.97635768210261"><ele>53.0</ele><time>2026-04-29T17:19:38Z</time></trkpt><trkpt lat="43.59671192220082" lon="10.976113263494302"><ele>53.0</ele><time>2026-04-29T17:19:39Z</time></trkpt><trkpt lat="43.59685873372303" lon="10.975850022874722"><ele>53.0</ele><time>2026-04-29T17:19:40Z</time></trkpt><trkpt lat="43.59698555178083" lon="10.975555513454019"><ele>56.0</ele><time>2026-04-29T17:19:41Z</time></trkpt><trkpt lat="43.59710466752542" lon="10.975249992674923"><ele>59.0</ele><time>2026-04-29T17:19:42Z</time></trkpt><trkpt lat="43.597236067416056" lon="10.974941399615739"><ele>59.0</ele><time>2026-04-29T17:19:43Z</time></trkpt><trkpt lat="43.59738360233438" lon="10.97464023003339"><ele>59.0</ele><time>2026-04-29T17:19:44Z</time></trkpt><trkpt lat="43.59754096751395" lon="10.97434890805938"><ele>58.0</ele><time>2026-04-29T17:19:45Z</time></trkpt><trkpt lat="43.59770969666063" lon="10.974070331546626"><ele>57.0</ele><time>2026-04-29T17:19:46Z</time></trkpt><trkpt lat="43.59788664937972" lon="10.973812713278052"><ele>57.0</ele><time>2026-04-29T17:19:47Z</time></trkpt><trkpt lat="43.59808298340208" lon="10.97358792533361"><ele>57.0</ele><time>2026-04-29T17:19:48Z</time></trkpt><trkpt lat="43.598282551362566" lon="10.973389593813701"><ele>55.0</ele><time>2026-04-29T17:19:49Z</time></trkpt><trkpt lat="43.5984778167689" lon="10.973233377856234"><ele>53.0</ele><time>2026-04-29T17:19:50Z</time></trkpt><trkpt lat="43.598680100948386" lon="10.973095680077467"><ele>52.5</ele><time>2026-04-29T17:19:51Z</time></trkpt><trkpt lat="43.598895315496" lon="10.972977351052549"><ele>52.0</ele><time>2026-04-29T17:19:52Z</time></trkpt><trkpt lat="43.59910924470583" lon="10.97287837047392"><ele>52.0</ele><time>2026-04-29T17:19:53Z</time></trkpt><trkpt lat="43.59930962361783" lon="10.972803459310054"><ele>52.0</ele><time>2026-04-29T17:19:54Z</time></trkpt><trkpt lat="43.59950812750177" lon="10.972779588805956"><ele>52.0</ele><time>2026-04-29T17:19:55Z</time></trkpt><trkpt lat="43.59971117710129" lon="10.97275102800702"><ele>52.0</ele><time>2026-04-29T17:19:56Z</time></trkpt><trkpt lat="43.5999247050581" lon="10.972730772151642"><ele>52.0</ele><time>2026-04-29T17:19:57Z</time></trkpt><trkpt lat="43.60014392834128" lon="10.972691193021868"><ele>52.0</ele><time>2026-04-29T17:19:58Z</time></trkpt><trkpt lat="43.60035363564671" lon="10.97267226842029"><ele>51.666666666666664</ele><time>2026-04-29T17:19:59Z</time></trkpt><trkpt lat="43.600546820837906" lon="10.97264819210406"><ele>51.33333333333333</ele><time>2026-04-29T17:20:00Z</time></trkpt><trkpt lat="43.6007315556554" lon="10.972617620010196"><ele>51.0</ele><time>2026-04-29T17:20:01Z</time></trkpt><trkpt lat="43.600906279120274" lon="10.972585145660561"><ele>51.0</ele><time>2026-04-29T17:20:02Z</time></trkpt><trkpt lat="43.60108701005836" lon="10.97256176731762"><ele>51.0</ele><time>2026-04-29T17:20:03Z</time></trkpt><trkpt lat="43.6012784781952" lon="10.972537446702013"><ele>51.0</ele><time>2026-04-29T17:20:04Z</time></trkpt><trkpt lat="43.60147409933464" lon="10.972520391728768"><ele>51.33333333333333</ele><time>2026-04-29T17:20:05Z</time></trkpt><trkpt lat="43.60165393833966" lon="10.972501855698017"><ele>51.666666666666664</ele><time>2026-04-29T17:20:06Z</time></trkpt><trkpt lat="43.60180478491591" lon="10.972482183280308"><ele>52.0</ele><time>2026-04-29T17:20:07Z</time></trkpt><trkpt lat="43.6019530574392" lon="10.97245084129812"><ele>51.75</ele><time>2026-04-29T17:20:08Z</time></trkpt><trkpt lat="43.602104968422815" lon="10.972388186000503"><ele>51.5</ele><time>2026-04-29T17:20:09Z</time></trkpt><trkpt lat="43.60224317536399" lon="10.972308183839955"><ele>51.25</ele><time>2026-04-29T17:20:10Z</time></trkpt><trkpt lat="43.602366059541" lon="10.97222125477635"><ele>51.0</ele><time>2026-04-29T17:20:11Z</time></trkpt><trkpt lat="43.60247371600532" lon="10.972119481635481"><ele>51.0</ele><time>2026-04-29T17:20:12Z</time></trkpt><trkpt lat="43.602568414650975" lon="10.971994768767665"><ele>51.0</ele><time>2026-04-29T17:20:13Z</time></trkpt><trkpt lat="43.60264845213821" lon="10.97183629409911"><ele>51.0</ele><time>2026-04-29T17:20:14.001Z</time></trkpt><trkpt lat="43.60272127076208" lon="10.971653527030872"><ele>51.0</ele><time>2026-04-29T17:20:15.001Z</time></trkpt><trkpt lat="43.60278775130317" lon="10.971451962819687"><ele>51.66666666666667</ele><time>2026-04-29T17:20:16.001Z</time></trkpt><trkpt lat="43.60285300473153" lon="10.971236223468152"><ele>52.333333333333336</ele><time>2026-04-29T17:20:17.001Z</time></trkpt><trkpt lat="43.60291623574276" lon="10.97104892221328"><ele>53.0</ele><time>2026-04-29T17:20:18.001Z</time></trkpt><trkpt lat="43.602992280985156" lon="10.970899054631628"><ele>52.75</ele><time>2026-04-29T17:20:19.001Z</time></trkpt><trkpt lat="43.60308173823615" lon="10.970805540467055"><ele>52.5</ele><time>2026-04-29T17:20:20.001Z</time></trkpt><trkpt lat="43.60319741204227" lon="10.970792440944505"><ele>52.25</ele><time>2026-04-29T17:20:21.001Z</time></trkpt><trkpt lat="43.60331622201119" lon="10.970734302598338"><ele>52.0</ele><time>2026-04-29T17:20:22.001Z</time></trkpt><trkpt lat="43.603438935963624" lon="10.970704792173755"><ele>52.0</ele><time>2026-04-29T17:20:23.001Z</time></trkpt><trkpt lat="43.6035483343427" lon="10.970638975804722"><ele>52.0</ele><time>2026-04-29T17:20:24.001Z</time></trkpt><trkpt lat="43.60365440613128" lon="10.970525137816171"><ele>52.0</ele><time>2026-04-29T17:20:25.001Z</time></trkpt><trkpt lat="43.60374162769002" lon="10.970371582663207"><ele>52.0</ele><time>2026-04-29T17:20:26.001Z</time></trkpt><trkpt lat="43.60382406948568" lon="10.970227019890212"><ele>52.2</ele><time>2026-04-29T17:20:27.001Z</time></trkpt><trkpt lat="43.60391431521392" lon="10.970161896983038"><ele>52.400000000000006</ele><time>2026-04-29T17:20:28.001Z</time></trkpt><trkpt lat="43.60399770469971" lon="10.970116795813787"><ele>52.599999999999994</ele><time>2026-04-29T17:20:29.001Z</time></trkpt><trkpt lat="43.604056483106575" lon="10.970071695683854"><ele>52.8</ele><time>2026-04-29T17:20:30.001Z</time></trkpt><trkpt lat="43.60411169933401" lon="10.969984038960908"><ele>53.0</ele><time>2026-04-29T17:20:32.001Z</time></trkpt><trkpt lat="43.60417213783009" lon="10.969829286124703"><ele>53.0</ele><time>2026-04-29T17:20:34.001Z</time></trkpt><trkpt lat="43.60420529051321" lon="10.969714189316548"><ele>53.0</ele><time>2026-04-29T17:20:35.001Z</time></trkpt><trkpt lat="43.60424670544023" lon="10.96958210860123"><ele>53.0</ele><time>2026-04-29T17:20:36.001Z</time></trkpt><trkpt lat="43.604294560814054" lon="10.969441110298806"><ele>53.0</ele><time>2026-04-29T17:20:37.001Z</time></trkpt><trkpt lat="43.6043430406346" lon="10.96930139988305"><ele>53.0</ele><time>2026-04-29T17:20:38.001Z</time></trkpt><trkpt lat="43.60439279443701" lon="10.969179129800699"><ele>52.8</ele><time>2026-04-29T17:20:39.001Z</time></trkpt><trkpt lat="43.60446167214797" lon="10.969080231842455"><ele>52.599999999999994</ele><time>2026-04-29T17:20:40.001Z</time></trkpt><trkpt lat="43.60454765782124" lon="10.968993945412954"><ele>52.400000000000006</ele><time>2026-04-29T17:20:41.001Z</time></trkpt><trkpt lat="43.604626404052325" lon="10.968933181081832"><ele>52.2</ele><time>2026-04-29T17:20:42.001Z</time></trkpt><trkpt lat="43.60469044524917" lon="10.968884729224484"><ele>52.0</ele><time>2026-04-29T17:20:43.001Z</time></trkpt><trkpt lat="43.60479418247317" lon="10.96881225804865"><ele>52.666666666666664</ele><time>2026-04-29T17:20:45.001Z</time></trkpt><trkpt lat="43.604888216738495" lon="10.968755798895163"><ele>53.33333333333333</ele><time>2026-04-29T17:20:47.001Z</time></trkpt><trkpt lat="43.60500102222937" lon="10.96870647691313"><ele>54.0</ele><time>2026-04-29T17:20:49.001Z</time></trkpt><trkpt lat="43.60506234210081" lon="10.968669144695395"><ele>54.66666666666667</ele><time>2026-04-29T17:20:50.001Z</time></trkpt><trkpt lat="43.605125870629706" lon="10.96863046782463"><ele>55.333333333333336</ele><time>2026-04-29T17:20:51.001Z</time></trkpt><trkpt lat="43.60518598663522" lon="10.968593868536756"><ele>56.0</ele><time>2026-04-29T17:20:52.001Z</time></trkpt><trkpt lat="43.60524590873903" lon="10.968557387300207"><ele>55.8</ele><time>2026-04-29T17:20:53.001Z</time></trkpt><trkpt lat="43.60534700072879" lon="10.96847649282028"><ele>55.599999999999994</ele><time>2026-04-29T17:20:55.001Z</time></trkpt><trkpt lat="43.605430403375365" lon="10.968428974865828"><ele>55.4</ele><time>2026-04-29T17:20:57.001Z</time></trkpt><trkpt lat="43.60551690994914" lon="10.968426346485792"><ele>55.2</ele><time>2026-04-29T17:20:59.001Z</time></trkpt><trkpt lat="43.605589799171334" lon="10.96853830368853"><ele>55.0</ele><time>2026-04-29T17:21:01.001Z</time></trkpt><trkpt lat="43.60565586935789" lon="10.968681746563512"><ele>55.0</ele><time>2026-04-29T17:21:03.001Z</time></trkpt><trkpt lat="43.60571584457665" lon="10.968818398679089"><ele>55.0</ele><time>2026-04-29T17:21:05Z</time></trkpt><trkpt lat="43.60577642875375" lon="10.968925626093663"><ele>55.0</ele><time>2026-04-29T17:21:07Z</time></trkpt><trkpt lat="43.60583415812699" lon="10.969017693033061"><ele>55.0</ele><time>2026-04-29T17:21:09Z</time></trkpt><trkpt lat="43.605959792590255" lon="10.968965068783419"><ele>55.0</ele><time>2026-04-29T17:21:11Z</time></trkpt><trkpt lat="43.60600970605839" lon="10.968907723833926"><ele>54.99999999999999</ele><time>2026-04-29T17:21:12Z</time></trkpt><trkpt lat="43.60606000397348" lon="10.968839650048622"><ele>55.0</ele><time>2026-04-29T17:21:13Z</time></trkpt><trkpt lat="43.60610790670498" lon="10.968764285561791"><ele>55.0</ele><time>2026-04-29T17:21:14Z</time></trkpt><trkpt lat="43.60615341397842" lon="10.968693813168931"><ele>55.0</ele><time>2026-04-29T17:21:15Z</time></trkpt><trkpt lat="43.606202639870716" lon="10.968620974027335"><ele>55.0</ele><time>2026-04-29T17:21:16Z</time></trkpt><trkpt lat="43.60625590213507" lon="10.968542787071083"><ele>54.99999999999999</ele><time>2026-04-29T17:21:17Z</time></trkpt><trkpt lat="43.60631188827499" lon="10.96845454471496"><ele>55.0</ele><time>2026-04-29T17:21:18Z</time></trkpt><trkpt lat="43.606379405402514" lon="10.96835146167921"><ele>54.0</ele><time>2026-04-29T17:21:19Z</time></trkpt><trkpt lat="43.60646535201084" lon="10.96824175641828"><ele>53.0</ele><time>2026-04-29T17:21:20Z</time></trkpt><trkpt lat="43.60655139225319" lon="10.968136505173103"><ele>52.0</ele><time>2026-04-29T17:21:21Z</time></trkpt><trkpt lat="43.60663284967556" lon="10.968023303032657"><ele>51.0</ele><time>2026-04-29T17:21:22Z</time></trkpt><trkpt lat="43.60670899808803" lon="10.967914017262956"><ele>51.0</ele><time>2026-04-29T17:21:23Z</time></trkpt><trkpt lat="43.606777127104635" lon="10.967810568824286"><ele>51.0</ele><time>2026-04-29T17:21:24Z</time></trkpt><trkpt lat="43.606851157225535" lon="10.967715895435383"><ele>51.0</ele><time>2026-04-29T17:21:25Z</time></trkpt><trkpt lat="43.60692790091739" lon="10.967618563227132"><ele>51.0</ele><time>2026-04-29T17:21:26Z</time></trkpt><trkpt lat="43.6070043860363" lon="10.967526704347963"><ele>51.0</ele><time>2026-04-29T17:21:27Z</time></trkpt><trkpt lat="43.60708271723703" lon="10.967457314259955"><ele>51.0</ele><time>2026-04-29T17:21:28Z</time></trkpt><trkpt lat="43.60715978916684" lon="10.967408825394537"><ele>51.0</ele><time>2026-04-29T17:21:29Z</time></trkpt><trkpt lat="43.60724820356033" lon="10.967395367943807"><ele>51.0</ele><time>2026-04-29T17:21:30Z</time></trkpt><trkpt lat="43.607339089082416" lon="10.967363796753796"><ele>51.0</ele><time>2026-04-29T17:21:31Z</time></trkpt><trkpt lat="43.60743461217482" lon="10.967332573532852"><ele>51.0</ele><time>2026-04-29T17:21:32Z</time></trkpt><trkpt lat="43.60753837733203" lon="10.967298656317086"><ele>51.0</ele><time>2026-04-29T17:21:33Z</time></trkpt><trkpt lat="43.607649099290875" lon="10.967258512867758"><ele>51.0</ele><time>2026-04-29T17:21:34Z</time></trkpt><trkpt lat="43.607775540257755" lon="10.96721430218759"><ele>51.0</ele><time>2026-04-29T17:21:35Z</time></trkpt><trkpt lat="43.60791082544705" lon="10.967169212615502"><ele>51.0</ele><time>2026-04-29T17:21:36Z</time></trkpt><trkpt lat="43.608056683668146" lon="10.967120981033737"><ele>51.5</ele><time>2026-04-29T17:21:37Z</time></trkpt><trkpt lat="43.60820864713709" lon="10.967069913026648"><ele>52.0</ele><time>2026-04-29T17:21:38Z</time></trkpt><trkpt lat="43.60835128489535" lon="10.967021905119742"><ele>52.5</ele><time>2026-04-29T17:21:39Z</time></trkpt><trkpt lat="43.60848313305359" lon="10.96697752869806"><ele>53.0</ele><time>2026-04-29T17:21:40Z</time></trkpt><trkpt lat="43.60860861837167" lon="10.966935293826916"><ele>53.25</ele><time>2026-04-29T17:21:41Z</time></trkpt><trkpt lat="43.6087277758179" lon="10.966895188743306"><ele>53.5</ele><time>2026-04-29T17:21:42Z</time></trkpt><trkpt lat="43.608838344129495" lon="10.966857974578511"><ele>53.75</ele><time>2026-04-29T17:21:43Z</time></trkpt><trkpt lat="43.608950936712" lon="10.966823682593269"><ele>54.0</ele><time>2026-04-29T17:21:44Z</time></trkpt><trkpt lat="43.609067185815704" lon="10.966799298703165"><ele>54.0</ele><time>2026-04-29T17:21:45Z</time></trkpt><trkpt lat="43.6091765478289" lon="10.966787897867928"><ele>54.0</ele><time>2026-04-29T17:21:46Z</time></trkpt><trkpt lat="43.609291147556974" lon="10.966783331120144"><ele>54.0</ele><time>2026-04-29T17:21:47Z</time></trkpt><trkpt lat="43.609408295919124" lon="10.966800664420187"><ele>54.0</ele><time>2026-04-29T17:21:48Z</time></trkpt><trkpt lat="43.60954938871756" lon="10.966838449185156"><ele>54.33333333333333</ele><time>2026-04-29T17:21:49Z</time></trkpt><trkpt lat="43.60970462170344" lon="10.966896388392628"><ele>54.666666666666664</ele><time>2026-04-29T17:21:50Z</time></trkpt><trkpt lat="43.609862225492655" lon="10.966986369098063"><ele>55.0</ele><time>2026-04-29T17:21:51Z</time></trkpt><trkpt lat="43.61002512244473" lon="10.967094931812639"><ele>55.0</ele><time>2026-04-29T17:21:52Z</time></trkpt><trkpt lat="43.61020189404103" lon="10.967195936846567"><ele>55.0</ele><time>2026-04-29T17:21:53Z</time></trkpt><trkpt lat="43.610379775434865" lon="10.96731865961203"><ele>55.0</ele><time>2026-04-29T17:21:54Z</time></trkpt><trkpt lat="43.610558871007626" lon="10.967470149877888"><ele>55.0</ele><time>2026-04-29T17:21:55Z</time></trkpt><trkpt lat="43.61075403070348" lon="10.967601666985942"><ele>55.0</ele><time>2026-04-29T17:21:56Z</time></trkpt><trkpt lat="43.61096167950286" lon="10.967712064741239"><ele>55.0</ele><time>2026-04-29T17:21:57Z</time></trkpt><trkpt lat="43.611165369991035" lon="10.967847234674236"><ele>54.0</ele><time>2026-04-29T17:21:58Z</time></trkpt><trkpt lat="43.61137221960416" lon="10.96798343446665"><ele>53.0</ele><time>2026-04-29T17:21:59Z</time></trkpt><trkpt lat="43.61157847223009" lon="10.968121902945153"><ele>53.0</ele><time>2026-04-29T17:22:00Z</time></trkpt><trkpt lat="43.6117635046343" lon="10.968243751692622"><ele>53.0</ele><time>2026-04-29T17:22:01Z</time></trkpt><trkpt lat="43.61193549389809" lon="10.968342286490554"><ele>53.0</ele><time>2026-04-29T17:22:02Z</time></trkpt><trkpt lat="43.61210854515303" lon="10.968416611773836"><ele>54.66666666666667</ele><time>2026-04-29T17:22:03Z</time></trkpt><trkpt lat="43.61230168109247" lon="10.968474206105709"><ele>56.33333333333333</ele><time>2026-04-29T17:22:04Z</time></trkpt><trkpt lat="43.61249879726697" lon="10.968506552862655"><ele>58.0</ele><time>2026-04-29T17:22:05Z</time></trkpt><trkpt lat="43.61270081759812" lon="10.968497128918912"><ele>59.33333333333333</ele><time>2026-04-29T17:22:06Z</time></trkpt><trkpt lat="43.61291127656788" lon="10.968442139571646"><ele>60.66666666666667</ele><time>2026-04-29T17:22:07Z</time></trkpt><trkpt lat="43.61312942264382" lon="10.968371169801651"><ele>62.0</ele><time>2026-04-29T17:22:08Z</time></trkpt><trkpt lat="43.61335550961603" lon="10.968289731390385"><ele>59.333333333333336</ele><time>2026-04-29T17:22:09Z</time></trkpt><trkpt lat="43.61356645585391" lon="10.968216347167074"><ele>56.66666666666667</ele><time>2026-04-29T17:22:10Z</time></trkpt><trkpt lat="43.61375998859605" lon="10.968145821667417"><ele>54.0</ele><time>2026-04-29T17:22:11Z</time></trkpt><trkpt lat="43.613954449892994" lon="10.968070634749763"><ele>54.0</ele><time>2026-04-29T17:22:12Z</time></trkpt><trkpt lat="43.6141524698007" lon="10.967992415206071"><ele>54.0</ele><time>2026-04-29T17:22:13Z</time></trkpt><trkpt lat="43.61435269937227" lon="10.967920527331161"><ele>54.0</ele><time>2026-04-29T17:22:14Z</time></trkpt><trkpt lat="43.61455773613884" lon="10.967856111502655"><ele>52.66666666666667</ele><time>2026-04-29T17:22:15Z</time></trkpt><trkpt lat="43.61476476754466" lon="10.967783197397626"><ele>51.333333333333336</ele><time>2026-04-29T17:22:16Z</time></trkpt><trkpt lat="43.61497085136306" lon="10.967698664314256"><ele>50.0</ele><time>2026-04-29T17:22:17Z</time></trkpt><trkpt lat="43.61517409675543" lon="10.96759317061747"><ele>50.66666666666667</ele><time>2026-04-29T17:22:18Z</time></trkpt><trkpt lat="43.615373208300795" lon="10.96746080520197"><ele>51.33333333333333</ele><time>2026-04-29T17:22:19Z</time></trkpt><trkpt lat="43.61556359402306" lon="10.9672962198098"><ele>52.0</ele><time>2026-04-29T17:22:20Z</time></trkpt><trkpt lat="43.615747774180235" lon="10.967100483722351"><ele>52.0</ele><time>2026-04-29T17:22:21Z</time></trkpt><trkpt lat="43.615913626225264" lon="10.966867484182531"><ele>52.0</ele><time>2026-04-29T17:22:22Z</time></trkpt><trkpt lat="43.616067709840316" lon="10.966604691599896"><ele>54.0</ele><time>2026-04-29T17:22:23Z</time></trkpt><trkpt lat="43.61622732020307" lon="10.96633449393322"><ele>56.0</ele><time>2026-04-29T17:22:24Z</time></trkpt><trkpt lat="43.61639228220217" lon="10.966067484534902"><ele>53.5</ele><time>2026-04-29T17:22:25Z</time></trkpt><trkpt lat="43.616564474049035" lon="10.965833013345394"><ele>51.0</ele><time>2026-04-29T17:22:26Z</time></trkpt><trkpt lat="43.616705600751914" lon="10.965584236837161"><ele>51.0</ele><time>2026-04-29T17:22:27Z</time></trkpt><trkpt lat="43.61685344409124" lon="10.965362968121024"><ele>51.0</ele><time>2026-04-29T17:22:28Z</time></trkpt><trkpt lat="43.61699079211411" lon="10.96515616539565"><ele>51.0</ele><time>2026-04-29T17:22:29Z</time></trkpt><trkpt lat="43.617130768899855" lon="10.964967210847313"><ele>51.0</ele><time>2026-04-29T17:22:30Z</time></trkpt><trkpt lat="43.61727386382928" lon="10.964808242929424"><ele>51.0</ele><time>2026-04-29T17:22:31Z</time></trkpt><trkpt lat="43.6174039773184" lon="10.964675841677494"><ele>51.0</ele><time>2026-04-29T17:22:32Z</time></trkpt><trkpt lat="43.61751689453784" lon="10.96455872815485"><ele>51.0</ele><time>2026-04-29T17:22:33Z</time></trkpt><trkpt lat="43.61762945778107" lon="10.964465631526611"><ele>51.0</ele><time>2026-04-29T17:22:34Z</time></trkpt><trkpt lat="43.617762169420274" lon="10.964397280133115"><ele>51.0</ele><time>2026-04-29T17:22:35Z</time></trkpt><trkpt lat="43.61790368294825" lon="10.96431622931956"><ele>51.0</ele><time>2026-04-29T17:22:36Z</time></trkpt><trkpt lat="43.61806106853852" lon="10.964209646272616"><ele>51.33333333333333</ele><time>2026-04-29T17:22:37Z</time></trkpt><trkpt lat="43.618231942021694" lon="10.964112723948135"><ele>51.666666666666664</ele><time>2026-04-29T17:22:38Z</time></trkpt><trkpt lat="43.618390906345624" lon="10.964047119960012"><ele>52.0</ele><time>2026-04-29T17:22:39Z</time></trkpt><trkpt lat="43.61855681351253" lon="10.964011195546414"><ele>51.33333333333333</ele><time>2026-04-29T17:22:40Z</time></trkpt><trkpt lat="43.618715902524755" lon="10.963989889244859"><ele>50.66666666666667</ele><time>2026-04-29T17:22:41Z</time></trkpt><trkpt lat="43.61889255775179" lon="10.963974105767171"><ele>50.0</ele><time>2026-04-29T17:22:42Z</time></trkpt><trkpt lat="43.61908476340567" lon="10.963889334779697"><ele>50.0</ele><time>2026-04-29T17:22:43.001Z</time></trkpt><trkpt lat="43.61928471420881" lon="10.963774976665176"><ele>50.0</ele><time>2026-04-29T17:22:44.001Z</time></trkpt><trkpt lat="43.61949523681218" lon="10.963654572343634"><ele>50.0</ele><time>2026-04-29T17:22:45.001Z</time></trkpt><trkpt lat="43.619721424410855" lon="10.96352097183945"><ele>49.5</ele><time>2026-04-29T17:22:46.001Z</time></trkpt><trkpt lat="43.6199194837515" lon="10.963278524184766"><ele>49.0</ele><time>2026-04-29T17:22:47.001Z</time></trkpt><trkpt lat="43.62014636180428" lon="10.96309513344267"><ele>53.5</ele><time>2026-04-29T17:22:48.001Z</time></trkpt><trkpt lat="43.620374655460076" lon="10.962911092165696"><ele>58.0</ele><time>2026-04-29T17:22:49.001Z</time></trkpt><trkpt lat="43.620608504355815" lon="10.962725751417286"><ele>58.0</ele><time>2026-04-29T17:22:50.001Z</time></trkpt><trkpt lat="43.6208462040812" lon="10.962545384964791"><ele>58.0</ele><time>2026-04-29T17:22:51.001Z</time></trkpt><trkpt lat="43.621087124324916" lon="10.962373497459414"><ele>55.0</ele><time>2026-04-29T17:22:52.001Z</time></trkpt><trkpt lat="43.62132640975747" lon="10.962215853514506"><ele>52.0</ele><time>2026-04-29T17:22:53.001Z</time></trkpt><trkpt lat="43.62156820547266" lon="10.962079876135183"><ele>52.0</ele><time>2026-04-29T17:22:54.001Z</time></trkpt><trkpt lat="43.621813707305115" lon="10.96195869317914"><ele>52.0</ele><time>2026-04-29T17:22:55.001Z</time></trkpt><trkpt lat="43.622048557012086" lon="10.961850837189026"><ele>52.5</ele><time>2026-04-29T17:22:56.001Z</time></trkpt><trkpt lat="43.62228014389871" lon="10.961756748219274"><ele>53.0</ele><time>2026-04-29T17:22:57.001Z</time></trkpt><trkpt lat="43.62251802813338" lon="10.961698231931868"><ele>50.0</ele><time>2026-04-29T17:22:58.001Z</time></trkpt><trkpt lat="43.62276777581931" lon="10.961670852393329"><ele>47.0</ele><time>2026-04-29T17:22:59.001Z</time></trkpt><trkpt lat="43.623026446907566" lon="10.961653388752223"><ele>46.5</ele><time>2026-04-29T17:23:00.001Z</time></trkpt><trkpt lat="43.62328829448205" lon="10.96162693782107"><ele>46.0</ele><time>2026-04-29T17:23:01.001Z</time></trkpt><trkpt lat="43.623555707455424" lon="10.961594607328792"><ele>45.5</ele><time>2026-04-29T17:23:02.001Z</time></trkpt><trkpt lat="43.623824035919206" lon="10.96156110389361"><ele>45.0</ele><time>2026-04-29T17:23:03.001Z</time></trkpt><trkpt lat="43.62409660192181" lon="10.961529597775959"><ele>45.0</ele><time>2026-04-29T17:23:04.001Z</time></trkpt><trkpt lat="43.62436948360383" lon="10.96149863561928"><ele>45.0</ele><time>2026-04-29T17:23:05.001Z</time></trkpt><trkpt lat="43.62464445812373" lon="10.96146961613059"><ele>45.5</ele><time>2026-04-29T17:23:06.001Z</time></trkpt><trkpt lat="43.62492191912207" lon="10.961438695470003"><ele>46.0</ele><time>2026-04-29T17:23:07.001Z</time></trkpt><trkpt lat="43.625196652771685" lon="10.961405921118399"><ele>46.0</ele><time>2026-04-29T17:23:08.001Z</time></trkpt><trkpt lat="43.62546732111221" lon="10.961375606564774"><ele>46.0</ele><time>2026-04-29T17:23:09.001Z</time></trkpt><trkpt lat="43.62573321907182" lon="10.961343481730818"><ele>46.0</ele><time>2026-04-29T17:23:10.001Z</time></trkpt><trkpt lat="43.625998617820414" lon="10.961311410828998"><ele>46.0</ele><time>2026-04-29T17:23:11Z</time></trkpt><trkpt lat="43.62625870977674" lon="10.961277722503429"><ele>45.5</ele><time>2026-04-29T17:23:12Z</time></trkpt><trkpt lat="43.626518692316395" lon="10.96124790952095"><ele>45.0</ele><time>2026-04-29T17:23:13Z</time></trkpt><trkpt lat="43.6267747146255" lon="10.96121267207719"><ele>45.0</ele><time>2026-04-29T17:23:14Z</time></trkpt><trkpt lat="43.627028428703866" lon="10.961169327741478"><ele>45.0</ele><time>2026-04-29T17:23:15Z</time></trkpt><trkpt lat="43.627280641241235" lon="10.961123558813533"><ele>45.0</ele><time>2026-04-29T17:23:16Z</time></trkpt><trkpt lat="43.62753075099335" lon="10.961099830788378"><ele>45.0</ele><time>2026-04-29T17:23:17Z</time></trkpt><trkpt lat="43.62778144166276" lon="10.961079072618098"><ele>45.0</ele><time>2026-04-29T17:23:18Z</time></trkpt><trkpt lat="43.62803110731891" lon="10.961060644055358"><ele>45.0</ele><time>2026-04-29T17:23:19Z</time></trkpt><trkpt lat="43.62827674712387" lon="10.961040238303143"><ele>45.0</ele><time>2026-04-29T17:23:20Z</time></trkpt><trkpt lat="43.62852516771054" lon="10.96101479673147"><ele>45.0</ele><time>2026-04-29T17:23:21Z</time></trkpt><trkpt lat="43.628773262885055" lon="10.960983113307176"><ele>44.5</ele><time>2026-04-29T17:23:22Z</time></trkpt><trkpt lat="43.629019376675906" lon="10.960950471185226"><ele>44.0</ele><time>2026-04-29T17:23:23Z</time></trkpt><trkpt lat="43.62927044934961" lon="10.960917901879318"><ele>44.5</ele><time>2026-04-29T17:23:24Z</time></trkpt><trkpt lat="43.62952138710946" lon="10.960884424523867"><ele>45.0</ele><time>2026-04-29T17:23:25Z</time></trkpt><trkpt lat="43.62977029707612" lon="10.960854398635794"><ele>45.0</ele><time>2026-04-29T17:23:26Z</time></trkpt><trkpt lat="43.63001877693862" lon="10.960821829713817"><ele>45.0</ele><time>2026-04-29T17:23:27Z</time></trkpt><trkpt lat="43.63026631321373" lon="10.960789930139029"><ele>44.5</ele><time>2026-04-29T17:23:28Z</time></trkpt><trkpt lat="43.63051817210725" lon="10.960757957821345"><ele>44.0</ele><time>2026-04-29T17:23:29Z</time></trkpt><trkpt lat="43.63075220978709" lon="10.96072700471141"><ele>44.0</ele><time>2026-04-29T17:23:30Z</time></trkpt><trkpt lat="43.630973920795" lon="10.960703279590515"><ele>44.0</ele><time>2026-04-29T17:23:31Z</time></trkpt><trkpt lat="43.63118171958909" lon="10.960680208358843"><ele>44.0</ele><time>2026-04-29T17:23:32Z</time></trkpt><trkpt lat="43.631369492719294" lon="10.960658409124077"><ele>44.5</ele><time>2026-04-29T17:23:33Z</time></trkpt><trkpt lat="43.631523428387915" lon="10.960639830922336"><ele>45.0</ele><time>2026-04-29T17:23:34Z</time></trkpt><trkpt lat="43.631669499126055" lon="10.960622474195699"><ele>45.5</ele><time>2026-04-29T17:23:35Z</time></trkpt><trkpt lat="43.631812015925064" lon="10.96060419616807"><ele>46.0</ele><time>2026-04-29T17:23:36Z</time></trkpt><trkpt lat="43.6319599872925" lon="10.960605010063672"><ele>46.25</ele><time>2026-04-29T17:23:37Z</time></trkpt><trkpt lat="43.63211214403891" lon="10.960612145813768"><ele>46.5</ele><time>2026-04-29T17:23:38Z</time></trkpt><trkpt lat="43.632262913646514" lon="10.960626763923134"><ele>46.75</ele><time>2026-04-29T17:23:39Z</time></trkpt><trkpt lat="43.63240479939231" lon="10.960649362900106"><ele>47.0</ele><time>2026-04-29T17:23:40Z</time></trkpt><trkpt lat="43.6325250760919" lon="10.960516297226814"><ele>47.0</ele><time>2026-04-29T17:23:41Z</time></trkpt><trkpt lat="43.632665065851164" lon="10.960498500773905"><ele>47.0</ele><time>2026-04-29T17:23:42Z</time></trkpt><trkpt lat="43.63280879117585" lon="10.960483277690486"><ele>47.0</ele><time>2026-04-29T17:23:43Z</time></trkpt><trkpt lat="43.63294423804905" lon="10.960478453985289"><ele>47.0</ele><time>2026-04-29T17:23:44Z</time></trkpt><trkpt lat="43.63307238116663" lon="10.960447733097492"><ele>47.0</ele><time>2026-04-29T17:23:45Z</time></trkpt><trkpt lat="43.63320213032311" lon="10.96038940090728"><ele>47.0</ele><time>2026-04-29T17:23:46Z</time></trkpt><trkpt lat="43.63332745885745" lon="10.960293102975482"><ele>47.0</ele><time>2026-04-29T17:23:47Z</time></trkpt><trkpt lat="43.633447449645466" lon="10.960159064695215"><ele>47.0</ele><time>2026-04-29T17:23:48Z</time></trkpt><trkpt lat="43.63356505903512" lon="10.959997075745196"><ele>49.0</ele><time>2026-04-29T17:23:49Z</time></trkpt><trkpt lat="43.633687818097165" lon="10.959828940426164"><ele>51.0</ele><time>2026-04-29T17:23:50Z</time></trkpt><trkpt lat="43.63380500165858" lon="10.959666887120942"><ele>53.0</ele><time>2026-04-29T17:23:51Z</time></trkpt><trkpt lat="43.633914180793184" lon="10.95956632815371"><ele>53.0</ele><time>2026-04-29T17:23:52Z</time></trkpt><trkpt lat="43.63402219934282" lon="10.959476664834925"><ele>53.0</ele><time>2026-04-29T17:23:53Z</time></trkpt><trkpt lat="43.63413767928941" lon="10.959445552094307"><ele>53.0</ele><time>2026-04-29T17:23:54Z</time></trkpt><trkpt lat="43.634270636077744" lon="10.959411842656962"><ele>53.0</ele><time>2026-04-29T17:23:55Z</time></trkpt><trkpt lat="43.63443041065526" lon="10.959371220487078"><ele>52.66666666666667</ele><time>2026-04-29T17:23:56Z</time></trkpt><trkpt lat="43.63460227312368" lon="10.959324957268262"><ele>52.33333333333333</ele><time>2026-04-29T17:23:57Z</time></trkpt><trkpt lat="43.63474754842423" lon="10.959264478332843"><ele>52.0</ele><time>2026-04-29T17:23:58Z</time></trkpt><trkpt lat="43.6348770237772" lon="10.959242963690148"><ele>52.0</ele><time>2026-04-29T17:23:59Z</time></trkpt><trkpt lat="43.635009448115895" lon="10.959206116124628"><ele>52.0</ele><time>2026-04-29T17:24:00Z</time></trkpt><trkpt lat="43.63514943592179" lon="10.959148527688905"><ele>52.0</ele><time>2026-04-29T17:24:01Z</time></trkpt><trkpt lat="43.63530260104779" lon="10.959095404517932"><ele>52.0</ele><time>2026-04-29T17:24:02Z</time></trkpt><trkpt lat="43.63546776952478" lon="10.959030838379999"><ele>50.33333333333333</ele><time>2026-04-29T17:24:03Z</time></trkpt><trkpt lat="43.635646991442094" lon="10.958960290378108"><ele>48.666666666666664</ele><time>2026-04-29T17:24:04Z</time></trkpt><trkpt lat="43.63583369137036" lon="10.958899755805792"><ele>47.0</ele><time>2026-04-29T17:24:05Z</time></trkpt><trkpt lat="43.63603140598909" lon="10.95883506046948"><ele>46.666666666666664</ele><time>2026-04-29T17:24:06Z</time></trkpt><trkpt lat="43.636235054131305" lon="10.958763908414241"><ele>46.333333333333336</ele><time>2026-04-29T17:24:07Z</time></trkpt><trkpt lat="43.6364438140859" lon="10.958698378374148"><ele>46.0</ele><time>2026-04-29T17:24:08Z</time></trkpt><trkpt lat="43.636657271849096" lon="10.958632964624426"><ele>46.0</ele><time>2026-04-29T17:24:09Z</time></trkpt><trkpt lat="43.63687580241945" lon="10.958565732960647"><ele>46.0</ele><time>2026-04-29T17:24:10Z</time></trkpt><trkpt lat="43.63709825812045" lon="10.958488127035226"><ele>46.0</ele><time>2026-04-29T17:24:11Z</time></trkpt><trkpt lat="43.637320848862046" lon="10.958404228928668"><ele>46.0</ele><time>2026-04-29T17:24:12Z</time></trkpt><trkpt lat="43.6375404138332" lon="10.958305067687052"><ele>46.0</ele><time>2026-04-29T17:24:13Z</time></trkpt><trkpt lat="43.63775576035304" lon="10.958205108183028"><ele>46.0</ele><time>2026-04-29T17:24:14Z</time></trkpt><trkpt lat="43.63796352497302" lon="10.958117079022509"><ele>46.0</ele><time>2026-04-29T17:24:15Z</time></trkpt><trkpt lat="43.63817113387317" lon="10.958031579048907"><ele>46.66666666666667</ele><time>2026-04-29T17:24:16Z</time></trkpt><trkpt lat="43.63837612777706" lon="10.957959906914107"><ele>47.333333333333336</ele><time>2026-04-29T17:24:17Z</time></trkpt><trkpt lat="43.63858856585622" lon="10.957913291190296"><ele>48.0</ele><time>2026-04-29T17:24:18Z</time></trkpt><trkpt lat="43.63879846464078" lon="10.957899158451644"><ele>46.333333333333336</ele><time>2026-04-29T17:24:19Z</time></trkpt><trkpt lat="43.63901724889249" lon="10.957900198020239"><ele>44.66666666666667</ele><time>2026-04-29T17:24:20Z</time></trkpt><trkpt lat="43.639237040700365" lon="10.957917298695026"><ele>43.0</ele><time>2026-04-29T17:24:21Z</time></trkpt><trkpt lat="43.63945484787899" lon="10.957954990972773"><ele>43.0</ele><time>2026-04-29T17:24:22Z</time></trkpt><trkpt lat="43.639675634337316" lon="10.95800882567465"><ele>43.0</ele><time>2026-04-29T17:24:23Z</time></trkpt><trkpt lat="43.63989599464174" lon="10.958089492410227"><ele>43.0</ele><time>2026-04-29T17:24:24Z</time></trkpt><trkpt lat="43.640117379422996" lon="10.958157945994428"><ele>43.0</ele><time>2026-04-29T17:24:25Z</time></trkpt><trkpt lat="43.640338662151905" lon="10.958183215509774"><ele>43.0</ele><time>2026-04-29T17:24:26Z</time></trkpt><trkpt lat="43.64054426307516" lon="10.958217643222358"><ele>42.5</ele><time>2026-04-29T17:24:27Z</time></trkpt><trkpt lat="43.640796350145834" lon="10.958154124938211"><ele>42.0</ele><time>2026-04-29T17:24:28Z</time></trkpt><trkpt lat="43.641032508431266" lon="10.958119124609961"><ele>43.5</ele><time>2026-04-29T17:24:29Z</time></trkpt><trkpt lat="43.64126673190846" lon="10.95806047955334"><ele>45.0</ele><time>2026-04-29T17:24:30Z</time></trkpt><trkpt lat="43.64149914527579" lon="10.95797779506121"><ele>45.0</ele><time>2026-04-29T17:24:31Z</time></trkpt><trkpt lat="43.641719712753925" lon="10.957855677956596"><ele>45.0</ele><time>2026-04-29T17:24:32Z</time></trkpt><trkpt lat="43.641927658981494" lon="10.957686851313769"><ele>46.0</ele><time>2026-04-29T17:24:33Z</time></trkpt><trkpt lat="43.64212476408159" lon="10.95748352336215"><ele>47.0</ele><time>2026-04-29T17:24:34Z</time></trkpt><trkpt lat="43.642306752027125" lon="10.957255242518242"><ele>47.0</ele><time>2026-04-29T17:24:35Z</time></trkpt><trkpt lat="43.64247741261167" lon="10.957006165998967"><ele>47.0</ele><time>2026-04-29T17:24:36Z</time></trkpt><trkpt lat="43.642642457460475" lon="10.956742441543224"><ele>47.666666666666664</ele><time>2026-04-29T17:24:37Z</time></trkpt><trkpt lat="43.642792120673676" lon="10.956500524321473"><ele>48.33333333333333</ele><time>2026-04-29T17:24:38Z</time></trkpt><trkpt lat="43.64291586775027" lon="10.956305906511346"><ele>49.0</ele><time>2026-04-29T17:24:39Z</time></trkpt><trkpt lat="43.643046859990164" lon="10.956169708079708"><ele>49.0</ele><time>2026-04-29T17:24:40Z</time></trkpt><trkpt lat="43.64321411777942" lon="10.956112546326"><ele>49.0</ele><time>2026-04-29T17:24:41Z</time></trkpt><trkpt lat="43.64339759096282" lon="10.956091260890025"><ele>49.0</ele><time>2026-04-29T17:24:42Z</time></trkpt><trkpt lat="43.643600005668375" lon="10.956109707346313"><ele>47.33333333333333</ele><time>2026-04-29T17:24:43Z</time></trkpt><trkpt lat="43.64381354177683" lon="10.956147642171233"><ele>45.666666666666664</ele><time>2026-04-29T17:24:44Z</time></trkpt><trkpt lat="43.644025552717814" lon="10.956148995254892"><ele>44.0</ele><time>2026-04-29T17:24:45Z</time></trkpt><trkpt lat="43.6442282094427" lon="10.95618642921844"><ele>44.0</ele><time>2026-04-29T17:24:46Z</time></trkpt><trkpt lat="43.64443375277698" lon="10.956205243068922"><ele>44.0</ele><time>2026-04-29T17:24:47Z</time></trkpt><trkpt lat="43.64465031403946" lon="10.956064646948704"><ele>44.0</ele><time>2026-04-29T17:24:48Z</time></trkpt><trkpt lat="43.64486522817347" lon="10.956008030464881"><ele>43.666666666666664</ele><time>2026-04-29T17:24:49Z</time></trkpt><trkpt lat="43.64507477855417" lon="10.955926195411836"><ele>43.333333333333336</ele><time>2026-04-29T17:24:50Z</time></trkpt><trkpt lat="43.645284321720574" lon="10.95581365987481"><ele>43.0</ele><time>2026-04-29T17:24:51Z</time></trkpt><trkpt lat="43.64548971419214" lon="10.955676803882259"><ele>43.0</ele><time>2026-04-29T17:24:52Z</time></trkpt><trkpt lat="43.64568225784842" lon="10.955505895815065"><ele>43.0</ele><time>2026-04-29T17:24:53Z</time></trkpt><trkpt lat="43.64588265534735" lon="10.955289588409096"><ele>43.0</ele><time>2026-04-29T17:24:54Z</time></trkpt><trkpt lat="43.64607579795863" lon="10.955065715213738"><ele>43.0</ele><time>2026-04-29T17:24:55Z</time></trkpt><trkpt lat="43.646255024332746" lon="10.95486706672876"><ele>46.5</ele><time>2026-04-29T17:24:56Z</time></trkpt><trkpt lat="43.64644969369911" lon="10.954689471577437"><ele>50.0</ele><time>2026-04-29T17:24:57.001Z</time></trkpt><trkpt lat="43.64664500273006" lon="10.954511478539542"><ele>50.0</ele><time>2026-04-29T17:24:58.001Z</time></trkpt><trkpt lat="43.646824248041966" lon="10.954285159747412"><ele>50.0</ele><time>2026-04-29T17:24:59.001Z</time></trkpt><trkpt lat="43.64699527511528" lon="10.954002376921935"><ele>52.5</ele><time>2026-04-29T17:25:00.001Z</time></trkpt><trkpt lat="43.64716495794087" lon="10.9537130161264"><ele>55.0</ele><time>2026-04-29T17:25:01.001Z</time></trkpt><trkpt lat="43.647333570114995" lon="10.953435663664532"><ele>52.0</ele><time>2026-04-29T17:25:02.001Z</time></trkpt><trkpt lat="43.64749149755951" lon="10.953166025415877"><ele>49.0</ele><time>2026-04-29T17:25:03.001Z</time></trkpt><trkpt lat="43.64764996943977" lon="10.952901381183562"><ele>49.0</ele><time>2026-04-29T17:25:04.001Z</time></trkpt><trkpt lat="43.64780968964324" lon="10.95267446340721"><ele>49.0</ele><time>2026-04-29T17:25:05.001Z</time></trkpt><trkpt lat="43.647949914169914" lon="10.952442106941639"><ele>49.0</ele><time>2026-04-29T17:25:06.001Z</time></trkpt><trkpt lat="43.64806036725213" lon="10.952192958147084"><ele>47.666666666666664</ele><time>2026-04-29T17:25:07.001Z</time></trkpt><trkpt lat="43.64815239196842" lon="10.951963784358254"><ele>46.33333333333333</ele><time>2026-04-29T17:25:08.001Z</time></trkpt><trkpt lat="43.64823005447492" lon="10.951772524116308"><ele>45.0</ele><time>2026-04-29T17:25:09.001Z</time></trkpt><trkpt lat="43.648303705336346" lon="10.951605146650563"><ele>44.0</ele><time>2026-04-29T17:25:10.001Z</time></trkpt><trkpt lat="43.64837238409579" lon="10.951457091915866"><ele>43.0</ele><time>2026-04-29T17:25:11.001Z</time></trkpt><trkpt lat="43.648449537219136" lon="10.9512900213939"><ele>42.0</ele><time>2026-04-29T17:25:12.001Z</time></trkpt><trkpt lat="43.648536811642124" lon="10.951056075162844"><ele>43.0</ele><time>2026-04-29T17:25:13.001Z</time></trkpt><trkpt lat="43.648641983119475" lon="10.950768267640855"><ele>44.0</ele><time>2026-04-29T17:25:14.001Z</time></trkpt><trkpt lat="43.64876004309961" lon="10.9504429079135"><ele>44.0</ele><time>2026-04-29T17:25:15.001Z</time></trkpt><trkpt lat="43.648891229772815" lon="10.950077487361382"><ele>44.0</ele><time>2026-04-29T17:25:16.001Z</time></trkpt><trkpt lat="43.64903161825194" lon="10.949687759815873"><ele>43.5</ele><time>2026-04-29T17:25:17Z</time></trkpt><trkpt lat="43.64916519681068" lon="10.949314539108812"><ele>43.0</ele><time>2026-04-29T17:25:18Z</time></trkpt><trkpt lat="43.649285253904935" lon="10.949011216602074"><ele>43.0</ele><time>2026-04-29T17:25:19Z</time></trkpt><trkpt lat="43.64939005056885" lon="10.948759761155532"><ele>43.0</ele><time>2026-04-29T17:25:20Z</time></trkpt><trkpt lat="43.64948623622368" lon="10.948540717418766"><ele>43.0</ele><time>2026-04-29T17:25:21Z</time></trkpt><trkpt lat="43.64958865188657" lon="10.94835259305529"><ele>44.0</ele><time>2026-04-29T17:25:22Z</time></trkpt><trkpt lat="43.649718436973934" lon="10.948202706357195"><ele>45.0</ele><time>2026-04-29T17:25:23Z</time></trkpt><trkpt lat="43.64988363371302" lon="10.948070911379162"><ele>46.0</ele><time>2026-04-29T17:25:24Z</time></trkpt><trkpt lat="43.65007771764278" lon="10.947936652312864"><ele>46.0</ele><time>2026-04-29T17:25:25Z</time></trkpt><trkpt lat="43.65028227393235" lon="10.947784826948302"><ele>46.0</ele><time>2026-04-29T17:25:26Z</time></trkpt><trkpt lat="43.65050086435057" lon="10.947619352442167"><ele>45.5</ele><time>2026-04-29T17:25:27Z</time></trkpt><trkpt lat="43.65072272725035" lon="10.947453183011639"><ele>45.0</ele><time>2026-04-29T17:25:28Z</time></trkpt><trkpt lat="43.6509511064182" lon="10.947281283377237"><ele>47.5</ele><time>2026-04-29T17:25:29Z</time></trkpt><trkpt lat="43.65118302045279" lon="10.947105773117965"><ele>50.0</ele><time>2026-04-29T17:25:30Z</time></trkpt><trkpt lat="43.65140774810297" lon="10.946931352592037"><ele>50.0</ele><time>2026-04-29T17:25:31Z</time></trkpt><trkpt lat="43.65163131973287" lon="10.946746587021122"><ele>50.0</ele><time>2026-04-29T17:25:32Z</time></trkpt><trkpt lat="43.65184354907675" lon="10.946543111488266"><ele>50.5</ele><time>2026-04-29T17:25:33Z</time></trkpt><trkpt lat="43.652046456985985" lon="10.946313028689328"><ele>51.0</ele><time>2026-04-29T17:25:34Z</time></trkpt><trkpt lat="43.65224390384379" lon="10.946055509985705"><ele>48.5</ele><time>2026-04-29T17:25:35Z</time></trkpt><trkpt lat="43.65243143445731" lon="10.945789729710574"><ele>46.0</ele><time>2026-04-29T17:25:36Z</time></trkpt><trkpt lat="43.65258891044075" lon="10.945528876425714"><ele>46.0</ele><time>2026-04-29T17:25:37Z</time></trkpt><trkpt lat="43.652716482860775" lon="10.945283485454741"><ele>46.0</ele><time>2026-04-29T17:25:38Z</time></trkpt><trkpt lat="43.652847511971466" lon="10.945063961613203"><ele>46.0</ele><time>2026-04-29T17:25:39Z</time></trkpt><trkpt lat="43.652990701044594" lon="10.944869262758834"><ele>47.66666666666667</ele><time>2026-04-29T17:25:40Z</time></trkpt><trkpt lat="43.65313740832129" lon="10.94469952342765"><ele>49.333333333333336</ele><time>2026-04-29T17:25:41Z</time></trkpt><trkpt lat="43.65327498643559" lon="10.94456184481937"><ele>51.0</ele><time>2026-04-29T17:25:42Z</time></trkpt><trkpt lat="43.65339330938916" lon="10.944443435242908"><ele>51.0</ele><time>2026-04-29T17:25:43Z</time></trkpt><trkpt lat="43.65349560829598" lon="10.944337218535486"><ele>51.0</ele><time>2026-04-29T17:25:44Z</time></trkpt><trkpt lat="43.65358117007563" lon="10.944247383484587"><ele>51.0</ele><time>2026-04-29T17:25:45Z</time></trkpt><trkpt lat="43.65365185705849" lon="10.944165287859217"><ele>51.0</ele><time>2026-04-29T17:25:46Z</time></trkpt><trkpt lat="43.65369970858926" lon="10.9440979670146"><ele>51.0</ele><time>2026-04-29T17:25:47Z</time></trkpt><trkpt lat="43.65376924891857" lon="10.944075188257408"><ele>49.8</ele><time>2026-04-29T17:25:50Z</time></trkpt><trkpt lat="43.65386497594025" lon="10.943950688980603"><ele>48.599999999999994</ele><time>2026-04-29T17:26:30Z</time></trkpt><trkpt lat="43.65393291465648" lon="10.943870557654314"><ele>47.4</ele><time>2026-04-29T17:26:31Z</time></trkpt><trkpt lat="43.654017512093645" lon="10.943774316076443"><ele>46.2</ele><time>2026-04-29T17:26:32Z</time></trkpt><trkpt lat="43.65411008625884" lon="10.943672304065531"><ele>45.0</ele><time>2026-04-29T17:26:33Z</time></trkpt><trkpt lat="43.654211543729154" lon="10.943558451827457"><ele>45.0</ele><time>2026-04-29T17:26:34Z</time></trkpt><trkpt lat="43.65432047760386" lon="10.943434649667594"><ele>45.0</ele><time>2026-04-29T17:26:35Z</time></trkpt><trkpt lat="43.654437553741026" lon="10.943304813383103"><ele>45.0</ele><time>2026-04-29T17:26:36Z</time></trkpt><trkpt lat="43.65456216217133" lon="10.943172150290556"><ele>45.0</ele><time>2026-04-29T17:26:37Z</time></trkpt><trkpt lat="43.65469040164526" lon="10.943031207560741"><ele>46.66666666666667</ele><time>2026-04-29T17:26:38Z</time></trkpt><trkpt lat="43.65482252449661" lon="10.942888831248085"><ele>48.333333333333336</ele><time>2026-04-29T17:26:39Z</time></trkpt><trkpt lat="43.654956199792494" lon="10.942748937869688"><ele>50.0</ele><time>2026-04-29T17:26:40Z</time></trkpt><trkpt lat="43.655085119472915" lon="10.942608645427162"><ele>50.333333333333336</ele><time>2026-04-29T17:26:41Z</time></trkpt><trkpt lat="43.655208068722985" lon="10.94247119311343"><ele>50.66666666666667</ele><time>2026-04-29T17:26:42Z</time></trkpt><trkpt lat="43.65532075979529" lon="10.94232650351356"><ele>51.0</ele><time>2026-04-29T17:26:43Z</time></trkpt><trkpt lat="43.65542256163577" lon="10.94217708889285"><ele>51.0</ele><time>2026-04-29T17:26:44Z</time></trkpt><trkpt lat="43.655524022034236" lon="10.942014551125762"><ele>51.0</ele><time>2026-04-29T17:26:45Z</time></trkpt><trkpt lat="43.65562989716774" lon="10.941837851293911"><ele>51.0</ele><time>2026-04-29T17:26:46Z</time></trkpt><trkpt lat="43.65574396962316" lon="10.941653022970762"><ele>49.0</ele><time>2026-04-29T17:26:47Z</time></trkpt><trkpt lat="43.655855141354515" lon="10.941478486036681"><ele>47.0</ele><time>2026-04-29T17:26:48Z</time></trkpt><trkpt lat="43.65596846941696" lon="10.941314659963647"><ele>45.0</ele><time>2026-04-29T17:26:49Z</time></trkpt><trkpt lat="43.65608493159398" lon="10.941161739350228"><ele>44.333333333333336</ele><time>2026-04-29T17:26:50Z</time></trkpt><trkpt lat="43.656210769916704" lon="10.94101517933174"><ele>43.66666666666667</ele><time>2026-04-29T17:26:51Z</time></trkpt><trkpt lat="43.65634173294645" lon="10.940871654487603"><ele>43.0</ele><time>2026-04-29T17:26:52Z</time></trkpt><trkpt lat="43.65646713509191" lon="10.94071190744935"><ele>43.0</ele><time>2026-04-29T17:26:53Z</time></trkpt><trkpt lat="43.65659118339003" lon="10.940538518124153"><ele>43.0</ele><time>2026-04-29T17:26:54Z</time></trkpt><trkpt lat="43.65670879070911" lon="10.940365226332057"><ele>43.0</ele><time>2026-04-29T17:26:55Z</time></trkpt><trkpt lat="43.65681366492594" lon="10.940195423497709"><ele>42.66666666666667</ele><time>2026-04-29T17:26:56Z</time></trkpt><trkpt lat="43.65690684348918" lon="10.940003387629021"><ele>42.333333333333336</ele><time>2026-04-29T17:26:57Z</time></trkpt><trkpt lat="43.65698052766151" lon="10.939787771099075"><ele>42.0</ele><time>2026-04-29T17:26:58Z</time></trkpt><trkpt lat="43.65705008724462" lon="10.939556284189752"><ele>43.0</ele><time>2026-04-29T17:26:59Z</time></trkpt><trkpt lat="43.657108784011314" lon="10.939301557674455"><ele>44.0</ele><time>2026-04-29T17:27:00Z</time></trkpt><trkpt lat="43.65716794940183" lon="10.939036920283899"><ele>45.0</ele><time>2026-04-29T17:27:01Z</time></trkpt><trkpt lat="43.657228693017444" lon="10.93876030576963"><ele>45.0</ele><time>2026-04-29T17:27:02Z</time></trkpt><trkpt lat="43.6572953562184" lon="10.938478254380998"><ele>45.0</ele><time>2026-04-29T17:27:03Z</time></trkpt><trkpt lat="43.657364575912275" lon="10.938188779578507"><ele>45.0</ele><time>2026-04-29T17:27:04Z</time></trkpt><trkpt lat="43.657438112834896" lon="10.937899982916148"><ele>45.0</ele><time>2026-04-29T17:27:05Z</time></trkpt><trkpt lat="43.657503176244845" lon="10.937633489417564"><ele>45.0</ele><time>2026-04-29T17:27:06Z</time></trkpt><trkpt lat="43.6575586519831" lon="10.93739157647054"><ele>45.0</ele><time>2026-04-29T17:27:07Z</time></trkpt><trkpt lat="43.6576277579399" lon="10.937178531603337"><ele>44.333333333333336</ele><time>2026-04-29T17:27:08Z</time></trkpt><trkpt lat="43.65772441053151" lon="10.936974096006487"><ele>43.66666666666667</ele><time>2026-04-29T17:27:09Z</time></trkpt><trkpt lat="43.65783974592798" lon="10.936773457141067"><ele>43.0</ele><time>2026-04-29T17:27:10.001Z</time></trkpt><trkpt lat="43.65796265016198" lon="10.936591336409979"><ele>42.75</ele><time>2026-04-29T17:27:11.001Z</time></trkpt><trkpt lat="43.658079841573446" lon="10.936440316566605"><ele>42.5</ele><time>2026-04-29T17:27:12.001Z</time></trkpt><trkpt lat="43.658179612916165" lon="10.936316603048102"><ele>42.25</ele><time>2026-04-29T17:27:13.001Z</time></trkpt><trkpt lat="43.65826056035864" lon="10.936208802728249"><ele>42.0</ele><time>2026-04-29T17:27:14.001Z</time></trkpt><trkpt lat="43.65832435248141" lon="10.936122613117274"><ele>42.0</ele><time>2026-04-29T17:27:15.001Z</time></trkpt><trkpt lat="43.6583734683446" lon="10.936057850976503"><ele>42.0</ele><time>2026-04-29T17:27:16.001Z</time></trkpt><trkpt lat="43.65844299470425" lon="10.935968340795963"><ele>42.0</ele><time>2026-04-29T17:27:18.001Z</time></trkpt><trkpt lat="43.65850382342529" lon="10.935881333858685"><ele>42.0</ele><time>2026-04-29T17:29:03.001Z</time></trkpt><trkpt lat="43.65855914791749" lon="10.93580961727779"><ele>42.0</ele><time>2026-04-29T17:29:04.001Z</time></trkpt><trkpt lat="43.658627405402015" lon="10.935717735527636"><ele>42.0</ele><time>2026-04-29T17:29:05.001Z</time></trkpt><trkpt lat="43.65870417720945" lon="10.93560728988638"><ele>42.5</ele><time>2026-04-29T17:29:06.001Z</time></trkpt><trkpt lat="43.65879346099465" lon="10.935480371973581"><ele>43.0</ele><time>2026-04-29T17:29:07.001Z</time></trkpt><trkpt lat="43.65889133969749" lon="10.935339148909561"><ele>43.5</ele><time>2026-04-29T17:29:08.001Z</time></trkpt><trkpt lat="43.65899705300486" lon="10.935186305983137"><ele>44.0</ele><time>2026-04-29T17:29:09.001Z</time></trkpt><trkpt lat="43.65910102971946" lon="10.935027085988322"><ele>44.0</ele><time>2026-04-29T17:29:10.001Z</time></trkpt><trkpt lat="43.659196035089856" lon="10.934844318704325"><ele>44.0</ele><time>2026-04-29T17:29:11.001Z</time></trkpt><trkpt lat="43.65928644306393" lon="10.934636684634736"><ele>44.0</ele><time>2026-04-29T17:29:12.001Z</time></trkpt><trkpt lat="43.65938724543157" lon="10.93438408369248"><ele>45.0</ele><time>2026-04-29T17:29:13.001Z</time></trkpt><trkpt lat="43.659469750163204" lon="10.934145660814046"><ele>46.0</ele><time>2026-04-29T17:29:14.001Z</time></trkpt><trkpt lat="43.65954842342223" lon="10.933927873208074"><ele>47.0</ele><time>2026-04-29T17:29:15.001Z</time></trkpt><trkpt lat="43.65964980296745" lon="10.933738023981736"><ele>47.0</ele><time>2026-04-29T17:29:16.001Z</time></trkpt><trkpt lat="43.65978186602406" lon="10.933558342396442"><ele>47.0</ele><time>2026-04-29T17:29:17.001Z</time></trkpt><trkpt lat="43.65992813821207" lon="10.93338987356392"><ele>47.0</ele><time>2026-04-29T17:29:18.001Z</time></trkpt><trkpt lat="43.66007641100173" lon="10.933210831771744"><ele>46.666666666666664</ele><time>2026-04-29T17:29:19.001Z</time></trkpt><trkpt lat="43.66022560579469" lon="10.9330142455687"><ele>46.333333333333336</ele><time>2026-04-29T17:29:20.001Z</time></trkpt><trkpt lat="43.660375988392595" lon="10.932803894769037"><ele>46.0</ele><time>2026-04-29T17:29:21.001Z</time></trkpt><trkpt lat="43.66051356711279" lon="10.932573078611671"><ele>45.66666666666667</ele><time>2026-04-29T17:29:22.001Z</time></trkpt><trkpt lat="43.66063627533808" lon="10.932330397409979"><ele>45.333333333333336</ele><time>2026-04-29T17:29:23.001Z</time></trkpt><trkpt lat="43.660738035792875" lon="10.932110933021123"><ele>45.0</ele><time>2026-04-29T17:29:24.001Z</time></trkpt><trkpt lat="43.66083210190273" lon="10.93187125635243"><ele>45.666666666666664</ele><time>2026-04-29T17:29:25.001Z</time></trkpt><trkpt lat="43.660935160503335" lon="10.931625575809367"><ele>46.33333333333333</ele><time>2026-04-29T17:29:26.001Z</time></trkpt><trkpt lat="43.66105649152786" lon="10.931387489182363"><ele>47.0</ele><time>2026-04-29T17:29:27.001Z</time></trkpt><trkpt lat="43.661187365086384" lon="10.931160036826475"><ele>47.0</ele><time>2026-04-29T17:29:28Z</time></trkpt><trkpt lat="43.661332876340886" lon="10.930948372778452"><ele>47.0</ele><time>2026-04-29T17:29:29Z</time></trkpt><trkpt lat="43.66149526201271" lon="10.930771813604006"><ele>47.0</ele><time>2026-04-29T17:29:30Z</time></trkpt><trkpt lat="43.66167683478602" lon="10.930632139583233"><ele>45.33333333333333</ele><time>2026-04-29T17:29:31Z</time></trkpt><trkpt lat="43.661878611487005" lon="10.930522063896907"><ele>43.666666666666664</ele><time>2026-04-29T17:29:32Z</time></trkpt><trkpt lat="43.66208400839735" lon="10.930401347580721"><ele>42.0</ele><time>2026-04-29T17:29:33Z</time></trkpt><trkpt lat="43.662288961667514" lon="10.93025932993804"><ele>42.0</ele><time>2026-04-29T17:29:34Z</time></trkpt><trkpt lat="43.66249644642913" lon="10.930102328053996"><ele>42.0</ele><time>2026-04-29T17:29:35Z</time></trkpt><trkpt lat="43.66270692995435" lon="10.929942792729044"><ele>41.0</ele><time>2026-04-29T17:29:36Z</time></trkpt><trkpt lat="43.66292396946551" lon="10.929778970847568"><ele>40.0</ele><time>2026-04-29T17:29:37Z</time></trkpt><trkpt lat="43.663142741366016" lon="10.929614047096877"><ele>40.0</ele><time>2026-04-29T17:29:38Z</time></trkpt><trkpt lat="43.66336439896234" lon="10.929445713321446"><ele>40.0</ele><time>2026-04-29T17:29:39Z</time></trkpt><trkpt lat="43.66358944400452" lon="10.929277841481401"><ele>39.0</ele><time>2026-04-29T17:29:40Z</time></trkpt><trkpt lat="43.66381485610922" lon="10.929108527931456"><ele>38.0</ele><time>2026-04-29T17:29:41Z</time></trkpt><trkpt lat="43.664044069648085" lon="10.92893461333779"><ele>38.0</ele><time>2026-04-29T17:29:42Z</time></trkpt><trkpt lat="43.66427383192434" lon="10.928758229798024"><ele>38.0</ele><time>2026-04-29T17:29:43Z</time></trkpt><trkpt lat="43.66450754896023" lon="10.928583001311084"><ele>37.5</ele><time>2026-04-29T17:29:44Z</time></trkpt><trkpt lat="43.6647442292781" lon="10.928410620178232"><ele>37.0</ele><time>2026-04-29T17:29:45Z</time></trkpt><trkpt lat="43.66498372252938" lon="10.928236628847998"><ele>37.0</ele><time>2026-04-29T17:29:46Z</time></trkpt><trkpt lat="43.665220842763645" lon="10.928062622603607"><ele>37.0</ele><time>2026-04-29T17:29:47Z</time></trkpt><trkpt lat="43.665457804225625" lon="10.927888234920053"><ele>37.0</ele><time>2026-04-29T17:29:48Z</time></trkpt><trkpt lat="43.665695247987976" lon="10.927713702178256"><ele>37.0</ele><time>2026-04-29T17:29:49Z</time></trkpt><trkpt lat="43.665931141413445" lon="10.927537681250897"><ele>37.0</ele><time>2026-04-29T17:29:50Z</time></trkpt><trkpt lat="43.66616707947269" lon="10.927349437923867"><ele>37.0</ele><time>2026-04-29T17:29:51Z</time></trkpt><trkpt lat="43.6663926251686" lon="10.927145173429997"><ele>37.0</ele><time>2026-04-29T17:29:52Z</time></trkpt><trkpt lat="43.666608045098805" lon="10.926917810228588"><ele>37.0</ele><time>2026-04-29T17:29:53Z</time></trkpt><trkpt lat="43.666812965603896" lon="10.926671041134217"><ele>37.0</ele><time>2026-04-29T17:29:54Z</time></trkpt><trkpt lat="43.66701176867817" lon="10.926416889477345"><ele>37.0</ele><time>2026-04-29T17:29:55Z</time></trkpt><trkpt lat="43.6672126344959" lon="10.926157657552588"><ele>37.0</ele><time>2026-04-29T17:29:56Z</time></trkpt><trkpt lat="43.66740810102746" lon="10.925896859963226"><ele>37.0</ele><time>2026-04-29T17:29:57Z</time></trkpt><trkpt lat="43.66759898126372" lon="10.925633075519846"><ele>37.0</ele><time>2026-04-29T17:29:58Z</time></trkpt><trkpt lat="43.6677769206178" lon="10.925370502748205"><ele>37.0</ele><time>2026-04-29T17:29:59Z</time></trkpt><trkpt lat="43.66793362383101" lon="10.925122655878557"><ele>37.333333333333336</ele><time>2026-04-29T17:30:00Z</time></trkpt><trkpt lat="43.66806819347021" lon="10.924892020603332"><ele>37.666666666666664</ele><time>2026-04-29T17:30:01Z</time></trkpt><trkpt lat="43.66819709919837" lon="10.924685924123146"><ele>38.0</ele><time>2026-04-29T17:30:02Z</time></trkpt><trkpt lat="43.668336727221764" lon="10.924522926278685"><ele>38.0</ele><time>2026-04-29T17:30:03Z</time></trkpt><trkpt lat="43.668490997593075" lon="10.924426073212604"><ele>38.0</ele><time>2026-04-29T17:30:04Z</time></trkpt><trkpt lat="43.668675174620084" lon="10.92435500554614"><ele>38.0</ele><time>2026-04-29T17:30:05Z</time></trkpt><trkpt lat="43.66886658588754" lon="10.924293186418463"><ele>37.666666666666664</ele><time>2026-04-29T17:30:06Z</time></trkpt><trkpt lat="43.66905920748127" lon="10.924199514733129"><ele>37.333333333333336</ele><time>2026-04-29T17:30:07Z</time></trkpt><trkpt lat="43.66924850776762" lon="10.924063517851167"><ele>37.0</ele><time>2026-04-29T17:30:08Z</time></trkpt><trkpt lat="43.669425739864714" lon="10.923882050080485"><ele>36.0</ele><time>2026-04-29T17:30:09Z</time></trkpt><trkpt lat="43.66959992516038" lon="10.923674529838543"><ele>35.0</ele><time>2026-04-29T17:30:10Z</time></trkpt><trkpt lat="43.6697819649076" lon="10.923454310281372"><ele>35.5</ele><time>2026-04-29T17:30:11Z</time></trkpt><trkpt lat="43.66997255814092" lon="10.92324043795558"><ele>36.0</ele><time>2026-04-29T17:30:12Z</time></trkpt><trkpt lat="43.67017090763406" lon="10.923040336202424"><ele>35.0</ele><time>2026-04-29T17:30:13Z</time></trkpt><trkpt lat="43.6703801638773" lon="10.922856097201883"><ele>34.0</ele><time>2026-04-29T17:30:14Z</time></trkpt><trkpt lat="43.670603120971535" lon="10.922693710712363"><ele>34.5</ele><time>2026-04-29T17:30:15Z</time></trkpt><trkpt lat="43.67082477112259" lon="10.922539431190643"><ele>35.0</ele><time>2026-04-29T17:30:16Z</time></trkpt><trkpt lat="43.67104424324307" lon="10.922369141615905"><ele>35.5</ele><time>2026-04-29T17:30:17Z</time></trkpt><trkpt lat="43.67125753221242" lon="10.922183258238748"><ele>36.0</ele><time>2026-04-29T17:30:18Z</time></trkpt><trkpt lat="43.67145867187742" lon="10.921974904736519"><ele>36.0</ele><time>2026-04-29T17:30:19Z</time></trkpt><trkpt lat="43.67164426829058" lon="10.921739206661284"><ele>36.0</ele><time>2026-04-29T17:30:20Z</time></trkpt><trkpt lat="43.67181350567869" lon="10.921487334348331"><ele>36.0</ele><time>2026-04-29T17:30:21Z</time></trkpt><trkpt lat="43.67198637983898" lon="10.921242710336518"><ele>36.0</ele><time>2026-04-29T17:30:22Z</time></trkpt><trkpt lat="43.67217450446759" lon="10.921017832198476"><ele>36.0</ele><time>2026-04-29T17:30:23Z</time></trkpt><trkpt lat="43.672375793821054" lon="10.920815131505728"><ele>36.0</ele><time>2026-04-29T17:30:24Z</time></trkpt><trkpt lat="43.6725817526115" lon="10.920626840902331"><ele>35.5</ele><time>2026-04-29T17:30:25Z</time></trkpt><trkpt lat="43.67279203327271" lon="10.920454154734324"><ele>35.0</ele><time>2026-04-29T17:30:26Z</time></trkpt><trkpt lat="43.67301217007871" lon="10.920308449077815"><ele>35.0</ele><time>2026-04-29T17:30:27Z</time></trkpt><trkpt lat="43.67324243968514" lon="10.920190792126467"><ele>35.0</ele><time>2026-04-29T17:30:28Z</time></trkpt><trkpt lat="43.67348242680839" lon="10.920096753788554"><ele>34.5</ele><time>2026-04-29T17:30:29Z</time></trkpt><trkpt lat="43.67372525671411" lon="10.920021752015806"><ele>34.0</ele><time>2026-04-29T17:30:30Z</time></trkpt><trkpt lat="43.67397579225197" lon="10.9199633986666"><ele>34.0</ele><time>2026-04-29T17:30:31Z</time></trkpt><trkpt lat="43.67423016282603" lon="10.919908799137495"><ele>34.0</ele><time>2026-04-29T17:30:32Z</time></trkpt><trkpt lat="43.67448813666253" lon="10.919848217757906"><ele>33.5</ele><time>2026-04-29T17:30:33Z</time></trkpt><trkpt lat="43.67474849648752" lon="10.919787216606784"><ele>33.0</ele><time>2026-04-29T17:30:34Z</time></trkpt><trkpt lat="43.67500786871629" lon="10.919728440730294"><ele>33.0</ele><time>2026-04-29T17:30:35Z</time></trkpt><trkpt lat="43.67526232592894" lon="10.919667188541744"><ele>33.0</ele><time>2026-04-29T17:30:36Z</time></trkpt><trkpt lat="43.67550888490581" lon="10.919595632374593"><ele>33.0</ele><time>2026-04-29T17:30:37Z</time></trkpt><trkpt lat="43.675745270444075" lon="10.919504973082287"><ele>33.0</ele><time>2026-04-29T17:30:38Z</time></trkpt><trkpt lat="43.67596853618523" lon="10.9193775352621"><ele>33.5</ele><time>2026-04-29T17:30:39Z</time></trkpt><trkpt lat="43.67617155781807" lon="10.919203673325162"><ele>34.0</ele><time>2026-04-29T17:30:40Z</time></trkpt><trkpt lat="43.67635875732998" lon="10.919004149902332"><ele>34.0</ele><time>2026-04-29T17:30:41Z</time></trkpt><trkpt lat="43.6765522424215" lon="10.918814924343476"><ele>34.0</ele><time>2026-04-29T17:30:42Z</time></trkpt><trkpt lat="43.676764931662674" lon="10.918651425939004"><ele>33.5</ele><time>2026-04-29T17:30:43Z</time></trkpt><trkpt lat="43.676984210337096" lon="10.91850402990956"><ele>33.0</ele><time>2026-04-29T17:30:44Z</time></trkpt><trkpt lat="43.677194725007695" lon="10.91835173958225"><ele>33.666666666666664</ele><time>2026-04-29T17:30:45Z</time></trkpt><trkpt lat="43.67738197553783" lon="10.918200149955178"><ele>34.33333333333333</ele><time>2026-04-29T17:30:46Z</time></trkpt><trkpt lat="43.67755440836879" lon="10.918058492651575"><ele>35.0</ele><time>2026-04-29T17:30:47.001Z</time></trkpt><trkpt lat="43.677731527785916" lon="10.91792096803598"><ele>35.0</ele><time>2026-04-29T17:30:48.001Z</time></trkpt><trkpt lat="43.67791201707632" lon="10.917785935111336"><ele>35.0</ele><time>2026-04-29T17:30:49.001Z</time></trkpt><trkpt lat="43.67809922102897" lon="10.917640958907377"><ele>35.0</ele><time>2026-04-29T17:30:50.001Z</time></trkpt><trkpt lat="43.67828883599447" lon="10.917483959330657"><ele>35.0</ele><time>2026-04-29T17:30:51.001Z</time></trkpt><trkpt lat="43.67848738369025" lon="10.917318880234706"><ele>35.0</ele><time>2026-04-29T17:30:52.001Z</time></trkpt><trkpt lat="43.678691448660096" lon="10.917138139152158"><ele>34.666666666666664</ele><time>2026-04-29T17:30:53.001Z</time></trkpt><trkpt lat="43.67882443419072" lon="10.91700226211438"><ele>34.333333333333336</ele><time>2026-04-29T17:30:54.001Z</time></trkpt><trkpt lat="43.67899979174131" lon="10.916789827694615"><ele>34.0</ele><time>2026-04-29T17:30:55.001Z</time></trkpt><trkpt lat="43.679176954502005" lon="10.916571354738435"><ele>34.0</ele><time>2026-04-29T17:30:56.001Z</time></trkpt><trkpt lat="43.67936236162152" lon="10.916359939611612"><ele>34.0</ele><time>2026-04-29T17:30:57.001Z</time></trkpt><trkpt lat="43.67953778742168" lon="10.9161333936087"><ele>34.0</ele><time>2026-04-29T17:30:58.001Z</time></trkpt><trkpt lat="43.67970830717701" lon="10.915880013195585"><ele>34.0</ele><time>2026-04-29T17:30:59.001Z</time></trkpt><trkpt lat="43.67987378951351" lon="10.915629288268955"><ele>34.0</ele><time>2026-04-29T17:31:00.001Z</time></trkpt><trkpt lat="43.680058008360895" lon="10.915392675179305"><ele>34.0</ele><time>2026-04-29T17:31:01.001Z</time></trkpt><trkpt lat="43.6802464377487" lon="10.915171296133447"><ele>34.0</ele><time>2026-04-29T17:31:02.001Z</time></trkpt><trkpt lat="43.680443186625666" lon="10.91495657504069"><ele>34.0</ele><time>2026-04-29T17:31:03.001Z</time></trkpt><trkpt lat="43.680627820964496" lon="10.914751592488361"><ele>34.0</ele><time>2026-04-29T17:31:04.001Z</time></trkpt><trkpt lat="43.68079932810817" lon="10.914571540697276"><ele>34.0</ele><time>2026-04-29T17:31:05.001Z</time></trkpt><trkpt lat="43.68095141855908" lon="10.91441235431136"><ele>34.0</ele><time>2026-04-29T17:31:06.001Z</time></trkpt><trkpt lat="43.68112514834756" lon="10.914305741114722"><ele>34.0</ele><time>2026-04-29T17:31:07.001Z</time></trkpt><trkpt lat="43.68128440250178" lon="10.914205081836696"><ele>34.0</ele><time>2026-04-29T17:31:08.001Z</time></trkpt><trkpt lat="43.681457809661154" lon="10.91413258117246"><ele>34.0</ele><time>2026-04-29T17:31:09.001Z</time></trkpt><trkpt lat="43.681645581009114" lon="10.914061601361079"><ele>34.0</ele><time>2026-04-29T17:31:10.001Z</time></trkpt><trkpt lat="43.681839706871784" lon="10.91397401416479"><ele>34.0</ele><time>2026-04-29T17:31:11.001Z</time></trkpt><trkpt lat="43.682040112633565" lon="10.913895294481968"><ele>34.0</ele><time>2026-04-29T17:31:12.001Z</time></trkpt><trkpt lat="43.68225018619191" lon="10.913815115284555"><ele>32.5</ele><time>2026-04-29T17:31:13.001Z</time></trkpt><trkpt lat="43.68246625015033" lon="10.91373739657388"><ele>31.0</ele><time>2026-04-29T17:31:14.001Z</time></trkpt><trkpt lat="43.6826930353141" lon="10.91365434809267"><ele>31.0</ele><time>2026-04-29T17:31:15.001Z</time></trkpt><trkpt lat="43.68291381062568" lon="10.91356613343578"><ele>31.0</ele><time>2026-04-29T17:31:16.001Z</time></trkpt><trkpt lat="43.68312701361286" lon="10.913483693782148"><ele>31.0</ele><time>2026-04-29T17:31:17.001Z</time></trkpt><trkpt lat="43.68330111292598" lon="10.913408016078588"><ele>31.0</ele><time>2026-04-29T17:31:18.001Z</time></trkpt><trkpt lat="43.68344127957135" lon="10.913341295738181"><ele>31.0</ele><time>2026-04-29T17:31:19.001Z</time></trkpt><trkpt lat="43.68356176016733" lon="10.913287045652893"><ele>30.8</ele><time>2026-04-29T17:31:20.001Z</time></trkpt><trkpt lat="43.68366142745101" lon="10.913246459817717"><ele>30.6</ele><time>2026-04-29T17:31:21.001Z</time></trkpt><trkpt lat="43.68376420273106" lon="10.9132059474344"><ele>30.4</ele><time>2026-04-29T17:31:22.001Z</time></trkpt><trkpt lat="43.68386703212419" lon="10.9131599828433"><ele>30.2</ele><time>2026-04-29T17:31:23.001Z</time></trkpt><trkpt lat="43.68398078765163" lon="10.91311132894808"><ele>30.0</ele><time>2026-04-29T17:31:24.001Z</time></trkpt><trkpt lat="43.68410637728643" lon="10.91306326875457"><ele>30.0</ele><time>2026-04-29T17:31:25.001Z</time></trkpt><trkpt lat="43.68424220814695" lon="10.913015207483655"><ele>30.0</ele><time>2026-04-29T17:31:26.001Z</time></trkpt><trkpt lat="43.68438503046207" lon="10.9129606617689"><ele>30.0</ele><time>2026-04-29T17:31:27.001Z</time></trkpt><trkpt lat="43.68453813030853" lon="10.91290758168938"><ele>30.0</ele><time>2026-04-29T17:31:28.001Z</time></trkpt><trkpt lat="43.68470010307395" lon="10.912855801276498"><ele>30.666666666666664</ele><time>2026-04-29T17:31:29.001Z</time></trkpt><trkpt lat="43.68486992404164" lon="10.91281807390895"><ele>31.333333333333332</ele><time>2026-04-29T17:31:30.001Z</time></trkpt><trkpt lat="43.68504018023792" lon="10.912782638271999"><ele>32.0</ele><time>2026-04-29T17:31:31.001Z</time></trkpt><trkpt lat="43.685198381100136" lon="10.912749098378397"><ele>31.666666666666664</ele><time>2026-04-29T17:31:32.001Z</time></trkpt><trkpt lat="43.68535615137435" lon="10.912721108888325"><ele>31.333333333333336</ele><time>2026-04-29T17:31:33.001Z</time></trkpt><trkpt lat="43.685519541404545" lon="10.912686563457115"><ele>31.0</ele><time>2026-04-29T17:31:34.001Z</time></trkpt><trkpt lat="43.68568615749015" lon="10.912653624683017"><ele>31.0</ele><time>2026-04-29T17:31:35.001Z</time></trkpt><trkpt lat="43.68585410443204" lon="10.912616754194142"><ele>31.0</ele><time>2026-04-29T17:31:36.001Z</time></trkpt><trkpt lat="43.68602546785798" lon="10.912582543840912"><ele>31.0</ele><time>2026-04-29T17:31:37.001Z</time></trkpt><trkpt lat="43.686202481178896" lon="10.91256869788645"><ele>30.666666666666668</ele><time>2026-04-29T17:31:38.001Z</time></trkpt><trkpt lat="43.686384613947595" lon="10.912577108726772"><ele>30.333333333333336</ele><time>2026-04-29T17:31:39.001Z</time></trkpt><trkpt lat="43.68656829254992" lon="10.912610082522937"><ele>30.0</ele><time>2026-04-29T17:31:40.001Z</time></trkpt><trkpt lat="43.6867505149457" lon="10.912681804974067"><ele>30.0</ele><time>2026-04-29T17:31:41.001Z</time></trkpt><trkpt lat="43.68692310320109" lon="10.912772763115598"><ele>30.0</ele><time>2026-04-29T17:31:42.001Z</time></trkpt><trkpt lat="43.68706926663801" lon="10.912928720037437"><ele>30.0</ele><time>2026-04-29T17:31:43.001Z</time></trkpt><trkpt lat="43.68719540878356" lon="10.913101502044164"><ele>30.666666666666664</ele><time>2026-04-29T17:31:44.001Z</time></trkpt><trkpt lat="43.687313190542746" lon="10.9132876631195"><ele>31.333333333333332</ele><time>2026-04-29T17:31:45.001Z</time></trkpt><trkpt lat="43.687425742545024" lon="10.913441468260025"><ele>32.0</ele><time>2026-04-29T17:31:46.001Z</time></trkpt><trkpt lat="43.68753853855579" lon="10.913574045797066"><ele>32.0</ele><time>2026-04-29T17:31:47.001Z</time></trkpt><trkpt lat="43.68767376898192" lon="10.91364429548976"><ele>32.0</ele><time>2026-04-29T17:31:48.001Z</time></trkpt><trkpt lat="43.687811150706096" lon="10.913647851722668"><ele>32.0</ele><time>2026-04-29T17:31:49.001Z</time></trkpt><trkpt lat="43.68794275194428" lon="10.913598223466591"><ele>32.0</ele><time>2026-04-29T17:31:50.001Z</time></trkpt><trkpt lat="43.68805682993495" lon="10.913501643062801"><ele>32.2</ele><time>2026-04-29T17:31:51.001Z</time></trkpt><trkpt lat="43.68813612062698" lon="10.913391629104678"><ele>32.400000000000006</ele><time>2026-04-29T17:31:52.001Z</time></trkpt><trkpt lat="43.688179904647754" lon="10.913302509996234"><ele>32.599999999999994</ele><time>2026-04-29T17:31:53.001Z</time></trkpt><trkpt lat="43.68819547189959" lon="10.913207096782823"><ele>32.8</ele><time>2026-04-29T17:31:55.001Z</time></trkpt><trkpt lat="43.688124222178146" lon="10.913100757576322"><ele>33.0</ele><time>2026-04-29T17:31:57.001Z</time></trkpt><trkpt lat="43.68803139724881" lon="10.913054193117079"><ele>33.0</ele><time>2026-04-29T17:31:58.001Z</time></trkpt><trkpt lat="43.68791546126879" lon="10.913005661472543"><ele>33.0</ele><time>2026-04-29T17:31:59.001Z</time></trkpt><trkpt lat="43.68778902314938" lon="10.912930103105888"><ele>33.0</ele><time>2026-04-29T17:32:00.001Z</time></trkpt><trkpt lat="43.68765952890638" lon="10.912816855153757"><ele>33.0</ele><time>2026-04-29T17:32:01.001Z</time></trkpt><trkpt lat="43.68753789151347" lon="10.912669491787383"><ele>32.333333333333336</ele><time>2026-04-29T17:32:02.001Z</time></trkpt><trkpt lat="43.6874360222176" lon="10.912487468809713"><ele>31.666666666666668</ele><time>2026-04-29T17:32:03.001Z</time></trkpt><trkpt lat="43.68736207312273" lon="10.91227550316659"><ele>31.0</ele><time>2026-04-29T17:32:04.001Z</time></trkpt><trkpt lat="43.68730644107967" lon="10.912043333168619"><ele>31.0</ele><time>2026-04-29T17:32:05.001Z</time></trkpt><trkpt lat="43.68725987367339" lon="10.911806697806055"><ele>31.0</ele><time>2026-04-29T17:32:06.001Z</time></trkpt><trkpt lat="43.687208150923986" lon="10.911593002107574"><ele>31.0</ele><time>2026-04-29T17:32:07.001Z</time></trkpt><trkpt lat="43.68713334894629" lon="10.91140191741452"><ele>31.0</ele><time>2026-04-29T17:32:08.001Z</time></trkpt><trkpt lat="43.687025122354534" lon="10.91123086019072"><ele>31.0</ele><time>2026-04-29T17:32:09.001Z</time></trkpt><trkpt lat="43.68688365613923" lon="10.911090570664076"><ele>31.0</ele><time>2026-04-29T17:32:10.001Z</time></trkpt><trkpt lat="43.68671251695362" lon="10.91099239943267"><ele>31.0</ele><time>2026-04-29T17:32:11Z</time></trkpt><trkpt lat="43.68652434417128" lon="10.910937287920552"><ele>31.0</ele><time>2026-04-29T17:32:12Z</time></trkpt><trkpt lat="43.68634119811405" lon="10.910859077899543"><ele>31.0</ele><time>2026-04-29T17:32:13Z</time></trkpt><trkpt lat="43.686171641147496" lon="10.910786087507335"><ele>31.0</ele><time>2026-04-29T17:32:14Z</time></trkpt><trkpt lat="43.68601790576881" lon="10.910708770452038"><ele>31.0</ele><time>2026-04-29T17:32:15Z</time></trkpt><trkpt lat="43.685892306782634" lon="10.910573883301204"><ele>31.0</ele><time>2026-04-29T17:32:16Z</time></trkpt><trkpt lat="43.685782929386285" lon="10.910403237661253"><ele>31.0</ele><time>2026-04-29T17:32:17Z</time></trkpt><trkpt lat="43.68568440667929" lon="10.910202494110505"><ele>31.0</ele><time>2026-04-29T17:32:18Z</time></trkpt><trkpt lat="43.685591268284234" lon="10.909989173844005"><ele>31.0</ele><time>2026-04-29T17:32:19Z</time></trkpt><trkpt lat="43.68549303205316" lon="10.909776822468812"><ele>31.333333333333336</ele><time>2026-04-29T17:32:20Z</time></trkpt><trkpt lat="43.68538297324661" lon="10.909583162622091"><ele>31.666666666666664</ele><time>2026-04-29T17:32:21Z</time></trkpt><trkpt lat="43.685267354702454" lon="10.909417784405202"><ele>32.0</ele><time>2026-04-29T17:32:22Z</time></trkpt><trkpt lat="43.68515234791258" lon="10.909277433996929"><ele>32.0</ele><time>2026-04-29T17:32:23Z</time></trkpt><trkpt lat="43.68504014342473" lon="10.909166680950955"><ele>32.0</ele><time>2026-04-29T17:32:24.001Z</time></trkpt><trkpt lat="43.68493944776035" lon="10.909077823138066"><ele>32.0</ele><time>2026-04-29T17:32:25.001Z</time></trkpt><trkpt lat="43.684869244037756" lon="10.909006219715257"><ele>32.0</ele><time>2026-04-29T17:32:26.001Z</time></trkpt><trkpt lat="43.684815044545466" lon="10.90886799906786"><ele>32.0</ele><time>2026-04-29T17:32:28.001Z</time></trkpt><trkpt lat="43.68488484282088" lon="10.908693624125396"><ele>32.0</ele><time>2026-04-29T17:32:30.001Z</time></trkpt><trkpt lat="43.684939825767636" lon="10.908574471254807"><ele>32.0</ele><time>2026-04-29T17:32:31.001Z</time></trkpt><trkpt lat="43.684998708532305" lon="10.908431277438032"><ele>32.0</ele><time>2026-04-29T17:32:32.001Z</time></trkpt><trkpt lat="43.68505752453533" lon="10.90827075461069"><ele>32.33333333333333</ele><time>2026-04-29T17:32:33.001Z</time></trkpt><trkpt lat="43.685117650983074" lon="10.90808633544757"><ele>32.666666666666664</ele><time>2026-04-29T17:32:34.001Z</time></trkpt><trkpt lat="43.685183842166374" lon="10.907894756457246"><ele>33.0</ele><time>2026-04-29T17:32:35.001Z</time></trkpt><trkpt lat="43.685256461756474" lon="10.90769331563351"><ele>32.333333333333336</ele><time>2026-04-29T17:32:36.001Z</time></trkpt><trkpt lat="43.685333715034965" lon="10.90748176074524"><ele>31.666666666666668</ele><time>2026-04-29T17:32:37.001Z</time></trkpt><trkpt lat="43.68541549986879" lon="10.907262989557154"><ele>31.0</ele><time>2026-04-29T17:32:38.001Z</time></trkpt><trkpt lat="43.68550545100667" lon="10.90704034860826"><ele>31.0</ele><time>2026-04-29T17:32:39.001Z</time></trkpt><trkpt lat="43.685605032461154" lon="10.906819951793487"><ele>31.0</ele><time>2026-04-29T17:32:40.001Z</time></trkpt><trkpt lat="43.68572000598816" lon="10.906604278233935"><ele>31.0</ele><time>2026-04-29T17:32:41.001Z</time></trkpt><trkpt lat="43.68585846486216" lon="10.906406040066408"><ele>31.0</ele><time>2026-04-29T17:32:42.001Z</time></trkpt><trkpt lat="43.68601410545092" lon="10.906228210752824"><ele>31.0</ele><time>2026-04-29T17:32:43.001Z</time></trkpt><trkpt lat="43.68617361213061" lon="10.906052299142054"><ele>31.0</ele><time>2026-04-29T17:32:44.001Z</time></trkpt><trkpt lat="43.68633584096192" lon="10.905860920670442"><ele>31.0</ele><time>2026-04-29T17:32:45.001Z</time></trkpt><trkpt lat="43.686493823700076" lon="10.905666420646714"><ele>31.0</ele><time>2026-04-29T17:32:46.001Z</time></trkpt><trkpt lat="43.68665667770371" lon="10.905464246951748"><ele>31.0</ele><time>2026-04-29T17:32:47.001Z</time></trkpt><trkpt lat="43.68681653729852" lon="10.90525235701073"><ele>30.5</ele><time>2026-04-29T17:32:48.001Z</time></trkpt><trkpt lat="43.686970785796454" lon="10.905029994738962"><ele>30.0</ele><time>2026-04-29T17:32:49.001Z</time></trkpt><trkpt lat="43.68712860364128" lon="10.904798085521819"><ele>30.0</ele><time>2026-04-29T17:32:50.001Z</time></trkpt><trkpt lat="43.68728292737234" lon="10.904559253744646"><ele>30.0</ele><time>2026-04-29T17:32:51.001Z</time></trkpt><trkpt lat="43.68743660218757" lon="10.904311637858296"><ele>31.0</ele><time>2026-04-29T17:32:52.001Z</time></trkpt><trkpt lat="43.6875919637916" lon="10.904063137155148"><ele>32.0</ele><time>2026-04-29T17:32:53.001Z</time></trkpt><trkpt lat="43.687757400805964" lon="10.90381942147863"><ele>31.5</ele><time>2026-04-29T17:32:54.001Z</time></trkpt><trkpt lat="43.687935584522585" lon="10.903588042743923"><ele>31.0</ele><time>2026-04-29T17:32:55.001Z</time></trkpt><trkpt lat="43.68812314540312" lon="10.903364372873497"><ele>31.0</ele><time>2026-04-29T17:32:56.001Z</time></trkpt><trkpt lat="43.68831162622087" lon="10.903143850052693"><ele>31.0</ele><time>2026-04-29T17:32:57.001Z</time></trkpt><trkpt lat="43.68849753553084" lon="10.902918772804394"><ele>31.0</ele><time>2026-04-29T17:32:58.001Z</time></trkpt><trkpt lat="43.68867336900815" lon="10.902704071347937"><ele>31.0</ele><time>2026-04-29T17:32:59.001Z</time></trkpt><trkpt lat="43.688847358976396" lon="10.90250975699939"><ele>31.333333333333336</ele><time>2026-04-29T17:33:00.001Z</time></trkpt><trkpt lat="43.689027686116376" lon="10.902337090433198"><ele>31.666666666666664</ele><time>2026-04-29T17:33:01.001Z</time></trkpt><trkpt lat="43.68921986273312" lon="10.902185772044662"><ele>32.0</ele><time>2026-04-29T17:33:02.001Z</time></trkpt><trkpt lat="43.6894227512012" lon="10.902044745250217"><ele>32.0</ele><time>2026-04-29T17:33:03.001Z</time></trkpt><trkpt lat="43.68962814101802" lon="10.901901139279905"><ele>32.0</ele><time>2026-04-29T17:33:04.001Z</time></trkpt><trkpt lat="43.6898307476943" lon="10.901749664758848"><ele>32.0</ele><time>2026-04-29T17:33:05.001Z</time></trkpt><trkpt lat="43.69002853242831" lon="10.901601265715627"><ele>32.0</ele><time>2026-04-29T17:33:06.001Z</time></trkpt><trkpt lat="43.69022280080101" lon="10.90145397392099"><ele>32.0</ele><time>2026-04-29T17:33:07.001Z</time></trkpt><trkpt lat="43.69041723039175" lon="10.901307256214071"><ele>32.0</ele><time>2026-04-29T17:33:08.001Z</time></trkpt><trkpt lat="43.69060797706928" lon="10.901163835586875"><ele>32.0</ele><time>2026-04-29T17:33:09.001Z</time></trkpt><trkpt lat="43.69079465537326" lon="10.901020205821508"><ele>32.0</ele><time>2026-04-29T17:33:10.001Z</time></trkpt><trkpt lat="43.690981024852626" lon="10.900874235979161"><ele>31.666666666666664</ele><time>2026-04-29T17:33:11.001Z</time></trkpt><trkpt lat="43.69116579086806" lon="10.900730448771915"><ele>31.333333333333336</ele><time>2026-04-29T17:33:12.001Z</time></trkpt><trkpt lat="43.69133341004158" lon="10.900598192284516"><ele>31.0</ele><time>2026-04-29T17:33:13.001Z</time></trkpt><trkpt lat="43.69148416226522" lon="10.90048595066665"><ele>31.0</ele><time>2026-04-29T17:33:14.001Z</time></trkpt><trkpt lat="43.6916174112533" lon="10.900384627302207"><ele>31.0</ele><time>2026-04-29T17:33:15.001Z</time></trkpt><trkpt lat="43.691736400995104" lon="10.900301939160165"><ele>31.0</ele><time>2026-04-29T17:33:16.001Z</time></trkpt><trkpt lat="43.691842736683064" lon="10.900222120035137"><ele>31.0</ele><time>2026-04-29T17:33:17.001Z</time></trkpt><trkpt lat="43.69193880894982" lon="10.900149042646204"><ele>31.200000000000003</ele><time>2026-04-29T17:33:18.001Z</time></trkpt><trkpt lat="43.69203753287729" lon="10.900074511091717"><ele>31.400000000000002</ele><time>2026-04-29T17:33:19.001Z</time></trkpt><trkpt lat="43.69214493111663" lon="10.899991671165292"><ele>31.6</ele><time>2026-04-29T17:33:20.001Z</time></trkpt><trkpt lat="43.69222557364517" lon="10.89992270047414"><ele>31.8</ele><time>2026-04-29T17:33:21.001Z</time></trkpt><trkpt lat="43.69228630607528" lon="10.899868092755165"><ele>32.0</ele><time>2026-04-29T17:33:22.001Z</time></trkpt><trkpt lat="43.69239339281974" lon="10.89975460162457"><ele>32.0</ele><time>2026-04-29T17:33:24.001Z</time></trkpt><trkpt lat="43.692473960355166" lon="10.899673927249722"><ele>32.0</ele><time>2026-04-29T17:33:25.001Z</time></trkpt><trkpt lat="43.69257511366902" lon="10.89958828111827"><ele>32.0</ele><time>2026-04-29T17:33:26.001Z</time></trkpt><trkpt lat="43.69269256888771" lon="10.899503685959857"><ele>32.0</ele><time>2026-04-29T17:33:27.001Z</time></trkpt><trkpt lat="43.69283038538391" lon="10.899420360413716"><ele>31.666666666666664</ele><time>2026-04-29T17:33:28.001Z</time></trkpt><trkpt lat="43.69297824427384" lon="10.899330909662833"><ele>31.333333333333336</ele><time>2026-04-29T17:33:29.001Z</time></trkpt><trkpt lat="43.69313448331659" lon="10.899231760206636"><ele>31.0</ele><time>2026-04-29T17:33:30.001Z</time></trkpt><trkpt lat="43.693299603866876" lon="10.89912559998825"><ele>31.0</ele><time>2026-04-29T17:33:31.001Z</time></trkpt><trkpt lat="43.693473431133036" lon="10.89901174711276"><ele>31.0</ele><time>2026-04-29T17:33:32.001Z</time></trkpt><trkpt lat="43.69364982866514" lon="10.898898893452897"><ele>31.0</ele><time>2026-04-29T17:33:33.001Z</time></trkpt><trkpt lat="43.693840717537284" lon="10.898779701721487"><ele>30.0</ele><time>2026-04-29T17:33:34.001Z</time></trkpt><trkpt lat="43.69403146239217" lon="10.898659443828633"><ele>29.0</ele><time>2026-04-29T17:33:35.001Z</time></trkpt><trkpt lat="43.69423112160645" lon="10.898529445454617"><ele>28.0</ele><time>2026-04-29T17:33:36.001Z</time></trkpt><trkpt lat="43.694430981974044" lon="10.898396321745437"><ele>28.0</ele><time>2026-04-29T17:33:37.001Z</time></trkpt><trkpt lat="43.69463498515103" lon="10.898264766687937"><ele>28.0</ele><time>2026-04-29T17:33:38.001Z</time></trkpt><trkpt lat="43.69482963689199" lon="10.898141195121998"><ele>28.0</ele><time>2026-04-29T17:33:39.001Z</time></trkpt><trkpt lat="43.695007460483936" lon="10.89802378699"><ele>28.0</ele><time>2026-04-29T17:33:40.001Z</time></trkpt><trkpt lat="43.69518537078606" lon="10.897911497939"><ele>28.0</ele><time>2026-04-29T17:33:41.001Z</time></trkpt><trkpt lat="43.69536130091412" lon="10.89780040846604"><ele>28.0</ele><time>2026-04-29T17:33:42.001Z</time></trkpt><trkpt lat="43.69552173779999" lon="10.897717337787999"><ele>28.0</ele><time>2026-04-29T17:33:43.001Z</time></trkpt><trkpt lat="43.69567138495322" lon="10.89763157490469"><ele>28.0</ele><time>2026-04-29T17:33:44.001Z</time></trkpt><trkpt lat="43.69584528506212" lon="10.89753353173501"><ele>28.0</ele><time>2026-04-29T17:33:45.001Z</time></trkpt><trkpt lat="43.69603602042918" lon="10.897431296189056"><ele>28.5</ele><time>2026-04-29T17:33:46.001Z</time></trkpt><trkpt lat="43.69624933343805" lon="10.897292458541214"><ele>29.0</ele><time>2026-04-29T17:33:47.001Z</time></trkpt><trkpt lat="43.69648725165827" lon="10.89718932193054"><ele>29.0</ele><time>2026-04-29T17:33:48.001Z</time></trkpt><trkpt lat="43.69673332333611" lon="10.897068631327352"><ele>29.0</ele><time>2026-04-29T17:33:49.001Z</time></trkpt><trkpt lat="43.696985651593714" lon="10.89693948432133"><ele>28.0</ele><time>2026-04-29T17:33:50.001Z</time></trkpt><trkpt lat="43.69724193019825" lon="10.896807763704313"><ele>27.0</ele><time>2026-04-29T17:33:51.001Z</time></trkpt><trkpt lat="43.697506511663576" lon="10.896675402968988"><ele>27.0</ele><time>2026-04-29T17:33:52.001Z</time></trkpt><trkpt lat="43.69777343393351" lon="10.896540187855342"><ele>27.0</ele><time>2026-04-29T17:33:53.001Z</time></trkpt><trkpt lat="43.69804474621295" lon="10.896401653137088"><ele>27.0</ele><time>2026-04-29T17:33:54.001Z</time></trkpt><trkpt lat="43.69831612313666" lon="10.89626388830784"><ele>27.0</ele><time>2026-04-29T17:33:55.001Z</time></trkpt><trkpt lat="43.698590411815836" lon="10.896127261252582"><ele>26.5</ele><time>2026-04-29T17:33:56.001Z</time></trkpt><trkpt lat="43.698864719340285" lon="10.895988782685137"><ele>26.0</ele><time>2026-04-29T17:33:57.001Z</time></trkpt><trkpt lat="43.69913822866076" lon="10.895849786430599"><ele>26.0</ele><time>2026-04-29T17:33:58.001Z</time></trkpt><trkpt lat="43.69940970255266" lon="10.895713209985388"><ele>26.0</ele><time>2026-04-29T17:33:59.001Z</time></trkpt><trkpt lat="43.69968069409961" lon="10.895575660091449"><ele>26.0</ele><time>2026-04-29T17:34:00.001Z</time></trkpt><trkpt lat="43.69994977420387" lon="10.895436599596744"><ele>26.0</ele><time>2026-04-29T17:34:01.001Z</time></trkpt><trkpt lat="43.70021817895445" lon="10.895298209059831"><ele>25.0</ele><time>2026-04-29T17:34:02.001Z</time></trkpt><trkpt lat="43.70048329242362" lon="10.895165439622694"><ele>24.0</ele><time>2026-04-29T17:34:03.001Z</time></trkpt><trkpt lat="43.700748011555305" lon="10.89503721012002"><ele>24.0</ele><time>2026-04-29T17:34:04.001Z</time></trkpt><trkpt lat="43.70100830701331" lon="10.894909266342504"><ele>24.0</ele><time>2026-04-29T17:34:05.001Z</time></trkpt><trkpt lat="43.70126527425904" lon="10.894780505266326"><ele>24.5</ele><time>2026-04-29T17:34:06.001Z</time></trkpt><trkpt lat="43.70151822657232" lon="10.894648578549209"><ele>25.0</ele><time>2026-04-29T17:34:07.001Z</time></trkpt><trkpt lat="43.70177057456605" lon="10.894517535069184"><ele>24.0</ele><time>2026-04-29T17:34:08.001Z</time></trkpt><trkpt lat="43.702012998565095" lon="10.894394040069697"><ele>23.0</ele><time>2026-04-29T17:34:09.001Z</time></trkpt><trkpt lat="43.702253443142446" lon="10.89427101112335"><ele>23.5</ele><time>2026-04-29T17:34:10.001Z</time></trkpt><trkpt lat="43.70248164778905" lon="10.894155626456"><ele>24.0</ele><time>2026-04-29T17:34:11.001Z</time></trkpt><trkpt lat="43.70269157923609" lon="10.894049428450886"><ele>24.333333333333336</ele><time>2026-04-29T17:34:12.001Z</time></trkpt><trkpt lat="43.70288790803688" lon="10.893949024685009"><ele>24.666666666666668</ele><time>2026-04-29T17:34:13.001Z</time></trkpt><trkpt lat="43.70306240064032" lon="10.893860370416107"><ele>25.0</ele><time>2026-04-29T17:34:14.001Z</time></trkpt><trkpt lat="43.70321723963041" lon="10.893784180284023"><ele>25.0</ele><time>2026-04-29T17:34:15.001Z</time></trkpt><trkpt lat="43.70336164259653" lon="10.893714511189398"><ele>25.0</ele><time>2026-04-29T17:34:16.001Z</time></trkpt><trkpt lat="43.70349498217953" lon="10.893646601636824"><ele>25.0</ele><time>2026-04-29T17:34:17.001Z</time></trkpt><trkpt lat="43.703621918573134" lon="10.89358163785113"><ele>25.0</ele><time>2026-04-29T17:34:18.001Z</time></trkpt><trkpt lat="43.703738796917605" lon="10.893522148345072"><ele>25.25</ele><time>2026-04-29T17:34:19.001Z</time></trkpt><trkpt lat="43.70385478883662" lon="10.893466378392379"><ele>25.5</ele><time>2026-04-29T17:34:20.001Z</time></trkpt><trkpt lat="43.703975444730816" lon="10.893408304385112"><ele>25.75</ele><time>2026-04-29T17:34:21.001Z</time></trkpt><trkpt lat="43.70410297920399" lon="10.893339775285638"><ele>26.0</ele><time>2026-04-29T17:34:22.001Z</time></trkpt><trkpt lat="43.70425049436684" lon="10.89327908499332"><ele>26.0</ele><time>2026-04-29T17:34:23.001Z</time></trkpt><trkpt lat="43.7044080418649" lon="10.893200018512756"><ele>26.0</ele><time>2026-04-29T17:34:24.001Z</time></trkpt><trkpt lat="43.704577429754984" lon="10.893115009978857"><ele>26.0</ele><time>2026-04-29T17:34:25.001Z</time></trkpt><trkpt lat="43.70474534520522" lon="10.893008149576646"><ele>26.0</ele><time>2026-04-29T17:34:26.001Z</time></trkpt><trkpt lat="43.704934287606" lon="10.892913106816893"><ele>26.0</ele><time>2026-04-29T17:34:27.001Z</time></trkpt><trkpt lat="43.70513145726452" lon="10.89282117289134"><ele>26.0</ele><time>2026-04-29T17:34:28.001Z</time></trkpt><trkpt lat="43.705336015418965" lon="10.892729621818413"><ele>26.0</ele><time>2026-04-29T17:34:29.001Z</time></trkpt><trkpt lat="43.7055440177787" lon="10.892629440979215"><ele>26.0</ele><time>2026-04-29T17:34:30.001Z</time></trkpt><trkpt lat="43.70575415437523" lon="10.892522427708997"><ele>26.0</ele><time>2026-04-29T17:34:31.001Z</time></trkpt><trkpt lat="43.70597314050189" lon="10.892411017117198"><ele>26.0</ele><time>2026-04-29T17:34:32.001Z</time></trkpt><trkpt lat="43.70619052491921" lon="10.892300791614094"><ele>26.0</ele><time>2026-04-29T17:34:33.001Z</time></trkpt><trkpt lat="43.70640980447969" lon="10.89219023894616"><ele>26.0</ele><time>2026-04-29T17:34:34.001Z</time></trkpt><trkpt lat="43.7066343425356" lon="10.892080078440781"><ele>26.0</ele><time>2026-04-29T17:34:35.001Z</time></trkpt><trkpt lat="43.706855630120046" lon="10.891972079431818"><ele>25.5</ele><time>2026-04-29T17:34:36.001Z</time></trkpt><trkpt lat="43.707071913503874" lon="10.891863931840938"><ele>25.0</ele><time>2026-04-29T17:34:37.001Z</time></trkpt><trkpt lat="43.70728577501358" lon="10.89175676658682"><ele>25.0</ele><time>2026-04-29T17:34:38.001Z</time></trkpt><trkpt lat="43.70747801987817" lon="10.89166754633128"><ele>25.0</ele><time>2026-04-29T17:34:39.001Z</time></trkpt><trkpt lat="43.707638975460206" lon="10.891592070766524"><ele>25.0</ele><time>2026-04-29T17:34:40.001Z</time></trkpt><trkpt lat="43.70777570939358" lon="10.891523467544806"><ele>25.0</ele><time>2026-04-29T17:34:41.001Z</time></trkpt><trkpt lat="43.70788505967592" lon="10.891444999435764"><ele>25.0</ele><time>2026-04-29T17:34:42.001Z</time></trkpt><trkpt lat="43.707967498516204" lon="10.891338276821088"><ele>25.0</ele><time>2026-04-29T17:34:43.001Z</time></trkpt><trkpt lat="43.70802476903871" lon="10.891200507394727"><ele>25.0</ele><time>2026-04-29T17:34:44.001Z</time></trkpt><trkpt lat="43.708049638769296" lon="10.891040211228647"><ele>25.0</ele><time>2026-04-29T17:34:45.001Z</time></trkpt><trkpt lat="43.70805231683205" lon="10.890870951823393"><ele>25.0</ele><time>2026-04-29T17:34:46.001Z</time></trkpt><trkpt lat="43.708059823595136" lon="10.890706763277395"><ele>25.0</ele><time>2026-04-29T17:34:47.001Z</time></trkpt><trkpt lat="43.708092551421004" lon="10.890554806851606"><ele>25.0</ele><time>2026-04-29T17:34:48.001Z</time></trkpt><trkpt lat="43.70814974611254" lon="10.890419417979714"><ele>25.0</ele><time>2026-04-29T17:34:49.001Z</time></trkpt><trkpt lat="43.708229970342515" lon="10.890309973014919"><ele>25.0</ele><time>2026-04-29T17:34:50.001Z</time></trkpt><trkpt lat="43.7083328296618" lon="10.890240350280457"><ele>25.0</ele><time>2026-04-29T17:34:51.001Z</time></trkpt><trkpt lat="43.708445351504444" lon="10.890188073814526"><ele>25.0</ele><time>2026-04-29T17:34:52.001Z</time></trkpt><trkpt lat="43.70856657620762" lon="10.890155307211506"><ele>25.0</ele><time>2026-04-29T17:34:53.001Z</time></trkpt><trkpt lat="43.70868999071152" lon="10.890132007489647"><ele>25.0</ele><time>2026-04-29T17:34:54.001Z</time></trkpt><trkpt lat="43.708814246211006" lon="10.890112566146806"><ele>25.0</ele><time>2026-04-29T17:34:55.001Z</time></trkpt><trkpt lat="43.70893323194645" lon="10.890079828708336"><ele>25.0</ele><time>2026-04-29T17:34:56.001Z</time></trkpt><trkpt lat="43.70905029828553" lon="10.890066610184899"><ele>25.0</ele><time>2026-04-29T17:34:57.001Z</time></trkpt><trkpt lat="43.70915956281405" lon="10.890105948962812"><ele>25.0</ele><time>2026-04-29T17:34:58.001Z</time></trkpt><trkpt lat="43.70925708536098" lon="10.89019822791145"><ele>25.0</ele><time>2026-04-29T17:34:59.001Z</time></trkpt><trkpt lat="43.70934122323769" lon="10.89032066739456"><ele>25.0</ele><time>2026-04-29T17:35:00.001Z</time></trkpt><trkpt lat="43.70941853009219" lon="10.890436002740254"><ele>24.5</ele><time>2026-04-29T17:35:01.001Z</time></trkpt><trkpt lat="43.709515904029864" lon="10.890506384051694"><ele>24.0</ele><time>2026-04-29T17:35:02.001Z</time></trkpt><trkpt lat="43.709630484890006" lon="10.890532768059947"><ele>23.5</ele><time>2026-04-29T17:35:03.001Z</time></trkpt><trkpt lat="43.70975140343562" lon="10.890515437691016"><ele>23.0</ele><time>2026-04-29T17:35:04.001Z</time></trkpt><trkpt lat="43.70987381062399" lon="10.8904734738081"><ele>23.0</ele><time>2026-04-29T17:35:05.001Z</time></trkpt><trkpt lat="43.71000342403371" lon="10.89040827284099"><ele>23.0</ele><time>2026-04-29T17:35:06.001Z</time></trkpt><trkpt lat="43.710140177027874" lon="10.890334676186173"><ele>23.0</ele><time>2026-04-29T17:35:07.001Z</time></trkpt><trkpt lat="43.71028502501642" lon="10.890260788681504"><ele>23.0</ele><time>2026-04-29T17:35:08.001Z</time></trkpt><trkpt lat="43.71043480745667" lon="10.890186724576512"><ele>23.0</ele><time>2026-04-29T17:35:09.001Z</time></trkpt><trkpt lat="43.71058038796285" lon="10.890115515226594"><ele>23.0</ele><time>2026-04-29T17:35:10.001Z</time></trkpt><trkpt lat="43.71072219636224" lon="10.890039939995676"><ele>23.0</ele><time>2026-04-29T17:35:11.001Z</time></trkpt><trkpt lat="43.710865088030516" lon="10.889961779958576"><ele>23.0</ele><time>2026-04-29T17:35:12.001Z</time></trkpt><trkpt lat="43.71100782547678" lon="10.88988940576659"><ele>23.0</ele><time>2026-04-29T17:35:13.001Z</time></trkpt><trkpt lat="43.711149371569576" lon="10.88981817403682"><ele>23.0</ele><time>2026-04-29T17:35:14.001Z</time></trkpt><trkpt lat="43.7112905538628" lon="10.889746908365375"><ele>23.25</ele><time>2026-04-29T17:35:15.001Z</time></trkpt><trkpt lat="43.71143132012767" lon="10.88968009756288"><ele>23.5</ele><time>2026-04-29T17:35:16.001Z</time></trkpt><trkpt lat="43.711568519139874" lon="10.889612452250551"><ele>23.75</ele><time>2026-04-29T17:35:17.001Z</time></trkpt><trkpt lat="43.7117020131094" lon="10.889544526431848"><ele>24.0</ele><time>2026-04-29T17:35:18.001Z</time></trkpt><trkpt lat="43.71183377531409" lon="10.889473193798123"><ele>23.75</ele><time>2026-04-29T17:35:19.001Z</time></trkpt><trkpt lat="43.71196521265502" lon="10.889403181157975"><ele>23.5</ele><time>2026-04-29T17:35:20.001Z</time></trkpt><trkpt lat="43.712095546466095" lon="10.889334960817656"><ele>23.25</ele><time>2026-04-29T17:35:21.001Z</time></trkpt><trkpt lat="43.7122249864434" lon="10.889269511658648"><ele>23.0</ele><time>2026-04-29T17:35:22.001Z</time></trkpt><trkpt lat="43.712353171673506" lon="10.88920644973037"><ele>23.25</ele><time>2026-04-29T17:35:23.001Z</time></trkpt><trkpt lat="43.712480225200544" lon="10.889142032857348"><ele>23.5</ele><time>2026-04-29T17:35:24.001Z</time></trkpt><trkpt lat="43.712608906364665" lon="10.88907608387319"><ele>23.75</ele><time>2026-04-29T17:35:25.001Z</time></trkpt><trkpt lat="43.71274785433557" lon="10.889000395803787"><ele>24.0</ele><time>2026-04-29T17:35:26.001Z</time></trkpt><trkpt lat="43.71289702995651" lon="10.888920705009534"><ele>24.0</ele><time>2026-04-29T17:35:27.001Z</time></trkpt><trkpt lat="43.713054090107136" lon="10.888836551209069"><ele>24.0</ele><time>2026-04-29T17:35:28.001Z</time></trkpt><trkpt lat="43.713218094450696" lon="10.888752677445147"><ele>24.0</ele><time>2026-04-29T17:35:29.001Z</time></trkpt><trkpt lat="43.71339070962605" lon="10.888666104110708"><ele>24.0</ele><time>2026-04-29T17:35:30.001Z</time></trkpt><trkpt lat="43.71356799950908" lon="10.888575569727593"><ele>24.0</ele><time>2026-04-29T17:35:31.001Z</time></trkpt><trkpt lat="43.713752878610144" lon="10.888482193553044"><ele>24.0</ele><time>2026-04-29T17:35:32.001Z</time></trkpt><trkpt lat="43.71394257595871" lon="10.888384724832108"><ele>24.0</ele><time>2026-04-29T17:35:33.001Z</time></trkpt><trkpt lat="43.714134730900035" lon="10.888282075005668"><ele>24.0</ele><time>2026-04-29T17:35:34.001Z</time></trkpt><trkpt lat="43.7143169472524" lon="10.888184618459603"><ele>24.0</ele><time>2026-04-29T17:35:35.001Z</time></trkpt><trkpt lat="43.71448756590366" lon="10.888095773057232"><ele>24.0</ele><time>2026-04-29T17:35:36.001Z</time></trkpt><trkpt lat="43.71465090225182" lon="10.888012571574125"><ele>24.0</ele><time>2026-04-29T17:35:37.001Z</time></trkpt><trkpt lat="43.7148023323739" lon="10.887934338268764"><ele>24.0</ele><time>2026-04-29T17:35:38.001Z</time></trkpt><trkpt lat="43.71494671583553" lon="10.887857340518691"><ele>24.0</ele><time>2026-04-29T17:35:39.001Z</time></trkpt><trkpt lat="43.71508184243635" lon="10.887781429304203"><ele>24.0</ele><time>2026-04-29T17:35:40.001Z</time></trkpt><trkpt lat="43.71520807617881" lon="10.887710571691574"><ele>24.0</ele><time>2026-04-29T17:35:41.001Z</time></trkpt><trkpt lat="43.715328080877626" lon="10.887644275529192"><ele>24.0</ele><time>2026-04-29T17:35:42.001Z</time></trkpt><trkpt lat="43.71544253235388" lon="10.88758470840871"><ele>23.75</ele><time>2026-04-29T17:35:43.001Z</time></trkpt><trkpt lat="43.71555322730715" lon="10.887530489036891"><ele>23.5</ele><time>2026-04-29T17:35:44.001Z</time></trkpt><trkpt lat="43.71566281207056" lon="10.887482143161554"><ele>23.25</ele><time>2026-04-29T17:35:45.001Z</time></trkpt><trkpt lat="43.715773049358454" lon="10.887429651655129"><ele>23.0</ele><time>2026-04-29T17:35:46.001Z</time></trkpt><trkpt lat="43.715883376142756" lon="10.887371420112308"><ele>23.0</ele><time>2026-04-29T17:35:47.001Z</time></trkpt><trkpt lat="43.71600888180095" lon="10.8873055063303"><ele>23.0</ele><time>2026-04-29T17:35:48.001Z</time></trkpt><trkpt lat="43.716147669967064" lon="10.887234413608825"><ele>23.0</ele><time>2026-04-29T17:35:49.001Z</time></trkpt><trkpt lat="43.71629808715321" lon="10.887158074544733"><ele>23.0</ele><time>2026-04-29T17:35:50.001Z</time></trkpt><trkpt lat="43.716459318941055" lon="10.887076790666706"><ele>22.666666666666668</ele><time>2026-04-29T17:35:51.001Z</time></trkpt><trkpt lat="43.71662842426171" lon="10.886988694948258"><ele>22.333333333333332</ele><time>2026-04-29T17:35:52.001Z</time></trkpt><trkpt lat="43.71680403927428" lon="10.88689619990973"><ele>22.0</ele><time>2026-04-29T17:35:53.001Z</time></trkpt><trkpt lat="43.71698154281385" lon="10.886801346343548"><ele>23.0</ele><time>2026-04-29T17:35:54.001Z</time></trkpt><trkpt lat="43.7171669975159" lon="10.886701501275109"><ele>24.0</ele><time>2026-04-29T17:35:55.001Z</time></trkpt><trkpt lat="43.71735672769153" lon="10.886602770884654"><ele>25.0</ele><time>2026-04-29T17:35:56.001Z</time></trkpt><trkpt lat="43.717542742249975" lon="10.886506828795213"><ele>25.0</ele><time>2026-04-29T17:35:57.001Z</time></trkpt><trkpt lat="43.717730342595935" lon="10.886407779482862"><ele>25.0</ele><time>2026-04-29T17:35:58.001Z</time></trkpt><trkpt lat="43.71791536077809" lon="10.886310193743519"><ele>25.0</ele><time>2026-04-29T17:35:59.001Z</time></trkpt><trkpt lat="43.71809930411422" lon="10.886211421680608"><ele>24.666666666666668</ele><time>2026-04-29T17:36:00.001Z</time></trkpt><trkpt lat="43.718280833290706" lon="10.886117417391262"><ele>24.333333333333336</ele><time>2026-04-29T17:36:01.001Z</time></trkpt><trkpt lat="43.718451017056715" lon="10.886026187837807"><ele>24.0</ele><time>2026-04-29T17:36:02.001Z</time></trkpt><trkpt lat="43.718612833608034" lon="10.885940135126447"><ele>24.0</ele><time>2026-04-29T17:36:03.001Z</time></trkpt><trkpt lat="43.71875912195242" lon="10.885855592527342"><ele>24.0</ele><time>2026-04-29T17:36:04.001Z</time></trkpt><trkpt lat="43.718892424444675" lon="10.88578179451995"><ele>24.0</ele><time>2026-04-29T17:36:05.001Z</time></trkpt><trkpt lat="43.71902765543637" lon="10.885736449873459"><ele>24.0</ele><time>2026-04-29T17:36:06.001Z</time></trkpt><trkpt lat="43.71915646380686" lon="10.885670014063988"><ele>24.0</ele><time>2026-04-29T17:36:07.001Z</time></trkpt><trkpt lat="43.719286701244975" lon="10.885602841194467"><ele>24.0</ele><time>2026-04-29T17:36:08.001Z</time></trkpt><trkpt lat="43.71941952991653" lon="10.885532764576485"><ele>24.0</ele><time>2026-04-29T17:36:09.001Z</time></trkpt><trkpt lat="43.7195510664488" lon="10.885463457965672"><ele>24.0</ele><time>2026-04-29T17:36:10.001Z</time></trkpt><trkpt lat="43.719686968000964" lon="10.885391851430555"><ele>24.0</ele><time>2026-04-29T17:36:11.001Z</time></trkpt><trkpt lat="43.71982334605695" lon="10.885319993818735"><ele>24.0</ele><time>2026-04-29T17:36:12.001Z</time></trkpt><trkpt lat="43.71996217547212" lon="10.885245606376676"><ele>24.0</ele><time>2026-04-29T17:36:13.001Z</time></trkpt><trkpt lat="43.720089635284225" lon="10.885176835210794"><ele>24.0</ele><time>2026-04-29T17:36:14.001Z</time></trkpt><trkpt lat="43.72022597194112" lon="10.885103274736752"><ele>24.333333333333336</ele><time>2026-04-29T17:36:15Z</time></trkpt><trkpt lat="43.720378792173435" lon="10.884978109813202"><ele>24.666666666666668</ele><time>2026-04-29T17:36:16Z</time></trkpt><trkpt lat="43.720516981100765" lon="10.88484231775853"><ele>25.0</ele><time>2026-04-29T17:36:17Z</time></trkpt><trkpt lat="43.72064513689142" lon="10.884710246736782"><ele>25.0</ele><time>2026-04-29T17:36:18Z</time></trkpt><trkpt lat="43.72076389594164" lon="10.884587859531566"><ele>25.0</ele><time>2026-04-29T17:36:19Z</time></trkpt><trkpt lat="43.720876618674026" lon="10.88447080779293"><ele>25.0</ele><time>2026-04-29T17:36:20Z</time></trkpt><trkpt lat="43.72098833053959" lon="10.884354722223776"><ele>25.0</ele><time>2026-04-29T17:36:21Z</time></trkpt><trkpt lat="43.7210959592001" lon="10.88424295675758"><ele>23.5</ele><time>2026-04-29T17:36:22Z</time></trkpt><trkpt lat="43.72120537996975" lon="10.884129364522517"><ele>22.0</ele><time>2026-04-29T17:36:23Z</time></trkpt><trkpt lat="43.72131693106635" lon="10.884014263265705"><ele>20.5</ele><time>2026-04-29T17:36:24Z</time></trkpt><trkpt lat="43.721429938296296" lon="10.883895849498975"><ele>19.0</ele><time>2026-04-29T17:36:25Z</time></trkpt><trkpt lat="43.72154523620948" lon="10.883776795474693"><ele>19.0</ele><time>2026-04-29T17:36:26Z</time></trkpt><trkpt lat="43.72166175536869" lon="10.883656480415937"><ele>19.0</ele><time>2026-04-29T17:36:27Z</time></trkpt><trkpt lat="43.72177964404283" lon="10.883534601164524"><ele>19.0</ele><time>2026-04-29T17:36:28Z</time></trkpt><trkpt lat="43.721901978921046" lon="10.883407941321337"><ele>19.0</ele><time>2026-04-29T17:36:29Z</time></trkpt><trkpt lat="43.72202872621318" lon="10.883276713067122"><ele>20.333333333333332</ele><time>2026-04-29T17:36:30Z</time></trkpt><trkpt lat="43.722158449989756" lon="10.883142316121837"><ele>21.666666666666668</ele><time>2026-04-29T17:36:31Z</time></trkpt><trkpt lat="43.72228948165024" lon="10.883005982741672"><ele>23.0</ele><time>2026-04-29T17:36:32Z</time></trkpt><trkpt lat="43.72242117555447" lon="10.88286916564561"><ele>23.0</ele><time>2026-04-29T17:36:33Z</time></trkpt><trkpt lat="43.7225565337233" lon="10.882728541725912"><ele>23.0</ele><time>2026-04-29T17:36:34Z</time></trkpt><trkpt lat="43.722684414106325" lon="10.882569133778558"><ele>23.0</ele><time>2026-04-29T17:36:35Z</time></trkpt><trkpt lat="43.722824275500635" lon="10.882428057505777"><ele>23.333333333333336</ele><time>2026-04-29T17:36:36Z</time></trkpt><trkpt lat="43.72296257338051" lon="10.882287410419078"><ele>23.666666666666668</ele><time>2026-04-29T17:36:37Z</time></trkpt><trkpt lat="43.723099522499375" lon="10.882144721699666"><ele>24.0</ele><time>2026-04-29T17:36:38Z</time></trkpt><trkpt lat="43.72323742269784" lon="10.882001492283171"><ele>24.0</ele><time>2026-04-29T17:36:39Z</time></trkpt><trkpt lat="43.72337359293424" lon="10.881860101276539"><ele>24.0</ele><time>2026-04-29T17:36:40Z</time></trkpt><trkpt lat="43.72350958639504" lon="10.88171913567065"><ele>24.0</ele><time>2026-04-29T17:36:41Z</time></trkpt><trkpt lat="43.72364050978137" lon="10.881583000773958"><ele>24.25</ele><time>2026-04-29T17:36:42Z</time></trkpt><trkpt lat="43.72375938999793" lon="10.881460083228294"><ele>24.5</ele><time>2026-04-29T17:36:43Z</time></trkpt><trkpt lat="43.72387125850966" lon="10.881346063379768"><ele>24.75</ele><time>2026-04-29T17:36:44Z</time></trkpt><trkpt lat="43.72397814153883" lon="10.881240123554521"><ele>25.0</ele><time>2026-04-29T17:36:45Z</time></trkpt><trkpt lat="43.724079507612906" lon="10.881136184005332"><ele>25.0</ele><time>2026-04-29T17:36:46Z</time></trkpt><trkpt lat="43.72417574853352" lon="10.881045558794943"><ele>25.0</ele><time>2026-04-29T17:36:47Z</time></trkpt><trkpt lat="43.724277889248974" lon="10.880978202854534"><ele>25.0</ele><time>2026-04-29T17:36:48Z</time></trkpt><trkpt lat="43.72438735922081" lon="10.88096488182869"><ele>25.0</ele><time>2026-04-29T17:36:49Z</time></trkpt><trkpt lat="43.72449954576985" lon="10.880988764923835"><ele>25.0</ele><time>2026-04-29T17:36:50Z</time></trkpt><trkpt lat="43.724608564368864" lon="10.881040113128867"><ele>25.0</ele><time>2026-04-29T17:36:51Z</time></trkpt><trkpt lat="43.724712949613185" lon="10.88109877861448"><ele>25.0</ele><time>2026-04-29T17:36:52Z</time></trkpt><trkpt lat="43.72481999264954" lon="10.881119836781302"><ele>25.0</ele><time>2026-04-29T17:36:53Z</time></trkpt><trkpt lat="43.72492431168224" lon="10.88109476792374"><ele>25.0</ele><time>2026-04-29T17:36:54Z</time></trkpt><trkpt lat="43.7250133225774" lon="10.881026995916546"><ele>24.8</ele><time>2026-04-29T17:36:55Z</time></trkpt><trkpt lat="43.725072281115985" lon="10.880922178548301"><ele>24.6</ele><time>2026-04-29T17:36:56Z</time></trkpt><trkpt lat="43.72509712956765" lon="10.880804727106563"><ele>24.4</ele><time>2026-04-29T17:36:57Z</time></trkpt><trkpt lat="43.7250858880052" lon="10.880678753590905"><ele>24.2</ele><time>2026-04-29T17:36:58Z</time></trkpt><trkpt lat="43.725046016589644" lon="10.880537888406511"><ele>24.0</ele><time>2026-04-29T17:36:59Z</time></trkpt><trkpt lat="43.72499108498241" lon="10.8803930337766"><ele>24.0</ele><time>2026-04-29T17:37:00Z</time></trkpt><trkpt lat="43.72494900990903" lon="10.880237287890097"><ele>24.0</ele><time>2026-04-29T17:37:01Z</time></trkpt><trkpt lat="43.724923063441025" lon="10.880062755508474"><ele>24.0</ele><time>2026-04-29T17:37:02Z</time></trkpt><trkpt lat="43.72490999498705" lon="10.87987443984163"><ele>24.0</ele><time>2026-04-29T17:37:03Z</time></trkpt><trkpt lat="43.72490260378579" lon="10.879668552589212"><ele>24.333333333333336</ele><time>2026-04-29T17:37:04Z</time></trkpt><trkpt lat="43.724894298085495" lon="10.87943644402007"><ele>24.666666666666668</ele><time>2026-04-29T17:37:05Z</time></trkpt><trkpt lat="43.724890523358326" lon="10.879181607860493"><ele>25.0</ele><time>2026-04-29T17:37:06Z</time></trkpt><trkpt lat="43.72483103597296" lon="10.878929976321524"><ele>25.0</ele><time>2026-04-29T17:37:07Z</time></trkpt><trkpt lat="43.72477632221733" lon="10.87866207413462"><ele>25.0</ele><time>2026-04-29T17:37:08Z</time></trkpt><trkpt lat="43.7247119822426" lon="10.878386791836457"><ele>25.0</ele><time>2026-04-29T17:37:09Z</time></trkpt><trkpt lat="43.72464085777334" lon="10.87810541419362"><ele>25.0</ele><time>2026-04-29T17:37:10Z</time></trkpt><trkpt lat="43.72456507497437" lon="10.87782136887939"><ele>25.0</ele><time>2026-04-29T17:37:11Z</time></trkpt><trkpt lat="43.72448590151194" lon="10.877528978388144"><ele>25.0</ele><time>2026-04-29T17:37:12Z</time></trkpt><trkpt lat="43.724407922721944" lon="10.877222701325987"><ele>26.0</ele><time>2026-04-29T17:37:13Z</time></trkpt><trkpt lat="43.72432726857674" lon="10.876917628737049"><ele>27.0</ele><time>2026-04-29T17:37:14Z</time></trkpt><trkpt lat="43.72424306847305" lon="10.876606635355238"><ele>27.5</ele><time>2026-04-29T17:37:15Z</time></trkpt><trkpt lat="43.72415893767977" lon="10.876287092783302"><ele>28.0</ele><time>2026-04-29T17:37:16Z</time></trkpt><trkpt lat="43.72407794499839" lon="10.875982163521154"><ele>28.0</ele><time>2026-04-29T17:37:17Z</time></trkpt><trkpt lat="43.72400662991187" lon="10.875706127407142"><ele>28.0</ele><time>2026-04-29T17:37:18Z</time></trkpt><trkpt lat="43.72394418336406" lon="10.875455925698368"><ele>28.0</ele><time>2026-04-29T17:37:19Z</time></trkpt><trkpt lat="43.72388770716098" lon="10.875227005606913"><ele>27.5</ele><time>2026-04-29T17:37:20Z</time></trkpt><trkpt lat="43.723832496020215" lon="10.875019669901025"><ele>27.0</ele><time>2026-04-29T17:37:21Z</time></trkpt><trkpt lat="43.72377896655555" lon="10.874827774739476"><ele>26.5</ele><time>2026-04-29T17:37:22Z</time></trkpt><trkpt lat="43.72373058070234" lon="10.874651040833225"><ele>26.0</ele><time>2026-04-29T17:37:23Z</time></trkpt><trkpt lat="43.72368012008064" lon="10.874486085235544"><ele>26.0</ele><time>2026-04-29T17:37:24Z</time></trkpt><trkpt lat="43.72363836258668" lon="10.874324643943428"><ele>26.0</ele><time>2026-04-29T17:37:25Z</time></trkpt><trkpt lat="43.72359830443688" lon="10.874169463969507"><ele>26.0</ele><time>2026-04-29T17:37:26Z</time></trkpt><trkpt lat="43.72355976356156" lon="10.874018810627652"><ele>26.0</ele><time>2026-04-29T17:37:27Z</time></trkpt><trkpt lat="43.72351962327768" lon="10.873868921172901"><ele>26.333333333333332</ele><time>2026-04-29T17:37:28Z</time></trkpt><trkpt lat="43.723470285417825" lon="10.87369186361375"><ele>26.666666666666664</ele><time>2026-04-29T17:37:29Z</time></trkpt><trkpt lat="43.72342115756584" lon="10.8734992271361"><ele>27.0</ele><time>2026-04-29T17:37:30Z</time></trkpt><trkpt lat="43.723362313328444" lon="10.873276041194758"><ele>27.0</ele><time>2026-04-29T17:37:31Z</time></trkpt><trkpt lat="43.72329708284287" lon="10.873019311258021"><ele>27.0</ele><time>2026-04-29T17:37:32Z</time></trkpt><trkpt lat="43.723224899941386" lon="10.872725771379104"><ele>27.0</ele><time>2026-04-29T17:37:33Z</time></trkpt><trkpt lat="43.7231549030263" lon="10.872448821849387"><ele>27.0</ele><time>2026-04-29T17:37:34Z</time></trkpt><trkpt lat="43.72308641422663" lon="10.87220398469144"><ele>27.0</ele><time>2026-04-29T17:37:35Z</time></trkpt><trkpt lat="43.723018555406185" lon="10.871977011004557"><ele>27.0</ele><time>2026-04-29T17:37:36Z</time></trkpt><trkpt lat="43.72295069505248" lon="10.871738663935492"><ele>26.333333333333336</ele><time>2026-04-29T17:37:37Z</time></trkpt><trkpt lat="43.722882287827815" lon="10.871483720180327"><ele>25.666666666666668</ele><time>2026-04-29T17:37:38Z</time></trkpt><trkpt lat="43.722814020797166" lon="10.871220920162608"><ele>25.0</ele><time>2026-04-29T17:37:39Z</time></trkpt><trkpt lat="43.722748012950724" lon="10.870950227896735"><ele>25.333333333333336</ele><time>2026-04-29T17:37:40Z</time></trkpt><trkpt lat="43.72267865409891" lon="10.870673039382195"><ele>25.666666666666664</ele><time>2026-04-29T17:37:41Z</time></trkpt><trkpt lat="43.7226043920245" lon="10.870394746275492"><ele>26.0</ele><time>2026-04-29T17:37:42Z</time></trkpt><trkpt lat="43.722525974191385" lon="10.870112121507791"><ele>26.0</ele><time>2026-04-29T17:37:43Z</time></trkpt><trkpt lat="43.72244517591939" lon="10.869826799892651"><ele>26.0</ele><time>2026-04-29T17:37:44Z</time></trkpt><trkpt lat="43.72236498354545" lon="10.869538121031267"><ele>26.0</ele><time>2026-04-29T17:37:45Z</time></trkpt><trkpt lat="43.722290120748106" lon="10.869247872462148"><ele>26.0</ele><time>2026-04-29T17:37:46Z</time></trkpt><trkpt lat="43.72221412257689" lon="10.868949564590102"><ele>26.0</ele><time>2026-04-29T17:37:47Z</time></trkpt><trkpt lat="43.72213651559671" lon="10.868656817942375"><ele>26.5</ele><time>2026-04-29T17:37:48Z</time></trkpt><trkpt lat="43.722060714844496" lon="10.868360118014875"><ele>27.0</ele><time>2026-04-29T17:37:49Z</time></trkpt><trkpt lat="43.72198125816804" lon="10.868071797115775"><ele>27.0</ele><time>2026-04-29T17:37:50Z</time></trkpt><trkpt lat="43.721901525614626" lon="10.86777660874661"><ele>27.0</ele><time>2026-04-29T17:37:51Z</time></trkpt><trkpt lat="43.721823221855985" lon="10.867484740611912"><ele>26.0</ele><time>2026-04-29T17:37:52.001Z</time></trkpt><trkpt lat="43.721746054565706" lon="10.867189122561918"><ele>25.0</ele><time>2026-04-29T17:37:53.001Z</time></trkpt><trkpt lat="43.7216679006765" lon="10.866895353847273"><ele>25.5</ele><time>2026-04-29T17:37:54.001Z</time></trkpt><trkpt lat="43.721587225446456" lon="10.866599474366332"><ele>26.0</ele><time>2026-04-29T17:37:55.001Z</time></trkpt><trkpt lat="43.721507157521614" lon="10.866304632702796"><ele>26.0</ele><time>2026-04-29T17:37:56.001Z</time></trkpt><trkpt lat="43.72142657956503" lon="10.866007662576946"><ele>26.0</ele><time>2026-04-29T17:37:57.001Z</time></trkpt><trkpt lat="43.72134962123885" lon="10.865711541372745"><ele>27.0</ele><time>2026-04-29T17:37:58.001Z</time></trkpt><trkpt lat="43.72127351090229" lon="10.865420833191791"><ele>28.0</ele><time>2026-04-29T17:37:59.001Z</time></trkpt><trkpt lat="43.721199759210506" lon="10.865125780960255"><ele>29.0</ele><time>2026-04-29T17:38:00.001Z</time></trkpt><trkpt lat="43.72113126270446" lon="10.864823617670636"><ele>29.5</ele><time>2026-04-29T17:38:01.001Z</time></trkpt><trkpt lat="43.721087717247634" lon="10.86451225464801"><ele>30.0</ele><time>2026-04-29T17:38:02.001Z</time></trkpt><trkpt lat="43.72109029081616" lon="10.864197197662753"><ele>28.5</ele><time>2026-04-29T17:38:03.001Z</time></trkpt><trkpt lat="43.72107816836864" lon="10.863886563101046"><ele>27.0</ele><time>2026-04-29T17:38:04.001Z</time></trkpt><trkpt lat="43.72109922536864" lon="10.863571101463812"><ele>26.0</ele><time>2026-04-29T17:38:05.001Z</time></trkpt><trkpt lat="43.72112872794073" lon="10.863263074788637"><ele>25.0</ele><time>2026-04-29T17:38:06.001Z</time></trkpt><trkpt lat="43.72115965593733" lon="10.86295435106316"><ele>25.0</ele><time>2026-04-29T17:38:07.001Z</time></trkpt><trkpt lat="43.721189447240114" lon="10.86264535069411"><ele>25.0</ele><time>2026-04-29T17:38:08.001Z</time></trkpt><trkpt lat="43.72121849440133" lon="10.862334194952421"><ele>24.333333333333336</ele><time>2026-04-29T17:38:09Z</time></trkpt><trkpt lat="43.721244779112055" lon="10.862036937583778"><ele>23.666666666666668</ele><time>2026-04-29T17:38:10Z</time></trkpt><trkpt lat="43.721271114975636" lon="10.861764231098427"><ele>23.0</ele><time>2026-04-29T17:38:11Z</time></trkpt><trkpt lat="43.721296595164205" lon="10.861514204898109"><ele>23.0</ele><time>2026-04-29T17:38:12Z</time></trkpt><trkpt lat="43.72132092984534" lon="10.861285166183412"><ele>23.0</ele><time>2026-04-29T17:38:13Z</time></trkpt><trkpt lat="43.72134153336113" lon="10.861062006571585"><ele>23.0</ele><time>2026-04-29T17:38:14Z</time></trkpt><trkpt lat="43.721364013507106" lon="10.860839100712424"><ele>23.0</ele><time>2026-04-29T17:38:15Z</time></trkpt><trkpt lat="43.721387462199615" lon="10.860625876498968"><ele>23.0</ele><time>2026-04-29T17:38:16Z</time></trkpt><trkpt lat="43.72140900106415" lon="10.860423490467172"><ele>23.0</ele><time>2026-04-29T17:38:17Z</time></trkpt><trkpt lat="43.72142969275257" lon="10.860230637404266"><ele>23.0</ele><time>2026-04-29T17:38:18Z</time></trkpt><trkpt lat="43.72144664071831" lon="10.860050076618727"><ele>23.25</ele><time>2026-04-29T17:38:19Z</time></trkpt><trkpt lat="43.72146571817745" lon="10.85986335610282"><ele>23.5</ele><time>2026-04-29T17:38:20Z</time></trkpt><trkpt lat="43.72148521026378" lon="10.85967229188899"><ele>23.75</ele><time>2026-04-29T17:38:21Z</time></trkpt><trkpt lat="43.721505673752304" lon="10.859483709356697"><ele>24.0</ele><time>2026-04-29T17:38:22Z</time></trkpt><trkpt lat="43.72152563187767" lon="10.859294921359307"><ele>24.25</ele><time>2026-04-29T17:38:23Z</time></trkpt><trkpt lat="43.721545071112864" lon="10.859111518360766"><ele>24.5</ele><time>2026-04-29T17:38:24Z</time></trkpt><trkpt lat="43.72156467219631" lon="10.858932961234126"><ele>24.75</ele><time>2026-04-29T17:38:25Z</time></trkpt><trkpt lat="43.72157977084007" lon="10.858757074636127"><ele>25.0</ele><time>2026-04-29T17:38:26Z</time></trkpt><trkpt lat="43.721596059458214" lon="10.858584505911166"><ele>24.75</ele><time>2026-04-29T17:38:27Z</time></trkpt><trkpt lat="43.72161169161895" lon="10.858418826676717"><ele>24.5</ele><time>2026-04-29T17:38:28Z</time></trkpt><trkpt lat="43.721628511376686" lon="10.858254300876016"><ele>24.25</ele><time>2026-04-29T17:38:29Z</time></trkpt><trkpt lat="43.721645019340166" lon="10.85808863587091"><ele>24.0</ele><time>2026-04-29T17:38:30Z</time></trkpt><trkpt lat="43.72166354482484" lon="10.857926978340387"><ele>24.0</ele><time>2026-04-29T17:38:31Z</time></trkpt><trkpt lat="43.72167647854352" lon="10.85776733300186"><ele>24.0</ele><time>2026-04-29T17:38:32Z</time></trkpt><trkpt lat="43.72169134318223" lon="10.857606172372304"><ele>24.0</ele><time>2026-04-29T17:38:33Z</time></trkpt><trkpt lat="43.7217070878429" lon="10.857448133508331"><ele>24.0</ele><time>2026-04-29T17:38:34Z</time></trkpt><trkpt lat="43.72172312113407" lon="10.85728898439951"><ele>24.0</ele><time>2026-04-29T17:38:35Z</time></trkpt><trkpt lat="43.72174006532293" lon="10.857132560968056"><ele>24.0</ele><time>2026-04-29T17:38:36Z</time></trkpt><trkpt lat="43.721757037951484" lon="10.856972739897254"><ele>24.0</ele><time>2026-04-29T17:38:37Z</time></trkpt><trkpt lat="43.72177206513466" lon="10.85681696933152"><ele>24.0</ele><time>2026-04-29T17:38:38Z</time></trkpt><trkpt lat="43.72178537370037" lon="10.856657134637166"><ele>23.75</ele><time>2026-04-29T17:38:39Z</time></trkpt><trkpt lat="43.721804315494175" lon="10.856499266406283"><ele>23.5</ele><time>2026-04-29T17:38:40Z</time></trkpt><trkpt lat="43.72181700627555" lon="10.856338084148891"><ele>23.25</ele><time>2026-04-29T17:38:41Z</time></trkpt><trkpt lat="43.721831942773115" lon="10.856177792885195"><ele>23.0</ele><time>2026-04-29T17:38:42Z</time></trkpt><trkpt lat="43.72185249421173" lon="10.856008719522872"><ele>23.0</ele><time>2026-04-29T17:38:43Z</time></trkpt><trkpt lat="43.72186846326837" lon="10.855833964645202"><ele>23.0</ele><time>2026-04-29T17:38:44Z</time></trkpt><trkpt lat="43.72188269642218" lon="10.855659246193175"><ele>23.0</ele><time>2026-04-29T17:38:45Z</time></trkpt><trkpt lat="43.721896863561696" lon="10.85546360004124"><ele>23.0</ele><time>2026-04-29T17:38:46Z</time></trkpt><trkpt lat="43.72191678256194" lon="10.85526759944087"><ele>23.0</ele><time>2026-04-29T17:38:47Z</time></trkpt><trkpt lat="43.72194115537917" lon="10.855057578053286"><ele>23.0</ele><time>2026-04-29T17:38:48Z</time></trkpt><trkpt lat="43.72197650350084" lon="10.854849744815906"><ele>23.0</ele><time>2026-04-29T17:38:49Z</time></trkpt><trkpt lat="43.72200078054222" lon="10.854644028735793"><ele>23.0</ele><time>2026-04-29T17:38:50Z</time></trkpt><trkpt lat="43.72202812653954" lon="10.85444328648584"><ele>23.0</ele><time>2026-04-29T17:38:51Z</time></trkpt><trkpt lat="43.72204384499903" lon="10.854237320333368"><ele>23.0</ele><time>2026-04-29T17:38:52Z</time></trkpt><trkpt lat="43.72209129211214" lon="10.854049910732193"><ele>23.0</ele><time>2026-04-29T17:38:53Z</time></trkpt><trkpt lat="43.72211496806016" lon="10.853849695714567"><ele>23.25</ele><time>2026-04-29T17:38:54Z</time></trkpt><trkpt lat="43.72215300933427" lon="10.853662341772369"><ele>23.5</ele><time>2026-04-29T17:38:55Z</time></trkpt><trkpt lat="43.722200803928004" lon="10.853482813193425"><ele>23.75</ele><time>2026-04-29T17:38:56Z</time></trkpt><trkpt lat="43.72225238909941" lon="10.85329884931809"><ele>24.0</ele><time>2026-04-29T17:38:57Z</time></trkpt><trkpt lat="43.7222997461783" lon="10.85311862529327"><ele>24.25</ele><time>2026-04-29T17:38:58Z</time></trkpt><trkpt lat="43.722355987214314" lon="10.852951626226039"><ele>24.5</ele><time>2026-04-29T17:38:59Z</time></trkpt><trkpt lat="43.72240264927265" lon="10.852772752598197"><ele>24.75</ele><time>2026-04-29T17:39:00Z</time></trkpt><trkpt lat="43.722450948789756" lon="10.852587601994456"><ele>25.0</ele><time>2026-04-29T17:39:01Z</time></trkpt><trkpt lat="43.72250027028541" lon="10.852398533730893"><ele>25.0</ele><time>2026-04-29T17:39:02Z</time></trkpt><trkpt lat="43.72254892584977" lon="10.852212018206778"><ele>25.0</ele><time>2026-04-29T17:39:03Z</time></trkpt><trkpt lat="43.722590457990144" lon="10.851997983288161"><ele>25.0</ele><time>2026-04-29T17:39:04Z</time></trkpt><trkpt lat="43.722644812703024" lon="10.851780369160874"><ele>25.0</ele><time>2026-04-29T17:39:05Z</time></trkpt><trkpt lat="43.72271023846001" lon="10.851550124565229"><ele>25.0</ele><time>2026-04-29T17:39:06Z</time></trkpt><trkpt lat="43.722773542347056" lon="10.851309495847413"><ele>25.0</ele><time>2026-04-29T17:39:07Z</time></trkpt><trkpt lat="43.722839174987584" lon="10.851054579244234"><ele>25.0</ele><time>2026-04-29T17:39:08Z</time></trkpt><trkpt lat="43.72290296216016" lon="10.850796827107603"><ele>25.0</ele><time>2026-04-29T17:39:09Z</time></trkpt><trkpt lat="43.722973547609435" lon="10.850533873183213"><ele>25.0</ele><time>2026-04-29T17:39:10Z</time></trkpt><trkpt lat="43.72304004762085" lon="10.850265562519255"><ele>25.666666666666668</ele><time>2026-04-29T17:39:11Z</time></trkpt><trkpt lat="43.723108465994486" lon="10.849998098720976"><ele>26.333333333333336</ele><time>2026-04-29T17:39:12Z</time></trkpt><trkpt lat="43.72317702098354" lon="10.84972435769979"><ele>27.0</ele><time>2026-04-29T17:39:13Z</time></trkpt><trkpt lat="43.723246448436186" lon="10.849472984998764"><ele>26.0</ele><time>2026-04-29T17:39:14Z</time></trkpt><trkpt lat="43.72330563237201" lon="10.849245714574009"><ele>25.0</ele><time>2026-04-29T17:39:15Z</time></trkpt><trkpt lat="43.72335941879943" lon="10.849007834107024"><ele>24.0</ele><time>2026-04-29T17:39:16Z</time></trkpt><trkpt lat="43.7234285094178" lon="10.848776527799968"><ele>24.0</ele><time>2026-04-29T17:39:17Z</time></trkpt><trkpt lat="43.72348358736876" lon="10.848533438507854"><ele>24.0</ele><time>2026-04-29T17:39:18Z</time></trkpt><trkpt lat="43.72353717490164" lon="10.848284336711481"><ele>24.0</ele><time>2026-04-29T17:39:19Z</time></trkpt><trkpt lat="43.72359140282549" lon="10.848034234549596"><ele>25.333333333333336</ele><time>2026-04-29T17:39:20Z</time></trkpt><trkpt lat="43.72363620020355" lon="10.847784272358563"><ele>26.666666666666668</ele><time>2026-04-29T17:39:21Z</time></trkpt><trkpt lat="43.72369573622368" lon="10.847539058979596"><ele>28.0</ele><time>2026-04-29T17:39:22Z</time></trkpt><trkpt lat="43.72374917675111" lon="10.847275462533013"><ele>28.0</ele><time>2026-04-29T17:39:23Z</time></trkpt><trkpt lat="43.72380775759268" lon="10.846992141589945"><ele>28.0</ele><time>2026-04-29T17:39:24Z</time></trkpt><trkpt lat="43.72387169144655" lon="10.8466932402326"><ele>28.0</ele><time>2026-04-29T17:39:25Z</time></trkpt><trkpt lat="43.72393757548799" lon="10.846384312334143"><ele>28.5</ele><time>2026-04-29T17:39:26Z</time></trkpt><trkpt lat="43.72400498183601" lon="10.846070418304327"><ele>29.0</ele><time>2026-04-29T17:39:27Z</time></trkpt><trkpt lat="43.72407538089832" lon="10.845745912322641"><ele>29.0</ele><time>2026-04-29T17:39:28Z</time></trkpt><trkpt lat="43.72414405442395" lon="10.845415171050226"><ele>29.0</ele><time>2026-04-29T17:39:29Z</time></trkpt><trkpt lat="43.72420581136071" lon="10.845075925056586"><ele>28.0</ele><time>2026-04-29T17:39:30Z</time></trkpt><trkpt lat="43.72425662550186" lon="10.844723856505889"><ele>27.0</ele><time>2026-04-29T17:39:31Z</time></trkpt><trkpt lat="43.724295237743725" lon="10.844362400158952"><ele>27.0</ele><time>2026-04-29T17:39:32Z</time></trkpt><trkpt lat="43.72432659022901" lon="10.843991556489103"><ele>27.0</ele><time>2026-04-29T17:39:33Z</time></trkpt><trkpt lat="43.72435531322746" lon="10.843617799105907"><ele>26.0</ele><time>2026-04-29T17:39:34Z</time></trkpt><trkpt lat="43.72437701587288" lon="10.843236988966181"><ele>25.0</ele><time>2026-04-29T17:39:35Z</time></trkpt><trkpt lat="43.72439284035581" lon="10.842860694041022"><ele>24.0</ele><time>2026-04-29T17:39:36Z</time></trkpt><trkpt lat="43.72439576063284" lon="10.84248188956566"><ele>23.0</ele><time>2026-04-29T17:39:37Z</time></trkpt><trkpt lat="43.72438648390355" lon="10.842102389749435"><ele>23.0</ele><time>2026-04-29T17:39:38Z</time></trkpt><trkpt lat="43.72436817344595" lon="10.841715902884983"><ele>23.0</ele><time>2026-04-29T17:39:39Z</time></trkpt><trkpt lat="43.7243390635286" lon="10.841331205353875"><ele>23.5</ele><time>2026-04-29T17:39:40Z</time></trkpt><trkpt lat="43.72430253898599" lon="10.840940485026865"><ele>24.0</ele><time>2026-04-29T17:39:41Z</time></trkpt><trkpt lat="43.72425170441128" lon="10.840553725553836"><ele>24.0</ele><time>2026-04-29T17:39:42Z</time></trkpt><trkpt lat="43.72418659914436" lon="10.840166795112857"><ele>24.0</ele><time>2026-04-29T17:39:43Z</time></trkpt><trkpt lat="43.724113591507745" lon="10.83978933417358"><ele>24.5</ele><time>2026-04-29T17:39:44Z</time></trkpt><trkpt lat="43.72403504000011" lon="10.839432431274984"><ele>25.0</ele><time>2026-04-29T17:39:45Z</time></trkpt><trkpt lat="43.72395435341445" lon="10.839111447650884"><ele>25.5</ele><time>2026-04-29T17:39:46Z</time></trkpt><trkpt lat="43.72386825054926" lon="10.838802630051859"><ele>26.0</ele><time>2026-04-29T17:39:47Z</time></trkpt><trkpt lat="43.72377758449113" lon="10.838505401096624"><ele>25.333333333333332</ele><time>2026-04-29T17:39:48Z</time></trkpt><trkpt lat="43.72368397636918" lon="10.838246787761816"><ele>24.666666666666664</ele><time>2026-04-29T17:39:49Z</time></trkpt><trkpt lat="43.723586268407" lon="10.837990866231682"><ele>24.0</ele><time>2026-04-29T17:39:50Z</time></trkpt><trkpt lat="43.723487441207745" lon="10.837745795039744"><ele>24.0</ele><time>2026-04-29T17:39:51Z</time></trkpt><trkpt lat="43.7233889773241" lon="10.83749333347766"><ele>24.0</ele><time>2026-04-29T17:39:52Z</time></trkpt><trkpt lat="43.72327629284006" lon="10.83724249784239"><ele>24.0</ele><time>2026-04-29T17:39:53Z</time></trkpt><trkpt lat="43.723158333991506" lon="10.83698748366325"><ele>24.0</ele><time>2026-04-29T17:39:54Z</time></trkpt><trkpt lat="43.72303705321585" lon="10.836729122727341"><ele>24.0</ele><time>2026-04-29T17:39:55Z</time></trkpt><trkpt lat="43.722912564413576" lon="10.836470526520571"><ele>24.0</ele><time>2026-04-29T17:39:56Z</time></trkpt><trkpt lat="43.722769927234076" lon="10.8362236482495"><ele>24.0</ele><time>2026-04-29T17:39:57Z</time></trkpt><trkpt lat="43.72264623456063" lon="10.835957882225584"><ele>24.0</ele><time>2026-04-29T17:39:58Z</time></trkpt><trkpt lat="43.72253329481237" lon="10.835713835321638"><ele>24.0</ele><time>2026-04-29T17:39:59Z</time></trkpt><trkpt lat="43.72243425334499" lon="10.835474112487988"><ele>24.0</ele><time>2026-04-29T17:40:00Z</time></trkpt><trkpt lat="43.72235433267387" lon="10.835241731433578"><ele>24.0</ele><time>2026-04-29T17:40:01Z</time></trkpt><trkpt lat="43.722301588613135" lon="10.834993682599595"><ele>24.0</ele><time>2026-04-29T17:40:02Z</time></trkpt><trkpt lat="43.72230486056828" lon="10.834737419067345"><ele>24.666666666666664</ele><time>2026-04-29T17:40:03Z</time></trkpt><trkpt lat="43.72232366358773" lon="10.834489815809075"><ele>25.333333333333332</ele><time>2026-04-29T17:40:04Z</time></trkpt><trkpt lat="43.72234405068517" lon="10.83424409194532"><ele>26.0</ele><time>2026-04-29T17:40:05Z</time></trkpt><trkpt lat="43.72239293220066" lon="10.834011008118487"><ele>26.0</ele><time>2026-04-29T17:40:06Z</time></trkpt><trkpt lat="43.72244004788212" lon="10.833770028041615"><ele>26.0</ele><time>2026-04-29T17:40:07Z</time></trkpt><trkpt lat="43.72248605961301" lon="10.833526729998733"><ele>26.0</ele><time>2026-04-29T17:40:08Z</time></trkpt><trkpt lat="43.722527578091494" lon="10.833280736560749"><ele>25.666666666666664</ele><time>2026-04-29T17:40:09Z</time></trkpt><trkpt lat="43.72256763648527" lon="10.833034973844425"><ele>25.333333333333336</ele><time>2026-04-29T17:40:10Z</time></trkpt><trkpt lat="43.722613747849046" lon="10.832792054387248"><ele>25.0</ele><time>2026-04-29T17:40:11Z</time></trkpt><trkpt lat="43.72265968956045" lon="10.832539374086172"><ele>24.666666666666668</ele><time>2026-04-29T17:40:12Z</time></trkpt><trkpt lat="43.722701965302555" lon="10.832281933723312"><ele>24.333333333333336</ele><time>2026-04-29T17:40:13Z</time></trkpt><trkpt lat="43.722750226919175" lon="10.832023517178074"><ele>24.0</ele><time>2026-04-29T17:40:14Z</time></trkpt><trkpt lat="43.722802646791905" lon="10.831760706050277"><ele>24.0</ele><time>2026-04-29T17:40:15Z</time></trkpt><trkpt lat="43.72285096461262" lon="10.831492498323561"><ele>24.0</ele><time>2026-04-29T17:40:16Z</time></trkpt><trkpt lat="43.72289644394562" lon="10.83122175139454"><ele>24.0</ele><time>2026-04-29T17:40:17Z</time></trkpt><trkpt lat="43.722945443804335" lon="10.830941080629279"><ele>24.0</ele><time>2026-04-29T17:40:18Z</time></trkpt><trkpt lat="43.722997191568936" lon="10.830663535244126"><ele>24.0</ele><time>2026-04-29T17:40:19Z</time></trkpt><trkpt lat="43.72305213233837" lon="10.83038190124449"><ele>24.0</ele><time>2026-04-29T17:40:20Z</time></trkpt><trkpt lat="43.72310329104788" lon="10.83009779018476"><ele>23.666666666666668</ele><time>2026-04-29T17:40:21Z</time></trkpt><trkpt lat="43.7231489043736" lon="10.829828476215333"><ele>23.333333333333336</ele><time>2026-04-29T17:40:22Z</time></trkpt><trkpt lat="43.723191072720965" lon="10.829580464724986"><ele>23.0</ele><time>2026-04-29T17:40:23Z</time></trkpt><trkpt lat="43.72323486069111" lon="10.829346728328016"><ele>23.0</ele><time>2026-04-29T17:40:24Z</time></trkpt><trkpt lat="43.72327588793471" lon="10.829123628058657"><ele>23.0</ele><time>2026-04-29T17:40:25Z</time></trkpt><trkpt lat="43.72331328494094" lon="10.828910399987077"><ele>23.0</ele><time>2026-04-29T17:40:26Z</time></trkpt><trkpt lat="43.72334189155283" lon="10.828706373579227"><ele>23.0</ele><time>2026-04-29T17:40:27Z</time></trkpt><trkpt lat="43.72336827282709" lon="10.828517649355788"><ele>23.0</ele><time>2026-04-29T17:40:28Z</time></trkpt><trkpt lat="43.723396468299235" lon="10.828340292892781"><ele>23.0</ele><time>2026-04-29T17:40:29Z</time></trkpt><trkpt lat="43.72343114407095" lon="10.828172864976928"><ele>23.0</ele><time>2026-04-29T17:40:30Z</time></trkpt><trkpt lat="43.72346592001843" lon="10.828011344054122"><ele>23.0</ele><time>2026-04-29T17:40:31Z</time></trkpt><trkpt lat="43.72349518887827" lon="10.8278553146941"><ele>23.0</ele><time>2026-04-29T17:40:32Z</time></trkpt><trkpt lat="43.723523586483026" lon="10.82769930522634"><ele>23.0</ele><time>2026-04-29T17:40:33Z</time></trkpt><trkpt lat="43.723556859621986" lon="10.827520434803203"><ele>23.0</ele><time>2026-04-29T17:40:34Z</time></trkpt><trkpt lat="43.72359214385349" lon="10.827316095503644"><ele>22.75</ele><time>2026-04-29T17:40:35Z</time></trkpt><trkpt lat="43.72362529594739" lon="10.827107800960144"><ele>22.5</ele><time>2026-04-29T17:40:36Z</time></trkpt><trkpt lat="43.723656818062715" lon="10.826919428107558"><ele>22.25</ele><time>2026-04-29T17:40:37Z</time></trkpt><trkpt lat="43.7236875802629" lon="10.826742936878272"><ele>22.0</ele><time>2026-04-29T17:40:38Z</time></trkpt><trkpt lat="43.72371629808433" lon="10.826574336318327"><ele>21.75</ele><time>2026-04-29T17:40:39Z</time></trkpt><trkpt lat="43.72374316001628" lon="10.82641214588086"><ele>21.5</ele><time>2026-04-29T17:40:40Z</time></trkpt><trkpt lat="43.72376989650941" lon="10.826252608177214"><ele>21.25</ele><time>2026-04-29T17:40:41Z</time></trkpt><trkpt lat="43.72379841613759" lon="10.826095818888247"><ele>21.0</ele><time>2026-04-29T17:40:42Z</time></trkpt><trkpt lat="43.723827222655586" lon="10.825939393634844"><ele>20.75</ele><time>2026-04-29T17:40:43Z</time></trkpt><trkpt lat="43.72385562210151" lon="10.825784251790108"><ele>20.5</ele><time>2026-04-29T17:40:44Z</time></trkpt><trkpt lat="43.723884181899415" lon="10.825627290308715"><ele>20.25</ele><time>2026-04-29T17:40:45Z</time></trkpt><trkpt lat="43.72391148162582" lon="10.82546802675542"><ele>20.0</ele><time>2026-04-29T17:40:46Z</time></trkpt><trkpt lat="43.723941462351654" lon="10.825307500163834"><ele>20.0</ele><time>2026-04-29T17:40:47Z</time></trkpt><trkpt lat="43.72397234453537" lon="10.825149348634419"><ele>20.0</ele><time>2026-04-29T17:40:48Z</time></trkpt><trkpt lat="43.7240010609789" lon="10.82499114097638"><ele>20.0</ele><time>2026-04-29T17:40:49Z</time></trkpt><trkpt lat="43.7240279484823" lon="10.824828847740944"><ele>20.0</ele><time>2026-04-29T17:40:50Z</time></trkpt><trkpt lat="43.724055824819224" lon="10.824666196230602"><ele>20.0</ele><time>2026-04-29T17:40:51Z</time></trkpt><trkpt lat="43.72408608804241" lon="10.824507803682508"><ele>20.0</ele><time>2026-04-29T17:40:52Z</time></trkpt><trkpt lat="43.72411743819163" lon="10.824347728437695"><ele>20.0</ele><time>2026-04-29T17:40:53Z</time></trkpt><trkpt lat="43.724145033071736" lon="10.824187227352537"><ele>20.0</ele><time>2026-04-29T17:40:54Z</time></trkpt><trkpt lat="43.72417058795634" lon="10.824024828599535"><ele>20.0</ele><time>2026-04-29T17:40:55Z</time></trkpt><trkpt lat="43.72419827349381" lon="10.823861199586561"><ele>20.0</ele><time>2026-04-29T17:40:56Z</time></trkpt><trkpt lat="43.724227666601955" lon="10.82370202942999"><ele>20.0</ele><time>2026-04-29T17:40:57Z</time></trkpt><trkpt lat="43.72425781674503" lon="10.82354356767135"><ele>20.0</ele><time>2026-04-29T17:40:58Z</time></trkpt><trkpt lat="43.72428649007395" lon="10.82338254382369"><ele>20.25</ele><time>2026-04-29T17:40:59Z</time></trkpt><trkpt lat="43.72431213807007" lon="10.823220646155582"><ele>20.5</ele><time>2026-04-29T17:41:00Z</time></trkpt><trkpt lat="43.72433697532885" lon="10.823057774949914"><ele>20.75</ele><time>2026-04-29T17:41:01Z</time></trkpt><trkpt lat="43.7243693216431" lon="10.8228954564206"><ele>21.0</ele><time>2026-04-29T17:41:02Z</time></trkpt><trkpt lat="43.724410381209374" lon="10.822745357047813"><ele>20.8</ele><time>2026-04-29T17:41:03Z</time></trkpt><trkpt lat="43.72446562797746" lon="10.822612006722526"><ele>20.6</ele><time>2026-04-29T17:41:04Z</time></trkpt><trkpt lat="43.72453346917966" lon="10.822506353056543"><ele>20.4</ele><time>2026-04-29T17:41:05Z</time></trkpt><trkpt lat="43.72461740530579" lon="10.82244144796685"><ele>20.2</ele><time>2026-04-29T17:41:06Z</time></trkpt><trkpt lat="43.72471013647299" lon="10.8223827959155"><ele>20.0</ele><time>2026-04-29T17:41:07Z</time></trkpt><trkpt lat="43.72480299255442" lon="10.822326175536526"><ele>20.0</ele><time>2026-04-29T17:41:08Z</time></trkpt><trkpt lat="43.724892923393234" lon="10.822263824996686"><ele>20.0</ele><time>2026-04-29T17:41:09Z</time></trkpt><trkpt lat="43.72497721878002" lon="10.822181570522385"><ele>20.0</ele><time>2026-04-29T17:41:10Z</time></trkpt><trkpt lat="43.72505409875824" lon="10.822069031773957"><ele>20.0</ele><time>2026-04-29T17:41:11Z</time></trkpt><trkpt lat="43.72512309715963" lon="10.821927074888197"><ele>20.0</ele><time>2026-04-29T17:41:12Z</time></trkpt><trkpt lat="43.725170396348354" lon="10.821815459267233"><ele>20.0</ele><time>2026-04-29T17:41:13Z</time></trkpt><trkpt lat="43.72514105057306" lon="10.821733725589974"><ele>20.0</ele><time>2026-04-29T17:41:16Z</time></trkpt><trkpt lat="43.72497758980624" lon="10.821817723523484"><ele>20.0</ele><time>2026-04-29T17:41:18Z</time></trkpt><trkpt lat="43.72487856866811" lon="10.821817176209187"><ele>20.0</ele><time>2026-04-29T17:41:19Z</time></trkpt><trkpt lat="43.724788625454025" lon="10.821765103890701"><ele>20.0</ele><time>2026-04-29T17:41:20Z</time></trkpt><trkpt lat="43.72470399738286" lon="10.821723931878262"><ele>20.25</ele><time>2026-04-29T17:41:21Z</time></trkpt><trkpt lat="43.72463508372676" lon="10.821688215646637"><ele>20.5</ele><time>2026-04-29T17:41:22Z</time></trkpt><trkpt lat="43.724655034847046" lon="10.821416512267753"><ele>20.75</ele><time>2026-04-29T17:41:23Z</time></trkpt><trkpt lat="43.72466509054326" lon="10.82123311273778"><ele>21.0</ele><time>2026-04-29T17:41:24Z</time></trkpt><trkpt lat="43.72470280523336" lon="10.821003925913308"><ele>21.333333333333332</ele><time>2026-04-29T17:41:25Z</time></trkpt><trkpt lat="43.72475072645438" lon="10.82075828899201"><ele>21.666666666666664</ele><time>2026-04-29T17:41:26Z</time></trkpt><trkpt lat="43.72480056419602" lon="10.820491009621778"><ele>22.0</ele><time>2026-04-29T17:41:27Z</time></trkpt><trkpt lat="43.724847824889366" lon="10.8202045455498"><ele>21.5</ele><time>2026-04-29T17:41:28Z</time></trkpt><trkpt lat="43.72490683018939" lon="10.819862808719972"><ele>21.0</ele><time>2026-04-29T17:41:29Z</time></trkpt><trkpt lat="43.72497553002487" lon="10.81947486613791"><ele>21.5</ele><time>2026-04-29T17:41:30Z</time></trkpt><trkpt lat="43.725042791079574" lon="10.819097154699756"><ele>22.0</ele><time>2026-04-29T17:41:31Z</time></trkpt><trkpt lat="43.72510029585164" lon="10.818762848306292"><ele>22.5</ele><time>2026-04-29T17:41:32Z</time></trkpt><trkpt lat="43.72515510526254" lon="10.818443820750163"><ele>23.0</ele><time>2026-04-29T17:41:33Z</time></trkpt><trkpt lat="43.725209187412716" lon="10.81814013134281"><ele>23.5</ele><time>2026-04-29T17:41:34Z</time></trkpt><trkpt lat="43.72526266541299" lon="10.81783723238693"><ele>24.0</ele><time>2026-04-29T17:41:35Z</time></trkpt><trkpt lat="43.72531744712596" lon="10.817529839796729"><ele>24.0</ele><time>2026-04-29T17:41:36Z</time></trkpt><trkpt lat="43.72537114830678" lon="10.81722653112102"><ele>24.0</ele><time>2026-04-29T17:41:37Z</time></trkpt><trkpt lat="43.7254194191368" lon="10.816943515645427"><ele>24.0</ele><time>2026-04-29T17:41:38Z</time></trkpt><trkpt lat="43.725465328637355" lon="10.816680447245831"><ele>23.333333333333332</ele><time>2026-04-29T17:41:39Z</time></trkpt><trkpt lat="43.725509854155966" lon="10.816429811184356"><ele>22.666666666666664</ele><time>2026-04-29T17:41:40Z</time></trkpt><trkpt lat="43.72555338939931" lon="10.816189958798926"><ele>22.0</ele><time>2026-04-29T17:41:41Z</time></trkpt><trkpt lat="43.7255935114276" lon="10.815964936520256"><ele>22.0</ele><time>2026-04-29T17:41:42Z</time></trkpt><trkpt lat="43.72563057118477" lon="10.815759740202175"><ele>22.0</ele><time>2026-04-29T17:41:43Z</time></trkpt><trkpt lat="43.725664242916146" lon="10.815580179510164"><ele>22.0</ele><time>2026-04-29T17:41:44Z</time></trkpt><trkpt lat="43.72569628320297" lon="10.815415388076648"><ele>22.0</ele><time>2026-04-29T17:41:45Z</time></trkpt><trkpt lat="43.72572245592237" lon="10.815265634975786"><ele>22.166666666666664</ele><time>2026-04-29T17:41:46Z</time></trkpt><trkpt lat="43.72574762095211" lon="10.815132152956703"><ele>22.333333333333332</ele><time>2026-04-29T17:41:47Z</time></trkpt><trkpt lat="43.72576303265224" lon="10.81502623242661"><ele>22.5</ele><time>2026-04-29T17:41:48Z</time></trkpt><trkpt lat="43.72578727631215" lon="10.814878609694958"><ele>22.666666666666668</ele><time>2026-04-29T17:41:50Z</time></trkpt><trkpt lat="43.72580220028922" lon="10.814790783383257"><ele>22.833333333333336</ele><time>2026-04-29T17:41:53Z</time></trkpt><trkpt lat="43.72580485114911" lon="10.814688838885587"><ele>23.0</ele><time>2026-04-29T17:42:40Z</time></trkpt><trkpt lat="43.725829256237645" lon="10.8145726804584"><ele>23.0</ele><time>2026-04-29T17:42:41Z</time></trkpt><trkpt lat="43.725856956917056" lon="10.81443780806063"><ele>23.0</ele><time>2026-04-29T17:42:42Z</time></trkpt><trkpt lat="43.725882547560914" lon="10.814285120842758"><ele>23.0</ele><time>2026-04-29T17:42:43Z</time></trkpt><trkpt lat="43.72590841113509" lon="10.814128096145453"><ele>23.0</ele><time>2026-04-29T17:42:44Z</time></trkpt><trkpt lat="43.72593039705633" lon="10.81398325589041"><ele>23.0</ele><time>2026-04-29T17:42:45Z</time></trkpt><trkpt lat="43.72595438537246" lon="10.81384600214036"><ele>23.0</ele><time>2026-04-29T17:42:46Z</time></trkpt><trkpt lat="43.7259805898929" lon="10.813705373484314"><ele>23.0</ele><time>2026-04-29T17:42:47Z</time></trkpt><trkpt lat="43.72600642693727" lon="10.813559195357724"><ele>23.0</ele><time>2026-04-29T17:42:48Z</time></trkpt><trkpt lat="43.72602961437877" lon="10.81342006990894"><ele>23.0</ele><time>2026-04-29T17:42:49Z</time></trkpt><trkpt lat="43.72606311036469" lon="10.813295927162514"><ele>23.0</ele><time>2026-04-29T17:42:50Z</time></trkpt><trkpt lat="43.726071470733615" lon="10.813150383961563"><ele>22.75</ele><time>2026-04-29T17:42:51Z</time></trkpt><trkpt lat="43.72610300483357" lon="10.812996903288779"><ele>22.5</ele><time>2026-04-29T17:42:52Z</time></trkpt><trkpt lat="43.72613509734973" lon="10.812821280223517"><ele>22.25</ele><time>2026-04-29T17:42:53Z</time></trkpt><trkpt lat="43.72616743294606" lon="10.812639071102184"><ele>22.0</ele><time>2026-04-29T17:42:54Z</time></trkpt><trkpt lat="43.72619512938264" lon="10.812470865032097"><ele>22.0</ele><time>2026-04-29T17:42:55Z</time></trkpt><trkpt lat="43.72622424203866" lon="10.812310971278972"><ele>22.0</ele><time>2026-04-29T17:42:56Z</time></trkpt><trkpt lat="43.72625328660741" lon="10.812160089738878"><ele>22.0</ele><time>2026-04-29T17:42:57Z</time></trkpt><trkpt lat="43.72627625319019" lon="10.812020698418182"><ele>22.0</ele><time>2026-04-29T17:42:58Z</time></trkpt><trkpt lat="43.72629654207407" lon="10.811902372906642"><ele>22.0</ele><time>2026-04-29T17:42:59Z</time></trkpt><trkpt lat="43.72632414699614" lon="10.811756981422318"><ele>22.5</ele><time>2026-04-29T17:43:01Z</time></trkpt><trkpt lat="43.72634504086969" lon="10.811631766448345"><ele>23.0</ele><time>2026-04-29T17:43:03Z</time></trkpt><trkpt lat="43.72636807565005" lon="10.811508983801062"><ele>23.5</ele><time>2026-04-29T17:43:05Z</time></trkpt><trkpt lat="43.72638531861921" lon="10.811401395300514"><ele>24.0</ele><time>2026-04-29T17:43:07Z</time></trkpt><trkpt lat="43.72639853847413" lon="10.811299511572384"><ele>24.500000000000004</ele><time>2026-04-29T17:43:09Z</time></trkpt><trkpt lat="43.72641020796005" lon="10.811208722603867"><ele>25.0</ele><time>2026-04-29T17:43:11Z</time></trkpt><trkpt lat="43.726435492643425" lon="10.811085094708485"><ele>25.000000000000004</ele><time>2026-04-29T17:43:14Z</time></trkpt><trkpt lat="43.72645671521143" lon="10.810980133353343"><ele>25.0</ele><time>2026-04-29T17:43:16Z</time></trkpt><trkpt lat="43.726480139652566" lon="10.810842414698111"><ele>25.0</ele><time>2026-04-29T17:43:18Z</time></trkpt><trkpt lat="43.72651037036985" lon="10.810675871837704"><ele>25.0</ele><time>2026-04-29T17:43:20Z</time></trkpt><trkpt lat="43.72652712999643" lon="10.810588231560587"><ele>25.000000000000004</ele><time>2026-04-29T17:43:21Z</time></trkpt><trkpt lat="43.726543469822715" lon="10.810503489475305"><ele>25.0</ele><time>2026-04-29T17:43:22Z</time></trkpt><trkpt lat="43.726567207756254" lon="10.810361014442938"><ele>25.0</ele><time>2026-04-29T17:43:24Z</time></trkpt><trkpt lat="43.72659275115208" lon="10.810225745647172"><ele>25.0</ele><time>2026-04-29T17:43:26Z</time></trkpt><trkpt lat="43.72662696674493" lon="10.810095787232717"><ele>25.0</ele><time>2026-04-29T17:43:28Z</time></trkpt><trkpt lat="43.72665313541956" lon="10.80992724903442"><ele>25.0</ele><time>2026-04-29T17:43:30Z</time></trkpt><trkpt lat="43.72667218460605" lon="10.809811391498627"><ele>25.0</ele><time>2026-04-29T17:43:31Z</time></trkpt><trkpt lat="43.726694363583235" lon="10.809689496924284"><ele>25.0</ele><time>2026-04-29T17:43:32Z</time></trkpt><trkpt lat="43.72671385367922" lon="10.809562190726064"><ele>25.0</ele><time>2026-04-29T17:43:33Z</time></trkpt><trkpt lat="43.72673427848484" lon="10.809432644133407"><ele>25.0</ele><time>2026-04-29T17:43:34Z</time></trkpt><trkpt lat="43.7267569231433" lon="10.809306405494063"><ele>25.0</ele><time>2026-04-29T17:43:35Z</time></trkpt><trkpt lat="43.72677625950473" lon="10.809186352436935"><ele>25.0</ele><time>2026-04-29T17:43:36Z</time></trkpt><trkpt lat="43.726793735546195" lon="10.809081450273327"><ele>25.000000000000004</ele><time>2026-04-29T17:43:37Z</time></trkpt><trkpt lat="43.72680886629686" lon="10.808991365891142"><ele>25.0</ele><time>2026-04-29T17:43:38Z</time></trkpt><trkpt lat="43.72683211271238" lon="10.808868015986178"><ele>25.0</ele><time>2026-04-29T17:43:40Z</time></trkpt><trkpt lat="43.726871802700764" lon="10.808762890508074"><ele>25.0</ele><time>2026-04-29T17:44:11Z</time></trkpt><trkpt lat="43.72689515176082" lon="10.808661922807472"><ele>25.000000000000004</ele><time>2026-04-29T17:44:12Z</time></trkpt><trkpt lat="43.726901199969326" lon="10.808556473812072"><ele>25.0</ele><time>2026-04-29T17:44:13Z</time></trkpt><trkpt lat="43.726877758989346" lon="10.808456400151897"><ele>24.8</ele><time>2026-04-29T17:44:14Z</time></trkpt><trkpt lat="43.72681472233842" lon="10.808358917602249"><ele>24.6</ele><time>2026-04-29T17:44:15Z</time></trkpt><trkpt lat="43.72674068075882" lon="10.808262264307265"><ele>24.4</ele><time>2026-04-29T17:44:16Z</time></trkpt><trkpt lat="43.72665958690415" lon="10.808159727612583"><ele>24.2</ele><time>2026-04-29T17:44:17Z</time></trkpt><trkpt lat="43.72657859803004" lon="10.808036493606425"><ele>24.0</ele><time>2026-04-29T17:44:18Z</time></trkpt><trkpt lat="43.72649594895537" lon="10.807896651162237"><ele>24.0</ele><time>2026-04-29T17:44:19Z</time></trkpt><trkpt lat="43.72640552399446" lon="10.807750549097468"><ele>24.0</ele><time>2026-04-29T17:44:20Z</time></trkpt><trkpt lat="43.72630893559206" lon="10.807601738285976"><ele>24.0</ele><time>2026-04-29T17:44:21Z</time></trkpt><trkpt lat="43.72621386456986" lon="10.807446492610303"><ele>24.0</ele><time>2026-04-29T17:44:22Z</time></trkpt><trkpt lat="43.72611997420469" lon="10.80729496890169"><ele>23.5</ele><time>2026-04-29T17:44:23Z</time></trkpt><trkpt lat="43.72603336168819" lon="10.807154912470795"><ele>23.0</ele><time>2026-04-29T17:44:24Z</time></trkpt><trkpt lat="43.725954214538646" lon="10.80702236792156"><ele>22.5</ele><time>2026-04-29T17:44:25Z</time></trkpt><trkpt lat="43.72587531456591" lon="10.806889592794079"><ele>22.0</ele><time>2026-04-29T17:44:26Z</time></trkpt><trkpt lat="43.725790661303975" lon="10.806756616631988"><ele>22.0</ele><time>2026-04-29T17:44:27Z</time></trkpt><trkpt lat="43.72570575996753" lon="10.806613565965415"><ele>22.0</ele><time>2026-04-29T17:44:28Z</time></trkpt><trkpt lat="43.72562570442982" lon="10.806478048787355"><ele>22.0</ele><time>2026-04-29T17:44:29Z</time></trkpt><trkpt lat="43.72555381972826" lon="10.806358984941866"><ele>22.0</ele><time>2026-04-29T17:44:30Z</time></trkpt><trkpt lat="43.72549615440074" lon="10.806265753605668"><ele>22.0</ele><time>2026-04-29T17:44:31Z</time></trkpt><trkpt lat="43.725453406390606" lon="10.806190614538233"><ele>22.0</ele><time>2026-04-29T17:44:32Z</time></trkpt><trkpt lat="43.725465305832195" lon="10.80610165439072"><ele>22.0</ele><time>2026-04-29T17:44:34Z</time></trkpt><trkpt lat="43.725572280963725" lon="10.805996880187138"><ele>22.0</ele><time>2026-04-29T17:44:35Z</time></trkpt><trkpt lat="43.725659084430625" lon="10.805918404166603"><ele>22.0</ele><time>2026-04-29T17:44:36Z</time></trkpt><trkpt lat="43.72575245180365" lon="10.805819410181233"><ele>22.0</ele><time>2026-04-29T17:44:37Z</time></trkpt><trkpt lat="43.72585376054152" lon="10.805706276182889"><ele>22.0</ele><time>2026-04-29T17:44:38Z</time></trkpt><trkpt lat="43.725957743956435" lon="10.805581103943778"><ele>22.0</ele><time>2026-04-29T17:44:39Z</time></trkpt><trkpt lat="43.72606492230663" lon="10.805447074700576"><ele>22.0</ele><time>2026-04-29T17:44:40Z</time></trkpt><trkpt lat="43.72618341092151" lon="10.805305946862472"><ele>22.0</ele><time>2026-04-29T17:44:41Z</time></trkpt><trkpt lat="43.72628948370253" lon="10.805186610905764"><ele>22.0</ele><time>2026-04-29T17:44:42Z</time></trkpt><trkpt lat="43.72636061541348" lon="10.805111577120757"><ele>22.0</ele><time>2026-04-29T17:44:43Z</time></trkpt><trkpt lat="43.726435862333766" lon="10.805029948846885"><ele>22.0</ele><time>2026-04-29T17:44:45Z</time></trkpt><trkpt lat="43.72652454193641" lon="10.8049270716268"><ele>22.0</ele><time>2026-04-29T17:44:47Z</time></trkpt><trkpt lat="43.72661124132136" lon="10.804823745533703"><ele>22.0</ele><time>2026-04-29T17:44:49Z</time></trkpt><trkpt lat="43.726713213457394" lon="10.804705644844217"><ele>22.0</ele><time>2026-04-29T17:44:51Z</time></trkpt><trkpt lat="43.726770827503856" lon="10.804642117359414"><ele>22.0</ele><time>2026-04-29T17:44:52Z</time></trkpt><trkpt lat="43.72683931422991" lon="10.804562273206352"><ele>22.0</ele><time>2026-04-29T17:44:53Z</time></trkpt><trkpt lat="43.726900671959854" lon="10.804487239886024"><ele>22.0</ele><time>2026-04-29T17:44:54Z</time></trkpt><trkpt lat="43.726966027767325" lon="10.804409704415082"><ele>22.0</ele><time>2026-04-29T17:44:55Z</time></trkpt><trkpt lat="43.72703521778122" lon="10.804332648529638"><ele>22.0</ele><time>2026-04-29T17:44:56Z</time></trkpt><trkpt lat="43.72710537537603" lon="10.804254661509079"><ele>22.0</ele><time>2026-04-29T17:44:57Z</time></trkpt><trkpt lat="43.72717616331156" lon="10.804176188251242"><ele>22.0</ele><time>2026-04-29T17:44:58Z</time></trkpt><trkpt lat="43.727248137366125" lon="10.804095516414312"><ele>22.0</ele><time>2026-04-29T17:44:59Z</time></trkpt><trkpt lat="43.727336949779264" lon="10.804017218065795"><ele>21.75</ele><time>2026-04-29T17:45:00Z</time></trkpt><trkpt lat="43.727428760077174" lon="10.80392543789405"><ele>21.5</ele><time>2026-04-29T17:45:01Z</time></trkpt><trkpt lat="43.727519858580024" lon="10.80380234897223"><ele>21.25</ele><time>2026-04-29T17:45:02Z</time></trkpt><trkpt lat="43.72761257850139" lon="10.803666930541326"><ele>21.0</ele><time>2026-04-29T17:45:03Z</time></trkpt><trkpt lat="43.727713771796445" lon="10.803535459650021"><ele>20.5</ele><time>2026-04-29T17:45:04Z</time></trkpt><trkpt lat="43.72781692829552" lon="10.80341295873409"><ele>20.0</ele><time>2026-04-29T17:45:05Z</time></trkpt><trkpt lat="43.7279201774371" lon="10.80329429534984"><ele>19.5</ele><time>2026-04-29T17:45:06Z</time></trkpt><trkpt lat="43.72802273641709" lon="10.803172906863018"><ele>19.0</ele><time>2026-04-29T17:45:07Z</time></trkpt><trkpt lat="43.728132441065426" lon="10.803041685207292"><ele>19.0</ele><time>2026-04-29T17:45:08Z</time></trkpt><trkpt lat="43.72824296715092" lon="10.802906853552491"><ele>19.0</ele><time>2026-04-29T17:45:09Z</time></trkpt><trkpt lat="43.72835225442856" lon="10.802776322895745"><ele>19.0</ele><time>2026-04-29T17:45:10Z</time></trkpt><trkpt lat="43.728457777708535" lon="10.802652502663351"><ele>19.0</ele><time>2026-04-29T17:45:11Z</time></trkpt><trkpt lat="43.72855452354344" lon="10.802536780655855"><ele>18.75</ele><time>2026-04-29T17:45:12Z</time></trkpt><trkpt lat="43.7286415219926" lon="10.802426265479067"><ele>18.5</ele><time>2026-04-29T17:45:13Z</time></trkpt><trkpt lat="43.72873464764659" lon="10.802314870177224"><ele>18.25</ele><time>2026-04-29T17:45:14Z</time></trkpt><trkpt lat="43.728852615566595" lon="10.802184860594247"><ele>18.0</ele><time>2026-04-29T17:45:15Z</time></trkpt><trkpt lat="43.72898087385967" lon="10.802032786460774"><ele>18.0</ele><time>2026-04-29T17:45:16Z</time></trkpt><trkpt lat="43.72911521112067" lon="10.801876275615115"><ele>18.0</ele><time>2026-04-29T17:45:17Z</time></trkpt><trkpt lat="43.72925944963826" lon="10.801714538066658"><ele>18.0</ele><time>2026-04-29T17:45:18Z</time></trkpt><trkpt lat="43.72940572702805" lon="10.801552773021022"><ele>18.25</ele><time>2026-04-29T17:45:19Z</time></trkpt><trkpt lat="43.72953593656596" lon="10.801406868556171"><ele>18.5</ele><time>2026-04-29T17:45:20Z</time></trkpt><trkpt lat="43.72964864097631" lon="10.801278225393915"><ele>18.75</ele><time>2026-04-29T17:45:21Z</time></trkpt><trkpt lat="43.72974305189912" lon="10.801170626052272"><ele>19.0</ele><time>2026-04-29T17:45:22Z</time></trkpt><trkpt lat="43.7298021766158" lon="10.801117464222681"><ele>19.0</ele><time>2026-04-29T17:45:23Z</time></trkpt><trkpt lat="43.72995227866988" lon="10.801274825213783"><ele>19.0</ele><time>2026-04-29T17:45:26Z</time></trkpt><trkpt lat="43.7300400186987" lon="10.801404072010675"><ele>19.0</ele><time>2026-04-29T17:45:27Z</time></trkpt><trkpt lat="43.73013987368382" lon="10.80154940607981"><ele>19.333333333333332</ele><time>2026-04-29T17:45:28Z</time></trkpt><trkpt lat="43.730249559075276" lon="10.80170594375527"><ele>19.666666666666668</ele><time>2026-04-29T17:45:29Z</time></trkpt><trkpt lat="43.73036749958397" lon="10.801874379008433"><ele>20.0</ele><time>2026-04-29T17:45:30Z</time></trkpt><trkpt lat="43.73051085877214" lon="10.802082566388496"><ele>20.0</ele><time>2026-04-29T17:45:31Z</time></trkpt><trkpt lat="43.73068007234649" lon="10.802322069850804"><ele>20.0</ele><time>2026-04-29T17:45:32Z</time></trkpt><trkpt lat="43.73083930717385" lon="10.802562333807002"><ele>20.2</ele><time>2026-04-29T17:45:33Z</time></trkpt><trkpt lat="43.73095336657639" lon="10.802717744585934"><ele>20.4</ele><time>2026-04-29T17:45:34Z</time></trkpt><trkpt lat="43.73102090478371" lon="10.802811353849235"><ele>20.6</ele><time>2026-04-29T17:45:35Z</time></trkpt><trkpt lat="43.73107895869038" lon="10.802891105218093"><ele>20.8</ele><time>2026-04-29T17:45:36Z</time></trkpt><trkpt lat="43.731143133577156" lon="10.80298159204546"><ele>21.0</ele><time>2026-04-29T17:45:38Z</time></trkpt><trkpt lat="43.73118262117473" lon="10.803052134317399"><ele>20.8</ele><time>2026-04-29T17:45:41Z</time></trkpt><trkpt lat="43.73127928478262" lon="10.802980755235202"><ele>20.6</ele><time>2026-04-29T17:45:42Z</time></trkpt><trkpt lat="43.73134264374481" lon="10.802879684524184"><ele>20.4</ele><time>2026-04-29T17:45:43Z</time></trkpt><trkpt lat="43.731408494984464" lon="10.80277618249615"><ele>20.2</ele><time>2026-04-29T17:45:44Z</time></trkpt><trkpt lat="43.73150260379379" lon="10.802657808119962"><ele>20.0</ele><time>2026-04-29T17:45:45Z</time></trkpt><trkpt lat="43.731624025277924" lon="10.802525772275864"><ele>20.0</ele><time>2026-04-29T17:45:46Z</time></trkpt><trkpt lat="43.73175611655662" lon="10.80239935768946"><ele>20.0</ele><time>2026-04-29T17:45:47Z</time></trkpt><trkpt lat="43.731889955855394" lon="10.80230319610116"><ele>20.0</ele><time>2026-04-29T17:45:48Z</time></trkpt><trkpt lat="43.73201538792555" lon="10.80223176509825"><ele>20.0</ele><time>2026-04-29T17:45:49Z</time></trkpt><trkpt lat="43.73212838342505" lon="10.802180786480514"><ele>20.8</ele><time>2026-04-29T17:45:50Z</time></trkpt><trkpt lat="43.73223465716997" lon="10.802168243560942"><ele>21.6</ele><time>2026-04-29T17:45:51Z</time></trkpt><trkpt lat="43.73232756673313" lon="10.802139802746133"><ele>22.4</ele><time>2026-04-29T17:45:52Z</time></trkpt><trkpt lat="43.73241142050516" lon="10.802115476964728"><ele>23.2</ele><time>2026-04-29T17:45:53Z</time></trkpt><trkpt lat="43.73248212973485" lon="10.802095586427882"><ele>24.0</ele><time>2026-04-29T17:45:54Z</time></trkpt><trkpt lat="43.73260886589391" lon="10.802059681972342"><ele>24.0</ele><time>2026-04-29T17:45:56Z</time></trkpt><trkpt lat="43.732682089074444" lon="10.802091091208364"><ele>24.0</ele><time>2026-04-29T17:45:57Z</time></trkpt><trkpt lat="43.73278901068747" lon="10.802117603226968"><ele>24.0</ele><time>2026-04-29T17:45:59Z</time></trkpt><trkpt lat="43.73287295735683" lon="10.801975862309634"><ele>24.0</ele><time>2026-04-29T17:46:01Z</time></trkpt><trkpt lat="43.73289401961748" lon="10.80184936806461"><ele>24.0</ele><time>2026-04-29T17:46:02Z</time></trkpt><trkpt lat="43.73293535263998" lon="10.80170481662949"><ele>23.25</ele><time>2026-04-29T17:46:03Z</time></trkpt><trkpt lat="43.73300076527885" lon="10.801550779757319"><ele>22.5</ele><time>2026-04-29T17:46:04Z</time></trkpt><trkpt lat="43.73307635115019" lon="10.801387495503727"><ele>21.75</ele><time>2026-04-29T17:46:05Z</time></trkpt><trkpt lat="43.733149920742434" lon="10.801203404011584"><ele>21.0</ele><time>2026-04-29T17:46:06Z</time></trkpt><trkpt lat="43.73322461634693" lon="10.801000883124399"><ele>20.25</ele><time>2026-04-29T17:46:07Z</time></trkpt><trkpt lat="43.73330036977105" lon="10.80080131717601"><ele>19.5</ele><time>2026-04-29T17:46:08Z</time></trkpt><trkpt lat="43.73336660344542" lon="10.800625754015321"><ele>18.75</ele><time>2026-04-29T17:46:09Z</time></trkpt><trkpt lat="43.733426984209196" lon="10.800463487977229"><ele>18.0</ele><time>2026-04-29T17:46:10Z</time></trkpt><trkpt lat="43.73349420500186" lon="10.800288467641343"><ele>18.333333333333332</ele><time>2026-04-29T17:46:11Z</time></trkpt><trkpt lat="43.733565503801515" lon="10.800095039831865"><ele>18.666666666666664</ele><time>2026-04-29T17:46:12Z</time></trkpt><trkpt lat="43.733637079226675" lon="10.79988702851901"><ele>19.0</ele><time>2026-04-29T17:46:13Z</time></trkpt><trkpt lat="43.733712231311" lon="10.799670631530887"><ele>19.0</ele><time>2026-04-29T17:46:14Z</time></trkpt><trkpt lat="43.733784462102044" lon="10.79946708115792"><ele>19.0</ele><time>2026-04-29T17:46:15Z</time></trkpt><trkpt lat="43.73385097763662" lon="10.799282455190056"><ele>19.0</ele><time>2026-04-29T17:46:16Z</time></trkpt><trkpt lat="43.733910512504764" lon="10.799113501983738"><ele>19.0</ele><time>2026-04-29T17:46:17Z</time></trkpt><trkpt lat="43.73397538936837" lon="10.798920289090715"><ele>18.666666666666664</ele><time>2026-04-29T17:46:18Z</time></trkpt><trkpt lat="43.73404548911279" lon="10.798711998869166"><ele>18.333333333333332</ele><time>2026-04-29T17:46:19Z</time></trkpt><trkpt lat="43.73411747721597" lon="10.798511922831153"><ele>18.0</ele><time>2026-04-29T17:46:20Z</time></trkpt><trkpt lat="43.7341880944167" lon="10.798324949646831"><ele>17.75</ele><time>2026-04-29T17:46:21Z</time></trkpt><trkpt lat="43.73425273214751" lon="10.798150612959649"><ele>17.5</ele><time>2026-04-29T17:46:22Z</time></trkpt><trkpt lat="43.73431107662352" lon="10.797992491453567"><ele>17.25</ele><time>2026-04-29T17:46:23Z</time></trkpt><trkpt lat="43.734362443496366" lon="10.797858571485664"><ele>17.0</ele><time>2026-04-29T17:46:24Z</time></trkpt><trkpt lat="43.73440858687818" lon="10.797746062716229"><ele>16.8</ele><time>2026-04-29T17:46:25Z</time></trkpt><trkpt lat="43.734445510508365" lon="10.797633707358305"><ele>16.6</ele><time>2026-04-29T17:46:26Z</time></trkpt><trkpt lat="43.73448546947715" lon="10.797508261535134"><ele>16.400000000000002</ele><time>2026-04-29T17:46:27Z</time></trkpt><trkpt lat="43.73452931735928" lon="10.79738729205042"><ele>16.2</ele><time>2026-04-29T17:46:28Z</time></trkpt><trkpt lat="43.73457040767206" lon="10.797277162652945"><ele>16.0</ele><time>2026-04-29T17:46:29Z</time></trkpt><trkpt lat="43.73461021245553" lon="10.797165698602985"><ele>16.0</ele><time>2026-04-29T17:46:30Z</time></trkpt><trkpt lat="43.734652826696085" lon="10.797039420780138"><ele>16.0</ele><time>2026-04-29T17:46:31Z</time></trkpt><trkpt lat="43.73468775002202" lon="10.79692408408032"><ele>16.0</ele><time>2026-04-29T17:46:32Z</time></trkpt><trkpt lat="43.7347185665659" lon="10.796814615087913"><ele>16.0</ele><time>2026-04-29T17:46:33Z</time></trkpt><trkpt lat="43.734769516895504" lon="10.796696586226687"><ele>16.0</ele><time>2026-04-29T17:46:34Z</time></trkpt><trkpt lat="43.734813824462" lon="10.7965664073696"><ele>16.5</ele><time>2026-04-29T17:46:35Z</time></trkpt><trkpt lat="43.73484876363031" lon="10.796463285447757"><ele>17.0</ele><time>2026-04-29T17:46:36Z</time></trkpt><trkpt lat="43.73487618889899" lon="10.7963599244444"><ele>17.5</ele><time>2026-04-29T17:46:37Z</time></trkpt><trkpt lat="43.73494128876326" lon="10.796293390595864"><ele>18.0</ele><time>2026-04-29T17:46:38Z</time></trkpt><trkpt lat="43.73499813313539" lon="10.796217202376239"><ele>18.5</ele><time>2026-04-29T17:46:39Z</time></trkpt><trkpt lat="43.73501023654509" lon="10.796124597260212"><ele>19.0</ele><time>2026-04-29T17:46:40Z</time></trkpt><trkpt lat="43.734984527894945" lon="10.796043933003006"><ele>18.599999999999998</ele><time>2026-04-29T17:46:41Z</time></trkpt><trkpt lat="43.734928934970064" lon="10.795989196419804"><ele>18.2</ele><time>2026-04-29T17:46:42Z</time></trkpt><trkpt lat="43.73485677438909" lon="10.79593577084023"><ele>17.799999999999997</ele><time>2026-04-29T17:46:43Z</time></trkpt><trkpt lat="43.734790776598075" lon="10.795844881988016"><ele>17.4</ele><time>2026-04-29T17:46:44Z</time></trkpt><trkpt lat="43.73471945016827" lon="10.795734328973984"><ele>17.0</ele><time>2026-04-29T17:46:45Z</time></trkpt><trkpt lat="43.73466282775806" lon="10.795580857537061"><ele>17.0</ele><time>2026-04-29T17:46:46Z</time></trkpt><trkpt lat="43.734580505582386" lon="10.79542434701369"><ele>17.0</ele><time>2026-04-29T17:46:47Z</time></trkpt><trkpt lat="43.73449936092904" lon="10.795246037922464"><ele>17.0</ele><time>2026-04-29T17:46:48Z</time></trkpt><trkpt lat="43.734388058245884" lon="10.795071151168385"><ele>17.0</ele><time>2026-04-29T17:46:49Z</time></trkpt><trkpt lat="43.73425037915168" lon="10.794903231332459"><ele>17.0</ele><time>2026-04-29T17:46:50Z</time></trkpt><trkpt lat="43.73409704394277" lon="10.794744469641744"><ele>17.0</ele><time>2026-04-29T17:46:51Z</time></trkpt><trkpt lat="43.73392964921637" lon="10.794589047912426"><ele>17.0</ele><time>2026-04-29T17:46:52Z</time></trkpt><trkpt lat="43.733774137827545" lon="10.794451625601571"><ele>17.0</ele><time>2026-04-29T17:46:53Z</time></trkpt><trkpt lat="43.733639302431406" lon="10.794330927241493"><ele>17.0</ele><time>2026-04-29T17:46:54Z</time></trkpt><trkpt lat="43.733525596937234" lon="10.794237708648724"><ele>17.25</ele><time>2026-04-29T17:46:55Z</time></trkpt><trkpt lat="43.73341549724282" lon="10.794191156663194"><ele>17.5</ele><time>2026-04-29T17:46:56Z</time></trkpt><trkpt lat="43.7332971136018" lon="10.794200356421095"><ele>17.75</ele><time>2026-04-29T17:46:57Z</time></trkpt><trkpt lat="43.7331650675963" lon="10.794244588869168"><ele>18.0</ele><time>2026-04-29T17:46:58Z</time></trkpt><trkpt lat="43.733055480957155" lon="10.79441510989555"><ele>18.0</ele><time>2026-04-29T17:46:59Z</time></trkpt><trkpt lat="43.7329232961287" lon="10.794584825741595"><ele>18.0</ele><time>2026-04-29T17:47:00Z</time></trkpt><trkpt lat="43.73278131542241" lon="10.794741249145455"><ele>18.0</ele><time>2026-04-29T17:47:01Z</time></trkpt><trkpt lat="43.73262604448182" lon="10.794888568431203"><ele>18.0</ele><time>2026-04-29T17:47:02Z</time></trkpt><trkpt lat="43.73244884586348" lon="10.79500425487599"><ele>18.0</ele><time>2026-04-29T17:47:03Z</time></trkpt><trkpt lat="43.73226533298703" lon="10.795153932967654"><ele>18.0</ele><time>2026-04-29T17:47:04Z</time></trkpt><trkpt lat="43.73206312255004" lon="10.795315350655368"><ele>18.0</ele><time>2026-04-29T17:47:05Z</time></trkpt><trkpt lat="43.73185195179298" lon="10.7954844615403"><ele>18.0</ele><time>2026-04-29T17:47:06Z</time></trkpt><trkpt lat="43.73164393179221" lon="10.795677684355764"><ele>18.0</ele><time>2026-04-29T17:47:07Z</time></trkpt><trkpt lat="43.73143078718872" lon="10.795844279387161"><ele>18.0</ele><time>2026-04-29T17:47:08Z</time></trkpt><trkpt lat="43.73122512791108" lon="10.79601121879189"><ele>18.0</ele><time>2026-04-29T17:47:09Z</time></trkpt><trkpt lat="43.73102214816391" lon="10.79618026165937"><ele>18.0</ele><time>2026-04-29T17:47:10Z</time></trkpt><trkpt lat="43.73081133813145" lon="10.796330801495412"><ele>18.0</ele><time>2026-04-29T17:47:11Z</time></trkpt><trkpt lat="43.730607652651614" lon="10.796502323158656"><ele>18.0</ele><time>2026-04-29T17:47:12Z</time></trkpt><trkpt lat="43.730402417292" lon="10.796676319459658"><ele>18.5</ele><time>2026-04-29T17:47:13Z</time></trkpt><trkpt lat="43.73019482280967" lon="10.796853366765445"><ele>19.0</ele><time>2026-04-29T17:47:14Z</time></trkpt><trkpt lat="43.73000026609568" lon="10.797019324276858"><ele>19.0</ele><time>2026-04-29T17:47:15Z</time></trkpt><trkpt lat="43.72983131944092" lon="10.797189939112048"><ele>19.0</ele><time>2026-04-29T17:47:16Z</time></trkpt><trkpt lat="43.72966619202911" lon="10.79732349854267"><ele>19.0</ele><time>2026-04-29T17:47:17Z</time></trkpt><trkpt lat="43.72953778289191" lon="10.79742741742242"><ele>19.0</ele><time>2026-04-29T17:47:18Z</time></trkpt><trkpt lat="43.72943456992375" lon="10.797509494732388"><ele>19.0</ele><time>2026-04-29T17:47:19Z</time></trkpt><trkpt lat="43.72934716140851" lon="10.79756797077409"><ele>19.0</ele><time>2026-04-29T17:47:20Z</time></trkpt><trkpt lat="43.7292690608826" lon="10.797603435547396"><ele>19.0</ele><time>2026-04-29T17:47:21Z</time></trkpt><trkpt lat="43.72919286853651" lon="10.797612425270753"><ele>19.0</ele><time>2026-04-29T17:47:22Z</time></trkpt><trkpt lat="43.72912090836669" lon="10.797592891807069"><ele>19.0</ele><time>2026-04-29T17:47:23Z</time></trkpt><trkpt lat="43.72905804187622" lon="10.797687743042635"><ele>19.0</ele><time>2026-04-29T17:47:25Z</time></trkpt><trkpt lat="43.729140497942105" lon="10.797774480177203"><ele>19.0</ele><time>2026-04-29T17:47:27Z</time></trkpt><trkpt lat="43.729203258460466" lon="10.797735450679898"><ele>19.0</ele><time>2026-04-29T17:47:28Z</time></trkpt><trkpt lat="43.729244294340624" lon="10.797605040920885"><ele>19.0</ele><time>2026-04-29T17:47:29Z</time></trkpt><trkpt lat="43.72938654969385" lon="10.797576377602416"><ele>19.0</ele><time>2026-04-29T17:47:30Z</time></trkpt><trkpt lat="43.72950531742377" lon="10.797486150921964"><ele>19.0</ele><time>2026-04-29T17:47:31Z</time></trkpt><trkpt lat="43.72964258731767" lon="10.79736997854493"><ele>19.0</ele><time>2026-04-29T17:47:32Z</time></trkpt><trkpt lat="43.72979677549253" lon="10.797241100756128"><ele>19.0</ele><time>2026-04-29T17:47:33Z</time></trkpt><trkpt lat="43.72996036925816" lon="10.797106292808651"><ele>19.0</ele><time>2026-04-29T17:47:34Z</time></trkpt><trkpt lat="43.73011763341541" lon="10.796974906353627"><ele>19.0</ele><time>2026-04-29T17:47:35Z</time></trkpt><trkpt lat="43.730254589902934" lon="10.796853279220567"><ele>19.0</ele><time>2026-04-29T17:47:36Z</time></trkpt><trkpt lat="43.730384282304215" lon="10.796735679772938"><ele>18.666666666666664</ele><time>2026-04-29T17:47:37Z</time></trkpt><trkpt lat="43.73052377793249" lon="10.796609362123903"><ele>18.333333333333332</ele><time>2026-04-29T17:47:38Z</time></trkpt><trkpt lat="43.73068460507318" lon="10.796465787729321"><ele>18.0</ele><time>2026-04-29T17:47:39Z</time></trkpt><trkpt lat="43.73086880448662" lon="10.796336741140482"><ele>18.0</ele><time>2026-04-29T17:47:40Z</time></trkpt><trkpt lat="43.73103841048276" lon="10.796179529912475"><ele>18.0</ele><time>2026-04-29T17:47:41Z</time></trkpt><trkpt lat="43.731221732984416" lon="10.79604232901119"><ele>18.0</ele><time>2026-04-29T17:47:42Z</time></trkpt><trkpt lat="43.73140788682776" lon="10.795895791088974"><ele>18.0</ele><time>2026-04-29T17:47:43Z</time></trkpt><trkpt lat="43.73158730605511" lon="10.795753050628207"><ele>18.0</ele><time>2026-04-29T17:47:44Z</time></trkpt><trkpt lat="43.731761228675474" lon="10.795612004977098"><ele>18.0</ele><time>2026-04-29T17:47:45Z</time></trkpt><trkpt lat="43.731936462292154" lon="10.795469234803642"><ele>18.0</ele><time>2026-04-29T17:47:46Z</time></trkpt><trkpt lat="43.732111054657146" lon="10.795328433117248"><ele>18.0</ele><time>2026-04-29T17:47:47Z</time></trkpt><trkpt lat="43.7322826283797" lon="10.795190899716715"><ele>18.0</ele><time>2026-04-29T17:47:48Z</time></trkpt><trkpt lat="43.7324521076493" lon="10.795054137719909"><ele>18.0</ele><time>2026-04-29T17:47:49Z</time></trkpt><trkpt lat="43.73261357979097" lon="10.79491863484715"><ele>18.0</ele><time>2026-04-29T17:47:50Z</time></trkpt><trkpt lat="43.732757080690845" lon="10.794785825875504"><ele>18.0</ele><time>2026-04-29T17:47:51Z</time></trkpt><trkpt lat="43.73289795373638" lon="10.794632497740244"><ele>18.0</ele><time>2026-04-29T17:47:52Z</time></trkpt><trkpt lat="43.733035524778025" lon="10.794466910869788"><ele>18.0</ele><time>2026-04-29T17:47:53Z</time></trkpt><trkpt lat="43.73316247014959" lon="10.794323588244227"><ele>18.0</ele><time>2026-04-29T17:47:54Z</time></trkpt><trkpt lat="43.73327808200482" lon="10.794239487222413"><ele>17.75</ele><time>2026-04-29T17:47:55Z</time></trkpt><trkpt lat="43.73339120488671" lon="10.794228449171436"><ele>17.5</ele><time>2026-04-29T17:47:56Z</time></trkpt><trkpt lat="43.733511020439025" lon="10.79428100332034"><ele>17.25</ele><time>2026-04-29T17:47:57Z</time></trkpt><trkpt lat="43.73363849759342" lon="10.794393243743407"><ele>17.0</ele><time>2026-04-29T17:47:58Z</time></trkpt><trkpt lat="43.73378793397717" lon="10.794525808505156"><ele>17.0</ele><time>2026-04-29T17:47:59Z</time></trkpt><trkpt lat="43.73395543975693" lon="10.794662619602521"><ele>17.0</ele><time>2026-04-29T17:48:00Z</time></trkpt><trkpt lat="43.73412263334447" lon="10.794818460375094"><ele>17.0</ele><time>2026-04-29T17:48:01Z</time></trkpt><trkpt lat="43.73427480519855" lon="10.794989365084493"><ele>17.0</ele><time>2026-04-29T17:48:02Z</time></trkpt><trkpt lat="43.73440140484117" lon="10.795170766119835"><ele>17.0</ele><time>2026-04-29T17:48:03Z</time></trkpt><trkpt lat="43.73451322115047" lon="10.795353158900456"><ele>17.0</ele><time>2026-04-29T17:48:04Z</time></trkpt><trkpt lat="43.734605312978246" lon="10.795533724876906"><ele>17.0</ele><time>2026-04-29T17:48:05Z</time></trkpt><trkpt lat="43.73468072426426" lon="10.795693567176798"><ele>17.0</ele><time>2026-04-29T17:48:06Z</time></trkpt><trkpt lat="43.73474099562796" lon="10.79582618376803"><ele>17.0</ele><time>2026-04-29T17:48:07Z</time></trkpt><trkpt lat="43.73478308989475" lon="10.79592288670249"><ele>17.0</ele><time>2026-04-29T17:48:08Z</time></trkpt><trkpt lat="43.73481954064965" lon="10.796029682175849"><ele>17.0</ele><time>2026-04-29T17:48:10Z</time></trkpt><trkpt lat="43.73482806310109" lon="10.796142838481211"><ele>17.4</ele><time>2026-04-29T17:48:12Z</time></trkpt><trkpt lat="43.734879629460785" lon="10.79627993400902"><ele>17.799999999999997</ele><time>2026-04-29T17:48:14Z</time></trkpt><trkpt lat="43.7349410600477" lon="10.796304625599367"><ele>18.2</ele><time>2026-04-29T17:48:15Z</time></trkpt><trkpt lat="43.73502566481458" lon="10.79621659961641"><ele>18.599999999999998</ele><time>2026-04-29T17:48:17Z</time></trkpt><trkpt lat="43.734993856122514" lon="10.796069895161335"><ele>19.0</ele><time>2026-04-29T17:48:19Z</time></trkpt><trkpt lat="43.73487664628816" lon="10.796060194353773"><ele>19.0</ele><time>2026-04-29T17:48:21Z</time></trkpt><trkpt lat="43.73483734692598" lon="10.79621308090208"><ele>19.0</ele><time>2026-04-29T17:48:23Z</time></trkpt><trkpt lat="43.73488201396322" lon="10.796288763798266"><ele>19.0</ele><time>2026-04-29T17:48:24Z</time></trkpt><trkpt lat="43.734963551845645" lon="10.796354312148184"><ele>19.0</ele><time>2026-04-29T17:48:25Z</time></trkpt><trkpt lat="43.73504239372703" lon="10.796439454543172"><ele>19.0</ele><time>2026-04-29T17:48:26Z</time></trkpt><trkpt lat="43.73512071777615" lon="10.796564872532963"><ele>19.0</ele><time>2026-04-29T17:48:27Z</time></trkpt><trkpt lat="43.73521336118952" lon="10.796722114807649"><ele>19.0</ele><time>2026-04-29T17:48:28Z</time></trkpt><trkpt lat="43.73531854202984" lon="10.796899271503547"><ele>19.0</ele><time>2026-04-29T17:48:29Z</time></trkpt><trkpt lat="43.73543932578873" lon="10.797089912091307"><ele>18.0</ele><time>2026-04-29T17:48:30Z</time></trkpt><trkpt lat="43.735545645619304" lon="10.797332837571584"><ele>17.0</ele><time>2026-04-29T17:48:31Z</time></trkpt><trkpt lat="43.735688739783875" lon="10.797557616818677"><ele>16.0</ele><time>2026-04-29T17:48:32Z</time></trkpt><trkpt lat="43.73583377247061" lon="10.797786526262842"><ele>16.0</ele><time>2026-04-29T17:48:33Z</time></trkpt><trkpt lat="43.73598031852523" lon="10.798017389860783"><ele>16.0</ele><time>2026-04-29T17:48:34Z</time></trkpt><trkpt lat="43.73612813086471" lon="10.798249644959665"><ele>16.0</ele><time>2026-04-29T17:48:35Z</time></trkpt><trkpt lat="43.73627552688623" lon="10.79848124586556"><ele>15.666666666666666</ele><time>2026-04-29T17:48:36Z</time></trkpt><trkpt lat="43.73640678106469" lon="10.798693563516736"><ele>15.333333333333332</ele><time>2026-04-29T17:48:37Z</time></trkpt><trkpt lat="43.73653857244448" lon="10.798871299787821"><ele>15.0</ele><time>2026-04-29T17:48:38Z</time></trkpt><trkpt lat="43.73663555836965" lon="10.799044048916912"><ele>15.0</ele><time>2026-04-29T17:48:39Z</time></trkpt><trkpt lat="43.73671451963868" lon="10.799193888282339"><ele>15.0</ele><time>2026-04-29T17:48:40Z</time></trkpt><trkpt lat="43.73678635469419" lon="10.79932095186913"><ele>15.0</ele><time>2026-04-29T17:48:41Z</time></trkpt><trkpt lat="43.73685609460315" lon="10.799420908383654"><ele>15.0</ele><time>2026-04-29T17:48:42Z</time></trkpt><trkpt lat="43.73693185809163" lon="10.799469628707673"><ele>15.0</ele><time>2026-04-29T17:48:43Z</time></trkpt><trkpt lat="43.73699881022763" lon="10.799469677225128"><ele>15.4</ele><time>2026-04-29T17:48:44Z</time></trkpt><trkpt lat="43.73709649718991" lon="10.799414649137923"><ele>15.8</ele><time>2026-04-29T17:48:46Z</time></trkpt><trkpt lat="43.7371454251509" lon="10.799324738076407"><ele>16.2</ele><time>2026-04-29T17:48:47Z</time></trkpt><trkpt lat="43.73718356587094" lon="10.799186294330648"><ele>16.6</ele><time>2026-04-29T17:48:48Z</time></trkpt><trkpt lat="43.7372120570779" lon="10.799008041253078"><ele>17.0</ele><time>2026-04-29T17:48:49Z</time></trkpt><trkpt lat="43.73725124972508" lon="10.798807747176207"><ele>17.0</ele><time>2026-04-29T17:48:50Z</time></trkpt><trkpt lat="43.73731117475239" lon="10.798584519576162"><ele>17.0</ele><time>2026-04-29T17:48:51Z</time></trkpt><trkpt lat="43.7373862444599" lon="10.798351058070155"><ele>17.0</ele><time>2026-04-29T17:48:52Z</time></trkpt><trkpt lat="43.737480117127724" lon="10.798109651642163"><ele>16.666666666666668</ele><time>2026-04-29T17:48:53Z</time></trkpt><trkpt lat="43.73758820642414" lon="10.79786190721476"><ele>16.333333333333332</ele><time>2026-04-29T17:48:54Z</time></trkpt><trkpt lat="43.73771365461694" lon="10.797612569746732"><ele>16.0</ele><time>2026-04-29T17:48:55Z</time></trkpt><trkpt lat="43.737857823487985" lon="10.797364965322163"><ele>14.5</ele><time>2026-04-29T17:48:56Z</time></trkpt><trkpt lat="43.73801470560514" lon="10.797118230976563"><ele>13.0</ele><time>2026-04-29T17:48:57Z</time></trkpt><trkpt lat="43.73817390102801" lon="10.796863998542074"><ele>14.0</ele><time>2026-04-29T17:48:58Z</time></trkpt><trkpt lat="43.738336138268224" lon="10.796599977874452"><ele>15.0</ele><time>2026-04-29T17:48:59Z</time></trkpt><trkpt lat="43.73850049846315" lon="10.796326817143536"><ele>15.0</ele><time>2026-04-29T17:49:00Z</time></trkpt><trkpt lat="43.73866841960847" lon="10.7960478155241"><ele>15.0</ele><time>2026-04-29T17:49:01Z</time></trkpt><trkpt lat="43.73883772702749" lon="10.79576343492012"><ele>15.0</ele><time>2026-04-29T17:49:02Z</time></trkpt><trkpt lat="43.739010625849076" lon="10.795474192877407"><ele>15.0</ele><time>2026-04-29T17:49:03Z</time></trkpt><trkpt lat="43.739187333975494" lon="10.79517981874269"><ele>15.0</ele><time>2026-04-29T17:49:04Z</time></trkpt><trkpt lat="43.73936622104391" lon="10.794884553272075"><ele>15.0</ele><time>2026-04-29T17:49:05Z</time></trkpt><trkpt lat="43.73954938402967" lon="10.7945842017301"><ele>14.0</ele><time>2026-04-29T17:49:06Z</time></trkpt><trkpt lat="43.739734051259944" lon="10.794282755482538"><ele>13.0</ele><time>2026-04-29T17:49:07Z</time></trkpt><trkpt lat="43.73991900440959" lon="10.793976450819391"><ele>13.0</ele><time>2026-04-29T17:49:08Z</time></trkpt><trkpt lat="43.74010146501432" lon="10.793668147902652"><ele>13.0</ele><time>2026-04-29T17:49:09Z</time></trkpt><trkpt lat="43.74028558837176" lon="10.793356600528135"><ele>13.0</ele><time>2026-04-29T17:49:10Z</time></trkpt><trkpt lat="43.740472190807004" lon="10.793041777612848"><ele>13.0</ele><time>2026-04-29T17:49:11Z</time></trkpt><trkpt lat="43.74066179637164" lon="10.792727084317038"><ele>12.5</ele><time>2026-04-29T17:49:12Z</time></trkpt><trkpt lat="43.740852129543384" lon="10.792411577383042"><ele>12.0</ele><time>2026-04-29T17:49:13Z</time></trkpt><trkpt lat="43.7410435202163" lon="10.79209420956016"><ele>12.0</ele><time>2026-04-29T17:49:14Z</time></trkpt><trkpt lat="43.7412366685171" lon="10.791776534102954"><ele>12.0</ele><time>2026-04-29T17:49:15Z</time></trkpt><trkpt lat="43.74143157782539" lon="10.791458090401273"><ele>12.0</ele><time>2026-04-29T17:49:16Z</time></trkpt><trkpt lat="43.74162625770946" lon="10.791139501620016"><ele>12.0</ele><time>2026-04-29T17:49:17Z</time></trkpt><trkpt lat="43.74182095989452" lon="10.79081993115234"><ele>12.5</ele><time>2026-04-29T17:49:18Z</time></trkpt><trkpt lat="43.742003519789584" lon="10.790495992812515"><ele>13.0</ele><time>2026-04-29T17:49:19Z</time></trkpt><trkpt lat="43.7421670469301" lon="10.790162880670676"><ele>13.5</ele><time>2026-04-29T17:49:20Z</time></trkpt><trkpt lat="43.742303022454756" lon="10.789834056387214"><ele>14.0</ele><time>2026-04-29T17:49:21Z</time></trkpt><trkpt lat="43.742413687378274" lon="10.78951555309006"><ele>14.0</ele><time>2026-04-29T17:49:22Z</time></trkpt><trkpt lat="43.74250547033488" lon="10.789206098456315"><ele>14.0</ele><time>2026-04-29T17:49:23Z</time></trkpt><trkpt lat="43.74258836579896" lon="10.78890254491577"><ele>14.0</ele><time>2026-04-29T17:49:24Z</time></trkpt><trkpt lat="43.742661545191034" lon="10.78859929475263"><ele>14.0</ele><time>2026-04-29T17:49:25Z</time></trkpt><trkpt lat="43.742721771275164" lon="10.788291691348507"><ele>13.666666666666668</ele><time>2026-04-29T17:49:26Z</time></trkpt><trkpt lat="43.7427664444495" lon="10.787981060687976"><ele>13.333333333333332</ele><time>2026-04-29T17:49:27Z</time></trkpt><trkpt lat="43.74278966148001" lon="10.787687616537662"><ele>13.0</ele><time>2026-04-29T17:49:28Z</time></trkpt><trkpt lat="43.74280279494431" lon="10.787406927119454"><ele>12.666666666666666</ele><time>2026-04-29T17:49:29Z</time></trkpt><trkpt lat="43.742803865405044" lon="10.787150165179499"><ele>12.333333333333332</ele><time>2026-04-29T17:49:30Z</time></trkpt><trkpt lat="43.742795376787086" lon="10.786900779861071"><ele>12.0</ele><time>2026-04-29T17:49:31Z</time></trkpt><trkpt lat="43.7427739901773" lon="10.786635879003253"><ele>12.0</ele><time>2026-04-29T17:49:32Z</time></trkpt><trkpt lat="43.74274770990716" lon="10.786353086359973"><ele>12.0</ele><time>2026-04-29T17:49:33Z</time></trkpt><trkpt lat="43.74271168833936" lon="10.786050207952027"><ele>12.0</ele><time>2026-04-29T17:49:34Z</time></trkpt><trkpt lat="43.742665928061335" lon="10.785762080915557"><ele>12.0</ele><time>2026-04-29T17:49:35Z</time></trkpt><trkpt lat="43.742612616856206" lon="10.785500290481671"><ele>12.0</ele><time>2026-04-29T17:49:36Z</time></trkpt><trkpt lat="43.74255504686083" lon="10.7852577546351"><ele>12.0</ele><time>2026-04-29T17:49:37Z</time></trkpt><trkpt lat="43.74248351733151" lon="10.785009605213489"><ele>12.333333333333332</ele><time>2026-04-29T17:49:38Z</time></trkpt><trkpt lat="43.74239567165142" lon="10.784752111826029"><ele>12.666666666666666</ele><time>2026-04-29T17:49:39Z</time></trkpt><trkpt lat="43.74230572223908" lon="10.784502897978262"><ele>13.0</ele><time>2026-04-29T17:49:40Z</time></trkpt><trkpt lat="43.74221925411899" lon="10.784272212633319"><ele>13.333333333333332</ele><time>2026-04-29T17:49:41Z</time></trkpt><trkpt lat="43.742149203161674" lon="10.784055121061034"><ele>13.666666666666668</ele><time>2026-04-29T17:49:42Z</time></trkpt><trkpt lat="43.742105570626784" lon="10.78384050573942"><ele>14.0</ele><time>2026-04-29T17:49:43Z</time></trkpt><trkpt lat="43.742071799062764" lon="10.78362842085615"><ele>14.5</ele><time>2026-04-29T17:49:44Z</time></trkpt><trkpt lat="43.74201477440805" lon="10.783446896348032"><ele>15.0</ele><time>2026-04-29T17:49:45Z</time></trkpt><trkpt lat="43.74195758676858" lon="10.78330685569812"><ele>15.5</ele><time>2026-04-29T17:49:46Z</time></trkpt><trkpt lat="43.741927705011435" lon="10.783173825234995"><ele>16.0</ele><time>2026-04-29T17:49:47Z</time></trkpt><trkpt lat="43.74192854907274" lon="10.783044819739128"><ele>16.0</ele><time>2026-04-29T17:49:48Z</time></trkpt><trkpt lat="43.74197957137415" lon="10.782917953915463"><ele>16.0</ele><time>2026-04-29T17:49:49Z</time></trkpt><trkpt lat="43.74202973237681" lon="10.782758897439736"><ele>16.0</ele><time>2026-04-29T17:49:50Z</time></trkpt><trkpt lat="43.74207764747784" lon="10.782568008841348"><ele>16.0</ele><time>2026-04-29T17:49:51Z</time></trkpt><trkpt lat="43.7421439160333" lon="10.78237548622045"><ele>16.0</ele><time>2026-04-29T17:49:52Z</time></trkpt><trkpt lat="43.74221867390011" lon="10.782162086192622"><ele>16.0</ele><time>2026-04-29T17:49:53Z</time></trkpt><trkpt lat="43.74230349302265" lon="10.78193539235534"><ele>16.0</ele><time>2026-04-29T17:49:54Z</time></trkpt><trkpt lat="43.74239138790651" lon="10.781697015892066"><ele>16.333333333333332</ele><time>2026-04-29T17:49:55Z</time></trkpt><trkpt lat="43.74248049714548" lon="10.78144715522119"><ele>16.666666666666668</ele><time>2026-04-29T17:49:56Z</time></trkpt><trkpt lat="43.74257417942354" lon="10.781179803212241"><ele>17.0</ele><time>2026-04-29T17:49:57Z</time></trkpt><trkpt lat="43.74267320310237" lon="10.780901980312617"><ele>17.5</ele><time>2026-04-29T17:49:58Z</time></trkpt><trkpt lat="43.742773061288105" lon="10.78061994493568"><ele>18.0</ele><time>2026-04-29T17:49:59Z</time></trkpt><trkpt lat="43.74287905832624" lon="10.780324330965412"><ele>17.0</ele><time>2026-04-29T17:50:00Z</time></trkpt><trkpt lat="43.74298519565588" lon="10.780026172489313"><ele>16.0</ele><time>2026-04-29T17:50:01Z</time></trkpt><trkpt lat="43.74309546489199" lon="10.779721261557105"><ele>16.0</ele><time>2026-04-29T17:50:02Z</time></trkpt><trkpt lat="43.74320580514815" lon="10.77941818014048"><ele>16.0</ele><time>2026-04-29T17:50:03Z</time></trkpt><trkpt lat="43.74331947337281" lon="10.779107222801953"><ele>16.0</ele><time>2026-04-29T17:50:04Z</time></trkpt><trkpt lat="43.743435601157195" lon="10.77879648163139"><ele>16.0</ele><time>2026-04-29T17:50:05Z</time></trkpt><trkpt lat="43.74355164783588" lon="10.778485679566979"><ele>16.0</ele><time>2026-04-29T17:50:06Z</time></trkpt><trkpt lat="43.74365111362762" lon="10.778208274877734"><ele>16.0</ele><time>2026-04-29T17:50:07Z</time></trkpt><trkpt lat="43.74373149385165" lon="10.777979042859547"><ele>16.0</ele><time>2026-04-29T17:50:08Z</time></trkpt><trkpt lat="43.74379968668524" lon="10.777801083021192"><ele>15.8</ele><time>2026-04-29T17:50:09Z</time></trkpt><trkpt lat="43.74386052252232" lon="10.77768413837512"><ele>15.600000000000001</ele><time>2026-04-29T17:50:10Z</time></trkpt><trkpt lat="43.743914350171615" lon="10.777618724295749"><ele>15.4</ele><time>2026-04-29T17:50:11Z</time></trkpt><trkpt lat="43.74397888411004" lon="10.777493494416015"><ele>15.2</ele><time>2026-04-29T17:50:13Z</time></trkpt><trkpt lat="43.74389881707078" lon="10.777302905710414"><ele>15.0</ele><time>2026-04-29T17:50:14Z</time></trkpt><trkpt lat="43.74381648323739" lon="10.77711211200902"><ele>15.0</ele><time>2026-04-29T17:50:15Z</time></trkpt><trkpt lat="43.74371153835223" lon="10.776887050832062"><ele>15.0</ele><time>2026-04-29T17:50:16Z</time></trkpt><trkpt lat="43.74358045671074" lon="10.776624136844442"><ele>15.0</ele><time>2026-04-29T17:50:17Z</time></trkpt><trkpt lat="43.74343630642933" lon="10.776330826411282"><ele>16.0</ele><time>2026-04-29T17:50:18Z</time></trkpt><trkpt lat="43.74329459945076" lon="10.776036521198707"><ele>17.0</ele><time>2026-04-29T17:50:19Z</time></trkpt><trkpt lat="43.7431744275608" lon="10.775785627606451"><ele>17.333333333333336</ele><time>2026-04-29T17:50:20Z</time></trkpt><trkpt lat="43.74306686154385" lon="10.775566167898345"><ele>17.666666666666668</ele><time>2026-04-29T17:50:21Z</time></trkpt><trkpt lat="43.74294816488453" lon="10.775374600988894"><ele>18.0</ele><time>2026-04-29T17:50:22Z</time></trkpt><trkpt lat="43.74280713813669" lon="10.775217441384783"><ele>17.75</ele><time>2026-04-29T17:50:23Z</time></trkpt><trkpt lat="43.7426782563789" lon="10.77511828272375"><ele>17.5</ele><time>2026-04-29T17:50:24Z</time></trkpt><trkpt lat="43.74259357780087" lon="10.77504984743596"><ele>17.25</ele><time>2026-04-29T17:50:25Z</time></trkpt><trkpt lat="43.74253950995327" lon="10.774934208780076"><ele>17.0</ele><time>2026-04-29T17:50:27Z</time></trkpt><trkpt lat="43.742600162558304" lon="10.774775004091282"><ele>17.0</ele><time>2026-04-29T17:50:29Z</time></trkpt><trkpt lat="43.74264801827507" lon="10.774636657226052"><ele>17.0</ele><time>2026-04-29T17:50:30Z</time></trkpt><trkpt lat="43.74270732134078" lon="10.774464408061808"><ele>17.0</ele><time>2026-04-29T17:50:31Z</time></trkpt><trkpt lat="43.742771584546894" lon="10.774269403019025"><ele>17.0</ele><time>2026-04-29T17:50:32Z</time></trkpt><trkpt lat="43.742857177347744" lon="10.774045457428688"><ele>17.0</ele><time>2026-04-29T17:50:33Z</time></trkpt><trkpt lat="43.742958008001864" lon="10.773774750951103"><ele>17.0</ele><time>2026-04-29T17:50:34Z</time></trkpt><trkpt lat="43.74306183260864" lon="10.773482736163135"><ele>17.0</ele><time>2026-04-29T17:50:35Z</time></trkpt><trkpt lat="43.7431736461093" lon="10.773156863713508"><ele>17.0</ele><time>2026-04-29T17:50:36Z</time></trkpt><trkpt lat="43.743274029917046" lon="10.77286582756953"><ele>17.333333333333336</ele><time>2026-04-29T17:50:37Z</time></trkpt><trkpt lat="43.74336492542038" lon="10.772611909383864"><ele>17.666666666666668</ele><time>2026-04-29T17:50:38Z</time></trkpt><trkpt lat="43.74344907037293" lon="10.772379772233574"><ele>18.0</ele><time>2026-04-29T17:50:39Z</time></trkpt><trkpt lat="43.74352583488913" lon="10.772161635967471"><ele>17.666666666666668</ele><time>2026-04-29T17:50:40Z</time></trkpt><trkpt lat="43.74359687706236" lon="10.771958859930642"><ele>17.333333333333336</ele><time>2026-04-29T17:50:41Z</time></trkpt><trkpt lat="43.743662284745824" lon="10.771766259794655"><ele>17.0</ele><time>2026-04-29T17:50:42Z</time></trkpt><trkpt lat="43.743728432257534" lon="10.771580715860647"><ele>17.0</ele><time>2026-04-29T17:50:43Z</time></trkpt><trkpt lat="43.74379496078679" lon="10.77140781221031"><ele>17.0</ele><time>2026-04-29T17:50:44Z</time></trkpt><trkpt lat="43.74385414102847" lon="10.771249280336413"><ele>17.0</ele><time>2026-04-29T17:50:45Z</time></trkpt><trkpt lat="43.74390718147958" lon="10.771119784898852"><ele>17.0</ele><time>2026-04-29T17:50:46Z</time></trkpt><trkpt lat="43.74394074309325" lon="10.771032230134162"><ele>16.8</ele><time>2026-04-29T17:50:47Z</time></trkpt><trkpt lat="43.74397287022944" lon="10.770946431495549"><ele>16.6</ele><time>2026-04-29T17:50:48Z</time></trkpt><trkpt lat="43.744007830177146" lon="10.770833965085213"><ele>16.400000000000002</ele><time>2026-04-29T17:50:50Z</time></trkpt><trkpt lat="43.74405408540799" lon="10.770671911670224"><ele>16.2</ele><time>2026-04-29T17:50:59Z</time></trkpt><trkpt lat="43.74409204297717" lon="10.770560373052177"><ele>16.0</ele><time>2026-04-29T17:51:00Z</time></trkpt><trkpt lat="43.74414430336465" lon="10.770437171722302"><ele>16.0</ele><time>2026-04-29T17:51:01Z</time></trkpt><trkpt lat="43.74420322331762" lon="10.770301737583155"><ele>16.0</ele><time>2026-04-29T17:51:02Z</time></trkpt><trkpt lat="43.74426292090465" lon="10.770175303969733"><ele>16.0</ele><time>2026-04-29T17:51:03Z</time></trkpt><trkpt lat="43.7443136244904" lon="10.770055129843664"><ele>16.0</ele><time>2026-04-29T17:51:04Z</time></trkpt><trkpt lat="43.74434506385589" lon="10.769948370865686"><ele>16.0</ele><time>2026-04-29T17:51:05Z</time></trkpt><trkpt lat="43.744385837933045" lon="10.769835532387505"><ele>16.5</ele><time>2026-04-29T17:51:06Z</time></trkpt><trkpt lat="43.74443543738921" lon="10.76974628807304"><ele>17.0</ele><time>2026-04-29T17:51:07Z</time></trkpt><trkpt lat="43.744489090639405" lon="10.769682778066993"><ele>17.5</ele><time>2026-04-29T17:51:08Z</time></trkpt><trkpt lat="43.74456012965816" lon="10.769635170519589"><ele>18.0</ele><time>2026-04-29T17:51:09Z</time></trkpt><trkpt lat="43.74466495445026" lon="10.769621867775022"><ele>18.5</ele><time>2026-04-29T17:51:10Z</time></trkpt><trkpt lat="43.74476342732798" lon="10.769609322770382"><ele>19.0</ele><time>2026-04-29T17:51:11Z</time></trkpt><trkpt lat="43.74486693100052" lon="10.769606326476978"><ele>19.0</ele><time>2026-04-29T17:51:12Z</time></trkpt><trkpt lat="43.74497720422015" lon="10.76960624524143"><ele>19.0</ele><time>2026-04-29T17:51:13Z</time></trkpt><trkpt lat="43.74509089749088" lon="10.76961825431478"><ele>19.0</ele><time>2026-04-29T17:51:14Z</time></trkpt><trkpt lat="43.74520623106091" lon="10.769641523534695"><ele>19.0</ele><time>2026-04-29T17:51:15Z</time></trkpt><trkpt lat="43.745322355632965" lon="10.76967064155549"><ele>20.0</ele><time>2026-04-29T17:51:16Z</time></trkpt><trkpt lat="43.7454448496704" lon="10.769687333357542"><ele>21.0</ele><time>2026-04-29T17:51:17Z</time></trkpt><trkpt lat="43.74555773498609" lon="10.769703808742955"><ele>22.0</ele><time>2026-04-29T17:51:18Z</time></trkpt><trkpt lat="43.74565558887076" lon="10.769708179867695"><ele>23.0</ele><time>2026-04-29T17:51:19Z</time></trkpt><trkpt lat="43.745741624993634" lon="10.769741880666936"><ele>24.0</ele><time>2026-04-29T17:51:20Z</time></trkpt><trkpt lat="43.74579453272376" lon="10.769838992728015"><ele>24.0</ele><time>2026-04-29T17:51:21Z</time></trkpt><trkpt lat="43.7458912113061" lon="10.769910519713745"><ele>24.0</ele><time>2026-04-29T17:51:22Z</time></trkpt><trkpt lat="43.745990044721665" lon="10.770011041415694"><ele>24.0</ele><time>2026-04-29T17:51:23Z</time></trkpt><trkpt lat="43.74610017405877" lon="10.770116965747139"><ele>24.0</ele><time>2026-04-29T17:51:24Z</time></trkpt><trkpt lat="43.74621913668608" lon="10.770233595831765"><ele>24.333333333333336</ele><time>2026-04-29T17:51:25Z</time></trkpt><trkpt lat="43.74634797404656" lon="10.77036631158507"><ele>24.666666666666668</ele><time>2026-04-29T17:51:26Z</time></trkpt><trkpt lat="43.746488448633734" lon="10.770506762914025"><ele>25.0</ele><time>2026-04-29T17:51:27Z</time></trkpt><trkpt lat="43.74663374432514" lon="10.770653389208777"><ele>25.0</ele><time>2026-04-29T17:51:28Z</time></trkpt><trkpt lat="43.74678119534222" lon="10.770803485580954"><ele>25.0</ele><time>2026-04-29T17:51:29Z</time></trkpt><trkpt lat="43.746921225696454" lon="10.770942193742876"><ele>25.0</ele><time>2026-04-29T17:51:30Z</time></trkpt><trkpt lat="43.74705188266594" lon="10.771052342058113"><ele>25.5</ele><time>2026-04-29T17:51:31Z</time></trkpt><trkpt lat="43.74718759684862" lon="10.77112397545768"><ele>26.0</ele><time>2026-04-29T17:51:32Z</time></trkpt><trkpt lat="43.74732107098532" lon="10.771121060644493"><ele>26.5</ele><time>2026-04-29T17:51:33Z</time></trkpt><trkpt lat="43.74743474228484" lon="10.771031707594052"><ele>27.0</ele><time>2026-04-29T17:51:34Z</time></trkpt><trkpt lat="43.74750342939601" lon="10.770871994830536"><ele>27.0</ele><time>2026-04-29T17:51:35Z</time></trkpt><trkpt lat="43.74750974890674" lon="10.770681859039"><ele>27.0</ele><time>2026-04-29T17:51:36Z</time></trkpt><trkpt lat="43.74744377216644" lon="10.770515751557772"><ele>27.0</ele><time>2026-04-29T17:51:37Z</time></trkpt><trkpt lat="43.74733375125338" lon="10.770352167029843"><ele>27.0</ele><time>2026-04-29T17:51:38Z</time></trkpt><trkpt lat="43.74721255255099" lon="10.77014902130829"><ele>27.333333333333336</ele><time>2026-04-29T17:51:39Z</time></trkpt><trkpt lat="43.747090218654" lon="10.769911157268101"><ele>27.666666666666668</ele><time>2026-04-29T17:51:40Z</time></trkpt><trkpt lat="43.746965754118555" lon="10.769663135611438"><ele>28.0</ele><time>2026-04-29T17:51:41Z</time></trkpt><trkpt lat="43.74684954330781" lon="10.76942586339387"><ele>30.666666666666668</ele><time>2026-04-29T17:51:42Z</time></trkpt><trkpt lat="43.74675123916182" lon="10.769192469699833"><ele>33.333333333333336</ele><time>2026-04-29T17:51:43Z</time></trkpt><trkpt lat="43.746687726824895" lon="10.768950446339543"><ele>36.0</ele><time>2026-04-29T17:51:44Z</time></trkpt><trkpt lat="43.74667262776843" lon="10.768694007411451"><ele>36.333333333333336</ele><time>2026-04-29T17:51:45Z</time></trkpt><trkpt lat="43.74667876561267" lon="10.768402431022464"><ele>36.66666666666667</ele><time>2026-04-29T17:51:46Z</time></trkpt><trkpt lat="43.746662054440264" lon="10.768099240715005"><ele>37.0</ele><time>2026-04-29T17:51:47Z</time></trkpt><trkpt lat="43.7466456444945" lon="10.767837909857027"><ele>36.25</ele><time>2026-04-29T17:51:48Z</time></trkpt><trkpt lat="43.74667997445162" lon="10.76761365562679"><ele>35.5</ele><time>2026-04-29T17:51:49Z</time></trkpt><trkpt lat="43.74678472634294" lon="10.767464102815296"><ele>34.75</ele><time>2026-04-29T17:51:50Z</time></trkpt><trkpt lat="43.74689118999014" lon="10.767359287736872"><ele>34.0</ele><time>2026-04-29T17:51:51Z</time></trkpt><trkpt lat="43.74703877349573" lon="10.767280147633292"><ele>34.0</ele><time>2026-04-29T17:51:52Z</time></trkpt><trkpt lat="43.747235024013385" lon="10.76719711936009"><ele>34.0</ele><time>2026-04-29T17:51:53Z</time></trkpt><trkpt lat="43.747459957936584" lon="10.767126963723383"><ele>34.0</ele><time>2026-04-29T17:51:54Z</time></trkpt><trkpt lat="43.7476853850598" lon="10.767034737790562"><ele>33.0</ele><time>2026-04-29T17:51:55Z</time></trkpt><trkpt lat="43.74790934294608" lon="10.766937288932212"><ele>32.0</ele><time>2026-04-29T17:51:56Z</time></trkpt><trkpt lat="43.748122518588794" lon="10.766845217043132"><ele>35.33333333333333</ele><time>2026-04-29T17:51:57Z</time></trkpt><trkpt lat="43.74833395860381" lon="10.766753938441896"><ele>38.666666666666664</ele><time>2026-04-29T17:51:58Z</time></trkpt><trkpt lat="43.74855477155184" lon="10.766688875759622"><ele>42.0</ele><time>2026-04-29T17:51:59Z</time></trkpt><trkpt lat="43.74878002915174" lon="10.766651824678085"><ele>44.0</ele><time>2026-04-29T17:52:00Z</time></trkpt><trkpt lat="43.74900338935296" lon="10.766633741019676"><ele>46.0</ele><time>2026-04-29T17:52:01Z</time></trkpt><trkpt lat="43.74923336197713" lon="10.766616585007826"><ele>46.5</ele><time>2026-04-29T17:52:02Z</time></trkpt><trkpt lat="43.74947145885419" lon="10.76660091617991"><ele>47.0</ele><time>2026-04-29T17:52:03Z</time></trkpt><trkpt lat="43.749708467917955" lon="10.766574202123943"><ele>47.0</ele><time>2026-04-29T17:52:04Z</time></trkpt><trkpt lat="43.74994151986735" lon="10.766510146897426"><ele>47.0</ele><time>2026-04-29T17:52:05Z</time></trkpt><trkpt lat="43.750184261821694" lon="10.766398481503531"><ele>46.0</ele><time>2026-04-29T17:52:06Z</time></trkpt><trkpt lat="43.75044421867753" lon="10.766280945398828"><ele>45.0</ele><time>2026-04-29T17:52:07Z</time></trkpt><trkpt lat="43.75071694066838" lon="10.766159505077384"><ele>45.0</ele><time>2026-04-29T17:52:08Z</time></trkpt><trkpt lat="43.7509831100774" lon="10.766040246816205"><ele>45.0</ele><time>2026-04-29T17:52:09Z</time></trkpt><trkpt lat="43.751228673035264" lon="10.76592963274072"><ele>43.5</ele><time>2026-04-29T17:52:10Z</time></trkpt><trkpt lat="43.751460118899324" lon="10.76583159290254"><ele>42.0</ele><time>2026-04-29T17:52:11Z</time></trkpt><trkpt lat="43.751692078604854" lon="10.76576151679855"><ele>41.0</ele><time>2026-04-29T17:52:12Z</time></trkpt><trkpt lat="43.751931129883026" lon="10.765736910201914"><ele>40.0</ele><time>2026-04-29T17:52:13Z</time></trkpt><trkpt lat="43.75217677443068" lon="10.765756575876258"><ele>40.0</ele><time>2026-04-29T17:52:14Z</time></trkpt><trkpt lat="43.752440064705155" lon="10.765792971818804"><ele>40.0</ele><time>2026-04-29T17:52:15Z</time></trkpt><trkpt lat="43.75271443357024" lon="10.765832707226838"><ele>40.0</ele><time>2026-04-29T17:52:16Z</time></trkpt><trkpt lat="43.75299213837658" lon="10.765882712413253"><ele>40.0</ele><time>2026-04-29T17:52:17Z</time></trkpt><trkpt lat="43.753267516750405" lon="10.76593251551726"><ele>40.0</ele><time>2026-04-29T17:52:18Z</time></trkpt><trkpt lat="43.75351149722722" lon="10.765974552011675"><ele>40.0</ele><time>2026-04-29T17:52:19Z</time></trkpt><trkpt lat="43.753702149683015" lon="10.76599922600452"><ele>40.0</ele><time>2026-04-29T17:52:20Z</time></trkpt><trkpt lat="43.753868217794604" lon="10.765991860747"><ele>41.0</ele><time>2026-04-29T17:52:21Z</time></trkpt><trkpt lat="43.75401982037893" lon="10.76592577704666"><ele>42.0</ele><time>2026-04-29T17:52:22Z</time></trkpt><trkpt lat="43.75413933566807" lon="10.765792785038478"><ele>43.0</ele><time>2026-04-29T17:52:23Z</time></trkpt><trkpt lat="43.75422925509432" lon="10.765602173738088"><ele>43.0</ele><time>2026-04-29T17:52:24Z</time></trkpt><trkpt lat="43.75429775115424" lon="10.765351168368799"><ele>43.0</ele><time>2026-04-29T17:52:25Z</time></trkpt><trkpt lat="43.75437633838383" lon="10.765042386177619"><ele>43.0</ele><time>2026-04-29T17:52:26Z</time></trkpt><trkpt lat="43.75446088691869" lon="10.764757212536713"><ele>43.66666666666667</ele><time>2026-04-29T17:52:27Z</time></trkpt><trkpt lat="43.75454149638588" lon="10.764531583866667"><ele>44.333333333333336</ele><time>2026-04-29T17:52:28Z</time></trkpt><trkpt lat="43.75462315514866" lon="10.764336268845502"><ele>45.0</ele><time>2026-04-29T17:52:29Z</time></trkpt><trkpt lat="43.75470116074436" lon="10.764180897712611"><ele>46.0</ele><time>2026-04-29T17:52:30Z</time></trkpt><trkpt lat="43.75474879353757" lon="10.764038641968247"><ele>47.0</ele><time>2026-04-29T17:52:31Z</time></trkpt><trkpt lat="43.75477803991453" lon="10.763956765500964"><ele>48.0</ele><time>2026-04-29T17:52:32Z</time></trkpt><trkpt lat="43.75501556427517" lon="10.763959526366754"><ele>49.0</ele><time>2026-04-29T17:52:34Z</time></trkpt><trkpt lat="43.75519791735826" lon="10.763926111862792"><ele>48.666666666666664</ele><time>2026-04-29T17:52:35Z</time></trkpt><trkpt lat="43.75538296845761" lon="10.763898569046173"><ele>48.33333333333333</ele><time>2026-04-29T17:52:36Z</time></trkpt><trkpt lat="43.75560325364367" lon="10.763867590321958"><ele>48.0</ele><time>2026-04-29T17:52:37Z</time></trkpt><trkpt lat="43.755850192814414" lon="10.763826440902399"><ele>49.5</ele><time>2026-04-29T17:52:38Z</time></trkpt><trkpt lat="43.75611550792114" lon="10.763775879820264"><ele>51.0</ele><time>2026-04-29T17:52:39Z</time></trkpt><trkpt lat="43.756380527341086" lon="10.76371618524894"><ele>51.0</ele><time>2026-04-29T17:52:40Z</time></trkpt><trkpt lat="43.75663404340397" lon="10.763657059555449"><ele>51.0</ele><time>2026-04-29T17:52:41Z</time></trkpt><trkpt lat="43.756865736411434" lon="10.763585699539888"><ele>53.33333333333333</ele><time>2026-04-29T17:52:42Z</time></trkpt><trkpt lat="43.75707386513269" lon="10.76347663237346"><ele>55.666666666666664</ele><time>2026-04-29T17:52:43Z</time></trkpt><trkpt lat="43.757253619285116" lon="10.763307247322858"><ele>58.0</ele><time>2026-04-29T17:52:44Z</time></trkpt><trkpt lat="43.75739566781298" lon="10.763080820904145"><ele>58.0</ele><time>2026-04-29T17:52:45Z</time></trkpt><trkpt lat="43.75752844634105" lon="10.762830366106249"><ele>58.0</ele><time>2026-04-29T17:52:46Z</time></trkpt><trkpt lat="43.75766002785426" lon="10.762586169092259"><ele>58.0</ele><time>2026-04-29T17:52:47Z</time></trkpt><trkpt lat="43.757765419540284" lon="10.762364445738422"><ele>54.33333333333333</ele><time>2026-04-29T17:52:48Z</time></trkpt><trkpt lat="43.757836649312665" lon="10.76214718335841"><ele>50.666666666666664</ele><time>2026-04-29T17:52:49Z</time></trkpt><trkpt lat="43.75787607353084" lon="10.761904812095247"><ele>47.0</ele><time>2026-04-29T17:52:50Z</time></trkpt><trkpt lat="43.75787868224039" lon="10.761632243438866"><ele>45.5</ele><time>2026-04-29T17:52:51Z</time></trkpt><trkpt lat="43.757868574534385" lon="10.761320686684472"><ele>44.0</ele><time>2026-04-29T17:52:52Z</time></trkpt><trkpt lat="43.75786103976139" lon="10.760970458137066"><ele>47.0</ele><time>2026-04-29T17:52:53Z</time></trkpt><trkpt lat="43.75786373239351" lon="10.76059305352475"><ele>50.0</ele><time>2026-04-29T17:52:54Z</time></trkpt><trkpt lat="43.75786851134971" lon="10.76019717706776"><ele>55.0</ele><time>2026-04-29T17:52:55Z</time></trkpt><trkpt lat="43.75787484493238" lon="10.759814260522383"><ele>60.0</ele><time>2026-04-29T17:52:56Z</time></trkpt><trkpt lat="43.757872140690104" lon="10.759451466747715"><ele>59.5</ele><time>2026-04-29T17:52:57Z</time></trkpt><trkpt lat="43.75781635859107" lon="10.75912281800842"><ele>59.0</ele><time>2026-04-29T17:52:58Z</time></trkpt><trkpt lat="43.75774474331571" lon="10.758798085295409"><ele>59.0</ele><time>2026-04-29T17:52:59Z</time></trkpt><trkpt lat="43.75766093566047" lon="10.758515662730575"><ele>59.0</ele><time>2026-04-29T17:53:00Z</time></trkpt><trkpt lat="43.757572088205656" lon="10.758264008201504"><ele>59.0</ele><time>2026-04-29T17:53:01Z</time></trkpt><trkpt lat="43.75748615495253" lon="10.758048364638007"><ele>59.0</ele><time>2026-04-29T17:53:02Z</time></trkpt><trkpt lat="43.75740748819632" lon="10.75785328866047"><ele>59.0</ele><time>2026-04-29T17:53:03Z</time></trkpt><trkpt lat="43.75733860861682" lon="10.757675309097872"><ele>59.0</ele><time>2026-04-29T17:53:04Z</time></trkpt><trkpt lat="43.75727493525571" lon="10.757512297302808"><ele>59.0</ele><time>2026-04-29T17:53:05Z</time></trkpt><trkpt lat="43.75721690649592" lon="10.757358710427983"><ele>60.25</ele><time>2026-04-29T17:53:06Z</time></trkpt><trkpt lat="43.75716165605452" lon="10.757206882769704"><ele>61.5</ele><time>2026-04-29T17:53:07Z</time></trkpt><trkpt lat="43.75710690675699" lon="10.757047849522896"><ele>62.75</ele><time>2026-04-29T17:53:08Z</time></trkpt><trkpt lat="43.75704645718556" lon="10.756877212875052"><ele>64.0</ele><time>2026-04-29T17:53:09Z</time></trkpt><trkpt lat="43.75698123088904" lon="10.756694316016683"><ele>66.33333333333333</ele><time>2026-04-29T17:53:10Z</time></trkpt><trkpt lat="43.75692631749227" lon="10.756497087717408"><ele>68.66666666666667</ele><time>2026-04-29T17:53:11Z</time></trkpt><trkpt lat="43.75689030442249" lon="10.756275514986172"><ele>71.0</ele><time>2026-04-29T17:53:12Z</time></trkpt><trkpt lat="43.75688120240865" lon="10.7560371580442"><ele>74.0</ele><time>2026-04-29T17:53:13Z</time></trkpt><trkpt lat="43.7568955366554" lon="10.755784488432147"><ele>77.0</ele><time>2026-04-29T17:53:14Z</time></trkpt><trkpt lat="43.756936118819716" lon="10.755531071306363"><ele>80.0</ele><time>2026-04-29T17:53:15Z</time></trkpt><trkpt lat="43.75700401667198" lon="10.755276680312958"><ele>81.33333333333334</ele><time>2026-04-29T17:53:16Z</time></trkpt><trkpt lat="43.75708102174823" lon="10.755012355195623"><ele>82.66666666666667</ele><time>2026-04-29T17:53:17Z</time></trkpt><trkpt lat="43.75714908204362" lon="10.754778811859087"><ele>84.0</ele><time>2026-04-29T17:53:18Z</time></trkpt><trkpt lat="43.75722248274631" lon="10.75458082142163"><ele>84.0</ele><time>2026-04-29T17:53:19Z</time></trkpt><trkpt lat="43.75731485360604" lon="10.754423521538584"><ele>84.0</ele><time>2026-04-29T17:53:20Z</time></trkpt><trkpt lat="43.75741764083572" lon="10.754291280591039"><ele>84.0</ele><time>2026-04-29T17:53:21Z</time></trkpt><trkpt lat="43.757504301200235" lon="10.754196974161333"><ele>84.0</ele><time>2026-04-29T17:53:22Z</time></trkpt><trkpt lat="43.75758201363627" lon="10.754146956742662"><ele>84.0</ele><time>2026-04-29T17:53:23Z</time></trkpt><trkpt lat="43.75767326540095" lon="10.754128386153253"><ele>84.0</ele><time>2026-04-29T17:53:24Z</time></trkpt><trkpt lat="43.757762037717654" lon="10.75409877643458"><ele>84.0</ele><time>2026-04-29T17:53:25Z</time></trkpt><trkpt lat="43.75781213994588" lon="10.754007150576722"><ele>84.0</ele><time>2026-04-29T17:53:26Z</time></trkpt><trkpt lat="43.75782384037071" lon="10.75387783924553"><ele>84.0</ele><time>2026-04-29T17:53:27Z</time></trkpt><trkpt lat="43.757856104729534" lon="10.75371816972101"><ele>84.0</ele><time>2026-04-29T17:53:28Z</time></trkpt><trkpt lat="43.75794723921439" lon="10.753529661424347"><ele>84.0</ele><time>2026-04-29T17:53:29Z</time></trkpt><trkpt lat="43.75806399943675" lon="10.753325011312686"><ele>84.0</ele><time>2026-04-29T17:53:30Z</time></trkpt><trkpt lat="43.75821017883908" lon="10.753120314674588"><ele>84.0</ele><time>2026-04-29T17:53:31Z</time></trkpt><trkpt lat="43.758380147464905" lon="10.752907150666395"><ele>84.0</ele><time>2026-04-29T17:53:32Z</time></trkpt><trkpt lat="43.75855975026824" lon="10.75268209843354"><ele>83.0</ele><time>2026-04-29T17:53:33Z</time></trkpt><trkpt lat="43.758744121801534" lon="10.752442856721755"><ele>82.0</ele><time>2026-04-29T17:53:34Z</time></trkpt><trkpt lat="43.75891460733237" lon="10.752211692624298"><ele>82.0</ele><time>2026-04-29T17:53:35Z</time></trkpt><trkpt lat="43.75906486518597" lon="10.751981364136658"><ele>82.0</ele><time>2026-04-29T17:53:36Z</time></trkpt><trkpt lat="43.75918802761769" lon="10.751722612866029"><ele>82.0</ele><time>2026-04-29T17:53:37Z</time></trkpt><trkpt lat="43.7592873731405" lon="10.751432652698409"><ele>79.5</ele><time>2026-04-29T17:53:38Z</time></trkpt><trkpt lat="43.75937601413346" lon="10.751120549659381"><ele>77.0</ele><time>2026-04-29T17:53:39Z</time></trkpt><trkpt lat="43.759467311070225" lon="10.750791948489379"><ele>76.0</ele><time>2026-04-29T17:53:40Z</time></trkpt><trkpt lat="43.759571754909715" lon="10.75045798382083"><ele>75.0</ele><time>2026-04-29T17:53:41Z</time></trkpt><trkpt lat="43.75969263583498" lon="10.750129553585461"><ele>73.5</ele><time>2026-04-29T17:53:42Z</time></trkpt><trkpt lat="43.75983197161905" lon="10.749810323721793"><ele>72.0</ele><time>2026-04-29T17:53:43Z</time></trkpt><trkpt lat="43.75998717531298" lon="10.74952388006081"><ele>72.0</ele><time>2026-04-29T17:53:44Z</time></trkpt><trkpt lat="43.76013200463918" lon="10.749278562185172"><ele>72.0</ele><time>2026-04-29T17:53:45Z</time></trkpt><trkpt lat="43.760255789797135" lon="10.749042981287232"><ele>72.0</ele><time>2026-04-29T17:53:46Z</time></trkpt><trkpt lat="43.76036294007382" lon="10.748780393801365"><ele>72.33333333333333</ele><time>2026-04-29T17:53:47Z</time></trkpt><trkpt lat="43.760449175466725" lon="10.748506242400726"><ele>72.66666666666666</ele><time>2026-04-29T17:53:48Z</time></trkpt><trkpt lat="43.76052970649506" lon="10.748238407640441"><ele>73.0</ele><time>2026-04-29T17:53:49Z</time></trkpt><trkpt lat="43.760608457878774" lon="10.747926298509142"><ele>73.0</ele><time>2026-04-29T17:53:50Z</time></trkpt><trkpt lat="43.76072196638986" lon="10.74765765148003"><ele>73.0</ele><time>2026-04-29T17:53:51Z</time></trkpt><trkpt lat="43.760860614842" lon="10.747395836233506"><ele>73.0</ele><time>2026-04-29T17:53:52Z</time></trkpt><trkpt lat="43.761018455347404" lon="10.747144634688988"><ele>73.0</ele><time>2026-04-29T17:53:53Z</time></trkpt><trkpt lat="43.76119297560271" lon="10.74692295757637"><ele>72.0</ele><time>2026-04-29T17:53:54Z</time></trkpt><trkpt lat="43.76137381044767" lon="10.74672714037532"><ele>71.0</ele><time>2026-04-29T17:53:55Z</time></trkpt><trkpt lat="43.76154507413322" lon="10.74656141200663"><ele>70.0</ele><time>2026-04-29T17:53:56Z</time></trkpt><trkpt lat="43.76169766710428" lon="10.74641583259381"><ele>70.0</ele><time>2026-04-29T17:53:57Z</time></trkpt><trkpt lat="43.76183476112045" lon="10.746284188075112"><ele>70.0</ele><time>2026-04-29T17:53:58Z</time></trkpt><trkpt lat="43.76196437149091" lon="10.746173346927613"><ele>70.0</ele><time>2026-04-29T17:53:59Z</time></trkpt><trkpt lat="43.76209683723777" lon="10.746122926018005"><ele>68.75</ele><time>2026-04-29T17:54:00Z</time></trkpt><trkpt lat="43.76221611377882" lon="10.746093377612663"><ele>67.5</ele><time>2026-04-29T17:54:01Z</time></trkpt><trkpt lat="43.76233122973426" lon="10.746090456572723"><ele>66.25</ele><time>2026-04-29T17:54:02Z</time></trkpt><trkpt lat="43.762435145328695" lon="10.746171193325454"><ele>65.0</ele><time>2026-04-29T17:54:03Z</time></trkpt><trkpt lat="43.762520933206396" lon="10.74628530515909"><ele>65.0</ele><time>2026-04-29T17:54:04Z</time></trkpt><trkpt lat="43.762599045742014" lon="10.746387259073257"><ele>65.0</ele><time>2026-04-29T17:54:05Z</time></trkpt><trkpt lat="43.76268434990685" lon="10.746453913144132"><ele>65.0</ele><time>2026-04-29T17:54:06Z</time></trkpt><trkpt lat="43.762782386330116" lon="10.746469100557213"><ele>65.0</ele><time>2026-04-29T17:54:07Z</time></trkpt><trkpt lat="43.76288643817505" lon="10.746421021677747"><ele>65.0</ele><time>2026-04-29T17:54:08Z</time></trkpt><trkpt lat="43.76298552468523" lon="10.746315754197623"><ele>63.333333333333336</ele><time>2026-04-29T17:54:09Z</time></trkpt><trkpt lat="43.76309295249206" lon="10.7461327638071"><ele>61.66666666666667</ele><time>2026-04-29T17:54:10Z</time></trkpt><trkpt lat="43.76323222816381" lon="10.74590170729678"><ele>60.0</ele><time>2026-04-29T17:54:11Z</time></trkpt><trkpt lat="43.763402293289964" lon="10.745663742152669"><ele>57.33333333333333</ele><time>2026-04-29T17:54:12Z</time></trkpt><trkpt lat="43.763542193415496" lon="10.745440166184025"><ele>54.666666666666664</ele><time>2026-04-29T17:54:13Z</time></trkpt><trkpt lat="43.763686928322976" lon="10.745202005902085"><ele>52.0</ele><time>2026-04-29T17:54:14Z</time></trkpt><trkpt lat="43.763740149991946" lon="10.744823971363145"><ele>51.5</ele><time>2026-04-29T17:54:15Z</time></trkpt><trkpt lat="43.76386722302602" lon="10.744471245593557"><ele>51.0</ele><time>2026-04-29T17:54:16Z</time></trkpt><trkpt lat="43.76402578728864" lon="10.74416119528271"><ele>52.0</ele><time>2026-04-29T17:54:17Z</time></trkpt><trkpt lat="43.76420350878453" lon="10.743892341157457"><ele>53.0</ele><time>2026-04-29T17:54:18Z</time></trkpt><trkpt lat="43.76438453438197" lon="10.74366844547084"><ele>51.333333333333336</ele><time>2026-04-29T17:54:19Z</time></trkpt><trkpt lat="43.76455048839703" lon="10.743455680284061"><ele>49.66666666666667</ele><time>2026-04-29T17:54:20Z</time></trkpt><trkpt lat="43.76468210906821" lon="10.743260129339834"><ele>48.0</ele><time>2026-04-29T17:54:21Z</time></trkpt><trkpt lat="43.764780995205854" lon="10.74307025406846"><ele>48.0</ele><time>2026-04-29T17:54:22Z</time></trkpt><trkpt lat="43.764839353250736" lon="10.742857337999231"><ele>48.0</ele><time>2026-04-29T17:54:23Z</time></trkpt><trkpt lat="43.76486116525102" lon="10.74257255507486"><ele>48.0</ele><time>2026-04-29T17:54:24Z</time></trkpt><trkpt lat="43.764860772374796" lon="10.742227600054242"><ele>47.5</ele><time>2026-04-29T17:54:25Z</time></trkpt><trkpt lat="43.76484973216071" lon="10.741832448780537"><ele>47.0</ele><time>2026-04-29T17:54:26Z</time></trkpt><trkpt lat="43.76484105417638" lon="10.741397048112436"><ele>47.0</ele><time>2026-04-29T17:54:27Z</time></trkpt><trkpt lat="43.76483261347829" lon="10.740928246408235"><ele>47.0</ele><time>2026-04-29T17:54:28Z</time></trkpt><trkpt lat="43.76482427483309" lon="10.740462539943277"><ele>47.5</ele><time>2026-04-29T17:54:29Z</time></trkpt><trkpt lat="43.76482070324121" lon="10.740051852954423"><ele>48.0</ele><time>2026-04-29T17:54:30Z</time></trkpt><trkpt lat="43.76483737534259" lon="10.739693071041406"><ele>48.0</ele><time>2026-04-29T17:54:31Z</time></trkpt><trkpt lat="43.76488693745599" lon="10.739335837921388"><ele>48.0</ele><time>2026-04-29T17:54:32Z</time></trkpt><trkpt lat="43.7649559304486" lon="10.738957310444189"><ele>46.5</ele><time>2026-04-29T17:54:33Z</time></trkpt><trkpt lat="43.765022084437454" lon="10.738550945429052"><ele>45.0</ele><time>2026-04-29T17:54:34Z</time></trkpt><trkpt lat="43.765084707499305" lon="10.73809702235301"><ele>44.0</ele><time>2026-04-29T17:54:35Z</time></trkpt><trkpt lat="43.76515285016503" lon="10.737612841823939"><ele>43.0</ele><time>2026-04-29T17:54:36Z</time></trkpt><trkpt lat="43.76523486103356" lon="10.737108525968473"><ele>49.0</ele><time>2026-04-29T17:54:37Z</time></trkpt><trkpt lat="43.76532714230447" lon="10.736584894369614"><ele>55.0</ele><time>2026-04-29T17:54:38Z</time></trkpt><trkpt lat="43.76541043693322" lon="10.736114647150643"><ele>54.0</ele><time>2026-04-29T17:54:39Z</time></trkpt><trkpt lat="43.76548330938679" lon="10.735741705368795"><ele>53.0</ele><time>2026-04-29T17:54:40Z</time></trkpt><trkpt lat="43.76553216154198" lon="10.735428570001488"><ele>53.66666666666667</ele><time>2026-04-29T17:54:41Z</time></trkpt><trkpt lat="43.76556219376659" lon="10.735139460722193"><ele>54.33333333333333</ele><time>2026-04-29T17:54:42Z</time></trkpt><trkpt lat="43.76556139998957" lon="10.734861924444669"><ele>55.0</ele><time>2026-04-29T17:54:43Z</time></trkpt><trkpt lat="43.76552320122882" lon="10.734596834458722"><ele>54.666666666666664</ele><time>2026-04-29T17:54:44Z</time></trkpt><trkpt lat="43.765465263744474" lon="10.73435045446612"><ele>54.33333333333333</ele><time>2026-04-29T17:54:45Z</time></trkpt><trkpt lat="43.76545049052334" lon="10.734097956513802"><ele>54.0</ele><time>2026-04-29T17:54:46Z</time></trkpt><trkpt lat="43.76547606809405" lon="10.73383005325227"><ele>54.0</ele><time>2026-04-29T17:54:47Z</time></trkpt><trkpt lat="43.76553468784342" lon="10.733576820166526"><ele>54.0</ele><time>2026-04-29T17:54:48Z</time></trkpt><trkpt lat="43.76562167524979" lon="10.733347707865663"><ele>54.0</ele><time>2026-04-29T17:54:49Z</time></trkpt><trkpt lat="43.76573530773899" lon="10.733146774984839"><ele>53.5</ele><time>2026-04-29T17:54:50Z</time></trkpt><trkpt lat="43.765870206444156" lon="10.732919075658348"><ele>53.0</ele><time>2026-04-29T17:54:51Z</time></trkpt><trkpt lat="43.7660204525445" lon="10.732646714870894"><ele>53.0</ele><time>2026-04-29T17:54:52Z</time></trkpt><trkpt lat="43.766193803298414" lon="10.732345059679375"><ele>53.0</ele><time>2026-04-29T17:54:53Z</time></trkpt><trkpt lat="43.76637497795683" lon="10.732007619263289"><ele>52.0</ele><time>2026-04-29T17:54:54Z</time></trkpt><trkpt lat="43.766555818838384" lon="10.731658577374533"><ele>51.0</ele><time>2026-04-29T17:54:55Z</time></trkpt><trkpt lat="43.76672371840664" lon="10.731337578656024"><ele>50.0</ele><time>2026-04-29T17:54:56Z</time></trkpt><trkpt lat="43.766874253888105" lon="10.731036820615634"><ele>49.0</ele><time>2026-04-29T17:54:57Z</time></trkpt><trkpt lat="43.767005423135856" lon="10.730747656241995"><ele>49.0</ele><time>2026-04-29T17:54:58Z</time></trkpt><trkpt lat="43.767118022906324" lon="10.730440746021433"><ele>49.0</ele><time>2026-04-29T17:54:59Z</time></trkpt><trkpt lat="43.76721605604533" lon="10.730098600738646"><ele>48.5</ele><time>2026-04-29T17:55:00Z</time></trkpt><trkpt lat="43.767304581049906" lon="10.729737134285948"><ele>48.0</ele><time>2026-04-29T17:55:01Z</time></trkpt><trkpt lat="43.76739651339611" lon="10.729380529707496"><ele>48.0</ele><time>2026-04-29T17:55:02Z</time></trkpt><trkpt lat="43.76749373989767" lon="10.729042315105064"><ele>48.0</ele><time>2026-04-29T17:55:03Z</time></trkpt><trkpt lat="43.76760296355187" lon="10.728719111619828"><ele>45.0</ele><time>2026-04-29T17:55:04Z</time></trkpt><trkpt lat="43.76772561347649" lon="10.728409715439854"><ele>42.0</ele><time>2026-04-29T17:55:05Z</time></trkpt><trkpt lat="43.76783243140133" lon="10.72807787404447"><ele>40.0</ele><time>2026-04-29T17:55:06Z</time></trkpt><trkpt lat="43.76793465409951" lon="10.727697461938304"><ele>38.0</ele><time>2026-04-29T17:55:07Z</time></trkpt><trkpt lat="43.76804434648429" lon="10.727290215927518"><ele>38.0</ele><time>2026-04-29T17:55:08Z</time></trkpt><trkpt lat="43.76816136746063" lon="10.72692019100743"><ele>38.0</ele><time>2026-04-29T17:55:09Z</time></trkpt><trkpt lat="43.76828612377131" lon="10.726574574026717"><ele>38.0</ele><time>2026-04-29T17:55:10Z</time></trkpt><trkpt lat="43.7684099074714" lon="10.72628511715727"><ele>38.0</ele><time>2026-04-29T17:55:11Z</time></trkpt><trkpt lat="43.76854028873924" lon="10.726037844004725"><ele>38.0</ele><time>2026-04-29T17:55:12Z</time></trkpt><trkpt lat="43.76867615025967" lon="10.725835689507194"><ele>38.0</ele><time>2026-04-29T17:55:13Z</time></trkpt><trkpt lat="43.768829015799554" lon="10.725693668062043"><ele>38.0</ele><time>2026-04-29T17:55:14Z</time></trkpt><trkpt lat="43.769003627314206" lon="10.725595749472781"><ele>38.0</ele><time>2026-04-29T17:55:15Z</time></trkpt><trkpt lat="43.769206401470186" lon="10.725547517313789"><ele>38.0</ele><time>2026-04-29T17:55:16Z</time></trkpt><trkpt lat="43.76943415642383" lon="10.725522064633108"><ele>38.0</ele><time>2026-04-29T17:55:17Z</time></trkpt><trkpt lat="43.76967676078861" lon="10.725507519033046"><ele>40.5</ele><time>2026-04-29T17:55:18Z</time></trkpt><trkpt lat="43.76992681124026" lon="10.725496897271167"><ele>43.0</ele><time>2026-04-29T17:55:19Z</time></trkpt><trkpt lat="43.77018336028911" lon="10.725500678507451"><ele>42.0</ele><time>2026-04-29T17:55:20Z</time></trkpt><trkpt lat="43.77046444127293" lon="10.725450447029164"><ele>41.0</ele><time>2026-04-29T17:55:21Z</time></trkpt><trkpt lat="43.77076130407601" lon="10.725438933921243"><ele>42.0</ele><time>2026-04-29T17:55:22Z</time></trkpt><trkpt lat="43.77106808923565" lon="10.725431519028644"><ele>43.0</ele><time>2026-04-29T17:55:23Z</time></trkpt><trkpt lat="43.771386288916226" lon="10.725421465114536"><ele>43.0</ele><time>2026-04-29T17:55:24Z</time></trkpt><trkpt lat="43.77171552212694" lon="10.725409561339557"><ele>43.0</ele><time>2026-04-29T17:55:25Z</time></trkpt><trkpt lat="43.77204963334812" lon="10.725396046035014"><ele>43.0</ele><time>2026-04-29T17:55:26Z</time></trkpt><trkpt lat="43.77239620653694" lon="10.725377123895125"><ele>43.0</ele><time>2026-04-29T17:55:27Z</time></trkpt><trkpt lat="43.77275219513632" lon="10.725357310198515"><ele>42.5</ele><time>2026-04-29T17:55:28Z</time></trkpt><trkpt lat="43.773111491891086" lon="10.725337814408432"><ele>42.0</ele><time>2026-04-29T17:55:29Z</time></trkpt><trkpt lat="43.7734637609249" lon="10.725321715447173"><ele>42.0</ele><time>2026-04-29T17:55:30Z</time></trkpt><trkpt lat="43.77377640969909" lon="10.725310891536957"><ele>42.0</ele><time>2026-04-29T17:55:31Z</time></trkpt><trkpt lat="43.77405622534787" lon="10.725291524441946"><ele>42.0</ele><time>2026-04-29T17:55:32Z</time></trkpt><trkpt lat="43.77432024195913" lon="10.725246362759025"><ele>42.0</ele><time>2026-04-29T17:55:33Z</time></trkpt><trkpt lat="43.774572008529546" lon="10.7251684783564"><ele>42.0</ele><time>2026-04-29T17:55:34Z</time></trkpt><trkpt lat="43.77480672443117" lon="10.725069844602755"><ele>42.0</ele><time>2026-04-29T17:55:35Z</time></trkpt><trkpt lat="43.77500105923991" lon="10.724965781561089"><ele>42.0</ele><time>2026-04-29T17:55:36Z</time></trkpt><trkpt lat="43.77518238529707" lon="10.724855133937654"><ele>42.0</ele><time>2026-04-29T17:55:37Z</time></trkpt><trkpt lat="43.775368059395454" lon="10.724714977741352"><ele>42.0</ele><time>2026-04-29T17:55:38Z</time></trkpt><trkpt lat="43.77555744530287" lon="10.72454313851599"><ele>40.0</ele><time>2026-04-29T17:55:39Z</time></trkpt><trkpt lat="43.77575487885811" lon="10.724325741451585"><ele>38.0</ele><time>2026-04-29T17:55:40Z</time></trkpt><trkpt lat="43.775960543961155" lon="10.724059361089079"><ele>37.5</ele><time>2026-04-29T17:55:41Z</time></trkpt><trkpt lat="43.7761646645198" lon="10.723745430560037"><ele>37.0</ele><time>2026-04-29T17:55:42Z</time></trkpt><trkpt lat="43.776373899978076" lon="10.72339007858186"><ele>37.0</ele><time>2026-04-29T17:55:43Z</time></trkpt><trkpt lat="43.77659374424505" lon="10.723004735993467"><ele>37.0</ele><time>2026-04-29T17:55:44Z</time></trkpt><trkpt lat="43.776845800502684" lon="10.722626024485386"><ele>33.5</ele><time>2026-04-29T17:55:45Z</time></trkpt><trkpt lat="43.77707656698334" lon="10.722229233388392"><ele>30.0</ele><time>2026-04-29T17:55:46Z</time></trkpt><trkpt lat="43.77730891838588" lon="10.721888370636998"><ele>30.0</ele><time>2026-04-29T17:55:47Z</time></trkpt><trkpt lat="43.777518653698614" lon="10.721562888791263"><ele>30.0</ele><time>2026-04-29T17:55:48Z</time></trkpt><trkpt lat="43.77770860004361" lon="10.721236436880357"><ele>30.0</ele><time>2026-04-29T17:55:49Z</time></trkpt><trkpt lat="43.77790121553102" lon="10.72086936115483"><ele>30.0</ele><time>2026-04-29T17:55:50Z</time></trkpt><trkpt lat="43.778104065655256" lon="10.720464394145804"><ele>29.0</ele><time>2026-04-29T17:55:51Z</time></trkpt><trkpt lat="43.778310942309595" lon="10.720046594618118"><ele>28.0</ele><time>2026-04-29T17:55:52Z</time></trkpt><trkpt lat="43.778518448749864" lon="10.719634241763343"><ele>27.0</ele><time>2026-04-29T17:55:53Z</time></trkpt><trkpt lat="43.778705373813075" lon="10.719256975625958"><ele>26.0</ele><time>2026-04-29T17:55:54Z</time></trkpt><trkpt lat="43.778875602958706" lon="10.718908020511341"><ele>26.0</ele><time>2026-04-29T17:55:55Z</time></trkpt><trkpt lat="43.77902907997154" lon="10.718592634340675"><ele>26.0</ele><time>2026-04-29T17:55:56Z</time></trkpt><trkpt lat="43.7791726335976" lon="10.718298504501252"><ele>26.0</ele><time>2026-04-29T17:55:57Z</time></trkpt><trkpt lat="43.779307440739146" lon="10.71802978928506"><ele>26.0</ele><time>2026-04-29T17:55:58Z</time></trkpt><trkpt lat="43.77943372289611" lon="10.717798050135464"><ele>26.0</ele><time>2026-04-29T17:55:59Z</time></trkpt><trkpt lat="43.779562767299076" lon="10.717576426902166"><ele>23.666666666666664</ele><time>2026-04-29T17:56:00Z</time></trkpt><trkpt lat="43.779707790676945" lon="10.717371607785033"><ele>21.333333333333332</ele><time>2026-04-29T17:56:01Z</time></trkpt><trkpt lat="43.77986602196361" lon="10.71719471920698"><ele>19.0</ele><time>2026-04-29T17:56:02Z</time></trkpt><trkpt lat="43.78004539015866" lon="10.717026853214872"><ele>18.0</ele><time>2026-04-29T17:56:03Z</time></trkpt><trkpt lat="43.78024097480805" lon="10.716871466379587"><ele>17.0</ele><time>2026-04-29T17:56:04Z</time></trkpt><trkpt lat="43.780456656994744" lon="10.716782407352627"><ele>17.0</ele><time>2026-04-29T17:56:05Z</time></trkpt><trkpt lat="43.78068363754008" lon="10.71670413005929"><ele>17.0</ele><time>2026-04-29T17:56:06Z</time></trkpt><trkpt lat="43.78093574966592" lon="10.716621236401634"><ele>16.333333333333336</ele><time>2026-04-29T17:56:07Z</time></trkpt><trkpt lat="43.78116590161915" lon="10.716526900144709"><ele>15.666666666666668</ele><time>2026-04-29T17:56:08Z</time></trkpt><trkpt lat="43.78136591672674" lon="10.716461422091857"><ele>15.0</ele><time>2026-04-29T17:56:09Z</time></trkpt><trkpt lat="43.781583491047755" lon="10.716390791854636"><ele>15.0</ele><time>2026-04-29T17:56:10Z</time></trkpt><trkpt lat="43.78182263403453" lon="10.716321898566001"><ele>15.0</ele><time>2026-04-29T17:56:11Z</time></trkpt><trkpt lat="43.78206711058462" lon="10.716245271253886"><ele>15.0</ele><time>2026-04-29T17:56:12Z</time></trkpt><trkpt lat="43.78231712140399" lon="10.716161864663823"><ele>15.0</ele><time>2026-04-29T17:56:13Z</time></trkpt><trkpt lat="43.78256697729079" lon="10.71607513105144"><ele>17.5</ele><time>2026-04-29T17:56:14Z</time></trkpt><trkpt lat="43.78281090639625" lon="10.715983842275165"><ele>20.0</ele><time>2026-04-29T17:56:15Z</time></trkpt><trkpt lat="43.783037161075" lon="10.715873572620223"><ele>20.0</ele><time>2026-04-29T17:56:16Z</time></trkpt><trkpt lat="43.783252112941234" lon="10.715721625847042"><ele>20.0</ele><time>2026-04-29T17:56:17Z</time></trkpt><trkpt lat="43.78344260169493" lon="10.715540016929026"><ele>21.0</ele><time>2026-04-29T17:56:18Z</time></trkpt><trkpt lat="43.78360420884567" lon="10.715344704415848"><ele>22.0</ele><time>2026-04-29T17:56:19Z</time></trkpt><trkpt lat="43.7837415314694" lon="10.715131430485473"><ele>23.0</ele><time>2026-04-29T17:56:20Z</time></trkpt><trkpt lat="43.783860656739165" lon="10.714887090988855"><ele>23.0</ele><time>2026-04-29T17:56:21Z</time></trkpt><trkpt lat="43.78395848665764" lon="10.714608754360082"><ele>23.0</ele><time>2026-04-29T17:56:22Z</time></trkpt><trkpt lat="43.78405908813916" lon="10.714307046597096"><ele>26.0</ele><time>2026-04-29T17:56:23Z</time></trkpt><trkpt lat="43.78415769536284" lon="10.713991479247875"><ele>29.0</ele><time>2026-04-29T17:56:24Z</time></trkpt><trkpt lat="43.784258806682985" lon="10.713672313380977"><ele>32.0</ele><time>2026-04-29T17:56:25Z</time></trkpt><trkpt lat="43.784371582214824" lon="10.713353683599744"><ele>35.0</ele><time>2026-04-29T17:56:26Z</time></trkpt><trkpt lat="43.784502862347" lon="10.713056215598847"><ele>35.0</ele><time>2026-04-29T17:56:27Z</time></trkpt><trkpt lat="43.784670929614535" lon="10.712802259854163"><ele>35.0</ele><time>2026-04-29T17:56:28Z</time></trkpt><trkpt lat="43.78487431198824" lon="10.712605437162553"><ele>35.0</ele><time>2026-04-29T17:56:29Z</time></trkpt><trkpt lat="43.785097425096" lon="10.71244528874124"><ele>35.0</ele><time>2026-04-29T17:56:30Z</time></trkpt><trkpt lat="43.78533280011991" lon="10.712252941834484"><ele>35.0</ele><time>2026-04-29T17:56:31Z</time></trkpt><trkpt lat="43.78558352694209" lon="10.712021537023318"><ele>35.0</ele><time>2026-04-29T17:56:32Z</time></trkpt><trkpt lat="43.785849431963996" lon="10.711768755484048"><ele>35.0</ele><time>2026-04-29T17:56:33Z</time></trkpt><trkpt lat="43.78613057727252" lon="10.711507764430873"><ele>35.0</ele><time>2026-04-29T17:56:34Z</time></trkpt><trkpt lat="43.786419288207185" lon="10.71123473944963"><ele>34.0</ele><time>2026-04-29T17:56:35Z</time></trkpt><trkpt lat="43.7867132095727" lon="10.710944344167046"><ele>33.0</ele><time>2026-04-29T17:56:36Z</time></trkpt><trkpt lat="43.78701067286287" lon="10.710638433509923"><ele>34.0</ele><time>2026-04-29T17:56:37Z</time></trkpt><trkpt lat="43.78730290959492" lon="10.710323517031034"><ele>35.0</ele><time>2026-04-29T17:56:38Z</time></trkpt><trkpt lat="43.78757702078675" lon="10.71002934116023"><ele>35.5</ele><time>2026-04-29T17:56:39Z</time></trkpt><trkpt lat="43.78783681652805" lon="10.70974572688569"><ele>36.0</ele><time>2026-04-29T17:56:40Z</time></trkpt><trkpt lat="43.78809679285082" lon="10.709465823733105"><ele>35.0</ele><time>2026-04-29T17:56:41Z</time></trkpt><trkpt lat="43.788350778606926" lon="10.70916933147591"><ele>34.0</ele><time>2026-04-29T17:56:42Z</time></trkpt><trkpt lat="43.78860607080126" lon="10.708854031038443"><ele>33.5</ele><time>2026-04-29T17:56:43Z</time></trkpt><trkpt lat="43.78886034443971" lon="10.708522034191741"><ele>33.0</ele><time>2026-04-29T17:56:44Z</time></trkpt><trkpt lat="43.789111209218866" lon="10.708192089720727"><ele>33.0</ele><time>2026-04-29T17:56:45Z</time></trkpt><trkpt lat="43.789352745228676" lon="10.707893763494393"><ele>33.0</ele><time>2026-04-29T17:56:46Z</time></trkpt><trkpt lat="43.78957500568193" lon="10.707628857524867"><ele>33.0</ele><time>2026-04-29T17:56:47Z</time></trkpt><trkpt lat="43.78978886309418" lon="10.707393235078648"><ele>33.0</ele><time>2026-04-29T17:56:48Z</time></trkpt><trkpt lat="43.78999033322916" lon="10.707190573210644"><ele>33.0</ele><time>2026-04-29T17:56:49Z</time></trkpt><trkpt lat="43.79017446004067" lon="10.707009234754569"><ele>33.0</ele><time>2026-04-29T17:56:50Z</time></trkpt><trkpt lat="43.79033924361411" lon="10.706831649673171"><ele>33.0</ele><time>2026-04-29T17:56:51Z</time></trkpt><trkpt lat="43.79048667286012" lon="10.70664091523617"><ele>33.0</ele><time>2026-04-29T17:56:52Z</time></trkpt><trkpt lat="43.79062997113675" lon="10.706432858103478"><ele>33.0</ele><time>2026-04-29T17:56:53Z</time></trkpt><trkpt lat="43.79077988839135" lon="10.706212006647734"><ele>33.0</ele><time>2026-04-29T17:56:54Z</time></trkpt><trkpt lat="43.79094103507797" lon="10.705980840829806"><ele>32.5</ele><time>2026-04-29T17:56:55Z</time></trkpt><trkpt lat="43.79111746341984" lon="10.705715067198064"><ele>32.0</ele><time>2026-04-29T17:56:56Z</time></trkpt><trkpt lat="43.79130862174044" lon="10.705430755336412"><ele>33.0</ele><time>2026-04-29T17:56:57Z</time></trkpt><trkpt lat="43.791515386927536" lon="10.705135137663603"><ele>34.0</ele><time>2026-04-29T17:56:58Z</time></trkpt><trkpt lat="43.79173612802564" lon="10.704838510509969"><ele>33.5</ele><time>2026-04-29T17:56:59Z</time></trkpt><trkpt lat="43.79197490642201" lon="10.704558072419582"><ele>33.0</ele><time>2026-04-29T17:57:00Z</time></trkpt><trkpt lat="43.7922242681834" lon="10.704296527037632"><ele>33.0</ele><time>2026-04-29T17:57:01Z</time></trkpt><trkpt lat="43.792465492464046" lon="10.704059391798562"><ele>33.0</ele><time>2026-04-29T17:57:02Z</time></trkpt><trkpt lat="43.79268145150966" lon="10.703856201202965"><ele>33.0</ele><time>2026-04-29T17:57:03Z</time></trkpt><trkpt lat="43.79289953279328" lon="10.70365047299581"><ele>33.0</ele><time>2026-04-29T17:57:04Z</time></trkpt><trkpt lat="43.793134073754324" lon="10.70340278501082"><ele>32.5</ele><time>2026-04-29T17:57:05Z</time></trkpt><trkpt lat="43.79337485170342" lon="10.703124802553559"><ele>32.0</ele><time>2026-04-29T17:57:06Z</time></trkpt><trkpt lat="43.79362614304384" lon="10.70283451191412"><ele>31.5</ele><time>2026-04-29T17:57:07Z</time></trkpt><trkpt lat="43.79388166627992" lon="10.702531287203355"><ele>31.0</ele><time>2026-04-29T17:57:08Z</time></trkpt><trkpt lat="43.79414647652507" lon="10.702217184404695"><ele>30.5</ele><time>2026-04-29T17:57:09Z</time></trkpt><trkpt lat="43.794421471903725" lon="10.701899477754678"><ele>30.0</ele><time>2026-04-29T17:57:10Z</time></trkpt><trkpt lat="43.794700567825004" lon="10.701578151707217"><ele>30.0</ele><time>2026-04-29T17:57:11Z</time></trkpt><trkpt lat="43.79498013048262" lon="10.701257280680094"><ele>30.0</ele><time>2026-04-29T17:57:12Z</time></trkpt><trkpt lat="43.79525940934289" lon="10.700937807033787"><ele>30.5</ele><time>2026-04-29T17:57:13Z</time></trkpt><trkpt lat="43.795535522769" lon="10.700621317515427"><ele>31.0</ele><time>2026-04-29T17:57:14Z</time></trkpt><trkpt lat="43.79579571758628" lon="10.70031413679541"><ele>30.5</ele><time>2026-04-29T17:57:15Z</time></trkpt><trkpt lat="43.7960378059926" lon="10.700029238723971"><ele>30.0</ele><time>2026-04-29T17:57:16Z</time></trkpt><trkpt lat="43.796249450912214" lon="10.699771701243693"><ele>30.0</ele><time>2026-04-29T17:57:17Z</time></trkpt><trkpt lat="43.79645718547609" lon="10.69951058037112"><ele>30.0</ele><time>2026-04-29T17:57:18Z</time></trkpt><trkpt lat="43.79666939951323" lon="10.699219202400151"><ele>29.5</ele><time>2026-04-29T17:57:19Z</time></trkpt><trkpt lat="43.79688277968302" lon="10.698901357730637"><ele>29.0</ele><time>2026-04-29T17:57:20Z</time></trkpt><trkpt lat="43.79708901941944" lon="10.698573444436507"><ele>29.0</ele><time>2026-04-29T17:57:21Z</time></trkpt><trkpt lat="43.7972909339755" lon="10.698223871150491"><ele>29.0</ele><time>2026-04-29T17:57:22Z</time></trkpt><trkpt lat="43.79749396699998" lon="10.697848690175165"><ele>28.5</ele><time>2026-04-29T17:57:23Z</time></trkpt><trkpt lat="43.7976974693902" lon="10.697460777204908"><ele>28.0</ele><time>2026-04-29T17:57:24Z</time></trkpt><trkpt lat="43.79790544181762" lon="10.697062881476663"><ele>29.0</ele><time>2026-04-29T17:57:25Z</time></trkpt><trkpt lat="43.79811544069299" lon="10.696660417424317"><ele>30.0</ele><time>2026-04-29T17:57:26Z</time></trkpt><trkpt lat="43.798327094371494" lon="10.696259128250503"><ele>29.0</ele><time>2026-04-29T17:57:27Z</time></trkpt><trkpt lat="43.7985432941853" lon="10.695853213615719"><ele>28.0</ele><time>2026-04-29T17:57:28Z</time></trkpt><trkpt lat="43.7987548187513" lon="10.695454462643992"><ele>27.5</ele><time>2026-04-29T17:57:29Z</time></trkpt><trkpt lat="43.79895580949612" lon="10.695068466531646"><ele>27.0</ele><time>2026-04-29T17:57:30Z</time></trkpt><trkpt lat="43.79915009067522" lon="10.694693505906336"><ele>26.0</ele><time>2026-04-29T17:57:31Z</time></trkpt><trkpt lat="43.79933569662674" lon="10.69435526190942"><ele>25.0</ele><time>2026-04-29T17:57:32Z</time></trkpt><trkpt lat="43.799546155543304" lon="10.6940609812274"><ele>25.0</ele><time>2026-04-29T17:57:33Z</time></trkpt><trkpt lat="43.79976042032587" lon="10.693761798408659"><ele>25.0</ele><time>2026-04-29T17:57:34Z</time></trkpt><trkpt lat="43.79997847424267" lon="10.693460776576208"><ele>26.0</ele><time>2026-04-29T17:57:35Z</time></trkpt><trkpt lat="43.80023275675084" lon="10.693193950854788"><ele>27.0</ele><time>2026-04-29T17:57:36Z</time></trkpt><trkpt lat="43.80049471003824" lon="10.692929884088823"><ele>27.0</ele><time>2026-04-29T17:57:37Z</time></trkpt><trkpt lat="43.80076562622233" lon="10.69266687321238"><ele>27.0</ele><time>2026-04-29T17:57:38Z</time></trkpt><trkpt lat="43.80102671333651" lon="10.692413818970037"><ele>28.0</ele><time>2026-04-29T17:57:39Z</time></trkpt><trkpt lat="43.80126796700636" lon="10.692182195040507"><ele>29.0</ele><time>2026-04-29T17:57:40Z</time></trkpt><trkpt lat="43.80150543775132" lon="10.691970933875153"><ele>27.0</ele><time>2026-04-29T17:57:41Z</time></trkpt><trkpt lat="43.80174549720979" lon="10.69176187456884"><ele>25.0</ele><time>2026-04-29T17:57:42Z</time></trkpt><trkpt lat="43.80199382401509" lon="10.691522483611465"><ele>25.0</ele><time>2026-04-29T17:57:43Z</time></trkpt><trkpt lat="43.80225798568731" lon="10.691259561281477"><ele>25.0</ele><time>2026-04-29T17:57:44Z</time></trkpt><trkpt lat="43.8025429824346" lon="10.690985638732066"><ele>25.0</ele><time>2026-04-29T17:57:45Z</time></trkpt><trkpt lat="43.80283461578723" lon="10.69071240555248"><ele>25.0</ele><time>2026-04-29T17:57:46Z</time></trkpt><trkpt lat="43.8031142424894" lon="10.690451641312105"><ele>24.5</ele><time>2026-04-29T17:57:47Z</time></trkpt><trkpt lat="43.803375464035895" lon="10.690205913623464"><ele>24.0</ele><time>2026-04-29T17:57:48Z</time></trkpt><trkpt lat="43.80362675119675" lon="10.689968294129535"><ele>24.0</ele><time>2026-04-29T17:57:49Z</time></trkpt><trkpt lat="43.80386748134157" lon="10.689738635165707"><ele>24.0</ele><time>2026-04-29T17:57:50Z</time></trkpt><trkpt lat="43.80408894643694" lon="10.689527398007902"><ele>23.5</ele><time>2026-04-29T17:57:51Z</time></trkpt><trkpt lat="43.80429079956424" lon="10.689335772568331"><ele>23.0</ele><time>2026-04-29T17:57:52Z</time></trkpt><trkpt lat="43.80447094087947" lon="10.689163318732424"><ele>22.666666666666668</ele><time>2026-04-29T17:57:53Z</time></trkpt><trkpt lat="43.804635055068246" lon="10.689005488442154"><ele>22.333333333333332</ele><time>2026-04-29T17:57:54Z</time></trkpt><trkpt lat="43.80478349047171" lon="10.688867629883797"><ele>22.0</ele><time>2026-04-29T17:57:55Z</time></trkpt><trkpt lat="43.804921061051154" lon="10.688741731676426"><ele>22.0</ele><time>2026-04-29T17:57:56Z</time></trkpt><trkpt lat="43.80503345789123" lon="10.688645419961242"><ele>22.0</ele><time>2026-04-29T17:57:57Z</time></trkpt><trkpt lat="43.8051237172283" lon="10.688576282899442"><ele>22.0</ele><time>2026-04-29T17:57:58Z</time></trkpt><trkpt lat="43.80519885807645" lon="10.688541963031138"><ele>22.0</ele><time>2026-04-29T17:57:59Z</time></trkpt><trkpt lat="43.80527852282963" lon="10.688540322335248"><ele>22.0</ele><time>2026-04-29T17:58:00Z</time></trkpt><trkpt lat="43.80535688667369" lon="10.688556395230004"><ele>22.0</ele><time>2026-04-29T17:58:01Z</time></trkpt><trkpt lat="43.80543380179575" lon="10.688566992189555"><ele>22.0</ele><time>2026-04-29T17:58:02Z</time></trkpt><trkpt lat="43.8055162548664" lon="10.688561302822254"><ele>22.0</ele><time>2026-04-29T17:58:03Z</time></trkpt><trkpt lat="43.80560885329506" lon="10.688553689435459"><ele>22.0</ele><time>2026-04-29T17:58:04Z</time></trkpt><trkpt lat="43.80570518930316" lon="10.68856857716154"><ele>22.0</ele><time>2026-04-29T17:58:05Z</time></trkpt><trkpt lat="43.805814385196186" lon="10.68856826019759"><ele>21.666666666666664</ele><time>2026-04-29T17:58:06Z</time></trkpt><trkpt lat="43.80593793653525" lon="10.688709047777994"><ele>21.333333333333332</ele><time>2026-04-29T17:58:07Z</time></trkpt><trkpt lat="43.80609564337664" lon="10.688836763832848"><ele>21.0</ele><time>2026-04-29T17:58:08Z</time></trkpt><trkpt lat="43.80627164977165" lon="10.688990130957746"><ele>21.0</ele><time>2026-04-29T17:58:09Z</time></trkpt><trkpt lat="43.80647073050169" lon="10.689160838537134"><ele>21.0</ele><time>2026-04-29T17:58:10Z</time></trkpt><trkpt lat="43.80669775559527" lon="10.689351567317157"><ele>21.0</ele><time>2026-04-29T17:58:11Z</time></trkpt><trkpt lat="43.80694053872527" lon="10.68955910056113"><ele>21.0</ele><time>2026-04-29T17:58:12Z</time></trkpt><trkpt lat="43.807195960685135" lon="10.689789532878969"><ele>21.0</ele><time>2026-04-29T17:58:13Z</time></trkpt><trkpt lat="43.807466543314106" lon="10.69003194035681"><ele>21.0</ele><time>2026-04-29T17:58:14Z</time></trkpt><trkpt lat="43.80774774839973" lon="10.690271986600788"><ele>21.0</ele><time>2026-04-29T17:58:15Z</time></trkpt><trkpt lat="43.80801779983577" lon="10.69051078586362"><ele>21.0</ele><time>2026-04-29T17:58:16Z</time></trkpt><trkpt lat="43.80831112489037" lon="10.690751298949852"><ele>21.5</ele><time>2026-04-29T17:58:17Z</time></trkpt><trkpt lat="43.80861584359824" lon="10.690992039259271"><ele>22.0</ele><time>2026-04-29T17:58:18Z</time></trkpt><trkpt lat="43.80891928367311" lon="10.691241428721948"><ele>22.5</ele><time>2026-04-29T17:58:19Z</time></trkpt><trkpt lat="43.809224875570756" lon="10.691491194824948"><ele>23.0</ele><time>2026-04-29T17:58:20Z</time></trkpt><trkpt lat="43.809524539761625" lon="10.691740041445579"><ele>23.0</ele><time>2026-04-29T17:58:21Z</time></trkpt><trkpt lat="43.80979766644413" lon="10.691979026277135"><ele>23.0</ele><time>2026-04-29T17:58:22Z</time></trkpt><trkpt lat="43.81004661049983" lon="10.692196244128741"><ele>23.5</ele><time>2026-04-29T17:58:23Z</time></trkpt><trkpt lat="43.81027578839185" lon="10.69238853337385"><ele>24.0</ele><time>2026-04-29T17:58:24Z</time></trkpt><trkpt lat="43.810486332775874" lon="10.692562302034071"><ele>24.0</ele><time>2026-04-29T17:58:25Z</time></trkpt><trkpt lat="43.810676159345206" lon="10.692721029874809"><ele>24.0</ele><time>2026-04-29T17:58:26Z</time></trkpt><trkpt lat="43.81084384323684" lon="10.69286460690216"><ele>24.0</ele><time>2026-04-29T17:58:27Z</time></trkpt><trkpt lat="43.81099681456934" lon="10.69300087833631"><ele>22.75</ele><time>2026-04-29T17:58:28Z</time></trkpt><trkpt lat="43.811134966650705" lon="10.69312062129419"><ele>21.5</ele><time>2026-04-29T17:58:29Z</time></trkpt><trkpt lat="43.8112563348586" lon="10.69322862603098"><ele>20.25</ele><time>2026-04-29T17:58:30Z</time></trkpt><trkpt lat="43.81135841541096" lon="10.693316749226307"><ele>19.0</ele><time>2026-04-29T17:58:31Z</time></trkpt><trkpt lat="43.81144450322791" lon="10.693382086985958"><ele>19.0</ele><time>2026-04-29T17:58:32Z</time></trkpt><trkpt lat="43.81151202551641" lon="10.693425649503185"><ele>19.0</ele><time>2026-04-29T17:58:33Z</time></trkpt><trkpt lat="43.81160040401231" lon="10.693487107054006"><ele>19.0</ele><time>2026-04-29T17:58:35Z</time></trkpt><trkpt lat="43.81165895947362" lon="10.693544861562119"><ele>19.0</ele><time>2026-04-29T17:58:38Z</time></trkpt><trkpt lat="43.81171624906991" lon="10.693602016574005"><ele>19.0</ele><time>2026-04-29T17:58:50Z</time></trkpt><trkpt lat="43.81180473388873" lon="10.693682508482885"><ele>19.0</ele><time>2026-04-29T17:58:51Z</time></trkpt><trkpt lat="43.81190976904143" lon="10.693769262429889"><ele>18.666666666666664</ele><time>2026-04-29T17:58:52Z</time></trkpt><trkpt lat="43.812030084054" lon="10.693850982637963"><ele>18.333333333333332</ele><time>2026-04-29T17:58:53Z</time></trkpt><trkpt lat="43.81217784031193" lon="10.69393479243772"><ele>18.0</ele><time>2026-04-29T17:58:54Z</time></trkpt><trkpt lat="43.812361592974206" lon="10.694020982443817"><ele>18.0</ele><time>2026-04-29T17:58:55Z</time></trkpt><trkpt lat="43.81260229637671" lon="10.69409707930169"><ele>18.0</ele><time>2026-04-29T17:58:56Z</time></trkpt><trkpt lat="43.81287968107869" lon="10.694141955488977"><ele>18.0</ele><time>2026-04-29T17:58:57Z</time></trkpt><trkpt lat="43.81319469480473" lon="10.694160877902869"><ele>18.0</ele><time>2026-04-29T17:58:58Z</time></trkpt><trkpt lat="43.813505091352425" lon="10.694140462764022"><ele>18.0</ele><time>2026-04-29T17:58:59Z</time></trkpt><trkpt lat="43.813763996895105" lon="10.694098050876187"><ele>18.0</ele><time>2026-04-29T17:59:00Z</time></trkpt><trkpt lat="43.8139805886871" lon="10.694061202259178"><ele>18.0</ele><time>2026-04-29T17:59:01Z</time></trkpt><trkpt lat="43.81414712510788" lon="10.694042501650907"><ele>18.0</ele><time>2026-04-29T17:59:02Z</time></trkpt><trkpt lat="43.81429866018583" lon="10.694015837476341"><ele>18.0</ele><time>2026-04-29T17:59:03Z</time></trkpt><trkpt lat="43.81443092519013" lon="10.693971215962838"><ele>17.8</ele><time>2026-04-29T17:59:04Z</time></trkpt><trkpt lat="43.814545861346616" lon="10.693920331277605"><ele>17.6</ele><time>2026-04-29T17:59:05Z</time></trkpt><trkpt lat="43.81465786762614" lon="10.693901771991998"><ele>17.4</ele><time>2026-04-29T17:59:06Z</time></trkpt><trkpt lat="43.8147578716931" lon="10.693942765597809"><ele>17.2</ele><time>2026-04-29T17:59:07Z</time></trkpt><trkpt lat="43.8148504854586" lon="10.693981159228017"><ele>17.0</ele><time>2026-04-29T17:59:08Z</time></trkpt><trkpt lat="43.81493343162322" lon="10.69393026134272"><ele>17.0</ele><time>2026-04-29T17:59:09Z</time></trkpt><trkpt lat="43.81500491014152" lon="10.693796177086965"><ele>17.0</ele><time>2026-04-29T17:59:10Z</time></trkpt><trkpt lat="43.81507598394582" lon="10.69359671043909"><ele>17.0</ele><time>2026-04-29T17:59:11Z</time></trkpt><trkpt lat="43.815139886925365" lon="10.693336203017669"><ele>18.5</ele><time>2026-04-29T17:59:12Z</time></trkpt><trkpt lat="43.81522118368854" lon="10.692986941107193"><ele>20.0</ele><time>2026-04-29T17:59:13Z</time></trkpt><trkpt lat="43.81532721289257" lon="10.692751058692057"><ele>20.333333333333336</ele><time>2026-04-29T17:59:14Z</time></trkpt><trkpt lat="43.81544372830571" lon="10.692607971822653"><ele>20.666666666666668</ele><time>2026-04-29T17:59:15Z</time></trkpt><trkpt lat="43.81557941691763" lon="10.692515854734996"><ele>21.0</ele><time>2026-04-29T17:59:16Z</time></trkpt><trkpt lat="43.815742076440664" lon="10.692454229497594"><ele>21.0</ele><time>2026-04-29T17:59:17Z</time></trkpt><trkpt lat="43.81592739060175" lon="10.692417446794128"><ele>21.0</ele><time>2026-04-29T17:59:18Z</time></trkpt><trkpt lat="43.816142180468454" lon="10.692385965531946"><ele>21.0</ele><time>2026-04-29T17:59:19Z</time></trkpt><trkpt lat="43.816400039938536" lon="10.692338825694335"><ele>22.5</ele><time>2026-04-29T17:59:20Z</time></trkpt><trkpt lat="43.816692556056054" lon="10.692279180338288"><ele>24.0</ele><time>2026-04-29T17:59:21Z</time></trkpt><trkpt lat="43.81701922515087" lon="10.692213297279537"><ele>24.0</ele><time>2026-04-29T17:59:22Z</time></trkpt><trkpt lat="43.817365023011895" lon="10.692144062953181"><ele>24.0</ele><time>2026-04-29T17:59:23Z</time></trkpt><trkpt lat="43.81770610468158" lon="10.692077263007656"><ele>24.5</ele><time>2026-04-29T17:59:24Z</time></trkpt><trkpt lat="43.81800535861299" lon="10.692017906464617"><ele>25.0</ele><time>2026-04-29T17:59:25Z</time></trkpt><trkpt lat="43.81828063076377" lon="10.691958564375817"><ele>24.5</ele><time>2026-04-29T17:59:26Z</time></trkpt><trkpt lat="43.81853564788106" lon="10.691901028577051"><ele>24.0</ele><time>2026-04-29T17:59:27Z</time></trkpt><trkpt lat="43.81877462159067" lon="10.691835933380556"><ele>24.0</ele><time>2026-04-29T17:59:28Z</time></trkpt><trkpt lat="43.81899462937072" lon="10.691765289662621"><ele>24.0</ele><time>2026-04-29T17:59:29Z</time></trkpt><trkpt lat="43.81919696306577" lon="10.691695720561764"><ele>24.0</ele><time>2026-04-29T17:59:30Z</time></trkpt><trkpt lat="43.81937468842267" lon="10.69162757780607"><ele>23.333333333333332</ele><time>2026-04-29T17:59:31Z</time></trkpt><trkpt lat="43.81953951897957" lon="10.691557379698748"><ele>22.666666666666664</ele><time>2026-04-29T17:59:32Z</time></trkpt><trkpt lat="43.81968609858776" lon="10.691472223147693"><ele>22.0</ele><time>2026-04-29T17:59:33Z</time></trkpt><trkpt lat="43.819819362136485" lon="10.69140950311463"><ele>22.0</ele><time>2026-04-29T17:59:34Z</time></trkpt><trkpt lat="43.81988562558711" lon="10.691203995513755"><ele>22.0</ele><time>2026-04-29T17:59:35Z</time></trkpt><trkpt lat="43.81992063486492" lon="10.691026383057345"><ele>22.0</ele><time>2026-04-29T17:59:36Z</time></trkpt><trkpt lat="43.81990735382218" lon="10.690849369233328"><ele>22.0</ele><time>2026-04-29T17:59:37Z</time></trkpt><trkpt lat="43.81986765141216" lon="10.690676745420145"><ele>22.0</ele><time>2026-04-29T17:59:38Z</time></trkpt><trkpt lat="43.81980951373186" lon="10.690496005952152"><ele>22.0</ele><time>2026-04-29T17:59:39Z</time></trkpt><trkpt lat="43.81975419769245" lon="10.690320069160043"><ele>22.0</ele><time>2026-04-29T17:59:40Z</time></trkpt><trkpt lat="43.81971581666379" lon="10.690174663927028"><ele>22.0</ele><time>2026-04-29T17:59:41Z</time></trkpt><trkpt lat="43.81968588166083" lon="10.690054960293244"><ele>22.25</ele><time>2026-04-29T17:59:42Z</time></trkpt><trkpt lat="43.81964402397485" lon="10.689907631463582"><ele>22.5</ele><time>2026-04-29T17:59:43Z</time></trkpt><trkpt lat="43.81958702892611" lon="10.689715015810867"><ele>22.75</ele><time>2026-04-29T17:59:44Z</time></trkpt><trkpt lat="43.81952218910598" lon="10.689488987651389"><ele>23.0</ele><time>2026-04-29T17:59:45Z</time></trkpt><trkpt lat="43.81945525782906" lon="10.689238147932912"><ele>23.0</ele><time>2026-04-29T17:59:46Z</time></trkpt><trkpt lat="43.819375859909485" lon="10.688968837719816"><ele>23.0</ele><time>2026-04-29T17:59:47Z</time></trkpt><trkpt lat="43.819283392988375" lon="10.68867568376583"><ele>23.0</ele><time>2026-04-29T17:59:48Z</time></trkpt><trkpt lat="43.8191852908957" lon="10.688364958512997"><ele>22.5</ele><time>2026-04-29T17:59:49Z</time></trkpt><trkpt lat="43.81908114307041" lon="10.68803982942799"><ele>22.0</ele><time>2026-04-29T17:59:50Z</time></trkpt><trkpt lat="43.818975425325405" lon="10.687715666271702"><ele>22.0</ele><time>2026-04-29T17:59:51Z</time></trkpt><trkpt lat="43.818868517974394" lon="10.687397185927624"><ele>22.0</ele><time>2026-04-29T17:59:52Z</time></trkpt><trkpt lat="43.81876616532897" lon="10.68707532109585"><ele>22.0</ele><time>2026-04-29T17:59:53Z</time></trkpt><trkpt lat="43.81867298535742" lon="10.686747949623628"><ele>22.0</ele><time>2026-04-29T17:59:54Z</time></trkpt><trkpt lat="43.81858752200762" lon="10.68640800247017"><ele>22.0</ele><time>2026-04-29T17:59:55Z</time></trkpt><trkpt lat="43.81849957123611" lon="10.686065423682926"><ele>22.0</ele><time>2026-04-29T17:59:56Z</time></trkpt><trkpt lat="43.81840343448832" lon="10.685722067873149"><ele>21.0</ele><time>2026-04-29T17:59:57Z</time></trkpt><trkpt lat="43.81830127120548" lon="10.685381779088518"><ele>20.0</ele><time>2026-04-29T17:59:58Z</time></trkpt><trkpt lat="43.818193120825555" lon="10.685046068972714"><ele>20.0</ele><time>2026-04-29T17:59:59Z</time></trkpt><trkpt lat="43.81807638963663" lon="10.684729304872043"><ele>20.0</ele><time>2026-04-29T18:00:00Z</time></trkpt><trkpt lat="43.81795626386259" lon="10.684439510760097"><ele>20.0</ele><time>2026-04-29T18:00:01Z</time></trkpt><trkpt lat="43.817829486919344" lon="10.684182588907834"><ele>20.0</ele><time>2026-04-29T18:00:02Z</time></trkpt><trkpt lat="43.8176857199671" lon="10.683931645474065"><ele>19.0</ele><time>2026-04-29T18:00:03Z</time></trkpt><trkpt lat="43.81753621804476" lon="10.683673154677377"><ele>18.0</ele><time>2026-04-29T18:00:04Z</time></trkpt><trkpt lat="43.817379790890335" lon="10.683412266616779"><ele>18.0</ele><time>2026-04-29T18:00:05Z</time></trkpt><trkpt lat="43.81722537874939" lon="10.683170677738"><ele>18.0</ele><time>2026-04-29T18:00:06Z</time></trkpt><trkpt lat="43.81708485667295" lon="10.682940220167973"><ele>18.333333333333332</ele><time>2026-04-29T18:00:07Z</time></trkpt><trkpt lat="43.81697658855945" lon="10.682705778013187"><ele>18.666666666666664</ele><time>2026-04-29T18:00:08Z</time></trkpt><trkpt lat="43.816887972135845" lon="10.682470764375717"><ele>19.0</ele><time>2026-04-29T18:00:09Z</time></trkpt><trkpt lat="43.81682301524212" lon="10.68223979485496"><ele>18.666666666666664</ele><time>2026-04-29T18:00:10Z</time></trkpt><trkpt lat="43.81675415263934" lon="10.682019809320996"><ele>18.333333333333332</ele><time>2026-04-29T18:00:11Z</time></trkpt><trkpt lat="43.816691055908095" lon="10.681788309808834"><ele>18.0</ele><time>2026-04-29T18:00:12Z</time></trkpt><trkpt lat="43.81663486639306" lon="10.681545839569397"><ele>18.0</ele><time>2026-04-29T18:00:13Z</time></trkpt><trkpt lat="43.816582319861524" lon="10.68129839444157"><ele>18.0</ele><time>2026-04-29T18:00:14Z</time></trkpt><trkpt lat="43.81653789969574" lon="10.681046431181125"><ele>18.0</ele><time>2026-04-29T18:00:15Z</time></trkpt><trkpt lat="43.816500336409696" lon="10.680789536831167"><ele>17.666666666666668</ele><time>2026-04-29T18:00:16Z</time></trkpt><trkpt lat="43.81647078922653" lon="10.68052749719898"><ele>17.333333333333336</ele><time>2026-04-29T18:00:17Z</time></trkpt><trkpt lat="43.8164489116321" lon="10.680259985915443"><ele>17.0</ele><time>2026-04-29T18:00:18Z</time></trkpt><trkpt lat="43.816424234098704" lon="10.679993015912233"><ele>16.333333333333336</ele><time>2026-04-29T18:00:19Z</time></trkpt><trkpt lat="43.81643042320603" lon="10.679731071972217"><ele>15.666666666666668</ele><time>2026-04-29T18:00:20Z</time></trkpt><trkpt lat="43.81644458377116" lon="10.679509266772437"><ele>15.0</ele><time>2026-04-29T18:00:21Z</time></trkpt><trkpt lat="43.8164521811847" lon="10.679313076793813"><ele>15.0</ele><time>2026-04-29T18:00:22Z</time></trkpt><trkpt lat="43.816462309696504" lon="10.679153114305551"><ele>15.0</ele><time>2026-04-29T18:00:23Z</time></trkpt><trkpt lat="43.816476381756345" lon="10.679011209220707"><ele>15.0</ele><time>2026-04-29T18:00:24Z</time></trkpt><trkpt lat="43.816491870261366" lon="10.678872853388297"><ele>15.0</ele><time>2026-04-29T18:00:25Z</time></trkpt><trkpt lat="43.81649581949671" lon="10.678719694811273"><ele>15.0</ele><time>2026-04-29T18:00:26Z</time></trkpt><trkpt lat="43.816458252364185" lon="10.678552695484615"><ele>15.0</ele><time>2026-04-29T18:00:27Z</time></trkpt><trkpt lat="43.81637900851141" lon="10.678371273994271"><ele>15.0</ele><time>2026-04-29T18:00:28Z</time></trkpt><trkpt lat="43.816273359645656" lon="10.678162079114035"><ele>15.0</ele><time>2026-04-29T18:00:29Z</time></trkpt><trkpt lat="43.81619798385966" lon="10.677900363904753"><ele>15.333333333333332</ele><time>2026-04-29T18:00:30Z</time></trkpt><trkpt lat="43.81615700143457" lon="10.67761014365164"><ele>15.666666666666666</ele><time>2026-04-29T18:00:31Z</time></trkpt><trkpt lat="43.8161286482086" lon="10.677300272316481"><ele>16.0</ele><time>2026-04-29T18:00:32Z</time></trkpt><trkpt lat="43.81610383348815" lon="10.676987518986037"><ele>16.333333333333332</ele><time>2026-04-29T18:00:33Z</time></trkpt><trkpt lat="43.816078097356794" lon="10.676671801773882"><ele>16.666666666666668</ele><time>2026-04-29T18:00:34Z</time></trkpt><trkpt lat="43.81605169625371" lon="10.67637255646591"><ele>17.0</ele><time>2026-04-29T18:00:35Z</time></trkpt><trkpt lat="43.81603182193814" lon="10.676099538969911"><ele>16.333333333333336</ele><time>2026-04-29T18:00:36Z</time></trkpt><trkpt lat="43.81601349084756" lon="10.675849715589763"><ele>15.666666666666668</ele><time>2026-04-29T18:00:37Z</time></trkpt><trkpt lat="43.81599625284907" lon="10.67561783305501"><ele>15.0</ele><time>2026-04-29T18:00:38Z</time></trkpt><trkpt lat="43.81598687851064" lon="10.675406762457044"><ele>14.333333333333332</ele><time>2026-04-29T18:00:39Z</time></trkpt><trkpt lat="43.81598234970694" lon="10.6751953377486"><ele>13.666666666666666</ele><time>2026-04-29T18:00:40Z</time></trkpt><trkpt lat="43.81597402183014" lon="10.674978965583678"><ele>13.0</ele><time>2026-04-29T18:00:41Z</time></trkpt><trkpt lat="43.815956878620334" lon="10.674767107727568"><ele>13.0</ele><time>2026-04-29T18:00:42Z</time></trkpt><trkpt lat="43.81593795089424" lon="10.674560363598863"><ele>13.0</ele><time>2026-04-29T18:00:43Z</time></trkpt><trkpt lat="43.81591810951492" lon="10.67436741913516"><ele>13.0</ele><time>2026-04-29T18:00:44Z</time></trkpt><trkpt lat="43.815901572241984" lon="10.674191488365205"><ele>13.0</ele><time>2026-04-29T18:00:45Z</time></trkpt><trkpt lat="43.81588769291465" lon="10.674040648936035"><ele>13.0</ele><time>2026-04-29T18:00:46Z</time></trkpt><trkpt lat="43.81587795343757" lon="10.673910839470501"><ele>13.0</ele><time>2026-04-29T18:00:47Z</time></trkpt><trkpt lat="43.81586807805196" lon="10.673788183452077"><ele>13.0</ele><time>2026-04-29T18:00:48Z</time></trkpt><trkpt lat="43.815856890009776" lon="10.673654993110183"><ele>13.0</ele><time>2026-04-29T18:00:49Z</time></trkpt><trkpt lat="43.81584299314856" lon="10.673513899888354"><ele>13.0</ele><time>2026-04-29T18:00:50Z</time></trkpt><trkpt lat="43.815827556954936" lon="10.67339065822874"><ele>12.833333333333332</ele><time>2026-04-29T18:00:51Z</time></trkpt><trkpt lat="43.81581515467317" lon="10.673284483866336"><ele>12.666666666666666</ele><time>2026-04-29T18:00:52Z</time></trkpt><trkpt lat="43.8158030461977" lon="10.673190875299554"><ele>12.5</ele><time>2026-04-29T18:00:53Z</time></trkpt><trkpt lat="43.81578981629899" lon="10.673100892774693"><ele>12.333333333333332</ele><time>2026-04-29T18:00:54Z</time></trkpt><trkpt lat="43.8157654847602" lon="10.672950484094216"><ele>12.166666666666666</ele><time>2026-04-29T18:00:56Z</time></trkpt><trkpt lat="43.815747556941055" lon="10.67280472679403"><ele>12.0</ele><time>2026-04-29T18:00:58Z</time></trkpt><trkpt lat="43.81577295512654" lon="10.672673497451708"><ele>12.0</ele><time>2026-04-29T18:01:00Z</time></trkpt><trkpt lat="43.815861578795534" lon="10.672536141908447"><ele>12.0</ele><time>2026-04-29T18:01:02Z</time></trkpt><trkpt lat="43.81591711989952" lon="10.6724620706613"><ele>12.0</ele><time>2026-04-29T18:01:03Z</time></trkpt><trkpt lat="43.81597448287746" lon="10.672398991184771"><ele>12.0</ele><time>2026-04-29T18:01:04Z</time></trkpt><trkpt lat="43.81603988264941" lon="10.672303217423146"><ele>12.0</ele><time>2026-04-29T18:01:05Z</time></trkpt><trkpt lat="43.81611700336398" lon="10.672172218266192"><ele>12.333333333333332</ele><time>2026-04-29T18:01:06Z</time></trkpt><trkpt lat="43.81622290013947" lon="10.67194887092085"><ele>12.666666666666666</ele><time>2026-04-29T18:01:07Z</time></trkpt><trkpt lat="43.816308067548405" lon="10.671765481920652"><ele>13.0</ele><time>2026-04-29T18:01:08Z</time></trkpt><trkpt lat="43.816389209869996" lon="10.671592896548841"><ele>13.5</ele><time>2026-04-29T18:01:09Z</time></trkpt><trkpt lat="43.81646026447597" lon="10.671440638608557"><ele>14.0</ele><time>2026-04-29T18:01:10Z</time></trkpt><trkpt lat="43.816532245113876" lon="10.671297079340258"><ele>14.5</ele><time>2026-04-29T18:01:11Z</time></trkpt><trkpt lat="43.816590698213986" lon="10.671170793239053"><ele>15.0</ele><time>2026-04-29T18:01:12Z</time></trkpt><trkpt lat="43.81664594450071" lon="10.671064777690896"><ele>15.166666666666666</ele><time>2026-04-29T18:01:13Z</time></trkpt><trkpt lat="43.81667971266346" lon="10.670984994201829"><ele>15.333333333333332</ele><time>2026-04-29T18:01:14Z</time></trkpt><trkpt lat="43.81672577750048" lon="10.670887843162927"><ele>15.5</ele><time>2026-04-29T18:01:16Z</time></trkpt><trkpt lat="43.81676148631317" lon="10.670810464131973"><ele>15.666666666666666</ele><time>2026-04-29T18:01:17Z</time></trkpt><trkpt lat="43.81681514424581" lon="10.670698387092575"><ele>15.833333333333332</ele><time>2026-04-29T18:01:18Z</time></trkpt><trkpt lat="43.81688342248783" lon="10.670547309043798"><ele>16.0</ele><time>2026-04-29T18:01:19Z</time></trkpt><trkpt lat="43.81697596621459" lon="10.670374341399315"><ele>17.666666666666664</ele><time>2026-04-29T18:01:20Z</time></trkpt><trkpt lat="43.817081460590174" lon="10.670189691174011"><ele>19.333333333333332</ele><time>2026-04-29T18:01:21Z</time></trkpt><trkpt lat="43.81719713269264" lon="10.669982082879658"><ele>21.0</ele><time>2026-04-29T18:01:22Z</time></trkpt><trkpt lat="43.81732474614507" lon="10.669751659590357"><ele>21.0</ele><time>2026-04-29T18:01:23Z</time></trkpt><trkpt lat="43.81744014585213" lon="10.669531453578728"><ele>21.0</ele><time>2026-04-29T18:01:24Z</time></trkpt><trkpt lat="43.8175535105287" lon="10.669314185633853"><ele>21.0</ele><time>2026-04-29T18:01:25Z</time></trkpt><trkpt lat="43.817680546389056" lon="10.669086921081579"><ele>21.333333333333332</ele><time>2026-04-29T18:01:26Z</time></trkpt><trkpt lat="43.81781608520369" lon="10.668854798492616"><ele>21.666666666666664</ele><time>2026-04-29T18:01:27Z</time></trkpt><trkpt lat="43.8179656289105" lon="10.66863022417871"><ele>22.0</ele><time>2026-04-29T18:01:28Z</time></trkpt><trkpt lat="43.818128357190425" lon="10.668406631467548"><ele>22.0</ele><time>2026-04-29T18:01:29Z</time></trkpt><trkpt lat="43.81829475284126" lon="10.668186808650567"><ele>22.0</ele><time>2026-04-29T18:01:30Z</time></trkpt><trkpt lat="43.81846242883815" lon="10.66797305900309"><ele>22.0</ele><time>2026-04-29T18:01:31Z</time></trkpt><trkpt lat="43.818617176583565" lon="10.667779841376941"><ele>22.0</ele><time>2026-04-29T18:01:32Z</time></trkpt><trkpt lat="43.81875975800748" lon="10.667599850820261"><ele>22.0</ele><time>2026-04-29T18:01:33Z</time></trkpt><trkpt lat="43.81889121631323" lon="10.667427032454048"><ele>22.25</ele><time>2026-04-29T18:01:34Z</time></trkpt><trkpt lat="43.81900578599835" lon="10.667267877404322"><ele>22.5</ele><time>2026-04-29T18:01:35Z</time></trkpt><trkpt lat="43.81909883163397" lon="10.66714268271579"><ele>22.75</ele><time>2026-04-29T18:01:36Z</time></trkpt><trkpt lat="43.8191634909864" lon="10.667057696716626"><ele>23.0</ele><time>2026-04-29T18:01:37Z</time></trkpt><trkpt lat="43.81923249358386" lon="10.666964025592147"><ele>23.25</ele><time>2026-04-29T18:01:38Z</time></trkpt><trkpt lat="43.81931132817366" lon="10.666875145866749"><ele>23.5</ele><time>2026-04-29T18:01:39Z</time></trkpt><trkpt lat="43.81939790086316" lon="10.666776977740286"><ele>23.75</ele><time>2026-04-29T18:01:40Z</time></trkpt><trkpt lat="43.81949072421783" lon="10.666646156995286"><ele>24.0</ele><time>2026-04-29T18:01:41Z</time></trkpt><trkpt lat="43.8195833897834" lon="10.666506333582007"><ele>24.0</ele><time>2026-04-29T18:01:42Z</time></trkpt><trkpt lat="43.8196766777084" lon="10.666356504727979"><ele>24.0</ele><time>2026-04-29T18:01:43Z</time></trkpt><trkpt lat="43.81978538737978" lon="10.666202925526397"><ele>24.0</ele><time>2026-04-29T18:01:44Z</time></trkpt><trkpt lat="43.81988881359777" lon="10.666021420635326"><ele>24.0</ele><time>2026-04-29T18:01:45Z</time></trkpt><trkpt lat="43.819978669969245" lon="10.6657931089119"><ele>24.0</ele><time>2026-04-29T18:01:46Z</time></trkpt><trkpt lat="43.82009711870632" lon="10.66558796057909"><ele>24.0</ele><time>2026-04-29T18:01:47Z</time></trkpt><trkpt lat="43.82022886918257" lon="10.66537460353783"><ele>23.666666666666668</ele><time>2026-04-29T18:01:48Z</time></trkpt><trkpt lat="43.820370929203676" lon="10.665167902672643"><ele>23.333333333333336</ele><time>2026-04-29T18:01:49Z</time></trkpt><trkpt lat="43.82052850901765" lon="10.664961973732584"><ele>23.0</ele><time>2026-04-29T18:01:50Z</time></trkpt><trkpt lat="43.82069619831398" lon="10.664755280142357"><ele>23.0</ele><time>2026-04-29T18:01:51Z</time></trkpt><trkpt lat="43.820861896150674" lon="10.664542473735453"><ele>23.0</ele><time>2026-04-29T18:01:52Z</time></trkpt><trkpt lat="43.821013706801644" lon="10.664316204458482"><ele>23.0</ele><time>2026-04-29T18:01:53Z</time></trkpt><trkpt lat="43.82115001389439" lon="10.664068579360396"><ele>22.5</ele><time>2026-04-29T18:01:54Z</time></trkpt><trkpt lat="43.82127013361363" lon="10.663796663476042"><ele>22.0</ele><time>2026-04-29T18:01:55Z</time></trkpt><trkpt lat="43.821382967132216" lon="10.663517906935807"><ele>22.0</ele><time>2026-04-29T18:01:56Z</time></trkpt><trkpt lat="43.821492345253525" lon="10.663233981642225"><ele>22.0</ele><time>2026-04-29T18:01:57Z</time></trkpt><trkpt lat="43.82160115669891" lon="10.662950959541895"><ele>22.666666666666664</ele><time>2026-04-29T18:01:58Z</time></trkpt><trkpt lat="43.82170609545707" lon="10.662681653796133"><ele>23.333333333333332</ele><time>2026-04-29T18:01:59Z</time></trkpt><trkpt lat="43.82180293359788" lon="10.662437839075077"><ele>24.0</ele><time>2026-04-29T18:02:00Z</time></trkpt><trkpt lat="43.82189453768371" lon="10.662215093992303"><ele>24.0</ele><time>2026-04-29T18:02:01Z</time></trkpt><trkpt lat="43.82197872806432" lon="10.662007933414966"><ele>24.0</ele><time>2026-04-29T18:02:02Z</time></trkpt><trkpt lat="43.82205443180906" lon="10.661813528670276"><ele>24.0</ele><time>2026-04-29T18:02:03Z</time></trkpt><trkpt lat="43.822130080734844" lon="10.661620661504012"><ele>24.333333333333336</ele><time>2026-04-29T18:02:04Z</time></trkpt><trkpt lat="43.82220934759308" lon="10.661419589681998"><ele>24.666666666666668</ele><time>2026-04-29T18:02:05Z</time></trkpt><trkpt lat="43.82229042162235" lon="10.661208385462542"><ele>25.0</ele><time>2026-04-29T18:02:06Z</time></trkpt><trkpt lat="43.82237869912475" lon="10.66097223706635"><ele>25.0</ele><time>2026-04-29T18:02:07Z</time></trkpt><trkpt lat="43.822474446725586" lon="10.660726695598843"><ele>25.0</ele><time>2026-04-29T18:02:08Z</time></trkpt><trkpt lat="43.82257862045215" lon="10.660477351089986"><ele>25.0</ele><time>2026-04-29T18:02:09Z</time></trkpt><trkpt lat="43.822686787030655" lon="10.660221859742697"><ele>25.333333333333336</ele><time>2026-04-29T18:02:10Z</time></trkpt><trkpt lat="43.8227945366534" lon="10.659955749472491"><ele>25.666666666666664</ele><time>2026-04-29T18:02:11Z</time></trkpt><trkpt lat="43.82290311326622" lon="10.659682079750398"><ele>26.0</ele><time>2026-04-29T18:02:12Z</time></trkpt><trkpt lat="43.82301131933256" lon="10.659404790482624"><ele>26.0</ele><time>2026-04-29T18:02:13Z</time></trkpt><trkpt lat="43.82311982028142" lon="10.659126363957677"><ele>26.0</ele><time>2026-04-29T18:02:14Z</time></trkpt><trkpt lat="43.82322954401853" lon="10.658846732891455"><ele>26.5</ele><time>2026-04-29T18:02:15Z</time></trkpt><trkpt lat="43.823339648345836" lon="10.658564514186597"><ele>27.0</ele><time>2026-04-29T18:02:16Z</time></trkpt><trkpt lat="43.823451857887825" lon="10.658284997105955"><ele>27.666666666666664</ele><time>2026-04-29T18:02:17Z</time></trkpt><trkpt lat="43.823559670864185" lon="10.658009621560996"><ele>28.333333333333332</ele><time>2026-04-29T18:02:18Z</time></trkpt><trkpt lat="43.82366455558657" lon="10.657738231756044"><ele>29.0</ele><time>2026-04-29T18:02:19Z</time></trkpt><trkpt lat="43.82376992410827" lon="10.657469842777544"><ele>29.0</ele><time>2026-04-29T18:02:20Z</time></trkpt><trkpt lat="43.823878813022326" lon="10.657212768122676"><ele>29.0</ele><time>2026-04-29T18:02:21Z</time></trkpt><trkpt lat="43.8239993581932" lon="10.656957142401986"><ele>29.0</ele><time>2026-04-29T18:02:22Z</time></trkpt><trkpt lat="43.82413328366126" lon="10.656713780044852"><ele>29.0</ele><time>2026-04-29T18:02:23Z</time></trkpt><trkpt lat="43.82427671195213" lon="10.656478793439794"><ele>29.0</ele><time>2026-04-29T18:02:24Z</time></trkpt><trkpt lat="43.82442674220415" lon="10.656245893170034"><ele>29.0</ele><time>2026-04-29T18:02:25Z</time></trkpt><trkpt lat="43.824569408519906" lon="10.656017810119835"><ele>29.0</ele><time>2026-04-29T18:02:26Z</time></trkpt><trkpt lat="43.825077990546575" lon="10.656568997577967"><ele>28.0</ele><time>2026-04-29T18:02:27Z</time></trkpt><trkpt lat="43.82493139588137" lon="10.65544148582303"><ele>28.333333333333336</ele><time>2026-04-29T18:02:29Z</time></trkpt><trkpt lat="43.825053281667515" lon="10.65525272584628"><ele>28.666666666666664</ele><time>2026-04-29T18:02:30Z</time></trkpt><trkpt lat="43.82517537281593" lon="10.655052660789014"><ele>29.0</ele><time>2026-04-29T18:02:31Z</time></trkpt><trkpt lat="43.825317480390915" lon="10.654821896026052"><ele>29.5</ele><time>2026-04-29T18:02:32Z</time></trkpt><trkpt lat="43.825469480892274" lon="10.654587079430147"><ele>30.0</ele><time>2026-04-29T18:02:33Z</time></trkpt><trkpt lat="43.82562052776331" lon="10.654345426297642"><ele>29.0</ele><time>2026-04-29T18:02:34Z</time></trkpt><trkpt lat="43.82576134332295" lon="10.6540888997059"><ele>28.0</ele><time>2026-04-29T18:02:35Z</time></trkpt><trkpt lat="43.825896211504954" lon="10.653805338923114"><ele>28.5</ele><time>2026-04-29T18:02:36Z</time></trkpt><trkpt lat="43.82603844674759" lon="10.653495615184795"><ele>29.0</ele><time>2026-04-29T18:02:37Z</time></trkpt><trkpt lat="43.826192345580466" lon="10.653184220692546"><ele>29.0</ele><time>2026-04-29T18:02:38Z</time></trkpt><trkpt lat="43.826349145530514" lon="10.652875130395923"><ele>29.0</ele><time>2026-04-29T18:02:39Z</time></trkpt><trkpt lat="43.826501560410726" lon="10.652568188819707"><ele>29.0</ele><time>2026-04-29T18:02:40Z</time></trkpt><trkpt lat="43.826648161662234" lon="10.652266754125773"><ele>29.0</ele><time>2026-04-29T18:02:41Z</time></trkpt><trkpt lat="43.826788041698926" lon="10.651969983920907"><ele>30.5</ele><time>2026-04-29T18:02:42Z</time></trkpt><trkpt lat="43.82693553447976" lon="10.651697926202466"><ele>32.0</ele><time>2026-04-29T18:02:43Z</time></trkpt><trkpt lat="43.82706253131432" lon="10.651443134283138"><ele>32.0</ele><time>2026-04-29T18:02:44Z</time></trkpt><trkpt lat="43.827169770957816" lon="10.651211134002578"><ele>32.0</ele><time>2026-04-29T18:02:45Z</time></trkpt><trkpt lat="43.82724533060749" lon="10.650991830170176"><ele>32.0</ele><time>2026-04-29T18:02:46Z</time></trkpt><trkpt lat="43.827314076179235" lon="10.650811400134002"><ele>31.75</ele><time>2026-04-29T18:02:47Z</time></trkpt><trkpt lat="43.827380033975565" lon="10.650668884930909"><ele>31.5</ele><time>2026-04-29T18:02:48Z</time></trkpt><trkpt lat="43.82745388772549" lon="10.650558472340427"><ele>31.25</ele><time>2026-04-29T18:02:49Z</time></trkpt><trkpt lat="43.827506782651604" lon="10.650425238717256"><ele>31.0</ele><time>2026-04-29T18:02:50Z</time></trkpt><trkpt lat="43.82755707395728" lon="10.650283625898242"><ele>30.75</ele><time>2026-04-29T18:02:51Z</time></trkpt><trkpt lat="43.827617531536724" lon="10.65016960260082"><ele>30.5</ele><time>2026-04-29T18:02:52Z</time></trkpt><trkpt lat="43.827709333432836" lon="10.650040063636231"><ele>30.25</ele><time>2026-04-29T18:02:53Z</time></trkpt><trkpt lat="43.82778579897177" lon="10.649876846746142"><ele>30.0</ele><time>2026-04-29T18:02:54Z</time></trkpt><trkpt lat="43.82785101948365" lon="10.649650009951852"><ele>30.0</ele><time>2026-04-29T18:02:55Z</time></trkpt><trkpt lat="43.82792082041471" lon="10.649370544082904"><ele>30.0</ele><time>2026-04-29T18:02:56Z</time></trkpt><trkpt lat="43.827991927896484" lon="10.64904349220019"><ele>30.0</ele><time>2026-04-29T18:02:57Z</time></trkpt><trkpt lat="43.82804375412191" lon="10.648689796376745"><ele>30.0</ele><time>2026-04-29T18:02:58Z</time></trkpt><trkpt lat="43.828093677352484" lon="10.648329768000345"><ele>29.5</ele><time>2026-04-29T18:02:59Z</time></trkpt><trkpt lat="43.82814461280497" lon="10.647963859278608"><ele>29.0</ele><time>2026-04-29T18:03:00Z</time></trkpt><trkpt lat="43.82819884908682" lon="10.647596930185632"><ele>29.0</ele><time>2026-04-29T18:03:01Z</time></trkpt><trkpt lat="43.82825502373964" lon="10.647227578309721"><ele>29.0</ele><time>2026-04-29T18:03:02Z</time></trkpt><trkpt lat="43.828306726106184" lon="10.646867287032176"><ele>28.5</ele><time>2026-04-29T18:03:03Z</time></trkpt><trkpt lat="43.82835392756555" lon="10.646513660408703"><ele>28.0</ele><time>2026-04-29T18:03:04Z</time></trkpt><trkpt lat="43.828396967558554" lon="10.64616345490588"><ele>28.0</ele><time>2026-04-29T18:03:05Z</time></trkpt><trkpt lat="43.82843887284861" lon="10.64582889685872"><ele>28.0</ele><time>2026-04-29T18:03:06Z</time></trkpt><trkpt lat="43.828481579094685" lon="10.645516429441896"><ele>26.666666666666668</ele><time>2026-04-29T18:03:07Z</time></trkpt><trkpt lat="43.82851932871747" lon="10.645238293183352"><ele>25.333333333333336</ele><time>2026-04-29T18:03:08Z</time></trkpt><trkpt lat="43.828561603565156" lon="10.644982159734809"><ele>24.0</ele><time>2026-04-29T18:03:09Z</time></trkpt><trkpt lat="43.828603340612446" lon="10.64473489541228"><ele>24.0</ele><time>2026-04-29T18:03:10Z</time></trkpt><trkpt lat="43.82864483118375" lon="10.64450218295869"><ele>24.0</ele><time>2026-04-29T18:03:11Z</time></trkpt><trkpt lat="43.82868080294205" lon="10.644271783083239"><ele>24.0</ele><time>2026-04-29T18:03:12Z</time></trkpt><trkpt lat="43.82871394326554" lon="10.644048664463973"><ele>23.5</ele><time>2026-04-29T18:03:13Z</time></trkpt><trkpt lat="43.82874578981209" lon="10.643843910805762"><ele>23.0</ele><time>2026-04-29T18:03:14Z</time></trkpt><trkpt lat="43.828776601573644" lon="10.643649044918993"><ele>22.5</ele><time>2026-04-29T18:03:15Z</time></trkpt><trkpt lat="43.82880802466719" lon="10.643466294512068"><ele>22.0</ele><time>2026-04-29T18:03:16Z</time></trkpt><trkpt lat="43.82883676378278" lon="10.643283037242714"><ele>22.0</ele><time>2026-04-29T18:03:17Z</time></trkpt><trkpt lat="43.82886436919291" lon="10.643073088436436"><ele>22.0</ele><time>2026-04-29T18:03:18Z</time></trkpt><trkpt lat="43.828896647474494" lon="10.642832459991975"><ele>22.0</ele><time>2026-04-29T18:03:19Z</time></trkpt><trkpt lat="43.828935472711464" lon="10.642575616491236"><ele>21.0</ele><time>2026-04-29T18:03:20Z</time></trkpt><trkpt lat="43.828978763526344" lon="10.642316651307734"><ele>20.0</ele><time>2026-04-29T18:03:21Z</time></trkpt><trkpt lat="43.82901483318587" lon="10.642077481235479"><ele>19.0</ele><time>2026-04-29T18:03:22Z</time></trkpt><trkpt lat="43.8290472753519" lon="10.64185532999455"><ele>19.0</ele><time>2026-04-29T18:03:23Z</time></trkpt><trkpt lat="43.829080849300915" lon="10.641636257278256"><ele>19.0</ele><time>2026-04-29T18:03:24Z</time></trkpt><trkpt lat="43.8291155541256" lon="10.64138788734772"><ele>19.0</ele><time>2026-04-29T18:03:25Z</time></trkpt><trkpt lat="43.82915363660913" lon="10.641119461183536"><ele>18.666666666666664</ele><time>2026-04-29T18:03:26Z</time></trkpt><trkpt lat="43.82919760393652" lon="10.640838817189742"><ele>18.333333333333332</ele><time>2026-04-29T18:03:27Z</time></trkpt><trkpt lat="43.829244934218885" lon="10.640548553067434"><ele>18.0</ele><time>2026-04-29T18:03:28Z</time></trkpt><trkpt lat="43.829287090903755" lon="10.64027066882138"><ele>17.333333333333332</ele><time>2026-04-29T18:03:29Z</time></trkpt><trkpt lat="43.829327253265575" lon="10.640000873372438"><ele>16.666666666666664</ele><time>2026-04-29T18:03:30Z</time></trkpt><trkpt lat="43.82936472978566" lon="10.639749964695577"><ele>16.0</ele><time>2026-04-29T18:03:31Z</time></trkpt><trkpt lat="43.82939739611707" lon="10.639530197165382"><ele>16.666666666666664</ele><time>2026-04-29T18:03:32Z</time></trkpt><trkpt lat="43.829425381109935" lon="10.639326034079724"><ele>17.333333333333332</ele><time>2026-04-29T18:03:33Z</time></trkpt><trkpt lat="43.82945288356922" lon="10.639108886966858"><ele>18.0</ele><time>2026-04-29T18:03:34Z</time></trkpt><trkpt lat="43.82949044908545" lon="10.638848819389494"><ele>17.0</ele><time>2026-04-29T18:03:35Z</time></trkpt><trkpt lat="43.829532083821405" lon="10.638572988633584"><ele>16.0</ele><time>2026-04-29T18:03:36Z</time></trkpt><trkpt lat="43.829577525500184" lon="10.63827561035471"><ele>15.0</ele><time>2026-04-29T18:03:37Z</time></trkpt><trkpt lat="43.829629278717164" lon="10.637971908809916"><ele>14.5</ele><time>2026-04-29T18:03:38Z</time></trkpt><trkpt lat="43.82967891724347" lon="10.637658375937116"><ele>14.0</ele><time>2026-04-29T18:03:39Z</time></trkpt><trkpt lat="43.82972704689241" lon="10.637333892280438"><ele>14.0</ele><time>2026-04-29T18:03:40Z</time></trkpt><trkpt lat="43.82977648007049" lon="10.637003816159565"><ele>14.0</ele><time>2026-04-29T18:03:41Z</time></trkpt><trkpt lat="43.82983139717304" lon="10.636667109227304"><ele>13.5</ele><time>2026-04-29T18:03:42Z</time></trkpt><trkpt lat="43.829883796255274" lon="10.636323660842875"><ele>13.0</ele><time>2026-04-29T18:03:43Z</time></trkpt><trkpt lat="43.829933781287856" lon="10.635973483056075"><ele>12.0</ele><time>2026-04-29T18:03:44Z</time></trkpt><trkpt lat="43.82998419916039" lon="10.635620728837898"><ele>11.0</ele><time>2026-04-29T18:03:45Z</time></trkpt><trkpt lat="43.83003728395179" lon="10.635261954177023"><ele>11.5</ele><time>2026-04-29T18:03:46Z</time></trkpt><trkpt lat="43.83009238293462" lon="10.63490198586675"><ele>12.0</ele><time>2026-04-29T18:03:47Z</time></trkpt><trkpt lat="43.83014830600461" lon="10.634534082726976"><ele>13.0</ele><time>2026-04-29T18:03:48Z</time></trkpt><trkpt lat="43.83020383832741" lon="10.634168597933815"><ele>14.0</ele><time>2026-04-29T18:03:49Z</time></trkpt><trkpt lat="43.830258787301496" lon="10.633801834312688"><ele>14.0</ele><time>2026-04-29T18:03:50Z</time></trkpt><trkpt lat="43.83031477687828" lon="10.633430255588312"><ele>14.0</ele><time>2026-04-29T18:03:51Z</time></trkpt><trkpt lat="43.83037056931993" lon="10.633064891600618"><ele>14.0</ele><time>2026-04-29T18:03:52Z</time></trkpt><trkpt lat="43.83042693282498" lon="10.632691977962425"><ele>14.0</ele><time>2026-04-29T18:03:53Z</time></trkpt><trkpt lat="43.83048211788099" lon="10.632326258030908"><ele>13.0</ele><time>2026-04-29T18:03:54Z</time></trkpt><trkpt lat="43.83053615284529" lon="10.631963465709628"><ele>12.0</ele><time>2026-04-29T18:03:55Z</time></trkpt><trkpt lat="43.830584638773566" lon="10.631612905488554"><ele>12.0</ele><time>2026-04-29T18:03:56Z</time></trkpt><trkpt lat="43.83063185551803" lon="10.63127142424608"><ele>12.0</ele><time>2026-04-29T18:03:57Z</time></trkpt><trkpt lat="43.83067749358721" lon="10.630950826468622"><ele>12.0</ele><time>2026-04-29T18:03:58Z</time></trkpt><trkpt lat="43.830725434828445" lon="10.630651661415769"><ele>12.0</ele><time>2026-04-29T18:03:59Z</time></trkpt><trkpt lat="43.83077445346475" lon="10.630375926318408"><ele>12.0</ele><time>2026-04-29T18:04:00Z</time></trkpt><trkpt lat="43.83082649719972" lon="10.630117463401634"><ele>11.666666666666666</ele><time>2026-04-29T18:04:01Z</time></trkpt><trkpt lat="43.83088253913213" lon="10.62986666857369"><ele>11.333333333333332</ele><time>2026-04-29T18:04:02Z</time></trkpt><trkpt lat="43.8309381718074" lon="10.629604768572777"><ele>11.0</ele><time>2026-04-29T18:04:03Z</time></trkpt><trkpt lat="43.830992529300715" lon="10.629329419015232"><ele>12.5</ele><time>2026-04-29T18:04:04Z</time></trkpt><trkpt lat="43.83105908645778" lon="10.629034294664562"><ele>14.0</ele><time>2026-04-29T18:04:05Z</time></trkpt><trkpt lat="43.831142442893864" lon="10.628735518030359"><ele>13.333333333333334</ele><time>2026-04-29T18:04:06Z</time></trkpt><trkpt lat="43.8312328877269" lon="10.628452114826654"><ele>12.666666666666668</ele><time>2026-04-29T18:04:07Z</time></trkpt><trkpt lat="43.831321087574715" lon="10.6282120610867"><ele>12.0</ele><time>2026-04-29T18:04:08Z</time></trkpt><trkpt lat="43.83139476760696" lon="10.627938789913484"><ele>12.5</ele><time>2026-04-29T18:04:09Z</time></trkpt><trkpt lat="43.831449999917346" lon="10.627613268380262"><ele>13.0</ele><time>2026-04-29T18:04:10Z</time></trkpt><trkpt lat="43.831518505145716" lon="10.62724781293273"><ele>12.0</ele><time>2026-04-29T18:04:11Z</time></trkpt><trkpt lat="43.83160357083921" lon="10.626861982442213"><ele>11.0</ele><time>2026-04-29T18:04:12Z</time></trkpt><trkpt lat="43.83170522660243" lon="10.626462501559883"><ele>11.0</ele><time>2026-04-29T18:04:13Z</time></trkpt><trkpt lat="43.83180997322998" lon="10.626061477937906"><ele>11.0</ele><time>2026-04-29T18:04:14Z</time></trkpt><trkpt lat="43.83191076568157" lon="10.625669375291693"><ele>11.5</ele><time>2026-04-29T18:04:15Z</time></trkpt><trkpt lat="43.832005978561256" lon="10.62527956467879"><ele>12.0</ele><time>2026-04-29T18:04:16Z</time></trkpt><trkpt lat="43.832100777262184" lon="10.624886123151667"><ele>12.0</ele><time>2026-04-29T18:04:17Z</time></trkpt><trkpt lat="43.83220301799323" lon="10.624483361401344"><ele>12.0</ele><time>2026-04-29T18:04:18Z</time></trkpt><trkpt lat="43.83230880122208" lon="10.624083712342836"><ele>12.0</ele><time>2026-04-29T18:04:19Z</time></trkpt><trkpt lat="43.83241112602401" lon="10.623687078134532"><ele>12.0</ele><time>2026-04-29T18:04:20Z</time></trkpt><trkpt lat="43.83250389295725" lon="10.623318700347683"><ele>12.0</ele><time>2026-04-29T18:04:21Z</time></trkpt><trkpt lat="43.83258581608466" lon="10.622982757033714"><ele>12.0</ele><time>2026-04-29T18:04:22Z</time></trkpt><trkpt lat="43.83266019428625" lon="10.622674358545117"><ele>11.666666666666666</ele><time>2026-04-29T18:04:23Z</time></trkpt><trkpt lat="43.83272903421026" lon="10.622393542444009"><ele>11.333333333333332</ele><time>2026-04-29T18:04:24Z</time></trkpt><trkpt lat="43.83280255493396" lon="10.622119098049051"><ele>11.0</ele><time>2026-04-29T18:04:25Z</time></trkpt><trkpt lat="43.83287370099091" lon="10.6218483691815"><ele>11.0</ele><time>2026-04-29T18:04:26Z</time></trkpt><trkpt lat="43.8329403037393" lon="10.6215721183653"><ele>11.0</ele><time>2026-04-29T18:04:27Z</time></trkpt><trkpt lat="43.8330010808898" lon="10.621318596733598"><ele>11.0</ele><time>2026-04-29T18:04:28Z</time></trkpt><trkpt lat="43.8330576256081" lon="10.621093110806111"><ele>11.25</ele><time>2026-04-29T18:04:29Z</time></trkpt><trkpt lat="43.83311088212809" lon="10.620891499973666"><ele>11.5</ele><time>2026-04-29T18:04:30Z</time></trkpt><trkpt lat="43.83315787584741" lon="10.620712512787714"><ele>11.75</ele><time>2026-04-29T18:04:31Z</time></trkpt><trkpt lat="43.83319633032313" lon="10.620563007308878"><ele>12.0</ele><time>2026-04-29T18:04:32Z</time></trkpt><trkpt lat="43.833236556395526" lon="10.620429739236416"><ele>12.0</ele><time>2026-04-29T18:04:33Z</time></trkpt><trkpt lat="43.8332958320323" lon="10.620318744988545"><ele>12.0</ele><time>2026-04-29T18:04:34Z</time></trkpt><trkpt lat="43.833363679455815" lon="10.620211073577467"><ele>12.0</ele><time>2026-04-29T18:04:35Z</time></trkpt><trkpt lat="43.83340398156308" lon="10.62006806732026"><ele>12.0</ele><time>2026-04-29T18:04:36Z</time></trkpt><trkpt lat="43.833420060354065" lon="10.619885126279515"><ele>12.0</ele><time>2026-04-29T18:04:37Z</time></trkpt><trkpt lat="43.83344063184094" lon="10.619655620305773"><ele>12.0</ele><time>2026-04-29T18:04:38Z</time></trkpt><trkpt lat="43.8334844264955" lon="10.619424781713114"><ele>12.0</ele><time>2026-04-29T18:04:39Z</time></trkpt><trkpt lat="43.8335336702316" lon="10.619168434769449"><ele>12.0</ele><time>2026-04-29T18:04:40Z</time></trkpt><trkpt lat="43.83359572537992" lon="10.61889361437734"><ele>12.0</ele><time>2026-04-29T18:04:41Z</time></trkpt><trkpt lat="43.83366964639024" lon="10.618602166365704"><ele>12.0</ele><time>2026-04-29T18:04:42Z</time></trkpt><trkpt lat="43.833751647472155" lon="10.618286702093751"><ele>12.0</ele><time>2026-04-29T18:04:43Z</time></trkpt><trkpt lat="43.83383529261031" lon="10.617958339149858"><ele>12.0</ele><time>2026-04-29T18:04:44Z</time></trkpt><trkpt lat="43.83391627970254" lon="10.61764253844684"><ele>11.666666666666666</ele><time>2026-04-29T18:04:45Z</time></trkpt><trkpt lat="43.83399064886281" lon="10.61735665761987"><ele>11.333333333333332</ele><time>2026-04-29T18:04:46Z</time></trkpt><trkpt lat="43.83405526468976" lon="10.617105484627643"><ele>11.0</ele><time>2026-04-29T18:04:47Z</time></trkpt><trkpt lat="43.834112132359344" lon="10.616878963449267"><ele>10.5</ele><time>2026-04-29T18:04:48Z</time></trkpt><trkpt lat="43.834165521875136" lon="10.616685191807216"><ele>10.0</ele><time>2026-04-29T18:04:49Z</time></trkpt><trkpt lat="43.83421663536702" lon="10.616518489354746"><ele>9.5</ele><time>2026-04-29T18:04:50Z</time></trkpt><trkpt lat="43.83427002260567" lon="10.616381431049955"><ele>9.0</ele><time>2026-04-29T18:04:51Z</time></trkpt><trkpt lat="43.83433101736354" lon="10.616272258057018"><ele>9.0</ele><time>2026-04-29T18:04:52Z</time></trkpt><trkpt lat="43.83440299544502" lon="10.616175189200227"><ele>9.0</ele><time>2026-04-29T18:04:53Z</time></trkpt><trkpt lat="43.83447462971385" lon="10.616070517754872"><ele>9.0</ele><time>2026-04-29T18:04:54Z</time></trkpt><trkpt lat="43.834520326906095" lon="10.615941445115277"><ele>9.0</ele><time>2026-04-29T18:04:55Z</time></trkpt><trkpt lat="43.83454570871469" lon="10.61580512413183"><ele>9.0</ele><time>2026-04-29T18:04:56Z</time></trkpt><trkpt lat="43.834544534160585" lon="10.615654786365779"><ele>9.25</ele><time>2026-04-29T18:04:57Z</time></trkpt><trkpt lat="43.83452442590955" lon="10.615481418451102"><ele>9.5</ele><time>2026-04-29T18:04:58Z</time></trkpt><trkpt lat="43.834527437429024" lon="10.615280678367396"><ele>9.75</ele><time>2026-04-29T18:04:59Z</time></trkpt><trkpt lat="43.834565338304024" lon="10.615046270925031"><ele>10.0</ele><time>2026-04-29T18:05:00Z</time></trkpt><trkpt lat="43.83463275376547" lon="10.614803722439682"><ele>10.333333333333334</ele><time>2026-04-29T18:05:01Z</time></trkpt><trkpt lat="43.834711742524085" lon="10.61454864621075"><ele>10.666666666666666</ele><time>2026-04-29T18:05:01.999Z</time></trkpt><trkpt lat="43.83478371026699" lon="10.61427297579945"><ele>11.0</ele><time>2026-04-29T18:05:02.999Z</time></trkpt><trkpt lat="43.83485609065584" lon="10.613988100619514"><ele>11.0</ele><time>2026-04-29T18:05:03.999Z</time></trkpt><trkpt lat="43.834930725228986" lon="10.613703743368331"><ele>11.0</ele><time>2026-04-29T18:05:04.999Z</time></trkpt><trkpt lat="43.83499938684946" lon="10.613442732133041"><ele>11.0</ele><time>2026-04-29T18:05:06Z</time></trkpt><trkpt lat="43.835060776696466" lon="10.613201220661745"><ele>11.0</ele><time>2026-04-29T18:05:07Z</time></trkpt><trkpt lat="43.835120195065876" lon="10.612966751822302"><ele>11.0</ele><time>2026-04-29T18:05:08Z</time></trkpt><trkpt lat="43.83518342441095" lon="10.612726634629194"><ele>11.0</ele><time>2026-04-29T18:05:09Z</time></trkpt><trkpt lat="43.83524648250684" lon="10.612493070085026"><ele>11.0</ele><time>2026-04-29T18:05:10Z</time></trkpt><trkpt lat="43.8353203247344" lon="10.612246294015002"><ele>11.0</ele><time>2026-04-29T18:05:11Z</time></trkpt><trkpt lat="43.83541090080856" lon="10.611988635064579"><ele>11.0</ele><time>2026-04-29T18:05:12Z</time></trkpt><trkpt lat="43.83552187936167" lon="10.611724752340956"><ele>10.5</ele><time>2026-04-29T18:05:13Z</time></trkpt><trkpt lat="43.835653460134274" lon="10.611462513013707"><ele>10.0</ele><time>2026-04-29T18:05:14Z</time></trkpt><trkpt lat="43.835803732892366" lon="10.611201323293766"><ele>11.0</ele><time>2026-04-29T18:05:15Z</time></trkpt><trkpt lat="43.83596384412067" lon="10.61094550932288"><ele>12.0</ele><time>2026-04-29T18:05:16Z</time></trkpt><trkpt lat="43.83613640262067" lon="10.610696199312239"><ele>12.0</ele><time>2026-04-29T18:05:17Z</time></trkpt><trkpt lat="43.83632606316066" lon="10.610449802114632"><ele>12.0</ele><time>2026-04-29T18:05:18Z</time></trkpt><trkpt lat="43.8365206317231" lon="10.610196423776415"><ele>12.0</ele><time>2026-04-29T18:05:19Z</time></trkpt><trkpt lat="43.83670799011661" lon="10.609938706184767"><ele>12.0</ele><time>2026-04-29T18:05:20Z</time></trkpt><trkpt lat="43.836902168201135" lon="10.609672221225024"><ele>12.0</ele><time>2026-04-29T18:05:21Z</time></trkpt><trkpt lat="43.83710752095891" lon="10.609404396674444"><ele>12.0</ele><time>2026-04-29T18:05:22Z</time></trkpt><trkpt lat="43.83731971886215" lon="10.609130974835042"><ele>12.0</ele><time>2026-04-29T18:05:23Z</time></trkpt><trkpt lat="43.83753349840534" lon="10.608851830983708"><ele>12.0</ele><time>2026-04-29T18:05:24Z</time></trkpt><trkpt lat="43.83774972529997" lon="10.608566749249162"><ele>12.0</ele><time>2026-04-29T18:05:25Z</time></trkpt><trkpt lat="43.83795591399339" lon="10.608285983912575"><ele>12.0</ele><time>2026-04-29T18:05:26Z</time></trkpt><trkpt lat="43.83816294379424" lon="10.608004076500356"><ele>12.0</ele><time>2026-04-29T18:05:27Z</time></trkpt><trkpt lat="43.838368455932866" lon="10.607725262292426"><ele>12.0</ele><time>2026-04-29T18:05:28Z</time></trkpt><trkpt lat="43.83857319187929" lon="10.607440608944293"><ele>11.5</ele><time>2026-04-29T18:05:29Z</time></trkpt><trkpt lat="43.83877515080306" lon="10.607158891094675"><ele>11.0</ele><time>2026-04-29T18:05:30Z</time></trkpt><trkpt lat="43.83898725500484" lon="10.606878468429562"><ele>11.0</ele><time>2026-04-29T18:05:31Z</time></trkpt><trkpt lat="43.839199495813794" lon="10.606598836415998"><ele>11.0</ele><time>2026-04-29T18:05:32Z</time></trkpt><trkpt lat="43.83941438922631" lon="10.606317079633488"><ele>11.5</ele><time>2026-04-29T18:05:33Z</time></trkpt><trkpt lat="43.83962928447474" lon="10.606043799918238"><ele>12.0</ele><time>2026-04-29T18:05:34Z</time></trkpt><trkpt lat="43.83984277335828" lon="10.60576845044138"><ele>12.0</ele><time>2026-04-29T18:05:35Z</time></trkpt><trkpt lat="43.84004768522888" lon="10.60549506890494"><ele>12.0</ele><time>2026-04-29T18:05:36Z</time></trkpt><trkpt lat="43.84022842488839" lon="10.60524295645591"><ele>12.5</ele><time>2026-04-29T18:05:37Z</time></trkpt><trkpt lat="43.84039541890633" lon="10.60500955733674"><ele>13.0</ele><time>2026-04-29T18:05:38Z</time></trkpt><trkpt lat="43.84055415040221" lon="10.60479897998725"><ele>13.0</ele><time>2026-04-29T18:05:39Z</time></trkpt><trkpt lat="43.840702521963514" lon="10.604621607866179"><ele>13.0</ele><time>2026-04-29T18:05:40Z</time></trkpt><trkpt lat="43.840844069517615" lon="10.604472065408535"><ele>13.0</ele><time>2026-04-29T18:05:41Z</time></trkpt><trkpt lat="43.84096468869093" lon="10.604372761704896"><ele>13.0</ele><time>2026-04-29T18:05:42Z</time></trkpt><trkpt lat="43.84106466881934" lon="10.604316559180152"><ele>13.0</ele><time>2026-04-29T18:05:43Z</time></trkpt><trkpt lat="43.841158198055496" lon="10.604287072147885"><ele>13.0</ele><time>2026-04-29T18:05:44Z</time></trkpt><trkpt lat="43.84127688303118" lon="10.60423504600625"><ele>13.0</ele><time>2026-04-29T18:05:45Z</time></trkpt><trkpt lat="43.84139574031465" lon="10.604128856868785"><ele>13.0</ele><time>2026-04-29T18:05:46Z</time></trkpt><trkpt lat="43.84149842149009" lon="10.603972109374434"><ele>13.0</ele><time>2026-04-29T18:05:47Z</time></trkpt><trkpt lat="43.84159820721994" lon="10.603772070733713"><ele>13.0</ele><time>2026-04-29T18:05:48Z</time></trkpt><trkpt lat="43.841703250303524" lon="10.603545053302506"><ele>13.333333333333332</ele><time>2026-04-29T18:05:49Z</time></trkpt><trkpt lat="43.84178992882322" lon="10.603295668397326"><ele>13.666666666666668</ele><time>2026-04-29T18:05:50Z</time></trkpt><trkpt lat="43.84191568664634" lon="10.603060146637741"><ele>14.0</ele><time>2026-04-29T18:05:51Z</time></trkpt><trkpt lat="43.84204489508985" lon="10.602813011008214"><ele>13.0</ele><time>2026-04-29T18:05:52Z</time></trkpt><trkpt lat="43.84219766564973" lon="10.602567582431707"><ele>12.0</ele><time>2026-04-29T18:05:53Z</time></trkpt><trkpt lat="43.842364435429324" lon="10.60233907015098"><ele>12.0</ele><time>2026-04-29T18:05:54Z</time></trkpt><trkpt lat="43.84254554199565" lon="10.602113146085024"><ele>12.0</ele><time>2026-04-29T18:05:55Z</time></trkpt><trkpt lat="43.84272441530554" lon="10.601882120257429"><ele>12.0</ele><time>2026-04-29T18:05:56Z</time></trkpt><trkpt lat="43.842904209088196" lon="10.601637658377562"><ele>12.0</ele><time>2026-04-29T18:05:57Z</time></trkpt><trkpt lat="43.84308239363444" lon="10.601393161788526"><ele>12.5</ele><time>2026-04-29T18:05:58Z</time></trkpt><trkpt lat="43.84326130007371" lon="10.601146447870532"><ele>13.0</ele><time>2026-04-29T18:05:59Z</time></trkpt><trkpt lat="43.8434331828773" lon="10.600905224714182"><ele>13.0</ele><time>2026-04-29T18:06:00Z</time></trkpt><trkpt lat="43.843604854796794" lon="10.600663923456734"><ele>13.0</ele><time>2026-04-29T18:06:01Z</time></trkpt><trkpt lat="43.84377740369694" lon="10.600424211647226"><ele>12.5</ele><time>2026-04-29T18:06:02Z</time></trkpt><trkpt lat="43.84396167904646" lon="10.600183878362966"><ele>12.0</ele><time>2026-04-29T18:06:03Z</time></trkpt><trkpt lat="43.844155499591196" lon="10.599933450173548"><ele>12.0</ele><time>2026-04-29T18:06:04Z</time></trkpt><trkpt lat="43.84435108815487" lon="10.599665498184649"><ele>12.0</ele><time>2026-04-29T18:06:05Z</time></trkpt><trkpt lat="43.84454866892024" lon="10.599384378658193"><ele>12.0</ele><time>2026-04-29T18:06:06Z</time></trkpt><trkpt lat="43.844768260771765" lon="10.599105577398275"><ele>12.0</ele><time>2026-04-29T18:06:07Z</time></trkpt><trkpt lat="43.84498431392999" lon="10.598815110928983"><ele>11.5</ele><time>2026-04-29T18:06:08Z</time></trkpt><trkpt lat="43.84519395746681" lon="10.598506801398628"><ele>11.0</ele><time>2026-04-29T18:06:09Z</time></trkpt><trkpt lat="43.845417508201564" lon="10.598211754988263"><ele>11.0</ele><time>2026-04-29T18:06:10Z</time></trkpt><trkpt lat="43.84564657190407" lon="10.59790914915245"><ele>11.0</ele><time>2026-04-29T18:06:11Z</time></trkpt><trkpt lat="43.84587278190303" lon="10.597607389791536"><ele>10.5</ele><time>2026-04-29T18:06:12Z</time></trkpt><trkpt lat="43.846098681005266" lon="10.597299213569997"><ele>10.0</ele><time>2026-04-29T18:06:13Z</time></trkpt><trkpt lat="43.846327427051314" lon="10.596985354846709"><ele>11.0</ele><time>2026-04-29T18:06:14Z</time></trkpt><trkpt lat="43.846552829566164" lon="10.596674715653956"><ele>12.0</ele><time>2026-04-29T18:06:15Z</time></trkpt><trkpt lat="43.84679027494595" lon="10.596377602576643"><ele>12.5</ele><time>2026-04-29T18:06:16Z</time></trkpt><trkpt lat="43.84703480292864" lon="10.596047890262737"><ele>13.0</ele><time>2026-04-29T18:06:17Z</time></trkpt><trkpt lat="43.84729226369393" lon="10.595703425489956"><ele>13.0</ele><time>2026-04-29T18:06:18Z</time></trkpt><trkpt lat="43.84755252220665" lon="10.595348230853558"><ele>13.0</ele><time>2026-04-29T18:06:19Z</time></trkpt><trkpt lat="43.84782094545428" lon="10.595004388301712"><ele>13.5</ele><time>2026-04-29T18:06:20Z</time></trkpt><trkpt lat="43.84807213475986" lon="10.594649297507386"><ele>14.0</ele><time>2026-04-29T18:06:21Z</time></trkpt><trkpt lat="43.848314101363066" lon="10.594284427782753"><ele>15.5</ele><time>2026-04-29T18:06:22Z</time></trkpt><trkpt lat="43.8485651049063" lon="10.5939704023771"><ele>17.0</ele><time>2026-04-29T18:06:23Z</time></trkpt><trkpt lat="43.84878487566848" lon="10.593673073084517"><ele>16.5</ele><time>2026-04-29T18:06:24Z</time></trkpt><trkpt lat="43.84898924937243" lon="10.59337440813724"><ele>16.0</ele><time>2026-04-29T18:06:25Z</time></trkpt><trkpt lat="43.84920929731692" lon="10.59308745042806"><ele>15.5</ele><time>2026-04-29T18:06:26Z</time></trkpt><trkpt lat="43.8494329648973" lon="10.592782005730324"><ele>15.0</ele><time>2026-04-29T18:06:27Z</time></trkpt><trkpt lat="43.84966442412368" lon="10.592463868873148"><ele>15.0</ele><time>2026-04-29T18:06:28Z</time></trkpt><trkpt lat="43.8499080260801" lon="10.592133267084337"><ele>15.0</ele><time>2026-04-29T18:06:29Z</time></trkpt><trkpt lat="43.850158051660664" lon="10.591796821638788"><ele>15.0</ele><time>2026-04-29T18:06:30Z</time></trkpt><trkpt lat="43.85041075123102" lon="10.59146042559818"><ele>15.0</ele><time>2026-04-29T18:06:31Z</time></trkpt><trkpt lat="43.8506668741398" lon="10.591121168175519"><ele>15.0</ele><time>2026-04-29T18:06:32Z</time></trkpt><trkpt lat="43.850930089177794" lon="10.590781827262434"><ele>15.0</ele><time>2026-04-29T18:06:33Z</time></trkpt><trkpt lat="43.85118795900111" lon="10.590442386954106"><ele>15.0</ele><time>2026-04-29T18:06:34Z</time></trkpt><trkpt lat="43.85144503664531" lon="10.590097153862311"><ele>15.0</ele><time>2026-04-29T18:06:35Z</time></trkpt><trkpt lat="43.851695865200305" lon="10.589751691933795"><ele>15.0</ele><time>2026-04-29T18:06:36Z</time></trkpt><trkpt lat="43.851929688135584" lon="10.589425953584502"><ele>15.0</ele><time>2026-04-29T18:06:37Z</time></trkpt><trkpt lat="43.85213963648033" lon="10.589134942465721"><ele>15.0</ele><time>2026-04-29T18:06:38Z</time></trkpt><trkpt lat="43.85232441621157" lon="10.588878255313476"><ele>15.0</ele><time>2026-04-29T18:06:39Z</time></trkpt><trkpt lat="43.852500017295206" lon="10.588641114644306"><ele>13.5</ele><time>2026-04-29T18:06:40Z</time></trkpt><trkpt lat="43.85267233496393" lon="10.588415639751343"><ele>12.0</ele><time>2026-04-29T18:06:41Z</time></trkpt><trkpt lat="43.85282952207834" lon="10.588197996187008"><ele>12.0</ele><time>2026-04-29T18:06:42Z</time></trkpt><trkpt lat="43.85296422474294" lon="10.588008392054173"><ele>12.0</ele><time>2026-04-29T18:06:43Z</time></trkpt><trkpt lat="43.853087655991935" lon="10.587837556613524"><ele>12.0</ele><time>2026-04-29T18:06:44Z</time></trkpt><trkpt lat="43.85320290834437" lon="10.58767459265011"><ele>11.666666666666666</ele><time>2026-04-29T18:06:45Z</time></trkpt><trkpt lat="43.85332591934114" lon="10.58750852858053"><ele>11.333333333333332</ele><time>2026-04-29T18:06:46Z</time></trkpt><trkpt lat="43.85346070115035" lon="10.587330604630255"><ele>11.0</ele><time>2026-04-29T18:06:47Z</time></trkpt><trkpt lat="43.85360274223505" lon="10.587139712581834"><ele>11.666666666666666</ele><time>2026-04-29T18:06:48Z</time></trkpt><trkpt lat="43.853747160423715" lon="10.586937883845179"><ele>12.333333333333332</ele><time>2026-04-29T18:06:49Z</time></trkpt><trkpt lat="43.8538932173756" lon="10.586739599927633"><ele>13.0</ele><time>2026-04-29T18:06:50Z</time></trkpt><trkpt lat="43.854028480759126" lon="10.58655674229628"><ele>13.0</ele><time>2026-04-29T18:06:51Z</time></trkpt><trkpt lat="43.854157996155266" lon="10.586373267988188"><ele>13.0</ele><time>2026-04-29T18:06:52Z</time></trkpt><trkpt lat="43.85427866582819" lon="10.586181447265501"><ele>13.0</ele><time>2026-04-29T18:06:53Z</time></trkpt><trkpt lat="43.854397327176564" lon="10.585968124358077"><ele>14.5</ele><time>2026-04-29T18:06:54Z</time></trkpt><trkpt lat="43.8545318850537" lon="10.585699960182577"><ele>16.0</ele><time>2026-04-29T18:06:55Z</time></trkpt><trkpt lat="43.85468352031935" lon="10.585382841213574"><ele>14.5</ele><time>2026-04-29T18:06:56Z</time></trkpt><trkpt lat="43.8548394809381" lon="10.585006116757956"><ele>13.0</ele><time>2026-04-29T18:06:57Z</time></trkpt><trkpt lat="43.85496416209316" lon="10.584629456755493"><ele>13.5</ele><time>2026-04-29T18:06:58Z</time></trkpt><trkpt lat="43.855056639259345" lon="10.584290534534471"><ele>14.0</ele><time>2026-04-29T18:06:59Z</time></trkpt><trkpt lat="43.85515619675977" lon="10.583986531935079"><ele>15.0</ele><time>2026-04-29T18:07:00Z</time></trkpt><trkpt lat="43.85526311926403" lon="10.583716985870463"><ele>16.0</ele><time>2026-04-29T18:07:01Z</time></trkpt><trkpt lat="43.85538405195898" lon="10.58347438296712"><ele>17.0</ele><time>2026-04-29T18:07:02Z</time></trkpt><trkpt lat="43.85551372511729" lon="10.583261846660047"><ele>17.333333333333336</ele><time>2026-04-29T18:07:03Z</time></trkpt><trkpt lat="43.8556512021857" lon="10.583085233598046"><ele>17.666666666666668</ele><time>2026-04-29T18:07:04Z</time></trkpt><trkpt lat="43.855804665869556" lon="10.582963370903288"><ele>18.0</ele><time>2026-04-29T18:07:05Z</time></trkpt><trkpt lat="43.85595378086412" lon="10.58286046258402"><ele>17.333333333333332</ele><time>2026-04-29T18:07:06Z</time></trkpt><trkpt lat="43.856094264166416" lon="10.58274761103924"><ele>16.666666666666664</ele><time>2026-04-29T18:07:07Z</time></trkpt><trkpt lat="43.8562475157855" lon="10.582637681538708"><ele>16.0</ele><time>2026-04-29T18:07:08Z</time></trkpt><trkpt lat="43.85641257476875" lon="10.58256141893185"><ele>16.0</ele><time>2026-04-29T18:07:08.999Z</time></trkpt><trkpt lat="43.856583896418336" lon="10.582508469819967"><ele>16.0</ele><time>2026-04-29T18:07:09.999Z</time></trkpt><trkpt lat="43.85675859039314" lon="10.582467323185847"><ele>16.0</ele><time>2026-04-29T18:07:10.999Z</time></trkpt><trkpt lat="43.85692375217986" lon="10.582445104309153"><ele>16.0</ele><time>2026-04-29T18:07:12Z</time></trkpt><trkpt lat="43.857072002714304" lon="10.582450866779098"><ele>16.0</ele><time>2026-04-29T18:07:13Z</time></trkpt><trkpt lat="43.857196748301384" lon="10.582469523696226"><ele>16.0</ele><time>2026-04-29T18:07:14Z</time></trkpt><trkpt lat="43.857296908446656" lon="10.582496832814776"><ele>16.0</ele><time>2026-04-29T18:07:15Z</time></trkpt><trkpt lat="43.85737018742153" lon="10.582535251706423"><ele>15.999999999999998</ele><time>2026-04-29T18:07:16Z</time></trkpt><trkpt lat="43.85743234085254" lon="10.582590391417149"><ele>16.0</ele><time>2026-04-29T18:07:17Z</time></trkpt><trkpt lat="43.85748803538743" lon="10.582646611004085"><ele>16.0</ele><time>2026-04-29T18:07:18Z</time></trkpt><trkpt lat="43.8575537123632" lon="10.582682608001573"><ele>16.0</ele><time>2026-04-29T18:07:19Z</time></trkpt><trkpt lat="43.857619728165965" lon="10.582669889703462"><ele>15.999999999999998</ele><time>2026-04-29T18:07:20Z</time></trkpt><trkpt lat="43.85769183828009" lon="10.582566256628358"><ele>16.0</ele><time>2026-04-29T18:07:22Z</time></trkpt><trkpt lat="43.857687062448115" lon="10.582384947571148"><ele>16.400000000000002</ele><time>2026-04-29T18:07:24Z</time></trkpt><trkpt lat="43.857661077831345" lon="10.582282841905455"><ele>16.8</ele><time>2026-04-29T18:07:25Z</time></trkpt><trkpt lat="43.85764533487206" lon="10.582161347127302"><ele>17.200000000000003</ele><time>2026-04-29T18:07:26Z</time></trkpt><trkpt lat="43.85765281181877" lon="10.582019908986702"><ele>17.6</ele><time>2026-04-29T18:07:27Z</time></trkpt><trkpt lat="43.85764870700907" lon="10.581853308674113"><ele>18.0</ele><time>2026-04-29T18:07:28Z</time></trkpt><trkpt lat="43.85762201354422" lon="10.58162808441206"><ele>17.666666666666668</ele><time>2026-04-29T18:07:29Z</time></trkpt><trkpt lat="43.857589218660685" lon="10.581367116362584"><ele>17.333333333333336</ele><time>2026-04-29T18:07:30Z</time></trkpt><trkpt lat="43.85755388340551" lon="10.58107622460513"><ele>17.0</ele><time>2026-04-29T18:07:31Z</time></trkpt><trkpt lat="43.857517192819095" lon="10.580762933745383"><ele>17.0</ele><time>2026-04-29T18:07:32Z</time></trkpt><trkpt lat="43.85747775857664" lon="10.580429249558504"><ele>17.0</ele><time>2026-04-29T18:07:33Z</time></trkpt><trkpt lat="43.85743542184633" lon="10.580076307323324"><ele>17.0</ele><time>2026-04-29T18:07:34Z</time></trkpt><trkpt lat="43.857389759929966" lon="10.579709511782434"><ele>17.0</ele><time>2026-04-29T18:07:35Z</time></trkpt><trkpt lat="43.85734192183494" lon="10.579325948342904"><ele>17.0</ele><time>2026-04-29T18:07:36Z</time></trkpt><trkpt lat="43.85729396288334" lon="10.578930202437553"><ele>17.0</ele><time>2026-04-29T18:07:37Z</time></trkpt><trkpt lat="43.85724488067899" lon="10.57852454611042"><ele>17.5</ele><time>2026-04-29T18:07:38Z</time></trkpt><trkpt lat="43.85719580728454" lon="10.578108810498588"><ele>18.0</ele><time>2026-04-29T18:07:39Z</time></trkpt><trkpt lat="43.85714650985787" lon="10.57768930408207"><ele>18.0</ele><time>2026-04-29T18:07:40Z</time></trkpt><trkpt lat="43.857098806744894" lon="10.577275822092414"><ele>18.0</ele><time>2026-04-29T18:07:41Z</time></trkpt><trkpt lat="43.857052235403415" lon="10.576869946448443"><ele>17.5</ele><time>2026-04-29T18:07:42Z</time></trkpt><trkpt lat="43.85700665756269" lon="10.57648811412688"><ele>17.0</ele><time>2026-04-29T18:07:43Z</time></trkpt><trkpt lat="43.856966084005435" lon="10.576153073207578"><ele>16.666666666666668</ele><time>2026-04-29T18:07:44Z</time></trkpt><trkpt lat="43.856925705927836" lon="10.57585048395227"><ele>16.333333333333332</ele><time>2026-04-29T18:07:45Z</time></trkpt><trkpt lat="43.85688974558719" lon="10.575579540511425"><ele>16.0</ele><time>2026-04-29T18:07:46Z</time></trkpt><trkpt lat="43.85686031513783" lon="10.575337045977344"><ele>16.0</ele><time>2026-04-29T18:07:47Z</time></trkpt><trkpt lat="43.85683210643785" lon="10.575104708059579"><ele>16.0</ele><time>2026-04-29T18:07:48Z</time></trkpt><trkpt lat="43.8568045747848" lon="10.574862630760272"><ele>16.0</ele><time>2026-04-29T18:07:49Z</time></trkpt><trkpt lat="43.85677549268437" lon="10.574618226300824"><ele>16.666666666666664</ele><time>2026-04-29T18:07:50Z</time></trkpt><trkpt lat="43.85674112572322" lon="10.574376648663232"><ele>17.333333333333332</ele><time>2026-04-29T18:07:51Z</time></trkpt><trkpt lat="43.85670695728078" lon="10.574129690233145"><ele>18.0</ele><time>2026-04-29T18:07:52Z</time></trkpt><trkpt lat="43.85667637101495" lon="10.573902721658296"><ele>17.666666666666668</ele><time>2026-04-29T18:07:53Z</time></trkpt><trkpt lat="43.856644968975914" lon="10.57367284588086"><ele>17.333333333333336</ele><time>2026-04-29T18:07:54Z</time></trkpt><trkpt lat="43.85660860267686" lon="10.573433730402103"><ele>17.0</ele><time>2026-04-29T18:07:55Z</time></trkpt><trkpt lat="43.85658125013672" lon="10.573215758900998"><ele>17.0</ele><time>2026-04-29T18:07:56Z</time></trkpt><trkpt lat="43.85656405622511" lon="10.573030791895594"><ele>17.0</ele><time>2026-04-29T18:07:57Z</time></trkpt><trkpt lat="43.856547080220906" lon="10.572884887921258"><ele>17.0</ele><time>2026-04-29T18:07:58Z</time></trkpt><trkpt lat="43.85653197857337" lon="10.572775868460194"><ele>17.0</ele><time>2026-04-29T18:07:59Z</time></trkpt><trkpt lat="43.85651993288838" lon="10.572674071794282"><ele>17.0</ele><time>2026-04-29T18:08:00Z</time></trkpt><trkpt lat="43.856523687437" lon="10.572560326354289"><ele>17.0</ele><time>2026-04-29T18:08:01Z</time></trkpt><trkpt lat="43.85655509679589" lon="10.572456857528381"><ele>17.0</ele><time>2026-04-29T18:08:02Z</time></trkpt><trkpt lat="43.85660157994178" lon="10.572377414900377"><ele>17.0</ele><time>2026-04-29T18:08:03Z</time></trkpt><trkpt lat="43.85662173586346" lon="10.572287481335234"><ele>17.0</ele><time>2026-04-29T18:08:04Z</time></trkpt><trkpt lat="43.856602341304" lon="10.57212967275992"><ele>17.0</ele><time>2026-04-29T18:08:06Z</time></trkpt><trkpt lat="43.85651462567164" lon="10.572072106277032"><ele>17.0</ele><time>2026-04-29T18:08:07Z</time></trkpt><trkpt lat="43.85646561750818" lon="10.571976538306721"><ele>17.5</ele><time>2026-04-29T18:08:08Z</time></trkpt><trkpt lat="43.85642253412468" lon="10.571836336425099"><ele>18.0</ele><time>2026-04-29T18:08:09Z</time></trkpt><trkpt lat="43.8563895006527" lon="10.571659897840483"><ele>18.5</ele><time>2026-04-29T18:08:10Z</time></trkpt><trkpt lat="43.85637255380113" lon="10.571451149037772"><ele>19.0</ele><time>2026-04-29T18:08:11Z</time></trkpt><trkpt lat="43.85635575277663" lon="10.571223594704307"><ele>20.0</ele><time>2026-04-29T18:08:12Z</time></trkpt><trkpt lat="43.85633519186031" lon="10.570977523059424"><ele>21.0</ele><time>2026-04-29T18:08:13Z</time></trkpt><trkpt lat="43.85630714563761" lon="10.570718135674248"><ele>22.0</ele><time>2026-04-29T18:08:14Z</time></trkpt><trkpt lat="43.85626924965244" lon="10.5704509410241"><ele>21.0</ele><time>2026-04-29T18:08:15Z</time></trkpt><trkpt lat="43.856231062925886" lon="10.570174105052091"><ele>20.0</ele><time>2026-04-29T18:08:16Z</time></trkpt><trkpt lat="43.856191294915924" lon="10.569889247288211"><ele>19.0</ele><time>2026-04-29T18:08:17Z</time></trkpt><trkpt lat="43.85615367845711" lon="10.569609626807182"><ele>19.0</ele><time>2026-04-29T18:08:18Z</time></trkpt><trkpt lat="43.85611441700145" lon="10.569337141379142"><ele>19.0</ele><time>2026-04-29T18:08:19Z</time></trkpt><trkpt lat="43.85607769845217" lon="10.569063565123168"><ele>19.0</ele><time>2026-04-29T18:08:20Z</time></trkpt><trkpt lat="43.85604378042145" lon="10.568790611077352"><ele>19.0</ele><time>2026-04-29T18:08:21Z</time></trkpt><trkpt lat="43.85601299127926" lon="10.568517166709642"><ele>19.0</ele><time>2026-04-29T18:08:22Z</time></trkpt><trkpt lat="43.85598284476593" lon="10.568241492004184"><ele>19.0</ele><time>2026-04-29T18:08:23Z</time></trkpt><trkpt lat="43.855950224481774" lon="10.567961437979442"><ele>19.0</ele><time>2026-04-29T18:08:24Z</time></trkpt><trkpt lat="43.855914495818055" lon="10.567681308381754"><ele>19.0</ele><time>2026-04-29T18:08:25Z</time></trkpt><trkpt lat="43.855877620766826" lon="10.567399021081558"><ele>19.0</ele><time>2026-04-29T18:08:26Z</time></trkpt><trkpt lat="43.85583989088053" lon="10.567115084156047"><ele>19.0</ele><time>2026-04-29T18:08:27Z</time></trkpt><trkpt lat="43.85580775327508" lon="10.566828342177024"><ele>19.0</ele><time>2026-04-29T18:08:28Z</time></trkpt><trkpt lat="43.85577714150937" lon="10.56653572203378"><ele>19.0</ele><time>2026-04-29T18:08:29Z</time></trkpt><trkpt lat="43.855741108729525" lon="10.566232943463197"><ele>19.0</ele><time>2026-04-29T18:08:30Z</time></trkpt><trkpt lat="43.85570423659738" lon="10.565923561027082"><ele>19.0</ele><time>2026-04-29T18:08:31Z</time></trkpt><trkpt lat="43.85566433337467" lon="10.565606033772625"><ele>18.0</ele><time>2026-04-29T18:08:32Z</time></trkpt><trkpt lat="43.855622815374296" lon="10.565285606756854"><ele>17.0</ele><time>2026-04-29T18:08:33Z</time></trkpt><trkpt lat="43.85558024621532" lon="10.564958186701325"><ele>17.0</ele><time>2026-04-29T18:08:34Z</time></trkpt><trkpt lat="43.85554081756399" lon="10.56462574043614"><ele>17.0</ele><time>2026-04-29T18:08:35Z</time></trkpt><trkpt lat="43.855498806773674" lon="10.564286954307422"><ele>17.0</ele><time>2026-04-29T18:08:36Z</time></trkpt><trkpt lat="43.85545487118901" lon="10.563944531558686"><ele>17.0</ele><time>2026-04-29T18:08:37Z</time></trkpt><trkpt lat="43.85541031627162" lon="10.56362558332807"><ele>17.333333333333336</ele><time>2026-04-29T18:08:38Z</time></trkpt><trkpt lat="43.855373916955" lon="10.563325496497676"><ele>17.666666666666668</ele><time>2026-04-29T18:08:39Z</time></trkpt><trkpt lat="43.8553364545313" lon="10.5630398001626"><ele>18.0</ele><time>2026-04-29T18:08:40Z</time></trkpt><trkpt lat="43.855301463553424" lon="10.56276506989875"><ele>18.0</ele><time>2026-04-29T18:08:41Z</time></trkpt><trkpt lat="43.855270669813585" lon="10.56250664280063"><ele>18.0</ele><time>2026-04-29T18:08:42Z</time></trkpt><trkpt lat="43.85524144995108" lon="10.562261499857582"><ele>18.0</ele><time>2026-04-29T18:08:43Z</time></trkpt><trkpt lat="43.855208900928986" lon="10.562019632939615"><ele>18.333333333333332</ele><time>2026-04-29T18:08:44Z</time></trkpt><trkpt lat="43.85516892013776" lon="10.561756151229089"><ele>18.666666666666664</ele><time>2026-04-29T18:08:45Z</time></trkpt><trkpt lat="43.85513650404452" lon="10.561500493173064"><ele>19.0</ele><time>2026-04-29T18:08:46Z</time></trkpt><trkpt lat="43.8551116749937" lon="10.5612807822896"><ele>19.0</ele><time>2026-04-29T18:08:47Z</time></trkpt><trkpt lat="43.85509111218462" lon="10.561081740012371"><ele>19.0</ele><time>2026-04-29T18:08:48Z</time></trkpt><trkpt lat="43.85507485623885" lon="10.560908101394833"><ele>19.0</ele><time>2026-04-29T18:08:49Z</time></trkpt><trkpt lat="43.85506463647782" lon="10.560770465657066"><ele>19.0</ele><time>2026-04-29T18:08:50Z</time></trkpt><trkpt lat="43.85507121885014" lon="10.560656861571996"><ele>19.0</ele><time>2026-04-29T18:08:51Z</time></trkpt><trkpt lat="43.855108335822216" lon="10.56056569166577"><ele>19.0</ele><time>2026-04-29T18:08:52Z</time></trkpt><trkpt lat="43.85515354504934" lon="10.560490496365382"><ele>19.0</ele><time>2026-04-29T18:08:53Z</time></trkpt><trkpt lat="43.85512133608422" lon="10.560328956010416"><ele>19.0</ele><time>2026-04-29T18:08:55Z</time></trkpt><trkpt lat="43.85506533128754" lon="10.560282975467778"><ele>19.0</ele><time>2026-04-29T18:08:56Z</time></trkpt><trkpt lat="43.855018805628276" lon="10.56022168151399"><ele>19.0</ele><time>2026-04-29T18:08:57Z</time></trkpt><trkpt lat="43.85498321996564" lon="10.560140423834605"><ele>19.0</ele><time>2026-04-29T18:08:58Z</time></trkpt><trkpt lat="43.85496511076761" lon="10.560041781522573"><ele>19.0</ele><time>2026-04-29T18:08:59Z</time></trkpt><trkpt lat="43.854947713040616" lon="10.559943969431371"><ele>19.0</ele><time>2026-04-29T18:09:00Z</time></trkpt><trkpt lat="43.854926810723406" lon="10.559811402125888"><ele>19.0</ele><time>2026-04-29T18:09:02Z</time></trkpt><trkpt lat="43.85491312946887" lon="10.559661827396045"><ele>19.0</ele><time>2026-04-29T18:09:04Z</time></trkpt><trkpt lat="43.85487679698051" lon="10.559526204368916"><ele>19.333333333333332</ele><time>2026-04-29T18:09:06Z</time></trkpt><trkpt lat="43.8548580163172" lon="10.559438311635644"><ele>19.666666666666664</ele><time>2026-04-29T18:09:07Z</time></trkpt><trkpt lat="43.85487955134221" lon="10.559328014645283"><ele>20.0</ele><time>2026-04-29T18:09:08Z</time></trkpt><trkpt lat="43.854900103018295" lon="10.559230862811594"><ele>20.333333333333332</ele><time>2026-04-29T18:09:09Z</time></trkpt><trkpt lat="43.85485773948586" lon="10.559120737038159"><ele>20.666666666666668</ele><time>2026-04-29T18:09:10Z</time></trkpt><trkpt lat="43.85484347131419" lon="10.559006318839865"><ele>21.0</ele><time>2026-04-29T18:09:11Z</time></trkpt><trkpt lat="43.854829760572464" lon="10.558884511690888"><ele>21.0</ele><time>2026-04-29T18:09:12Z</time></trkpt><trkpt lat="43.85481547790385" lon="10.558758295423443"><ele>21.0</ele><time>2026-04-29T18:09:13Z</time></trkpt><trkpt lat="43.85480272051508" lon="10.558652134560935"><ele>21.0</ele><time>2026-04-29T18:09:13.999Z</time></trkpt><trkpt lat="43.854790928365404" lon="10.558547639144535"><ele>21.0</ele><time>2026-04-29T18:09:14.999Z</time></trkpt><trkpt lat="43.85477667500692" lon="10.558433901433704"><ele>21.0</ele><time>2026-04-29T18:09:15.999Z</time></trkpt><trkpt lat="43.85475796975875" lon="10.558294407395946"><ele>21.0</ele><time>2026-04-29T18:09:16.999Z</time></trkpt><trkpt lat="43.85473051684541" lon="10.558124553954375"><ele>21.0</ele><time>2026-04-29T18:09:18Z</time></trkpt><trkpt lat="43.85471850421616" lon="10.557925316761606"><ele>21.0</ele><time>2026-04-29T18:09:19Z</time></trkpt><trkpt lat="43.854670775362386" lon="10.557711858867316"><ele>21.0</ele><time>2026-04-29T18:09:20Z</time></trkpt><trkpt lat="43.854647596691194" lon="10.557480252588748"><ele>21.0</ele><time>2026-04-29T18:09:21Z</time></trkpt><trkpt lat="43.854626874538766" lon="10.557252242419596"><ele>21.0</ele><time>2026-04-29T18:09:22Z</time></trkpt><trkpt lat="43.85460435387335" lon="10.557035226135014"><ele>21.0</ele><time>2026-04-29T18:09:23Z</time></trkpt><trkpt lat="43.854579964259436" lon="10.556827299128157"><ele>20.333333333333332</ele><time>2026-04-29T18:09:24Z</time></trkpt><trkpt lat="43.85455455764497" lon="10.556624339902836"><ele>19.666666666666664</ele><time>2026-04-29T18:09:25Z</time></trkpt><trkpt lat="43.85453116119353" lon="10.556422001911693"><ele>19.0</ele><time>2026-04-29T18:09:26Z</time></trkpt><trkpt lat="43.85450497034708" lon="10.556210502450329"><ele>19.0</ele><time>2026-04-29T18:09:27Z</time></trkpt><trkpt lat="43.854474344918046" lon="10.555995812894693"><ele>19.0</ele><time>2026-04-29T18:09:28Z</time></trkpt><trkpt lat="43.85443741313634" lon="10.555772305868766"><ele>19.0</ele><time>2026-04-29T18:09:29Z</time></trkpt><trkpt lat="43.854404168715924" lon="10.555536173806143"><ele>19.0</ele><time>2026-04-29T18:09:30Z</time></trkpt><trkpt lat="43.85438091968721" lon="10.555289425682927"><ele>19.0</ele><time>2026-04-29T18:09:31Z</time></trkpt><trkpt lat="43.8543566124857" lon="10.555031044354184"><ele>19.0</ele><time>2026-04-29T18:09:32Z</time></trkpt><trkpt lat="43.854327936619725" lon="10.554759524726844"><ele>18.666666666666664</ele><time>2026-04-29T18:09:33Z</time></trkpt><trkpt lat="43.854295776235745" lon="10.554478509713023"><ele>18.333333333333332</ele><time>2026-04-29T18:09:34Z</time></trkpt><trkpt lat="43.85425996043439" lon="10.554185639696366"><ele>18.0</ele><time>2026-04-29T18:09:35Z</time></trkpt><trkpt lat="43.85422122165978" lon="10.553889348625216"><ele>18.333333333333332</ele><time>2026-04-29T18:09:36Z</time></trkpt><trkpt lat="43.85418122066627" lon="10.55358478587225"><ele>18.666666666666664</ele><time>2026-04-29T18:09:37Z</time></trkpt><trkpt lat="43.854142868283716" lon="10.553277719936641"><ele>19.0</ele><time>2026-04-29T18:09:38Z</time></trkpt><trkpt lat="43.854105218486495" lon="10.552960670118877"><ele>19.0</ele><time>2026-04-29T18:09:39Z</time></trkpt><trkpt lat="43.85406623450973" lon="10.552640244752132"><ele>19.0</ele><time>2026-04-29T18:09:40Z</time></trkpt><trkpt lat="43.854026498094804" lon="10.552313565796284"><ele>19.0</ele><time>2026-04-29T18:09:41Z</time></trkpt><trkpt lat="43.85398870953533" lon="10.551983817728456"><ele>19.0</ele><time>2026-04-29T18:09:42Z</time></trkpt><trkpt lat="43.85395036004154" lon="10.551651455561544"><ele>19.0</ele><time>2026-04-29T18:09:43Z</time></trkpt><trkpt lat="43.85391040994856" lon="10.551315697504421"><ele>19.0</ele><time>2026-04-29T18:09:44Z</time></trkpt><trkpt lat="43.85387010010372" lon="10.550979618048391"><ele>19.0</ele><time>2026-04-29T18:09:45Z</time></trkpt><trkpt lat="43.85382995446978" lon="10.550643928733868"><ele>19.0</ele><time>2026-04-29T18:09:46Z</time></trkpt><trkpt lat="43.8537925972912" lon="10.550323789825384"><ele>19.0</ele><time>2026-04-29T18:09:47Z</time></trkpt><trkpt lat="43.85375581920384" lon="10.550019480752935"><ele>19.0</ele><time>2026-04-29T18:09:48Z</time></trkpt><trkpt lat="43.853720708856045" lon="10.549735247517075"><ele>19.0</ele><time>2026-04-29T18:09:49Z</time></trkpt><trkpt lat="43.8536893295323" lon="10.549475632645017"><ele>19.5</ele><time>2026-04-29T18:09:50Z</time></trkpt><trkpt lat="43.85365986888882" lon="10.549243262266645"><ele>20.0</ele><time>2026-04-29T18:09:51Z</time></trkpt><trkpt lat="43.853635378979014" lon="10.549039760809672"><ele>20.5</ele><time>2026-04-29T18:09:52Z</time></trkpt><trkpt lat="43.85361642761609" lon="10.548879119750199"><ele>21.0</ele><time>2026-04-29T18:09:53Z</time></trkpt><trkpt lat="43.853611184207814" lon="10.548760820374488"><ele>21.0</ele><time>2026-04-29T18:09:54Z</time></trkpt><trkpt lat="43.85368895174735" lon="10.548684579051855"><ele>21.0</ele><time>2026-04-29T18:09:56Z</time></trkpt><trkpt lat="43.853779202413094" lon="10.548687595021235"><ele>21.0</ele><time>2026-04-29T18:09:57Z</time></trkpt><trkpt lat="43.85389226161756" lon="10.548719378154141"><ele>21.0</ele><time>2026-04-29T18:09:58Z</time></trkpt><trkpt lat="43.85403715701128" lon="10.548732812643118"><ele>21.0</ele><time>2026-04-29T18:09:59Z</time></trkpt><trkpt lat="43.854198462369425" lon="10.54874750115608"><ele>21.333333333333332</ele><time>2026-04-29T18:10:00Z</time></trkpt><trkpt lat="43.854373977892905" lon="10.548763483649447"><ele>21.666666666666664</ele><time>2026-04-29T18:10:01Z</time></trkpt><trkpt lat="43.85456902985603" lon="10.548781245138109"><ele>22.0</ele><time>2026-04-29T18:10:02Z</time></trkpt><trkpt lat="43.85477776774756" lon="10.548781724302492"><ele>22.0</ele><time>2026-04-29T18:10:03Z</time></trkpt><trkpt lat="43.85499658828086" lon="10.548809831483918"><ele>22.0</ele><time>2026-04-29T18:10:04Z</time></trkpt><trkpt lat="43.85521787399523" lon="10.548821484740614"><ele>22.0</ele><time>2026-04-29T18:10:05Z</time></trkpt><trkpt lat="43.8554487526143" lon="10.54886376454975"><ele>21.0</ele><time>2026-04-29T18:10:06Z</time></trkpt><trkpt lat="43.85568406892453" lon="10.548867096435794"><ele>20.0</ele><time>2026-04-29T18:10:07Z</time></trkpt><trkpt lat="43.85591786315123" lon="10.548892294984052"><ele>20.5</ele><time>2026-04-29T18:10:08Z</time></trkpt><trkpt lat="43.8561500023975" lon="10.548919060557346"><ele>21.0</ele><time>2026-04-29T18:10:09Z</time></trkpt><trkpt lat="43.8563834855138" lon="10.548943617866215"><ele>21.0</ele><time>2026-04-29T18:10:10Z</time></trkpt><trkpt lat="43.8565816401787" lon="10.548969933237712"><ele>21.0</ele><time>2026-04-29T18:10:11Z</time></trkpt><trkpt lat="43.856754066629954" lon="10.548986840994875"><ele>21.0</ele><time>2026-04-29T18:10:12Z</time></trkpt><trkpt lat="43.856895820907184" lon="10.548999018087425"><ele>21.0</ele><time>2026-04-29T18:10:13Z</time></trkpt><trkpt lat="43.85699618708851" lon="10.549002021955504"><ele>21.0</ele><time>2026-04-29T18:10:14Z</time></trkpt><trkpt lat="43.85707475195442" lon="10.548860438978002"><ele>21.0</ele><time>2026-04-29T18:10:17Z</time></trkpt><trkpt lat="43.85709733414326" lon="10.548693330591284"><ele>21.0</ele><time>2026-04-29T18:10:18Z</time></trkpt><trkpt lat="43.85713386849744" lon="10.54849026989912"><ele>20.666666666666668</ele><time>2026-04-29T18:10:19Z</time></trkpt><trkpt lat="43.85718821749023" lon="10.548272747166878"><ele>20.333333333333336</ele><time>2026-04-29T18:10:20Z</time></trkpt><trkpt lat="43.85726430341109" lon="10.548051954365464"><ele>20.0</ele><time>2026-04-29T18:10:21Z</time></trkpt><trkpt lat="43.857359645159875" lon="10.547819938620643"><ele>20.0</ele><time>2026-04-29T18:10:22Z</time></trkpt><trkpt lat="43.857444410641534" lon="10.54756453961744"><ele>20.0</ele><time>2026-04-29T18:10:23Z</time></trkpt><trkpt lat="43.857503640629325" lon="10.54728004390221"><ele>20.0</ele><time>2026-04-29T18:10:24Z</time></trkpt><trkpt lat="43.85755139241082" lon="10.546979861148463"><ele>19.5</ele><time>2026-04-29T18:10:25Z</time></trkpt><trkpt lat="43.857596636821306" lon="10.546666219929966"><ele>19.0</ele><time>2026-04-29T18:10:26Z</time></trkpt><trkpt lat="43.85764795004574" lon="10.546338966870058"><ele>19.0</ele><time>2026-04-29T18:10:27Z</time></trkpt><trkpt lat="43.85769969859976" lon="10.546010752858406"><ele>19.0</ele><time>2026-04-29T18:10:28Z</time></trkpt><trkpt lat="43.857745355863074" lon="10.545673890206151"><ele>19.333333333333332</ele><time>2026-04-29T18:10:29Z</time></trkpt><trkpt lat="43.857787546001134" lon="10.545356869508579"><ele>19.666666666666668</ele><time>2026-04-29T18:10:30Z</time></trkpt><trkpt lat="43.857813998146874" lon="10.545071103615063"><ele>20.0</ele><time>2026-04-29T18:10:31Z</time></trkpt><trkpt lat="43.85783249863254" lon="10.544836122049306"><ele>20.0</ele><time>2026-04-29T18:10:32Z</time></trkpt><trkpt lat="43.85788799469133" lon="10.544649758181956"><ele>20.0</ele><time>2026-04-29T18:10:33Z</time></trkpt><trkpt lat="43.85790723469452" lon="10.544479594457684"><ele>20.0</ele><time>2026-04-29T18:10:34Z</time></trkpt><trkpt lat="43.8579324504639" lon="10.544347325169898"><ele>20.0</ele><time>2026-04-29T18:10:35Z</time></trkpt><trkpt lat="43.857960597517945" lon="10.544235912534724"><ele>20.0</ele><time>2026-04-29T18:10:36Z</time></trkpt><trkpt lat="43.85798352500752" lon="10.544103896192153"><ele>20.0</ele><time>2026-04-29T18:10:37Z</time></trkpt><trkpt lat="43.85800140829625" lon="10.543944410554195"><ele>20.0</ele><time>2026-04-29T18:10:38Z</time></trkpt><trkpt lat="43.85803935099944" lon="10.543799166950192"><ele>20.0</ele><time>2026-04-29T18:10:39Z</time></trkpt><trkpt lat="43.85807216517755" lon="10.543640848534112"><ele>20.0</ele><time>2026-04-29T18:10:40Z</time></trkpt><trkpt lat="43.85809870198363" lon="10.543464304258164"><ele>19.666666666666668</ele><time>2026-04-29T18:10:41Z</time></trkpt><trkpt lat="43.8581188113439" lon="10.54325996539138"><ele>19.333333333333332</ele><time>2026-04-29T18:10:42Z</time></trkpt><trkpt lat="43.85813028536522" lon="10.543023620065625"><ele>19.0</ele><time>2026-04-29T18:10:43Z</time></trkpt><trkpt lat="43.858152148820615" lon="10.542767306597641"><ele>19.666666666666664</ele><time>2026-04-29T18:10:44Z</time></trkpt><trkpt lat="43.858182106538045" lon="10.542495857632554"><ele>20.333333333333332</ele><time>2026-04-29T18:10:45Z</time></trkpt><trkpt lat="43.85820976968513" lon="10.542223252551779"><ele>21.0</ele><time>2026-04-29T18:10:46Z</time></trkpt><trkpt lat="43.85823799988225" lon="10.541957506478106"><ele>21.0</ele><time>2026-04-29T18:10:47Z</time></trkpt><trkpt lat="43.85826894291515" lon="10.541707135743255"><ele>21.0</ele><time>2026-04-29T18:10:48Z</time></trkpt><trkpt lat="43.858296791963205" lon="10.541452188873967"><ele>21.0</ele><time>2026-04-29T18:10:49Z</time></trkpt><trkpt lat="43.8583266696752" lon="10.54116148279166"><ele>21.333333333333332</ele><time>2026-04-29T18:10:50Z</time></trkpt><trkpt lat="43.85835776947366" lon="10.540873540774554"><ele>21.666666666666664</ele><time>2026-04-29T18:10:51Z</time></trkpt><trkpt lat="43.85840539130712" lon="10.540610171351407"><ele>22.0</ele><time>2026-04-29T18:10:52Z</time></trkpt><trkpt lat="43.858466603042764" lon="10.540357544242076"><ele>22.0</ele><time>2026-04-29T18:10:53Z</time></trkpt><trkpt lat="43.85852690250597" lon="10.540104690260465"><ele>22.0</ele><time>2026-04-29T18:10:54Z</time></trkpt><trkpt lat="43.85856861021366" lon="10.539832758605844"><ele>22.0</ele><time>2026-04-29T18:10:55Z</time></trkpt><trkpt lat="43.85859035504065" lon="10.539552772637666"><ele>21.666666666666664</ele><time>2026-04-29T18:10:56Z</time></trkpt><trkpt lat="43.85859875708776" lon="10.539264374507198"><ele>21.333333333333332</ele><time>2026-04-29T18:10:57Z</time></trkpt><trkpt lat="43.85860905215099" lon="10.538977410669512"><ele>21.0</ele><time>2026-04-29T18:10:58Z</time></trkpt><trkpt lat="43.858623907170504" lon="10.538674891946798"><ele>20.5</ele><time>2026-04-29T18:10:59Z</time></trkpt><trkpt lat="43.858643901453284" lon="10.538344017698181"><ele>20.0</ele><time>2026-04-29T18:11:00Z</time></trkpt><trkpt lat="43.8586639432675" lon="10.537998889611822"><ele>20.0</ele><time>2026-04-29T18:11:01Z</time></trkpt><trkpt lat="43.85868199896861" lon="10.537651566720744"><ele>20.0</ele><time>2026-04-29T18:11:02Z</time></trkpt><trkpt lat="43.85869899677213" lon="10.537318046444213"><ele>21.0</ele><time>2026-04-29T18:11:03Z</time></trkpt><trkpt lat="43.85871885269577" lon="10.537018204255997"><ele>22.0</ele><time>2026-04-29T18:11:04Z</time></trkpt><trkpt lat="43.85875332611912" lon="10.536724583450516"><ele>23.0</ele><time>2026-04-29T18:11:05Z</time></trkpt><trkpt lat="43.858799300416955" lon="10.536439213624504"><ele>22.333333333333336</ele><time>2026-04-29T18:11:06Z</time></trkpt><trkpt lat="43.85884480402566" lon="10.53616912154592"><ele>21.666666666666668</ele><time>2026-04-29T18:11:07Z</time></trkpt><trkpt lat="43.858879863060615" lon="10.535940128015872"><ele>21.0</ele><time>2026-04-29T18:11:08Z</time></trkpt><trkpt lat="43.85890504342711" lon="10.535790952324668"><ele>21.0</ele><time>2026-04-29T18:11:09Z</time></trkpt><trkpt lat="43.8589089740077" lon="10.53568821914112"><ele>21.0</ele><time>2026-04-29T18:11:10Z</time></trkpt><trkpt lat="43.85891316535137" lon="10.535591870311155"><ele>21.0</ele><time>2026-04-29T18:11:11Z</time></trkpt><trkpt lat="43.85891604269695" lon="10.535433148236867"><ele>21.0</ele><time>2026-04-29T18:11:13Z</time></trkpt><trkpt lat="43.85892786484058" lon="10.535306389325218"><ele>21.0</ele><time>2026-04-29T18:11:13.999Z</time></trkpt><trkpt lat="43.858953013451234" lon="10.535130143360602"><ele>20.75</ele><time>2026-04-29T18:11:14.999Z</time></trkpt><trkpt lat="43.858977725314695" lon="10.534926282302001"><ele>20.5</ele><time>2026-04-29T18:11:15.999Z</time></trkpt><trkpt lat="43.858994006369215" lon="10.53473088772705"><ele>20.25</ele><time>2026-04-29T18:11:16.999Z</time></trkpt><trkpt lat="43.8590071474508" lon="10.534525035654843"><ele>20.0</ele><time>2026-04-29T18:11:17.999Z</time></trkpt><trkpt lat="43.85901760024444" lon="10.534301301028435"><ele>20.0</ele><time>2026-04-29T18:11:18.999Z</time></trkpt><trkpt lat="43.85903672648839" lon="10.534047532464376"><ele>20.0</ele><time>2026-04-29T18:11:19.999Z</time></trkpt><trkpt lat="43.85905442828809" lon="10.53372740309188"><ele>20.0</ele><time>2026-04-29T18:11:20.999Z</time></trkpt><trkpt lat="43.85907524539825" lon="10.533397476775708"><ele>20.0</ele><time>2026-04-29T18:11:21.999Z</time></trkpt><trkpt lat="43.859095030261805" lon="10.533094355021191"><ele>20.0</ele><time>2026-04-29T18:11:22.999Z</time></trkpt><trkpt lat="43.85909335299202" lon="10.532791758343022"><ele>20.0</ele><time>2026-04-29T18:11:24Z</time></trkpt><trkpt lat="43.85908794207516" lon="10.532477586547824"><ele>20.0</ele><time>2026-04-29T18:11:25Z</time></trkpt><trkpt lat="43.859090308991874" lon="10.532141117801645"><ele>20.0</ele><time>2026-04-29T18:11:26Z</time></trkpt><trkpt lat="43.8591078163915" lon="10.531785411840572"><ele>20.0</ele><time>2026-04-29T18:11:27Z</time></trkpt><trkpt lat="43.8591341062006" lon="10.531424357992556"><ele>20.0</ele><time>2026-04-29T18:11:28Z</time></trkpt><trkpt lat="43.859163778664644" lon="10.531057546606023"><ele>20.0</ele><time>2026-04-29T18:11:29Z</time></trkpt><trkpt lat="43.85918431863818" lon="10.530680760352833"><ele>20.0</ele><time>2026-04-29T18:11:30Z</time></trkpt><trkpt lat="43.85920003573542" lon="10.53031220682342"><ele>20.0</ele><time>2026-04-29T18:11:31Z</time></trkpt><trkpt lat="43.85920323137035" lon="10.529947093862676"><ele>20.0</ele><time>2026-04-29T18:11:32Z</time></trkpt><trkpt lat="43.85919743990684" lon="10.5296111297705"><ele>20.333333333333336</ele><time>2026-04-29T18:11:33Z</time></trkpt><trkpt lat="43.85919019889959" lon="10.529310794981324"><ele>20.666666666666668</ele><time>2026-04-29T18:11:34Z</time></trkpt><trkpt lat="43.85918670905075" lon="10.529037473239162"><ele>21.0</ele><time>2026-04-29T18:11:35Z</time></trkpt><trkpt lat="43.85918073028632" lon="10.528773522746464"><ele>21.0</ele><time>2026-04-29T18:11:36Z</time></trkpt><trkpt lat="43.8591601348082" lon="10.528487353743913"><ele>21.0</ele><time>2026-04-29T18:11:37Z</time></trkpt><trkpt lat="43.85912671781868" lon="10.528178295286091"><ele>21.0</ele><time>2026-04-29T18:11:38Z</time></trkpt><trkpt lat="43.85906072899283" lon="10.527875987449006"><ele>21.0</ele><time>2026-04-29T18:11:39Z</time></trkpt><trkpt lat="43.858980312207954" lon="10.527605553939535"><ele>21.0</ele><time>2026-04-29T18:11:40Z</time></trkpt><trkpt lat="43.85889752230865" lon="10.527380310031553"><ele>21.0</ele><time>2026-04-29T18:11:41Z</time></trkpt><trkpt lat="43.85883811523589" lon="10.527172780416933"><ele>20.666666666666668</ele><time>2026-04-29T18:11:42Z</time></trkpt><trkpt lat="43.85876296390453" lon="10.526963296564821"><ele>20.333333333333336</ele><time>2026-04-29T18:11:43Z</time></trkpt><trkpt lat="43.85869793290802" lon="10.526734667628054"><ele>20.0</ele><time>2026-04-29T18:11:44Z</time></trkpt><trkpt lat="43.85862112956251" lon="10.526482044351367"><ele>19.666666666666668</ele><time>2026-04-29T18:11:45Z</time></trkpt><trkpt lat="43.85855417268254" lon="10.52620342746472"><ele>19.333333333333332</ele><time>2026-04-29T18:11:46Z</time></trkpt><trkpt lat="43.858495858728375" lon="10.52590778464249"><ele>19.0</ele><time>2026-04-29T18:11:47Z</time></trkpt><trkpt lat="43.85844076220104" lon="10.525598139392338"><ele>19.5</ele><time>2026-04-29T18:11:48Z</time></trkpt><trkpt lat="43.85842529744234" lon="10.525279747374197"><ele>20.0</ele><time>2026-04-29T18:11:49Z</time></trkpt><trkpt lat="43.858386649104816" lon="10.52496651552838"><ele>20.0</ele><time>2026-04-29T18:11:50Z</time></trkpt><trkpt lat="43.85836856621032" lon="10.524643450022202"><ele>20.0</ele><time>2026-04-29T18:11:51Z</time></trkpt><trkpt lat="43.85833445755442" lon="10.524312914179827"><ele>20.0</ele><time>2026-04-29T18:11:52Z</time></trkpt><trkpt lat="43.858294565802105" lon="10.523957356971671"><ele>20.0</ele><time>2026-04-29T18:11:53Z</time></trkpt><trkpt lat="43.85824903860636" lon="10.523602306390737"><ele>20.5</ele><time>2026-04-29T18:11:54Z</time></trkpt><trkpt lat="43.85820230390251" lon="10.523272605514366"><ele>21.0</ele><time>2026-04-29T18:11:55Z</time></trkpt><trkpt lat="43.85816096615579" lon="10.522977072057754"><ele>21.333333333333332</ele><time>2026-04-29T18:11:56Z</time></trkpt><trkpt lat="43.858128107228616" lon="10.522688018831726"><ele>21.666666666666664</ele><time>2026-04-29T18:11:57Z</time></trkpt><trkpt lat="43.85810805630884" lon="10.522397938018266"><ele>22.0</ele><time>2026-04-29T18:11:58Z</time></trkpt><trkpt lat="43.858107907649924" lon="10.52213821783951"><ele>22.200000000000003</ele><time>2026-04-29T18:11:59Z</time></trkpt><trkpt lat="43.85811812807408" lon="10.521926968102358"><ele>22.4</ele><time>2026-04-29T18:12:00Z</time></trkpt><trkpt lat="43.85812755755084" lon="10.521792894627959"><ele>22.6</ele><time>2026-04-29T18:12:01Z</time></trkpt><trkpt lat="43.85814906170737" lon="10.52171002503201"><ele>22.799999999999997</ele><time>2026-04-29T18:12:05Z</time></trkpt><trkpt lat="43.85822495518667" lon="10.521786432768687"><ele>23.0</ele><time>2026-04-29T18:12:10Z</time></trkpt><trkpt lat="43.85830322651778" lon="10.521851227639342"><ele>23.0</ele><time>2026-04-29T18:12:11Z</time></trkpt><trkpt lat="43.85835240430088" lon="10.521988138947801"><ele>23.0</ele><time>2026-04-29T18:12:12Z</time></trkpt><trkpt lat="43.85844050188065" lon="10.52215700686432"><ele>23.0</ele><time>2026-04-29T18:12:13Z</time></trkpt><trkpt lat="43.85852130308434" lon="10.522317175450477"><ele>23.0</ele><time>2026-04-29T18:12:14Z</time></trkpt><trkpt lat="43.85860150047614" lon="10.522462582861138"><ele>22.2</ele><time>2026-04-29T18:12:15Z</time></trkpt><trkpt lat="43.85866731699754" lon="10.522593760755539"><ele>21.4</ele><time>2026-04-29T18:12:16Z</time></trkpt><trkpt lat="43.85873190270708" lon="10.522717976455528"><ele>20.599999999999998</ele><time>2026-04-29T18:12:17Z</time></trkpt><trkpt lat="43.85879262902467" lon="10.522835321574036"><ele>19.799999999999997</ele><time>2026-04-29T18:12:18Z</time></trkpt><trkpt lat="43.858847484059936" lon="10.522944620735679"><ele>19.0</ele><time>2026-04-29T18:12:19Z</time></trkpt><trkpt lat="43.858899060897485" lon="10.523047074352421"><ele>18.8</ele><time>2026-04-29T18:12:20Z</time></trkpt><trkpt lat="43.858940968121956" lon="10.523136303298372"><ele>18.599999999999998</ele><time>2026-04-29T18:12:21Z</time></trkpt><trkpt lat="43.858999518209686" lon="10.523252555925753"><ele>18.4</ele><time>2026-04-29T18:12:23Z</time></trkpt><trkpt lat="43.85894052104378" lon="10.523164902737474"><ele>18.2</ele><time>2026-04-29T18:12:28Z</time></trkpt><trkpt lat="43.85891960340042" lon="10.52305432598236"><ele>18.0</ele><time>2026-04-29T18:12:29Z</time></trkpt><trkpt lat="43.85886029873601" lon="10.522926442106737"><ele>18.25</ele><time>2026-04-29T18:12:30Z</time></trkpt><trkpt lat="43.8587903603355" lon="10.522791595880596"><ele>18.5</ele><time>2026-04-29T18:12:31Z</time></trkpt><trkpt lat="43.858712885340175" lon="10.522646164038436"><ele>18.75</ele><time>2026-04-29T18:12:32Z</time></trkpt><trkpt lat="43.85862677401297" lon="10.522486343459061"><ele>19.0</ele><time>2026-04-29T18:12:33Z</time></trkpt><trkpt lat="43.858538670915195" lon="10.522320890423304"><ele>19.6</ele><time>2026-04-29T18:12:34Z</time></trkpt><trkpt lat="43.858448663616606" lon="10.522158044601653"><ele>20.2</ele><time>2026-04-29T18:12:35Z</time></trkpt><trkpt lat="43.85837537394225" lon="10.52202013388942"><ele>20.8</ele><time>2026-04-29T18:12:36Z</time></trkpt><trkpt lat="43.85832663324733" lon="10.521914422505553"><ele>21.400000000000002</ele><time>2026-04-29T18:12:37Z</time></trkpt><trkpt lat="43.85828836862455" lon="10.521833518363165"><ele>22.0</ele><time>2026-04-29T18:12:38Z</time></trkpt><trkpt lat="43.85824423875904" lon="10.521735214987036"><ele>22.200000000000003</ele><time>2026-04-29T18:12:40Z</time></trkpt><trkpt lat="43.85819590303678" lon="10.5216151089393"><ele>22.4</ele><time>2026-04-29T18:12:42Z</time></trkpt><trkpt lat="43.85814061521367" lon="10.521538900793043"><ele>22.6</ele><time>2026-04-29T18:12:43Z</time></trkpt><trkpt lat="43.85806917037231" lon="10.521423133339681"><ele>22.799999999999997</ele><time>2026-04-29T18:12:44Z</time></trkpt><trkpt lat="43.85799176601991" lon="10.52128350376792"><ele>23.0</ele><time>2026-04-29T18:12:45Z</time></trkpt><trkpt lat="43.85791960732273" lon="10.521139131096406"><ele>22.5</ele><time>2026-04-29T18:12:46Z</time></trkpt><trkpt lat="43.85785870375947" lon="10.521013597873546"><ele>22.0</ele><time>2026-04-29T18:12:47Z</time></trkpt><trkpt lat="43.85782661814152" lon="10.52093170332391"><ele>21.5</ele><time>2026-04-29T18:12:48Z</time></trkpt><trkpt lat="43.85799542697234" lon="10.52086451775157"><ele>21.0</ele><time>2026-04-29T18:12:52Z</time></trkpt><trkpt lat="43.858090005708526" lon="10.5209115569294"><ele>21.0</ele><time>2026-04-29T18:12:53Z</time></trkpt><trkpt lat="43.85821479588436" lon="10.520954333877594"><ele>21.0</ele><time>2026-04-29T18:12:54Z</time></trkpt><trkpt lat="43.85835737084665" lon="10.521005839620624"><ele>21.0</ele><time>2026-04-29T18:12:55Z</time></trkpt><trkpt lat="43.85849749818382" lon="10.521078626737244"><ele>21.0</ele><time>2026-04-29T18:12:56Z</time></trkpt><trkpt lat="43.858654871858036" lon="10.521136665284581"><ele>21.0</ele><time>2026-04-29T18:12:57Z</time></trkpt><trkpt lat="43.85879517217806" lon="10.521174891055495"><ele>21.0</ele><time>2026-04-29T18:12:58Z</time></trkpt><trkpt lat="43.85892803783278" lon="10.52122735120982"><ele>21.0</ele><time>2026-04-29T18:12:59Z</time></trkpt><trkpt lat="43.859077041316034" lon="10.521276018152179"><ele>21.0</ele><time>2026-04-29T18:13:00Z</time></trkpt><trkpt lat="43.85924034177431" lon="10.52127831778104"><ele>20.333333333333332</ele><time>2026-04-29T18:13:01Z</time></trkpt><trkpt lat="43.859411175517074" lon="10.521312237199675"><ele>19.666666666666664</ele><time>2026-04-29T18:13:02Z</time></trkpt><trkpt lat="43.85959293840286" lon="10.521337302573288"><ele>19.0</ele><time>2026-04-29T18:13:03Z</time></trkpt><trkpt lat="43.85978165089683" lon="10.521348106828354"><ele>19.0</ele><time>2026-04-29T18:13:04Z</time></trkpt><trkpt lat="43.859981004333854" lon="10.52135876319853"><ele>19.0</ele><time>2026-04-29T18:13:05Z</time></trkpt><trkpt lat="43.86018285378164" lon="10.521373030735566"><ele>19.0</ele><time>2026-04-29T18:13:06Z</time></trkpt><trkpt lat="43.86039102730696" lon="10.521415673035113"><ele>19.333333333333332</ele><time>2026-04-29T18:13:07Z</time></trkpt><trkpt lat="43.86057976949295" lon="10.521416555306537"><ele>19.666666666666668</ele><time>2026-04-29T18:13:08Z</time></trkpt><trkpt lat="43.86074615797189" lon="10.521443415461498"><ele>20.0</ele><time>2026-04-29T18:13:09Z</time></trkpt><trkpt lat="43.86090177985131" lon="10.521477637436387"><ele>20.75</ele><time>2026-04-29T18:13:10Z</time></trkpt><trkpt lat="43.86104194297529" lon="10.521528686287718"><ele>21.5</ele><time>2026-04-29T18:13:11Z</time></trkpt><trkpt lat="43.86116607890688" lon="10.521594611206408"><ele>22.25</ele><time>2026-04-29T18:13:12Z</time></trkpt><trkpt lat="43.861296441488214" lon="10.521682832218726"><ele>23.0</ele><time>2026-04-29T18:13:13Z</time></trkpt><trkpt lat="43.861438010512735" lon="10.521811088674436"><ele>23.0</ele><time>2026-04-29T18:13:14Z</time></trkpt><trkpt lat="43.861588001913624" lon="10.521952913588464"><ele>23.0</ele><time>2026-04-29T18:13:15Z</time></trkpt><trkpt lat="43.86175351491654" lon="10.522108380541344"><ele>23.0</ele><time>2026-04-29T18:13:16Z</time></trkpt><trkpt lat="43.86193172142669" lon="10.522231121608662"><ele>21.666666666666668</ele><time>2026-04-29T18:13:17Z</time></trkpt><trkpt lat="43.86209379327933" lon="10.522360071938955"><ele>20.333333333333332</ele><time>2026-04-29T18:13:18Z</time></trkpt><trkpt lat="43.862249715722776" lon="10.522462238294148"><ele>19.0</ele><time>2026-04-29T18:13:19Z</time></trkpt><trkpt lat="43.86239208122324" lon="10.522546864498384"><ele>19.0</ele><time>2026-04-29T18:13:20Z</time></trkpt><trkpt lat="43.862516229192366" lon="10.52262312100235"><ele>19.0</ele><time>2026-04-29T18:13:20.999Z</time></trkpt><trkpt lat="43.86261021617374" lon="10.522693928447158"><ele>19.0</ele><time>2026-04-29T18:13:21.999Z</time></trkpt><trkpt lat="43.86267257117165" lon="10.522776511494996"><ele>19.0</ele><time>2026-04-29T18:13:22.999Z</time></trkpt><trkpt lat="43.86272914780793" lon="10.522843866944818"><ele>19.0</ele><time>2026-04-29T18:13:23.999Z</time></trkpt><trkpt lat="43.862804084802434" lon="10.522836707908757"><ele>19.25</ele><time>2026-04-29T18:13:24.999Z</time></trkpt><trkpt lat="43.862865118144256" lon="10.522763873055721"><ele>19.5</ele><time>2026-04-29T18:13:25.999Z</time></trkpt><trkpt lat="43.862914881376405" lon="10.52262669374563"><ele>19.75</ele><time>2026-04-29T18:13:26.999Z</time></trkpt><trkpt lat="43.86297670064576" lon="10.522417856146493"><ele>20.0</ele><time>2026-04-29T18:13:27.999Z</time></trkpt><trkpt lat="43.86304321532977" lon="10.522168088119722"><ele>20.333333333333336</ele><time>2026-04-29T18:13:28.999Z</time></trkpt><trkpt lat="43.863102491037665" lon="10.521906254161587"><ele>20.666666666666668</ele><time>2026-04-29T18:13:30Z</time></trkpt><trkpt lat="43.863171021287066" lon="10.521630271690013"><ele>21.0</ele><time>2026-04-29T18:13:31Z</time></trkpt><trkpt lat="43.863233319360845" lon="10.521394816775373"><ele>21.0</ele><time>2026-04-29T18:13:32Z</time></trkpt><trkpt lat="43.8633120653574" lon="10.521193337307112"><ele>21.0</ele><time>2026-04-29T18:13:33Z</time></trkpt><trkpt lat="43.86343403032452" lon="10.521033039388332"><ele>21.0</ele><time>2026-04-29T18:13:34Z</time></trkpt><trkpt lat="43.86354793780854" lon="10.520839069708565"><ele>21.0</ele><time>2026-04-29T18:13:35Z</time></trkpt><trkpt lat="43.863684590457545" lon="10.520656329628318"><ele>21.0</ele><time>2026-04-29T18:13:36Z</time></trkpt><trkpt lat="43.86381961906392" lon="10.520460158412765"><ele>21.0</ele><time>2026-04-29T18:13:37Z</time></trkpt><trkpt lat="43.86394524643466" lon="10.520266803087742"><ele>21.0</ele><time>2026-04-29T18:13:38Z</time></trkpt><trkpt lat="43.86406290123355" lon="10.52009377133662"><ele>21.0</ele><time>2026-04-29T18:13:39Z</time></trkpt><trkpt lat="43.86416764264716" lon="10.51993784960759"><ele>21.0</ele><time>2026-04-29T18:13:40Z</time></trkpt><trkpt lat="43.8642593286929" lon="10.51979412611867"><ele>21.6</ele><time>2026-04-29T18:13:41Z</time></trkpt><trkpt lat="43.86433500429859" lon="10.519664501845645"><ele>22.200000000000003</ele><time>2026-04-29T18:13:42Z</time></trkpt><trkpt lat="43.86439558308318" lon="10.519543105953966"><ele>22.799999999999997</ele><time>2026-04-29T18:13:43Z</time></trkpt><trkpt lat="43.86444424463618" lon="10.519425924855067"><ele>23.4</ele><time>2026-04-29T18:13:44Z</time></trkpt><trkpt lat="43.864481359981234" lon="10.519321795062604"><ele>24.0</ele><time>2026-04-29T18:13:45Z</time></trkpt><trkpt lat="43.86452263557423" lon="10.519215926552487"><ele>24.6</ele><time>2026-04-29T18:13:46Z</time></trkpt><trkpt lat="43.864580733293856" lon="10.51911673234413"><ele>25.2</ele><time>2026-04-29T18:13:47Z</time></trkpt><trkpt lat="43.86466949226317" lon="10.519037127473702"><ele>25.800000000000004</ele><time>2026-04-29T18:13:48Z</time></trkpt><trkpt lat="43.86476839241524" lon="10.518970384178386"><ele>26.400000000000002</ele><time>2026-04-29T18:13:49Z</time></trkpt><trkpt lat="43.864838224997364" lon="10.518876843204248"><ele>27.0</ele><time>2026-04-29T18:13:50Z</time></trkpt><trkpt lat="43.864864027502556" lon="10.518744211165533"><ele>28.75</ele><time>2026-04-29T18:13:51Z</time></trkpt><trkpt lat="43.864852705392" lon="10.51857264795236"><ele>30.5</ele><time>2026-04-29T18:13:52Z</time></trkpt><trkpt lat="43.864833999409754" lon="10.518371586850376"><ele>32.25</ele><time>2026-04-29T18:13:53Z</time></trkpt><trkpt lat="43.86481167147091" lon="10.518150538658107"><ele>34.0</ele><time>2026-04-29T18:13:54Z</time></trkpt><trkpt lat="43.86475882463026" lon="10.517920980038218"><ele>33.0</ele><time>2026-04-29T18:13:55Z</time></trkpt><trkpt lat="43.86466849479595" lon="10.517684230281574"><ele>32.0</ele><time>2026-04-29T18:13:56Z</time></trkpt><trkpt lat="43.864579730024566" lon="10.517408260873975"><ele>31.0</ele><time>2026-04-29T18:13:57Z</time></trkpt><trkpt lat="43.864458748140144" lon="10.517143043798015"><ele>31.0</ele><time>2026-04-29T18:13:58Z</time></trkpt><trkpt lat="43.86436141058631" lon="10.5168799129196"><ele>31.0</ele><time>2026-04-29T18:13:59Z</time></trkpt><trkpt lat="43.86428865123559" lon="10.516634764017862"><ele>31.0</ele><time>2026-04-29T18:14:00Z</time></trkpt><trkpt lat="43.864232170610215" lon="10.516364353001721"><ele>29.0</ele><time>2026-04-29T18:14:01Z</time></trkpt><trkpt lat="43.864196354954814" lon="10.516073720595138"><ele>27.0</ele><time>2026-04-29T18:14:02Z</time></trkpt><trkpt lat="43.86418992668363" lon="10.515774538482967"><ele>25.0</ele><time>2026-04-29T18:14:03Z</time></trkpt><trkpt lat="43.864206998091746" lon="10.51546508962823"><ele>23.0</ele><time>2026-04-29T18:14:04Z</time></trkpt><trkpt lat="43.86423870287433" lon="10.51514663190529"><ele>21.0</ele><time>2026-04-29T18:14:05Z</time></trkpt><trkpt lat="43.86428277600188" lon="10.514807013298999"><ele>21.0</ele><time>2026-04-29T18:14:06Z</time></trkpt><trkpt lat="43.86433207415335" lon="10.514460572563008"><ele>21.0</ele><time>2026-04-29T18:14:07Z</time></trkpt><trkpt lat="43.864374178372" lon="10.514113622441062"><ele>21.0</ele><time>2026-04-29T18:14:08Z</time></trkpt><trkpt lat="43.86442575440374" lon="10.513748857452283"><ele>21.0</ele><time>2026-04-29T18:14:09Z</time></trkpt><trkpt lat="43.86447245683185" lon="10.513389033881587"><ele>22.5</ele><time>2026-04-29T18:14:10Z</time></trkpt><trkpt lat="43.86450904816083" lon="10.513066112567502"><ele>24.0</ele><time>2026-04-29T18:14:11Z</time></trkpt><trkpt lat="43.86452033087293" lon="10.512769765585748"><ele>24.0</ele><time>2026-04-29T18:14:12Z</time></trkpt><trkpt lat="43.8644919833169" lon="10.512495238725892"><ele>24.0</ele><time>2026-04-29T18:14:13Z</time></trkpt><trkpt lat="43.8644542024251" lon="10.512238147481927"><ele>24.0</ele><time>2026-04-29T18:14:14Z</time></trkpt><trkpt lat="43.8643740827543" lon="10.511983185044132"><ele>23.333333333333332</ele><time>2026-04-29T18:14:15Z</time></trkpt><trkpt lat="43.86425981755668" lon="10.51174710395824"><ele>22.666666666666664</ele><time>2026-04-29T18:14:16Z</time></trkpt><trkpt lat="43.86411680933599" lon="10.511532840460672"><ele>22.0</ele><time>2026-04-29T18:14:17Z</time></trkpt><trkpt lat="43.86397979177573" lon="10.511336250763986"><ele>22.0</ele><time>2026-04-29T18:14:18Z</time></trkpt><trkpt lat="43.863849860976735" lon="10.511134732173804"><ele>22.0</ele><time>2026-04-29T18:14:19Z</time></trkpt><trkpt lat="43.86368690816195" lon="10.510905825665196"><ele>22.0</ele><time>2026-04-29T18:14:20Z</time></trkpt><trkpt lat="43.86353903043127" lon="10.510701779679719"><ele>22.333333333333332</ele><time>2026-04-29T18:14:21Z</time></trkpt><trkpt lat="43.86340407511274" lon="10.510514889241842"><ele>22.666666666666668</ele><time>2026-04-29T18:14:22Z</time></trkpt><trkpt lat="43.8633058273551" lon="10.510318080934319"><ele>23.0</ele><time>2026-04-29T18:14:23Z</time></trkpt><trkpt lat="43.863244128801405" lon="10.510125390845038"><ele>23.0</ele><time>2026-04-29T18:14:24Z</time></trkpt><trkpt lat="43.86322458187479" lon="10.509949885845126"><ele>23.0</ele><time>2026-04-29T18:14:25Z</time></trkpt><trkpt lat="43.86323951660838" lon="10.509786944834865"><ele>23.0</ele><time>2026-04-29T18:14:26Z</time></trkpt><trkpt lat="43.8632724647394" lon="10.509609701100052"><ele>23.0</ele><time>2026-04-29T18:14:27Z</time></trkpt><trkpt lat="43.863305946506856" lon="10.509462082644761"><ele>23.25</ele><time>2026-04-29T18:14:28Z</time></trkpt><trkpt lat="43.863418956273975" lon="10.509360184192875"><ele>23.5</ele><time>2026-04-29T18:14:29Z</time></trkpt><trkpt lat="43.86352888152868" lon="10.509271039775467"><ele>23.75</ele><time>2026-04-29T18:14:30Z</time></trkpt><trkpt lat="43.86365791755469" lon="10.509210375862327"><ele>24.0</ele><time>2026-04-29T18:14:31Z</time></trkpt><trkpt lat="43.86380645178566" lon="10.50917588728845"><ele>24.333333333333336</ele><time>2026-04-29T18:14:32Z</time></trkpt><trkpt lat="43.8639444140496" lon="10.509127545746912"><ele>24.666666666666668</ele><time>2026-04-29T18:14:33Z</time></trkpt><trkpt lat="43.8640975167834" lon="10.5090809803438"><ele>25.0</ele><time>2026-04-29T18:14:34Z</time></trkpt><trkpt lat="43.864280040094904" lon="10.509029380575985"><ele>25.0</ele><time>2026-04-29T18:14:35Z</time></trkpt><trkpt lat="43.86448699171002" lon="10.50897336125857"><ele>25.0</ele><time>2026-04-29T18:14:36Z</time></trkpt><trkpt lat="43.86471280206367" lon="10.508912494473936"><ele>25.0</ele><time>2026-04-29T18:14:37Z</time></trkpt><trkpt lat="43.86495500577243" lon="10.508853206813935"><ele>25.0</ele><time>2026-04-29T18:14:38Z</time></trkpt><trkpt lat="43.865213007351265" lon="10.508786538337189"><ele>25.0</ele><time>2026-04-29T18:14:39Z</time></trkpt><trkpt lat="43.865480771801245" lon="10.508724253768161"><ele>25.0</ele><time>2026-04-29T18:14:40Z</time></trkpt><trkpt lat="43.86575550695924" lon="10.508671685658962"><ele>25.0</ele><time>2026-04-29T18:14:41Z</time></trkpt><trkpt lat="43.866037658759694" lon="10.508630152143214"><ele>24.0</ele><time>2026-04-29T18:14:42Z</time></trkpt><trkpt lat="43.8663147751974" lon="10.508593917172663"><ele>23.0</ele><time>2026-04-29T18:14:43Z</time></trkpt><trkpt lat="43.866562554981165" lon="10.508555512914482"><ele>23.5</ele><time>2026-04-29T18:14:44Z</time></trkpt><trkpt lat="43.86679527700188" lon="10.508493311901901"><ele>24.0</ele><time>2026-04-29T18:14:45Z</time></trkpt><trkpt lat="43.867022289405355" lon="10.508399826744025"><ele>24.0</ele><time>2026-04-29T18:14:46Z</time></trkpt><trkpt lat="43.867245444145475" lon="10.508301852270074"><ele>24.0</ele><time>2026-04-29T18:14:47Z</time></trkpt><trkpt lat="43.867441189733476" lon="10.508196031513743"><ele>24.0</ele><time>2026-04-29T18:14:48Z</time></trkpt><trkpt lat="43.86762506418164" lon="10.508084656657829"><ele>24.0</ele><time>2026-04-29T18:14:49Z</time></trkpt><trkpt lat="43.86782572053212" lon="10.507959644726103"><ele>24.0</ele><time>2026-04-29T18:14:50Z</time></trkpt><trkpt lat="43.86803918416013" lon="10.507763774656235"><ele>24.0</ele><time>2026-04-29T18:14:51Z</time></trkpt><trkpt lat="43.86825563573912" lon="10.507561919128392"><ele>24.0</ele><time>2026-04-29T18:14:52Z</time></trkpt><trkpt lat="43.86847235775358" lon="10.507372358247622"><ele>24.0</ele><time>2026-04-29T18:14:53Z</time></trkpt><trkpt lat="43.868691640746476" lon="10.507252472983883"><ele>24.0</ele><time>2026-04-29T18:14:54Z</time></trkpt><trkpt lat="43.86889643242903" lon="10.507176851370453"><ele>24.0</ele><time>2026-04-29T18:14:55Z</time></trkpt><trkpt lat="43.86911940129549" lon="10.507165189729847"><ele>24.0</ele><time>2026-04-29T18:14:56Z</time></trkpt><trkpt lat="43.86935260883027" lon="10.50712321101851"><ele>24.0</ele><time>2026-04-29T18:14:57Z</time></trkpt><trkpt lat="43.86957492981532" lon="10.507105180262478"><ele>24.0</ele><time>2026-04-29T18:14:58Z</time></trkpt><trkpt lat="43.869772525004564" lon="10.507064895409574"><ele>24.0</ele><time>2026-04-29T18:14:59Z</time></trkpt><trkpt lat="43.86995454787247" lon="10.506968723193578"><ele>24.0</ele><time>2026-04-29T18:15:00Z</time></trkpt><trkpt lat="43.87012132798607" lon="10.506823348588746"><ele>24.0</ele><time>2026-04-29T18:15:01Z</time></trkpt><trkpt lat="43.870265733286615" lon="10.506635550020485"><ele>24.0</ele><time>2026-04-29T18:15:02Z</time></trkpt><trkpt lat="43.87038290982022" lon="10.506406945523759"><ele>24.0</ele><time>2026-04-29T18:15:03Z</time></trkpt><trkpt lat="43.87046224077848" lon="10.506144147148838"><ele>24.0</ele><time>2026-04-29T18:15:04Z</time></trkpt><trkpt lat="43.870502709037666" lon="10.50586808416565"><ele>24.0</ele><time>2026-04-29T18:15:05Z</time></trkpt><trkpt lat="43.870493397343495" lon="10.505575298643917"><ele>24.0</ele><time>2026-04-29T18:15:06Z</time></trkpt><trkpt lat="43.87043878265067" lon="10.50529354593789"><ele>24.666666666666664</ele><time>2026-04-29T18:15:07Z</time></trkpt><trkpt lat="43.870378986562976" lon="10.505006689109155"><ele>25.333333333333332</ele><time>2026-04-29T18:15:08Z</time></trkpt><trkpt lat="43.870283168999975" lon="10.504736101066925"><ele>26.0</ele><time>2026-04-29T18:15:09Z</time></trkpt><trkpt lat="43.87018635378842" lon="10.504479683714793"><ele>26.333333333333332</ele><time>2026-04-29T18:15:10Z</time></trkpt><trkpt lat="43.87015889918992" lon="10.504207614962464"><ele>26.666666666666664</ele><time>2026-04-29T18:15:11Z</time></trkpt><trkpt lat="43.870170635124964" lon="10.503932047543643"><ele>27.0</ele><time>2026-04-29T18:15:12Z</time></trkpt><trkpt lat="43.87020510368858" lon="10.503647204204725"><ele>27.0</ele><time>2026-04-29T18:15:13Z</time></trkpt><trkpt lat="43.87025270178865" lon="10.50334411438666"><ele>27.0</ele><time>2026-04-29T18:15:14Z</time></trkpt><trkpt lat="43.87028080386694" lon="10.503015280946165"><ele>26.0</ele><time>2026-04-29T18:15:15Z</time></trkpt><trkpt lat="43.870280736818074" lon="10.502665661189404"><ele>25.0</ele><time>2026-04-29T18:15:16Z</time></trkpt><trkpt lat="43.87027853414602" lon="10.502292000195837"><ele>25.5</ele><time>2026-04-29T18:15:17Z</time></trkpt><trkpt lat="43.87028701594169" lon="10.501912611984272"><ele>26.0</ele><time>2026-04-29T18:15:18Z</time></trkpt><trkpt lat="43.87030846063974" lon="10.50157560065043"><ele>26.0</ele><time>2026-04-29T18:15:19Z</time></trkpt><trkpt lat="43.87036599836526" lon="10.501283853633312"><ele>26.0</ele><time>2026-04-29T18:15:20Z</time></trkpt><trkpt lat="43.87046170403167" lon="10.501006758441509"><ele>26.0</ele><time>2026-04-29T18:15:21Z</time></trkpt><trkpt lat="43.87058953750201" lon="10.500729237999858"><ele>27.5</ele><time>2026-04-29T18:15:22Z</time></trkpt><trkpt lat="43.87071611993123" lon="10.500438440761545"><ele>29.0</ele><time>2026-04-29T18:15:23Z</time></trkpt><trkpt lat="43.87083445193896" lon="10.50012478313383"><ele>29.0</ele><time>2026-04-29T18:15:24Z</time></trkpt><trkpt lat="43.870951560744686" lon="10.49979693757624"><ele>29.0</ele><time>2026-04-29T18:15:25Z</time></trkpt><trkpt lat="43.871066481079545" lon="10.499473130533529"><ele>29.0</ele><time>2026-04-29T18:15:25.999Z</time></trkpt><trkpt lat="43.87120386865025" lon="10.499154253817455"><ele>29.0</ele><time>2026-04-29T18:15:26.999Z</time></trkpt><trkpt lat="43.8713571117288" lon="10.498835070746651"><ele>27.0</ele><time>2026-04-29T18:15:27.999Z</time></trkpt><trkpt lat="43.87152156633424" lon="10.4985130761328"><ele>25.0</ele><time>2026-04-29T18:15:28.999Z</time></trkpt><trkpt lat="43.87168857366419" lon="10.498181300851734"><ele>26.0</ele><time>2026-04-29T18:15:29.999Z</time></trkpt><trkpt lat="43.87185703391434" lon="10.49784193313372"><ele>27.0</ele><time>2026-04-29T18:15:30.999Z</time></trkpt><trkpt lat="43.8720210669906" lon="10.497492732150686"><ele>27.0</ele><time>2026-04-29T18:15:31.999Z</time></trkpt><trkpt lat="43.872180069994734" lon="10.497126657784742"><ele>27.0</ele><time>2026-04-29T18:15:32.999Z</time></trkpt><trkpt lat="43.872325594621785" lon="10.496746570214238"><ele>27.0</ele><time>2026-04-29T18:15:33.999Z</time></trkpt><trkpt lat="43.87247217418416" lon="10.496362686063113"><ele>27.0</ele><time>2026-04-29T18:15:34.999Z</time></trkpt><trkpt lat="43.87263118406713" lon="10.495992327329084"><ele>27.0</ele><time>2026-04-29T18:15:36Z</time></trkpt><trkpt lat="43.872804475781" lon="10.495643382961017"><ele>27.0</ele><time>2026-04-29T18:15:37Z</time></trkpt><trkpt lat="43.872984987005715" lon="10.495315722936146"><ele>27.5</ele><time>2026-04-29T18:15:38Z</time></trkpt><trkpt lat="43.87314737184023" lon="10.495006648166164"><ele>28.0</ele><time>2026-04-29T18:15:39Z</time></trkpt><trkpt lat="43.8732860585098" lon="10.49470359678792"><ele>28.0</ele><time>2026-04-29T18:15:40Z</time></trkpt><trkpt lat="43.87340576412793" lon="10.49437654974773"><ele>28.0</ele><time>2026-04-29T18:15:41Z</time></trkpt><trkpt lat="43.87349537703591" lon="10.494052767671672"><ele>28.0</ele><time>2026-04-29T18:15:42Z</time></trkpt><trkpt lat="43.8735886411342" lon="10.493759489756957"><ele>28.0</ele><time>2026-04-29T18:15:43Z</time></trkpt><trkpt lat="43.87371544472489" lon="10.493478389519117"><ele>28.0</ele><time>2026-04-29T18:15:44Z</time></trkpt><trkpt lat="43.87388063765991" lon="10.493199245174923"><ele>28.0</ele><time>2026-04-29T18:15:45Z</time></trkpt><trkpt lat="43.87407606781522" lon="10.492927189893175"><ele>30.5</ele><time>2026-04-29T18:15:46Z</time></trkpt><trkpt lat="43.87429279887512" lon="10.492654371941255"><ele>33.0</ele><time>2026-04-29T18:15:47Z</time></trkpt><trkpt lat="43.874512716850155" lon="10.492376504829117"><ele>33.0</ele><time>2026-04-29T18:15:48Z</time></trkpt><trkpt lat="43.87473155870768" lon="10.492117007386831"><ele>33.0</ele><time>2026-04-29T18:15:49Z</time></trkpt><trkpt lat="43.87492780048487" lon="10.491876440542681"><ele>33.0</ele><time>2026-04-29T18:15:50Z</time></trkpt><trkpt lat="43.87508384379121" lon="10.491634079769314"><ele>33.0</ele><time>2026-04-29T18:15:51Z</time></trkpt><trkpt lat="43.87519964219779" lon="10.491368152316078"><ele>33.333333333333336</ele><time>2026-04-29T18:15:52Z</time></trkpt><trkpt lat="43.87529659427536" lon="10.49109564203082"><ele>33.66666666666667</ele><time>2026-04-29T18:15:53Z</time></trkpt><trkpt lat="43.875407802649136" lon="10.490875736100795"><ele>34.0</ele><time>2026-04-29T18:15:54Z</time></trkpt><trkpt lat="43.8755575292233" lon="10.490675538380938"><ele>34.0</ele><time>2026-04-29T18:15:55Z</time></trkpt><trkpt lat="43.87573803366396" lon="10.490511135323064"><ele>34.0</ele><time>2026-04-29T18:15:56Z</time></trkpt><trkpt lat="43.875949618935586" lon="10.490391947092771"><ele>34.0</ele><time>2026-04-29T18:15:57Z</time></trkpt><trkpt lat="43.87613660233987" lon="10.490245576445504"><ele>33.0</ele><time>2026-04-29T18:15:58Z</time></trkpt><trkpt lat="43.87629745392267" lon="10.490032128634983"><ele>32.0</ele><time>2026-04-29T18:15:59Z</time></trkpt><trkpt lat="43.876429610497965" lon="10.48976977052431"><ele>32.5</ele><time>2026-04-29T18:16:00Z</time></trkpt><trkpt lat="43.87652796281912" lon="10.489477056919087"><ele>33.0</ele><time>2026-04-29T18:16:01Z</time></trkpt><trkpt lat="43.87659479691582" lon="10.489164937621666"><ele>33.0</ele><time>2026-04-29T18:16:02Z</time></trkpt><trkpt lat="43.876643768755294" lon="10.48889263914386"><ele>33.0</ele><time>2026-04-29T18:16:03Z</time></trkpt><trkpt lat="43.87673741440201" lon="10.488680279143859"><ele>33.0</ele><time>2026-04-29T18:16:04Z</time></trkpt><trkpt lat="43.87687075617464" lon="10.48843286049779"><ele>32.333333333333336</ele><time>2026-04-29T18:16:05Z</time></trkpt><trkpt lat="43.87702767824983" lon="10.488183960966037"><ele>31.666666666666668</ele><time>2026-04-29T18:16:06Z</time></trkpt><trkpt lat="43.87716868233528" lon="10.48797651848454"><ele>31.0</ele><time>2026-04-29T18:16:07Z</time></trkpt><trkpt lat="43.87730512203251" lon="10.487816877436899"><ele>31.0</ele><time>2026-04-29T18:16:08Z</time></trkpt><trkpt lat="43.877444434452556" lon="10.48772001592162"><ele>31.0</ele><time>2026-04-29T18:16:09Z</time></trkpt><trkpt lat="43.87761554707655" lon="10.487662983362506"><ele>31.0</ele><time>2026-04-29T18:16:10Z</time></trkpt><trkpt lat="43.877821535224406" lon="10.487620258032617"><ele>31.0</ele><time>2026-04-29T18:16:11Z</time></trkpt><trkpt lat="43.87804516302221" lon="10.487604959648582"><ele>31.0</ele><time>2026-04-29T18:16:12Z</time></trkpt><trkpt lat="43.87824359706983" lon="10.487546284640025"><ele>31.0</ele><time>2026-04-29T18:16:13Z</time></trkpt><trkpt lat="43.87844641785342" lon="10.487450275574613"><ele>31.333333333333336</ele><time>2026-04-29T18:16:14Z</time></trkpt><trkpt lat="43.878639576346586" lon="10.487305109300848"><ele>31.666666666666664</ele><time>2026-04-29T18:16:15Z</time></trkpt><trkpt lat="43.87880285826948" lon="10.487102037891662"><ele>32.0</ele><time>2026-04-29T18:16:16Z</time></trkpt><trkpt lat="43.87894556957894" lon="10.48684423735012"><ele>32.0</ele><time>2026-04-29T18:16:17Z</time></trkpt><trkpt lat="43.879080557534856" lon="10.48657470708012"><ele>32.0</ele><time>2026-04-29T18:16:18Z</time></trkpt><trkpt lat="43.879216177923624" lon="10.486336876695015"><ele>31.666666666666664</ele><time>2026-04-29T18:16:19Z</time></trkpt><trkpt lat="43.87936616955464" lon="10.486140621844923"><ele>31.333333333333336</ele><time>2026-04-29T18:16:20Z</time></trkpt><trkpt lat="43.879521775708604" lon="10.485974584897049"><ele>31.0</ele><time>2026-04-29T18:16:21Z</time></trkpt><trkpt lat="43.879675486168644" lon="10.485837595781792"><ele>31.0</ele><time>2026-04-29T18:16:22Z</time></trkpt><trkpt lat="43.879819133793596" lon="10.485710262252251"><ele>31.0</ele><time>2026-04-29T18:16:23Z</time></trkpt><trkpt lat="43.879953590955544" lon="10.485596580944161"><ele>31.0</ele><time>2026-04-29T18:16:24Z</time></trkpt><trkpt lat="43.88008075350302" lon="10.485499487579496"><ele>32.333333333333336</ele><time>2026-04-29T18:16:25Z</time></trkpt><trkpt lat="43.88020914256838" lon="10.485392561724872"><ele>33.666666666666664</ele><time>2026-04-29T18:16:26Z</time></trkpt><trkpt lat="43.88034189177428" lon="10.485262216858526"><ele>35.0</ele><time>2026-04-29T18:16:27Z</time></trkpt><trkpt lat="43.8805031882866" lon="10.485143328099733"><ele>35.0</ele><time>2026-04-29T18:16:28Z</time></trkpt><trkpt lat="43.88067545545004" lon="10.485017024699244"><ele>35.0</ele><time>2026-04-29T18:16:29Z</time></trkpt><trkpt lat="43.88086652039754" lon="10.484895773206983"><ele>35.0</ele><time>2026-04-29T18:16:30Z</time></trkpt><trkpt lat="43.881067885707914" lon="10.484768224060137"><ele>35.0</ele><time>2026-04-29T18:16:31Z</time></trkpt><trkpt lat="43.88128257532097" lon="10.484656816207035"><ele>35.0</ele><time>2026-04-29T18:16:32Z</time></trkpt><trkpt lat="43.88152076082573" lon="10.4845540009308"><ele>35.5</ele><time>2026-04-29T18:16:33Z</time></trkpt><trkpt lat="43.88178120292569" lon="10.484467666607003"><ele>36.0</ele><time>2026-04-29T18:16:34Z</time></trkpt><trkpt lat="43.8820574598609" lon="10.484395239853137"><ele>36.0</ele><time>2026-04-29T18:16:35Z</time></trkpt><trkpt lat="43.88234313396082" lon="10.484311474749502"><ele>36.0</ele><time>2026-04-29T18:16:36Z</time></trkpt><trkpt lat="43.8825962644084" lon="10.484213574047532"><ele>36.0</ele><time>2026-04-29T18:16:37Z</time></trkpt><trkpt lat="43.88282988542873" lon="10.484080538982193"><ele>36.0</ele><time>2026-04-29T18:16:38Z</time></trkpt><trkpt lat="43.88307152722354" lon="10.483907200144406"><ele>36.0</ele><time>2026-04-29T18:16:39Z</time></trkpt><trkpt lat="43.88334018644512" lon="10.483752800773278"><ele>36.0</ele><time>2026-04-29T18:16:40Z</time></trkpt><trkpt lat="43.88362020016111" lon="10.483569583893114"><ele>36.5</ele><time>2026-04-29T18:16:41Z</time></trkpt><trkpt lat="43.88389995391692" lon="10.483381586786805"><ele>37.0</ele><time>2026-04-29T18:16:42Z</time></trkpt><trkpt lat="43.884159984784" lon="10.48318014710876"><ele>37.0</ele><time>2026-04-29T18:16:43Z</time></trkpt><trkpt lat="43.884417522314564" lon="10.483012344597952"><ele>37.0</ele><time>2026-04-29T18:16:44Z</time></trkpt><trkpt lat="43.88466538913384" lon="10.482850237189728"><ele>37.0</ele><time>2026-04-29T18:16:45Z</time></trkpt><trkpt lat="43.88490626938785" lon="10.482686865693333"><ele>37.0</ele><time>2026-04-29T18:16:46Z</time></trkpt><trkpt lat="43.88514237113486" lon="10.482526750480773"><ele>37.0</ele><time>2026-04-29T18:16:47Z</time></trkpt><trkpt lat="43.88537570650471" lon="10.48237352564476"><ele>37.0</ele><time>2026-04-29T18:16:48Z</time></trkpt><trkpt lat="43.88560740292305" lon="10.48221937521583"><ele>37.0</ele><time>2026-04-29T18:16:49Z</time></trkpt><trkpt lat="43.885835013702355" lon="10.48206929401057"><ele>37.0</ele><time>2026-04-29T18:16:50Z</time></trkpt><trkpt lat="43.88605695017201" lon="10.481903591168525"><ele>37.5</ele><time>2026-04-29T18:16:51Z</time></trkpt><trkpt lat="43.88626923060885" lon="10.481711998930656"><ele>38.0</ele><time>2026-04-29T18:16:52Z</time></trkpt><trkpt lat="43.886478145497456" lon="10.481474928383706"><ele>38.5</ele><time>2026-04-29T18:16:53Z</time></trkpt><trkpt lat="43.886697174515305" lon="10.481212028288914"><ele>39.0</ele><time>2026-04-29T18:16:54Z</time></trkpt><trkpt lat="43.88693679876609" lon="10.480960558246899"><ele>39.5</ele><time>2026-04-29T18:16:55Z</time></trkpt><trkpt lat="43.887174042706576" lon="10.480684471502414"><ele>40.0</ele><time>2026-04-29T18:16:56Z</time></trkpt><trkpt lat="43.88737572401645" lon="10.48041634103937"><ele>40.0</ele><time>2026-04-29T18:16:57Z</time></trkpt><trkpt lat="43.887563448071674" lon="10.480162631050543"><ele>40.0</ele><time>2026-04-29T18:16:58Z</time></trkpt><trkpt lat="43.88773779192436" lon="10.479859413060659"><ele>40.5</ele><time>2026-04-29T18:16:59Z</time></trkpt><trkpt lat="43.88790931191739" lon="10.479537186453305"><ele>41.0</ele><time>2026-04-29T18:17:00Z</time></trkpt><trkpt lat="43.88809511279126" lon="10.47923616466942"><ele>41.0</ele><time>2026-04-29T18:17:01Z</time></trkpt><trkpt lat="43.888307541039744" lon="10.478956238636432"><ele>41.0</ele><time>2026-04-29T18:17:02Z</time></trkpt><trkpt lat="43.888541633651386" lon="10.478683871372576"><ele>41.0</ele><time>2026-04-29T18:17:03Z</time></trkpt><trkpt lat="43.88877826918927" lon="10.478417781375356"><ele>41.0</ele><time>2026-04-29T18:17:04Z</time></trkpt><trkpt lat="43.888999592443504" lon="10.47817780369457"><ele>41.0</ele><time>2026-04-29T18:17:05Z</time></trkpt><trkpt lat="43.88920227489296" lon="10.477957056948604"><ele>41.0</ele><time>2026-04-29T18:17:06Z</time></trkpt><trkpt lat="43.88938504594856" lon="10.477754748838622"><ele>41.0</ele><time>2026-04-29T18:17:07Z</time></trkpt><trkpt lat="43.889555813949485" lon="10.477560376944458"><ele>41.0</ele><time>2026-04-29T18:17:08Z</time></trkpt><trkpt lat="43.889717724543125" lon="10.477378187307211"><ele>41.0</ele><time>2026-04-29T18:17:09Z</time></trkpt><trkpt lat="43.889871636492316" lon="10.477204817885914"><ele>41.0</ele><time>2026-04-29T18:17:10Z</time></trkpt><trkpt lat="43.890032495125105" lon="10.477023637966644"><ele>41.0</ele><time>2026-04-29T18:17:11Z</time></trkpt><trkpt lat="43.89019497673065" lon="10.476830669946922"><ele>41.0</ele><time>2026-04-29T18:17:12Z</time></trkpt><trkpt lat="43.89038901672494" lon="10.476641520141639"><ele>41.5</ele><time>2026-04-29T18:17:13Z</time></trkpt><trkpt lat="43.890589939320634" lon="10.47641936119899"><ele>42.0</ele><time>2026-04-29T18:17:14Z</time></trkpt><trkpt lat="43.890801750638886" lon="10.476188929074667"><ele>44.0</ele><time>2026-04-29T18:17:15Z</time></trkpt><trkpt lat="43.89101065527803" lon="10.475969685067701"><ele>46.0</ele><time>2026-04-29T18:17:16Z</time></trkpt><trkpt lat="43.89119972822666" lon="10.475772689564893"><ele>46.0</ele><time>2026-04-29T18:17:17Z</time></trkpt><trkpt lat="43.89137813743578" lon="10.475614282356565"><ele>46.0</ele><time>2026-04-29T18:17:18Z</time></trkpt><trkpt lat="43.891546949230744" lon="10.475483500086757"><ele>46.0</ele><time>2026-04-29T18:17:19Z</time></trkpt><trkpt lat="43.891719689583006" lon="10.475417152684267"><ele>47.66666666666667</ele><time>2026-04-29T18:17:20Z</time></trkpt><trkpt lat="43.891887249950685" lon="10.475381849432132"><ele>49.333333333333336</ele><time>2026-04-29T18:17:21Z</time></trkpt><trkpt lat="43.892057736425635" lon="10.47538958417537"><ele>51.0</ele><time>2026-04-29T18:17:22Z</time></trkpt><trkpt lat="43.892232398332006" lon="10.475428928103844"><ele>50.66666666666667</ele><time>2026-04-29T18:17:23Z</time></trkpt><trkpt lat="43.892414687142114" lon="10.475518679476016"><ele>50.333333333333336</ele><time>2026-04-29T18:17:24Z</time></trkpt><trkpt lat="43.892606300462894" lon="10.475651156830729"><ele>50.0</ele><time>2026-04-29T18:17:25Z</time></trkpt><trkpt lat="43.89281399053166" lon="10.47578999905007"><ele>49.66666666666667</ele><time>2026-04-29T18:17:26Z</time></trkpt><trkpt lat="43.8930338079221" lon="10.47590505153107"><ele>49.33333333333333</ele><time>2026-04-29T18:17:27Z</time></trkpt><trkpt lat="43.893243127070185" lon="10.475959030065203"><ele>49.0</ele><time>2026-04-29T18:17:28Z</time></trkpt><trkpt lat="43.893436504532566" lon="10.475934272472168"><ele>49.0</ele><time>2026-04-29T18:17:29Z</time></trkpt><trkpt lat="43.89362324390751" lon="10.475846758543852"><ele>49.0</ele><time>2026-04-29T18:17:30Z</time></trkpt><trkpt lat="43.89379880992897" lon="10.475711120240925"><ele>49.0</ele><time>2026-04-29T18:17:31Z</time></trkpt><trkpt lat="43.89396095567978" lon="10.4755231182053"><ele>48.0</ele><time>2026-04-29T18:17:32Z</time></trkpt><trkpt lat="43.8941319225174" lon="10.475310497905362"><ele>47.0</ele><time>2026-04-29T18:17:33Z</time></trkpt><trkpt lat="43.894309627940125" lon="10.47508231993889"><ele>46.5</ele><time>2026-04-29T18:17:33.999Z</time></trkpt><trkpt lat="43.89448732981452" lon="10.474844575008362"><ele>46.0</ele><time>2026-04-29T18:17:34.999Z</time></trkpt><trkpt lat="43.894667991903134" lon="10.474603568010178"><ele>46.66666666666667</ele><time>2026-04-29T18:17:35.999Z</time></trkpt><trkpt lat="43.894834470034255" lon="10.474386246096664"><ele>47.333333333333336</ele><time>2026-04-29T18:17:36.999Z</time></trkpt><trkpt lat="43.89498298535086" lon="10.474191057929183"><ele>48.0</ele><time>2026-04-29T18:17:37.999Z</time></trkpt><trkpt lat="43.89511426885917" lon="10.474015775215186"><ele>48.0</ele><time>2026-04-29T18:17:38.999Z</time></trkpt><trkpt lat="43.89522156587887" lon="10.473863028822008"><ele>48.0</ele><time>2026-04-29T18:17:39.999Z</time></trkpt><trkpt lat="43.8952967123898" lon="10.473737905037435"><ele>48.0</ele><time>2026-04-29T18:17:40.999Z</time></trkpt><trkpt lat="43.89536739538921" lon="10.473673132627647"><ele>48.0</ele><time>2026-04-29T18:17:42Z</time></trkpt><trkpt lat="43.895393875572395" lon="10.473579046311713"><ele>48.0</ele><time>2026-04-29T18:17:43Z</time></trkpt><trkpt lat="43.895399923412626" lon="10.473417947251434"><ele>48.2</ele><time>2026-04-29T18:17:45Z</time></trkpt><trkpt lat="43.89532512814277" lon="10.473307147537197"><ele>48.4</ele><time>2026-04-29T18:17:47Z</time></trkpt><trkpt lat="43.89530240504712" lon="10.473155752323217"><ele>48.6</ele><time>2026-04-29T18:17:49Z</time></trkpt><trkpt lat="43.89532209761366" lon="10.473037489174178"><ele>48.800000000000004</ele><time>2026-04-29T18:17:50Z</time></trkpt><trkpt lat="43.89530899692785" lon="10.4729149636924"><ele>49.0</ele><time>2026-04-29T18:17:51Z</time></trkpt><trkpt lat="43.89527717662703" lon="10.472781312487522"><ele>50.0</ele><time>2026-04-29T18:17:52Z</time></trkpt><trkpt lat="43.89521513861087" lon="10.472663896976574"><ele>51.0</ele><time>2026-04-29T18:17:53Z</time></trkpt><trkpt lat="43.895132721328885" lon="10.472567130448295"><ele>52.00000000000001</ele><time>2026-04-29T18:17:54Z</time></trkpt><trkpt lat="43.89504974087671" lon="10.472467598129507"><ele>53.0</ele><time>2026-04-29T18:17:55Z</time></trkpt><trkpt lat="43.89496888920661" lon="10.472364673786862"><ele>54.0</ele><time>2026-04-29T18:17:56Z</time></trkpt><trkpt lat="43.89490763156998" lon="10.472290259977449"><ele>54.833333333333336</ele><time>2026-04-29T18:17:57Z</time></trkpt><trkpt lat="43.894871370038175" lon="10.47221771060553"><ele>55.66666666666667</ele><time>2026-04-29T18:17:58Z</time></trkpt><trkpt lat="43.89482804739359" lon="10.47211642080336"><ele>56.5</ele><time>2026-04-29T18:17:59Z</time></trkpt><trkpt lat="43.894797935210605" lon="10.472002831197752"><ele>57.333333333333336</ele><time>2026-04-29T18:18:00Z</time></trkpt><trkpt lat="43.89477015580228" lon="10.471883532720604"><ele>58.16666666666667</ele><time>2026-04-29T18:18:01Z</time></trkpt><trkpt lat="43.89469796843411" lon="10.471765184338418"><ele>59.0</ele><time>2026-04-29T18:18:02Z</time></trkpt><trkpt lat="43.894643129483505" lon="10.471634245611007"><ele>60.333333333333336</ele><time>2026-04-29T18:18:03Z</time></trkpt><trkpt lat="43.894596116669106" lon="10.471508379888457"><ele>61.66666666666667</ele><time>2026-04-29T18:18:04Z</time></trkpt><trkpt lat="43.89457237103545" lon="10.471393909484107"><ele>63.0</ele><time>2026-04-29T18:18:05Z</time></trkpt><trkpt lat="43.894571315804455" lon="10.471279758829265"><ele>64.33333333333333</ele><time>2026-04-29T18:18:06Z</time></trkpt><trkpt lat="43.89457607725973" lon="10.471171959687204"><ele>65.66666666666666</ele><time>2026-04-29T18:18:07Z</time></trkpt><trkpt lat="43.89455736728495" lon="10.471070113606231"><ele>67.0</ele><time>2026-04-29T18:18:08Z</time></trkpt><trkpt lat="43.894514720403" lon="10.470945452748218"><ele>69.33333333333333</ele><time>2026-04-29T18:18:09Z</time></trkpt><trkpt lat="43.89447943124309" lon="10.470823930578916"><ele>71.66666666666666</ele><time>2026-04-29T18:18:10Z</time></trkpt><trkpt lat="43.89447046600593" lon="10.470722133739459"><ele>74.0</ele><time>2026-04-29T18:18:11Z</time></trkpt><trkpt lat="43.894516552647225" lon="10.470594784017942"><ele>76.33333333333333</ele><time>2026-04-29T18:18:13Z</time></trkpt><trkpt lat="43.8945893108259" lon="10.470616277737317"><ele>78.66666666666667</ele><time>2026-04-29T18:18:15Z</time></trkpt><trkpt lat="43.894663784581944" lon="10.470673185506959"><ele>81.0</ele><time>2026-04-29T18:18:17Z</time></trkpt><trkpt lat="43.89473611380759" lon="10.470710310240882"><ele>81.0</ele><time>2026-04-29T18:18:18Z</time></trkpt><trkpt lat="43.89483959119227" lon="10.47076307540693"><ele>81.0</ele><time>2026-04-29T18:18:19Z</time></trkpt><trkpt lat="43.894950763343225" lon="10.470841452956098"><ele>81.0</ele><time>2026-04-29T18:18:20Z</time></trkpt><trkpt lat="43.895040576056" lon="10.470937888031202"><ele>81.0</ele><time>2026-04-29T18:18:21Z</time></trkpt><trkpt lat="43.89511404692572" lon="10.471028870640355"><ele>81.0</ele><time>2026-04-29T18:18:22Z</time></trkpt><trkpt lat="43.89519627282562" lon="10.471114799348337"><ele>80.0</ele><time>2026-04-29T18:18:23Z</time></trkpt><trkpt lat="43.89528211887384" lon="10.471184220582847"><ele>79.0</ele><time>2026-04-29T18:18:24Z</time></trkpt><trkpt lat="43.8953535880993" lon="10.471218738855965"><ele>78.0</ele><time>2026-04-29T18:18:25Z</time></trkpt><trkpt lat="43.89542709721504" lon="10.471242240291609"><ele>77.0</ele><time>2026-04-29T18:18:26Z</time></trkpt><trkpt lat="43.89549103428964" lon="10.471232000552842"><ele>76.0</ele><time>2026-04-29T18:18:27Z</time></trkpt><trkpt lat="43.89555981977993" lon="10.471103310798622"><ele>75.0</ele><time>2026-04-29T18:18:29Z</time></trkpt><trkpt lat="43.89556056969454" lon="10.471009590568196"><ele>75.0</ele><time>2026-04-29T18:18:30Z</time></trkpt><trkpt lat="43.89555826787035" lon="10.470912109141754"><ele>75.0</ele><time>2026-04-29T18:18:31Z</time></trkpt><trkpt lat="43.89555977165122" lon="10.47077514646323"><ele>75.0</ele><time>2026-04-29T18:18:33Z</time></trkpt><trkpt lat="43.89551785461158" lon="10.470672658114301"><ele>75.0</ele><time>2026-04-29T18:18:35Z</time></trkpt><trkpt lat="43.89544755254802" lon="10.470667143063878"><ele>75.0</ele><time>2026-04-29T18:18:38Z</time></trkpt><trkpt lat="43.89538298354654" lon="10.470689483690562"><ele>75.0</ele><time>2026-04-29T18:18:41Z</time></trkpt><trkpt lat="43.895326300587556" lon="10.470643675728379"><ele>75.0</ele><time>2026-04-29T18:18:55Z</time></trkpt></trkseg></trk></gpx>